<?xml version="1.0" encoding="UTF-8" standalone="no" ?>
<gpx xmlns="http://www.topografix.com/GPX/1/1" xmlns:xsi="http://www.w3.org/2001/XMLSchema-instance" xsi:schemaLocation="http://www.topografix.com/GPX/1/1 http://www.topografix.com/GPX/1/1/gpx.xsd" version="1.1" creator="VisuGPX - https://www.visugpx.com">
  <metadata>
    <name>OC GIF VTT - 20/08/2026 / Le Passage - Séné - Conleau - Vannes - St Léonard - Theix - Noyalo - Le Hézo - St Armel</name>
    <desc><![CDATA[Sortie avec Sylvain, connu sur la page FB Presqu\'île de Rhuys Golfe du Morbihan.
Une belle rencontre]]></desc>
  </metadata>
  <trk>
    <name><![CDATA[OC GIF VTT - 20/08/2026 / Le Passage - Séné - Conleau - Vannes - St Léonard - Theix - Noyalo - Le Hézo - St Armel_1]]></name>
    <trkseg>
      <trkpt lat="47.56515" lon="-2.72238">
        <ele>5</ele>
        <time>2026-08-20T11:39:53Z</time>
      </trkpt>
      <trkpt lat="47.56516" lon="-2.72232">
        <ele>5</ele>
        <time>2026-08-20T11:39:54Z</time>
      </trkpt>
      <trkpt lat="47.56516" lon="-2.72226">
        <ele>5</ele>
        <time>2026-08-20T11:39:55Z</time>
      </trkpt>
      <trkpt lat="47.56516" lon="-2.7222">
        <ele>5.1</ele>
        <time>2026-08-20T11:39:56Z</time>
      </trkpt>
      <trkpt lat="47.56515" lon="-2.72214">
        <ele>5.5</ele>
        <time>2026-08-20T11:39:57Z</time>
      </trkpt>
      <trkpt lat="47.56514" lon="-2.72209">
        <ele>5.7</ele>
        <time>2026-08-20T11:39:58Z</time>
      </trkpt>
      <trkpt lat="47.56513" lon="-2.72203">
        <ele>6</ele>
        <time>2026-08-20T11:39:59Z</time>
      </trkpt>
      <trkpt lat="47.56513" lon="-2.72197">
        <ele>6.3</ele>
        <time>2026-08-20T11:40:00Z</time>
      </trkpt>
      <trkpt lat="47.56512" lon="-2.72191">
        <ele>6.4</ele>
        <time>2026-08-20T11:40:01Z</time>
      </trkpt>
      <trkpt lat="47.56512" lon="-2.72184">
        <ele>6.4</ele>
        <time>2026-08-20T11:40:02Z</time>
      </trkpt>
      <trkpt lat="47.56512" lon="-2.72176">
        <ele>6.4</ele>
        <time>2026-08-20T11:40:03Z</time>
      </trkpt>
      <trkpt lat="47.56512" lon="-2.72169">
        <ele>6.4</ele>
        <time>2026-08-20T11:40:04Z</time>
      </trkpt>
      <trkpt lat="47.56512" lon="-2.72162">
        <ele>6.4</ele>
        <time>2026-08-20T11:40:05Z</time>
      </trkpt>
      <trkpt lat="47.56513" lon="-2.72154">
        <ele>6.3</ele>
        <time>2026-08-20T11:40:06Z</time>
      </trkpt>
      <trkpt lat="47.56514" lon="-2.72146">
        <ele>6.1</ele>
        <time>2026-08-20T11:40:07Z</time>
      </trkpt>
      <trkpt lat="47.56515" lon="-2.72138">
        <ele>6</ele>
        <time>2026-08-20T11:40:08Z</time>
      </trkpt>
      <trkpt lat="47.56516" lon="-2.7213">
        <ele>5.8</ele>
        <time>2026-08-20T11:40:09Z</time>
      </trkpt>
      <trkpt lat="47.56516" lon="-2.72121">
        <ele>5.6</ele>
        <time>2026-08-20T11:40:10Z</time>
      </trkpt>
      <trkpt lat="47.56517" lon="-2.72112">
        <ele>5.4</ele>
        <time>2026-08-20T11:40:11Z</time>
      </trkpt>
      <trkpt lat="47.56517" lon="-2.72103">
        <ele>5.3</ele>
        <time>2026-08-20T11:40:12Z</time>
      </trkpt>
      <trkpt lat="47.56517" lon="-2.72094">
        <ele>5.1</ele>
        <time>2026-08-20T11:40:13Z</time>
      </trkpt>
      <trkpt lat="47.56516" lon="-2.72085">
        <ele>5</ele>
        <time>2026-08-20T11:40:14Z</time>
      </trkpt>
      <trkpt lat="47.56514" lon="-2.72076">
        <ele>4.9</ele>
        <time>2026-08-20T11:40:15Z</time>
      </trkpt>
      <trkpt lat="47.56513" lon="-2.72068">
        <ele>4.7</ele>
        <time>2026-08-20T11:40:16Z</time>
      </trkpt>
      <trkpt lat="47.56511" lon="-2.72059">
        <ele>4.7</ele>
        <time>2026-08-20T11:40:17Z</time>
      </trkpt>
      <trkpt lat="47.56509" lon="-2.72051">
        <ele>4.6</ele>
        <time>2026-08-20T11:40:18Z</time>
      </trkpt>
      <trkpt lat="47.56507" lon="-2.72043">
        <ele>4.4</ele>
        <time>2026-08-20T11:40:19Z</time>
      </trkpt>
      <trkpt lat="47.56505" lon="-2.72035">
        <ele>4.2</ele>
        <time>2026-08-20T11:40:20Z</time>
      </trkpt>
      <trkpt lat="47.56503" lon="-2.72027">
        <ele>4</ele>
        <time>2026-08-20T11:40:21Z</time>
      </trkpt>
      <trkpt lat="47.56501" lon="-2.72019">
        <ele>4</ele>
        <time>2026-08-20T11:40:22Z</time>
      </trkpt>
      <trkpt lat="47.56499" lon="-2.72011">
        <ele>4</ele>
        <time>2026-08-20T11:40:23Z</time>
      </trkpt>
      <trkpt lat="47.56498" lon="-2.72003">
        <ele>4.1</ele>
        <time>2026-08-20T11:40:24Z</time>
      </trkpt>
      <trkpt lat="47.56497" lon="-2.71995">
        <ele>4.1</ele>
        <time>2026-08-20T11:40:25Z</time>
      </trkpt>
      <trkpt lat="47.56497" lon="-2.71987">
        <ele>4.1</ele>
        <time>2026-08-20T11:40:26Z</time>
      </trkpt>
      <trkpt lat="47.56497" lon="-2.71979">
        <ele>4.1</ele>
        <time>2026-08-20T11:40:27Z</time>
      </trkpt>
      <trkpt lat="47.56497" lon="-2.71971">
        <ele>4.2</ele>
        <time>2026-08-20T11:40:28Z</time>
      </trkpt>
      <trkpt lat="47.56497" lon="-2.71963">
        <ele>4.4</ele>
        <time>2026-08-20T11:40:29Z</time>
      </trkpt>
      <trkpt lat="47.56497" lon="-2.71955">
        <ele>4.7</ele>
        <time>2026-08-20T11:40:30Z</time>
      </trkpt>
      <trkpt lat="47.56498" lon="-2.71948">
        <ele>4.9</ele>
        <time>2026-08-20T11:40:31Z</time>
      </trkpt>
      <trkpt lat="47.56499" lon="-2.7194">
        <ele>5</ele>
        <time>2026-08-20T11:40:32Z</time>
      </trkpt>
      <trkpt lat="47.565" lon="-2.71932">
        <ele>5</ele>
        <time>2026-08-20T11:40:33Z</time>
      </trkpt>
      <trkpt lat="47.56501" lon="-2.71925">
        <ele>5</ele>
        <time>2026-08-20T11:40:34Z</time>
      </trkpt>
      <trkpt lat="47.56502" lon="-2.71917">
        <ele>5</ele>
        <time>2026-08-20T11:40:35Z</time>
      </trkpt>
      <trkpt lat="47.56504" lon="-2.7191">
        <ele>5.2</ele>
        <time>2026-08-20T11:40:36Z</time>
      </trkpt>
      <trkpt lat="47.56505" lon="-2.71903">
        <ele>5.4</ele>
        <time>2026-08-20T11:40:37Z</time>
      </trkpt>
      <trkpt lat="47.56507" lon="-2.71896">
        <ele>5.6</ele>
        <time>2026-08-20T11:40:38Z</time>
      </trkpt>
      <trkpt lat="47.56509" lon="-2.71889">
        <ele>5.7</ele>
        <time>2026-08-20T11:40:39Z</time>
      </trkpt>
      <trkpt lat="47.56511" lon="-2.71882">
        <ele>6.2</ele>
        <time>2026-08-20T11:40:40Z</time>
      </trkpt>
      <trkpt lat="47.56513" lon="-2.71876">
        <ele>6.5</ele>
        <time>2026-08-20T11:40:41Z</time>
      </trkpt>
      <trkpt lat="47.56516" lon="-2.71869">
        <ele>6.7</ele>
        <time>2026-08-20T11:40:42Z</time>
      </trkpt>
      <trkpt lat="47.56518" lon="-2.71862">
        <ele>7</ele>
        <time>2026-08-20T11:40:43Z</time>
      </trkpt>
      <trkpt lat="47.56521" lon="-2.71856">
        <ele>6.9</ele>
        <time>2026-08-20T11:40:44Z</time>
      </trkpt>
      <trkpt lat="47.56523" lon="-2.71849">
        <ele>7</ele>
        <time>2026-08-20T11:40:45Z</time>
      </trkpt>
      <trkpt lat="47.56526" lon="-2.71842">
        <ele>6.9</ele>
        <time>2026-08-20T11:40:46Z</time>
      </trkpt>
      <trkpt lat="47.56528" lon="-2.71837">
        <ele>6.9</ele>
        <time>2026-08-20T11:40:47Z</time>
      </trkpt>
      <trkpt lat="47.5653" lon="-2.71829">
        <ele>7.1</ele>
        <time>2026-08-20T11:40:48Z</time>
      </trkpt>
      <trkpt lat="47.56532" lon="-2.71822">
        <ele>7.2</ele>
        <time>2026-08-20T11:40:49Z</time>
      </trkpt>
      <trkpt lat="47.56533" lon="-2.71815">
        <ele>7.3</ele>
        <time>2026-08-20T11:40:50Z</time>
      </trkpt>
      <trkpt lat="47.56534" lon="-2.71808">
        <ele>7.5</ele>
        <time>2026-08-20T11:40:51Z</time>
      </trkpt>
      <trkpt lat="47.56535" lon="-2.71801">
        <ele>7.5</ele>
        <time>2026-08-20T11:40:52Z</time>
      </trkpt>
      <trkpt lat="47.56536" lon="-2.71794">
        <ele>7.5</ele>
        <time>2026-08-20T11:40:53Z</time>
      </trkpt>
      <trkpt lat="47.56536" lon="-2.71787">
        <ele>7.6</ele>
        <time>2026-08-20T11:40:54Z</time>
      </trkpt>
      <trkpt lat="47.56537" lon="-2.7178">
        <ele>7.6</ele>
        <time>2026-08-20T11:40:55Z</time>
      </trkpt>
      <trkpt lat="47.56537" lon="-2.71772">
        <ele>7.7</ele>
        <time>2026-08-20T11:40:56Z</time>
      </trkpt>
      <trkpt lat="47.56538" lon="-2.71765">
        <ele>7.6</ele>
        <time>2026-08-20T11:40:57Z</time>
      </trkpt>
      <trkpt lat="47.56539" lon="-2.71758">
        <ele>7.6</ele>
        <time>2026-08-20T11:40:58Z</time>
      </trkpt>
      <trkpt lat="47.5654" lon="-2.7175">
        <ele>7.6</ele>
        <time>2026-08-20T11:40:59Z</time>
      </trkpt>
      <trkpt lat="47.56541" lon="-2.71743">
        <ele>7.7</ele>
        <time>2026-08-20T11:41:00Z</time>
      </trkpt>
      <trkpt lat="47.56542" lon="-2.71735">
        <ele>7.8</ele>
        <time>2026-08-20T11:41:01Z</time>
      </trkpt>
      <trkpt lat="47.56543" lon="-2.71728">
        <ele>7.8</ele>
        <time>2026-08-20T11:41:02Z</time>
      </trkpt>
      <trkpt lat="47.56545" lon="-2.7172">
        <ele>7.8</ele>
        <time>2026-08-20T11:41:03Z</time>
      </trkpt>
      <trkpt lat="47.56547" lon="-2.71713">
        <ele>7.8</ele>
        <time>2026-08-20T11:41:04Z</time>
      </trkpt>
      <trkpt lat="47.56548" lon="-2.71705">
        <ele>8</ele>
        <time>2026-08-20T11:41:05Z</time>
      </trkpt>
      <trkpt lat="47.5655" lon="-2.71698">
        <ele>8.1</ele>
        <time>2026-08-20T11:41:06Z</time>
      </trkpt>
      <trkpt lat="47.56551" lon="-2.7169">
        <ele>8.3</ele>
        <time>2026-08-20T11:41:07Z</time>
      </trkpt>
      <trkpt lat="47.56553" lon="-2.71683">
        <ele>8.5</ele>
        <time>2026-08-20T11:41:08Z</time>
      </trkpt>
      <trkpt lat="47.56555" lon="-2.71676">
        <ele>8.7</ele>
        <time>2026-08-20T11:41:09Z</time>
      </trkpt>
      <trkpt lat="47.56556" lon="-2.71669">
        <ele>8.9</ele>
        <time>2026-08-20T11:41:10Z</time>
      </trkpt>
      <trkpt lat="47.56558" lon="-2.71662">
        <ele>8.9</ele>
        <time>2026-08-20T11:41:11Z</time>
      </trkpt>
      <trkpt lat="47.5656" lon="-2.71655">
        <ele>8.8</ele>
        <time>2026-08-20T11:41:12Z</time>
      </trkpt>
      <trkpt lat="47.56561" lon="-2.71647">
        <ele>8.8</ele>
        <time>2026-08-20T11:41:13Z</time>
      </trkpt>
      <trkpt lat="47.56562" lon="-2.7164">
        <ele>8.8</ele>
        <time>2026-08-20T11:41:14Z</time>
      </trkpt>
      <trkpt lat="47.56564" lon="-2.71633">
        <ele>8.7</ele>
        <time>2026-08-20T11:41:15Z</time>
      </trkpt>
      <trkpt lat="47.56565" lon="-2.71625">
        <ele>8.7</ele>
        <time>2026-08-20T11:41:16Z</time>
      </trkpt>
      <trkpt lat="47.56566" lon="-2.71617">
        <ele>8.6</ele>
        <time>2026-08-20T11:41:17Z</time>
      </trkpt>
      <trkpt lat="47.56567" lon="-2.71609">
        <ele>8.5</ele>
        <time>2026-08-20T11:41:18Z</time>
      </trkpt>
      <trkpt lat="47.56567" lon="-2.71601">
        <ele>8.2</ele>
        <time>2026-08-20T11:41:19Z</time>
      </trkpt>
      <trkpt lat="47.56568" lon="-2.71593">
        <ele>7.9</ele>
        <time>2026-08-20T11:41:20Z</time>
      </trkpt>
      <trkpt lat="47.56569" lon="-2.71585">
        <ele>7.6</ele>
        <time>2026-08-20T11:41:21Z</time>
      </trkpt>
      <trkpt lat="47.56572" lon="-2.71577">
        <ele>7.4</ele>
        <time>2026-08-20T11:41:22Z</time>
      </trkpt>
      <trkpt lat="47.56576" lon="-2.71571">
        <ele>7.3</ele>
        <time>2026-08-20T11:41:23Z</time>
      </trkpt>
      <trkpt lat="47.56581" lon="-2.71567">
        <ele>7.1</ele>
        <time>2026-08-20T11:41:24Z</time>
      </trkpt>
      <trkpt lat="47.56586" lon="-2.71564">
        <ele>6.9</ele>
        <time>2026-08-20T11:41:25Z</time>
      </trkpt>
      <trkpt lat="47.56592" lon="-2.71563">
        <ele>6.7</ele>
        <time>2026-08-20T11:41:26Z</time>
      </trkpt>
      <trkpt lat="47.56598" lon="-2.71562">
        <ele>6.5</ele>
        <time>2026-08-20T11:41:27Z</time>
      </trkpt>
      <trkpt lat="47.56604" lon="-2.71562">
        <ele>6.3</ele>
        <time>2026-08-20T11:41:28Z</time>
      </trkpt>
      <trkpt lat="47.5661" lon="-2.71561">
        <ele>6</ele>
        <time>2026-08-20T11:41:29Z</time>
      </trkpt>
      <trkpt lat="47.56616" lon="-2.71561">
        <ele>5.8</ele>
        <time>2026-08-20T11:41:30Z</time>
      </trkpt>
      <trkpt lat="47.56623" lon="-2.7156">
        <ele>5.6</ele>
        <time>2026-08-20T11:41:31Z</time>
      </trkpt>
      <trkpt lat="47.56629" lon="-2.7156">
        <ele>5.4</ele>
        <time>2026-08-20T11:41:32Z</time>
      </trkpt>
      <trkpt lat="47.56636" lon="-2.71559">
        <ele>5.1</ele>
        <time>2026-08-20T11:41:33Z</time>
      </trkpt>
      <trkpt lat="47.56644" lon="-2.71558">
        <ele>4.8</ele>
        <time>2026-08-20T11:41:34Z</time>
      </trkpt>
      <trkpt lat="47.56651" lon="-2.71557">
        <ele>4.6</ele>
        <time>2026-08-20T11:41:35Z</time>
      </trkpt>
      <trkpt lat="47.56658" lon="-2.71556">
        <ele>4.3</ele>
        <time>2026-08-20T11:41:36Z</time>
      </trkpt>
      <trkpt lat="47.56665" lon="-2.71555">
        <ele>4.1</ele>
        <time>2026-08-20T11:41:37Z</time>
      </trkpt>
      <trkpt lat="47.56672" lon="-2.71554">
        <ele>4</ele>
        <time>2026-08-20T11:41:38Z</time>
      </trkpt>
      <trkpt lat="47.5668" lon="-2.71553">
        <ele>4</ele>
        <time>2026-08-20T11:41:39Z</time>
      </trkpt>
      <trkpt lat="47.56687" lon="-2.71552">
        <ele>4.1</ele>
        <time>2026-08-20T11:41:40Z</time>
      </trkpt>
      <trkpt lat="47.56694" lon="-2.71551">
        <ele>4.2</ele>
        <time>2026-08-20T11:41:41Z</time>
      </trkpt>
      <trkpt lat="47.56701" lon="-2.7155">
        <ele>4.4</ele>
        <time>2026-08-20T11:41:42Z</time>
      </trkpt>
      <trkpt lat="47.56708" lon="-2.71549">
        <ele>4.6</ele>
        <time>2026-08-20T11:41:43Z</time>
      </trkpt>
      <trkpt lat="47.56715" lon="-2.71548">
        <ele>4.8</ele>
        <time>2026-08-20T11:41:44Z</time>
      </trkpt>
      <trkpt lat="47.56722" lon="-2.71547">
        <ele>5</ele>
        <time>2026-08-20T11:41:45Z</time>
      </trkpt>
      <trkpt lat="47.56728" lon="-2.71546">
        <ele>5.2</ele>
        <time>2026-08-20T11:41:46Z</time>
      </trkpt>
      <trkpt lat="47.56734" lon="-2.71545">
        <ele>5.4</ele>
        <time>2026-08-20T11:41:47Z</time>
      </trkpt>
      <trkpt lat="47.5674" lon="-2.71544">
        <ele>5.6</ele>
        <time>2026-08-20T11:41:48Z</time>
      </trkpt>
      <trkpt lat="47.56746" lon="-2.71544">
        <ele>5.9</ele>
        <time>2026-08-20T11:41:49Z</time>
      </trkpt>
      <trkpt lat="47.56752" lon="-2.71543">
        <ele>6</ele>
        <time>2026-08-20T11:41:50Z</time>
      </trkpt>
      <trkpt lat="47.56758" lon="-2.71542">
        <ele>6.1</ele>
        <time>2026-08-20T11:41:51Z</time>
      </trkpt>
      <trkpt lat="47.56763" lon="-2.71542">
        <ele>6.2</ele>
        <time>2026-08-20T11:41:52Z</time>
      </trkpt>
      <trkpt lat="47.56769" lon="-2.71541">
        <ele>6.4</ele>
        <time>2026-08-20T11:41:53Z</time>
      </trkpt>
      <trkpt lat="47.56774" lon="-2.71541">
        <ele>6.5</ele>
        <time>2026-08-20T11:41:54Z</time>
      </trkpt>
      <trkpt lat="47.5678" lon="-2.71541">
        <ele>6.6</ele>
        <time>2026-08-20T11:41:55Z</time>
      </trkpt>
      <trkpt lat="47.56785" lon="-2.7154">
        <ele>6.8</ele>
        <time>2026-08-20T11:41:56Z</time>
      </trkpt>
      <trkpt lat="47.5679" lon="-2.71539">
        <ele>7</ele>
        <time>2026-08-20T11:41:57Z</time>
      </trkpt>
      <trkpt lat="47.56795" lon="-2.71538">
        <ele>7.3</ele>
        <time>2026-08-20T11:41:58Z</time>
      </trkpt>
      <trkpt lat="47.56801" lon="-2.71536">
        <ele>7.5</ele>
        <time>2026-08-20T11:41:59Z</time>
      </trkpt>
      <trkpt lat="47.56806" lon="-2.71535">
        <ele>7.7</ele>
        <time>2026-08-20T11:42:00Z</time>
      </trkpt>
      <trkpt lat="47.56811" lon="-2.71534">
        <ele>7.8</ele>
        <time>2026-08-20T11:42:01Z</time>
      </trkpt>
      <trkpt lat="47.56816" lon="-2.71534">
        <ele>7.9</ele>
        <time>2026-08-20T11:42:02Z</time>
      </trkpt>
      <trkpt lat="47.56822" lon="-2.71533">
        <ele>7.9</ele>
        <time>2026-08-20T11:42:03Z</time>
      </trkpt>
      <trkpt lat="47.56827" lon="-2.71532">
        <ele>8</ele>
        <time>2026-08-20T11:42:04Z</time>
      </trkpt>
      <trkpt lat="47.56832" lon="-2.71531">
        <ele>8</ele>
        <time>2026-08-20T11:42:05Z</time>
      </trkpt>
      <trkpt lat="47.56838" lon="-2.71531">
        <ele>8</ele>
        <time>2026-08-20T11:42:06Z</time>
      </trkpt>
      <trkpt lat="47.56843" lon="-2.7153">
        <ele>8</ele>
        <time>2026-08-20T11:42:07Z</time>
      </trkpt>
      <trkpt lat="47.56848" lon="-2.71529">
        <ele>8</ele>
        <time>2026-08-20T11:42:08Z</time>
      </trkpt>
      <trkpt lat="47.56853" lon="-2.71528">
        <ele>8</ele>
        <time>2026-08-20T11:42:09Z</time>
      </trkpt>
      <trkpt lat="47.56858" lon="-2.71527">
        <ele>8</ele>
        <time>2026-08-20T11:42:10Z</time>
      </trkpt>
      <trkpt lat="47.56863" lon="-2.71527">
        <ele>8</ele>
        <time>2026-08-20T11:42:11Z</time>
      </trkpt>
      <trkpt lat="47.56869" lon="-2.71526">
        <ele>8.1</ele>
        <time>2026-08-20T11:42:12Z</time>
      </trkpt>
      <trkpt lat="47.56874" lon="-2.71525">
        <ele>8.1</ele>
        <time>2026-08-20T11:42:13Z</time>
      </trkpt>
      <trkpt lat="47.56879" lon="-2.71524">
        <ele>8.1</ele>
        <time>2026-08-20T11:42:14Z</time>
      </trkpt>
      <trkpt lat="47.56885" lon="-2.71523">
        <ele>8.2</ele>
        <time>2026-08-20T11:42:15Z</time>
      </trkpt>
      <trkpt lat="47.5689" lon="-2.71522">
        <ele>8.2</ele>
        <time>2026-08-20T11:42:16Z</time>
      </trkpt>
      <trkpt lat="47.56896" lon="-2.71521">
        <ele>8</ele>
        <time>2026-08-20T11:42:17Z</time>
      </trkpt>
      <trkpt lat="47.56902" lon="-2.71521">
        <ele>7.8</ele>
        <time>2026-08-20T11:42:18Z</time>
      </trkpt>
      <trkpt lat="47.56908" lon="-2.7152">
        <ele>7.6</ele>
        <time>2026-08-20T11:42:19Z</time>
      </trkpt>
      <trkpt lat="47.56914" lon="-2.71519">
        <ele>7.4</ele>
        <time>2026-08-20T11:42:20Z</time>
      </trkpt>
      <trkpt lat="47.5692" lon="-2.71518">
        <ele>7.2</ele>
        <time>2026-08-20T11:42:21Z</time>
      </trkpt>
      <trkpt lat="47.56926" lon="-2.71517">
        <ele>7.1</ele>
        <time>2026-08-20T11:42:22Z</time>
      </trkpt>
      <trkpt lat="47.56932" lon="-2.71516">
        <ele>6.9</ele>
        <time>2026-08-20T11:42:23Z</time>
      </trkpt>
      <trkpt lat="47.56938" lon="-2.71515">
        <ele>6.7</ele>
        <time>2026-08-20T11:42:24Z</time>
      </trkpt>
      <trkpt lat="47.56944" lon="-2.71514">
        <ele>6.5</ele>
        <time>2026-08-20T11:42:25Z</time>
      </trkpt>
      <trkpt lat="47.56951" lon="-2.71514">
        <ele>6.4</ele>
        <time>2026-08-20T11:42:26Z</time>
      </trkpt>
      <trkpt lat="47.56957" lon="-2.71513">
        <ele>6.3</ele>
        <time>2026-08-20T11:42:27Z</time>
      </trkpt>
      <trkpt lat="47.56963" lon="-2.71512">
        <ele>6.3</ele>
        <time>2026-08-20T11:42:28Z</time>
      </trkpt>
      <trkpt lat="47.5697" lon="-2.71511">
        <ele>6.2</ele>
        <time>2026-08-20T11:42:29Z</time>
      </trkpt>
      <trkpt lat="47.56976" lon="-2.71511">
        <ele>6.1</ele>
        <time>2026-08-20T11:42:30Z</time>
      </trkpt>
      <trkpt lat="47.56982" lon="-2.7151">
        <ele>6.1</ele>
        <time>2026-08-20T11:42:31Z</time>
      </trkpt>
      <trkpt lat="47.56988" lon="-2.7151">
        <ele>5.9</ele>
        <time>2026-08-20T11:42:32Z</time>
      </trkpt>
      <trkpt lat="47.56994" lon="-2.71509">
        <ele>5.8</ele>
        <time>2026-08-20T11:42:33Z</time>
      </trkpt>
      <trkpt lat="47.57" lon="-2.71507">
        <ele>5.7</ele>
        <time>2026-08-20T11:42:34Z</time>
      </trkpt>
      <trkpt lat="47.57007" lon="-2.71506">
        <ele>5.5</ele>
        <time>2026-08-20T11:42:35Z</time>
      </trkpt>
      <trkpt lat="47.57014" lon="-2.71505">
        <ele>5.3</ele>
        <time>2026-08-20T11:42:36Z</time>
      </trkpt>
      <trkpt lat="47.5702" lon="-2.71505">
        <ele>5.1</ele>
        <time>2026-08-20T11:42:37Z</time>
      </trkpt>
      <trkpt lat="47.57026" lon="-2.71504">
        <ele>4.9</ele>
        <time>2026-08-20T11:42:38Z</time>
      </trkpt>
      <trkpt lat="47.57032" lon="-2.71503">
        <ele>4.9</ele>
        <time>2026-08-20T11:42:39Z</time>
      </trkpt>
      <trkpt lat="47.57039" lon="-2.71502">
        <ele>4.9</ele>
        <time>2026-08-20T11:42:40Z</time>
      </trkpt>
      <trkpt lat="47.57045" lon="-2.71501">
        <ele>5</ele>
        <time>2026-08-20T11:42:41Z</time>
      </trkpt>
      <trkpt lat="47.57051" lon="-2.715">
        <ele>5</ele>
        <time>2026-08-20T11:42:42Z</time>
      </trkpt>
      <trkpt lat="47.57058" lon="-2.71499">
        <ele>4.9</ele>
        <time>2026-08-20T11:42:43Z</time>
      </trkpt>
      <trkpt lat="47.57064" lon="-2.71498">
        <ele>4.7</ele>
        <time>2026-08-20T11:42:44Z</time>
      </trkpt>
      <trkpt lat="47.5707" lon="-2.71497">
        <ele>4.5</ele>
        <time>2026-08-20T11:42:45Z</time>
      </trkpt>
      <trkpt lat="47.57077" lon="-2.71497">
        <ele>4.3</ele>
        <time>2026-08-20T11:42:46Z</time>
      </trkpt>
      <trkpt lat="47.57083" lon="-2.71496">
        <ele>4.2</ele>
        <time>2026-08-20T11:42:47Z</time>
      </trkpt>
      <trkpt lat="47.57089" lon="-2.71495">
        <ele>4.2</ele>
        <time>2026-08-20T11:42:48Z</time>
      </trkpt>
      <trkpt lat="47.57096" lon="-2.71494">
        <ele>4.2</ele>
        <time>2026-08-20T11:42:49Z</time>
      </trkpt>
      <trkpt lat="47.57102" lon="-2.71493">
        <ele>4.3</ele>
        <time>2026-08-20T11:42:50Z</time>
      </trkpt>
      <trkpt lat="47.57108" lon="-2.71492">
        <ele>4.3</ele>
        <time>2026-08-20T11:42:51Z</time>
      </trkpt>
      <trkpt lat="47.57114" lon="-2.71491">
        <ele>4.3</ele>
        <time>2026-08-20T11:42:52Z</time>
      </trkpt>
      <trkpt lat="47.5712" lon="-2.7149">
        <ele>4.4</ele>
        <time>2026-08-20T11:42:53Z</time>
      </trkpt>
      <trkpt lat="47.57127" lon="-2.71489">
        <ele>4.4</ele>
        <time>2026-08-20T11:42:54Z</time>
      </trkpt>
      <trkpt lat="47.57133" lon="-2.71488">
        <ele>4.4</ele>
        <time>2026-08-20T11:42:55Z</time>
      </trkpt>
      <trkpt lat="47.57139" lon="-2.71487">
        <ele>4.5</ele>
        <time>2026-08-20T11:42:56Z</time>
      </trkpt>
      <trkpt lat="47.57145" lon="-2.71486">
        <ele>4.5</ele>
        <time>2026-08-20T11:42:57Z</time>
      </trkpt>
      <trkpt lat="47.57151" lon="-2.71485">
        <ele>4.5</ele>
        <time>2026-08-20T11:42:58Z</time>
      </trkpt>
      <trkpt lat="47.57157" lon="-2.71484">
        <ele>4.6</ele>
        <time>2026-08-20T11:42:59Z</time>
      </trkpt>
      <trkpt lat="47.57164" lon="-2.71483">
        <ele>4.6</ele>
        <time>2026-08-20T11:43:00Z</time>
      </trkpt>
      <trkpt lat="47.5717" lon="-2.71483">
        <ele>4.5</ele>
        <time>2026-08-20T11:43:01Z</time>
      </trkpt>
      <trkpt lat="47.57176" lon="-2.71482">
        <ele>4.4</ele>
        <time>2026-08-20T11:43:02Z</time>
      </trkpt>
      <trkpt lat="47.57183" lon="-2.71481">
        <ele>4.3</ele>
        <time>2026-08-20T11:43:03Z</time>
      </trkpt>
      <trkpt lat="47.57189" lon="-2.7148">
        <ele>4.1</ele>
        <time>2026-08-20T11:43:04Z</time>
      </trkpt>
      <trkpt lat="47.57195" lon="-2.71479">
        <ele>4</ele>
        <time>2026-08-20T11:43:05Z</time>
      </trkpt>
      <trkpt lat="47.57202" lon="-2.71478">
        <ele>3.9</ele>
        <time>2026-08-20T11:43:06Z</time>
      </trkpt>
      <trkpt lat="47.57208" lon="-2.71477">
        <ele>3.9</ele>
        <time>2026-08-20T11:43:07Z</time>
      </trkpt>
      <trkpt lat="47.57214" lon="-2.71476">
        <ele>3.9</ele>
        <time>2026-08-20T11:43:08Z</time>
      </trkpt>
      <trkpt lat="47.57221" lon="-2.71475">
        <ele>3.9</ele>
        <time>2026-08-20T11:43:09Z</time>
      </trkpt>
      <trkpt lat="47.57227" lon="-2.71474">
        <ele>3.9</ele>
        <time>2026-08-20T11:43:10Z</time>
      </trkpt>
      <trkpt lat="47.57233" lon="-2.71473">
        <ele>4</ele>
        <time>2026-08-20T11:43:11Z</time>
      </trkpt>
      <trkpt lat="47.57239" lon="-2.71473">
        <ele>4</ele>
        <time>2026-08-20T11:43:12Z</time>
      </trkpt>
      <trkpt lat="47.57245" lon="-2.71472">
        <ele>4</ele>
        <time>2026-08-20T11:43:13Z</time>
      </trkpt>
      <trkpt lat="47.57251" lon="-2.71471">
        <ele>4</ele>
        <time>2026-08-20T11:43:14Z</time>
      </trkpt>
      <trkpt lat="47.57257" lon="-2.71471">
        <ele>4</ele>
        <time>2026-08-20T11:43:15Z</time>
      </trkpt>
      <trkpt lat="47.57263" lon="-2.7147">
        <ele>4</ele>
        <time>2026-08-20T11:43:16Z</time>
      </trkpt>
      <trkpt lat="47.57269" lon="-2.71469">
        <ele>4</ele>
        <time>2026-08-20T11:43:17Z</time>
      </trkpt>
      <trkpt lat="47.57275" lon="-2.71468">
        <ele>4</ele>
        <time>2026-08-20T11:43:18Z</time>
      </trkpt>
      <trkpt lat="47.57281" lon="-2.71467">
        <ele>4</ele>
        <time>2026-08-20T11:43:19Z</time>
      </trkpt>
      <trkpt lat="47.57287" lon="-2.71466">
        <ele>4</ele>
        <time>2026-08-20T11:43:20Z</time>
      </trkpt>
      <trkpt lat="47.57293" lon="-2.71466">
        <ele>4</ele>
        <time>2026-08-20T11:43:21Z</time>
      </trkpt>
      <trkpt lat="47.57299" lon="-2.71465">
        <ele>4</ele>
        <time>2026-08-20T11:43:22Z</time>
      </trkpt>
      <trkpt lat="47.57305" lon="-2.71464">
        <ele>4</ele>
        <time>2026-08-20T11:43:23Z</time>
      </trkpt>
      <trkpt lat="47.5731" lon="-2.71463">
        <ele>4</ele>
        <time>2026-08-20T11:43:24Z</time>
      </trkpt>
      <trkpt lat="47.57316" lon="-2.71463">
        <ele>4</ele>
        <time>2026-08-20T11:43:25Z</time>
      </trkpt>
      <trkpt lat="47.57322" lon="-2.71462">
        <ele>4</ele>
        <time>2026-08-20T11:43:26Z</time>
      </trkpt>
      <trkpt lat="47.57328" lon="-2.71461">
        <ele>4</ele>
        <time>2026-08-20T11:43:27Z</time>
      </trkpt>
      <trkpt lat="47.57334" lon="-2.71461">
        <ele>4</ele>
        <time>2026-08-20T11:43:28Z</time>
      </trkpt>
      <trkpt lat="47.57339" lon="-2.7146">
        <ele>4.2</ele>
        <time>2026-08-20T11:43:29Z</time>
      </trkpt>
      <trkpt lat="47.57345" lon="-2.71459">
        <ele>4.4</ele>
        <time>2026-08-20T11:43:30Z</time>
      </trkpt>
      <trkpt lat="47.5735" lon="-2.71458">
        <ele>4.6</ele>
        <time>2026-08-20T11:43:31Z</time>
      </trkpt>
      <trkpt lat="47.57355" lon="-2.71458">
        <ele>4.8</ele>
        <time>2026-08-20T11:43:32Z</time>
      </trkpt>
      <trkpt lat="47.57361" lon="-2.71457">
        <ele>5</ele>
        <time>2026-08-20T11:43:33Z</time>
      </trkpt>
      <trkpt lat="47.57366" lon="-2.71456">
        <ele>5</ele>
        <time>2026-08-20T11:43:34Z</time>
      </trkpt>
      <trkpt lat="47.57371" lon="-2.71456">
        <ele>5</ele>
        <time>2026-08-20T11:43:35Z</time>
      </trkpt>
      <trkpt lat="47.57376" lon="-2.71455">
        <ele>5</ele>
        <time>2026-08-20T11:43:36Z</time>
      </trkpt>
      <trkpt lat="47.57381" lon="-2.71454">
        <ele>5</ele>
        <time>2026-08-20T11:43:37Z</time>
      </trkpt>
      <trkpt lat="47.57386" lon="-2.71454">
        <ele>5</ele>
        <time>2026-08-20T11:43:38Z</time>
      </trkpt>
      <trkpt lat="47.5739" lon="-2.71453">
        <ele>5</ele>
        <time>2026-08-20T11:43:39Z</time>
      </trkpt>
      <trkpt lat="47.57395" lon="-2.71453">
        <ele>5</ele>
        <time>2026-08-20T11:43:40Z</time>
      </trkpt>
      <trkpt lat="47.574" lon="-2.71453">
        <ele>5</ele>
        <time>2026-08-20T11:43:41Z</time>
      </trkpt>
      <trkpt lat="47.57405" lon="-2.71453">
        <ele>5</ele>
        <time>2026-08-20T11:43:42Z</time>
      </trkpt>
      <trkpt lat="47.5741" lon="-2.71452">
        <ele>5</ele>
        <time>2026-08-20T11:43:43Z</time>
      </trkpt>
      <trkpt lat="47.57415" lon="-2.71451">
        <ele>5</ele>
        <time>2026-08-20T11:43:44Z</time>
      </trkpt>
      <trkpt lat="47.5742" lon="-2.7145">
        <ele>5</ele>
        <time>2026-08-20T11:43:45Z</time>
      </trkpt>
      <trkpt lat="47.57425" lon="-2.71449">
        <ele>5</ele>
        <time>2026-08-20T11:43:46Z</time>
      </trkpt>
      <trkpt lat="47.57429" lon="-2.71447">
        <ele>5</ele>
        <time>2026-08-20T11:43:47Z</time>
      </trkpt>
      <trkpt lat="47.57434" lon="-2.71445">
        <ele>5</ele>
        <time>2026-08-20T11:43:48Z</time>
      </trkpt>
      <trkpt lat="47.57439" lon="-2.71443">
        <ele>5</ele>
        <time>2026-08-20T11:43:49Z</time>
      </trkpt>
      <trkpt lat="47.57444" lon="-2.71441">
        <ele>5</ele>
        <time>2026-08-20T11:43:50Z</time>
      </trkpt>
      <trkpt lat="47.57449" lon="-2.71439">
        <ele>5.2</ele>
        <time>2026-08-20T11:43:51Z</time>
      </trkpt>
      <trkpt lat="47.57454" lon="-2.71436">
        <ele>5.3</ele>
        <time>2026-08-20T11:43:52Z</time>
      </trkpt>
      <trkpt lat="47.57459" lon="-2.71434">
        <ele>5.5</ele>
        <time>2026-08-20T11:43:53Z</time>
      </trkpt>
      <trkpt lat="47.57464" lon="-2.71432">
        <ele>5.7</ele>
        <time>2026-08-20T11:43:54Z</time>
      </trkpt>
      <trkpt lat="47.57469" lon="-2.7143">
        <ele>5.9</ele>
        <time>2026-08-20T11:43:55Z</time>
      </trkpt>
      <trkpt lat="47.57475" lon="-2.71428">
        <ele>6</ele>
        <time>2026-08-20T11:43:56Z</time>
      </trkpt>
      <trkpt lat="47.5748" lon="-2.71426">
        <ele>6</ele>
        <time>2026-08-20T11:43:57Z</time>
      </trkpt>
      <trkpt lat="47.57485" lon="-2.71424">
        <ele>6</ele>
        <time>2026-08-20T11:43:58Z</time>
      </trkpt>
      <trkpt lat="47.5749" lon="-2.71422">
        <ele>6</ele>
        <time>2026-08-20T11:43:59Z</time>
      </trkpt>
      <trkpt lat="47.57496" lon="-2.7142">
        <ele>6</ele>
        <time>2026-08-20T11:44:00Z</time>
      </trkpt>
      <trkpt lat="47.57501" lon="-2.71418">
        <ele>6</ele>
        <time>2026-08-20T11:44:01Z</time>
      </trkpt>
      <trkpt lat="47.57506" lon="-2.71416">
        <ele>6</ele>
        <time>2026-08-20T11:44:02Z</time>
      </trkpt>
      <trkpt lat="47.57511" lon="-2.71414">
        <ele>6</ele>
        <time>2026-08-20T11:44:03Z</time>
      </trkpt>
      <trkpt lat="47.57517" lon="-2.71412">
        <ele>6</ele>
        <time>2026-08-20T11:44:04Z</time>
      </trkpt>
      <trkpt lat="47.57522" lon="-2.7141">
        <ele>6</ele>
        <time>2026-08-20T11:44:05Z</time>
      </trkpt>
      <trkpt lat="47.57527" lon="-2.71408">
        <ele>6</ele>
        <time>2026-08-20T11:44:06Z</time>
      </trkpt>
      <trkpt lat="47.57533" lon="-2.71406">
        <ele>6</ele>
        <time>2026-08-20T11:44:07Z</time>
      </trkpt>
      <trkpt lat="47.57538" lon="-2.71404">
        <ele>6</ele>
        <time>2026-08-20T11:44:08Z</time>
      </trkpt>
      <trkpt lat="47.57543" lon="-2.71402">
        <ele>6</ele>
        <time>2026-08-20T11:44:09Z</time>
      </trkpt>
      <trkpt lat="47.57549" lon="-2.714">
        <ele>6</ele>
        <time>2026-08-20T11:44:10Z</time>
      </trkpt>
      <trkpt lat="47.57554" lon="-2.71398">
        <ele>6</ele>
        <time>2026-08-20T11:44:11Z</time>
      </trkpt>
      <trkpt lat="47.57559" lon="-2.71396">
        <ele>6</ele>
        <time>2026-08-20T11:44:12Z</time>
      </trkpt>
      <trkpt lat="47.57565" lon="-2.71394">
        <ele>6</ele>
        <time>2026-08-20T11:44:13Z</time>
      </trkpt>
      <trkpt lat="47.5757" lon="-2.71392">
        <ele>6</ele>
        <time>2026-08-20T11:44:14Z</time>
      </trkpt>
      <trkpt lat="47.57575" lon="-2.7139">
        <ele>6</ele>
        <time>2026-08-20T11:44:15Z</time>
      </trkpt>
      <trkpt lat="47.57581" lon="-2.71387">
        <ele>6</ele>
        <time>2026-08-20T11:44:16Z</time>
      </trkpt>
      <trkpt lat="47.57586" lon="-2.71385">
        <ele>6</ele>
        <time>2026-08-20T11:44:17Z</time>
      </trkpt>
      <trkpt lat="47.57592" lon="-2.71383">
        <ele>6</ele>
        <time>2026-08-20T11:44:18Z</time>
      </trkpt>
      <trkpt lat="47.57597" lon="-2.71381">
        <ele>6</ele>
        <time>2026-08-20T11:44:19Z</time>
      </trkpt>
      <trkpt lat="47.57603" lon="-2.71378">
        <ele>6</ele>
        <time>2026-08-20T11:44:20Z</time>
      </trkpt>
      <trkpt lat="47.57608" lon="-2.71376">
        <ele>6</ele>
        <time>2026-08-20T11:44:21Z</time>
      </trkpt>
      <trkpt lat="47.57614" lon="-2.71374">
        <ele>6</ele>
        <time>2026-08-20T11:44:22Z</time>
      </trkpt>
      <trkpt lat="47.5762" lon="-2.71371">
        <ele>5.9</ele>
        <time>2026-08-20T11:44:23Z</time>
      </trkpt>
      <trkpt lat="47.57626" lon="-2.71369">
        <ele>5.8</ele>
        <time>2026-08-20T11:44:24Z</time>
      </trkpt>
      <trkpt lat="47.57632" lon="-2.71367">
        <ele>5.8</ele>
        <time>2026-08-20T11:44:25Z</time>
      </trkpt>
      <trkpt lat="47.57637" lon="-2.71365">
        <ele>5.9</ele>
        <time>2026-08-20T11:44:26Z</time>
      </trkpt>
      <trkpt lat="47.57643" lon="-2.71363">
        <ele>5.8</ele>
        <time>2026-08-20T11:44:27Z</time>
      </trkpt>
      <trkpt lat="47.57649" lon="-2.71361">
        <ele>5.6</ele>
        <time>2026-08-20T11:44:28Z</time>
      </trkpt>
      <trkpt lat="47.57655" lon="-2.71359">
        <ele>5.5</ele>
        <time>2026-08-20T11:44:29Z</time>
      </trkpt>
      <trkpt lat="47.57661" lon="-2.71357">
        <ele>5.3</ele>
        <time>2026-08-20T11:44:30Z</time>
      </trkpt>
      <trkpt lat="47.57666" lon="-2.71355">
        <ele>5.2</ele>
        <time>2026-08-20T11:44:31Z</time>
      </trkpt>
      <trkpt lat="47.57672" lon="-2.71353">
        <ele>5.2</ele>
        <time>2026-08-20T11:44:32Z</time>
      </trkpt>
      <trkpt lat="47.57678" lon="-2.7135">
        <ele>5.2</ele>
        <time>2026-08-20T11:44:33Z</time>
      </trkpt>
      <trkpt lat="47.57684" lon="-2.71347">
        <ele>5.2</ele>
        <time>2026-08-20T11:44:34Z</time>
      </trkpt>
      <trkpt lat="47.5769" lon="-2.71345">
        <ele>5.1</ele>
        <time>2026-08-20T11:44:35Z</time>
      </trkpt>
      <trkpt lat="47.57697" lon="-2.71343">
        <ele>4.9</ele>
        <time>2026-08-20T11:44:36Z</time>
      </trkpt>
      <trkpt lat="47.57703" lon="-2.7134">
        <ele>4.7</ele>
        <time>2026-08-20T11:44:37Z</time>
      </trkpt>
      <trkpt lat="47.57709" lon="-2.71338">
        <ele>4.5</ele>
        <time>2026-08-20T11:44:38Z</time>
      </trkpt>
      <trkpt lat="47.57716" lon="-2.71336">
        <ele>4.2</ele>
        <time>2026-08-20T11:44:39Z</time>
      </trkpt>
      <trkpt lat="47.57722" lon="-2.71333">
        <ele>4</ele>
        <time>2026-08-20T11:44:40Z</time>
      </trkpt>
      <trkpt lat="47.57728" lon="-2.71331">
        <ele>4</ele>
        <time>2026-08-20T11:44:41Z</time>
      </trkpt>
      <trkpt lat="47.57735" lon="-2.71328">
        <ele>4</ele>
        <time>2026-08-20T11:44:42Z</time>
      </trkpt>
      <trkpt lat="47.57741" lon="-2.71326">
        <ele>4</ele>
        <time>2026-08-20T11:44:43Z</time>
      </trkpt>
      <trkpt lat="47.57748" lon="-2.71324">
        <ele>4</ele>
        <time>2026-08-20T11:44:44Z</time>
      </trkpt>
      <trkpt lat="47.57754" lon="-2.71321">
        <ele>3.9</ele>
        <time>2026-08-20T11:44:45Z</time>
      </trkpt>
      <trkpt lat="47.5776" lon="-2.71319">
        <ele>3.8</ele>
        <time>2026-08-20T11:44:46Z</time>
      </trkpt>
      <trkpt lat="47.57767" lon="-2.71316">
        <ele>3.6</ele>
        <time>2026-08-20T11:44:47Z</time>
      </trkpt>
      <trkpt lat="47.57773" lon="-2.71314">
        <ele>3.4</ele>
        <time>2026-08-20T11:44:48Z</time>
      </trkpt>
      <trkpt lat="47.57779" lon="-2.71311">
        <ele>3.2</ele>
        <time>2026-08-20T11:44:49Z</time>
      </trkpt>
      <trkpt lat="47.57785" lon="-2.71309">
        <ele>3.1</ele>
        <time>2026-08-20T11:44:50Z</time>
      </trkpt>
      <trkpt lat="47.57791" lon="-2.71307">
        <ele>3</ele>
        <time>2026-08-20T11:44:51Z</time>
      </trkpt>
      <trkpt lat="47.57796" lon="-2.71305">
        <ele>3</ele>
        <time>2026-08-20T11:44:52Z</time>
      </trkpt>
      <trkpt lat="47.57801" lon="-2.71303">
        <ele>3</ele>
        <time>2026-08-20T11:44:53Z</time>
      </trkpt>
      <trkpt lat="47.57805" lon="-2.71301">
        <ele>3</ele>
        <time>2026-08-20T11:44:54Z</time>
      </trkpt>
      <trkpt lat="47.5781" lon="-2.713">
        <ele>3</ele>
        <time>2026-08-20T11:44:55Z</time>
      </trkpt>
      <trkpt lat="47.57814" lon="-2.71298">
        <ele>3</ele>
        <time>2026-08-20T11:44:56Z</time>
      </trkpt>
      <trkpt lat="47.57817" lon="-2.71296">
        <ele>3</ele>
        <time>2026-08-20T11:44:57Z</time>
      </trkpt>
      <trkpt lat="47.57819" lon="-2.71295">
        <ele>3</ele>
        <time>2026-08-20T11:44:58Z</time>
      </trkpt>
      <trkpt lat="47.57822" lon="-2.71294">
        <ele>3</ele>
        <time>2026-08-20T11:44:59Z</time>
      </trkpt>
      <trkpt lat="47.57824" lon="-2.71293">
        <ele>3</ele>
        <time>2026-08-20T11:45:00Z</time>
      </trkpt>
      <trkpt lat="47.57826" lon="-2.71294">
        <ele>3</ele>
        <time>2026-08-20T11:45:01Z</time>
      </trkpt>
      <trkpt lat="47.57828" lon="-2.71294">
        <ele>3</ele>
        <time>2026-08-20T11:45:02Z</time>
      </trkpt>
      <trkpt lat="47.57831" lon="-2.71295">
        <ele>3</ele>
        <time>2026-08-20T11:45:03Z</time>
      </trkpt>
      <trkpt lat="47.57835" lon="-2.71297">
        <ele>3</ele>
        <time>2026-08-20T11:45:04Z</time>
      </trkpt>
      <trkpt lat="47.57838" lon="-2.71299">
        <ele>3</ele>
        <time>2026-08-20T11:45:05Z</time>
      </trkpt>
      <trkpt lat="47.57842" lon="-2.71302">
        <ele>3</ele>
        <time>2026-08-20T11:45:06Z</time>
      </trkpt>
      <trkpt lat="47.57846" lon="-2.71306">
        <ele>3</ele>
        <time>2026-08-20T11:45:07Z</time>
      </trkpt>
      <trkpt lat="47.5785" lon="-2.7131">
        <ele>3</ele>
        <time>2026-08-20T11:45:08Z</time>
      </trkpt>
      <trkpt lat="47.57854" lon="-2.71314">
        <ele>3</ele>
        <time>2026-08-20T11:45:09Z</time>
      </trkpt>
      <trkpt lat="47.57858" lon="-2.71317">
        <ele>3</ele>
        <time>2026-08-20T11:45:10Z</time>
      </trkpt>
      <trkpt lat="47.57862" lon="-2.71321">
        <ele>3</ele>
        <time>2026-08-20T11:45:11Z</time>
      </trkpt>
      <trkpt lat="47.57867" lon="-2.71325">
        <ele>3.2</ele>
        <time>2026-08-20T11:45:12Z</time>
      </trkpt>
      <trkpt lat="47.57872" lon="-2.71328">
        <ele>3.4</ele>
        <time>2026-08-20T11:45:13Z</time>
      </trkpt>
      <trkpt lat="47.57877" lon="-2.71329">
        <ele>3.6</ele>
        <time>2026-08-20T11:45:14Z</time>
      </trkpt>
      <trkpt lat="47.57882" lon="-2.71331">
        <ele>3.8</ele>
        <time>2026-08-20T11:45:15Z</time>
      </trkpt>
      <trkpt lat="47.57887" lon="-2.71332">
        <ele>3.9</ele>
        <time>2026-08-20T11:45:16Z</time>
      </trkpt>
      <trkpt lat="47.57892" lon="-2.71333">
        <ele>4</ele>
        <time>2026-08-20T11:45:17Z</time>
      </trkpt>
      <trkpt lat="47.57897" lon="-2.71334">
        <ele>4</ele>
        <time>2026-08-20T11:45:18Z</time>
      </trkpt>
      <trkpt lat="47.57902" lon="-2.71335">
        <ele>4</ele>
        <time>2026-08-20T11:45:19Z</time>
      </trkpt>
      <trkpt lat="47.57907" lon="-2.71335">
        <ele>4</ele>
        <time>2026-08-20T11:45:20Z</time>
      </trkpt>
      <trkpt lat="47.57912" lon="-2.71335">
        <ele>4</ele>
        <time>2026-08-20T11:45:21Z</time>
      </trkpt>
      <trkpt lat="47.57917" lon="-2.71335">
        <ele>4</ele>
        <time>2026-08-20T11:45:22Z</time>
      </trkpt>
      <trkpt lat="47.57923" lon="-2.71336">
        <ele>4</ele>
        <time>2026-08-20T11:45:23Z</time>
      </trkpt>
      <trkpt lat="47.57928" lon="-2.71337">
        <ele>4</ele>
        <time>2026-08-20T11:45:24Z</time>
      </trkpt>
      <trkpt lat="47.57933" lon="-2.71338">
        <ele>4</ele>
        <time>2026-08-20T11:45:25Z</time>
      </trkpt>
      <trkpt lat="47.57938" lon="-2.71338">
        <ele>4</ele>
        <time>2026-08-20T11:45:26Z</time>
      </trkpt>
      <trkpt lat="47.57944" lon="-2.7134">
        <ele>4</ele>
        <time>2026-08-20T11:45:27Z</time>
      </trkpt>
      <trkpt lat="47.5795" lon="-2.71341">
        <ele>3.8</ele>
        <time>2026-08-20T11:45:28Z</time>
      </trkpt>
      <trkpt lat="47.57956" lon="-2.71343">
        <ele>3.6</ele>
        <time>2026-08-20T11:45:29Z</time>
      </trkpt>
      <trkpt lat="47.57961" lon="-2.71345">
        <ele>3.4</ele>
        <time>2026-08-20T11:45:30Z</time>
      </trkpt>
      <trkpt lat="47.57967" lon="-2.71347">
        <ele>3.2</ele>
        <time>2026-08-20T11:45:31Z</time>
      </trkpt>
      <trkpt lat="47.57974" lon="-2.7135">
        <ele>3</ele>
        <time>2026-08-20T11:45:32Z</time>
      </trkpt>
      <trkpt lat="47.5798" lon="-2.71352">
        <ele>3</ele>
        <time>2026-08-20T11:45:33Z</time>
      </trkpt>
      <trkpt lat="47.57986" lon="-2.71354">
        <ele>3</ele>
        <time>2026-08-20T11:45:34Z</time>
      </trkpt>
      <trkpt lat="47.57992" lon="-2.71356">
        <ele>3</ele>
        <time>2026-08-20T11:45:35Z</time>
      </trkpt>
      <trkpt lat="47.57997" lon="-2.71358">
        <ele>3</ele>
        <time>2026-08-20T11:45:36Z</time>
      </trkpt>
      <trkpt lat="47.58003" lon="-2.7136">
        <ele>3.1</ele>
        <time>2026-08-20T11:45:37Z</time>
      </trkpt>
      <trkpt lat="47.58009" lon="-2.71363">
        <ele>3.2</ele>
        <time>2026-08-20T11:45:38Z</time>
      </trkpt>
      <trkpt lat="47.58015" lon="-2.71365">
        <ele>3.3</ele>
        <time>2026-08-20T11:45:39Z</time>
      </trkpt>
      <trkpt lat="47.5802" lon="-2.71367">
        <ele>3.3</ele>
        <time>2026-08-20T11:45:40Z</time>
      </trkpt>
      <trkpt lat="47.58026" lon="-2.71369">
        <ele>3.4</ele>
        <time>2026-08-20T11:45:41Z</time>
      </trkpt>
      <trkpt lat="47.58031" lon="-2.71371">
        <ele>3.3</ele>
        <time>2026-08-20T11:45:42Z</time>
      </trkpt>
      <trkpt lat="47.58037" lon="-2.71373">
        <ele>3.1</ele>
        <time>2026-08-20T11:45:43Z</time>
      </trkpt>
      <trkpt lat="47.58042" lon="-2.71376">
        <ele>3</ele>
        <time>2026-08-20T11:45:44Z</time>
      </trkpt>
      <trkpt lat="47.58047" lon="-2.71379">
        <ele>2.9</ele>
        <time>2026-08-20T11:45:45Z</time>
      </trkpt>
      <trkpt lat="47.58053" lon="-2.71381">
        <ele>3</ele>
        <time>2026-08-20T11:45:46Z</time>
      </trkpt>
      <trkpt lat="47.58058" lon="-2.71384">
        <ele>3</ele>
        <time>2026-08-20T11:45:47Z</time>
      </trkpt>
      <trkpt lat="47.58063" lon="-2.71387">
        <ele>3</ele>
        <time>2026-08-20T11:45:48Z</time>
      </trkpt>
      <trkpt lat="47.58068" lon="-2.7139">
        <ele>2.9</ele>
        <time>2026-08-20T11:45:49Z</time>
      </trkpt>
      <trkpt lat="47.58073" lon="-2.71393">
        <ele>2.8</ele>
        <time>2026-08-20T11:45:50Z</time>
      </trkpt>
      <trkpt lat="47.58078" lon="-2.71396">
        <ele>2.7</ele>
        <time>2026-08-20T11:45:51Z</time>
      </trkpt>
      <trkpt lat="47.58083" lon="-2.714">
        <ele>2.6</ele>
        <time>2026-08-20T11:45:52Z</time>
      </trkpt>
      <trkpt lat="47.58088" lon="-2.71404">
        <ele>2.4</ele>
        <time>2026-08-20T11:45:53Z</time>
      </trkpt>
      <trkpt lat="47.58093" lon="-2.71407">
        <ele>2.3</ele>
        <time>2026-08-20T11:45:54Z</time>
      </trkpt>
      <trkpt lat="47.58098" lon="-2.7141">
        <ele>2.4</ele>
        <time>2026-08-20T11:45:55Z</time>
      </trkpt>
      <trkpt lat="47.58102" lon="-2.71415">
        <ele>2.6</ele>
        <time>2026-08-20T11:45:56Z</time>
      </trkpt>
      <trkpt lat="47.58107" lon="-2.71419">
        <ele>2.8</ele>
        <time>2026-08-20T11:45:57Z</time>
      </trkpt>
      <trkpt lat="47.58111" lon="-2.71424">
        <ele>2.7</ele>
        <time>2026-08-20T11:45:58Z</time>
      </trkpt>
      <trkpt lat="47.58115" lon="-2.71429">
        <ele>2.5</ele>
        <time>2026-08-20T11:45:59Z</time>
      </trkpt>
      <trkpt lat="47.58119" lon="-2.71433">
        <ele>2.3</ele>
        <time>2026-08-20T11:46:00Z</time>
      </trkpt>
      <trkpt lat="47.58123" lon="-2.71438">
        <ele>2.1</ele>
        <time>2026-08-20T11:46:01Z</time>
      </trkpt>
      <trkpt lat="47.58128" lon="-2.71443">
        <ele>2</ele>
        <time>2026-08-20T11:46:02Z</time>
      </trkpt>
      <trkpt lat="47.58132" lon="-2.71448">
        <ele>2</ele>
        <time>2026-08-20T11:46:03Z</time>
      </trkpt>
      <trkpt lat="47.58136" lon="-2.71453">
        <ele>2</ele>
        <time>2026-08-20T11:46:04Z</time>
      </trkpt>
      <trkpt lat="47.5814" lon="-2.71459">
        <ele>2</ele>
        <time>2026-08-20T11:46:05Z</time>
      </trkpt>
      <trkpt lat="47.58143" lon="-2.71464">
        <ele>2</ele>
        <time>2026-08-20T11:46:06Z</time>
      </trkpt>
      <trkpt lat="47.58147" lon="-2.71469">
        <ele>2</ele>
        <time>2026-08-20T11:46:07Z</time>
      </trkpt>
      <trkpt lat="47.58151" lon="-2.71474">
        <ele>2</ele>
        <time>2026-08-20T11:46:08Z</time>
      </trkpt>
      <trkpt lat="47.58155" lon="-2.71479">
        <ele>2</ele>
        <time>2026-08-20T11:46:09Z</time>
      </trkpt>
      <trkpt lat="47.58159" lon="-2.71484">
        <ele>2.2</ele>
        <time>2026-08-20T11:46:10Z</time>
      </trkpt>
      <trkpt lat="47.58163" lon="-2.71489">
        <ele>2.4</ele>
        <time>2026-08-20T11:46:11Z</time>
      </trkpt>
      <trkpt lat="47.58167" lon="-2.71494">
        <ele>2.8</ele>
        <time>2026-08-20T11:46:12Z</time>
      </trkpt>
      <trkpt lat="47.5817" lon="-2.71499">
        <ele>3</ele>
        <time>2026-08-20T11:46:13Z</time>
      </trkpt>
      <trkpt lat="47.58174" lon="-2.71504">
        <ele>2.8</ele>
        <time>2026-08-20T11:46:14Z</time>
      </trkpt>
      <trkpt lat="47.58177" lon="-2.71509">
        <ele>2.6</ele>
        <time>2026-08-20T11:46:15Z</time>
      </trkpt>
      <trkpt lat="47.58181" lon="-2.71514">
        <ele>2.5</ele>
        <time>2026-08-20T11:46:16Z</time>
      </trkpt>
      <trkpt lat="47.58184" lon="-2.71519">
        <ele>2.5</ele>
        <time>2026-08-20T11:46:17Z</time>
      </trkpt>
      <trkpt lat="47.58188" lon="-2.71524">
        <ele>2.6</ele>
        <time>2026-08-20T11:46:18Z</time>
      </trkpt>
      <trkpt lat="47.58191" lon="-2.71529">
        <ele>2.7</ele>
        <time>2026-08-20T11:46:19Z</time>
      </trkpt>
      <trkpt lat="47.58195" lon="-2.71534">
        <ele>2.8</ele>
        <time>2026-08-20T11:46:20Z</time>
      </trkpt>
      <trkpt lat="47.58199" lon="-2.71539">
        <ele>2.5</ele>
        <time>2026-08-20T11:46:21Z</time>
      </trkpt>
      <trkpt lat="47.58202" lon="-2.71544">
        <ele>2.3</ele>
        <time>2026-08-20T11:46:22Z</time>
      </trkpt>
      <trkpt lat="47.58206" lon="-2.71549">
        <ele>2.1</ele>
        <time>2026-08-20T11:46:23Z</time>
      </trkpt>
      <trkpt lat="47.58209" lon="-2.71554">
        <ele>2</ele>
        <time>2026-08-20T11:46:24Z</time>
      </trkpt>
      <trkpt lat="47.58213" lon="-2.71559">
        <ele>2.1</ele>
        <time>2026-08-20T11:46:25Z</time>
      </trkpt>
      <trkpt lat="47.58216" lon="-2.71563">
        <ele>2.2</ele>
        <time>2026-08-20T11:46:26Z</time>
      </trkpt>
      <trkpt lat="47.5822" lon="-2.71568">
        <ele>2.4</ele>
        <time>2026-08-20T11:46:27Z</time>
      </trkpt>
      <trkpt lat="47.58224" lon="-2.71573">
        <ele>2.6</ele>
        <time>2026-08-20T11:46:28Z</time>
      </trkpt>
      <trkpt lat="47.58227" lon="-2.71578">
        <ele>2.7</ele>
        <time>2026-08-20T11:46:29Z</time>
      </trkpt>
      <trkpt lat="47.58231" lon="-2.71583">
        <ele>2.7</ele>
        <time>2026-08-20T11:46:30Z</time>
      </trkpt>
      <trkpt lat="47.58235" lon="-2.71588">
        <ele>2.6</ele>
        <time>2026-08-20T11:46:31Z</time>
      </trkpt>
      <trkpt lat="47.58239" lon="-2.71593">
        <ele>2.6</ele>
        <time>2026-08-20T11:46:32Z</time>
      </trkpt>
      <trkpt lat="47.58242" lon="-2.71597">
        <ele>2.6</ele>
        <time>2026-08-20T11:46:33Z</time>
      </trkpt>
      <trkpt lat="47.58246" lon="-2.71602">
        <ele>2.7</ele>
        <time>2026-08-20T11:46:34Z</time>
      </trkpt>
      <trkpt lat="47.5825" lon="-2.71607">
        <ele>2.9</ele>
        <time>2026-08-20T11:46:35Z</time>
      </trkpt>
      <trkpt lat="47.58254" lon="-2.71611">
        <ele>2.9</ele>
        <time>2026-08-20T11:46:36Z</time>
      </trkpt>
      <trkpt lat="47.58258" lon="-2.71616">
        <ele>2.8</ele>
        <time>2026-08-20T11:46:37Z</time>
      </trkpt>
      <trkpt lat="47.58262" lon="-2.71621">
        <ele>2.7</ele>
        <time>2026-08-20T11:46:38Z</time>
      </trkpt>
      <trkpt lat="47.58267" lon="-2.71625">
        <ele>2.7</ele>
        <time>2026-08-20T11:46:39Z</time>
      </trkpt>
      <trkpt lat="47.58271" lon="-2.7163">
        <ele>2.8</ele>
        <time>2026-08-20T11:46:40Z</time>
      </trkpt>
      <trkpt lat="47.58275" lon="-2.71634">
        <ele>2.8</ele>
        <time>2026-08-20T11:46:41Z</time>
      </trkpt>
      <trkpt lat="47.58279" lon="-2.71638">
        <ele>3</ele>
        <time>2026-08-20T11:46:42Z</time>
      </trkpt>
      <trkpt lat="47.58283" lon="-2.71642">
        <ele>3</ele>
        <time>2026-08-20T11:46:43Z</time>
      </trkpt>
      <trkpt lat="47.58287" lon="-2.71646">
        <ele>3.1</ele>
        <time>2026-08-20T11:46:44Z</time>
      </trkpt>
      <trkpt lat="47.58292" lon="-2.7165">
        <ele>3.2</ele>
        <time>2026-08-20T11:46:45Z</time>
      </trkpt>
      <trkpt lat="47.58296" lon="-2.71653">
        <ele>3.3</ele>
        <time>2026-08-20T11:46:46Z</time>
      </trkpt>
      <trkpt lat="47.583" lon="-2.71657">
        <ele>3.5</ele>
        <time>2026-08-20T11:46:47Z</time>
      </trkpt>
      <trkpt lat="47.58305" lon="-2.7166">
        <ele>3.7</ele>
        <time>2026-08-20T11:46:48Z</time>
      </trkpt>
      <trkpt lat="47.58309" lon="-2.71663">
        <ele>4</ele>
        <time>2026-08-20T11:46:49Z</time>
      </trkpt>
      <trkpt lat="47.58314" lon="-2.71666">
        <ele>4.3</ele>
        <time>2026-08-20T11:46:50Z</time>
      </trkpt>
      <trkpt lat="47.58318" lon="-2.71669">
        <ele>4.5</ele>
        <time>2026-08-20T11:46:51Z</time>
      </trkpt>
      <trkpt lat="47.58322" lon="-2.71672">
        <ele>4.7</ele>
        <time>2026-08-20T11:46:52Z</time>
      </trkpt>
      <trkpt lat="47.58326" lon="-2.71675">
        <ele>4.8</ele>
        <time>2026-08-20T11:46:53Z</time>
      </trkpt>
      <trkpt lat="47.5833" lon="-2.71678">
        <ele>4.9</ele>
        <time>2026-08-20T11:46:54Z</time>
      </trkpt>
      <trkpt lat="47.58334" lon="-2.7168">
        <ele>5</ele>
        <time>2026-08-20T11:46:55Z</time>
      </trkpt>
      <trkpt lat="47.58338" lon="-2.71683">
        <ele>5.2</ele>
        <time>2026-08-20T11:46:56Z</time>
      </trkpt>
      <trkpt lat="47.58342" lon="-2.71685">
        <ele>5.3</ele>
        <time>2026-08-20T11:46:57Z</time>
      </trkpt>
      <trkpt lat="47.58346" lon="-2.71687">
        <ele>5.5</ele>
        <time>2026-08-20T11:46:58Z</time>
      </trkpt>
      <trkpt lat="47.5835" lon="-2.71689">
        <ele>5.6</ele>
        <time>2026-08-20T11:46:59Z</time>
      </trkpt>
      <trkpt lat="47.58354" lon="-2.7169">
        <ele>5.7</ele>
        <time>2026-08-20T11:47:00Z</time>
      </trkpt>
      <trkpt lat="47.58358" lon="-2.71692">
        <ele>5.9</ele>
        <time>2026-08-20T11:47:01Z</time>
      </trkpt>
      <trkpt lat="47.58362" lon="-2.71693">
        <ele>6</ele>
        <time>2026-08-20T11:47:02Z</time>
      </trkpt>
      <trkpt lat="47.58366" lon="-2.71695">
        <ele>6.2</ele>
        <time>2026-08-20T11:47:03Z</time>
      </trkpt>
      <trkpt lat="47.5837" lon="-2.71696">
        <ele>6.3</ele>
        <time>2026-08-20T11:47:04Z</time>
      </trkpt>
      <trkpt lat="47.58374" lon="-2.71698">
        <ele>6.5</ele>
        <time>2026-08-20T11:47:05Z</time>
      </trkpt>
      <trkpt lat="47.58378" lon="-2.71699">
        <ele>6.6</ele>
        <time>2026-08-20T11:47:06Z</time>
      </trkpt>
      <trkpt lat="47.58382" lon="-2.717">
        <ele>6.8</ele>
        <time>2026-08-20T11:47:07Z</time>
      </trkpt>
      <trkpt lat="47.58386" lon="-2.71702">
        <ele>6.9</ele>
        <time>2026-08-20T11:47:08Z</time>
      </trkpt>
      <trkpt lat="47.5839" lon="-2.71703">
        <ele>7</ele>
        <time>2026-08-20T11:47:09Z</time>
      </trkpt>
      <trkpt lat="47.58394" lon="-2.71705">
        <ele>7.2</ele>
        <time>2026-08-20T11:47:10Z</time>
      </trkpt>
      <trkpt lat="47.58398" lon="-2.71706">
        <ele>7.3</ele>
        <time>2026-08-20T11:47:11Z</time>
      </trkpt>
      <trkpt lat="47.58402" lon="-2.71708">
        <ele>7.5</ele>
        <time>2026-08-20T11:47:12Z</time>
      </trkpt>
      <trkpt lat="47.58406" lon="-2.71709">
        <ele>7.6</ele>
        <time>2026-08-20T11:47:13Z</time>
      </trkpt>
      <trkpt lat="47.5841" lon="-2.71711">
        <ele>7.8</ele>
        <time>2026-08-20T11:47:14Z</time>
      </trkpt>
      <trkpt lat="47.58414" lon="-2.71712">
        <ele>7.9</ele>
        <time>2026-08-20T11:47:15Z</time>
      </trkpt>
      <trkpt lat="47.58418" lon="-2.71713">
        <ele>8</ele>
        <time>2026-08-20T11:47:16Z</time>
      </trkpt>
      <trkpt lat="47.58422" lon="-2.71715">
        <ele>7.9</ele>
        <time>2026-08-20T11:47:17Z</time>
      </trkpt>
      <trkpt lat="47.58426" lon="-2.71717">
        <ele>7.8</ele>
        <time>2026-08-20T11:47:18Z</time>
      </trkpt>
      <trkpt lat="47.5843" lon="-2.71719">
        <ele>7.6</ele>
        <time>2026-08-20T11:47:19Z</time>
      </trkpt>
      <trkpt lat="47.58435" lon="-2.71721">
        <ele>7.4</ele>
        <time>2026-08-20T11:47:20Z</time>
      </trkpt>
      <trkpt lat="47.5844" lon="-2.71723">
        <ele>7.1</ele>
        <time>2026-08-20T11:47:21Z</time>
      </trkpt>
      <trkpt lat="47.58445" lon="-2.71726">
        <ele>6.9</ele>
        <time>2026-08-20T11:47:22Z</time>
      </trkpt>
      <trkpt lat="47.5845" lon="-2.7173">
        <ele>6.7</ele>
        <time>2026-08-20T11:47:23Z</time>
      </trkpt>
      <trkpt lat="47.58456" lon="-2.71734">
        <ele>6.4</ele>
        <time>2026-08-20T11:47:24Z</time>
      </trkpt>
      <trkpt lat="47.58461" lon="-2.71738">
        <ele>6.1</ele>
        <time>2026-08-20T11:47:25Z</time>
      </trkpt>
      <trkpt lat="47.58467" lon="-2.71742">
        <ele>5.7</ele>
        <time>2026-08-20T11:47:26Z</time>
      </trkpt>
      <trkpt lat="47.58473" lon="-2.71747">
        <ele>5.2</ele>
        <time>2026-08-20T11:47:27Z</time>
      </trkpt>
      <trkpt lat="47.58479" lon="-2.71752">
        <ele>4.7</ele>
        <time>2026-08-20T11:47:28Z</time>
      </trkpt>
      <trkpt lat="47.58485" lon="-2.71757">
        <ele>4.3</ele>
        <time>2026-08-20T11:47:29Z</time>
      </trkpt>
      <trkpt lat="47.58491" lon="-2.71762">
        <ele>3.9</ele>
        <time>2026-08-20T11:47:30Z</time>
      </trkpt>
      <trkpt lat="47.58497" lon="-2.71767">
        <ele>3.5</ele>
        <time>2026-08-20T11:47:31Z</time>
      </trkpt>
      <trkpt lat="47.58503" lon="-2.71771">
        <ele>3.2</ele>
        <time>2026-08-20T11:47:32Z</time>
      </trkpt>
      <trkpt lat="47.58509" lon="-2.71774">
        <ele>3.1</ele>
        <time>2026-08-20T11:47:33Z</time>
      </trkpt>
      <trkpt lat="47.58516" lon="-2.71777">
        <ele>3</ele>
        <time>2026-08-20T11:47:34Z</time>
      </trkpt>
      <trkpt lat="47.58522" lon="-2.71778">
        <ele>3</ele>
        <time>2026-08-20T11:47:35Z</time>
      </trkpt>
      <trkpt lat="47.58528" lon="-2.71779">
        <ele>2.9</ele>
        <time>2026-08-20T11:47:36Z</time>
      </trkpt>
      <trkpt lat="47.58534" lon="-2.7178">
        <ele>2.8</ele>
        <time>2026-08-20T11:47:37Z</time>
      </trkpt>
      <trkpt lat="47.5854" lon="-2.7178">
        <ele>2.8</ele>
        <time>2026-08-20T11:47:38Z</time>
      </trkpt>
      <trkpt lat="47.58546" lon="-2.71781">
        <ele>2.8</ele>
        <time>2026-08-20T11:47:39Z</time>
      </trkpt>
      <trkpt lat="47.58552" lon="-2.71781">
        <ele>2.8</ele>
        <time>2026-08-20T11:47:40Z</time>
      </trkpt>
      <trkpt lat="47.58558" lon="-2.71781">
        <ele>2.9</ele>
        <time>2026-08-20T11:47:41Z</time>
      </trkpt>
      <trkpt lat="47.58563" lon="-2.71782">
        <ele>3</ele>
        <time>2026-08-20T11:47:42Z</time>
      </trkpt>
      <trkpt lat="47.58569" lon="-2.71782">
        <ele>3.2</ele>
        <time>2026-08-20T11:47:43Z</time>
      </trkpt>
      <trkpt lat="47.58575" lon="-2.71784">
        <ele>3.3</ele>
        <time>2026-08-20T11:47:44Z</time>
      </trkpt>
      <trkpt lat="47.5858" lon="-2.71785">
        <ele>3.4</ele>
        <time>2026-08-20T11:47:45Z</time>
      </trkpt>
      <trkpt lat="47.58586" lon="-2.71787">
        <ele>3.4</ele>
        <time>2026-08-20T11:47:46Z</time>
      </trkpt>
      <trkpt lat="47.58591" lon="-2.71789">
        <ele>3.5</ele>
        <time>2026-08-20T11:47:47Z</time>
      </trkpt>
      <trkpt lat="47.58597" lon="-2.71792">
        <ele>3.5</ele>
        <time>2026-08-20T11:47:48Z</time>
      </trkpt>
      <trkpt lat="47.58602" lon="-2.71794">
        <ele>3.5</ele>
        <time>2026-08-20T11:47:49Z</time>
      </trkpt>
      <trkpt lat="47.58607" lon="-2.71797">
        <ele>3.5</ele>
        <time>2026-08-20T11:47:50Z</time>
      </trkpt>
      <trkpt lat="47.58613" lon="-2.718">
        <ele>3.5</ele>
        <time>2026-08-20T11:47:51Z</time>
      </trkpt>
      <trkpt lat="47.58618" lon="-2.71802">
        <ele>3.5</ele>
        <time>2026-08-20T11:47:52Z</time>
      </trkpt>
      <trkpt lat="47.58623" lon="-2.71805">
        <ele>3.5</ele>
        <time>2026-08-20T11:47:53Z</time>
      </trkpt>
      <trkpt lat="47.58629" lon="-2.71808">
        <ele>3.5</ele>
        <time>2026-08-20T11:47:54Z</time>
      </trkpt>
      <trkpt lat="47.58634" lon="-2.7181">
        <ele>3.5</ele>
        <time>2026-08-20T11:47:55Z</time>
      </trkpt>
      <trkpt lat="47.5864" lon="-2.71813">
        <ele>3.4</ele>
        <time>2026-08-20T11:47:56Z</time>
      </trkpt>
      <trkpt lat="47.58645" lon="-2.71815">
        <ele>3.2</ele>
        <time>2026-08-20T11:47:57Z</time>
      </trkpt>
      <trkpt lat="47.58651" lon="-2.71817">
        <ele>2.9</ele>
        <time>2026-08-20T11:47:58Z</time>
      </trkpt>
      <trkpt lat="47.58657" lon="-2.71818">
        <ele>2.7</ele>
        <time>2026-08-20T11:47:59Z</time>
      </trkpt>
      <trkpt lat="47.58662" lon="-2.71819">
        <ele>2.6</ele>
        <time>2026-08-20T11:48:00Z</time>
      </trkpt>
      <trkpt lat="47.58668" lon="-2.7182">
        <ele>2.5</ele>
        <time>2026-08-20T11:48:01Z</time>
      </trkpt>
      <trkpt lat="47.58674" lon="-2.7182">
        <ele>2.5</ele>
        <time>2026-08-20T11:48:02Z</time>
      </trkpt>
      <trkpt lat="47.5868" lon="-2.7182">
        <ele>2.5</ele>
        <time>2026-08-20T11:48:03Z</time>
      </trkpt>
      <trkpt lat="47.58685" lon="-2.71819">
        <ele>2.5</ele>
        <time>2026-08-20T11:48:04Z</time>
      </trkpt>
      <trkpt lat="47.58691" lon="-2.71819">
        <ele>2.5</ele>
        <time>2026-08-20T11:48:05Z</time>
      </trkpt>
      <trkpt lat="47.58697" lon="-2.71818">
        <ele>2.7</ele>
        <time>2026-08-20T11:48:06Z</time>
      </trkpt>
      <trkpt lat="47.58702" lon="-2.71818">
        <ele>2.9</ele>
        <time>2026-08-20T11:48:07Z</time>
      </trkpt>
      <trkpt lat="47.58708" lon="-2.71817">
        <ele>3.3</ele>
        <time>2026-08-20T11:48:08Z</time>
      </trkpt>
      <trkpt lat="47.58713" lon="-2.71817">
        <ele>3.4</ele>
        <time>2026-08-20T11:48:09Z</time>
      </trkpt>
      <trkpt lat="47.58719" lon="-2.71817">
        <ele>3.6</ele>
        <time>2026-08-20T11:48:10Z</time>
      </trkpt>
      <trkpt lat="47.58724" lon="-2.71816">
        <ele>3.8</ele>
        <time>2026-08-20T11:48:11Z</time>
      </trkpt>
      <trkpt lat="47.5873" lon="-2.71815">
        <ele>3.9</ele>
        <time>2026-08-20T11:48:12Z</time>
      </trkpt>
      <trkpt lat="47.58736" lon="-2.71814">
        <ele>3.9</ele>
        <time>2026-08-20T11:48:13Z</time>
      </trkpt>
      <trkpt lat="47.58741" lon="-2.71814">
        <ele>3.9</ele>
        <time>2026-08-20T11:48:14Z</time>
      </trkpt>
      <trkpt lat="47.58746" lon="-2.71814">
        <ele>3.8</ele>
        <time>2026-08-20T11:48:15Z</time>
      </trkpt>
      <trkpt lat="47.58751" lon="-2.71813">
        <ele>3.9</ele>
        <time>2026-08-20T11:48:16Z</time>
      </trkpt>
      <trkpt lat="47.58757" lon="-2.71813">
        <ele>3.9</ele>
        <time>2026-08-20T11:48:17Z</time>
      </trkpt>
      <trkpt lat="47.58763" lon="-2.71812">
        <ele>4.1</ele>
        <time>2026-08-20T11:48:18Z</time>
      </trkpt>
      <trkpt lat="47.58768" lon="-2.71812">
        <ele>4.1</ele>
        <time>2026-08-20T11:48:19Z</time>
      </trkpt>
      <trkpt lat="47.58774" lon="-2.71812">
        <ele>4.1</ele>
        <time>2026-08-20T11:48:20Z</time>
      </trkpt>
      <trkpt lat="47.58779" lon="-2.71813">
        <ele>3.9</ele>
        <time>2026-08-20T11:48:21Z</time>
      </trkpt>
      <trkpt lat="47.58785" lon="-2.71813">
        <ele>3.9</ele>
        <time>2026-08-20T11:48:22Z</time>
      </trkpt>
      <trkpt lat="47.5879" lon="-2.71814">
        <ele>3.8</ele>
        <time>2026-08-20T11:48:23Z</time>
      </trkpt>
      <trkpt lat="47.58796" lon="-2.71814">
        <ele>3.8</ele>
        <time>2026-08-20T11:48:24Z</time>
      </trkpt>
      <trkpt lat="47.58801" lon="-2.71815">
        <ele>3.6</ele>
        <time>2026-08-20T11:48:25Z</time>
      </trkpt>
      <trkpt lat="47.58807" lon="-2.71814">
        <ele>3.6</ele>
        <time>2026-08-20T11:48:26Z</time>
      </trkpt>
      <trkpt lat="47.58811" lon="-2.71812">
        <ele>3.5</ele>
        <time>2026-08-20T11:48:27Z</time>
      </trkpt>
      <trkpt lat="47.58816" lon="-2.71808">
        <ele>3.3</ele>
        <time>2026-08-20T11:48:28Z</time>
      </trkpt>
      <trkpt lat="47.5882" lon="-2.71804">
        <ele>3</ele>
        <time>2026-08-20T11:48:29Z</time>
      </trkpt>
      <trkpt lat="47.58823" lon="-2.71799">
        <ele>2.9</ele>
        <time>2026-08-20T11:48:30Z</time>
      </trkpt>
      <trkpt lat="47.58825" lon="-2.71793">
        <ele>3</ele>
        <time>2026-08-20T11:48:31Z</time>
      </trkpt>
      <trkpt lat="47.58826" lon="-2.71788">
        <ele>3.2</ele>
        <time>2026-08-20T11:48:32Z</time>
      </trkpt>
      <trkpt lat="47.58828" lon="-2.71782">
        <ele>3.3</ele>
        <time>2026-08-20T11:48:33Z</time>
      </trkpt>
      <trkpt lat="47.58829" lon="-2.71778">
        <ele>3.5</ele>
        <time>2026-08-20T11:48:34Z</time>
      </trkpt>
      <trkpt lat="47.5883" lon="-2.71774">
        <ele>3.2</ele>
        <time>2026-08-20T11:48:35Z</time>
      </trkpt>
      <trkpt lat="47.58831" lon="-2.71772">
        <ele>3.1</ele>
        <time>2026-08-20T11:48:36Z</time>
      </trkpt>
      <trkpt lat="47.58833" lon="-2.71771">
        <ele>2.8</ele>
        <time>2026-08-20T11:48:37Z</time>
      </trkpt>
      <trkpt lat="47.58833" lon="-2.7177">
        <ele>2.8</ele>
        <time>2026-08-20T11:48:38Z</time>
      </trkpt>
      <trkpt lat="47.58834" lon="-2.7177">
        <ele>2.7</ele>
        <time>2026-08-20T11:48:39Z</time>
      </trkpt>
      <trkpt lat="47.58841" lon="-2.71771">
        <ele>2.8</ele>
        <time>2026-08-20T12:03:04Z</time>
      </trkpt>
      <trkpt lat="47.58843" lon="-2.71772">
        <ele>2.8</ele>
        <time>2026-08-20T12:03:05Z</time>
      </trkpt>
      <trkpt lat="47.58845" lon="-2.71772">
        <ele>2.8</ele>
        <time>2026-08-20T12:03:06Z</time>
      </trkpt>
      <trkpt lat="47.58847" lon="-2.71773">
        <ele>2.8</ele>
        <time>2026-08-20T12:03:07Z</time>
      </trkpt>
      <trkpt lat="47.58848" lon="-2.71773">
        <ele>2.8</ele>
        <time>2026-08-20T12:03:08Z</time>
      </trkpt>
      <trkpt lat="47.5885" lon="-2.71774">
        <ele>2.9</ele>
        <time>2026-08-20T12:03:09Z</time>
      </trkpt>
      <trkpt lat="47.58851" lon="-2.71774">
        <ele>2.9</ele>
        <time>2026-08-20T12:03:10Z</time>
      </trkpt>
      <trkpt lat="47.58852" lon="-2.71775">
        <ele>2.9</ele>
        <time>2026-08-20T12:03:11Z</time>
      </trkpt>
      <trkpt lat="47.58853" lon="-2.71775">
        <ele>2.9</ele>
        <time>2026-08-20T12:03:12Z</time>
      </trkpt>
      <trkpt lat="47.58854" lon="-2.71775">
        <ele>2.9</ele>
        <time>2026-08-20T12:03:13Z</time>
      </trkpt>
      <trkpt lat="47.58854" lon="-2.71775">
        <ele>2.9</ele>
        <time>2026-08-20T12:03:14Z</time>
      </trkpt>
      <trkpt lat="47.58871" lon="-2.71802">
        <time>2026-08-20T12:06:11Z</time>
      </trkpt>
      <trkpt lat="47.58872" lon="-2.71803">
        <time>2026-08-20T12:06:12Z</time>
      </trkpt>
      <trkpt lat="47.58874" lon="-2.71804">
        <time>2026-08-20T12:06:13Z</time>
      </trkpt>
      <trkpt lat="47.58876" lon="-2.71804">
        <time>2026-08-20T12:06:14Z</time>
      </trkpt>
      <trkpt lat="47.58877" lon="-2.71805">
        <time>2026-08-20T12:06:15Z</time>
      </trkpt>
      <trkpt lat="47.58879" lon="-2.71806">
        <time>2026-08-20T12:06:16Z</time>
      </trkpt>
      <trkpt lat="47.58881" lon="-2.71806">
        <time>2026-08-20T12:06:17Z</time>
      </trkpt>
      <trkpt lat="47.58883" lon="-2.71807">
        <time>2026-08-20T12:06:18Z</time>
      </trkpt>
      <trkpt lat="47.58885" lon="-2.71808">
        <time>2026-08-20T12:06:19Z</time>
      </trkpt>
      <trkpt lat="47.58887" lon="-2.71809">
        <time>2026-08-20T12:06:20Z</time>
      </trkpt>
      <trkpt lat="47.58888" lon="-2.7181">
        <time>2026-08-20T12:06:21Z</time>
      </trkpt>
      <trkpt lat="47.5889" lon="-2.71811">
        <time>2026-08-20T12:06:22Z</time>
      </trkpt>
      <trkpt lat="47.58892" lon="-2.71813">
        <time>2026-08-20T12:06:23Z</time>
      </trkpt>
      <trkpt lat="47.58894" lon="-2.71814">
        <time>2026-08-20T12:06:24Z</time>
      </trkpt>
      <trkpt lat="47.58896" lon="-2.71815">
        <time>2026-08-20T12:06:25Z</time>
      </trkpt>
      <trkpt lat="47.58898" lon="-2.71816">
        <time>2026-08-20T12:06:26Z</time>
      </trkpt>
      <trkpt lat="47.589" lon="-2.71817">
        <time>2026-08-20T12:06:27Z</time>
      </trkpt>
      <trkpt lat="47.58902" lon="-2.71819">
        <time>2026-08-20T12:06:28Z</time>
      </trkpt>
      <trkpt lat="47.58904" lon="-2.71821">
        <time>2026-08-20T12:06:29Z</time>
      </trkpt>
      <trkpt lat="47.58905" lon="-2.71822">
        <time>2026-08-20T12:06:30Z</time>
      </trkpt>
      <trkpt lat="47.58907" lon="-2.71824">
        <time>2026-08-20T12:06:31Z</time>
      </trkpt>
      <trkpt lat="47.58909" lon="-2.71825">
        <time>2026-08-20T12:06:32Z</time>
      </trkpt>
      <trkpt lat="47.58911" lon="-2.71827">
        <time>2026-08-20T12:06:33Z</time>
      </trkpt>
      <trkpt lat="47.58912" lon="-2.71828">
        <time>2026-08-20T12:06:34Z</time>
      </trkpt>
      <trkpt lat="47.58914" lon="-2.71831">
        <time>2026-08-20T12:06:35Z</time>
      </trkpt>
      <trkpt lat="47.58915" lon="-2.71832">
        <time>2026-08-20T12:06:36Z</time>
      </trkpt>
      <trkpt lat="47.58917" lon="-2.71834">
        <time>2026-08-20T12:06:37Z</time>
      </trkpt>
      <trkpt lat="47.58919" lon="-2.71836">
        <time>2026-08-20T12:06:38Z</time>
      </trkpt>
      <trkpt lat="47.5892" lon="-2.71838">
        <time>2026-08-20T12:06:39Z</time>
      </trkpt>
      <trkpt lat="47.58922" lon="-2.7184">
        <time>2026-08-20T12:06:40Z</time>
      </trkpt>
      <trkpt lat="47.58923" lon="-2.71842">
        <time>2026-08-20T12:06:41Z</time>
      </trkpt>
      <trkpt lat="47.58925" lon="-2.71844">
        <time>2026-08-20T12:06:42Z</time>
      </trkpt>
      <trkpt lat="47.58927" lon="-2.71846">
        <time>2026-08-20T12:06:43Z</time>
      </trkpt>
      <trkpt lat="47.58928" lon="-2.71848">
        <time>2026-08-20T12:06:44Z</time>
      </trkpt>
      <trkpt lat="47.5893" lon="-2.7185">
        <time>2026-08-20T12:06:45Z</time>
      </trkpt>
      <trkpt lat="47.58931" lon="-2.71852">
        <time>2026-08-20T12:06:46Z</time>
      </trkpt>
      <trkpt lat="47.58933" lon="-2.71854">
        <time>2026-08-20T12:06:47Z</time>
      </trkpt>
      <trkpt lat="47.58934" lon="-2.71856">
        <time>2026-08-20T12:06:48Z</time>
      </trkpt>
      <trkpt lat="47.58935" lon="-2.71858">
        <time>2026-08-20T12:06:49Z</time>
      </trkpt>
      <trkpt lat="47.58937" lon="-2.7186">
        <time>2026-08-20T12:06:50Z</time>
      </trkpt>
      <trkpt lat="47.58938" lon="-2.71863">
        <time>2026-08-20T12:06:51Z</time>
      </trkpt>
      <trkpt lat="47.5894" lon="-2.71865">
        <time>2026-08-20T12:06:52Z</time>
      </trkpt>
      <trkpt lat="47.58941" lon="-2.71867">
        <time>2026-08-20T12:06:53Z</time>
      </trkpt>
      <trkpt lat="47.58942" lon="-2.71869">
        <time>2026-08-20T12:06:54Z</time>
      </trkpt>
      <trkpt lat="47.58943" lon="-2.71872">
        <time>2026-08-20T12:06:55Z</time>
      </trkpt>
      <trkpt lat="47.58944" lon="-2.71875">
        <time>2026-08-20T12:06:56Z</time>
      </trkpt>
      <trkpt lat="47.58945" lon="-2.71878">
        <time>2026-08-20T12:06:57Z</time>
      </trkpt>
      <trkpt lat="47.58946" lon="-2.7188">
        <time>2026-08-20T12:06:58Z</time>
      </trkpt>
      <trkpt lat="47.58947" lon="-2.71882">
        <time>2026-08-20T12:06:59Z</time>
      </trkpt>
      <trkpt lat="47.58948" lon="-2.71885">
        <time>2026-08-20T12:07:00Z</time>
      </trkpt>
      <trkpt lat="47.58949" lon="-2.71887">
        <time>2026-08-20T12:07:01Z</time>
      </trkpt>
      <trkpt lat="47.5895" lon="-2.71889">
        <time>2026-08-20T12:07:02Z</time>
      </trkpt>
      <trkpt lat="47.58951" lon="-2.71891">
        <time>2026-08-20T12:07:03Z</time>
      </trkpt>
      <trkpt lat="47.58952" lon="-2.71893">
        <time>2026-08-20T12:07:04Z</time>
      </trkpt>
      <trkpt lat="47.58952" lon="-2.71895">
        <time>2026-08-20T12:07:05Z</time>
      </trkpt>
      <trkpt lat="47.58953" lon="-2.71897">
        <time>2026-08-20T12:07:06Z</time>
      </trkpt>
      <trkpt lat="47.58954" lon="-2.71899">
        <time>2026-08-20T12:07:07Z</time>
      </trkpt>
      <trkpt lat="47.58954" lon="-2.71901">
        <time>2026-08-20T12:07:08Z</time>
      </trkpt>
      <trkpt lat="47.58955" lon="-2.71903">
        <time>2026-08-20T12:07:09Z</time>
      </trkpt>
      <trkpt lat="47.58955" lon="-2.71905">
        <time>2026-08-20T12:07:10Z</time>
      </trkpt>
      <trkpt lat="47.58956" lon="-2.71907">
        <time>2026-08-20T12:07:11Z</time>
      </trkpt>
      <trkpt lat="47.58956" lon="-2.71909">
        <time>2026-08-20T12:07:12Z</time>
      </trkpt>
      <trkpt lat="47.58957" lon="-2.71911">
        <time>2026-08-20T12:07:13Z</time>
      </trkpt>
      <trkpt lat="47.58957" lon="-2.71913">
        <time>2026-08-20T12:07:14Z</time>
      </trkpt>
      <trkpt lat="47.58957" lon="-2.71915">
        <time>2026-08-20T12:07:15Z</time>
      </trkpt>
      <trkpt lat="47.58958" lon="-2.71917">
        <time>2026-08-20T12:07:16Z</time>
      </trkpt>
      <trkpt lat="47.58958" lon="-2.71918">
        <time>2026-08-20T12:07:17Z</time>
      </trkpt>
      <trkpt lat="47.58958" lon="-2.7192">
        <time>2026-08-20T12:07:18Z</time>
      </trkpt>
      <trkpt lat="47.58959" lon="-2.71922">
        <time>2026-08-20T12:07:19Z</time>
      </trkpt>
      <trkpt lat="47.58959" lon="-2.71924">
        <time>2026-08-20T12:07:20Z</time>
      </trkpt>
      <trkpt lat="47.58959" lon="-2.71925">
        <time>2026-08-20T12:07:21Z</time>
      </trkpt>
      <trkpt lat="47.58959" lon="-2.71927">
        <time>2026-08-20T12:07:22Z</time>
      </trkpt>
      <trkpt lat="47.58959" lon="-2.71929">
        <time>2026-08-20T12:07:23Z</time>
      </trkpt>
      <trkpt lat="47.58959" lon="-2.71931">
        <time>2026-08-20T12:07:24Z</time>
      </trkpt>
      <trkpt lat="47.58959" lon="-2.71932">
        <time>2026-08-20T12:07:25Z</time>
      </trkpt>
      <trkpt lat="47.58959" lon="-2.71934">
        <time>2026-08-20T12:07:26Z</time>
      </trkpt>
      <trkpt lat="47.58959" lon="-2.71936">
        <time>2026-08-20T12:07:27Z</time>
      </trkpt>
      <trkpt lat="47.58959" lon="-2.71937">
        <time>2026-08-20T12:07:28Z</time>
      </trkpt>
      <trkpt lat="47.58959" lon="-2.71938">
        <time>2026-08-20T12:07:29Z</time>
      </trkpt>
      <trkpt lat="47.58959" lon="-2.7194">
        <time>2026-08-20T12:07:30Z</time>
      </trkpt>
      <trkpt lat="47.58959" lon="-2.71941">
        <time>2026-08-20T12:07:31Z</time>
      </trkpt>
      <trkpt lat="47.58959" lon="-2.71942">
        <time>2026-08-20T12:07:32Z</time>
      </trkpt>
      <trkpt lat="47.58959" lon="-2.71943">
        <time>2026-08-20T12:07:33Z</time>
      </trkpt>
      <trkpt lat="47.58959" lon="-2.71944">
        <time>2026-08-20T12:07:34Z</time>
      </trkpt>
      <trkpt lat="47.58974" lon="-2.71952">
        <time>2026-08-20T12:08:04Z</time>
      </trkpt>
      <trkpt lat="47.58975" lon="-2.71954">
        <time>2026-08-20T12:08:05Z</time>
      </trkpt>
      <trkpt lat="47.58975" lon="-2.71955">
        <time>2026-08-20T12:08:06Z</time>
      </trkpt>
      <trkpt lat="47.58976" lon="-2.71957">
        <time>2026-08-20T12:08:07Z</time>
      </trkpt>
      <trkpt lat="47.58976" lon="-2.71958">
        <time>2026-08-20T12:08:08Z</time>
      </trkpt>
      <trkpt lat="47.58976" lon="-2.7196">
        <time>2026-08-20T12:08:09Z</time>
      </trkpt>
      <trkpt lat="47.58976" lon="-2.71962">
        <time>2026-08-20T12:08:10Z</time>
      </trkpt>
      <trkpt lat="47.58976" lon="-2.71964">
        <time>2026-08-20T12:08:11Z</time>
      </trkpt>
      <trkpt lat="47.58975" lon="-2.71967">
        <time>2026-08-20T12:08:12Z</time>
      </trkpt>
      <trkpt lat="47.58975" lon="-2.71969">
        <time>2026-08-20T12:08:13Z</time>
      </trkpt>
      <trkpt lat="47.58975" lon="-2.71972">
        <time>2026-08-20T12:08:14Z</time>
      </trkpt>
      <trkpt lat="47.58975" lon="-2.71975">
        <ele>1</ele>
        <time>2026-08-20T12:08:15Z</time>
      </trkpt>
      <trkpt lat="47.58975" lon="-2.71979">
        <ele>1</ele>
        <time>2026-08-20T12:08:16Z</time>
      </trkpt>
      <trkpt lat="47.58975" lon="-2.71982">
        <ele>1</ele>
        <time>2026-08-20T12:08:17Z</time>
      </trkpt>
      <trkpt lat="47.58975" lon="-2.71985">
        <ele>1</ele>
        <time>2026-08-20T12:08:18Z</time>
      </trkpt>
      <trkpt lat="47.58975" lon="-2.71988">
        <ele>1</ele>
        <time>2026-08-20T12:08:19Z</time>
      </trkpt>
      <trkpt lat="47.58976" lon="-2.71991">
        <ele>1</ele>
        <time>2026-08-20T12:08:20Z</time>
      </trkpt>
      <trkpt lat="47.58976" lon="-2.71994">
        <ele>1</ele>
        <time>2026-08-20T12:08:21Z</time>
      </trkpt>
      <trkpt lat="47.58976" lon="-2.71996">
        <ele>1</ele>
        <time>2026-08-20T12:08:22Z</time>
      </trkpt>
      <trkpt lat="47.58977" lon="-2.71997">
        <ele>1</ele>
        <time>2026-08-20T12:08:23Z</time>
      </trkpt>
      <trkpt lat="47.58977" lon="-2.71999">
        <ele>1</ele>
        <time>2026-08-20T12:08:24Z</time>
      </trkpt>
      <trkpt lat="47.58977" lon="-2.71999">
        <ele>1</ele>
        <time>2026-08-20T12:08:25Z</time>
      </trkpt>
      <trkpt lat="47.58977" lon="-2.71999">
        <ele>1</ele>
        <time>2026-08-20T12:08:26Z</time>
      </trkpt>
      <trkpt lat="47.58976" lon="-2.72006">
        <ele>1.2</ele>
        <time>2026-08-20T12:08:56Z</time>
      </trkpt>
      <trkpt lat="47.58977" lon="-2.72008">
        <ele>1.3</ele>
        <time>2026-08-20T12:08:57Z</time>
      </trkpt>
      <trkpt lat="47.58978" lon="-2.72009">
        <ele>1.4</ele>
        <time>2026-08-20T12:08:58Z</time>
      </trkpt>
      <trkpt lat="47.58978" lon="-2.72011">
        <ele>1.5</ele>
        <time>2026-08-20T12:08:59Z</time>
      </trkpt>
      <trkpt lat="47.58979" lon="-2.72013">
        <ele>1.6</ele>
        <time>2026-08-20T12:09:00Z</time>
      </trkpt>
      <trkpt lat="47.5898" lon="-2.72014">
        <ele>1.6</ele>
        <time>2026-08-20T12:09:01Z</time>
      </trkpt>
      <trkpt lat="47.5898" lon="-2.72015">
        <ele>1.7</ele>
        <time>2026-08-20T12:09:02Z</time>
      </trkpt>
      <trkpt lat="47.58981" lon="-2.72015">
        <ele>1.7</ele>
        <time>2026-08-20T12:09:03Z</time>
      </trkpt>
      <trkpt lat="47.58981" lon="-2.72016">
        <ele>1.8</ele>
        <time>2026-08-20T12:09:04Z</time>
      </trkpt>
      <trkpt lat="47.58982" lon="-2.72017">
        <ele>1.8</ele>
        <time>2026-08-20T12:09:05Z</time>
      </trkpt>
      <trkpt lat="47.58983" lon="-2.72019">
        <ele>1.9</ele>
        <time>2026-08-20T12:09:06Z</time>
      </trkpt>
      <trkpt lat="47.58984" lon="-2.72021">
        <ele>2.1</ele>
        <time>2026-08-20T12:09:07Z</time>
      </trkpt>
      <trkpt lat="47.58985" lon="-2.72022">
        <ele>2.2</ele>
        <time>2026-08-20T12:09:08Z</time>
      </trkpt>
      <trkpt lat="47.58987" lon="-2.72023">
        <ele>2.3</ele>
        <time>2026-08-20T12:09:09Z</time>
      </trkpt>
      <trkpt lat="47.5899" lon="-2.72023">
        <ele>2.4</ele>
        <time>2026-08-20T12:09:10Z</time>
      </trkpt>
      <trkpt lat="47.58993" lon="-2.72023">
        <ele>2.4</ele>
        <time>2026-08-20T12:09:11Z</time>
      </trkpt>
      <trkpt lat="47.58996" lon="-2.72023">
        <ele>2.5</ele>
        <time>2026-08-20T12:09:12Z</time>
      </trkpt>
      <trkpt lat="47.58999" lon="-2.72024">
        <ele>2.7</ele>
        <time>2026-08-20T12:09:13Z</time>
      </trkpt>
      <trkpt lat="47.59003" lon="-2.72024">
        <ele>2.6</ele>
        <time>2026-08-20T12:09:14Z</time>
      </trkpt>
      <trkpt lat="47.59007" lon="-2.72024">
        <ele>2.5</ele>
        <time>2026-08-20T12:09:15Z</time>
      </trkpt>
      <trkpt lat="47.59011" lon="-2.72024">
        <ele>2.4</ele>
        <time>2026-08-20T12:09:16Z</time>
      </trkpt>
      <trkpt lat="47.59014" lon="-2.72025">
        <ele>2.3</ele>
        <time>2026-08-20T12:09:17Z</time>
      </trkpt>
      <trkpt lat="47.59018" lon="-2.72025">
        <ele>2.2</ele>
        <time>2026-08-20T12:09:18Z</time>
      </trkpt>
      <trkpt lat="47.59021" lon="-2.72026">
        <ele>2.2</ele>
        <time>2026-08-20T12:09:19Z</time>
      </trkpt>
      <trkpt lat="47.59025" lon="-2.72027">
        <ele>2.1</ele>
        <time>2026-08-20T12:09:20Z</time>
      </trkpt>
      <trkpt lat="47.59027" lon="-2.72028">
        <ele>2</ele>
        <time>2026-08-20T12:09:21Z</time>
      </trkpt>
      <trkpt lat="47.59029" lon="-2.72028">
        <ele>2</ele>
        <time>2026-08-20T12:09:22Z</time>
      </trkpt>
      <trkpt lat="47.59029" lon="-2.72029">
        <ele>2</ele>
        <time>2026-08-20T12:09:23Z</time>
      </trkpt>
      <trkpt lat="47.59029" lon="-2.72029">
        <ele>2</ele>
        <time>2026-08-20T12:09:24Z</time>
      </trkpt>
      <trkpt lat="47.59035" lon="-2.72026">
        <ele>1.9</ele>
        <time>2026-08-20T12:10:22Z</time>
      </trkpt>
      <trkpt lat="47.59037" lon="-2.72026">
        <ele>1.9</ele>
        <time>2026-08-20T12:10:23Z</time>
      </trkpt>
      <trkpt lat="47.5904" lon="-2.72026">
        <ele>1.9</ele>
        <time>2026-08-20T12:10:24Z</time>
      </trkpt>
      <trkpt lat="47.59043" lon="-2.72025">
        <ele>1.9</ele>
        <time>2026-08-20T12:10:25Z</time>
      </trkpt>
      <trkpt lat="47.59046" lon="-2.72025">
        <ele>1.9</ele>
        <time>2026-08-20T12:10:26Z</time>
      </trkpt>
      <trkpt lat="47.59049" lon="-2.72023">
        <ele>1.8</ele>
        <time>2026-08-20T12:10:27Z</time>
      </trkpt>
      <trkpt lat="47.59052" lon="-2.72021">
        <ele>1.8</ele>
        <time>2026-08-20T12:10:28Z</time>
      </trkpt>
      <trkpt lat="47.59055" lon="-2.72019">
        <ele>1.7</ele>
        <time>2026-08-20T12:10:29Z</time>
      </trkpt>
      <trkpt lat="47.59058" lon="-2.72016">
        <ele>1.7</ele>
        <time>2026-08-20T12:10:30Z</time>
      </trkpt>
      <trkpt lat="47.59061" lon="-2.72013">
        <ele>1.8</ele>
        <time>2026-08-20T12:10:31Z</time>
      </trkpt>
      <trkpt lat="47.59064" lon="-2.7201">
        <ele>1.9</ele>
        <time>2026-08-20T12:10:32Z</time>
      </trkpt>
      <trkpt lat="47.59067" lon="-2.72007">
        <ele>2</ele>
        <time>2026-08-20T12:10:33Z</time>
      </trkpt>
      <trkpt lat="47.5907" lon="-2.72003">
        <ele>2.1</ele>
        <time>2026-08-20T12:10:34Z</time>
      </trkpt>
      <trkpt lat="47.59073" lon="-2.71999">
        <ele>2.2</ele>
        <time>2026-08-20T12:10:35Z</time>
      </trkpt>
      <trkpt lat="47.59076" lon="-2.71995">
        <ele>2.3</ele>
        <time>2026-08-20T12:10:36Z</time>
      </trkpt>
      <trkpt lat="47.59078" lon="-2.71991">
        <ele>2.4</ele>
        <time>2026-08-20T12:10:37Z</time>
      </trkpt>
      <trkpt lat="47.5908" lon="-2.71987">
        <ele>2.3</ele>
        <time>2026-08-20T12:10:38Z</time>
      </trkpt>
      <trkpt lat="47.59082" lon="-2.71983">
        <ele>2.3</ele>
        <time>2026-08-20T12:10:39Z</time>
      </trkpt>
      <trkpt lat="47.59084" lon="-2.71979">
        <ele>2.3</ele>
        <time>2026-08-20T12:10:40Z</time>
      </trkpt>
      <trkpt lat="47.59085" lon="-2.71975">
        <ele>2.3</ele>
        <time>2026-08-20T12:10:41Z</time>
      </trkpt>
      <trkpt lat="47.59087" lon="-2.7197">
        <ele>2.3</ele>
        <time>2026-08-20T12:10:42Z</time>
      </trkpt>
      <trkpt lat="47.59088" lon="-2.71965">
        <ele>2.3</ele>
        <time>2026-08-20T12:10:43Z</time>
      </trkpt>
      <trkpt lat="47.5909" lon="-2.71959">
        <ele>2.4</ele>
        <time>2026-08-20T12:10:44Z</time>
      </trkpt>
      <trkpt lat="47.59091" lon="-2.71954">
        <ele>2.4</ele>
        <time>2026-08-20T12:10:45Z</time>
      </trkpt>
      <trkpt lat="47.59091" lon="-2.71949">
        <ele>2.2</ele>
        <time>2026-08-20T12:10:46Z</time>
      </trkpt>
      <trkpt lat="47.59092" lon="-2.71943">
        <ele>2.2</ele>
        <time>2026-08-20T12:10:47Z</time>
      </trkpt>
      <trkpt lat="47.59093" lon="-2.71937">
        <ele>2.4</ele>
        <time>2026-08-20T12:10:48Z</time>
      </trkpt>
      <trkpt lat="47.59094" lon="-2.71932">
        <ele>2.5</ele>
        <time>2026-08-20T12:10:49Z</time>
      </trkpt>
      <trkpt lat="47.59095" lon="-2.71926">
        <ele>2.7</ele>
        <time>2026-08-20T12:10:50Z</time>
      </trkpt>
      <trkpt lat="47.59096" lon="-2.71921">
        <ele>2.8</ele>
        <time>2026-08-20T12:10:51Z</time>
      </trkpt>
      <trkpt lat="47.59097" lon="-2.71915">
        <ele>3.1</ele>
        <time>2026-08-20T12:10:52Z</time>
      </trkpt>
      <trkpt lat="47.59098" lon="-2.7191">
        <ele>3.6</ele>
        <time>2026-08-20T12:10:53Z</time>
      </trkpt>
      <trkpt lat="47.59099" lon="-2.71905">
        <ele>4</ele>
        <time>2026-08-20T12:10:54Z</time>
      </trkpt>
      <trkpt lat="47.591" lon="-2.719">
        <ele>4.4</ele>
        <time>2026-08-20T12:10:55Z</time>
      </trkpt>
      <trkpt lat="47.59102" lon="-2.71895">
        <ele>4.7</ele>
        <time>2026-08-20T12:10:56Z</time>
      </trkpt>
      <trkpt lat="47.59103" lon="-2.7189">
        <ele>5</ele>
        <time>2026-08-20T12:10:57Z</time>
      </trkpt>
      <trkpt lat="47.59105" lon="-2.71885">
        <ele>4.7</ele>
        <time>2026-08-20T12:10:58Z</time>
      </trkpt>
      <trkpt lat="47.59108" lon="-2.71881">
        <ele>4.4</ele>
        <time>2026-08-20T12:10:59Z</time>
      </trkpt>
      <trkpt lat="47.5911" lon="-2.71876">
        <ele>4.1</ele>
        <time>2026-08-20T12:11:00Z</time>
      </trkpt>
      <trkpt lat="47.59113" lon="-2.71872">
        <ele>3.9</ele>
        <time>2026-08-20T12:11:01Z</time>
      </trkpt>
      <trkpt lat="47.59116" lon="-2.71869">
        <ele>3.9</ele>
        <time>2026-08-20T12:11:02Z</time>
      </trkpt>
      <trkpt lat="47.5912" lon="-2.71866">
        <ele>4</ele>
        <time>2026-08-20T12:11:03Z</time>
      </trkpt>
      <trkpt lat="47.59123" lon="-2.71864">
        <ele>4.1</ele>
        <time>2026-08-20T12:11:04Z</time>
      </trkpt>
      <trkpt lat="47.59127" lon="-2.71862">
        <ele>4.2</ele>
        <time>2026-08-20T12:11:05Z</time>
      </trkpt>
      <trkpt lat="47.59131" lon="-2.7186">
        <ele>4.3</ele>
        <time>2026-08-20T12:11:06Z</time>
      </trkpt>
      <trkpt lat="47.59135" lon="-2.71858">
        <ele>4.3</ele>
        <time>2026-08-20T12:11:07Z</time>
      </trkpt>
      <trkpt lat="47.59139" lon="-2.71856">
        <ele>4.3</ele>
        <time>2026-08-20T12:11:08Z</time>
      </trkpt>
      <trkpt lat="47.59144" lon="-2.71854">
        <ele>4</ele>
        <time>2026-08-20T12:11:09Z</time>
      </trkpt>
      <trkpt lat="47.59149" lon="-2.71852">
        <ele>3.7</ele>
        <time>2026-08-20T12:11:10Z</time>
      </trkpt>
      <trkpt lat="47.59154" lon="-2.7185">
        <ele>3.4</ele>
        <time>2026-08-20T12:11:11Z</time>
      </trkpt>
      <trkpt lat="47.59159" lon="-2.71849">
        <ele>3.3</ele>
        <time>2026-08-20T12:11:12Z</time>
      </trkpt>
      <trkpt lat="47.59165" lon="-2.71847">
        <ele>3</ele>
        <time>2026-08-20T12:11:13Z</time>
      </trkpt>
      <trkpt lat="47.5917" lon="-2.71845">
        <ele>2.6</ele>
        <time>2026-08-20T12:11:14Z</time>
      </trkpt>
      <trkpt lat="47.59176" lon="-2.71843">
        <ele>2.4</ele>
        <time>2026-08-20T12:11:15Z</time>
      </trkpt>
      <trkpt lat="47.59181" lon="-2.7184">
        <ele>2.1</ele>
        <time>2026-08-20T12:11:16Z</time>
      </trkpt>
      <trkpt lat="47.59186" lon="-2.71838">
        <ele>2</ele>
        <time>2026-08-20T12:11:17Z</time>
      </trkpt>
      <trkpt lat="47.59192" lon="-2.71836">
        <ele>2</ele>
        <time>2026-08-20T12:11:18Z</time>
      </trkpt>
      <trkpt lat="47.59197" lon="-2.71834">
        <ele>2.1</ele>
        <time>2026-08-20T12:11:19Z</time>
      </trkpt>
      <trkpt lat="47.59202" lon="-2.71832">
        <ele>2.2</ele>
        <time>2026-08-20T12:11:20Z</time>
      </trkpt>
      <trkpt lat="47.59207" lon="-2.7183">
        <ele>2.3</ele>
        <time>2026-08-20T12:11:21Z</time>
      </trkpt>
      <trkpt lat="47.59212" lon="-2.71828">
        <ele>2.3</ele>
        <time>2026-08-20T12:11:22Z</time>
      </trkpt>
      <trkpt lat="47.59217" lon="-2.71826">
        <ele>2.3</ele>
        <time>2026-08-20T12:11:23Z</time>
      </trkpt>
      <trkpt lat="47.59222" lon="-2.71824">
        <ele>2.3</ele>
        <time>2026-08-20T12:11:24Z</time>
      </trkpt>
      <trkpt lat="47.59227" lon="-2.71822">
        <ele>2.2</ele>
        <time>2026-08-20T12:11:25Z</time>
      </trkpt>
      <trkpt lat="47.59232" lon="-2.7182">
        <ele>2</ele>
        <time>2026-08-20T12:11:26Z</time>
      </trkpt>
      <trkpt lat="47.59237" lon="-2.71818">
        <ele>2</ele>
        <time>2026-08-20T12:11:27Z</time>
      </trkpt>
      <trkpt lat="47.59242" lon="-2.71816">
        <ele>1.9</ele>
        <time>2026-08-20T12:11:28Z</time>
      </trkpt>
      <trkpt lat="47.59247" lon="-2.71815">
        <ele>2</ele>
        <time>2026-08-20T12:11:29Z</time>
      </trkpt>
      <trkpt lat="47.59252" lon="-2.71813">
        <ele>2.1</ele>
        <time>2026-08-20T12:11:30Z</time>
      </trkpt>
      <trkpt lat="47.59257" lon="-2.71811">
        <ele>2.2</ele>
        <time>2026-08-20T12:11:31Z</time>
      </trkpt>
      <trkpt lat="47.59262" lon="-2.71809">
        <ele>2.4</ele>
        <time>2026-08-20T12:11:32Z</time>
      </trkpt>
      <trkpt lat="47.59267" lon="-2.71807">
        <ele>2.6</ele>
        <time>2026-08-20T12:11:33Z</time>
      </trkpt>
      <trkpt lat="47.59272" lon="-2.71805">
        <ele>2.8</ele>
        <time>2026-08-20T12:11:34Z</time>
      </trkpt>
      <trkpt lat="47.59277" lon="-2.71803">
        <ele>2.9</ele>
        <time>2026-08-20T12:11:35Z</time>
      </trkpt>
      <trkpt lat="47.59282" lon="-2.71801">
        <ele>2.9</ele>
        <time>2026-08-20T12:11:36Z</time>
      </trkpt>
      <trkpt lat="47.59286" lon="-2.71799">
        <ele>2.8</ele>
        <time>2026-08-20T12:11:37Z</time>
      </trkpt>
      <trkpt lat="47.59291" lon="-2.71797">
        <ele>2.8</ele>
        <time>2026-08-20T12:11:38Z</time>
      </trkpt>
      <trkpt lat="47.59296" lon="-2.71794">
        <ele>2.9</ele>
        <time>2026-08-20T12:11:39Z</time>
      </trkpt>
      <trkpt lat="47.593" lon="-2.71792">
        <ele>2.9</ele>
        <time>2026-08-20T12:11:40Z</time>
      </trkpt>
      <trkpt lat="47.59305" lon="-2.71788">
        <ele>3</ele>
        <time>2026-08-20T12:11:41Z</time>
      </trkpt>
      <trkpt lat="47.59309" lon="-2.71785">
        <ele>3</ele>
        <time>2026-08-20T12:11:42Z</time>
      </trkpt>
      <trkpt lat="47.59314" lon="-2.71782">
        <ele>3</ele>
        <time>2026-08-20T12:11:43Z</time>
      </trkpt>
      <trkpt lat="47.59318" lon="-2.71778">
        <ele>3</ele>
        <time>2026-08-20T12:11:44Z</time>
      </trkpt>
      <trkpt lat="47.59322" lon="-2.71775">
        <ele>3</ele>
        <time>2026-08-20T12:11:45Z</time>
      </trkpt>
      <trkpt lat="47.59327" lon="-2.71771">
        <ele>3</ele>
        <time>2026-08-20T12:11:46Z</time>
      </trkpt>
      <trkpt lat="47.59331" lon="-2.71767">
        <ele>3</ele>
        <time>2026-08-20T12:11:47Z</time>
      </trkpt>
      <trkpt lat="47.59335" lon="-2.71764">
        <ele>3</ele>
        <time>2026-08-20T12:11:48Z</time>
      </trkpt>
      <trkpt lat="47.5934" lon="-2.71761">
        <ele>3.1</ele>
        <time>2026-08-20T12:11:49Z</time>
      </trkpt>
      <trkpt lat="47.59344" lon="-2.71758">
        <ele>3.3</ele>
        <time>2026-08-20T12:11:50Z</time>
      </trkpt>
      <trkpt lat="47.59349" lon="-2.71754">
        <ele>3.5</ele>
        <time>2026-08-20T12:11:51Z</time>
      </trkpt>
      <trkpt lat="47.59353" lon="-2.71751">
        <ele>3.7</ele>
        <time>2026-08-20T12:11:52Z</time>
      </trkpt>
      <trkpt lat="47.59357" lon="-2.71748">
        <ele>3.9</ele>
        <time>2026-08-20T12:11:53Z</time>
      </trkpt>
      <trkpt lat="47.59361" lon="-2.71745">
        <ele>4</ele>
        <time>2026-08-20T12:11:54Z</time>
      </trkpt>
      <trkpt lat="47.59365" lon="-2.71742">
        <ele>4.1</ele>
        <time>2026-08-20T12:11:55Z</time>
      </trkpt>
      <trkpt lat="47.5937" lon="-2.71739">
        <ele>4.3</ele>
        <time>2026-08-20T12:11:56Z</time>
      </trkpt>
      <trkpt lat="47.59374" lon="-2.71737">
        <ele>4.5</ele>
        <time>2026-08-20T12:11:57Z</time>
      </trkpt>
      <trkpt lat="47.59378" lon="-2.71734">
        <ele>4.6</ele>
        <time>2026-08-20T12:11:58Z</time>
      </trkpt>
      <trkpt lat="47.59382" lon="-2.71732">
        <ele>4.8</ele>
        <time>2026-08-20T12:11:59Z</time>
      </trkpt>
      <trkpt lat="47.59386" lon="-2.7173">
        <ele>4.9</ele>
        <time>2026-08-20T12:12:00Z</time>
      </trkpt>
      <trkpt lat="47.5939" lon="-2.71729">
        <ele>5</ele>
        <time>2026-08-20T12:12:01Z</time>
      </trkpt>
      <trkpt lat="47.59394" lon="-2.71728">
        <ele>5.1</ele>
        <time>2026-08-20T12:12:02Z</time>
      </trkpt>
      <trkpt lat="47.59399" lon="-2.71726">
        <ele>5.3</ele>
        <time>2026-08-20T12:12:03Z</time>
      </trkpt>
      <trkpt lat="47.59403" lon="-2.71726">
        <ele>5.4</ele>
        <time>2026-08-20T12:12:04Z</time>
      </trkpt>
      <trkpt lat="47.59408" lon="-2.71725">
        <ele>5.6</ele>
        <time>2026-08-20T12:12:05Z</time>
      </trkpt>
      <trkpt lat="47.59412" lon="-2.71724">
        <ele>5.8</ele>
        <time>2026-08-20T12:12:06Z</time>
      </trkpt>
      <trkpt lat="47.59417" lon="-2.71724">
        <ele>5.9</ele>
        <time>2026-08-20T12:12:07Z</time>
      </trkpt>
      <trkpt lat="47.59421" lon="-2.71724">
        <ele>6.1</ele>
        <time>2026-08-20T12:12:08Z</time>
      </trkpt>
      <trkpt lat="47.59425" lon="-2.71725">
        <ele>6.2</ele>
        <time>2026-08-20T12:12:09Z</time>
      </trkpt>
      <trkpt lat="47.59429" lon="-2.71725">
        <ele>6.3</ele>
        <time>2026-08-20T12:12:10Z</time>
      </trkpt>
      <trkpt lat="47.59434" lon="-2.71725">
        <ele>6.5</ele>
        <time>2026-08-20T12:12:11Z</time>
      </trkpt>
      <trkpt lat="47.59438" lon="-2.71725">
        <ele>6.6</ele>
        <time>2026-08-20T12:12:12Z</time>
      </trkpt>
      <trkpt lat="47.59442" lon="-2.71725">
        <ele>6.7</ele>
        <time>2026-08-20T12:12:13Z</time>
      </trkpt>
      <trkpt lat="47.59447" lon="-2.71725">
        <ele>6.8</ele>
        <time>2026-08-20T12:12:14Z</time>
      </trkpt>
      <trkpt lat="47.59451" lon="-2.71725">
        <ele>6.8</ele>
        <time>2026-08-20T12:12:15Z</time>
      </trkpt>
      <trkpt lat="47.59455" lon="-2.71725">
        <ele>6.8</ele>
        <time>2026-08-20T12:12:16Z</time>
      </trkpt>
      <trkpt lat="47.5946" lon="-2.71725">
        <ele>6.9</ele>
        <time>2026-08-20T12:12:17Z</time>
      </trkpt>
      <trkpt lat="47.59464" lon="-2.71724">
        <ele>6.9</ele>
        <time>2026-08-20T12:12:18Z</time>
      </trkpt>
      <trkpt lat="47.59469" lon="-2.71724">
        <ele>6.9</ele>
        <time>2026-08-20T12:12:19Z</time>
      </trkpt>
      <trkpt lat="47.59473" lon="-2.71723">
        <ele>7</ele>
        <time>2026-08-20T12:12:20Z</time>
      </trkpt>
      <trkpt lat="47.59477" lon="-2.71722">
        <ele>7.2</ele>
        <time>2026-08-20T12:12:21Z</time>
      </trkpt>
      <trkpt lat="47.59481" lon="-2.71722">
        <ele>7.3</ele>
        <time>2026-08-20T12:12:22Z</time>
      </trkpt>
      <trkpt lat="47.59485" lon="-2.71721">
        <ele>7.5</ele>
        <time>2026-08-20T12:12:23Z</time>
      </trkpt>
      <trkpt lat="47.5949" lon="-2.7172">
        <ele>7.8</ele>
        <time>2026-08-20T12:12:24Z</time>
      </trkpt>
      <trkpt lat="47.59494" lon="-2.71719">
        <ele>8</ele>
        <time>2026-08-20T12:12:25Z</time>
      </trkpt>
      <trkpt lat="47.59498" lon="-2.71718">
        <ele>8.2</ele>
        <time>2026-08-20T12:12:26Z</time>
      </trkpt>
      <trkpt lat="47.59502" lon="-2.71717">
        <ele>8.4</ele>
        <time>2026-08-20T12:12:27Z</time>
      </trkpt>
      <trkpt lat="47.59506" lon="-2.71716">
        <ele>8.6</ele>
        <time>2026-08-20T12:12:28Z</time>
      </trkpt>
      <trkpt lat="47.5951" lon="-2.71715">
        <ele>8.8</ele>
        <time>2026-08-20T12:12:29Z</time>
      </trkpt>
      <trkpt lat="47.59515" lon="-2.71714">
        <ele>9</ele>
        <time>2026-08-20T12:12:30Z</time>
      </trkpt>
      <trkpt lat="47.59519" lon="-2.71712">
        <ele>9.2</ele>
        <time>2026-08-20T12:12:31Z</time>
      </trkpt>
      <trkpt lat="47.59522" lon="-2.7171">
        <ele>9.3</ele>
        <time>2026-08-20T12:12:32Z</time>
      </trkpt>
      <trkpt lat="47.59526" lon="-2.71709">
        <ele>9.4</ele>
        <time>2026-08-20T12:12:33Z</time>
      </trkpt>
      <trkpt lat="47.5953" lon="-2.71708">
        <ele>9.7</ele>
        <time>2026-08-20T12:12:34Z</time>
      </trkpt>
      <trkpt lat="47.59534" lon="-2.71707">
        <ele>10</ele>
        <time>2026-08-20T12:12:35Z</time>
      </trkpt>
      <trkpt lat="47.59538" lon="-2.71706">
        <ele>10.3</ele>
        <time>2026-08-20T12:12:36Z</time>
      </trkpt>
      <trkpt lat="47.59542" lon="-2.71706">
        <ele>10.6</ele>
        <time>2026-08-20T12:12:37Z</time>
      </trkpt>
      <trkpt lat="47.59546" lon="-2.71705">
        <ele>10.9</ele>
        <time>2026-08-20T12:12:38Z</time>
      </trkpt>
      <trkpt lat="47.5955" lon="-2.71704">
        <ele>11.3</ele>
        <time>2026-08-20T12:12:39Z</time>
      </trkpt>
      <trkpt lat="47.59554" lon="-2.71702">
        <ele>11.6</ele>
        <time>2026-08-20T12:12:40Z</time>
      </trkpt>
      <trkpt lat="47.59558" lon="-2.71701">
        <ele>11.9</ele>
        <time>2026-08-20T12:12:41Z</time>
      </trkpt>
      <trkpt lat="47.59561" lon="-2.717">
        <ele>12</ele>
        <time>2026-08-20T12:12:42Z</time>
      </trkpt>
      <trkpt lat="47.59565" lon="-2.71698">
        <ele>12.2</ele>
        <time>2026-08-20T12:12:43Z</time>
      </trkpt>
      <trkpt lat="47.59568" lon="-2.71697">
        <ele>12.4</ele>
        <time>2026-08-20T12:12:44Z</time>
      </trkpt>
      <trkpt lat="47.59572" lon="-2.71695">
        <ele>12.6</ele>
        <time>2026-08-20T12:12:45Z</time>
      </trkpt>
      <trkpt lat="47.59575" lon="-2.71692">
        <ele>12.8</ele>
        <time>2026-08-20T12:12:46Z</time>
      </trkpt>
      <trkpt lat="47.59578" lon="-2.7169">
        <ele>13</ele>
        <time>2026-08-20T12:12:47Z</time>
      </trkpt>
      <trkpt lat="47.59581" lon="-2.71688">
        <ele>13.1</ele>
        <time>2026-08-20T12:12:48Z</time>
      </trkpt>
      <trkpt lat="47.59583" lon="-2.71686">
        <ele>13.3</ele>
        <time>2026-08-20T12:12:49Z</time>
      </trkpt>
      <trkpt lat="47.59586" lon="-2.71684">
        <ele>13.3</ele>
        <time>2026-08-20T12:12:50Z</time>
      </trkpt>
      <trkpt lat="47.59589" lon="-2.71684">
        <ele>13.3</ele>
        <time>2026-08-20T12:12:51Z</time>
      </trkpt>
      <trkpt lat="47.59592" lon="-2.71684">
        <ele>13.3</ele>
        <time>2026-08-20T12:12:52Z</time>
      </trkpt>
      <trkpt lat="47.59595" lon="-2.71686">
        <ele>13.2</ele>
        <time>2026-08-20T12:12:53Z</time>
      </trkpt>
      <trkpt lat="47.59598" lon="-2.71688">
        <ele>13.1</ele>
        <time>2026-08-20T12:12:54Z</time>
      </trkpt>
      <trkpt lat="47.59601" lon="-2.71691">
        <ele>13</ele>
        <time>2026-08-20T12:12:55Z</time>
      </trkpt>
      <trkpt lat="47.59604" lon="-2.71694">
        <ele>13</ele>
        <time>2026-08-20T12:12:56Z</time>
      </trkpt>
      <trkpt lat="47.59607" lon="-2.71697">
        <ele>12.9</ele>
        <time>2026-08-20T12:12:57Z</time>
      </trkpt>
      <trkpt lat="47.5961" lon="-2.71701">
        <ele>12.8</ele>
        <time>2026-08-20T12:12:58Z</time>
      </trkpt>
      <trkpt lat="47.59613" lon="-2.71704">
        <ele>12.7</ele>
        <time>2026-08-20T12:12:59Z</time>
      </trkpt>
      <trkpt lat="47.59617" lon="-2.71707">
        <ele>12.5</ele>
        <time>2026-08-20T12:13:00Z</time>
      </trkpt>
      <trkpt lat="47.59621" lon="-2.7171">
        <ele>12.4</ele>
        <time>2026-08-20T12:13:01Z</time>
      </trkpt>
      <trkpt lat="47.59624" lon="-2.71714">
        <ele>12.3</ele>
        <time>2026-08-20T12:13:02Z</time>
      </trkpt>
      <trkpt lat="47.59628" lon="-2.71717">
        <ele>12.2</ele>
        <time>2026-08-20T12:13:03Z</time>
      </trkpt>
      <trkpt lat="47.59632" lon="-2.71721">
        <ele>12</ele>
        <time>2026-08-20T12:13:04Z</time>
      </trkpt>
      <trkpt lat="47.59635" lon="-2.71725">
        <ele>12</ele>
        <time>2026-08-20T12:13:05Z</time>
      </trkpt>
      <trkpt lat="47.59639" lon="-2.71729">
        <ele>12</ele>
        <time>2026-08-20T12:13:06Z</time>
      </trkpt>
      <trkpt lat="47.59643" lon="-2.71733">
        <ele>11.9</ele>
        <time>2026-08-20T12:13:07Z</time>
      </trkpt>
      <trkpt lat="47.59647" lon="-2.71736">
        <ele>11.9</ele>
        <time>2026-08-20T12:13:08Z</time>
      </trkpt>
      <trkpt lat="47.59651" lon="-2.71739">
        <ele>11.7</ele>
        <time>2026-08-20T12:13:09Z</time>
      </trkpt>
      <trkpt lat="47.59656" lon="-2.71742">
        <ele>11.6</ele>
        <time>2026-08-20T12:13:10Z</time>
      </trkpt>
      <trkpt lat="47.59661" lon="-2.71744">
        <ele>11.4</ele>
        <time>2026-08-20T12:13:11Z</time>
      </trkpt>
      <trkpt lat="47.59666" lon="-2.71745">
        <ele>11.2</ele>
        <time>2026-08-20T12:13:12Z</time>
      </trkpt>
      <trkpt lat="47.59671" lon="-2.71746">
        <ele>11</ele>
        <time>2026-08-20T12:13:13Z</time>
      </trkpt>
      <trkpt lat="47.59677" lon="-2.71745">
        <ele>10.7</ele>
        <time>2026-08-20T12:13:14Z</time>
      </trkpt>
      <trkpt lat="47.59683" lon="-2.71745">
        <ele>10.5</ele>
        <time>2026-08-20T12:13:15Z</time>
      </trkpt>
      <trkpt lat="47.59689" lon="-2.71744">
        <ele>10.2</ele>
        <time>2026-08-20T12:13:16Z</time>
      </trkpt>
      <trkpt lat="47.59695" lon="-2.71744">
        <ele>10</ele>
        <time>2026-08-20T12:13:17Z</time>
      </trkpt>
      <trkpt lat="47.59702" lon="-2.71743">
        <ele>9.7</ele>
        <time>2026-08-20T12:13:18Z</time>
      </trkpt>
      <trkpt lat="47.59709" lon="-2.71744">
        <ele>9.5</ele>
        <time>2026-08-20T12:13:19Z</time>
      </trkpt>
      <trkpt lat="47.59716" lon="-2.71744">
        <ele>9.2</ele>
        <time>2026-08-20T12:13:20Z</time>
      </trkpt>
      <trkpt lat="47.59723" lon="-2.71744">
        <ele>8.9</ele>
        <time>2026-08-20T12:13:21Z</time>
      </trkpt>
      <trkpt lat="47.5973" lon="-2.71745">
        <ele>8.4</ele>
        <time>2026-08-20T12:13:22Z</time>
      </trkpt>
      <trkpt lat="47.59738" lon="-2.71746">
        <ele>7.9</ele>
        <time>2026-08-20T12:13:23Z</time>
      </trkpt>
      <trkpt lat="47.59746" lon="-2.71747">
        <ele>7.3</ele>
        <time>2026-08-20T12:13:24Z</time>
      </trkpt>
      <trkpt lat="47.59754" lon="-2.71748">
        <ele>6.7</ele>
        <time>2026-08-20T12:13:25Z</time>
      </trkpt>
      <trkpt lat="47.59762" lon="-2.71748">
        <ele>6.1</ele>
        <time>2026-08-20T12:13:26Z</time>
      </trkpt>
      <trkpt lat="47.5977" lon="-2.71747">
        <ele>5.6</ele>
        <time>2026-08-20T12:13:27Z</time>
      </trkpt>
      <trkpt lat="47.59778" lon="-2.71745">
        <ele>5</ele>
        <time>2026-08-20T12:13:28Z</time>
      </trkpt>
      <trkpt lat="47.59787" lon="-2.71743">
        <ele>4.1</ele>
        <time>2026-08-20T12:13:29Z</time>
      </trkpt>
      <trkpt lat="47.59796" lon="-2.71741">
        <ele>3.2</ele>
        <time>2026-08-20T12:13:30Z</time>
      </trkpt>
      <trkpt lat="47.59804" lon="-2.71739">
        <ele>2.5</ele>
        <time>2026-08-20T12:13:31Z</time>
      </trkpt>
      <trkpt lat="47.59813" lon="-2.71736">
        <ele>2.4</ele>
        <time>2026-08-20T12:13:32Z</time>
      </trkpt>
      <trkpt lat="47.59822" lon="-2.71735">
        <ele>2.2</ele>
        <time>2026-08-20T12:13:33Z</time>
      </trkpt>
      <trkpt lat="47.5983" lon="-2.71735">
        <ele>2.1</ele>
        <time>2026-08-20T12:13:34Z</time>
      </trkpt>
      <trkpt lat="47.59839" lon="-2.71736">
        <ele>2.1</ele>
        <time>2026-08-20T12:13:35Z</time>
      </trkpt>
      <trkpt lat="47.59847" lon="-2.71738">
        <ele>2.2</ele>
        <time>2026-08-20T12:13:36Z</time>
      </trkpt>
      <trkpt lat="47.59854" lon="-2.71741">
        <ele>2.2</ele>
        <time>2026-08-20T12:13:37Z</time>
      </trkpt>
      <trkpt lat="47.59861" lon="-2.71745">
        <ele>2.2</ele>
        <time>2026-08-20T12:13:38Z</time>
      </trkpt>
      <trkpt lat="47.59868" lon="-2.71748">
        <ele>2.6</ele>
        <time>2026-08-20T12:13:39Z</time>
      </trkpt>
      <trkpt lat="47.59875" lon="-2.71752">
        <ele>2.9</ele>
        <time>2026-08-20T12:13:40Z</time>
      </trkpt>
      <trkpt lat="47.59881" lon="-2.71756">
        <ele>2.9</ele>
        <time>2026-08-20T12:13:41Z</time>
      </trkpt>
      <trkpt lat="47.59887" lon="-2.71759">
        <ele>2.9</ele>
        <time>2026-08-20T12:13:42Z</time>
      </trkpt>
      <trkpt lat="47.59893" lon="-2.71763">
        <ele>2.8</ele>
        <time>2026-08-20T12:13:43Z</time>
      </trkpt>
      <trkpt lat="47.59899" lon="-2.71767">
        <ele>2.8</ele>
        <time>2026-08-20T12:13:44Z</time>
      </trkpt>
      <trkpt lat="47.59906" lon="-2.71771">
        <ele>2.8</ele>
        <time>2026-08-20T12:13:45Z</time>
      </trkpt>
      <trkpt lat="47.59911" lon="-2.71775">
        <ele>2.8</ele>
        <time>2026-08-20T12:13:46Z</time>
      </trkpt>
      <trkpt lat="47.59918" lon="-2.71778">
        <ele>3.1</ele>
        <time>2026-08-20T12:13:47Z</time>
      </trkpt>
      <trkpt lat="47.59923" lon="-2.71782">
        <ele>3.2</ele>
        <time>2026-08-20T12:13:48Z</time>
      </trkpt>
      <trkpt lat="47.59929" lon="-2.71787">
        <ele>3.2</ele>
        <time>2026-08-20T12:13:49Z</time>
      </trkpt>
      <trkpt lat="47.59934" lon="-2.71792">
        <ele>3.2</ele>
        <time>2026-08-20T12:13:50Z</time>
      </trkpt>
      <trkpt lat="47.5994" lon="-2.71797">
        <ele>3.3</ele>
        <time>2026-08-20T12:13:51Z</time>
      </trkpt>
      <trkpt lat="47.59945" lon="-2.71802">
        <ele>3.3</ele>
        <time>2026-08-20T12:13:52Z</time>
      </trkpt>
      <trkpt lat="47.59949" lon="-2.71808">
        <ele>3.2</ele>
        <time>2026-08-20T12:13:53Z</time>
      </trkpt>
      <trkpt lat="47.59954" lon="-2.71814">
        <ele>3.1</ele>
        <time>2026-08-20T12:13:54Z</time>
      </trkpt>
      <trkpt lat="47.59959" lon="-2.71819">
        <ele>3.1</ele>
        <time>2026-08-20T12:13:55Z</time>
      </trkpt>
      <trkpt lat="47.59963" lon="-2.71825">
        <ele>2.9</ele>
        <time>2026-08-20T12:13:56Z</time>
      </trkpt>
      <trkpt lat="47.59967" lon="-2.71831">
        <ele>2.8</ele>
        <time>2026-08-20T12:13:57Z</time>
      </trkpt>
      <trkpt lat="47.59972" lon="-2.71836">
        <ele>2.9</ele>
        <time>2026-08-20T12:13:58Z</time>
      </trkpt>
      <trkpt lat="47.59976" lon="-2.71842">
        <ele>2.8</ele>
        <time>2026-08-20T12:13:59Z</time>
      </trkpt>
      <trkpt lat="47.5998" lon="-2.71847">
        <ele>2.8</ele>
        <time>2026-08-20T12:14:00Z</time>
      </trkpt>
      <trkpt lat="47.59985" lon="-2.71852">
        <ele>2.8</ele>
        <time>2026-08-20T12:14:01Z</time>
      </trkpt>
      <trkpt lat="47.59989" lon="-2.71857">
        <ele>2.8</ele>
        <time>2026-08-20T12:14:02Z</time>
      </trkpt>
      <trkpt lat="47.59994" lon="-2.71861">
        <ele>2.8</ele>
        <time>2026-08-20T12:14:03Z</time>
      </trkpt>
      <trkpt lat="47.59999" lon="-2.71865">
        <ele>2.7</ele>
        <time>2026-08-20T12:14:04Z</time>
      </trkpt>
      <trkpt lat="47.60004" lon="-2.71868">
        <ele>2.6</ele>
        <time>2026-08-20T12:14:05Z</time>
      </trkpt>
      <trkpt lat="47.60009" lon="-2.71871">
        <ele>2.6</ele>
        <time>2026-08-20T12:14:06Z</time>
      </trkpt>
      <trkpt lat="47.60015" lon="-2.71874">
        <ele>2.6</ele>
        <time>2026-08-20T12:14:07Z</time>
      </trkpt>
      <trkpt lat="47.6002" lon="-2.71876">
        <ele>2.6</ele>
        <time>2026-08-20T12:14:08Z</time>
      </trkpt>
      <trkpt lat="47.60025" lon="-2.71878">
        <ele>2.7</ele>
        <time>2026-08-20T12:14:09Z</time>
      </trkpt>
      <trkpt lat="47.60031" lon="-2.7188">
        <ele>2.7</ele>
        <time>2026-08-20T12:14:10Z</time>
      </trkpt>
      <trkpt lat="47.60036" lon="-2.71883">
        <ele>2.7</ele>
        <time>2026-08-20T12:14:11Z</time>
      </trkpt>
      <trkpt lat="47.60042" lon="-2.71885">
        <ele>2.7</ele>
        <time>2026-08-20T12:14:12Z</time>
      </trkpt>
      <trkpt lat="47.60047" lon="-2.71887">
        <ele>2.8</ele>
        <time>2026-08-20T12:14:13Z</time>
      </trkpt>
      <trkpt lat="47.60053" lon="-2.71889">
        <ele>2.9</ele>
        <time>2026-08-20T12:14:14Z</time>
      </trkpt>
      <trkpt lat="47.60058" lon="-2.71892">
        <ele>2.8</ele>
        <time>2026-08-20T12:14:15Z</time>
      </trkpt>
      <trkpt lat="47.60063" lon="-2.71894">
        <ele>2.7</ele>
        <time>2026-08-20T12:14:16Z</time>
      </trkpt>
      <trkpt lat="47.60069" lon="-2.71896">
        <ele>2.6</ele>
        <time>2026-08-20T12:14:17Z</time>
      </trkpt>
      <trkpt lat="47.60074" lon="-2.71898">
        <ele>2.6</ele>
        <time>2026-08-20T12:14:18Z</time>
      </trkpt>
      <trkpt lat="47.6008" lon="-2.71901">
        <ele>2.5</ele>
        <time>2026-08-20T12:14:19Z</time>
      </trkpt>
      <trkpt lat="47.60085" lon="-2.71903">
        <ele>2.5</ele>
        <time>2026-08-20T12:14:20Z</time>
      </trkpt>
      <trkpt lat="47.60091" lon="-2.71905">
        <ele>2.6</ele>
        <time>2026-08-20T12:14:21Z</time>
      </trkpt>
      <trkpt lat="47.60096" lon="-2.71907">
        <ele>2.6</ele>
        <time>2026-08-20T12:14:22Z</time>
      </trkpt>
      <trkpt lat="47.60101" lon="-2.71908">
        <ele>2.7</ele>
        <time>2026-08-20T12:14:23Z</time>
      </trkpt>
      <trkpt lat="47.60107" lon="-2.7191">
        <ele>2.9</ele>
        <time>2026-08-20T12:14:24Z</time>
      </trkpt>
      <trkpt lat="47.60112" lon="-2.71912">
        <ele>3</ele>
        <time>2026-08-20T12:14:25Z</time>
      </trkpt>
      <trkpt lat="47.60117" lon="-2.71914">
        <ele>3</ele>
        <time>2026-08-20T12:14:26Z</time>
      </trkpt>
      <trkpt lat="47.60122" lon="-2.71915">
        <ele>3</ele>
        <time>2026-08-20T12:14:27Z</time>
      </trkpt>
      <trkpt lat="47.60128" lon="-2.71913">
        <ele>3</ele>
        <time>2026-08-20T12:14:28Z</time>
      </trkpt>
      <trkpt lat="47.60132" lon="-2.71909">
        <ele>3</ele>
        <time>2026-08-20T12:14:29Z</time>
      </trkpt>
      <trkpt lat="47.60135" lon="-2.71903">
        <ele>3</ele>
        <time>2026-08-20T12:14:30Z</time>
      </trkpt>
      <trkpt lat="47.60138" lon="-2.71898">
        <ele>3</ele>
        <time>2026-08-20T12:14:31Z</time>
      </trkpt>
      <trkpt lat="47.60142" lon="-2.71892">
        <ele>3</ele>
        <time>2026-08-20T12:14:32Z</time>
      </trkpt>
      <trkpt lat="47.60145" lon="-2.71886">
        <ele>3</ele>
        <time>2026-08-20T12:14:33Z</time>
      </trkpt>
      <trkpt lat="47.60148" lon="-2.71881">
        <ele>3.1</ele>
        <time>2026-08-20T12:14:34Z</time>
      </trkpt>
      <trkpt lat="47.60152" lon="-2.71875">
        <ele>3.2</ele>
        <time>2026-08-20T12:14:35Z</time>
      </trkpt>
      <trkpt lat="47.60155" lon="-2.7187">
        <ele>3.4</ele>
        <time>2026-08-20T12:14:36Z</time>
      </trkpt>
      <trkpt lat="47.60158" lon="-2.71865">
        <ele>3.6</ele>
        <time>2026-08-20T12:14:37Z</time>
      </trkpt>
      <trkpt lat="47.60162" lon="-2.71859">
        <ele>3.9</ele>
        <time>2026-08-20T12:14:38Z</time>
      </trkpt>
      <trkpt lat="47.60165" lon="-2.71854">
        <ele>4.2</ele>
        <time>2026-08-20T12:14:39Z</time>
      </trkpt>
      <trkpt lat="47.60169" lon="-2.71849">
        <ele>4.4</ele>
        <time>2026-08-20T12:14:40Z</time>
      </trkpt>
      <trkpt lat="47.60173" lon="-2.71844">
        <ele>4.6</ele>
        <time>2026-08-20T12:14:41Z</time>
      </trkpt>
      <trkpt lat="47.60177" lon="-2.71839">
        <ele>4.8</ele>
        <time>2026-08-20T12:14:42Z</time>
      </trkpt>
      <trkpt lat="47.6018" lon="-2.71833">
        <ele>5</ele>
        <time>2026-08-20T12:14:43Z</time>
      </trkpt>
      <trkpt lat="47.60184" lon="-2.71827">
        <ele>5</ele>
        <time>2026-08-20T12:14:44Z</time>
      </trkpt>
      <trkpt lat="47.60187" lon="-2.71821">
        <ele>5</ele>
        <time>2026-08-20T12:14:45Z</time>
      </trkpt>
      <trkpt lat="47.6019" lon="-2.71815">
        <ele>5</ele>
        <time>2026-08-20T12:14:46Z</time>
      </trkpt>
      <trkpt lat="47.60193" lon="-2.7181">
        <ele>5</ele>
        <time>2026-08-20T12:14:47Z</time>
      </trkpt>
      <trkpt lat="47.60196" lon="-2.71804">
        <ele>5.2</ele>
        <time>2026-08-20T12:14:48Z</time>
      </trkpt>
      <trkpt lat="47.602" lon="-2.71799">
        <ele>5.6</ele>
        <time>2026-08-20T12:14:49Z</time>
      </trkpt>
      <trkpt lat="47.60203" lon="-2.71794">
        <ele>6</ele>
        <time>2026-08-20T12:14:50Z</time>
      </trkpt>
      <trkpt lat="47.60207" lon="-2.7179">
        <ele>6.3</ele>
        <time>2026-08-20T12:14:51Z</time>
      </trkpt>
      <trkpt lat="47.60211" lon="-2.71786">
        <ele>6.6</ele>
        <time>2026-08-20T12:14:52Z</time>
      </trkpt>
      <trkpt lat="47.60214" lon="-2.71783">
        <ele>6.8</ele>
        <time>2026-08-20T12:14:53Z</time>
      </trkpt>
      <trkpt lat="47.60218" lon="-2.7178">
        <ele>6.9</ele>
        <time>2026-08-20T12:14:54Z</time>
      </trkpt>
      <trkpt lat="47.60222" lon="-2.71776">
        <ele>7.1</ele>
        <time>2026-08-20T12:14:55Z</time>
      </trkpt>
      <trkpt lat="47.60226" lon="-2.71773">
        <ele>7.5</ele>
        <time>2026-08-20T12:14:56Z</time>
      </trkpt>
      <trkpt lat="47.6023" lon="-2.71771">
        <ele>7.7</ele>
        <time>2026-08-20T12:14:57Z</time>
      </trkpt>
      <trkpt lat="47.60234" lon="-2.71768">
        <ele>8</ele>
        <time>2026-08-20T12:14:58Z</time>
      </trkpt>
      <trkpt lat="47.60237" lon="-2.71766">
        <ele>8.2</ele>
        <time>2026-08-20T12:14:59Z</time>
      </trkpt>
      <trkpt lat="47.60239" lon="-2.71765">
        <ele>8.2</ele>
        <time>2026-08-20T12:15:00Z</time>
      </trkpt>
      <trkpt lat="47.60242" lon="-2.71766">
        <ele>8.3</ele>
        <time>2026-08-20T12:15:01Z</time>
      </trkpt>
      <trkpt lat="47.60244" lon="-2.71768">
        <ele>8.2</ele>
        <time>2026-08-20T12:15:02Z</time>
      </trkpt>
      <trkpt lat="47.60245" lon="-2.71772">
        <ele>8.1</ele>
        <time>2026-08-20T12:15:03Z</time>
      </trkpt>
      <trkpt lat="47.60247" lon="-2.71777">
        <ele>7.9</ele>
        <time>2026-08-20T12:15:04Z</time>
      </trkpt>
      <trkpt lat="47.60248" lon="-2.71782">
        <ele>7.8</ele>
        <time>2026-08-20T12:15:05Z</time>
      </trkpt>
      <trkpt lat="47.6025" lon="-2.71788">
        <ele>7.6</ele>
        <time>2026-08-20T12:15:06Z</time>
      </trkpt>
      <trkpt lat="47.60251" lon="-2.71795">
        <ele>7.3</ele>
        <time>2026-08-20T12:15:07Z</time>
      </trkpt>
      <trkpt lat="47.60252" lon="-2.71801">
        <ele>7.1</ele>
        <time>2026-08-20T12:15:08Z</time>
      </trkpt>
      <trkpt lat="47.60254" lon="-2.71809">
        <ele>6.7</ele>
        <time>2026-08-20T12:15:09Z</time>
      </trkpt>
      <trkpt lat="47.60255" lon="-2.71816">
        <ele>6.5</ele>
        <time>2026-08-20T12:15:10Z</time>
      </trkpt>
      <trkpt lat="47.60256" lon="-2.71824">
        <ele>6.3</ele>
        <time>2026-08-20T12:15:11Z</time>
      </trkpt>
      <trkpt lat="47.60258" lon="-2.71832">
        <ele>6</ele>
        <time>2026-08-20T12:15:12Z</time>
      </trkpt>
      <trkpt lat="47.60259" lon="-2.71839">
        <ele>5.9</ele>
        <time>2026-08-20T12:15:13Z</time>
      </trkpt>
      <trkpt lat="47.60261" lon="-2.71847">
        <ele>5.8</ele>
        <time>2026-08-20T12:15:14Z</time>
      </trkpt>
      <trkpt lat="47.60262" lon="-2.71855">
        <ele>5.7</ele>
        <time>2026-08-20T12:15:15Z</time>
      </trkpt>
      <trkpt lat="47.60263" lon="-2.71862">
        <ele>5.5</ele>
        <time>2026-08-20T12:15:16Z</time>
      </trkpt>
      <trkpt lat="47.60265" lon="-2.7187">
        <ele>5.5</ele>
        <time>2026-08-20T12:15:17Z</time>
      </trkpt>
      <trkpt lat="47.60266" lon="-2.71878">
        <ele>5.4</ele>
        <time>2026-08-20T12:15:18Z</time>
      </trkpt>
      <trkpt lat="47.60268" lon="-2.71885">
        <ele>5.4</ele>
        <time>2026-08-20T12:15:19Z</time>
      </trkpt>
      <trkpt lat="47.60269" lon="-2.71893">
        <ele>5.3</ele>
        <time>2026-08-20T12:15:20Z</time>
      </trkpt>
      <trkpt lat="47.60271" lon="-2.71901">
        <ele>5.2</ele>
        <time>2026-08-20T12:15:21Z</time>
      </trkpt>
      <trkpt lat="47.60272" lon="-2.71909">
        <ele>5.2</ele>
        <time>2026-08-20T12:15:22Z</time>
      </trkpt>
      <trkpt lat="47.60274" lon="-2.71917">
        <ele>5.1</ele>
        <time>2026-08-20T12:15:23Z</time>
      </trkpt>
      <trkpt lat="47.60275" lon="-2.71924">
        <ele>4.8</ele>
        <time>2026-08-20T12:15:24Z</time>
      </trkpt>
      <trkpt lat="47.60277" lon="-2.71932">
        <ele>4.5</ele>
        <time>2026-08-20T12:15:25Z</time>
      </trkpt>
      <trkpt lat="47.60278" lon="-2.7194">
        <ele>4.2</ele>
        <time>2026-08-20T12:15:26Z</time>
      </trkpt>
      <trkpt lat="47.6028" lon="-2.71949">
        <ele>3.9</ele>
        <time>2026-08-20T12:15:27Z</time>
      </trkpt>
      <trkpt lat="47.60282" lon="-2.71957">
        <ele>3.8</ele>
        <time>2026-08-20T12:15:28Z</time>
      </trkpt>
      <trkpt lat="47.60283" lon="-2.71965">
        <ele>3.8</ele>
        <time>2026-08-20T12:15:29Z</time>
      </trkpt>
      <trkpt lat="47.60285" lon="-2.71973">
        <ele>3.7</ele>
        <time>2026-08-20T12:15:30Z</time>
      </trkpt>
      <trkpt lat="47.60287" lon="-2.71981">
        <ele>3.5</ele>
        <time>2026-08-20T12:15:31Z</time>
      </trkpt>
      <trkpt lat="47.60288" lon="-2.7199">
        <ele>3.2</ele>
        <time>2026-08-20T12:15:32Z</time>
      </trkpt>
      <trkpt lat="47.6029" lon="-2.71998">
        <ele>3</ele>
        <time>2026-08-20T12:15:33Z</time>
      </trkpt>
      <trkpt lat="47.60291" lon="-2.72006">
        <ele>3</ele>
        <time>2026-08-20T12:15:34Z</time>
      </trkpt>
      <trkpt lat="47.60293" lon="-2.72014">
        <ele>3</ele>
        <time>2026-08-20T12:15:35Z</time>
      </trkpt>
      <trkpt lat="47.60295" lon="-2.72022">
        <ele>3</ele>
        <time>2026-08-20T12:15:36Z</time>
      </trkpt>
      <trkpt lat="47.60298" lon="-2.72029">
        <ele>3</ele>
        <time>2026-08-20T12:15:37Z</time>
      </trkpt>
      <trkpt lat="47.60301" lon="-2.72035">
        <ele>3</ele>
        <time>2026-08-20T12:15:38Z</time>
      </trkpt>
      <trkpt lat="47.60304" lon="-2.72041">
        <ele>3</ele>
        <time>2026-08-20T12:15:39Z</time>
      </trkpt>
      <trkpt lat="47.60307" lon="-2.72046">
        <ele>3</ele>
        <time>2026-08-20T12:15:40Z</time>
      </trkpt>
      <trkpt lat="47.60311" lon="-2.72051">
        <ele>3</ele>
        <time>2026-08-20T12:15:41Z</time>
      </trkpt>
      <trkpt lat="47.60315" lon="-2.72055">
        <ele>3</ele>
        <time>2026-08-20T12:15:42Z</time>
      </trkpt>
      <trkpt lat="47.60319" lon="-2.7206">
        <ele>2.9</ele>
        <time>2026-08-20T12:15:43Z</time>
      </trkpt>
      <trkpt lat="47.60322" lon="-2.72065">
        <ele>2.9</ele>
        <time>2026-08-20T12:15:44Z</time>
      </trkpt>
      <trkpt lat="47.60326" lon="-2.7207">
        <ele>2.9</ele>
        <time>2026-08-20T12:15:45Z</time>
      </trkpt>
      <trkpt lat="47.6033" lon="-2.72076">
        <ele>2.9</ele>
        <time>2026-08-20T12:15:46Z</time>
      </trkpt>
      <trkpt lat="47.60334" lon="-2.72081">
        <ele>3</ele>
        <time>2026-08-20T12:15:47Z</time>
      </trkpt>
      <trkpt lat="47.60338" lon="-2.72087">
        <ele>2.7</ele>
        <time>2026-08-20T12:15:48Z</time>
      </trkpt>
      <trkpt lat="47.60341" lon="-2.72093">
        <ele>2.5</ele>
        <time>2026-08-20T12:15:49Z</time>
      </trkpt>
      <trkpt lat="47.60345" lon="-2.72099">
        <ele>2.3</ele>
        <time>2026-08-20T12:15:50Z</time>
      </trkpt>
      <trkpt lat="47.60348" lon="-2.72106">
        <ele>2.1</ele>
        <time>2026-08-20T12:15:51Z</time>
      </trkpt>
      <trkpt lat="47.60351" lon="-2.72113">
        <ele>2</ele>
        <time>2026-08-20T12:15:52Z</time>
      </trkpt>
      <trkpt lat="47.60353" lon="-2.7212">
        <ele>1.9</ele>
        <time>2026-08-20T12:15:53Z</time>
      </trkpt>
      <trkpt lat="47.60356" lon="-2.72127">
        <ele>1.9</ele>
        <time>2026-08-20T12:15:54Z</time>
      </trkpt>
      <trkpt lat="47.60358" lon="-2.72135">
        <ele>1.9</ele>
        <time>2026-08-20T12:15:55Z</time>
      </trkpt>
      <trkpt lat="47.60361" lon="-2.72142">
        <ele>2</ele>
        <time>2026-08-20T12:15:56Z</time>
      </trkpt>
      <trkpt lat="47.60363" lon="-2.72149">
        <ele>1.9</ele>
        <time>2026-08-20T12:15:57Z</time>
      </trkpt>
      <trkpt lat="47.60365" lon="-2.72157">
        <ele>1.9</ele>
        <time>2026-08-20T12:15:58Z</time>
      </trkpt>
      <trkpt lat="47.60368" lon="-2.72164">
        <ele>1.8</ele>
        <time>2026-08-20T12:15:59Z</time>
      </trkpt>
      <trkpt lat="47.6037" lon="-2.72171">
        <ele>1.6</ele>
        <time>2026-08-20T12:16:00Z</time>
      </trkpt>
      <trkpt lat="47.60372" lon="-2.72178">
        <ele>1.4</ele>
        <time>2026-08-20T12:16:01Z</time>
      </trkpt>
      <trkpt lat="47.60375" lon="-2.72185">
        <ele>1.2</ele>
        <time>2026-08-20T12:16:02Z</time>
      </trkpt>
      <trkpt lat="47.60377" lon="-2.72192">
        <ele>1</ele>
        <time>2026-08-20T12:16:03Z</time>
      </trkpt>
      <trkpt lat="47.60379" lon="-2.72199">
        <ele>1.1</ele>
        <time>2026-08-20T12:16:04Z</time>
      </trkpt>
      <trkpt lat="47.60382" lon="-2.72206">
        <ele>1.3</ele>
        <time>2026-08-20T12:16:05Z</time>
      </trkpt>
      <trkpt lat="47.60385" lon="-2.72212">
        <ele>1.5</ele>
        <time>2026-08-20T12:16:06Z</time>
      </trkpt>
      <trkpt lat="47.60388" lon="-2.72218">
        <ele>1.8</ele>
        <time>2026-08-20T12:16:07Z</time>
      </trkpt>
      <trkpt lat="47.60392" lon="-2.72224">
        <ele>2.1</ele>
        <time>2026-08-20T12:16:08Z</time>
      </trkpt>
      <trkpt lat="47.60396" lon="-2.72229">
        <ele>2.2</ele>
        <time>2026-08-20T12:16:09Z</time>
      </trkpt>
      <trkpt lat="47.604" lon="-2.72233">
        <ele>2.4</ele>
        <time>2026-08-20T12:16:10Z</time>
      </trkpt>
      <trkpt lat="47.60405" lon="-2.72237">
        <ele>2.5</ele>
        <time>2026-08-20T12:16:11Z</time>
      </trkpt>
      <trkpt lat="47.6041" lon="-2.7224">
        <ele>2.6</ele>
        <time>2026-08-20T12:16:12Z</time>
      </trkpt>
      <trkpt lat="47.60415" lon="-2.72242">
        <ele>2.7</ele>
        <time>2026-08-20T12:16:13Z</time>
      </trkpt>
      <trkpt lat="47.60421" lon="-2.72244">
        <ele>2.8</ele>
        <time>2026-08-20T12:16:14Z</time>
      </trkpt>
      <trkpt lat="47.60426" lon="-2.72245">
        <ele>2.8</ele>
        <time>2026-08-20T12:16:15Z</time>
      </trkpt>
      <trkpt lat="47.60431" lon="-2.72247">
        <ele>2.9</ele>
        <time>2026-08-20T12:16:16Z</time>
      </trkpt>
      <trkpt lat="47.60436" lon="-2.72251">
        <ele>3</ele>
        <time>2026-08-20T12:16:17Z</time>
      </trkpt>
      <trkpt lat="47.60439" lon="-2.72257">
        <ele>3.3</ele>
        <time>2026-08-20T12:16:18Z</time>
      </trkpt>
      <trkpt lat="47.60442" lon="-2.72263">
        <ele>3.5</ele>
        <time>2026-08-20T12:16:19Z</time>
      </trkpt>
      <trkpt lat="47.60442" lon="-2.7227">
        <ele>3.8</ele>
        <time>2026-08-20T12:16:20Z</time>
      </trkpt>
      <trkpt lat="47.60442" lon="-2.72276">
        <ele>4</ele>
        <time>2026-08-20T12:16:21Z</time>
      </trkpt>
      <trkpt lat="47.60442" lon="-2.72282">
        <ele>4.2</ele>
        <time>2026-08-20T12:16:22Z</time>
      </trkpt>
      <trkpt lat="47.60442" lon="-2.72288">
        <ele>4.5</ele>
        <time>2026-08-20T12:16:23Z</time>
      </trkpt>
      <trkpt lat="47.60442" lon="-2.72293">
        <ele>4.6</ele>
        <time>2026-08-20T12:16:24Z</time>
      </trkpt>
      <trkpt lat="47.60442" lon="-2.72299">
        <ele>4.9</ele>
        <time>2026-08-20T12:16:25Z</time>
      </trkpt>
      <trkpt lat="47.60442" lon="-2.72305">
        <ele>5.1</ele>
        <time>2026-08-20T12:16:26Z</time>
      </trkpt>
      <trkpt lat="47.60443" lon="-2.72311">
        <ele>5.2</ele>
        <time>2026-08-20T12:16:27Z</time>
      </trkpt>
      <trkpt lat="47.60443" lon="-2.72317">
        <ele>5.5</ele>
        <time>2026-08-20T12:16:28Z</time>
      </trkpt>
      <trkpt lat="47.60443" lon="-2.72323">
        <ele>5.7</ele>
        <time>2026-08-20T12:16:29Z</time>
      </trkpt>
      <trkpt lat="47.60442" lon="-2.7233">
        <ele>6</ele>
        <time>2026-08-20T12:16:30Z</time>
      </trkpt>
      <trkpt lat="47.60442" lon="-2.72335">
        <ele>6.1</ele>
        <time>2026-08-20T12:16:31Z</time>
      </trkpt>
      <trkpt lat="47.60442" lon="-2.72341">
        <ele>6.4</ele>
        <time>2026-08-20T12:16:32Z</time>
      </trkpt>
      <trkpt lat="47.60442" lon="-2.72347">
        <ele>6.6</ele>
        <time>2026-08-20T12:16:33Z</time>
      </trkpt>
      <trkpt lat="47.60442" lon="-2.72353">
        <ele>6.8</ele>
        <time>2026-08-20T12:16:34Z</time>
      </trkpt>
      <trkpt lat="47.60441" lon="-2.72359">
        <ele>7</ele>
        <time>2026-08-20T12:16:35Z</time>
      </trkpt>
      <trkpt lat="47.60441" lon="-2.72365">
        <ele>7.3</ele>
        <time>2026-08-20T12:16:36Z</time>
      </trkpt>
      <trkpt lat="47.6044" lon="-2.72371">
        <ele>7.5</ele>
        <time>2026-08-20T12:16:37Z</time>
      </trkpt>
      <trkpt lat="47.6044" lon="-2.72377">
        <ele>7.7</ele>
        <time>2026-08-20T12:16:38Z</time>
      </trkpt>
      <trkpt lat="47.6044" lon="-2.72383">
        <ele>7.9</ele>
        <time>2026-08-20T12:16:39Z</time>
      </trkpt>
      <trkpt lat="47.60439" lon="-2.72389">
        <ele>8.2</ele>
        <time>2026-08-20T12:16:40Z</time>
      </trkpt>
      <trkpt lat="47.60439" lon="-2.72395">
        <ele>8.4</ele>
        <time>2026-08-20T12:16:41Z</time>
      </trkpt>
      <trkpt lat="47.60439" lon="-2.72401">
        <ele>8.5</ele>
        <time>2026-08-20T12:16:42Z</time>
      </trkpt>
      <trkpt lat="47.6044" lon="-2.72407">
        <ele>8.7</ele>
        <time>2026-08-20T12:16:43Z</time>
      </trkpt>
      <trkpt lat="47.6044" lon="-2.72413">
        <ele>8.9</ele>
        <time>2026-08-20T12:16:44Z</time>
      </trkpt>
      <trkpt lat="47.6044" lon="-2.72419">
        <ele>9</ele>
        <time>2026-08-20T12:16:45Z</time>
      </trkpt>
      <trkpt lat="47.60441" lon="-2.72425">
        <ele>9</ele>
        <time>2026-08-20T12:16:46Z</time>
      </trkpt>
      <trkpt lat="47.60441" lon="-2.72431">
        <ele>8.9</ele>
        <time>2026-08-20T12:16:47Z</time>
      </trkpt>
      <trkpt lat="47.60442" lon="-2.72437">
        <ele>8.9</ele>
        <time>2026-08-20T12:16:48Z</time>
      </trkpt>
      <trkpt lat="47.60442" lon="-2.72443">
        <ele>8.9</ele>
        <time>2026-08-20T12:16:49Z</time>
      </trkpt>
      <trkpt lat="47.60443" lon="-2.72449">
        <ele>8.9</ele>
        <time>2026-08-20T12:16:50Z</time>
      </trkpt>
      <trkpt lat="47.60443" lon="-2.72455">
        <ele>8.9</ele>
        <time>2026-08-20T12:16:51Z</time>
      </trkpt>
      <trkpt lat="47.60444" lon="-2.72461">
        <ele>9</ele>
        <time>2026-08-20T12:16:52Z</time>
      </trkpt>
      <trkpt lat="47.60445" lon="-2.72467">
        <ele>9</ele>
        <time>2026-08-20T12:16:53Z</time>
      </trkpt>
      <trkpt lat="47.60445" lon="-2.72473">
        <ele>9</ele>
        <time>2026-08-20T12:16:54Z</time>
      </trkpt>
      <trkpt lat="47.60445" lon="-2.72479">
        <ele>9.2</ele>
        <time>2026-08-20T12:16:55Z</time>
      </trkpt>
      <trkpt lat="47.60446" lon="-2.72485">
        <ele>9.5</ele>
        <time>2026-08-20T12:16:56Z</time>
      </trkpt>
      <trkpt lat="47.60446" lon="-2.7249">
        <ele>9.6</ele>
        <time>2026-08-20T12:16:57Z</time>
      </trkpt>
      <trkpt lat="47.60447" lon="-2.72496">
        <ele>9.9</ele>
        <time>2026-08-20T12:16:58Z</time>
      </trkpt>
      <trkpt lat="47.60447" lon="-2.72502">
        <ele>10.1</ele>
        <time>2026-08-20T12:16:59Z</time>
      </trkpt>
      <trkpt lat="47.60448" lon="-2.72508">
        <ele>10.3</ele>
        <time>2026-08-20T12:17:00Z</time>
      </trkpt>
      <trkpt lat="47.60448" lon="-2.72513">
        <ele>10.5</ele>
        <time>2026-08-20T12:17:01Z</time>
      </trkpt>
      <trkpt lat="47.60449" lon="-2.72519">
        <ele>10.8</ele>
        <time>2026-08-20T12:17:02Z</time>
      </trkpt>
      <trkpt lat="47.60449" lon="-2.72524">
        <ele>11</ele>
        <time>2026-08-20T12:17:03Z</time>
      </trkpt>
      <trkpt lat="47.6045" lon="-2.7253">
        <ele>11.3</ele>
        <time>2026-08-20T12:17:04Z</time>
      </trkpt>
      <trkpt lat="47.6045" lon="-2.72536">
        <ele>11.6</ele>
        <time>2026-08-20T12:17:05Z</time>
      </trkpt>
      <trkpt lat="47.6045" lon="-2.72541">
        <ele>11.9</ele>
        <time>2026-08-20T12:17:06Z</time>
      </trkpt>
      <trkpt lat="47.60451" lon="-2.72546">
        <ele>12.2</ele>
        <time>2026-08-20T12:17:07Z</time>
      </trkpt>
      <trkpt lat="47.60451" lon="-2.72551">
        <ele>12.5</ele>
        <time>2026-08-20T12:17:08Z</time>
      </trkpt>
      <trkpt lat="47.60452" lon="-2.72556">
        <ele>12.8</ele>
        <time>2026-08-20T12:17:09Z</time>
      </trkpt>
      <trkpt lat="47.60452" lon="-2.72561">
        <ele>13</ele>
        <time>2026-08-20T12:17:10Z</time>
      </trkpt>
      <trkpt lat="47.60453" lon="-2.72566">
        <ele>13.3</ele>
        <time>2026-08-20T12:17:11Z</time>
      </trkpt>
      <trkpt lat="47.60453" lon="-2.7257">
        <ele>13.4</ele>
        <time>2026-08-20T12:17:12Z</time>
      </trkpt>
      <trkpt lat="47.60454" lon="-2.72575">
        <ele>13.7</ele>
        <time>2026-08-20T12:17:13Z</time>
      </trkpt>
      <trkpt lat="47.60454" lon="-2.7258">
        <ele>13.9</ele>
        <time>2026-08-20T12:17:14Z</time>
      </trkpt>
      <trkpt lat="47.60455" lon="-2.72586">
        <ele>14.2</ele>
        <time>2026-08-20T12:17:15Z</time>
      </trkpt>
      <trkpt lat="47.60456" lon="-2.72591">
        <ele>14.4</ele>
        <time>2026-08-20T12:17:16Z</time>
      </trkpt>
      <trkpt lat="47.60456" lon="-2.72596">
        <ele>14.4</ele>
        <time>2026-08-20T12:17:17Z</time>
      </trkpt>
      <trkpt lat="47.60457" lon="-2.72601">
        <ele>14.6</ele>
        <time>2026-08-20T12:17:18Z</time>
      </trkpt>
      <trkpt lat="47.60457" lon="-2.72606">
        <ele>14.7</ele>
        <time>2026-08-20T12:17:19Z</time>
      </trkpt>
      <trkpt lat="47.60458" lon="-2.72611">
        <ele>15</ele>
        <time>2026-08-20T12:17:20Z</time>
      </trkpt>
      <trkpt lat="47.60458" lon="-2.72616">
        <ele>15</ele>
        <time>2026-08-20T12:17:21Z</time>
      </trkpt>
      <trkpt lat="47.60458" lon="-2.7262">
        <ele>15.1</ele>
        <time>2026-08-20T12:17:22Z</time>
      </trkpt>
      <trkpt lat="47.60459" lon="-2.72625">
        <ele>15.3</ele>
        <time>2026-08-20T12:17:23Z</time>
      </trkpt>
      <trkpt lat="47.60459" lon="-2.7263">
        <ele>15.4</ele>
        <time>2026-08-20T12:17:24Z</time>
      </trkpt>
      <trkpt lat="47.6046" lon="-2.72636">
        <ele>15.6</ele>
        <time>2026-08-20T12:17:25Z</time>
      </trkpt>
      <trkpt lat="47.6046" lon="-2.72641">
        <ele>15.8</ele>
        <time>2026-08-20T12:17:26Z</time>
      </trkpt>
      <trkpt lat="47.6046" lon="-2.72647">
        <ele>16</ele>
        <time>2026-08-20T12:17:27Z</time>
      </trkpt>
      <trkpt lat="47.60459" lon="-2.72651">
        <ele>16</ele>
        <time>2026-08-20T12:17:28Z</time>
      </trkpt>
      <trkpt lat="47.60459" lon="-2.72656">
        <ele>16.2</ele>
        <time>2026-08-20T12:17:29Z</time>
      </trkpt>
      <trkpt lat="47.60459" lon="-2.72661">
        <ele>16.4</ele>
        <time>2026-08-20T12:17:30Z</time>
      </trkpt>
      <trkpt lat="47.60459" lon="-2.72666">
        <ele>16.5</ele>
        <time>2026-08-20T12:17:31Z</time>
      </trkpt>
      <trkpt lat="47.60459" lon="-2.72672">
        <ele>16.4</ele>
        <time>2026-08-20T12:17:32Z</time>
      </trkpt>
      <trkpt lat="47.60459" lon="-2.72677">
        <ele>16.2</ele>
        <time>2026-08-20T12:17:33Z</time>
      </trkpt>
      <trkpt lat="47.60459" lon="-2.72683">
        <ele>16</ele>
        <time>2026-08-20T12:17:34Z</time>
      </trkpt>
      <trkpt lat="47.6046" lon="-2.72688">
        <ele>15.9</ele>
        <time>2026-08-20T12:17:35Z</time>
      </trkpt>
      <trkpt lat="47.60462" lon="-2.72693">
        <ele>15.9</ele>
        <time>2026-08-20T12:17:36Z</time>
      </trkpt>
      <trkpt lat="47.60464" lon="-2.72697">
        <ele>16.1</ele>
        <time>2026-08-20T12:17:37Z</time>
      </trkpt>
      <trkpt lat="47.60467" lon="-2.72701">
        <ele>16.4</ele>
        <time>2026-08-20T12:17:38Z</time>
      </trkpt>
      <trkpt lat="47.6047" lon="-2.72705">
        <ele>16.7</ele>
        <time>2026-08-20T12:17:39Z</time>
      </trkpt>
      <trkpt lat="47.60473" lon="-2.72708">
        <ele>17</ele>
        <time>2026-08-20T12:17:40Z</time>
      </trkpt>
      <trkpt lat="47.60476" lon="-2.7271">
        <ele>17.2</ele>
        <time>2026-08-20T12:17:41Z</time>
      </trkpt>
      <trkpt lat="47.60479" lon="-2.72713">
        <ele>17.3</ele>
        <time>2026-08-20T12:17:42Z</time>
      </trkpt>
      <trkpt lat="47.60482" lon="-2.72715">
        <ele>17.4</ele>
        <time>2026-08-20T12:17:43Z</time>
      </trkpt>
      <trkpt lat="47.60486" lon="-2.72717">
        <ele>17.6</ele>
        <time>2026-08-20T12:17:44Z</time>
      </trkpt>
      <trkpt lat="47.60489" lon="-2.72719">
        <ele>17.7</ele>
        <time>2026-08-20T12:17:45Z</time>
      </trkpt>
      <trkpt lat="47.60492" lon="-2.72721">
        <ele>17.7</ele>
        <time>2026-08-20T12:17:46Z</time>
      </trkpt>
      <trkpt lat="47.60495" lon="-2.72724">
        <ele>17.7</ele>
        <time>2026-08-20T12:17:47Z</time>
      </trkpt>
      <trkpt lat="47.60499" lon="-2.72726">
        <ele>17.8</ele>
        <time>2026-08-20T12:17:48Z</time>
      </trkpt>
      <trkpt lat="47.60502" lon="-2.72728">
        <ele>17.8</ele>
        <time>2026-08-20T12:17:49Z</time>
      </trkpt>
      <trkpt lat="47.60506" lon="-2.72731">
        <ele>17.8</ele>
        <time>2026-08-20T12:17:50Z</time>
      </trkpt>
      <trkpt lat="47.60509" lon="-2.72733">
        <ele>17.8</ele>
        <time>2026-08-20T12:17:51Z</time>
      </trkpt>
      <trkpt lat="47.60513" lon="-2.72735">
        <ele>17.8</ele>
        <time>2026-08-20T12:17:52Z</time>
      </trkpt>
      <trkpt lat="47.60516" lon="-2.72737">
        <ele>17.7</ele>
        <time>2026-08-20T12:17:53Z</time>
      </trkpt>
      <trkpt lat="47.60519" lon="-2.7274">
        <ele>17.6</ele>
        <time>2026-08-20T12:17:54Z</time>
      </trkpt>
      <trkpt lat="47.60522" lon="-2.72743">
        <ele>17.5</ele>
        <time>2026-08-20T12:17:55Z</time>
      </trkpt>
      <trkpt lat="47.60526" lon="-2.72746">
        <ele>17.3</ele>
        <time>2026-08-20T12:17:56Z</time>
      </trkpt>
      <trkpt lat="47.60529" lon="-2.7275">
        <ele>17</ele>
        <time>2026-08-20T12:17:57Z</time>
      </trkpt>
      <trkpt lat="47.60533" lon="-2.72754">
        <ele>16.6</ele>
        <time>2026-08-20T12:17:58Z</time>
      </trkpt>
      <trkpt lat="47.60536" lon="-2.72758">
        <ele>16.2</ele>
        <time>2026-08-20T12:17:59Z</time>
      </trkpt>
      <trkpt lat="47.6054" lon="-2.72763">
        <ele>15.8</ele>
        <time>2026-08-20T12:18:00Z</time>
      </trkpt>
      <trkpt lat="47.60545" lon="-2.72768">
        <ele>15.5</ele>
        <time>2026-08-20T12:18:01Z</time>
      </trkpt>
      <trkpt lat="47.60549" lon="-2.72774">
        <ele>15.2</ele>
        <time>2026-08-20T12:18:02Z</time>
      </trkpt>
      <trkpt lat="47.60554" lon="-2.72779">
        <ele>15</ele>
        <time>2026-08-20T12:18:03Z</time>
      </trkpt>
      <trkpt lat="47.60558" lon="-2.72785">
        <ele>14.8</ele>
        <time>2026-08-20T12:18:04Z</time>
      </trkpt>
      <trkpt lat="47.60563" lon="-2.7279">
        <ele>14.8</ele>
        <time>2026-08-20T12:18:05Z</time>
      </trkpt>
      <trkpt lat="47.60567" lon="-2.72795">
        <ele>14.9</ele>
        <time>2026-08-20T12:18:06Z</time>
      </trkpt>
      <trkpt lat="47.60572" lon="-2.72799">
        <ele>15.1</ele>
        <time>2026-08-20T12:18:07Z</time>
      </trkpt>
      <trkpt lat="47.60576" lon="-2.72802">
        <ele>15.4</ele>
        <time>2026-08-20T12:18:08Z</time>
      </trkpt>
      <trkpt lat="47.6058" lon="-2.72805">
        <ele>15.7</ele>
        <time>2026-08-20T12:18:09Z</time>
      </trkpt>
      <trkpt lat="47.60584" lon="-2.72807">
        <ele>16</ele>
        <time>2026-08-20T12:18:10Z</time>
      </trkpt>
      <trkpt lat="47.60589" lon="-2.72809">
        <ele>16</ele>
        <time>2026-08-20T12:18:11Z</time>
      </trkpt>
      <trkpt lat="47.60593" lon="-2.72812">
        <ele>16</ele>
        <time>2026-08-20T12:18:12Z</time>
      </trkpt>
      <trkpt lat="47.60596" lon="-2.72816">
        <ele>16</ele>
        <time>2026-08-20T12:18:13Z</time>
      </trkpt>
      <trkpt lat="47.60599" lon="-2.7282">
        <ele>16</ele>
        <time>2026-08-20T12:18:14Z</time>
      </trkpt>
      <trkpt lat="47.60602" lon="-2.72824">
        <ele>16</ele>
        <time>2026-08-20T12:18:15Z</time>
      </trkpt>
      <trkpt lat="47.60605" lon="-2.72828">
        <ele>16</ele>
        <time>2026-08-20T12:18:16Z</time>
      </trkpt>
      <trkpt lat="47.60609" lon="-2.72831">
        <ele>16</ele>
        <time>2026-08-20T12:18:17Z</time>
      </trkpt>
      <trkpt lat="47.60613" lon="-2.72833">
        <ele>15.9</ele>
        <time>2026-08-20T12:18:18Z</time>
      </trkpt>
      <trkpt lat="47.60617" lon="-2.72836">
        <ele>15.8</ele>
        <time>2026-08-20T12:18:19Z</time>
      </trkpt>
      <trkpt lat="47.60621" lon="-2.72839">
        <ele>15.7</ele>
        <time>2026-08-20T12:18:20Z</time>
      </trkpt>
      <trkpt lat="47.60625" lon="-2.72842">
        <ele>15.7</ele>
        <time>2026-08-20T12:18:21Z</time>
      </trkpt>
      <trkpt lat="47.60629" lon="-2.72845">
        <ele>15.6</ele>
        <time>2026-08-20T12:18:22Z</time>
      </trkpt>
      <trkpt lat="47.60632" lon="-2.72848">
        <ele>15.6</ele>
        <time>2026-08-20T12:18:23Z</time>
      </trkpt>
      <trkpt lat="47.60636" lon="-2.72851">
        <ele>15.7</ele>
        <time>2026-08-20T12:18:24Z</time>
      </trkpt>
      <trkpt lat="47.6064" lon="-2.72854">
        <ele>15.7</ele>
        <time>2026-08-20T12:18:25Z</time>
      </trkpt>
      <trkpt lat="47.60644" lon="-2.72857">
        <ele>15.5</ele>
        <time>2026-08-20T12:18:26Z</time>
      </trkpt>
      <trkpt lat="47.60648" lon="-2.72861">
        <ele>15.3</ele>
        <time>2026-08-20T12:18:27Z</time>
      </trkpt>
      <trkpt lat="47.60652" lon="-2.72864">
        <ele>15.1</ele>
        <time>2026-08-20T12:18:28Z</time>
      </trkpt>
      <trkpt lat="47.60657" lon="-2.72868">
        <ele>14.9</ele>
        <time>2026-08-20T12:18:29Z</time>
      </trkpt>
      <trkpt lat="47.60662" lon="-2.7287">
        <ele>14.6</ele>
        <time>2026-08-20T12:18:30Z</time>
      </trkpt>
      <trkpt lat="47.60667" lon="-2.72871">
        <ele>14.3</ele>
        <time>2026-08-20T12:18:31Z</time>
      </trkpt>
      <trkpt lat="47.60673" lon="-2.7287">
        <ele>13.6</ele>
        <time>2026-08-20T12:18:32Z</time>
      </trkpt>
      <trkpt lat="47.60679" lon="-2.72867">
        <ele>12.9</ele>
        <time>2026-08-20T12:18:33Z</time>
      </trkpt>
      <trkpt lat="47.60684" lon="-2.72864">
        <ele>12.2</ele>
        <time>2026-08-20T12:18:34Z</time>
      </trkpt>
      <trkpt lat="47.6069" lon="-2.7286">
        <ele>11.4</ele>
        <time>2026-08-20T12:18:35Z</time>
      </trkpt>
      <trkpt lat="47.60696" lon="-2.72857">
        <ele>10.7</ele>
        <time>2026-08-20T12:18:36Z</time>
      </trkpt>
      <trkpt lat="47.60703" lon="-2.72856">
        <ele>10.3</ele>
        <time>2026-08-20T12:18:37Z</time>
      </trkpt>
      <trkpt lat="47.60709" lon="-2.72854">
        <ele>9.8</ele>
        <time>2026-08-20T12:18:38Z</time>
      </trkpt>
      <trkpt lat="47.60716" lon="-2.7285">
        <ele>9.4</ele>
        <time>2026-08-20T12:18:39Z</time>
      </trkpt>
      <trkpt lat="47.60721" lon="-2.72846">
        <ele>9.1</ele>
        <time>2026-08-20T12:18:40Z</time>
      </trkpt>
      <trkpt lat="47.60727" lon="-2.72841">
        <ele>8.8</ele>
        <time>2026-08-20T12:18:41Z</time>
      </trkpt>
      <trkpt lat="47.60734" lon="-2.72835">
        <ele>8.6</ele>
        <time>2026-08-20T12:18:42Z</time>
      </trkpt>
      <trkpt lat="47.60739" lon="-2.72827">
        <ele>8.3</ele>
        <time>2026-08-20T12:18:43Z</time>
      </trkpt>
      <trkpt lat="47.60743" lon="-2.72819">
        <ele>7.9</ele>
        <time>2026-08-20T12:18:44Z</time>
      </trkpt>
      <trkpt lat="47.60748" lon="-2.72811">
        <ele>7.3</ele>
        <time>2026-08-20T12:18:45Z</time>
      </trkpt>
      <trkpt lat="47.60753" lon="-2.72804">
        <ele>6.9</ele>
        <time>2026-08-20T12:18:46Z</time>
      </trkpt>
      <trkpt lat="47.60758" lon="-2.72798">
        <ele>6.7</ele>
        <time>2026-08-20T12:18:47Z</time>
      </trkpt>
      <trkpt lat="47.60764" lon="-2.72794">
        <ele>6.5</ele>
        <time>2026-08-20T12:18:48Z</time>
      </trkpt>
      <trkpt lat="47.60772" lon="-2.72791">
        <ele>6.2</ele>
        <time>2026-08-20T12:18:49Z</time>
      </trkpt>
      <trkpt lat="47.60779" lon="-2.7279">
        <ele>6</ele>
        <time>2026-08-20T12:18:50Z</time>
      </trkpt>
      <trkpt lat="47.60786" lon="-2.7279">
        <ele>5.9</ele>
        <time>2026-08-20T12:18:51Z</time>
      </trkpt>
      <trkpt lat="47.60792" lon="-2.72792">
        <ele>5.7</ele>
        <time>2026-08-20T12:18:52Z</time>
      </trkpt>
      <trkpt lat="47.608" lon="-2.72796">
        <ele>5.5</ele>
        <time>2026-08-20T12:18:53Z</time>
      </trkpt>
      <trkpt lat="47.60807" lon="-2.72799">
        <ele>5.2</ele>
        <time>2026-08-20T12:18:54Z</time>
      </trkpt>
      <trkpt lat="47.60814" lon="-2.72803">
        <ele>5.1</ele>
        <time>2026-08-20T12:18:55Z</time>
      </trkpt>
      <trkpt lat="47.60821" lon="-2.72806">
        <ele>5</ele>
        <time>2026-08-20T12:18:56Z</time>
      </trkpt>
      <trkpt lat="47.60828" lon="-2.72807">
        <ele>5</ele>
        <time>2026-08-20T12:18:57Z</time>
      </trkpt>
      <trkpt lat="47.60835" lon="-2.72809">
        <ele>4.9</ele>
        <time>2026-08-20T12:18:58Z</time>
      </trkpt>
      <trkpt lat="47.60841" lon="-2.72813">
        <ele>4.8</ele>
        <time>2026-08-20T12:18:59Z</time>
      </trkpt>
      <trkpt lat="47.60846" lon="-2.72817">
        <ele>4.7</ele>
        <time>2026-08-20T12:19:00Z</time>
      </trkpt>
      <trkpt lat="47.60851" lon="-2.72821">
        <ele>4.7</ele>
        <time>2026-08-20T12:19:01Z</time>
      </trkpt>
      <trkpt lat="47.60855" lon="-2.72827">
        <ele>4.8</ele>
        <time>2026-08-20T12:19:02Z</time>
      </trkpt>
      <trkpt lat="47.60858" lon="-2.72834">
        <ele>5</ele>
        <time>2026-08-20T12:19:03Z</time>
      </trkpt>
      <trkpt lat="47.60861" lon="-2.72842">
        <ele>5</ele>
        <time>2026-08-20T12:19:04Z</time>
      </trkpt>
      <trkpt lat="47.60863" lon="-2.72849">
        <ele>5</ele>
        <time>2026-08-20T12:19:05Z</time>
      </trkpt>
      <trkpt lat="47.60865" lon="-2.72857">
        <ele>5</ele>
        <time>2026-08-20T12:19:06Z</time>
      </trkpt>
      <trkpt lat="47.60867" lon="-2.72864">
        <ele>5</ele>
        <time>2026-08-20T12:19:07Z</time>
      </trkpt>
      <trkpt lat="47.6087" lon="-2.72871">
        <ele>5</ele>
        <time>2026-08-20T12:19:08Z</time>
      </trkpt>
      <trkpt lat="47.60873" lon="-2.72878">
        <ele>5</ele>
        <time>2026-08-20T12:19:09Z</time>
      </trkpt>
      <trkpt lat="47.60875" lon="-2.72885">
        <ele>5</ele>
        <time>2026-08-20T12:19:10Z</time>
      </trkpt>
      <trkpt lat="47.60876" lon="-2.72891">
        <ele>5</ele>
        <time>2026-08-20T12:19:11Z</time>
      </trkpt>
      <trkpt lat="47.60879" lon="-2.72898">
        <ele>5.1</ele>
        <time>2026-08-20T12:19:12Z</time>
      </trkpt>
      <trkpt lat="47.60881" lon="-2.72905">
        <ele>5.2</ele>
        <time>2026-08-20T12:19:13Z</time>
      </trkpt>
      <trkpt lat="47.60883" lon="-2.72912">
        <ele>5.2</ele>
        <time>2026-08-20T12:19:14Z</time>
      </trkpt>
      <trkpt lat="47.60885" lon="-2.72918">
        <ele>5.2</ele>
        <time>2026-08-20T12:19:15Z</time>
      </trkpt>
      <trkpt lat="47.60888" lon="-2.72924">
        <ele>5.3</ele>
        <time>2026-08-20T12:19:16Z</time>
      </trkpt>
      <trkpt lat="47.6089" lon="-2.72931">
        <ele>5.5</ele>
        <time>2026-08-20T12:19:17Z</time>
      </trkpt>
      <trkpt lat="47.60892" lon="-2.72938">
        <ele>5.8</ele>
        <time>2026-08-20T12:19:18Z</time>
      </trkpt>
      <trkpt lat="47.60894" lon="-2.72945">
        <ele>6</ele>
        <time>2026-08-20T12:19:19Z</time>
      </trkpt>
      <trkpt lat="47.60896" lon="-2.72953">
        <ele>6</ele>
        <time>2026-08-20T12:19:20Z</time>
      </trkpt>
      <trkpt lat="47.60898" lon="-2.72959">
        <ele>6</ele>
        <time>2026-08-20T12:19:21Z</time>
      </trkpt>
      <trkpt lat="47.609" lon="-2.72965">
        <ele>6</ele>
        <time>2026-08-20T12:19:22Z</time>
      </trkpt>
      <trkpt lat="47.60902" lon="-2.72971">
        <ele>6</ele>
        <time>2026-08-20T12:19:23Z</time>
      </trkpt>
      <trkpt lat="47.60903" lon="-2.72977">
        <ele>6.1</ele>
        <time>2026-08-20T12:19:24Z</time>
      </trkpt>
      <trkpt lat="47.60905" lon="-2.72982">
        <ele>6.1</ele>
        <time>2026-08-20T12:19:25Z</time>
      </trkpt>
      <trkpt lat="47.60907" lon="-2.72989">
        <ele>6.2</ele>
        <time>2026-08-20T12:19:26Z</time>
      </trkpt>
      <trkpt lat="47.60909" lon="-2.72995">
        <ele>6.2</ele>
        <time>2026-08-20T12:19:27Z</time>
      </trkpt>
      <trkpt lat="47.60911" lon="-2.73">
        <ele>6.2</ele>
        <time>2026-08-20T12:19:28Z</time>
      </trkpt>
      <trkpt lat="47.60913" lon="-2.73005">
        <ele>6.3</ele>
        <time>2026-08-20T12:19:29Z</time>
      </trkpt>
      <trkpt lat="47.60915" lon="-2.73011">
        <ele>6.4</ele>
        <time>2026-08-20T12:19:30Z</time>
      </trkpt>
      <trkpt lat="47.60916" lon="-2.73016">
        <ele>6.6</ele>
        <time>2026-08-20T12:19:31Z</time>
      </trkpt>
      <trkpt lat="47.60918" lon="-2.73022">
        <ele>6.8</ele>
        <time>2026-08-20T12:19:32Z</time>
      </trkpt>
      <trkpt lat="47.6092" lon="-2.73028">
        <ele>6.9</ele>
        <time>2026-08-20T12:19:33Z</time>
      </trkpt>
      <trkpt lat="47.60922" lon="-2.73034">
        <ele>6.9</ele>
        <time>2026-08-20T12:19:34Z</time>
      </trkpt>
      <trkpt lat="47.60924" lon="-2.7304">
        <ele>6.9</ele>
        <time>2026-08-20T12:19:35Z</time>
      </trkpt>
      <trkpt lat="47.60926" lon="-2.73046">
        <ele>6.9</ele>
        <time>2026-08-20T12:19:36Z</time>
      </trkpt>
      <trkpt lat="47.60928" lon="-2.73052">
        <ele>6.9</ele>
        <time>2026-08-20T12:19:37Z</time>
      </trkpt>
      <trkpt lat="47.60929" lon="-2.73058">
        <ele>7</ele>
        <time>2026-08-20T12:19:38Z</time>
      </trkpt>
      <trkpt lat="47.60931" lon="-2.73064">
        <ele>7.1</ele>
        <time>2026-08-20T12:19:39Z</time>
      </trkpt>
      <trkpt lat="47.60933" lon="-2.73071">
        <ele>7.2</ele>
        <time>2026-08-20T12:19:40Z</time>
      </trkpt>
      <trkpt lat="47.60935" lon="-2.73077">
        <ele>7.3</ele>
        <time>2026-08-20T12:19:41Z</time>
      </trkpt>
      <trkpt lat="47.60937" lon="-2.73083">
        <ele>7.3</ele>
        <time>2026-08-20T12:19:42Z</time>
      </trkpt>
      <trkpt lat="47.60939" lon="-2.7309">
        <ele>7.4</ele>
        <time>2026-08-20T12:19:43Z</time>
      </trkpt>
      <trkpt lat="47.60941" lon="-2.73096">
        <ele>7.5</ele>
        <time>2026-08-20T12:19:44Z</time>
      </trkpt>
      <trkpt lat="47.60943" lon="-2.73103">
        <ele>7.7</ele>
        <time>2026-08-20T12:19:45Z</time>
      </trkpt>
      <trkpt lat="47.60945" lon="-2.73109">
        <ele>7.9</ele>
        <time>2026-08-20T12:19:46Z</time>
      </trkpt>
      <trkpt lat="47.60947" lon="-2.73116">
        <ele>8.1</ele>
        <time>2026-08-20T12:19:47Z</time>
      </trkpt>
      <trkpt lat="47.60949" lon="-2.73122">
        <ele>8.2</ele>
        <time>2026-08-20T12:19:48Z</time>
      </trkpt>
      <trkpt lat="47.60951" lon="-2.73129">
        <ele>8.4</ele>
        <time>2026-08-20T12:19:49Z</time>
      </trkpt>
      <trkpt lat="47.60954" lon="-2.73136">
        <ele>8.6</ele>
        <time>2026-08-20T12:19:50Z</time>
      </trkpt>
      <trkpt lat="47.60956" lon="-2.73142">
        <ele>8.6</ele>
        <time>2026-08-20T12:19:51Z</time>
      </trkpt>
      <trkpt lat="47.60958" lon="-2.73149">
        <ele>8.5</ele>
        <time>2026-08-20T12:19:52Z</time>
      </trkpt>
      <trkpt lat="47.6096" lon="-2.73156">
        <ele>8.4</ele>
        <time>2026-08-20T12:19:53Z</time>
      </trkpt>
      <trkpt lat="47.60963" lon="-2.73162">
        <ele>8.3</ele>
        <time>2026-08-20T12:19:54Z</time>
      </trkpt>
      <trkpt lat="47.60965" lon="-2.73169">
        <ele>8.3</ele>
        <time>2026-08-20T12:19:55Z</time>
      </trkpt>
      <trkpt lat="47.60967" lon="-2.73175">
        <ele>8.2</ele>
        <time>2026-08-20T12:19:56Z</time>
      </trkpt>
      <trkpt lat="47.60969" lon="-2.73182">
        <ele>8.2</ele>
        <time>2026-08-20T12:19:57Z</time>
      </trkpt>
      <trkpt lat="47.60971" lon="-2.73189">
        <ele>8.1</ele>
        <time>2026-08-20T12:19:58Z</time>
      </trkpt>
      <trkpt lat="47.60973" lon="-2.73196">
        <ele>8</ele>
        <time>2026-08-20T12:19:59Z</time>
      </trkpt>
      <trkpt lat="47.60975" lon="-2.73203">
        <ele>8.2</ele>
        <time>2026-08-20T12:20:00Z</time>
      </trkpt>
      <trkpt lat="47.60977" lon="-2.73209">
        <ele>8.3</ele>
        <time>2026-08-20T12:20:01Z</time>
      </trkpt>
      <trkpt lat="47.60979" lon="-2.73216">
        <ele>8.3</ele>
        <time>2026-08-20T12:20:02Z</time>
      </trkpt>
      <trkpt lat="47.60981" lon="-2.73223">
        <ele>8.4</ele>
        <time>2026-08-20T12:20:03Z</time>
      </trkpt>
      <trkpt lat="47.60983" lon="-2.7323">
        <ele>8.3</ele>
        <time>2026-08-20T12:20:04Z</time>
      </trkpt>
      <trkpt lat="47.60985" lon="-2.73236">
        <ele>8.3</ele>
        <time>2026-08-20T12:20:05Z</time>
      </trkpt>
      <trkpt lat="47.60988" lon="-2.73243">
        <ele>8.3</ele>
        <time>2026-08-20T12:20:06Z</time>
      </trkpt>
      <trkpt lat="47.6099" lon="-2.7325">
        <ele>8.4</ele>
        <time>2026-08-20T12:20:07Z</time>
      </trkpt>
      <trkpt lat="47.60992" lon="-2.73257">
        <ele>8.4</ele>
        <time>2026-08-20T12:20:08Z</time>
      </trkpt>
      <trkpt lat="47.60994" lon="-2.73263">
        <ele>8.3</ele>
        <time>2026-08-20T12:20:09Z</time>
      </trkpt>
      <trkpt lat="47.60996" lon="-2.7327">
        <ele>8.2</ele>
        <time>2026-08-20T12:20:10Z</time>
      </trkpt>
      <trkpt lat="47.60998" lon="-2.73277">
        <ele>8.1</ele>
        <time>2026-08-20T12:20:11Z</time>
      </trkpt>
      <trkpt lat="47.61" lon="-2.73284">
        <ele>8.2</ele>
        <time>2026-08-20T12:20:12Z</time>
      </trkpt>
      <trkpt lat="47.61002" lon="-2.7329">
        <ele>8.4</ele>
        <time>2026-08-20T12:20:13Z</time>
      </trkpt>
      <trkpt lat="47.61004" lon="-2.73297">
        <ele>8.5</ele>
        <time>2026-08-20T12:20:14Z</time>
      </trkpt>
      <trkpt lat="47.61006" lon="-2.73304">
        <ele>8.7</ele>
        <time>2026-08-20T12:20:15Z</time>
      </trkpt>
      <trkpt lat="47.61008" lon="-2.73311">
        <ele>8.7</ele>
        <time>2026-08-20T12:20:16Z</time>
      </trkpt>
      <trkpt lat="47.6101" lon="-2.73318">
        <ele>8.6</ele>
        <time>2026-08-20T12:20:17Z</time>
      </trkpt>
      <trkpt lat="47.61011" lon="-2.73325">
        <ele>8.6</ele>
        <time>2026-08-20T12:20:18Z</time>
      </trkpt>
      <trkpt lat="47.61012" lon="-2.73332">
        <ele>8.6</ele>
        <time>2026-08-20T12:20:19Z</time>
      </trkpt>
      <trkpt lat="47.61013" lon="-2.73339">
        <ele>8.7</ele>
        <time>2026-08-20T12:20:20Z</time>
      </trkpt>
      <trkpt lat="47.61014" lon="-2.73347">
        <ele>9</ele>
        <time>2026-08-20T12:20:21Z</time>
      </trkpt>
      <trkpt lat="47.61015" lon="-2.73354">
        <ele>9.2</ele>
        <time>2026-08-20T12:20:22Z</time>
      </trkpt>
      <trkpt lat="47.61016" lon="-2.73361">
        <ele>9.4</ele>
        <time>2026-08-20T12:20:23Z</time>
      </trkpt>
      <trkpt lat="47.61017" lon="-2.73367">
        <ele>9.4</ele>
        <time>2026-08-20T12:20:24Z</time>
      </trkpt>
      <trkpt lat="47.61018" lon="-2.73373">
        <ele>9.4</ele>
        <time>2026-08-20T12:20:25Z</time>
      </trkpt>
      <trkpt lat="47.61019" lon="-2.73379">
        <ele>9.3</ele>
        <time>2026-08-20T12:20:26Z</time>
      </trkpt>
      <trkpt lat="47.61022" lon="-2.73385">
        <ele>9.2</ele>
        <time>2026-08-20T12:20:27Z</time>
      </trkpt>
      <trkpt lat="47.61024" lon="-2.73391">
        <ele>9.1</ele>
        <time>2026-08-20T12:20:28Z</time>
      </trkpt>
      <trkpt lat="47.61026" lon="-2.73396">
        <ele>9.1</ele>
        <time>2026-08-20T12:20:29Z</time>
      </trkpt>
      <trkpt lat="47.61029" lon="-2.73402">
        <ele>9</ele>
        <time>2026-08-20T12:20:30Z</time>
      </trkpt>
      <trkpt lat="47.61032" lon="-2.73408">
        <ele>8.8</ele>
        <time>2026-08-20T12:20:31Z</time>
      </trkpt>
      <trkpt lat="47.61034" lon="-2.73414">
        <ele>8.8</ele>
        <time>2026-08-20T12:20:32Z</time>
      </trkpt>
      <trkpt lat="47.61037" lon="-2.73419">
        <ele>8.7</ele>
        <time>2026-08-20T12:20:33Z</time>
      </trkpt>
      <trkpt lat="47.6104" lon="-2.73425">
        <ele>8.6</ele>
        <time>2026-08-20T12:20:34Z</time>
      </trkpt>
      <trkpt lat="47.61043" lon="-2.73432">
        <ele>8.5</ele>
        <time>2026-08-20T12:20:35Z</time>
      </trkpt>
      <trkpt lat="47.61046" lon="-2.73438">
        <ele>8.3</ele>
        <time>2026-08-20T12:20:36Z</time>
      </trkpt>
      <trkpt lat="47.61048" lon="-2.73444">
        <ele>8.3</ele>
        <time>2026-08-20T12:20:37Z</time>
      </trkpt>
      <trkpt lat="47.61051" lon="-2.7345">
        <ele>8.2</ele>
        <time>2026-08-20T12:20:38Z</time>
      </trkpt>
      <trkpt lat="47.61054" lon="-2.73456">
        <ele>8.1</ele>
        <time>2026-08-20T12:20:39Z</time>
      </trkpt>
      <trkpt lat="47.61056" lon="-2.73462">
        <ele>8</ele>
        <time>2026-08-20T12:20:40Z</time>
      </trkpt>
      <trkpt lat="47.61059" lon="-2.73468">
        <ele>7.9</ele>
        <time>2026-08-20T12:20:41Z</time>
      </trkpt>
      <trkpt lat="47.61062" lon="-2.73474">
        <ele>7.7</ele>
        <time>2026-08-20T12:20:42Z</time>
      </trkpt>
      <trkpt lat="47.61063" lon="-2.7348">
        <ele>7.5</ele>
        <time>2026-08-20T12:20:43Z</time>
      </trkpt>
      <trkpt lat="47.61063" lon="-2.73485">
        <ele>7.3</ele>
        <time>2026-08-20T12:20:44Z</time>
      </trkpt>
      <trkpt lat="47.61061" lon="-2.73488">
        <ele>7.2</ele>
        <time>2026-08-20T12:20:45Z</time>
      </trkpt>
      <trkpt lat="47.61059" lon="-2.7349">
        <ele>7.2</ele>
        <time>2026-08-20T12:20:46Z</time>
      </trkpt>
      <trkpt lat="47.61057" lon="-2.73491">
        <ele>7.3</ele>
        <time>2026-08-20T12:20:47Z</time>
      </trkpt>
      <trkpt lat="47.61055" lon="-2.73492">
        <ele>7.3</ele>
        <time>2026-08-20T12:20:48Z</time>
      </trkpt>
      <trkpt lat="47.61054" lon="-2.73492">
        <ele>7.3</ele>
        <time>2026-08-20T12:20:49Z</time>
      </trkpt>
      <trkpt lat="47.61053" lon="-2.73492">
        <ele>7.4</ele>
        <time>2026-08-20T12:20:50Z</time>
      </trkpt>
      <trkpt lat="47.61051" lon="-2.73494">
        <ele>7.4</ele>
        <time>2026-08-20T12:20:51Z</time>
      </trkpt>
      <trkpt lat="47.61051" lon="-2.73496">
        <ele>7.3</ele>
        <time>2026-08-20T12:20:52Z</time>
      </trkpt>
      <trkpt lat="47.61049" lon="-2.73499">
        <ele>7.3</ele>
        <time>2026-08-20T12:20:53Z</time>
      </trkpt>
      <trkpt lat="47.61047" lon="-2.73501">
        <ele>7.3</ele>
        <time>2026-08-20T12:20:54Z</time>
      </trkpt>
      <trkpt lat="47.61045" lon="-2.73504">
        <ele>7.4</ele>
        <time>2026-08-20T12:20:55Z</time>
      </trkpt>
      <trkpt lat="47.61042" lon="-2.73506">
        <ele>7.5</ele>
        <time>2026-08-20T12:20:56Z</time>
      </trkpt>
      <trkpt lat="47.61039" lon="-2.73509">
        <ele>7.6</ele>
        <time>2026-08-20T12:20:57Z</time>
      </trkpt>
      <trkpt lat="47.61036" lon="-2.73512">
        <ele>7.7</ele>
        <time>2026-08-20T12:20:58Z</time>
      </trkpt>
      <trkpt lat="47.61033" lon="-2.73515">
        <ele>7.8</ele>
        <time>2026-08-20T12:20:59Z</time>
      </trkpt>
      <trkpt lat="47.6103" lon="-2.73518">
        <ele>7.9</ele>
        <time>2026-08-20T12:21:00Z</time>
      </trkpt>
      <trkpt lat="47.61027" lon="-2.73522">
        <ele>8</ele>
        <time>2026-08-20T12:21:01Z</time>
      </trkpt>
      <trkpt lat="47.61024" lon="-2.73525">
        <ele>8.1</ele>
        <time>2026-08-20T12:21:02Z</time>
      </trkpt>
      <trkpt lat="47.6102" lon="-2.73528">
        <ele>8.3</ele>
        <time>2026-08-20T12:21:03Z</time>
      </trkpt>
      <trkpt lat="47.61017" lon="-2.73531">
        <ele>8.3</ele>
        <time>2026-08-20T12:21:04Z</time>
      </trkpt>
      <trkpt lat="47.61015" lon="-2.73535">
        <ele>8.3</ele>
        <time>2026-08-20T12:21:05Z</time>
      </trkpt>
      <trkpt lat="47.61013" lon="-2.73539">
        <ele>8.3</ele>
        <time>2026-08-20T12:21:06Z</time>
      </trkpt>
      <trkpt lat="47.61012" lon="-2.73543">
        <ele>8.3</ele>
        <time>2026-08-20T12:21:07Z</time>
      </trkpt>
      <trkpt lat="47.61012" lon="-2.73547">
        <ele>8.2</ele>
        <time>2026-08-20T12:21:08Z</time>
      </trkpt>
      <trkpt lat="47.61013" lon="-2.73551">
        <ele>8.1</ele>
        <time>2026-08-20T12:21:09Z</time>
      </trkpt>
      <trkpt lat="47.61014" lon="-2.73555">
        <ele>8</ele>
        <time>2026-08-20T12:21:10Z</time>
      </trkpt>
      <trkpt lat="47.61014" lon="-2.7356">
        <ele>8</ele>
        <time>2026-08-20T12:21:11Z</time>
      </trkpt>
      <trkpt lat="47.61014" lon="-2.73565">
        <ele>8</ele>
        <time>2026-08-20T12:21:12Z</time>
      </trkpt>
      <trkpt lat="47.61014" lon="-2.7357">
        <ele>8</ele>
        <time>2026-08-20T12:21:13Z</time>
      </trkpt>
      <trkpt lat="47.61015" lon="-2.73576">
        <ele>8</ele>
        <time>2026-08-20T12:21:14Z</time>
      </trkpt>
      <trkpt lat="47.61016" lon="-2.73581">
        <ele>8</ele>
        <time>2026-08-20T12:21:15Z</time>
      </trkpt>
      <trkpt lat="47.61017" lon="-2.73587">
        <ele>8.1</ele>
        <time>2026-08-20T12:21:16Z</time>
      </trkpt>
      <trkpt lat="47.61019" lon="-2.73593">
        <ele>8.1</ele>
        <time>2026-08-20T12:21:17Z</time>
      </trkpt>
      <trkpt lat="47.61022" lon="-2.73598">
        <ele>8.1</ele>
        <time>2026-08-20T12:21:18Z</time>
      </trkpt>
      <trkpt lat="47.61024" lon="-2.73604">
        <ele>8.1</ele>
        <time>2026-08-20T12:21:19Z</time>
      </trkpt>
      <trkpt lat="47.61026" lon="-2.7361">
        <ele>8.1</ele>
        <time>2026-08-20T12:21:20Z</time>
      </trkpt>
      <trkpt lat="47.61029" lon="-2.73615">
        <ele>8.1</ele>
        <time>2026-08-20T12:21:21Z</time>
      </trkpt>
      <trkpt lat="47.61032" lon="-2.73621">
        <ele>8.3</ele>
        <time>2026-08-20T12:21:22Z</time>
      </trkpt>
      <trkpt lat="47.61035" lon="-2.73627">
        <ele>8.4</ele>
        <time>2026-08-20T12:21:23Z</time>
      </trkpt>
      <trkpt lat="47.61037" lon="-2.73633">
        <ele>8.5</ele>
        <time>2026-08-20T12:21:24Z</time>
      </trkpt>
      <trkpt lat="47.6104" lon="-2.73639">
        <ele>8.6</ele>
        <time>2026-08-20T12:21:25Z</time>
      </trkpt>
      <trkpt lat="47.61043" lon="-2.73645">
        <ele>8.6</ele>
        <time>2026-08-20T12:21:26Z</time>
      </trkpt>
      <trkpt lat="47.61046" lon="-2.7365">
        <ele>8.6</ele>
        <time>2026-08-20T12:21:27Z</time>
      </trkpt>
      <trkpt lat="47.61048" lon="-2.73656">
        <ele>8.7</ele>
        <time>2026-08-20T12:21:28Z</time>
      </trkpt>
      <trkpt lat="47.61051" lon="-2.73661">
        <ele>8.8</ele>
        <time>2026-08-20T12:21:29Z</time>
      </trkpt>
      <trkpt lat="47.61053" lon="-2.73667">
        <ele>9</ele>
        <time>2026-08-20T12:21:30Z</time>
      </trkpt>
      <trkpt lat="47.61055" lon="-2.73672">
        <ele>9.2</ele>
        <time>2026-08-20T12:21:31Z</time>
      </trkpt>
      <trkpt lat="47.61058" lon="-2.73678">
        <ele>9.4</ele>
        <time>2026-08-20T12:21:32Z</time>
      </trkpt>
      <trkpt lat="47.6106" lon="-2.73683">
        <ele>9.6</ele>
        <time>2026-08-20T12:21:33Z</time>
      </trkpt>
      <trkpt lat="47.61062" lon="-2.73688">
        <ele>9.8</ele>
        <time>2026-08-20T12:21:34Z</time>
      </trkpt>
      <trkpt lat="47.61065" lon="-2.73693">
        <ele>9.9</ele>
        <time>2026-08-20T12:21:35Z</time>
      </trkpt>
      <trkpt lat="47.61067" lon="-2.73698">
        <ele>10.1</ele>
        <time>2026-08-20T12:21:36Z</time>
      </trkpt>
      <trkpt lat="47.61069" lon="-2.73702">
        <ele>10.3</ele>
        <time>2026-08-20T12:21:37Z</time>
      </trkpt>
      <trkpt lat="47.61071" lon="-2.73707">
        <ele>10.5</ele>
        <time>2026-08-20T12:21:38Z</time>
      </trkpt>
      <trkpt lat="47.61073" lon="-2.73712">
        <ele>10.6</ele>
        <time>2026-08-20T12:21:39Z</time>
      </trkpt>
      <trkpt lat="47.61075" lon="-2.73717">
        <ele>10.8</ele>
        <time>2026-08-20T12:21:40Z</time>
      </trkpt>
      <trkpt lat="47.61077" lon="-2.73721">
        <ele>11</ele>
        <time>2026-08-20T12:21:41Z</time>
      </trkpt>
      <trkpt lat="47.61078" lon="-2.73726">
        <ele>11.1</ele>
        <time>2026-08-20T12:21:42Z</time>
      </trkpt>
      <trkpt lat="47.6108" lon="-2.73731">
        <ele>11.3</ele>
        <time>2026-08-20T12:21:43Z</time>
      </trkpt>
      <trkpt lat="47.61081" lon="-2.73736">
        <ele>11.5</ele>
        <time>2026-08-20T12:21:44Z</time>
      </trkpt>
      <trkpt lat="47.61083" lon="-2.73741">
        <ele>11.7</ele>
        <time>2026-08-20T12:21:45Z</time>
      </trkpt>
      <trkpt lat="47.61084" lon="-2.73746">
        <ele>11.8</ele>
        <time>2026-08-20T12:21:46Z</time>
      </trkpt>
      <trkpt lat="47.61085" lon="-2.73751">
        <ele>12</ele>
        <time>2026-08-20T12:21:47Z</time>
      </trkpt>
      <trkpt lat="47.61086" lon="-2.73756">
        <ele>12.1</ele>
        <time>2026-08-20T12:21:48Z</time>
      </trkpt>
      <trkpt lat="47.61088" lon="-2.73761">
        <ele>12.2</ele>
        <time>2026-08-20T12:21:49Z</time>
      </trkpt>
      <trkpt lat="47.61089" lon="-2.73766">
        <ele>12.4</ele>
        <time>2026-08-20T12:21:50Z</time>
      </trkpt>
      <trkpt lat="47.61091" lon="-2.73771">
        <ele>12.5</ele>
        <time>2026-08-20T12:21:51Z</time>
      </trkpt>
      <trkpt lat="47.61092" lon="-2.73775">
        <ele>12.6</ele>
        <time>2026-08-20T12:21:52Z</time>
      </trkpt>
      <trkpt lat="47.61094" lon="-2.7378">
        <ele>12.7</ele>
        <time>2026-08-20T12:21:53Z</time>
      </trkpt>
      <trkpt lat="47.61095" lon="-2.73784">
        <ele>12.8</ele>
        <time>2026-08-20T12:21:54Z</time>
      </trkpt>
      <trkpt lat="47.61097" lon="-2.73789">
        <ele>12.9</ele>
        <time>2026-08-20T12:21:55Z</time>
      </trkpt>
      <trkpt lat="47.61098" lon="-2.73794">
        <ele>13.1</ele>
        <time>2026-08-20T12:21:56Z</time>
      </trkpt>
      <trkpt lat="47.61099" lon="-2.73799">
        <ele>13.2</ele>
        <time>2026-08-20T12:21:57Z</time>
      </trkpt>
      <trkpt lat="47.611" lon="-2.73804">
        <ele>13.3</ele>
        <time>2026-08-20T12:21:58Z</time>
      </trkpt>
      <trkpt lat="47.61102" lon="-2.73809">
        <ele>13.5</ele>
        <time>2026-08-20T12:21:59Z</time>
      </trkpt>
      <trkpt lat="47.61103" lon="-2.73814">
        <ele>13.8</ele>
        <time>2026-08-20T12:22:00Z</time>
      </trkpt>
      <trkpt lat="47.61105" lon="-2.73818">
        <ele>14</ele>
        <time>2026-08-20T12:22:01Z</time>
      </trkpt>
      <trkpt lat="47.61106" lon="-2.73823">
        <ele>14.3</ele>
        <time>2026-08-20T12:22:02Z</time>
      </trkpt>
      <trkpt lat="47.61107" lon="-2.73828">
        <ele>14.6</ele>
        <time>2026-08-20T12:22:03Z</time>
      </trkpt>
      <trkpt lat="47.61109" lon="-2.73833">
        <ele>15</ele>
        <time>2026-08-20T12:22:04Z</time>
      </trkpt>
      <trkpt lat="47.6111" lon="-2.73838">
        <ele>15.2</ele>
        <time>2026-08-20T12:22:05Z</time>
      </trkpt>
      <trkpt lat="47.61111" lon="-2.73843">
        <ele>15.3</ele>
        <time>2026-08-20T12:22:06Z</time>
      </trkpt>
      <trkpt lat="47.61113" lon="-2.73847">
        <ele>15.4</ele>
        <time>2026-08-20T12:22:07Z</time>
      </trkpt>
      <trkpt lat="47.61114" lon="-2.73852">
        <ele>15.5</ele>
        <time>2026-08-20T12:22:08Z</time>
      </trkpt>
      <trkpt lat="47.61115" lon="-2.73858">
        <ele>15.6</ele>
        <time>2026-08-20T12:22:09Z</time>
      </trkpt>
      <trkpt lat="47.61116" lon="-2.73863">
        <ele>15.7</ele>
        <time>2026-08-20T12:22:10Z</time>
      </trkpt>
      <trkpt lat="47.61118" lon="-2.73868">
        <ele>15.6</ele>
        <time>2026-08-20T12:22:11Z</time>
      </trkpt>
      <trkpt lat="47.61119" lon="-2.73873">
        <ele>15.6</ele>
        <time>2026-08-20T12:22:12Z</time>
      </trkpt>
      <trkpt lat="47.61119" lon="-2.73878">
        <ele>15.6</ele>
        <time>2026-08-20T12:22:13Z</time>
      </trkpt>
      <trkpt lat="47.6112" lon="-2.73883">
        <ele>15.6</ele>
        <time>2026-08-20T12:22:14Z</time>
      </trkpt>
      <trkpt lat="47.61121" lon="-2.73889">
        <ele>15.6</ele>
        <time>2026-08-20T12:22:15Z</time>
      </trkpt>
      <trkpt lat="47.61122" lon="-2.73894">
        <ele>15.8</ele>
        <time>2026-08-20T12:22:16Z</time>
      </trkpt>
      <trkpt lat="47.61123" lon="-2.73899">
        <ele>15.9</ele>
        <time>2026-08-20T12:22:17Z</time>
      </trkpt>
      <trkpt lat="47.61124" lon="-2.73905">
        <ele>16.1</ele>
        <time>2026-08-20T12:22:18Z</time>
      </trkpt>
      <trkpt lat="47.61125" lon="-2.7391">
        <ele>16.3</ele>
        <time>2026-08-20T12:22:19Z</time>
      </trkpt>
      <trkpt lat="47.61126" lon="-2.73916">
        <ele>16.4</ele>
        <time>2026-08-20T12:22:20Z</time>
      </trkpt>
      <trkpt lat="47.61127" lon="-2.73922">
        <ele>16.3</ele>
        <time>2026-08-20T12:22:21Z</time>
      </trkpt>
      <trkpt lat="47.61128" lon="-2.73928">
        <ele>16.2</ele>
        <time>2026-08-20T12:22:22Z</time>
      </trkpt>
      <trkpt lat="47.61129" lon="-2.73934">
        <ele>16.1</ele>
        <time>2026-08-20T12:22:23Z</time>
      </trkpt>
      <trkpt lat="47.61131" lon="-2.7394">
        <ele>16</ele>
        <time>2026-08-20T12:22:24Z</time>
      </trkpt>
      <trkpt lat="47.61133" lon="-2.73946">
        <ele>15.9</ele>
        <time>2026-08-20T12:22:25Z</time>
      </trkpt>
      <trkpt lat="47.61135" lon="-2.73951">
        <ele>15.8</ele>
        <time>2026-08-20T12:22:26Z</time>
      </trkpt>
      <trkpt lat="47.61137" lon="-2.73957">
        <ele>15.5</ele>
        <time>2026-08-20T12:22:27Z</time>
      </trkpt>
      <trkpt lat="47.61139" lon="-2.73962">
        <ele>15.4</ele>
        <time>2026-08-20T12:22:28Z</time>
      </trkpt>
      <trkpt lat="47.61142" lon="-2.73967">
        <ele>15.2</ele>
        <time>2026-08-20T12:22:29Z</time>
      </trkpt>
      <trkpt lat="47.61144" lon="-2.73973">
        <ele>15</ele>
        <time>2026-08-20T12:22:30Z</time>
      </trkpt>
      <trkpt lat="47.61147" lon="-2.73978">
        <ele>15</ele>
        <time>2026-08-20T12:22:31Z</time>
      </trkpt>
      <trkpt lat="47.6115" lon="-2.73983">
        <ele>15</ele>
        <time>2026-08-20T12:22:32Z</time>
      </trkpt>
      <trkpt lat="47.61153" lon="-2.73989">
        <ele>15</ele>
        <time>2026-08-20T12:22:33Z</time>
      </trkpt>
      <trkpt lat="47.61155" lon="-2.73994">
        <ele>15</ele>
        <time>2026-08-20T12:22:34Z</time>
      </trkpt>
      <trkpt lat="47.61158" lon="-2.73999">
        <ele>15</ele>
        <time>2026-08-20T12:22:35Z</time>
      </trkpt>
      <trkpt lat="47.6116" lon="-2.74005">
        <ele>15</ele>
        <time>2026-08-20T12:22:36Z</time>
      </trkpt>
      <trkpt lat="47.61162" lon="-2.7401">
        <ele>15</ele>
        <time>2026-08-20T12:22:37Z</time>
      </trkpt>
      <trkpt lat="47.61165" lon="-2.74016">
        <ele>15</ele>
        <time>2026-08-20T12:22:38Z</time>
      </trkpt>
      <trkpt lat="47.61167" lon="-2.74022">
        <ele>15</ele>
        <time>2026-08-20T12:22:39Z</time>
      </trkpt>
      <trkpt lat="47.61169" lon="-2.74028">
        <ele>15</ele>
        <time>2026-08-20T12:22:40Z</time>
      </trkpt>
      <trkpt lat="47.61171" lon="-2.74034">
        <ele>15</ele>
        <time>2026-08-20T12:22:41Z</time>
      </trkpt>
      <trkpt lat="47.61173" lon="-2.7404">
        <ele>14.9</ele>
        <time>2026-08-20T12:22:42Z</time>
      </trkpt>
      <trkpt lat="47.61175" lon="-2.74046">
        <ele>14.8</ele>
        <time>2026-08-20T12:22:43Z</time>
      </trkpt>
      <trkpt lat="47.61177" lon="-2.74052">
        <ele>14.7</ele>
        <time>2026-08-20T12:22:44Z</time>
      </trkpt>
      <trkpt lat="47.61179" lon="-2.74056">
        <ele>14.5</ele>
        <time>2026-08-20T12:22:45Z</time>
      </trkpt>
      <trkpt lat="47.61182" lon="-2.74061">
        <ele>14.4</ele>
        <time>2026-08-20T12:22:46Z</time>
      </trkpt>
      <trkpt lat="47.61185" lon="-2.74064">
        <ele>14.2</ele>
        <time>2026-08-20T12:22:47Z</time>
      </trkpt>
      <trkpt lat="47.61187" lon="-2.74066">
        <ele>14.2</ele>
        <time>2026-08-20T12:22:48Z</time>
      </trkpt>
      <trkpt lat="47.6119" lon="-2.74069">
        <ele>14.1</ele>
        <time>2026-08-20T12:22:49Z</time>
      </trkpt>
      <trkpt lat="47.61192" lon="-2.74071">
        <ele>14</ele>
        <time>2026-08-20T12:22:50Z</time>
      </trkpt>
      <trkpt lat="47.61194" lon="-2.74073">
        <ele>14</ele>
        <time>2026-08-20T12:22:51Z</time>
      </trkpt>
      <trkpt lat="47.61197" lon="-2.74076">
        <ele>14</ele>
        <time>2026-08-20T12:22:52Z</time>
      </trkpt>
      <trkpt lat="47.612" lon="-2.74078">
        <ele>14</ele>
        <time>2026-08-20T12:22:53Z</time>
      </trkpt>
      <trkpt lat="47.61204" lon="-2.7408">
        <ele>14</ele>
        <time>2026-08-20T12:22:54Z</time>
      </trkpt>
      <trkpt lat="47.61208" lon="-2.74082">
        <ele>14</ele>
        <time>2026-08-20T12:22:55Z</time>
      </trkpt>
      <trkpt lat="47.61212" lon="-2.74084">
        <ele>14</ele>
        <time>2026-08-20T12:22:56Z</time>
      </trkpt>
      <trkpt lat="47.61215" lon="-2.74086">
        <ele>14</ele>
        <time>2026-08-20T12:22:57Z</time>
      </trkpt>
      <trkpt lat="47.61219" lon="-2.74088">
        <ele>14</ele>
        <time>2026-08-20T12:22:58Z</time>
      </trkpt>
      <trkpt lat="47.61223" lon="-2.74089">
        <ele>13.9</ele>
        <time>2026-08-20T12:22:59Z</time>
      </trkpt>
      <trkpt lat="47.61227" lon="-2.7409">
        <ele>13.4</ele>
        <time>2026-08-20T12:23:00Z</time>
      </trkpt>
      <trkpt lat="47.61231" lon="-2.74092">
        <ele>13</ele>
        <time>2026-08-20T12:23:01Z</time>
      </trkpt>
      <trkpt lat="47.61235" lon="-2.74096">
        <ele>12.4</ele>
        <time>2026-08-20T12:23:02Z</time>
      </trkpt>
      <trkpt lat="47.61238" lon="-2.74101">
        <ele>11.9</ele>
        <time>2026-08-20T12:23:03Z</time>
      </trkpt>
      <trkpt lat="47.61241" lon="-2.74107">
        <ele>11.4</ele>
        <time>2026-08-20T12:23:04Z</time>
      </trkpt>
      <trkpt lat="47.61243" lon="-2.74114">
        <ele>11.1</ele>
        <time>2026-08-20T12:23:05Z</time>
      </trkpt>
      <trkpt lat="47.61244" lon="-2.74121">
        <ele>11.1</ele>
        <time>2026-08-20T12:23:06Z</time>
      </trkpt>
      <trkpt lat="47.61245" lon="-2.74128">
        <ele>11.1</ele>
        <time>2026-08-20T12:23:07Z</time>
      </trkpt>
      <trkpt lat="47.61246" lon="-2.74135">
        <ele>11.2</ele>
        <time>2026-08-20T12:23:08Z</time>
      </trkpt>
      <trkpt lat="47.61246" lon="-2.74141">
        <ele>11.4</ele>
        <time>2026-08-20T12:23:09Z</time>
      </trkpt>
      <trkpt lat="47.61246" lon="-2.74148">
        <ele>11.6</ele>
        <time>2026-08-20T12:23:10Z</time>
      </trkpt>
      <trkpt lat="47.61247" lon="-2.74154">
        <ele>11.7</ele>
        <time>2026-08-20T12:23:11Z</time>
      </trkpt>
      <trkpt lat="47.61247" lon="-2.74161">
        <ele>11.9</ele>
        <time>2026-08-20T12:23:12Z</time>
      </trkpt>
      <trkpt lat="47.61247" lon="-2.74168">
        <ele>12.1</ele>
        <time>2026-08-20T12:23:13Z</time>
      </trkpt>
      <trkpt lat="47.61247" lon="-2.74174">
        <ele>12.1</ele>
        <time>2026-08-20T12:23:14Z</time>
      </trkpt>
      <trkpt lat="47.61247" lon="-2.74181">
        <ele>12.1</ele>
        <time>2026-08-20T12:23:15Z</time>
      </trkpt>
      <trkpt lat="47.61247" lon="-2.74187">
        <ele>12.1</ele>
        <time>2026-08-20T12:23:16Z</time>
      </trkpt>
      <trkpt lat="47.61247" lon="-2.74194">
        <ele>12.1</ele>
        <time>2026-08-20T12:23:17Z</time>
      </trkpt>
      <trkpt lat="47.61247" lon="-2.74201">
        <ele>12.1</ele>
        <time>2026-08-20T12:23:18Z</time>
      </trkpt>
      <trkpt lat="47.61246" lon="-2.74207">
        <ele>12.1</ele>
        <time>2026-08-20T12:23:19Z</time>
      </trkpt>
      <trkpt lat="47.61246" lon="-2.74214">
        <ele>12.1</ele>
        <time>2026-08-20T12:23:20Z</time>
      </trkpt>
      <trkpt lat="47.61246" lon="-2.74221">
        <ele>12.1</ele>
        <time>2026-08-20T12:23:21Z</time>
      </trkpt>
      <trkpt lat="47.61245" lon="-2.74228">
        <ele>12</ele>
        <time>2026-08-20T12:23:22Z</time>
      </trkpt>
      <trkpt lat="47.61246" lon="-2.74236">
        <ele>11.6</ele>
        <time>2026-08-20T12:23:23Z</time>
      </trkpt>
      <trkpt lat="47.61246" lon="-2.74243">
        <ele>11.4</ele>
        <time>2026-08-20T12:23:24Z</time>
      </trkpt>
      <trkpt lat="47.61247" lon="-2.74251">
        <ele>11.1</ele>
        <time>2026-08-20T12:23:25Z</time>
      </trkpt>
      <trkpt lat="47.61248" lon="-2.74259">
        <ele>11</ele>
        <time>2026-08-20T12:23:26Z</time>
      </trkpt>
      <trkpt lat="47.61249" lon="-2.74267">
        <ele>11</ele>
        <time>2026-08-20T12:23:27Z</time>
      </trkpt>
      <trkpt lat="47.61251" lon="-2.74275">
        <ele>11</ele>
        <time>2026-08-20T12:23:28Z</time>
      </trkpt>
      <trkpt lat="47.61253" lon="-2.74282">
        <ele>10.7</ele>
        <time>2026-08-20T12:23:29Z</time>
      </trkpt>
      <trkpt lat="47.61255" lon="-2.74291">
        <ele>10.3</ele>
        <time>2026-08-20T12:23:30Z</time>
      </trkpt>
      <trkpt lat="47.61257" lon="-2.74299">
        <ele>10</ele>
        <time>2026-08-20T12:23:31Z</time>
      </trkpt>
      <trkpt lat="47.61259" lon="-2.74308">
        <ele>9.6</ele>
        <time>2026-08-20T12:23:32Z</time>
      </trkpt>
      <trkpt lat="47.6126" lon="-2.74318">
        <ele>9.2</ele>
        <time>2026-08-20T12:23:33Z</time>
      </trkpt>
      <trkpt lat="47.6126" lon="-2.74327">
        <ele>8.9</ele>
        <time>2026-08-20T12:23:34Z</time>
      </trkpt>
      <trkpt lat="47.6126" lon="-2.74337">
        <ele>8.6</ele>
        <time>2026-08-20T12:23:35Z</time>
      </trkpt>
      <trkpt lat="47.6126" lon="-2.74347">
        <ele>8.3</ele>
        <time>2026-08-20T12:23:36Z</time>
      </trkpt>
      <trkpt lat="47.6126" lon="-2.74357">
        <ele>8.1</ele>
        <time>2026-08-20T12:23:37Z</time>
      </trkpt>
      <trkpt lat="47.61259" lon="-2.74368">
        <ele>8.1</ele>
        <time>2026-08-20T12:23:38Z</time>
      </trkpt>
      <trkpt lat="47.61259" lon="-2.74378">
        <ele>8.2</ele>
        <time>2026-08-20T12:23:39Z</time>
      </trkpt>
      <trkpt lat="47.61258" lon="-2.74389">
        <ele>8.3</ele>
        <time>2026-08-20T12:23:40Z</time>
      </trkpt>
      <trkpt lat="47.61257" lon="-2.74399">
        <ele>8.3</ele>
        <time>2026-08-20T12:23:41Z</time>
      </trkpt>
      <trkpt lat="47.61256" lon="-2.74408">
        <ele>8.2</ele>
        <time>2026-08-20T12:23:42Z</time>
      </trkpt>
      <trkpt lat="47.61255" lon="-2.74418">
        <ele>8.2</ele>
        <time>2026-08-20T12:23:43Z</time>
      </trkpt>
      <trkpt lat="47.61255" lon="-2.74427">
        <ele>8.2</ele>
        <time>2026-08-20T12:23:44Z</time>
      </trkpt>
      <trkpt lat="47.61255" lon="-2.74435">
        <ele>8.2</ele>
        <time>2026-08-20T12:23:45Z</time>
      </trkpt>
      <trkpt lat="47.61257" lon="-2.7444">
        <ele>8.3</ele>
        <time>2026-08-20T12:23:46Z</time>
      </trkpt>
      <trkpt lat="47.6126" lon="-2.74443">
        <ele>8.4</ele>
        <time>2026-08-20T12:23:47Z</time>
      </trkpt>
      <trkpt lat="47.61264" lon="-2.74444">
        <ele>8.5</ele>
        <time>2026-08-20T12:23:48Z</time>
      </trkpt>
      <trkpt lat="47.61267" lon="-2.74443">
        <ele>8.6</ele>
        <time>2026-08-20T12:23:49Z</time>
      </trkpt>
      <trkpt lat="47.61271" lon="-2.74442">
        <ele>8.8</ele>
        <time>2026-08-20T12:23:50Z</time>
      </trkpt>
      <trkpt lat="47.61276" lon="-2.74441">
        <ele>8.9</ele>
        <time>2026-08-20T12:23:51Z</time>
      </trkpt>
      <trkpt lat="47.6128" lon="-2.7444">
        <ele>9</ele>
        <time>2026-08-20T12:23:52Z</time>
      </trkpt>
      <trkpt lat="47.61285" lon="-2.74439">
        <ele>9</ele>
        <time>2026-08-20T12:23:53Z</time>
      </trkpt>
      <trkpt lat="47.61289" lon="-2.74438">
        <ele>9</ele>
        <time>2026-08-20T12:23:54Z</time>
      </trkpt>
      <trkpt lat="47.61294" lon="-2.74437">
        <ele>9</ele>
        <time>2026-08-20T12:23:55Z</time>
      </trkpt>
      <trkpt lat="47.61299" lon="-2.74436">
        <ele>9</ele>
        <time>2026-08-20T12:23:56Z</time>
      </trkpt>
      <trkpt lat="47.61304" lon="-2.74434">
        <ele>9</ele>
        <time>2026-08-20T12:23:57Z</time>
      </trkpt>
      <trkpt lat="47.61309" lon="-2.74433">
        <ele>8.9</ele>
        <time>2026-08-20T12:23:58Z</time>
      </trkpt>
      <trkpt lat="47.61313" lon="-2.74433">
        <ele>8.7</ele>
        <time>2026-08-20T12:23:59Z</time>
      </trkpt>
      <trkpt lat="47.61318" lon="-2.74432">
        <ele>8.6</ele>
        <time>2026-08-20T12:24:00Z</time>
      </trkpt>
      <trkpt lat="47.61323" lon="-2.74431">
        <ele>8.4</ele>
        <time>2026-08-20T12:24:01Z</time>
      </trkpt>
      <trkpt lat="47.61328" lon="-2.7443">
        <ele>8.2</ele>
        <time>2026-08-20T12:24:02Z</time>
      </trkpt>
      <trkpt lat="47.61333" lon="-2.7443">
        <ele>8</ele>
        <time>2026-08-20T12:24:03Z</time>
      </trkpt>
      <trkpt lat="47.61339" lon="-2.74429">
        <ele>7.7</ele>
        <time>2026-08-20T12:24:04Z</time>
      </trkpt>
      <trkpt lat="47.61344" lon="-2.74428">
        <ele>7.4</ele>
        <time>2026-08-20T12:24:05Z</time>
      </trkpt>
      <trkpt lat="47.6135" lon="-2.74428">
        <ele>7</ele>
        <time>2026-08-20T12:24:06Z</time>
      </trkpt>
      <trkpt lat="47.61356" lon="-2.74427">
        <ele>6.7</ele>
        <time>2026-08-20T12:24:07Z</time>
      </trkpt>
      <trkpt lat="47.61361" lon="-2.74426">
        <ele>6.3</ele>
        <time>2026-08-20T12:24:08Z</time>
      </trkpt>
      <trkpt lat="47.61367" lon="-2.74425">
        <ele>5.9</ele>
        <time>2026-08-20T12:24:09Z</time>
      </trkpt>
      <trkpt lat="47.61371" lon="-2.74424">
        <ele>5.6</ele>
        <time>2026-08-20T12:24:10Z</time>
      </trkpt>
      <trkpt lat="47.61375" lon="-2.74423">
        <ele>5.2</ele>
        <time>2026-08-20T12:24:11Z</time>
      </trkpt>
      <trkpt lat="47.61378" lon="-2.74422">
        <ele>5</ele>
        <time>2026-08-20T12:24:12Z</time>
      </trkpt>
      <trkpt lat="47.6138" lon="-2.7442">
        <ele>4.8</ele>
        <time>2026-08-20T12:24:13Z</time>
      </trkpt>
      <trkpt lat="47.61383" lon="-2.74419">
        <ele>4.5</ele>
        <time>2026-08-20T12:24:14Z</time>
      </trkpt>
      <trkpt lat="47.61384" lon="-2.74418">
        <ele>4.4</ele>
        <time>2026-08-20T12:24:15Z</time>
      </trkpt>
      <trkpt lat="47.61386" lon="-2.74417">
        <ele>4.2</ele>
        <time>2026-08-20T12:24:16Z</time>
      </trkpt>
      <trkpt lat="47.61387" lon="-2.74416">
        <ele>4.1</ele>
        <time>2026-08-20T12:24:17Z</time>
      </trkpt>
      <trkpt lat="47.6139" lon="-2.74415">
        <ele>4</ele>
        <time>2026-08-20T12:24:18Z</time>
      </trkpt>
      <trkpt lat="47.61392" lon="-2.74416">
        <ele>3.9</ele>
        <time>2026-08-20T12:24:19Z</time>
      </trkpt>
      <trkpt lat="47.61393" lon="-2.74417">
        <ele>3.9</ele>
        <time>2026-08-20T12:24:20Z</time>
      </trkpt>
      <trkpt lat="47.61394" lon="-2.74419">
        <ele>3.9</ele>
        <time>2026-08-20T12:24:21Z</time>
      </trkpt>
      <trkpt lat="47.61395" lon="-2.74422">
        <ele>4</ele>
        <time>2026-08-20T12:24:22Z</time>
      </trkpt>
      <trkpt lat="47.61395" lon="-2.74426">
        <ele>4.1</ele>
        <time>2026-08-20T12:24:23Z</time>
      </trkpt>
      <trkpt lat="47.61396" lon="-2.7443">
        <ele>4.2</ele>
        <time>2026-08-20T12:24:24Z</time>
      </trkpt>
      <trkpt lat="47.61396" lon="-2.74434">
        <ele>4.4</ele>
        <time>2026-08-20T12:24:25Z</time>
      </trkpt>
      <trkpt lat="47.61396" lon="-2.74439">
        <ele>4.5</ele>
        <time>2026-08-20T12:24:26Z</time>
      </trkpt>
      <trkpt lat="47.61396" lon="-2.74444">
        <ele>4.7</ele>
        <time>2026-08-20T12:24:27Z</time>
      </trkpt>
      <trkpt lat="47.61396" lon="-2.7445">
        <ele>4.7</ele>
        <time>2026-08-20T12:24:28Z</time>
      </trkpt>
      <trkpt lat="47.61396" lon="-2.74455">
        <ele>4.7</ele>
        <time>2026-08-20T12:24:29Z</time>
      </trkpt>
      <trkpt lat="47.61396" lon="-2.74461">
        <ele>4.7</ele>
        <time>2026-08-20T12:24:30Z</time>
      </trkpt>
      <trkpt lat="47.61396" lon="-2.74467">
        <ele>4.7</ele>
        <time>2026-08-20T12:24:31Z</time>
      </trkpt>
      <trkpt lat="47.61396" lon="-2.74473">
        <ele>4.8</ele>
        <time>2026-08-20T12:24:32Z</time>
      </trkpt>
      <trkpt lat="47.61396" lon="-2.74479">
        <ele>5</ele>
        <time>2026-08-20T12:24:33Z</time>
      </trkpt>
      <trkpt lat="47.61396" lon="-2.74486">
        <ele>5.2</ele>
        <time>2026-08-20T12:24:34Z</time>
      </trkpt>
      <trkpt lat="47.61396" lon="-2.74492">
        <ele>5.5</ele>
        <time>2026-08-20T12:24:35Z</time>
      </trkpt>
      <trkpt lat="47.61396" lon="-2.74498">
        <ele>5.7</ele>
        <time>2026-08-20T12:24:36Z</time>
      </trkpt>
      <trkpt lat="47.61396" lon="-2.74505">
        <ele>5.8</ele>
        <time>2026-08-20T12:24:37Z</time>
      </trkpt>
      <trkpt lat="47.61396" lon="-2.74511">
        <ele>5.8</ele>
        <time>2026-08-20T12:24:38Z</time>
      </trkpt>
      <trkpt lat="47.61396" lon="-2.74517">
        <ele>5.9</ele>
        <time>2026-08-20T12:24:39Z</time>
      </trkpt>
      <trkpt lat="47.61396" lon="-2.74523">
        <ele>6</ele>
        <time>2026-08-20T12:24:40Z</time>
      </trkpt>
      <trkpt lat="47.61396" lon="-2.74529">
        <ele>6</ele>
        <time>2026-08-20T12:24:41Z</time>
      </trkpt>
      <trkpt lat="47.61396" lon="-2.74536">
        <ele>6</ele>
        <time>2026-08-20T12:24:42Z</time>
      </trkpt>
      <trkpt lat="47.61396" lon="-2.74542">
        <ele>6</ele>
        <time>2026-08-20T12:24:43Z</time>
      </trkpt>
      <trkpt lat="47.61395" lon="-2.74549">
        <ele>6</ele>
        <time>2026-08-20T12:24:44Z</time>
      </trkpt>
      <trkpt lat="47.61395" lon="-2.74556">
        <ele>6</ele>
        <time>2026-08-20T12:24:45Z</time>
      </trkpt>
      <trkpt lat="47.61395" lon="-2.74562">
        <ele>6.2</ele>
        <time>2026-08-20T12:24:46Z</time>
      </trkpt>
      <trkpt lat="47.61395" lon="-2.74569">
        <ele>6.4</ele>
        <time>2026-08-20T12:24:47Z</time>
      </trkpt>
      <trkpt lat="47.61395" lon="-2.74575">
        <ele>6.5</ele>
        <time>2026-08-20T12:24:48Z</time>
      </trkpt>
      <trkpt lat="47.61395" lon="-2.74581">
        <ele>6.7</ele>
        <time>2026-08-20T12:24:49Z</time>
      </trkpt>
      <trkpt lat="47.61395" lon="-2.74588">
        <ele>6.8</ele>
        <time>2026-08-20T12:24:50Z</time>
      </trkpt>
      <trkpt lat="47.61395" lon="-2.74594">
        <ele>6.8</ele>
        <time>2026-08-20T12:24:51Z</time>
      </trkpt>
      <trkpt lat="47.61395" lon="-2.74601">
        <ele>6.8</ele>
        <time>2026-08-20T12:24:52Z</time>
      </trkpt>
      <trkpt lat="47.61394" lon="-2.74607">
        <ele>6.8</ele>
        <time>2026-08-20T12:24:53Z</time>
      </trkpt>
      <trkpt lat="47.61395" lon="-2.74613">
        <ele>6.8</ele>
        <time>2026-08-20T12:24:54Z</time>
      </trkpt>
      <trkpt lat="47.61395" lon="-2.74619">
        <ele>6.8</ele>
        <time>2026-08-20T12:24:55Z</time>
      </trkpt>
      <trkpt lat="47.61395" lon="-2.74625">
        <ele>6.8</ele>
        <time>2026-08-20T12:24:56Z</time>
      </trkpt>
      <trkpt lat="47.61395" lon="-2.74632">
        <ele>6.8</ele>
        <time>2026-08-20T12:24:57Z</time>
      </trkpt>
      <trkpt lat="47.61395" lon="-2.74638">
        <ele>6.8</ele>
        <time>2026-08-20T12:24:58Z</time>
      </trkpt>
      <trkpt lat="47.61394" lon="-2.74645">
        <ele>7</ele>
        <time>2026-08-20T12:24:59Z</time>
      </trkpt>
      <trkpt lat="47.61394" lon="-2.74651">
        <ele>7.3</ele>
        <time>2026-08-20T12:25:00Z</time>
      </trkpt>
      <trkpt lat="47.61394" lon="-2.74657">
        <ele>7.5</ele>
        <time>2026-08-20T12:25:01Z</time>
      </trkpt>
      <trkpt lat="47.61395" lon="-2.74663">
        <ele>7.6</ele>
        <time>2026-08-20T12:25:02Z</time>
      </trkpt>
      <trkpt lat="47.61396" lon="-2.74668">
        <ele>7.8</ele>
        <time>2026-08-20T12:25:03Z</time>
      </trkpt>
      <trkpt lat="47.61398" lon="-2.74673">
        <ele>7.7</ele>
        <time>2026-08-20T12:25:04Z</time>
      </trkpt>
      <trkpt lat="47.61402" lon="-2.74675">
        <ele>7.7</ele>
        <time>2026-08-20T12:25:05Z</time>
      </trkpt>
      <trkpt lat="47.61406" lon="-2.74675">
        <ele>7.6</ele>
        <time>2026-08-20T12:25:06Z</time>
      </trkpt>
      <trkpt lat="47.6141" lon="-2.74674">
        <ele>7.4</ele>
        <time>2026-08-20T12:25:07Z</time>
      </trkpt>
      <trkpt lat="47.61414" lon="-2.74672">
        <ele>7.3</ele>
        <time>2026-08-20T12:25:08Z</time>
      </trkpt>
      <trkpt lat="47.61419" lon="-2.74671">
        <ele>7.1</ele>
        <time>2026-08-20T12:25:09Z</time>
      </trkpt>
      <trkpt lat="47.61423" lon="-2.74671">
        <ele>6.9</ele>
        <time>2026-08-20T12:25:10Z</time>
      </trkpt>
      <trkpt lat="47.61428" lon="-2.74673">
        <ele>6.8</ele>
        <time>2026-08-20T12:25:11Z</time>
      </trkpt>
      <trkpt lat="47.61432" lon="-2.74677">
        <ele>6.8</ele>
        <time>2026-08-20T12:25:12Z</time>
      </trkpt>
      <trkpt lat="47.61436" lon="-2.7468">
        <ele>6.8</ele>
        <time>2026-08-20T12:25:13Z</time>
      </trkpt>
      <trkpt lat="47.6144" lon="-2.74684">
        <ele>6.8</ele>
        <time>2026-08-20T12:25:14Z</time>
      </trkpt>
      <trkpt lat="47.61445" lon="-2.74687">
        <ele>6.7</ele>
        <time>2026-08-20T12:25:15Z</time>
      </trkpt>
      <trkpt lat="47.61449" lon="-2.74691">
        <ele>6.7</ele>
        <time>2026-08-20T12:25:16Z</time>
      </trkpt>
      <trkpt lat="47.61453" lon="-2.74695">
        <ele>6.7</ele>
        <time>2026-08-20T12:25:17Z</time>
      </trkpt>
      <trkpt lat="47.61457" lon="-2.74699">
        <ele>6.7</ele>
        <time>2026-08-20T12:25:18Z</time>
      </trkpt>
      <trkpt lat="47.61461" lon="-2.74703">
        <ele>6.7</ele>
        <time>2026-08-20T12:25:19Z</time>
      </trkpt>
      <trkpt lat="47.61465" lon="-2.74708">
        <ele>6.7</ele>
        <time>2026-08-20T12:25:20Z</time>
      </trkpt>
      <trkpt lat="47.61469" lon="-2.74712">
        <ele>6.7</ele>
        <time>2026-08-20T12:25:21Z</time>
      </trkpt>
      <trkpt lat="47.61473" lon="-2.74716">
        <ele>6.8</ele>
        <time>2026-08-20T12:25:22Z</time>
      </trkpt>
      <trkpt lat="47.61476" lon="-2.74721">
        <ele>7</ele>
        <time>2026-08-20T12:25:23Z</time>
      </trkpt>
      <trkpt lat="47.61479" lon="-2.74726">
        <ele>7.2</ele>
        <time>2026-08-20T12:25:24Z</time>
      </trkpt>
      <trkpt lat="47.61482" lon="-2.74731">
        <ele>7.5</ele>
        <time>2026-08-20T12:25:25Z</time>
      </trkpt>
      <trkpt lat="47.61484" lon="-2.74737">
        <ele>7.8</ele>
        <time>2026-08-20T12:25:26Z</time>
      </trkpt>
      <trkpt lat="47.61487" lon="-2.74743">
        <ele>8.1</ele>
        <time>2026-08-20T12:25:27Z</time>
      </trkpt>
      <trkpt lat="47.61489" lon="-2.74749">
        <ele>8.3</ele>
        <time>2026-08-20T12:25:28Z</time>
      </trkpt>
      <trkpt lat="47.61491" lon="-2.74755">
        <ele>8.5</ele>
        <time>2026-08-20T12:25:29Z</time>
      </trkpt>
      <trkpt lat="47.61492" lon="-2.7476">
        <ele>8.6</ele>
        <time>2026-08-20T12:25:30Z</time>
      </trkpt>
      <trkpt lat="47.61494" lon="-2.74766">
        <ele>8.8</ele>
        <time>2026-08-20T12:25:31Z</time>
      </trkpt>
      <trkpt lat="47.61495" lon="-2.74772">
        <ele>9</ele>
        <time>2026-08-20T12:25:32Z</time>
      </trkpt>
      <trkpt lat="47.61496" lon="-2.74777">
        <ele>9.1</ele>
        <time>2026-08-20T12:25:33Z</time>
      </trkpt>
      <trkpt lat="47.61498" lon="-2.74782">
        <ele>9.4</ele>
        <time>2026-08-20T12:25:34Z</time>
      </trkpt>
      <trkpt lat="47.61499" lon="-2.74787">
        <ele>9.7</ele>
        <time>2026-08-20T12:25:35Z</time>
      </trkpt>
      <trkpt lat="47.61499" lon="-2.74792">
        <ele>10</ele>
        <time>2026-08-20T12:25:36Z</time>
      </trkpt>
      <trkpt lat="47.615" lon="-2.74797">
        <ele>10.4</ele>
        <time>2026-08-20T12:25:37Z</time>
      </trkpt>
      <trkpt lat="47.61501" lon="-2.74802">
        <ele>10.7</ele>
        <time>2026-08-20T12:25:38Z</time>
      </trkpt>
      <trkpt lat="47.61502" lon="-2.74806">
        <ele>11</ele>
        <time>2026-08-20T12:25:39Z</time>
      </trkpt>
      <trkpt lat="47.61502" lon="-2.74811">
        <ele>11.3</ele>
        <time>2026-08-20T12:25:40Z</time>
      </trkpt>
      <trkpt lat="47.61503" lon="-2.74816">
        <ele>11.6</ele>
        <time>2026-08-20T12:25:41Z</time>
      </trkpt>
      <trkpt lat="47.61503" lon="-2.7482">
        <ele>11.9</ele>
        <time>2026-08-20T12:25:42Z</time>
      </trkpt>
      <trkpt lat="47.61504" lon="-2.74825">
        <ele>12.2</ele>
        <time>2026-08-20T12:25:43Z</time>
      </trkpt>
      <trkpt lat="47.61504" lon="-2.74829">
        <ele>12.4</ele>
        <time>2026-08-20T12:25:44Z</time>
      </trkpt>
      <trkpt lat="47.61504" lon="-2.74834">
        <ele>12.7</ele>
        <time>2026-08-20T12:25:45Z</time>
      </trkpt>
      <trkpt lat="47.61504" lon="-2.74839">
        <ele>12.9</ele>
        <time>2026-08-20T12:25:46Z</time>
      </trkpt>
      <trkpt lat="47.61504" lon="-2.74843">
        <ele>13.1</ele>
        <time>2026-08-20T12:25:47Z</time>
      </trkpt>
      <trkpt lat="47.61504" lon="-2.74848">
        <ele>13.3</ele>
        <time>2026-08-20T12:25:48Z</time>
      </trkpt>
      <trkpt lat="47.61504" lon="-2.74853">
        <ele>13.5</ele>
        <time>2026-08-20T12:25:49Z</time>
      </trkpt>
      <trkpt lat="47.61504" lon="-2.74857">
        <ele>13.7</ele>
        <time>2026-08-20T12:25:50Z</time>
      </trkpt>
      <trkpt lat="47.61504" lon="-2.74862">
        <ele>13.9</ele>
        <time>2026-08-20T12:25:51Z</time>
      </trkpt>
      <trkpt lat="47.61504" lon="-2.74867">
        <ele>14.1</ele>
        <time>2026-08-20T12:25:52Z</time>
      </trkpt>
      <trkpt lat="47.61505" lon="-2.74872">
        <ele>14.2</ele>
        <time>2026-08-20T12:25:53Z</time>
      </trkpt>
      <trkpt lat="47.61505" lon="-2.74877">
        <ele>14.4</ele>
        <time>2026-08-20T12:25:54Z</time>
      </trkpt>
      <trkpt lat="47.61505" lon="-2.74882">
        <ele>14.6</ele>
        <time>2026-08-20T12:25:55Z</time>
      </trkpt>
      <trkpt lat="47.61506" lon="-2.74887">
        <ele>14.7</ele>
        <time>2026-08-20T12:25:56Z</time>
      </trkpt>
      <trkpt lat="47.61506" lon="-2.74892">
        <ele>14.8</ele>
        <time>2026-08-20T12:25:57Z</time>
      </trkpt>
      <trkpt lat="47.61507" lon="-2.74897">
        <ele>14.7</ele>
        <time>2026-08-20T12:25:58Z</time>
      </trkpt>
      <trkpt lat="47.61507" lon="-2.74901">
        <ele>14.7</ele>
        <time>2026-08-20T12:25:59Z</time>
      </trkpt>
      <trkpt lat="47.61508" lon="-2.74906">
        <ele>14.7</ele>
        <time>2026-08-20T12:26:00Z</time>
      </trkpt>
      <trkpt lat="47.61508" lon="-2.74911">
        <ele>14.7</ele>
        <time>2026-08-20T12:26:01Z</time>
      </trkpt>
      <trkpt lat="47.61508" lon="-2.74916">
        <ele>14.7</ele>
        <time>2026-08-20T12:26:02Z</time>
      </trkpt>
      <trkpt lat="47.61509" lon="-2.74921">
        <ele>14.8</ele>
        <time>2026-08-20T12:26:03Z</time>
      </trkpt>
      <trkpt lat="47.6151" lon="-2.74927">
        <ele>14.9</ele>
        <time>2026-08-20T12:26:04Z</time>
      </trkpt>
      <trkpt lat="47.61511" lon="-2.74932">
        <ele>14.9</ele>
        <time>2026-08-20T12:26:05Z</time>
      </trkpt>
      <trkpt lat="47.61512" lon="-2.74937">
        <ele>15</ele>
        <time>2026-08-20T12:26:06Z</time>
      </trkpt>
      <trkpt lat="47.61513" lon="-2.74942">
        <ele>15</ele>
        <time>2026-08-20T12:26:07Z</time>
      </trkpt>
      <trkpt lat="47.61514" lon="-2.74947">
        <ele>15</ele>
        <time>2026-08-20T12:26:08Z</time>
      </trkpt>
      <trkpt lat="47.61515" lon="-2.74953">
        <ele>15.1</ele>
        <time>2026-08-20T12:26:09Z</time>
      </trkpt>
      <trkpt lat="47.61517" lon="-2.74958">
        <ele>15.1</ele>
        <time>2026-08-20T12:26:10Z</time>
      </trkpt>
      <trkpt lat="47.61518" lon="-2.74963">
        <ele>15.1</ele>
        <time>2026-08-20T12:26:11Z</time>
      </trkpt>
      <trkpt lat="47.6152" lon="-2.74969">
        <ele>15.2</ele>
        <time>2026-08-20T12:26:12Z</time>
      </trkpt>
      <trkpt lat="47.61521" lon="-2.74974">
        <ele>15.2</ele>
        <time>2026-08-20T12:26:13Z</time>
      </trkpt>
      <trkpt lat="47.61523" lon="-2.7498">
        <ele>15.2</ele>
        <time>2026-08-20T12:26:14Z</time>
      </trkpt>
      <trkpt lat="47.61524" lon="-2.74985">
        <ele>15.1</ele>
        <time>2026-08-20T12:26:15Z</time>
      </trkpt>
      <trkpt lat="47.61525" lon="-2.74991">
        <ele>15.1</ele>
        <time>2026-08-20T12:26:16Z</time>
      </trkpt>
      <trkpt lat="47.61527" lon="-2.74997">
        <ele>15</ele>
        <time>2026-08-20T12:26:17Z</time>
      </trkpt>
      <trkpt lat="47.61528" lon="-2.75002">
        <ele>14.9</ele>
        <time>2026-08-20T12:26:18Z</time>
      </trkpt>
      <trkpt lat="47.6153" lon="-2.75008">
        <ele>14.6</ele>
        <time>2026-08-20T12:26:19Z</time>
      </trkpt>
      <trkpt lat="47.61531" lon="-2.75014">
        <ele>14.3</ele>
        <time>2026-08-20T12:26:20Z</time>
      </trkpt>
      <trkpt lat="47.61533" lon="-2.7502">
        <ele>14</ele>
        <time>2026-08-20T12:26:21Z</time>
      </trkpt>
      <trkpt lat="47.61534" lon="-2.75026">
        <ele>13.8</ele>
        <time>2026-08-20T12:26:22Z</time>
      </trkpt>
      <trkpt lat="47.61535" lon="-2.75033">
        <ele>13.7</ele>
        <time>2026-08-20T12:26:23Z</time>
      </trkpt>
      <trkpt lat="47.61537" lon="-2.75039">
        <ele>13.5</ele>
        <time>2026-08-20T12:26:24Z</time>
      </trkpt>
      <trkpt lat="47.61538" lon="-2.75045">
        <ele>13.4</ele>
        <time>2026-08-20T12:26:25Z</time>
      </trkpt>
      <trkpt lat="47.6154" lon="-2.75052">
        <ele>13.2</ele>
        <time>2026-08-20T12:26:26Z</time>
      </trkpt>
      <trkpt lat="47.61541" lon="-2.75059">
        <ele>13</ele>
        <time>2026-08-20T12:26:27Z</time>
      </trkpt>
      <trkpt lat="47.61543" lon="-2.75066">
        <ele>12.9</ele>
        <time>2026-08-20T12:26:28Z</time>
      </trkpt>
      <trkpt lat="47.61544" lon="-2.75073">
        <ele>12.8</ele>
        <time>2026-08-20T12:26:29Z</time>
      </trkpt>
      <trkpt lat="47.61545" lon="-2.7508">
        <ele>12.8</ele>
        <time>2026-08-20T12:26:30Z</time>
      </trkpt>
      <trkpt lat="47.61544" lon="-2.75087">
        <ele>12.8</ele>
        <time>2026-08-20T12:26:31Z</time>
      </trkpt>
      <trkpt lat="47.61543" lon="-2.75093">
        <ele>12.9</ele>
        <time>2026-08-20T12:26:32Z</time>
      </trkpt>
      <trkpt lat="47.6154" lon="-2.75097">
        <ele>13.1</ele>
        <time>2026-08-20T12:26:33Z</time>
      </trkpt>
      <trkpt lat="47.61536" lon="-2.75101">
        <ele>13.4</ele>
        <time>2026-08-20T12:26:34Z</time>
      </trkpt>
      <trkpt lat="47.61532" lon="-2.75104">
        <ele>13.7</ele>
        <time>2026-08-20T12:26:35Z</time>
      </trkpt>
      <trkpt lat="47.61528" lon="-2.75107">
        <ele>14</ele>
        <time>2026-08-20T12:26:36Z</time>
      </trkpt>
      <trkpt lat="47.61525" lon="-2.75111">
        <ele>14.1</ele>
        <time>2026-08-20T12:26:37Z</time>
      </trkpt>
      <trkpt lat="47.61524" lon="-2.75117">
        <ele>14.3</ele>
        <time>2026-08-20T12:26:38Z</time>
      </trkpt>
      <trkpt lat="47.61524" lon="-2.75123">
        <ele>14.5</ele>
        <time>2026-08-20T12:26:39Z</time>
      </trkpt>
      <trkpt lat="47.61525" lon="-2.75128">
        <ele>14.6</ele>
        <time>2026-08-20T12:26:40Z</time>
      </trkpt>
      <trkpt lat="47.61527" lon="-2.75133">
        <ele>14.8</ele>
        <time>2026-08-20T12:26:41Z</time>
      </trkpt>
      <trkpt lat="47.6153" lon="-2.75138">
        <ele>14.8</ele>
        <time>2026-08-20T12:26:42Z</time>
      </trkpt>
      <trkpt lat="47.61533" lon="-2.75143">
        <ele>14.7</ele>
        <time>2026-08-20T12:26:43Z</time>
      </trkpt>
      <trkpt lat="47.61535" lon="-2.75148">
        <ele>14.6</ele>
        <time>2026-08-20T12:26:44Z</time>
      </trkpt>
      <trkpt lat="47.61538" lon="-2.75153">
        <ele>14.5</ele>
        <time>2026-08-20T12:26:45Z</time>
      </trkpt>
      <trkpt lat="47.61541" lon="-2.75158">
        <ele>14.4</ele>
        <time>2026-08-20T12:26:46Z</time>
      </trkpt>
      <trkpt lat="47.61543" lon="-2.75163">
        <ele>14.4</ele>
        <time>2026-08-20T12:26:47Z</time>
      </trkpt>
      <trkpt lat="47.61546" lon="-2.75168">
        <ele>14.4</ele>
        <time>2026-08-20T12:26:48Z</time>
      </trkpt>
      <trkpt lat="47.61549" lon="-2.75173">
        <ele>14.5</ele>
        <time>2026-08-20T12:26:49Z</time>
      </trkpt>
      <trkpt lat="47.61552" lon="-2.75178">
        <ele>14.5</ele>
        <time>2026-08-20T12:26:50Z</time>
      </trkpt>
      <trkpt lat="47.61555" lon="-2.75183">
        <ele>14.6</ele>
        <time>2026-08-20T12:26:51Z</time>
      </trkpt>
      <trkpt lat="47.61558" lon="-2.75187">
        <ele>14.6</ele>
        <time>2026-08-20T12:26:52Z</time>
      </trkpt>
      <trkpt lat="47.61561" lon="-2.75192">
        <ele>14.5</ele>
        <time>2026-08-20T12:26:53Z</time>
      </trkpt>
      <trkpt lat="47.61564" lon="-2.75197">
        <ele>14.5</ele>
        <time>2026-08-20T12:26:54Z</time>
      </trkpt>
      <trkpt lat="47.61566" lon="-2.75202">
        <ele>14.5</ele>
        <time>2026-08-20T12:26:55Z</time>
      </trkpt>
      <trkpt lat="47.61569" lon="-2.75207">
        <ele>14.5</ele>
        <time>2026-08-20T12:26:56Z</time>
      </trkpt>
      <trkpt lat="47.61572" lon="-2.75212">
        <ele>14.4</ele>
        <time>2026-08-20T12:26:57Z</time>
      </trkpt>
      <trkpt lat="47.61575" lon="-2.75217">
        <ele>14.4</ele>
        <time>2026-08-20T12:26:58Z</time>
      </trkpt>
      <trkpt lat="47.61578" lon="-2.75222">
        <ele>14.4</ele>
        <time>2026-08-20T12:26:59Z</time>
      </trkpt>
      <trkpt lat="47.6158" lon="-2.75227">
        <ele>14.4</ele>
        <time>2026-08-20T12:27:00Z</time>
      </trkpt>
      <trkpt lat="47.61583" lon="-2.75232">
        <ele>14.4</ele>
        <time>2026-08-20T12:27:01Z</time>
      </trkpt>
      <trkpt lat="47.61586" lon="-2.75238">
        <ele>14.4</ele>
        <time>2026-08-20T12:27:02Z</time>
      </trkpt>
      <trkpt lat="47.61589" lon="-2.75243">
        <ele>14.3</ele>
        <time>2026-08-20T12:27:03Z</time>
      </trkpt>
      <trkpt lat="47.61592" lon="-2.75248">
        <ele>14.3</ele>
        <time>2026-08-20T12:27:04Z</time>
      </trkpt>
      <trkpt lat="47.61596" lon="-2.75254">
        <ele>14.2</ele>
        <time>2026-08-20T12:27:05Z</time>
      </trkpt>
      <trkpt lat="47.61599" lon="-2.75259">
        <ele>14.1</ele>
        <time>2026-08-20T12:27:06Z</time>
      </trkpt>
      <trkpt lat="47.61602" lon="-2.75264">
        <ele>14</ele>
        <time>2026-08-20T12:27:07Z</time>
      </trkpt>
      <trkpt lat="47.61605" lon="-2.75269">
        <ele>14</ele>
        <time>2026-08-20T12:27:08Z</time>
      </trkpt>
      <trkpt lat="47.61609" lon="-2.75274">
        <ele>14</ele>
        <time>2026-08-20T12:27:09Z</time>
      </trkpt>
      <trkpt lat="47.61614" lon="-2.75277">
        <ele>13.8</ele>
        <time>2026-08-20T12:27:10Z</time>
      </trkpt>
      <trkpt lat="47.61619" lon="-2.75281">
        <ele>13.4</ele>
        <time>2026-08-20T12:27:11Z</time>
      </trkpt>
      <trkpt lat="47.61624" lon="-2.75284">
        <ele>13.1</ele>
        <time>2026-08-20T12:27:12Z</time>
      </trkpt>
      <trkpt lat="47.61628" lon="-2.75289">
        <ele>12.8</ele>
        <time>2026-08-20T12:27:13Z</time>
      </trkpt>
      <trkpt lat="47.61633" lon="-2.75294">
        <ele>12.4</ele>
        <time>2026-08-20T12:27:14Z</time>
      </trkpt>
      <trkpt lat="47.61637" lon="-2.753">
        <ele>12.1</ele>
        <time>2026-08-20T12:27:15Z</time>
      </trkpt>
      <trkpt lat="47.61641" lon="-2.75306">
        <ele>11.8</ele>
        <time>2026-08-20T12:27:16Z</time>
      </trkpt>
      <trkpt lat="47.61645" lon="-2.75312">
        <ele>11.5</ele>
        <time>2026-08-20T12:27:17Z</time>
      </trkpt>
      <trkpt lat="47.61648" lon="-2.75318">
        <ele>11.3</ele>
        <time>2026-08-20T12:27:18Z</time>
      </trkpt>
      <trkpt lat="47.61651" lon="-2.75325">
        <ele>11.1</ele>
        <time>2026-08-20T12:27:19Z</time>
      </trkpt>
      <trkpt lat="47.61654" lon="-2.75331">
        <ele>10.8</ele>
        <time>2026-08-20T12:27:20Z</time>
      </trkpt>
      <trkpt lat="47.61657" lon="-2.75338">
        <ele>10.3</ele>
        <time>2026-08-20T12:27:21Z</time>
      </trkpt>
      <trkpt lat="47.6166" lon="-2.75346">
        <ele>9.9</ele>
        <time>2026-08-20T12:27:22Z</time>
      </trkpt>
      <trkpt lat="47.61662" lon="-2.75354">
        <ele>9.5</ele>
        <time>2026-08-20T12:27:23Z</time>
      </trkpt>
      <trkpt lat="47.61664" lon="-2.75364">
        <ele>9.3</ele>
        <time>2026-08-20T12:27:24Z</time>
      </trkpt>
      <trkpt lat="47.61666" lon="-2.75373">
        <ele>9.1</ele>
        <time>2026-08-20T12:27:25Z</time>
      </trkpt>
      <trkpt lat="47.61668" lon="-2.75381">
        <ele>8.9</ele>
        <time>2026-08-20T12:27:26Z</time>
      </trkpt>
      <trkpt lat="47.6167" lon="-2.75389">
        <ele>8.8</ele>
        <time>2026-08-20T12:27:27Z</time>
      </trkpt>
      <trkpt lat="47.61672" lon="-2.75397">
        <ele>8.6</ele>
        <time>2026-08-20T12:27:28Z</time>
      </trkpt>
      <trkpt lat="47.61675" lon="-2.75405">
        <ele>8.4</ele>
        <time>2026-08-20T12:27:29Z</time>
      </trkpt>
      <trkpt lat="47.61677" lon="-2.75413">
        <ele>8.3</ele>
        <time>2026-08-20T12:27:30Z</time>
      </trkpt>
      <trkpt lat="47.6168" lon="-2.75422">
        <ele>7.8</ele>
        <time>2026-08-20T12:27:31Z</time>
      </trkpt>
      <trkpt lat="47.61683" lon="-2.7543">
        <ele>7.3</ele>
        <time>2026-08-20T12:27:32Z</time>
      </trkpt>
      <trkpt lat="47.61686" lon="-2.75439">
        <ele>6.8</ele>
        <time>2026-08-20T12:27:33Z</time>
      </trkpt>
      <trkpt lat="47.61689" lon="-2.75448">
        <ele>6.4</ele>
        <time>2026-08-20T12:27:34Z</time>
      </trkpt>
      <trkpt lat="47.61691" lon="-2.75457">
        <ele>6.2</ele>
        <time>2026-08-20T12:27:35Z</time>
      </trkpt>
      <trkpt lat="47.61694" lon="-2.75467">
        <ele>6</ele>
        <time>2026-08-20T12:27:36Z</time>
      </trkpt>
      <trkpt lat="47.61697" lon="-2.75478">
        <ele>5.9</ele>
        <time>2026-08-20T12:27:37Z</time>
      </trkpt>
      <trkpt lat="47.61698" lon="-2.75488">
        <ele>5.9</ele>
        <time>2026-08-20T12:27:38Z</time>
      </trkpt>
      <trkpt lat="47.61699" lon="-2.75498">
        <ele>5.8</ele>
        <time>2026-08-20T12:27:39Z</time>
      </trkpt>
      <trkpt lat="47.617" lon="-2.75508">
        <ele>5.8</ele>
        <time>2026-08-20T12:27:40Z</time>
      </trkpt>
      <trkpt lat="47.617" lon="-2.75517">
        <ele>5.8</ele>
        <time>2026-08-20T12:27:41Z</time>
      </trkpt>
      <trkpt lat="47.61701" lon="-2.75526">
        <ele>5.8</ele>
        <time>2026-08-20T12:27:42Z</time>
      </trkpt>
      <trkpt lat="47.61702" lon="-2.75534">
        <ele>5.7</ele>
        <time>2026-08-20T12:27:43Z</time>
      </trkpt>
      <trkpt lat="47.61703" lon="-2.75544">
        <ele>5.7</ele>
        <time>2026-08-20T12:27:44Z</time>
      </trkpt>
      <trkpt lat="47.61704" lon="-2.75552">
        <ele>5.7</ele>
        <time>2026-08-20T12:27:45Z</time>
      </trkpt>
      <trkpt lat="47.61705" lon="-2.75561">
        <ele>5.6</ele>
        <time>2026-08-20T12:27:46Z</time>
      </trkpt>
      <trkpt lat="47.61706" lon="-2.75569">
        <ele>5.6</ele>
        <time>2026-08-20T12:27:47Z</time>
      </trkpt>
      <trkpt lat="47.61708" lon="-2.75577">
        <ele>5.5</ele>
        <time>2026-08-20T12:27:48Z</time>
      </trkpt>
      <trkpt lat="47.61711" lon="-2.75584">
        <ele>5.4</ele>
        <time>2026-08-20T12:27:49Z</time>
      </trkpt>
      <trkpt lat="47.61713" lon="-2.75592">
        <ele>5.2</ele>
        <time>2026-08-20T12:27:50Z</time>
      </trkpt>
      <trkpt lat="47.61715" lon="-2.75599">
        <ele>5.1</ele>
        <time>2026-08-20T12:27:51Z</time>
      </trkpt>
      <trkpt lat="47.61718" lon="-2.75607">
        <ele>5</ele>
        <time>2026-08-20T12:27:52Z</time>
      </trkpt>
      <trkpt lat="47.61721" lon="-2.75615">
        <ele>4.9</ele>
        <time>2026-08-20T12:27:53Z</time>
      </trkpt>
      <trkpt lat="47.61723" lon="-2.75622">
        <ele>4.6</ele>
        <time>2026-08-20T12:27:54Z</time>
      </trkpt>
      <trkpt lat="47.61726" lon="-2.7563">
        <ele>4.3</ele>
        <time>2026-08-20T12:27:55Z</time>
      </trkpt>
      <trkpt lat="47.61728" lon="-2.75636">
        <ele>4.1</ele>
        <time>2026-08-20T12:27:56Z</time>
      </trkpt>
      <trkpt lat="47.61732" lon="-2.75645">
        <ele>4</ele>
        <time>2026-08-20T12:27:57Z</time>
      </trkpt>
      <trkpt lat="47.61735" lon="-2.75652">
        <ele>4</ele>
        <time>2026-08-20T12:27:58Z</time>
      </trkpt>
      <trkpt lat="47.61738" lon="-2.75658">
        <ele>4</ele>
        <time>2026-08-20T12:27:59Z</time>
      </trkpt>
      <trkpt lat="47.61743" lon="-2.75663">
        <ele>4</ele>
        <time>2026-08-20T12:28:00Z</time>
      </trkpt>
      <trkpt lat="47.61748" lon="-2.75667">
        <ele>4</ele>
        <time>2026-08-20T12:28:01Z</time>
      </trkpt>
      <trkpt lat="47.61754" lon="-2.75669">
        <ele>3.9</ele>
        <time>2026-08-20T12:28:02Z</time>
      </trkpt>
      <trkpt lat="47.61761" lon="-2.7567">
        <ele>3.6</ele>
        <time>2026-08-20T12:28:03Z</time>
      </trkpt>
      <trkpt lat="47.61767" lon="-2.75671">
        <ele>3.4</ele>
        <time>2026-08-20T12:28:04Z</time>
      </trkpt>
      <trkpt lat="47.61773" lon="-2.75672">
        <ele>3.2</ele>
        <time>2026-08-20T12:28:05Z</time>
      </trkpt>
      <trkpt lat="47.61778" lon="-2.75674">
        <ele>3</ele>
        <time>2026-08-20T12:28:06Z</time>
      </trkpt>
      <trkpt lat="47.61784" lon="-2.75678">
        <ele>3.1</ele>
        <time>2026-08-20T12:28:07Z</time>
      </trkpt>
      <trkpt lat="47.61788" lon="-2.75683">
        <ele>3.2</ele>
        <time>2026-08-20T12:28:08Z</time>
      </trkpt>
      <trkpt lat="47.61792" lon="-2.75688">
        <ele>3.4</ele>
        <time>2026-08-20T12:28:09Z</time>
      </trkpt>
      <trkpt lat="47.61796" lon="-2.75694">
        <ele>3.6</ele>
        <time>2026-08-20T12:28:10Z</time>
      </trkpt>
      <trkpt lat="47.618" lon="-2.757">
        <ele>3.8</ele>
        <time>2026-08-20T12:28:11Z</time>
      </trkpt>
      <trkpt lat="47.61802" lon="-2.75706">
        <ele>3.9</ele>
        <time>2026-08-20T12:28:12Z</time>
      </trkpt>
      <trkpt lat="47.61804" lon="-2.75712">
        <ele>4</ele>
        <time>2026-08-20T12:28:13Z</time>
      </trkpt>
      <trkpt lat="47.61805" lon="-2.75717">
        <ele>4</ele>
        <time>2026-08-20T12:28:14Z</time>
      </trkpt>
      <trkpt lat="47.61805" lon="-2.75722">
        <ele>4</ele>
        <time>2026-08-20T12:28:15Z</time>
      </trkpt>
      <trkpt lat="47.61805" lon="-2.75726">
        <ele>4</ele>
        <time>2026-08-20T12:28:16Z</time>
      </trkpt>
      <trkpt lat="47.61805" lon="-2.7573">
        <ele>4</ele>
        <time>2026-08-20T12:28:17Z</time>
      </trkpt>
      <trkpt lat="47.61807" lon="-2.75734">
        <ele>4</ele>
        <time>2026-08-20T12:28:18Z</time>
      </trkpt>
      <trkpt lat="47.61809" lon="-2.75739">
        <ele>4</ele>
        <time>2026-08-20T12:28:19Z</time>
      </trkpt>
      <trkpt lat="47.6181" lon="-2.75743">
        <ele>4</ele>
        <time>2026-08-20T12:28:20Z</time>
      </trkpt>
      <trkpt lat="47.61812" lon="-2.75747">
        <ele>4</ele>
        <time>2026-08-20T12:28:21Z</time>
      </trkpt>
      <trkpt lat="47.61813" lon="-2.75751">
        <ele>4</ele>
        <time>2026-08-20T12:28:22Z</time>
      </trkpt>
      <trkpt lat="47.61814" lon="-2.75756">
        <ele>4</ele>
        <time>2026-08-20T12:28:23Z</time>
      </trkpt>
      <trkpt lat="47.61816" lon="-2.75762">
        <ele>4</ele>
        <time>2026-08-20T12:28:24Z</time>
      </trkpt>
      <trkpt lat="47.61817" lon="-2.75768">
        <ele>4</ele>
        <time>2026-08-20T12:28:25Z</time>
      </trkpt>
      <trkpt lat="47.61818" lon="-2.75773">
        <ele>4</ele>
        <time>2026-08-20T12:28:26Z</time>
      </trkpt>
      <trkpt lat="47.61819" lon="-2.75781">
        <ele>4.1</ele>
        <time>2026-08-20T12:28:27Z</time>
      </trkpt>
      <trkpt lat="47.6182" lon="-2.75787">
        <ele>4.3</ele>
        <time>2026-08-20T12:28:28Z</time>
      </trkpt>
      <trkpt lat="47.61822" lon="-2.75792">
        <ele>4.5</ele>
        <time>2026-08-20T12:28:29Z</time>
      </trkpt>
      <trkpt lat="47.61823" lon="-2.75798">
        <ele>4.7</ele>
        <time>2026-08-20T12:28:30Z</time>
      </trkpt>
      <trkpt lat="47.61824" lon="-2.75803">
        <ele>4.9</ele>
        <time>2026-08-20T12:28:31Z</time>
      </trkpt>
      <trkpt lat="47.61826" lon="-2.75809">
        <ele>5</ele>
        <time>2026-08-20T12:28:32Z</time>
      </trkpt>
      <trkpt lat="47.61828" lon="-2.75813">
        <ele>5</ele>
        <time>2026-08-20T12:28:33Z</time>
      </trkpt>
      <trkpt lat="47.6183" lon="-2.75818">
        <ele>5</ele>
        <time>2026-08-20T12:28:34Z</time>
      </trkpt>
      <trkpt lat="47.61831" lon="-2.75823">
        <ele>5</ele>
        <time>2026-08-20T12:28:35Z</time>
      </trkpt>
      <trkpt lat="47.61833" lon="-2.75827">
        <ele>5</ele>
        <time>2026-08-20T12:28:36Z</time>
      </trkpt>
      <trkpt lat="47.61835" lon="-2.75832">
        <ele>5</ele>
        <time>2026-08-20T12:28:37Z</time>
      </trkpt>
      <trkpt lat="47.61837" lon="-2.75838">
        <ele>5.2</ele>
        <time>2026-08-20T12:28:38Z</time>
      </trkpt>
      <trkpt lat="47.61838" lon="-2.75844">
        <ele>5.4</ele>
        <time>2026-08-20T12:28:39Z</time>
      </trkpt>
      <trkpt lat="47.6184" lon="-2.7585">
        <ele>5.6</ele>
        <time>2026-08-20T12:28:40Z</time>
      </trkpt>
      <trkpt lat="47.61842" lon="-2.75856">
        <ele>5.8</ele>
        <time>2026-08-20T12:28:41Z</time>
      </trkpt>
      <trkpt lat="47.61843" lon="-2.75862">
        <ele>6</ele>
        <time>2026-08-20T12:28:42Z</time>
      </trkpt>
      <trkpt lat="47.61845" lon="-2.75868">
        <ele>6.1</ele>
        <time>2026-08-20T12:28:43Z</time>
      </trkpt>
      <trkpt lat="47.61846" lon="-2.75874">
        <ele>6.3</ele>
        <time>2026-08-20T12:28:44Z</time>
      </trkpt>
      <trkpt lat="47.61847" lon="-2.75879">
        <ele>6.3</ele>
        <time>2026-08-20T12:28:45Z</time>
      </trkpt>
      <trkpt lat="47.61847" lon="-2.75885">
        <ele>6.4</ele>
        <time>2026-08-20T12:28:46Z</time>
      </trkpt>
      <trkpt lat="47.61848" lon="-2.7589">
        <ele>6.5</ele>
        <time>2026-08-20T12:28:47Z</time>
      </trkpt>
      <trkpt lat="47.61848" lon="-2.75896">
        <ele>6.7</ele>
        <time>2026-08-20T12:28:48Z</time>
      </trkpt>
      <trkpt lat="47.61848" lon="-2.75902">
        <ele>6.9</ele>
        <time>2026-08-20T12:28:49Z</time>
      </trkpt>
      <trkpt lat="47.61848" lon="-2.75908">
        <ele>7.2</ele>
        <time>2026-08-20T12:28:50Z</time>
      </trkpt>
      <trkpt lat="47.61848" lon="-2.75914">
        <ele>7.4</ele>
        <time>2026-08-20T12:28:51Z</time>
      </trkpt>
      <trkpt lat="47.61848" lon="-2.75919">
        <ele>7.6</ele>
        <time>2026-08-20T12:28:52Z</time>
      </trkpt>
      <trkpt lat="47.61848" lon="-2.75925">
        <ele>7.8</ele>
        <time>2026-08-20T12:28:53Z</time>
      </trkpt>
      <trkpt lat="47.61849" lon="-2.7593">
        <ele>7.9</ele>
        <time>2026-08-20T12:28:54Z</time>
      </trkpt>
      <trkpt lat="47.6185" lon="-2.75936">
        <ele>8.1</ele>
        <time>2026-08-20T12:28:55Z</time>
      </trkpt>
      <trkpt lat="47.6185" lon="-2.75941">
        <ele>8.3</ele>
        <time>2026-08-20T12:28:56Z</time>
      </trkpt>
      <trkpt lat="47.61851" lon="-2.75947">
        <ele>8.5</ele>
        <time>2026-08-20T12:28:57Z</time>
      </trkpt>
      <trkpt lat="47.61853" lon="-2.75952">
        <ele>8.8</ele>
        <time>2026-08-20T12:28:58Z</time>
      </trkpt>
      <trkpt lat="47.61854" lon="-2.75957">
        <ele>9</ele>
        <time>2026-08-20T12:28:59Z</time>
      </trkpt>
      <trkpt lat="47.61855" lon="-2.75962">
        <ele>9.3</ele>
        <time>2026-08-20T12:29:00Z</time>
      </trkpt>
      <trkpt lat="47.61857" lon="-2.75967">
        <ele>9.7</ele>
        <time>2026-08-20T12:29:01Z</time>
      </trkpt>
      <trkpt lat="47.61859" lon="-2.75971">
        <ele>9.9</ele>
        <time>2026-08-20T12:29:02Z</time>
      </trkpt>
      <trkpt lat="47.61861" lon="-2.75976">
        <ele>10.3</ele>
        <time>2026-08-20T12:29:03Z</time>
      </trkpt>
      <trkpt lat="47.61862" lon="-2.75981">
        <ele>10.6</ele>
        <time>2026-08-20T12:29:04Z</time>
      </trkpt>
      <trkpt lat="47.61864" lon="-2.75985">
        <ele>10.7</ele>
        <time>2026-08-20T12:29:05Z</time>
      </trkpt>
      <trkpt lat="47.61865" lon="-2.7599">
        <ele>11</ele>
        <time>2026-08-20T12:29:06Z</time>
      </trkpt>
      <trkpt lat="47.61867" lon="-2.75994">
        <ele>11.1</ele>
        <time>2026-08-20T12:29:07Z</time>
      </trkpt>
      <trkpt lat="47.61868" lon="-2.75999">
        <ele>11.4</ele>
        <time>2026-08-20T12:29:08Z</time>
      </trkpt>
      <trkpt lat="47.61869" lon="-2.76003">
        <ele>11.5</ele>
        <time>2026-08-20T12:29:09Z</time>
      </trkpt>
      <trkpt lat="47.6187" lon="-2.76008">
        <ele>11.5</ele>
        <time>2026-08-20T12:29:10Z</time>
      </trkpt>
      <trkpt lat="47.61872" lon="-2.76012">
        <ele>11.4</ele>
        <time>2026-08-20T12:29:11Z</time>
      </trkpt>
      <trkpt lat="47.61872" lon="-2.76017">
        <ele>11.5</ele>
        <time>2026-08-20T12:29:12Z</time>
      </trkpt>
      <trkpt lat="47.61873" lon="-2.76022">
        <ele>11.5</ele>
        <time>2026-08-20T12:29:13Z</time>
      </trkpt>
      <trkpt lat="47.61874" lon="-2.76027">
        <ele>11.5</ele>
        <time>2026-08-20T12:29:14Z</time>
      </trkpt>
      <trkpt lat="47.61875" lon="-2.76032">
        <ele>11.5</ele>
        <time>2026-08-20T12:29:15Z</time>
      </trkpt>
      <trkpt lat="47.61875" lon="-2.76037">
        <ele>11.5</ele>
        <time>2026-08-20T12:29:16Z</time>
      </trkpt>
      <trkpt lat="47.61876" lon="-2.76042">
        <ele>11.5</ele>
        <time>2026-08-20T12:29:17Z</time>
      </trkpt>
      <trkpt lat="47.61877" lon="-2.76047">
        <ele>11.4</ele>
        <time>2026-08-20T12:29:18Z</time>
      </trkpt>
      <trkpt lat="47.61878" lon="-2.76052">
        <ele>11.4</ele>
        <time>2026-08-20T12:29:19Z</time>
      </trkpt>
      <trkpt lat="47.61878" lon="-2.76057">
        <ele>11.4</ele>
        <time>2026-08-20T12:29:20Z</time>
      </trkpt>
      <trkpt lat="47.61879" lon="-2.76063">
        <ele>11.5</ele>
        <time>2026-08-20T12:29:21Z</time>
      </trkpt>
      <trkpt lat="47.61879" lon="-2.76068">
        <ele>11.6</ele>
        <time>2026-08-20T12:29:22Z</time>
      </trkpt>
      <trkpt lat="47.6188" lon="-2.76073">
        <ele>11.7</ele>
        <time>2026-08-20T12:29:23Z</time>
      </trkpt>
      <trkpt lat="47.6188" lon="-2.76079">
        <ele>11.9</ele>
        <time>2026-08-20T12:29:24Z</time>
      </trkpt>
      <trkpt lat="47.61881" lon="-2.76084">
        <ele>12</ele>
        <time>2026-08-20T12:29:25Z</time>
      </trkpt>
      <trkpt lat="47.61882" lon="-2.7609">
        <ele>12</ele>
        <time>2026-08-20T12:29:26Z</time>
      </trkpt>
      <trkpt lat="47.61882" lon="-2.76096">
        <ele>12</ele>
        <time>2026-08-20T12:29:27Z</time>
      </trkpt>
      <trkpt lat="47.61883" lon="-2.76102">
        <ele>12</ele>
        <time>2026-08-20T12:29:28Z</time>
      </trkpt>
      <trkpt lat="47.61883" lon="-2.76107">
        <ele>12</ele>
        <time>2026-08-20T12:29:29Z</time>
      </trkpt>
      <trkpt lat="47.61884" lon="-2.76113">
        <ele>12</ele>
        <time>2026-08-20T12:29:30Z</time>
      </trkpt>
      <trkpt lat="47.61885" lon="-2.76119">
        <ele>12</ele>
        <time>2026-08-20T12:29:31Z</time>
      </trkpt>
      <trkpt lat="47.61886" lon="-2.76125">
        <ele>12</ele>
        <time>2026-08-20T12:29:32Z</time>
      </trkpt>
      <trkpt lat="47.61886" lon="-2.76131">
        <ele>12</ele>
        <time>2026-08-20T12:29:33Z</time>
      </trkpt>
      <trkpt lat="47.61887" lon="-2.76137">
        <ele>12</ele>
        <time>2026-08-20T12:29:34Z</time>
      </trkpt>
      <trkpt lat="47.61888" lon="-2.76143">
        <ele>12</ele>
        <time>2026-08-20T12:29:35Z</time>
      </trkpt>
      <trkpt lat="47.61888" lon="-2.76149">
        <ele>12</ele>
        <time>2026-08-20T12:29:36Z</time>
      </trkpt>
      <trkpt lat="47.61888" lon="-2.76155">
        <ele>12</ele>
        <time>2026-08-20T12:29:37Z</time>
      </trkpt>
      <trkpt lat="47.61889" lon="-2.76161">
        <ele>12</ele>
        <time>2026-08-20T12:29:38Z</time>
      </trkpt>
      <trkpt lat="47.61889" lon="-2.76168">
        <ele>12</ele>
        <time>2026-08-20T12:29:39Z</time>
      </trkpt>
      <trkpt lat="47.6189" lon="-2.76174">
        <ele>12</ele>
        <time>2026-08-20T12:29:40Z</time>
      </trkpt>
      <trkpt lat="47.61892" lon="-2.7618">
        <ele>11.9</ele>
        <time>2026-08-20T12:29:41Z</time>
      </trkpt>
      <trkpt lat="47.61893" lon="-2.76187">
        <ele>11.9</ele>
        <time>2026-08-20T12:29:42Z</time>
      </trkpt>
      <trkpt lat="47.61895" lon="-2.76193">
        <ele>11.8</ele>
        <time>2026-08-20T12:29:43Z</time>
      </trkpt>
      <trkpt lat="47.61897" lon="-2.76199">
        <ele>11.6</ele>
        <time>2026-08-20T12:29:44Z</time>
      </trkpt>
      <trkpt lat="47.61898" lon="-2.76206">
        <ele>11.4</ele>
        <time>2026-08-20T12:29:45Z</time>
      </trkpt>
      <trkpt lat="47.619" lon="-2.76212">
        <ele>11.2</ele>
        <time>2026-08-20T12:29:46Z</time>
      </trkpt>
      <trkpt lat="47.61902" lon="-2.76218">
        <ele>11.1</ele>
        <time>2026-08-20T12:29:47Z</time>
      </trkpt>
      <trkpt lat="47.61904" lon="-2.76224">
        <ele>11</ele>
        <time>2026-08-20T12:29:48Z</time>
      </trkpt>
      <trkpt lat="47.61906" lon="-2.76231">
        <ele>11</ele>
        <time>2026-08-20T12:29:49Z</time>
      </trkpt>
      <trkpt lat="47.61909" lon="-2.76238">
        <ele>11</ele>
        <time>2026-08-20T12:29:50Z</time>
      </trkpt>
      <trkpt lat="47.61911" lon="-2.76244">
        <ele>11</ele>
        <time>2026-08-20T12:29:51Z</time>
      </trkpt>
      <trkpt lat="47.61913" lon="-2.76251">
        <ele>11</ele>
        <time>2026-08-20T12:29:52Z</time>
      </trkpt>
      <trkpt lat="47.61915" lon="-2.76257">
        <ele>11</ele>
        <time>2026-08-20T12:29:53Z</time>
      </trkpt>
      <trkpt lat="47.61916" lon="-2.76264">
        <ele>11</ele>
        <time>2026-08-20T12:29:54Z</time>
      </trkpt>
      <trkpt lat="47.61918" lon="-2.7627">
        <ele>10.9</ele>
        <time>2026-08-20T12:29:55Z</time>
      </trkpt>
      <trkpt lat="47.6192" lon="-2.76276">
        <ele>10.9</ele>
        <time>2026-08-20T12:29:56Z</time>
      </trkpt>
      <trkpt lat="47.61922" lon="-2.76282">
        <ele>10.8</ele>
        <time>2026-08-20T12:29:57Z</time>
      </trkpt>
      <trkpt lat="47.61924" lon="-2.76288">
        <ele>10.7</ele>
        <time>2026-08-20T12:29:58Z</time>
      </trkpt>
      <trkpt lat="47.61926" lon="-2.76294">
        <ele>10.7</ele>
        <time>2026-08-20T12:29:59Z</time>
      </trkpt>
      <trkpt lat="47.61928" lon="-2.763">
        <ele>10.6</ele>
        <time>2026-08-20T12:30:00Z</time>
      </trkpt>
      <trkpt lat="47.6193" lon="-2.76306">
        <ele>10.5</ele>
        <time>2026-08-20T12:30:01Z</time>
      </trkpt>
      <trkpt lat="47.61932" lon="-2.76312">
        <ele>10.7</ele>
        <time>2026-08-20T12:30:02Z</time>
      </trkpt>
      <trkpt lat="47.61934" lon="-2.76317">
        <ele>10.9</ele>
        <time>2026-08-20T12:30:03Z</time>
      </trkpt>
      <trkpt lat="47.61936" lon="-2.76323">
        <ele>11.2</ele>
        <time>2026-08-20T12:30:04Z</time>
      </trkpt>
      <trkpt lat="47.61938" lon="-2.76328">
        <ele>11.5</ele>
        <time>2026-08-20T12:30:05Z</time>
      </trkpt>
      <trkpt lat="47.6194" lon="-2.76333">
        <ele>11.8</ele>
        <time>2026-08-20T12:30:06Z</time>
      </trkpt>
      <trkpt lat="47.61942" lon="-2.76337">
        <ele>12</ele>
        <time>2026-08-20T12:30:07Z</time>
      </trkpt>
      <trkpt lat="47.61944" lon="-2.76342">
        <ele>12.3</ele>
        <time>2026-08-20T12:30:08Z</time>
      </trkpt>
      <trkpt lat="47.61946" lon="-2.76347">
        <ele>12.4</ele>
        <time>2026-08-20T12:30:09Z</time>
      </trkpt>
      <trkpt lat="47.61949" lon="-2.76352">
        <ele>12.5</ele>
        <time>2026-08-20T12:30:10Z</time>
      </trkpt>
      <trkpt lat="47.61951" lon="-2.76356">
        <ele>12.5</ele>
        <time>2026-08-20T12:30:11Z</time>
      </trkpt>
      <trkpt lat="47.61953" lon="-2.76361">
        <ele>12.7</ele>
        <time>2026-08-20T12:30:12Z</time>
      </trkpt>
      <trkpt lat="47.61955" lon="-2.76366">
        <ele>12.7</ele>
        <time>2026-08-20T12:30:13Z</time>
      </trkpt>
      <trkpt lat="47.61958" lon="-2.76371">
        <ele>12.7</ele>
        <time>2026-08-20T12:30:14Z</time>
      </trkpt>
      <trkpt lat="47.61961" lon="-2.76376">
        <ele>12.7</ele>
        <time>2026-08-20T12:30:15Z</time>
      </trkpt>
      <trkpt lat="47.61963" lon="-2.7638">
        <ele>12.8</ele>
        <time>2026-08-20T12:30:16Z</time>
      </trkpt>
      <trkpt lat="47.61966" lon="-2.76385">
        <ele>12.9</ele>
        <time>2026-08-20T12:30:17Z</time>
      </trkpt>
      <trkpt lat="47.61968" lon="-2.7639">
        <ele>13</ele>
        <time>2026-08-20T12:30:18Z</time>
      </trkpt>
      <trkpt lat="47.61971" lon="-2.76395">
        <ele>13.2</ele>
        <time>2026-08-20T12:30:19Z</time>
      </trkpt>
      <trkpt lat="47.61973" lon="-2.764">
        <ele>13.3</ele>
        <time>2026-08-20T12:30:20Z</time>
      </trkpt>
      <trkpt lat="47.61976" lon="-2.76405">
        <ele>13.3</ele>
        <time>2026-08-20T12:30:21Z</time>
      </trkpt>
      <trkpt lat="47.61978" lon="-2.7641">
        <ele>13.3</ele>
        <time>2026-08-20T12:30:22Z</time>
      </trkpt>
      <trkpt lat="47.61981" lon="-2.76415">
        <ele>13.3</ele>
        <time>2026-08-20T12:30:23Z</time>
      </trkpt>
      <trkpt lat="47.61983" lon="-2.7642">
        <ele>13.2</ele>
        <time>2026-08-20T12:30:24Z</time>
      </trkpt>
      <trkpt lat="47.61985" lon="-2.76424">
        <ele>12.9</ele>
        <time>2026-08-20T12:30:25Z</time>
      </trkpt>
      <trkpt lat="47.61988" lon="-2.7643">
        <ele>12.7</ele>
        <time>2026-08-20T12:30:26Z</time>
      </trkpt>
      <trkpt lat="47.6199" lon="-2.76436">
        <ele>12.5</ele>
        <time>2026-08-20T12:30:27Z</time>
      </trkpt>
      <trkpt lat="47.61992" lon="-2.76443">
        <ele>12.3</ele>
        <time>2026-08-20T12:30:28Z</time>
      </trkpt>
      <trkpt lat="47.61995" lon="-2.76449">
        <ele>12.2</ele>
        <time>2026-08-20T12:30:29Z</time>
      </trkpt>
      <trkpt lat="47.61997" lon="-2.76456">
        <ele>12.1</ele>
        <time>2026-08-20T12:30:30Z</time>
      </trkpt>
      <trkpt lat="47.62" lon="-2.76462">
        <ele>12</ele>
        <time>2026-08-20T12:30:31Z</time>
      </trkpt>
      <trkpt lat="47.62002" lon="-2.7647">
        <ele>11.9</ele>
        <time>2026-08-20T12:30:32Z</time>
      </trkpt>
      <trkpt lat="47.62004" lon="-2.76477">
        <ele>11.9</ele>
        <time>2026-08-20T12:30:33Z</time>
      </trkpt>
      <trkpt lat="47.62006" lon="-2.76484">
        <ele>11.9</ele>
        <time>2026-08-20T12:30:34Z</time>
      </trkpt>
      <trkpt lat="47.62009" lon="-2.7649">
        <ele>11.8</ele>
        <time>2026-08-20T12:30:35Z</time>
      </trkpt>
      <trkpt lat="47.62011" lon="-2.76496">
        <ele>11.7</ele>
        <time>2026-08-20T12:30:36Z</time>
      </trkpt>
      <trkpt lat="47.62013" lon="-2.76504">
        <ele>11.5</ele>
        <time>2026-08-20T12:30:37Z</time>
      </trkpt>
      <trkpt lat="47.62015" lon="-2.76511">
        <ele>11.2</ele>
        <time>2026-08-20T12:30:38Z</time>
      </trkpt>
      <trkpt lat="47.62017" lon="-2.76517">
        <ele>10.9</ele>
        <time>2026-08-20T12:30:39Z</time>
      </trkpt>
      <trkpt lat="47.62019" lon="-2.76524">
        <ele>10.7</ele>
        <time>2026-08-20T12:30:40Z</time>
      </trkpt>
      <trkpt lat="47.62021" lon="-2.76531">
        <ele>10.5</ele>
        <time>2026-08-20T12:30:41Z</time>
      </trkpt>
      <trkpt lat="47.62023" lon="-2.76538">
        <ele>10.6</ele>
        <time>2026-08-20T12:30:42Z</time>
      </trkpt>
      <trkpt lat="47.62026" lon="-2.76544">
        <ele>10.6</ele>
        <time>2026-08-20T12:30:43Z</time>
      </trkpt>
      <trkpt lat="47.62029" lon="-2.7655">
        <ele>10.7</ele>
        <time>2026-08-20T12:30:44Z</time>
      </trkpt>
      <trkpt lat="47.62032" lon="-2.76556">
        <ele>10.7</ele>
        <time>2026-08-20T12:30:45Z</time>
      </trkpt>
      <trkpt lat="47.62035" lon="-2.76563">
        <ele>10.3</ele>
        <time>2026-08-20T12:30:46Z</time>
      </trkpt>
      <trkpt lat="47.62038" lon="-2.76569">
        <ele>10</ele>
        <time>2026-08-20T12:30:47Z</time>
      </trkpt>
      <trkpt lat="47.62041" lon="-2.76576">
        <ele>9.7</ele>
        <time>2026-08-20T12:30:48Z</time>
      </trkpt>
      <trkpt lat="47.62044" lon="-2.76582">
        <ele>9.4</ele>
        <time>2026-08-20T12:30:49Z</time>
      </trkpt>
      <trkpt lat="47.62047" lon="-2.76588">
        <ele>9.4</ele>
        <time>2026-08-20T12:30:50Z</time>
      </trkpt>
      <trkpt lat="47.62051" lon="-2.76595">
        <ele>9.5</ele>
        <time>2026-08-20T12:30:51Z</time>
      </trkpt>
      <trkpt lat="47.62053" lon="-2.76602">
        <ele>9.7</ele>
        <time>2026-08-20T12:30:52Z</time>
      </trkpt>
      <trkpt lat="47.62055" lon="-2.76609">
        <ele>9.9</ele>
        <time>2026-08-20T12:30:53Z</time>
      </trkpt>
      <trkpt lat="47.62056" lon="-2.76617">
        <ele>10</ele>
        <time>2026-08-20T12:30:54Z</time>
      </trkpt>
      <trkpt lat="47.62055" lon="-2.76624">
        <ele>10</ele>
        <time>2026-08-20T12:30:55Z</time>
      </trkpt>
      <trkpt lat="47.62052" lon="-2.76629">
        <ele>10</ele>
        <time>2026-08-20T12:30:56Z</time>
      </trkpt>
      <trkpt lat="47.62048" lon="-2.76634">
        <ele>10</ele>
        <time>2026-08-20T12:30:57Z</time>
      </trkpt>
      <trkpt lat="47.62045" lon="-2.76638">
        <ele>10</ele>
        <time>2026-08-20T12:30:58Z</time>
      </trkpt>
      <trkpt lat="47.62041" lon="-2.76644">
        <ele>9.9</ele>
        <time>2026-08-20T12:30:59Z</time>
      </trkpt>
      <trkpt lat="47.62038" lon="-2.76651">
        <ele>9.8</ele>
        <time>2026-08-20T12:31:00Z</time>
      </trkpt>
      <trkpt lat="47.62036" lon="-2.76658">
        <ele>9.8</ele>
        <time>2026-08-20T12:31:01Z</time>
      </trkpt>
      <trkpt lat="47.62037" lon="-2.76665">
        <ele>9.7</ele>
        <time>2026-08-20T12:31:02Z</time>
      </trkpt>
      <trkpt lat="47.62039" lon="-2.76673">
        <ele>9.5</ele>
        <time>2026-08-20T12:31:03Z</time>
      </trkpt>
      <trkpt lat="47.62041" lon="-2.7668">
        <ele>9.3</ele>
        <time>2026-08-20T12:31:04Z</time>
      </trkpt>
      <trkpt lat="47.62044" lon="-2.76688">
        <ele>9.1</ele>
        <time>2026-08-20T12:31:05Z</time>
      </trkpt>
      <trkpt lat="47.62047" lon="-2.76696">
        <ele>9</ele>
        <time>2026-08-20T12:31:06Z</time>
      </trkpt>
      <trkpt lat="47.6205" lon="-2.76704">
        <ele>8.7</ele>
        <time>2026-08-20T12:31:07Z</time>
      </trkpt>
      <trkpt lat="47.62053" lon="-2.76712">
        <ele>8.4</ele>
        <time>2026-08-20T12:31:08Z</time>
      </trkpt>
      <trkpt lat="47.62056" lon="-2.7672">
        <ele>8.1</ele>
        <time>2026-08-20T12:31:09Z</time>
      </trkpt>
      <trkpt lat="47.62059" lon="-2.76728">
        <ele>8</ele>
        <time>2026-08-20T12:31:10Z</time>
      </trkpt>
      <trkpt lat="47.62062" lon="-2.76737">
        <ele>8</ele>
        <time>2026-08-20T12:31:11Z</time>
      </trkpt>
      <trkpt lat="47.62064" lon="-2.76745">
        <ele>8</ele>
        <time>2026-08-20T12:31:12Z</time>
      </trkpt>
      <trkpt lat="47.62067" lon="-2.76753">
        <ele>7.9</ele>
        <time>2026-08-20T12:31:13Z</time>
      </trkpt>
      <trkpt lat="47.62069" lon="-2.76761">
        <ele>7.6</ele>
        <time>2026-08-20T12:31:14Z</time>
      </trkpt>
      <trkpt lat="47.62071" lon="-2.7677">
        <ele>7.3</ele>
        <time>2026-08-20T12:31:15Z</time>
      </trkpt>
      <trkpt lat="47.62073" lon="-2.76778">
        <ele>7</ele>
        <time>2026-08-20T12:31:16Z</time>
      </trkpt>
      <trkpt lat="47.62076" lon="-2.76785">
        <ele>7.1</ele>
        <time>2026-08-20T12:31:17Z</time>
      </trkpt>
      <trkpt lat="47.62081" lon="-2.76791">
        <ele>7</ele>
        <time>2026-08-20T12:31:18Z</time>
      </trkpt>
      <trkpt lat="47.62086" lon="-2.76795">
        <ele>7.1</ele>
        <time>2026-08-20T12:31:19Z</time>
      </trkpt>
      <trkpt lat="47.62091" lon="-2.76797">
        <ele>7.2</ele>
        <time>2026-08-20T12:31:20Z</time>
      </trkpt>
      <trkpt lat="47.62096" lon="-2.768">
        <ele>7.4</ele>
        <time>2026-08-20T12:31:21Z</time>
      </trkpt>
      <trkpt lat="47.62101" lon="-2.76803">
        <ele>7.6</ele>
        <time>2026-08-20T12:31:22Z</time>
      </trkpt>
      <trkpt lat="47.62106" lon="-2.76806">
        <ele>7.8</ele>
        <time>2026-08-20T12:31:23Z</time>
      </trkpt>
      <trkpt lat="47.6211" lon="-2.7681">
        <ele>8.1</ele>
        <time>2026-08-20T12:31:24Z</time>
      </trkpt>
      <trkpt lat="47.62114" lon="-2.76815">
        <ele>8.5</ele>
        <time>2026-08-20T12:31:25Z</time>
      </trkpt>
      <trkpt lat="47.62117" lon="-2.76819">
        <ele>8.8</ele>
        <time>2026-08-20T12:31:26Z</time>
      </trkpt>
      <trkpt lat="47.62121" lon="-2.76823">
        <ele>9.1</ele>
        <time>2026-08-20T12:31:27Z</time>
      </trkpt>
      <trkpt lat="47.62125" lon="-2.76826">
        <ele>9.4</ele>
        <time>2026-08-20T12:31:28Z</time>
      </trkpt>
      <trkpt lat="47.62129" lon="-2.76829">
        <ele>9.6</ele>
        <time>2026-08-20T12:31:29Z</time>
      </trkpt>
      <trkpt lat="47.62134" lon="-2.76832">
        <ele>9.8</ele>
        <time>2026-08-20T12:31:30Z</time>
      </trkpt>
      <trkpt lat="47.62138" lon="-2.76833">
        <ele>10</ele>
        <time>2026-08-20T12:31:31Z</time>
      </trkpt>
      <trkpt lat="47.62142" lon="-2.76835">
        <ele>9.9</ele>
        <time>2026-08-20T12:31:32Z</time>
      </trkpt>
      <trkpt lat="47.62147" lon="-2.76836">
        <ele>9.9</ele>
        <time>2026-08-20T12:31:33Z</time>
      </trkpt>
      <trkpt lat="47.62151" lon="-2.76838">
        <ele>9.9</ele>
        <time>2026-08-20T12:31:34Z</time>
      </trkpt>
      <trkpt lat="47.62155" lon="-2.7684">
        <ele>9.9</ele>
        <time>2026-08-20T12:31:35Z</time>
      </trkpt>
      <trkpt lat="47.6216" lon="-2.76842">
        <ele>9.9</ele>
        <time>2026-08-20T12:31:36Z</time>
      </trkpt>
      <trkpt lat="47.62164" lon="-2.76846">
        <ele>10</ele>
        <time>2026-08-20T12:31:37Z</time>
      </trkpt>
      <trkpt lat="47.62168" lon="-2.76849">
        <ele>10</ele>
        <time>2026-08-20T12:31:38Z</time>
      </trkpt>
      <trkpt lat="47.62172" lon="-2.76853">
        <ele>9.8</ele>
        <time>2026-08-20T12:31:39Z</time>
      </trkpt>
      <trkpt lat="47.62175" lon="-2.76858">
        <ele>9.7</ele>
        <time>2026-08-20T12:31:40Z</time>
      </trkpt>
      <trkpt lat="47.62178" lon="-2.76862">
        <ele>9.6</ele>
        <time>2026-08-20T12:31:41Z</time>
      </trkpt>
      <trkpt lat="47.62181" lon="-2.76867">
        <ele>9.6</ele>
        <time>2026-08-20T12:31:42Z</time>
      </trkpt>
      <trkpt lat="47.62184" lon="-2.76873">
        <ele>9.6</ele>
        <time>2026-08-20T12:31:43Z</time>
      </trkpt>
      <trkpt lat="47.62186" lon="-2.76878">
        <ele>9.7</ele>
        <time>2026-08-20T12:31:44Z</time>
      </trkpt>
      <trkpt lat="47.62189" lon="-2.76884">
        <ele>9.9</ele>
        <time>2026-08-20T12:31:45Z</time>
      </trkpt>
      <trkpt lat="47.62191" lon="-2.7689">
        <ele>10</ele>
        <time>2026-08-20T12:31:46Z</time>
      </trkpt>
      <trkpt lat="47.62193" lon="-2.76896">
        <ele>10.2</ele>
        <time>2026-08-20T12:31:47Z</time>
      </trkpt>
      <trkpt lat="47.62196" lon="-2.76902">
        <ele>10.4</ele>
        <time>2026-08-20T12:31:48Z</time>
      </trkpt>
      <trkpt lat="47.62198" lon="-2.76908">
        <ele>10.6</ele>
        <time>2026-08-20T12:31:49Z</time>
      </trkpt>
      <trkpt lat="47.622" lon="-2.76914">
        <ele>10.7</ele>
        <time>2026-08-20T12:31:50Z</time>
      </trkpt>
      <trkpt lat="47.62203" lon="-2.7692">
        <ele>10.7</ele>
        <time>2026-08-20T12:31:51Z</time>
      </trkpt>
      <trkpt lat="47.62205" lon="-2.76926">
        <ele>10.6</ele>
        <time>2026-08-20T12:31:52Z</time>
      </trkpt>
      <trkpt lat="47.62207" lon="-2.76932">
        <ele>10.5</ele>
        <time>2026-08-20T12:31:53Z</time>
      </trkpt>
      <trkpt lat="47.62209" lon="-2.76938">
        <ele>10.5</ele>
        <time>2026-08-20T12:31:54Z</time>
      </trkpt>
      <trkpt lat="47.62211" lon="-2.76945">
        <ele>10.4</ele>
        <time>2026-08-20T12:31:55Z</time>
      </trkpt>
      <trkpt lat="47.62213" lon="-2.76951">
        <ele>10.7</ele>
        <time>2026-08-20T12:31:56Z</time>
      </trkpt>
      <trkpt lat="47.62215" lon="-2.76957">
        <ele>11</ele>
        <time>2026-08-20T12:31:57Z</time>
      </trkpt>
      <trkpt lat="47.62217" lon="-2.76962">
        <ele>11.3</ele>
        <time>2026-08-20T12:31:58Z</time>
      </trkpt>
      <trkpt lat="47.62219" lon="-2.76968">
        <ele>11.7</ele>
        <time>2026-08-20T12:31:59Z</time>
      </trkpt>
      <trkpt lat="47.6222" lon="-2.76974">
        <ele>12.1</ele>
        <time>2026-08-20T12:32:00Z</time>
      </trkpt>
      <trkpt lat="47.62222" lon="-2.76979">
        <ele>12.2</ele>
        <time>2026-08-20T12:32:01Z</time>
      </trkpt>
      <trkpt lat="47.62223" lon="-2.76984">
        <ele>12.4</ele>
        <time>2026-08-20T12:32:02Z</time>
      </trkpt>
      <trkpt lat="47.62225" lon="-2.76989">
        <ele>12.4</ele>
        <time>2026-08-20T12:32:03Z</time>
      </trkpt>
      <trkpt lat="47.62227" lon="-2.76994">
        <ele>12.4</ele>
        <time>2026-08-20T12:32:04Z</time>
      </trkpt>
      <trkpt lat="47.62228" lon="-2.77">
        <ele>12.6</ele>
        <time>2026-08-20T12:32:05Z</time>
      </trkpt>
      <trkpt lat="47.6223" lon="-2.77005">
        <ele>12.5</ele>
        <time>2026-08-20T12:32:06Z</time>
      </trkpt>
      <trkpt lat="47.62232" lon="-2.77011">
        <ele>12.4</ele>
        <time>2026-08-20T12:32:07Z</time>
      </trkpt>
      <trkpt lat="47.62234" lon="-2.77016">
        <ele>12.4</ele>
        <time>2026-08-20T12:32:08Z</time>
      </trkpt>
      <trkpt lat="47.62237" lon="-2.77022">
        <ele>12.4</ele>
        <time>2026-08-20T12:32:09Z</time>
      </trkpt>
      <trkpt lat="47.6224" lon="-2.77028">
        <ele>12.4</ele>
        <time>2026-08-20T12:32:10Z</time>
      </trkpt>
      <trkpt lat="47.62242" lon="-2.77034">
        <ele>12.2</ele>
        <time>2026-08-20T12:32:11Z</time>
      </trkpt>
      <trkpt lat="47.62245" lon="-2.7704">
        <ele>12.1</ele>
        <time>2026-08-20T12:32:12Z</time>
      </trkpt>
      <trkpt lat="47.62247" lon="-2.77046">
        <ele>12</ele>
        <time>2026-08-20T12:32:13Z</time>
      </trkpt>
      <trkpt lat="47.6225" lon="-2.77053">
        <ele>12</ele>
        <time>2026-08-20T12:32:14Z</time>
      </trkpt>
      <trkpt lat="47.62252" lon="-2.77059">
        <ele>11.8</ele>
        <time>2026-08-20T12:32:15Z</time>
      </trkpt>
      <trkpt lat="47.62255" lon="-2.77066">
        <ele>11.5</ele>
        <time>2026-08-20T12:32:16Z</time>
      </trkpt>
      <trkpt lat="47.62257" lon="-2.77072">
        <ele>11.4</ele>
        <time>2026-08-20T12:32:17Z</time>
      </trkpt>
      <trkpt lat="47.6226" lon="-2.77078">
        <ele>11.2</ele>
        <time>2026-08-20T12:32:18Z</time>
      </trkpt>
      <trkpt lat="47.62263" lon="-2.77084">
        <ele>11.1</ele>
        <time>2026-08-20T12:32:19Z</time>
      </trkpt>
      <trkpt lat="47.62265" lon="-2.77091">
        <ele>11.2</ele>
        <time>2026-08-20T12:32:20Z</time>
      </trkpt>
      <trkpt lat="47.62268" lon="-2.77097">
        <ele>11.3</ele>
        <time>2026-08-20T12:32:21Z</time>
      </trkpt>
      <trkpt lat="47.6227" lon="-2.77103">
        <ele>11.6</ele>
        <time>2026-08-20T12:32:22Z</time>
      </trkpt>
      <trkpt lat="47.62272" lon="-2.77109">
        <ele>11.9</ele>
        <time>2026-08-20T12:32:23Z</time>
      </trkpt>
      <trkpt lat="47.62274" lon="-2.77116">
        <ele>12</ele>
        <time>2026-08-20T12:32:24Z</time>
      </trkpt>
      <trkpt lat="47.62277" lon="-2.77122">
        <ele>12</ele>
        <time>2026-08-20T12:32:25Z</time>
      </trkpt>
      <trkpt lat="47.62279" lon="-2.77128">
        <ele>11.9</ele>
        <time>2026-08-20T12:32:26Z</time>
      </trkpt>
      <trkpt lat="47.62281" lon="-2.77134">
        <ele>11.6</ele>
        <time>2026-08-20T12:32:27Z</time>
      </trkpt>
      <trkpt lat="47.62283" lon="-2.7714">
        <ele>11.5</ele>
        <time>2026-08-20T12:32:28Z</time>
      </trkpt>
      <trkpt lat="47.62285" lon="-2.77145">
        <ele>11.5</ele>
        <time>2026-08-20T12:32:29Z</time>
      </trkpt>
      <trkpt lat="47.62287" lon="-2.77151">
        <ele>11.6</ele>
        <time>2026-08-20T12:32:30Z</time>
      </trkpt>
      <trkpt lat="47.62289" lon="-2.77157">
        <ele>11.7</ele>
        <time>2026-08-20T12:32:31Z</time>
      </trkpt>
      <trkpt lat="47.62291" lon="-2.77163">
        <ele>11.9</ele>
        <time>2026-08-20T12:32:32Z</time>
      </trkpt>
      <trkpt lat="47.62293" lon="-2.77169">
        <ele>12</ele>
        <time>2026-08-20T12:32:33Z</time>
      </trkpt>
      <trkpt lat="47.62295" lon="-2.77174">
        <ele>12.2</ele>
        <time>2026-08-20T12:32:34Z</time>
      </trkpt>
      <trkpt lat="47.62296" lon="-2.7718">
        <ele>12.5</ele>
        <time>2026-08-20T12:32:35Z</time>
      </trkpt>
      <trkpt lat="47.62298" lon="-2.77185">
        <ele>12.7</ele>
        <time>2026-08-20T12:32:36Z</time>
      </trkpt>
      <trkpt lat="47.623" lon="-2.77191">
        <ele>13</ele>
        <time>2026-08-20T12:32:37Z</time>
      </trkpt>
      <trkpt lat="47.62302" lon="-2.77196">
        <ele>13.1</ele>
        <time>2026-08-20T12:32:38Z</time>
      </trkpt>
      <trkpt lat="47.62304" lon="-2.77202">
        <ele>13.1</ele>
        <time>2026-08-20T12:32:39Z</time>
      </trkpt>
      <trkpt lat="47.62306" lon="-2.77208">
        <ele>12.9</ele>
        <time>2026-08-20T12:32:40Z</time>
      </trkpt>
      <trkpt lat="47.62307" lon="-2.77213">
        <ele>12.8</ele>
        <time>2026-08-20T12:32:41Z</time>
      </trkpt>
      <trkpt lat="47.62309" lon="-2.77219">
        <ele>12.6</ele>
        <time>2026-08-20T12:32:42Z</time>
      </trkpt>
      <trkpt lat="47.62311" lon="-2.77225">
        <ele>12.4</ele>
        <time>2026-08-20T12:32:43Z</time>
      </trkpt>
      <trkpt lat="47.62313" lon="-2.77231">
        <ele>12.2</ele>
        <time>2026-08-20T12:32:44Z</time>
      </trkpt>
      <trkpt lat="47.62314" lon="-2.77238">
        <ele>12.1</ele>
        <time>2026-08-20T12:32:45Z</time>
      </trkpt>
      <trkpt lat="47.62315" lon="-2.77243">
        <ele>12</ele>
        <time>2026-08-20T12:32:46Z</time>
      </trkpt>
      <trkpt lat="47.62315" lon="-2.77249">
        <ele>12</ele>
        <time>2026-08-20T12:32:47Z</time>
      </trkpt>
      <trkpt lat="47.62314" lon="-2.77254">
        <ele>12.2</ele>
        <time>2026-08-20T12:32:48Z</time>
      </trkpt>
      <trkpt lat="47.62311" lon="-2.7726">
        <ele>12.8</ele>
        <time>2026-08-20T12:32:49Z</time>
      </trkpt>
      <trkpt lat="47.62309" lon="-2.77264">
        <ele>13.1</ele>
        <time>2026-08-20T12:32:50Z</time>
      </trkpt>
      <trkpt lat="47.62305" lon="-2.77267">
        <ele>13.6</ele>
        <time>2026-08-20T12:32:51Z</time>
      </trkpt>
      <trkpt lat="47.62302" lon="-2.77271">
        <ele>13.8</ele>
        <time>2026-08-20T12:32:52Z</time>
      </trkpt>
      <trkpt lat="47.62299" lon="-2.77274">
        <ele>13.9</ele>
        <time>2026-08-20T12:32:53Z</time>
      </trkpt>
      <trkpt lat="47.62295" lon="-2.77277">
        <ele>14</ele>
        <time>2026-08-20T12:32:54Z</time>
      </trkpt>
      <trkpt lat="47.62292" lon="-2.7728">
        <ele>14</ele>
        <time>2026-08-20T12:32:55Z</time>
      </trkpt>
      <trkpt lat="47.62289" lon="-2.77283">
        <ele>14</ele>
        <time>2026-08-20T12:32:56Z</time>
      </trkpt>
      <trkpt lat="47.62286" lon="-2.77286">
        <ele>14</ele>
        <time>2026-08-20T12:32:57Z</time>
      </trkpt>
      <trkpt lat="47.62283" lon="-2.7729">
        <ele>14</ele>
        <time>2026-08-20T12:32:58Z</time>
      </trkpt>
      <trkpt lat="47.6228" lon="-2.77293">
        <ele>14</ele>
        <time>2026-08-20T12:32:59Z</time>
      </trkpt>
      <trkpt lat="47.62277" lon="-2.77297">
        <ele>14</ele>
        <time>2026-08-20T12:33:00Z</time>
      </trkpt>
      <trkpt lat="47.62275" lon="-2.77302">
        <ele>14</ele>
        <time>2026-08-20T12:33:01Z</time>
      </trkpt>
      <trkpt lat="47.62274" lon="-2.77307">
        <ele>14</ele>
        <time>2026-08-20T12:33:02Z</time>
      </trkpt>
      <trkpt lat="47.62275" lon="-2.77312">
        <ele>14.2</ele>
        <time>2026-08-20T12:33:03Z</time>
      </trkpt>
      <trkpt lat="47.62278" lon="-2.77316">
        <ele>14.4</ele>
        <time>2026-08-20T12:33:04Z</time>
      </trkpt>
      <trkpt lat="47.62281" lon="-2.77318">
        <ele>14.4</ele>
        <time>2026-08-20T12:33:05Z</time>
      </trkpt>
      <trkpt lat="47.62284" lon="-2.77321">
        <ele>14.6</ele>
        <time>2026-08-20T12:33:06Z</time>
      </trkpt>
      <trkpt lat="47.62286" lon="-2.77323">
        <ele>14.6</ele>
        <time>2026-08-20T12:33:07Z</time>
      </trkpt>
      <trkpt lat="47.62289" lon="-2.77326">
        <ele>14.7</ele>
        <time>2026-08-20T12:33:08Z</time>
      </trkpt>
      <trkpt lat="47.62292" lon="-2.77328">
        <ele>14.8</ele>
        <time>2026-08-20T12:33:09Z</time>
      </trkpt>
      <trkpt lat="47.62295" lon="-2.7733">
        <ele>14.9</ele>
        <time>2026-08-20T12:33:10Z</time>
      </trkpt>
      <trkpt lat="47.62298" lon="-2.77333">
        <ele>15</ele>
        <time>2026-08-20T12:33:11Z</time>
      </trkpt>
      <trkpt lat="47.623" lon="-2.77336">
        <ele>15.1</ele>
        <time>2026-08-20T12:33:12Z</time>
      </trkpt>
      <trkpt lat="47.62303" lon="-2.7734">
        <ele>15.2</ele>
        <time>2026-08-20T12:33:13Z</time>
      </trkpt>
      <trkpt lat="47.62305" lon="-2.77345">
        <ele>15.4</ele>
        <time>2026-08-20T12:33:14Z</time>
      </trkpt>
      <trkpt lat="47.62306" lon="-2.77351">
        <ele>15.6</ele>
        <time>2026-08-20T12:33:15Z</time>
      </trkpt>
      <trkpt lat="47.62308" lon="-2.77356">
        <ele>15.7</ele>
        <time>2026-08-20T12:33:16Z</time>
      </trkpt>
      <trkpt lat="47.62309" lon="-2.77361">
        <ele>15.9</ele>
        <time>2026-08-20T12:33:17Z</time>
      </trkpt>
      <trkpt lat="47.6231" lon="-2.77367">
        <ele>15.8</ele>
        <time>2026-08-20T12:33:18Z</time>
      </trkpt>
      <trkpt lat="47.62311" lon="-2.77372">
        <ele>15.8</ele>
        <time>2026-08-20T12:33:19Z</time>
      </trkpt>
      <trkpt lat="47.62313" lon="-2.77378">
        <ele>15.7</ele>
        <time>2026-08-20T12:33:20Z</time>
      </trkpt>
      <trkpt lat="47.62314" lon="-2.77382">
        <ele>15.7</ele>
        <time>2026-08-20T12:33:21Z</time>
      </trkpt>
      <trkpt lat="47.62315" lon="-2.77386">
        <ele>15.7</ele>
        <time>2026-08-20T12:33:22Z</time>
      </trkpt>
      <trkpt lat="47.62315" lon="-2.7739">
        <ele>15.6</ele>
        <time>2026-08-20T12:33:23Z</time>
      </trkpt>
      <trkpt lat="47.62317" lon="-2.77395">
        <ele>15.5</ele>
        <time>2026-08-20T12:33:24Z</time>
      </trkpt>
      <trkpt lat="47.62318" lon="-2.77399">
        <ele>15.4</ele>
        <time>2026-08-20T12:33:25Z</time>
      </trkpt>
      <trkpt lat="47.6232" lon="-2.77405">
        <ele>15.2</ele>
        <time>2026-08-20T12:33:26Z</time>
      </trkpt>
      <trkpt lat="47.62321" lon="-2.77411">
        <ele>15.1</ele>
        <time>2026-08-20T12:33:27Z</time>
      </trkpt>
      <trkpt lat="47.62321" lon="-2.77417">
        <ele>15</ele>
        <time>2026-08-20T12:33:28Z</time>
      </trkpt>
      <trkpt lat="47.62321" lon="-2.77424">
        <ele>15</ele>
        <time>2026-08-20T12:33:29Z</time>
      </trkpt>
      <trkpt lat="47.62322" lon="-2.7743">
        <ele>15</ele>
        <time>2026-08-20T12:33:30Z</time>
      </trkpt>
      <trkpt lat="47.62324" lon="-2.77437">
        <ele>15</ele>
        <time>2026-08-20T12:33:31Z</time>
      </trkpt>
      <trkpt lat="47.62327" lon="-2.77443">
        <ele>15</ele>
        <time>2026-08-20T12:33:32Z</time>
      </trkpt>
      <trkpt lat="47.62329" lon="-2.77449">
        <ele>14.8</ele>
        <time>2026-08-20T12:33:33Z</time>
      </trkpt>
      <trkpt lat="47.62331" lon="-2.77455">
        <ele>14.6</ele>
        <time>2026-08-20T12:33:34Z</time>
      </trkpt>
      <trkpt lat="47.62333" lon="-2.77461">
        <ele>14.4</ele>
        <time>2026-08-20T12:33:35Z</time>
      </trkpt>
      <trkpt lat="47.62336" lon="-2.77467">
        <ele>14.2</ele>
        <time>2026-08-20T12:33:36Z</time>
      </trkpt>
      <trkpt lat="47.62339" lon="-2.77472">
        <ele>14.2</ele>
        <time>2026-08-20T12:33:37Z</time>
      </trkpt>
      <trkpt lat="47.62342" lon="-2.77478">
        <ele>14.2</ele>
        <time>2026-08-20T12:33:38Z</time>
      </trkpt>
      <trkpt lat="47.62345" lon="-2.77483">
        <ele>14.3</ele>
        <time>2026-08-20T12:33:39Z</time>
      </trkpt>
      <trkpt lat="47.62347" lon="-2.77488">
        <ele>14.2</ele>
        <time>2026-08-20T12:33:40Z</time>
      </trkpt>
      <trkpt lat="47.6235" lon="-2.77493">
        <ele>14.2</ele>
        <time>2026-08-20T12:33:41Z</time>
      </trkpt>
      <trkpt lat="47.62353" lon="-2.77498">
        <ele>14.1</ele>
        <time>2026-08-20T12:33:42Z</time>
      </trkpt>
      <trkpt lat="47.62355" lon="-2.77503">
        <ele>14</ele>
        <time>2026-08-20T12:33:43Z</time>
      </trkpt>
      <trkpt lat="47.62358" lon="-2.77507">
        <ele>14</ele>
        <time>2026-08-20T12:33:44Z</time>
      </trkpt>
      <trkpt lat="47.62361" lon="-2.77509">
        <ele>14</ele>
        <time>2026-08-20T12:33:45Z</time>
      </trkpt>
      <trkpt lat="47.62365" lon="-2.7751">
        <ele>14.1</ele>
        <time>2026-08-20T12:33:46Z</time>
      </trkpt>
      <trkpt lat="47.62368" lon="-2.7751">
        <ele>14.2</ele>
        <time>2026-08-20T12:33:47Z</time>
      </trkpt>
      <trkpt lat="47.62372" lon="-2.7751">
        <ele>14.3</ele>
        <time>2026-08-20T12:33:48Z</time>
      </trkpt>
      <trkpt lat="47.62376" lon="-2.77509">
        <ele>14.4</ele>
        <time>2026-08-20T12:33:49Z</time>
      </trkpt>
      <trkpt lat="47.6238" lon="-2.77509">
        <ele>14.5</ele>
        <time>2026-08-20T12:33:50Z</time>
      </trkpt>
      <trkpt lat="47.62383" lon="-2.77508">
        <ele>14.6</ele>
        <time>2026-08-20T12:33:51Z</time>
      </trkpt>
      <trkpt lat="47.62387" lon="-2.77506">
        <ele>14.7</ele>
        <time>2026-08-20T12:33:52Z</time>
      </trkpt>
      <trkpt lat="47.62391" lon="-2.77505">
        <ele>14.8</ele>
        <time>2026-08-20T12:33:53Z</time>
      </trkpt>
      <trkpt lat="47.62395" lon="-2.77503">
        <ele>14.9</ele>
        <time>2026-08-20T12:33:54Z</time>
      </trkpt>
      <trkpt lat="47.62399" lon="-2.77501">
        <ele>15</ele>
        <time>2026-08-20T12:33:55Z</time>
      </trkpt>
      <trkpt lat="47.62403" lon="-2.77499">
        <ele>15</ele>
        <time>2026-08-20T12:33:56Z</time>
      </trkpt>
      <trkpt lat="47.62407" lon="-2.77497">
        <ele>14.9</ele>
        <time>2026-08-20T12:33:57Z</time>
      </trkpt>
      <trkpt lat="47.62411" lon="-2.77495">
        <ele>14.9</ele>
        <time>2026-08-20T12:33:58Z</time>
      </trkpt>
      <trkpt lat="47.62415" lon="-2.77494">
        <ele>14.8</ele>
        <time>2026-08-20T12:33:59Z</time>
      </trkpt>
      <trkpt lat="47.62419" lon="-2.77493">
        <ele>14.6</ele>
        <time>2026-08-20T12:34:00Z</time>
      </trkpt>
      <trkpt lat="47.62424" lon="-2.77492">
        <ele>14.2</ele>
        <time>2026-08-20T12:34:01Z</time>
      </trkpt>
      <trkpt lat="47.62428" lon="-2.7749">
        <ele>13.8</ele>
        <time>2026-08-20T12:34:02Z</time>
      </trkpt>
      <trkpt lat="47.62433" lon="-2.77489">
        <ele>13.4</ele>
        <time>2026-08-20T12:34:03Z</time>
      </trkpt>
      <trkpt lat="47.62438" lon="-2.77486">
        <ele>13</ele>
        <time>2026-08-20T12:34:04Z</time>
      </trkpt>
      <trkpt lat="47.62443" lon="-2.77484">
        <ele>12.5</ele>
        <time>2026-08-20T12:34:05Z</time>
      </trkpt>
      <trkpt lat="47.62449" lon="-2.77482">
        <ele>11.9</ele>
        <time>2026-08-20T12:34:06Z</time>
      </trkpt>
      <trkpt lat="47.62455" lon="-2.77479">
        <ele>11.3</ele>
        <time>2026-08-20T12:34:07Z</time>
      </trkpt>
      <trkpt lat="47.62461" lon="-2.77477">
        <ele>10.8</ele>
        <time>2026-08-20T12:34:08Z</time>
      </trkpt>
      <trkpt lat="47.62468" lon="-2.77475">
        <ele>10.2</ele>
        <time>2026-08-20T12:34:09Z</time>
      </trkpt>
      <trkpt lat="47.62476" lon="-2.77473">
        <ele>9.6</ele>
        <time>2026-08-20T12:34:10Z</time>
      </trkpt>
      <trkpt lat="47.62483" lon="-2.77473">
        <ele>8.8</ele>
        <time>2026-08-20T12:34:11Z</time>
      </trkpt>
      <trkpt lat="47.62491" lon="-2.77473">
        <ele>7.9</ele>
        <time>2026-08-20T12:34:12Z</time>
      </trkpt>
      <trkpt lat="47.62498" lon="-2.77474">
        <ele>7.2</ele>
        <time>2026-08-20T12:34:13Z</time>
      </trkpt>
      <trkpt lat="47.62505" lon="-2.77475">
        <ele>6.4</ele>
        <time>2026-08-20T12:34:14Z</time>
      </trkpt>
      <trkpt lat="47.62511" lon="-2.77477">
        <ele>5.8</ele>
        <time>2026-08-20T12:34:15Z</time>
      </trkpt>
      <trkpt lat="47.62516" lon="-2.7748">
        <ele>5.3</ele>
        <time>2026-08-20T12:34:16Z</time>
      </trkpt>
      <trkpt lat="47.62521" lon="-2.77482">
        <ele>4.9</ele>
        <time>2026-08-20T12:34:17Z</time>
      </trkpt>
      <trkpt lat="47.62525" lon="-2.77484">
        <ele>4.6</ele>
        <time>2026-08-20T12:34:18Z</time>
      </trkpt>
      <trkpt lat="47.62529" lon="-2.77485">
        <ele>4.3</ele>
        <time>2026-08-20T12:34:19Z</time>
      </trkpt>
      <trkpt lat="47.62532" lon="-2.77485">
        <ele>3.9</ele>
        <time>2026-08-20T12:34:20Z</time>
      </trkpt>
      <trkpt lat="47.62535" lon="-2.77485">
        <ele>3.6</ele>
        <time>2026-08-20T12:34:21Z</time>
      </trkpt>
      <trkpt lat="47.62537" lon="-2.77484">
        <ele>3.3</ele>
        <time>2026-08-20T12:34:22Z</time>
      </trkpt>
      <trkpt lat="47.6254" lon="-2.77484">
        <ele>2.9</ele>
        <time>2026-08-20T12:34:23Z</time>
      </trkpt>
      <trkpt lat="47.62541" lon="-2.77484">
        <ele>2.8</ele>
        <time>2026-08-20T12:34:24Z</time>
      </trkpt>
      <trkpt lat="47.62543" lon="-2.77484">
        <ele>2.5</ele>
        <time>2026-08-20T12:34:25Z</time>
      </trkpt>
      <trkpt lat="47.62544" lon="-2.77484">
        <ele>2.4</ele>
        <time>2026-08-20T12:34:26Z</time>
      </trkpt>
      <trkpt lat="47.62545" lon="-2.77484">
        <ele>2.3</ele>
        <time>2026-08-20T12:34:27Z</time>
      </trkpt>
      <trkpt lat="47.62546" lon="-2.77484">
        <ele>2.2</ele>
        <time>2026-08-20T12:34:28Z</time>
      </trkpt>
      <trkpt lat="47.62546" lon="-2.77484">
        <ele>2.2</ele>
        <time>2026-08-20T12:34:29Z</time>
      </trkpt>
      <trkpt lat="47.62585" lon="-2.77494">
        <time>2026-08-20T12:41:37Z</time>
      </trkpt>
      <trkpt lat="47.62586" lon="-2.77494">
        <time>2026-08-20T12:41:38Z</time>
      </trkpt>
      <trkpt lat="47.62588" lon="-2.77494">
        <time>2026-08-20T12:41:39Z</time>
      </trkpt>
      <trkpt lat="47.62589" lon="-2.77494">
        <time>2026-08-20T12:41:40Z</time>
      </trkpt>
      <trkpt lat="47.62591" lon="-2.77494">
        <time>2026-08-20T12:41:41Z</time>
      </trkpt>
      <trkpt lat="47.62593" lon="-2.77494">
        <time>2026-08-20T12:41:42Z</time>
      </trkpt>
      <trkpt lat="47.62594" lon="-2.77494">
        <time>2026-08-20T12:41:43Z</time>
      </trkpt>
      <trkpt lat="47.62596" lon="-2.77494">
        <time>2026-08-20T12:41:44Z</time>
      </trkpt>
      <trkpt lat="47.62598" lon="-2.77494">
        <time>2026-08-20T12:41:45Z</time>
      </trkpt>
      <trkpt lat="47.626" lon="-2.77493">
        <time>2026-08-20T12:41:46Z</time>
      </trkpt>
      <trkpt lat="47.62601" lon="-2.77492">
        <time>2026-08-20T12:41:47Z</time>
      </trkpt>
      <trkpt lat="47.62603" lon="-2.77491">
        <time>2026-08-20T12:41:48Z</time>
      </trkpt>
      <trkpt lat="47.62604" lon="-2.77489">
        <time>2026-08-20T12:41:49Z</time>
      </trkpt>
      <trkpt lat="47.62605" lon="-2.77488">
        <time>2026-08-20T12:41:50Z</time>
      </trkpt>
      <trkpt lat="47.62606" lon="-2.77486">
        <time>2026-08-20T12:41:51Z</time>
      </trkpt>
      <trkpt lat="47.62606" lon="-2.77484">
        <time>2026-08-20T12:41:52Z</time>
      </trkpt>
      <trkpt lat="47.62606" lon="-2.77483">
        <time>2026-08-20T12:41:53Z</time>
      </trkpt>
      <trkpt lat="47.62606" lon="-2.77481">
        <time>2026-08-20T12:41:54Z</time>
      </trkpt>
      <trkpt lat="47.62605" lon="-2.77481">
        <time>2026-08-20T12:41:55Z</time>
      </trkpt>
      <trkpt lat="47.62605" lon="-2.77481">
        <time>2026-08-20T12:41:56Z</time>
      </trkpt>
      <trkpt lat="47.62609" lon="-2.77486">
        <time>2026-08-20T12:42:00Z</time>
      </trkpt>
      <trkpt lat="47.62611" lon="-2.77487">
        <time>2026-08-20T12:42:01Z</time>
      </trkpt>
      <trkpt lat="47.62614" lon="-2.77489">
        <time>2026-08-20T12:42:02Z</time>
      </trkpt>
      <trkpt lat="47.62617" lon="-2.7749">
        <time>2026-08-20T12:42:03Z</time>
      </trkpt>
      <trkpt lat="47.62619" lon="-2.77493">
        <time>2026-08-20T12:42:04Z</time>
      </trkpt>
      <trkpt lat="47.62622" lon="-2.77495">
        <time>2026-08-20T12:42:05Z</time>
      </trkpt>
      <trkpt lat="47.62625" lon="-2.77498">
        <time>2026-08-20T12:42:06Z</time>
      </trkpt>
      <trkpt lat="47.62627" lon="-2.77501">
        <time>2026-08-20T12:42:07Z</time>
      </trkpt>
      <trkpt lat="47.62629" lon="-2.77504">
        <time>2026-08-20T12:42:08Z</time>
      </trkpt>
      <trkpt lat="47.62631" lon="-2.77507">
        <time>2026-08-20T12:42:09Z</time>
      </trkpt>
      <trkpt lat="47.62632" lon="-2.7751">
        <time>2026-08-20T12:42:10Z</time>
      </trkpt>
      <trkpt lat="47.62634" lon="-2.77514">
        <time>2026-08-20T12:42:11Z</time>
      </trkpt>
      <trkpt lat="47.62636" lon="-2.77518">
        <time>2026-08-20T12:42:12Z</time>
      </trkpt>
      <trkpt lat="47.62637" lon="-2.77521">
        <time>2026-08-20T12:42:13Z</time>
      </trkpt>
      <trkpt lat="47.62639" lon="-2.77525">
        <time>2026-08-20T12:42:14Z</time>
      </trkpt>
      <trkpt lat="47.6264" lon="-2.77529">
        <time>2026-08-20T12:42:15Z</time>
      </trkpt>
      <trkpt lat="47.62642" lon="-2.77532">
        <time>2026-08-20T12:42:16Z</time>
      </trkpt>
      <trkpt lat="47.62643" lon="-2.77536">
        <time>2026-08-20T12:42:17Z</time>
      </trkpt>
      <trkpt lat="47.62645" lon="-2.77539">
        <time>2026-08-20T12:42:18Z</time>
      </trkpt>
      <trkpt lat="47.62646" lon="-2.77543">
        <time>2026-08-20T12:42:19Z</time>
      </trkpt>
      <trkpt lat="47.62648" lon="-2.77547">
        <time>2026-08-20T12:42:20Z</time>
      </trkpt>
      <trkpt lat="47.62649" lon="-2.77551">
        <time>2026-08-20T12:42:21Z</time>
      </trkpt>
      <trkpt lat="47.6265" lon="-2.77555">
        <time>2026-08-20T12:42:22Z</time>
      </trkpt>
      <trkpt lat="47.62651" lon="-2.77559">
        <time>2026-08-20T12:42:23Z</time>
      </trkpt>
      <trkpt lat="47.62652" lon="-2.77564">
        <time>2026-08-20T12:42:24Z</time>
      </trkpt>
      <trkpt lat="47.62653" lon="-2.77568">
        <time>2026-08-20T12:42:25Z</time>
      </trkpt>
      <trkpt lat="47.62654" lon="-2.77572">
        <time>2026-08-20T12:42:26Z</time>
      </trkpt>
      <trkpt lat="47.62655" lon="-2.77577">
        <time>2026-08-20T12:42:27Z</time>
      </trkpt>
      <trkpt lat="47.62655" lon="-2.77581">
        <time>2026-08-20T12:42:28Z</time>
      </trkpt>
      <trkpt lat="47.62656" lon="-2.77586">
        <time>2026-08-20T12:42:29Z</time>
      </trkpt>
      <trkpt lat="47.62656" lon="-2.7759">
        <time>2026-08-20T12:42:30Z</time>
      </trkpt>
      <trkpt lat="47.62656" lon="-2.77595">
        <time>2026-08-20T12:42:31Z</time>
      </trkpt>
      <trkpt lat="47.62657" lon="-2.77599">
        <time>2026-08-20T12:42:32Z</time>
      </trkpt>
      <trkpt lat="47.62657" lon="-2.77604">
        <time>2026-08-20T12:42:33Z</time>
      </trkpt>
      <trkpt lat="47.62657" lon="-2.77609">
        <time>2026-08-20T12:42:34Z</time>
      </trkpt>
      <trkpt lat="47.62657" lon="-2.77613">
        <time>2026-08-20T12:42:35Z</time>
      </trkpt>
      <trkpt lat="47.62657" lon="-2.77618">
        <time>2026-08-20T12:42:36Z</time>
      </trkpt>
      <trkpt lat="47.62657" lon="-2.77622">
        <time>2026-08-20T12:42:37Z</time>
      </trkpt>
      <trkpt lat="47.62657" lon="-2.77627">
        <time>2026-08-20T12:42:38Z</time>
      </trkpt>
      <trkpt lat="47.62657" lon="-2.77631">
        <time>2026-08-20T12:42:39Z</time>
      </trkpt>
      <trkpt lat="47.62658" lon="-2.77635">
        <time>2026-08-20T12:42:40Z</time>
      </trkpt>
      <trkpt lat="47.62658" lon="-2.7764">
        <time>2026-08-20T12:42:41Z</time>
      </trkpt>
      <trkpt lat="47.62658" lon="-2.77644">
        <time>2026-08-20T12:42:42Z</time>
      </trkpt>
      <trkpt lat="47.62659" lon="-2.77648">
        <time>2026-08-20T12:42:43Z</time>
      </trkpt>
      <trkpt lat="47.62659" lon="-2.77653">
        <time>2026-08-20T12:42:44Z</time>
      </trkpt>
      <trkpt lat="47.6266" lon="-2.77657">
        <time>2026-08-20T12:42:45Z</time>
      </trkpt>
      <trkpt lat="47.6266" lon="-2.77662">
        <time>2026-08-20T12:42:46Z</time>
      </trkpt>
      <trkpt lat="47.62661" lon="-2.77666">
        <time>2026-08-20T12:42:47Z</time>
      </trkpt>
      <trkpt lat="47.62661" lon="-2.7767">
        <ele>4</ele>
        <time>2026-08-20T12:42:48Z</time>
      </trkpt>
      <trkpt lat="47.62662" lon="-2.77675">
        <ele>4</ele>
        <time>2026-08-20T12:42:49Z</time>
      </trkpt>
      <trkpt lat="47.62663" lon="-2.77679">
        <ele>4</ele>
        <time>2026-08-20T12:42:50Z</time>
      </trkpt>
      <trkpt lat="47.62664" lon="-2.77683">
        <ele>4</ele>
        <time>2026-08-20T12:42:51Z</time>
      </trkpt>
      <trkpt lat="47.62664" lon="-2.77687">
        <ele>4</ele>
        <time>2026-08-20T12:42:52Z</time>
      </trkpt>
      <trkpt lat="47.62665" lon="-2.7769">
        <ele>4</ele>
        <time>2026-08-20T12:42:53Z</time>
      </trkpt>
      <trkpt lat="47.62666" lon="-2.77695">
        <ele>4</ele>
        <time>2026-08-20T12:42:54Z</time>
      </trkpt>
      <trkpt lat="47.62666" lon="-2.77699">
        <ele>4</ele>
        <time>2026-08-20T12:42:55Z</time>
      </trkpt>
      <trkpt lat="47.62667" lon="-2.77703">
        <time>2026-08-20T12:42:56Z</time>
      </trkpt>
      <trkpt lat="47.62667" lon="-2.77707">
        <time>2026-08-20T12:42:57Z</time>
      </trkpt>
      <trkpt lat="47.62668" lon="-2.7771">
        <time>2026-08-20T12:42:58Z</time>
      </trkpt>
      <trkpt lat="47.62669" lon="-2.77714">
        <time>2026-08-20T12:42:59Z</time>
      </trkpt>
      <trkpt lat="47.62669" lon="-2.77717">
        <time>2026-08-20T12:43:00Z</time>
      </trkpt>
      <trkpt lat="47.6267" lon="-2.77721">
        <time>2026-08-20T12:43:01Z</time>
      </trkpt>
      <trkpt lat="47.62671" lon="-2.77724">
        <time>2026-08-20T12:43:02Z</time>
      </trkpt>
      <trkpt lat="47.62672" lon="-2.77728">
        <time>2026-08-20T12:43:03Z</time>
      </trkpt>
      <trkpt lat="47.62672" lon="-2.77731">
        <time>2026-08-20T12:43:04Z</time>
      </trkpt>
      <trkpt lat="47.62673" lon="-2.77735">
        <time>2026-08-20T12:43:05Z</time>
      </trkpt>
      <trkpt lat="47.62674" lon="-2.77738">
        <time>2026-08-20T12:43:06Z</time>
      </trkpt>
      <trkpt lat="47.62676" lon="-2.77741">
        <time>2026-08-20T12:43:07Z</time>
      </trkpt>
      <trkpt lat="47.62677" lon="-2.77744">
        <time>2026-08-20T12:43:08Z</time>
      </trkpt>
      <trkpt lat="47.62679" lon="-2.77746">
        <time>2026-08-20T12:43:09Z</time>
      </trkpt>
      <trkpt lat="47.62681" lon="-2.77749">
        <time>2026-08-20T12:43:10Z</time>
      </trkpt>
      <trkpt lat="47.62683" lon="-2.77751">
        <time>2026-08-20T12:43:11Z</time>
      </trkpt>
      <trkpt lat="47.62685" lon="-2.77753">
        <time>2026-08-20T12:43:12Z</time>
      </trkpt>
      <trkpt lat="47.62688" lon="-2.77754">
        <time>2026-08-20T12:43:13Z</time>
      </trkpt>
      <trkpt lat="47.6269" lon="-2.77756">
        <time>2026-08-20T12:43:14Z</time>
      </trkpt>
      <trkpt lat="47.62692" lon="-2.77757">
        <time>2026-08-20T12:43:15Z</time>
      </trkpt>
      <trkpt lat="47.62694" lon="-2.77757">
        <time>2026-08-20T12:43:16Z</time>
      </trkpt>
      <trkpt lat="47.62697" lon="-2.77758">
        <time>2026-08-20T12:43:17Z</time>
      </trkpt>
      <trkpt lat="47.62699" lon="-2.77758">
        <time>2026-08-20T12:43:18Z</time>
      </trkpt>
      <trkpt lat="47.62701" lon="-2.77757">
        <time>2026-08-20T12:43:19Z</time>
      </trkpt>
      <trkpt lat="47.62702" lon="-2.77756">
        <time>2026-08-20T12:43:20Z</time>
      </trkpt>
      <trkpt lat="47.62704" lon="-2.77754">
        <time>2026-08-20T12:43:21Z</time>
      </trkpt>
      <trkpt lat="47.62706" lon="-2.77752">
        <time>2026-08-20T12:43:22Z</time>
      </trkpt>
      <trkpt lat="47.62708" lon="-2.7775">
        <ele>1</ele>
        <time>2026-08-20T12:43:23Z</time>
      </trkpt>
      <trkpt lat="47.62709" lon="-2.77748">
        <ele>1</ele>
        <time>2026-08-20T12:43:24Z</time>
      </trkpt>
      <trkpt lat="47.6271" lon="-2.77747">
        <ele>1</ele>
        <time>2026-08-20T12:43:25Z</time>
      </trkpt>
      <trkpt lat="47.62711" lon="-2.77744">
        <ele>1</ele>
        <time>2026-08-20T12:43:26Z</time>
      </trkpt>
      <trkpt lat="47.62712" lon="-2.77742">
        <ele>1</ele>
        <time>2026-08-20T12:43:27Z</time>
      </trkpt>
      <trkpt lat="47.62713" lon="-2.77741">
        <ele>1</ele>
        <time>2026-08-20T12:43:28Z</time>
      </trkpt>
      <trkpt lat="47.62714" lon="-2.77739">
        <ele>1</ele>
        <time>2026-08-20T12:43:29Z</time>
      </trkpt>
      <trkpt lat="47.62715" lon="-2.77738">
        <ele>1</ele>
        <time>2026-08-20T12:43:30Z</time>
      </trkpt>
      <trkpt lat="47.62715" lon="-2.77738">
        <ele>1</ele>
        <time>2026-08-20T12:43:31Z</time>
      </trkpt>
      <trkpt lat="47.62716" lon="-2.77737">
        <ele>1</ele>
        <time>2026-08-20T12:43:32Z</time>
      </trkpt>
      <trkpt lat="47.62728" lon="-2.77726">
        <ele>1.2</ele>
        <time>2026-08-20T12:44:47Z</time>
      </trkpt>
      <trkpt lat="47.62729" lon="-2.77725">
        <ele>1.2</ele>
        <time>2026-08-20T12:44:48Z</time>
      </trkpt>
      <trkpt lat="47.6273" lon="-2.77724">
        <ele>1.3</ele>
        <time>2026-08-20T12:44:49Z</time>
      </trkpt>
      <trkpt lat="47.62732" lon="-2.77724">
        <ele>1.3</ele>
        <time>2026-08-20T12:44:50Z</time>
      </trkpt>
      <trkpt lat="47.62733" lon="-2.77723">
        <ele>1.4</ele>
        <time>2026-08-20T12:44:51Z</time>
      </trkpt>
      <trkpt lat="47.62734" lon="-2.77722">
        <ele>1.4</ele>
        <time>2026-08-20T12:44:52Z</time>
      </trkpt>
      <trkpt lat="47.62735" lon="-2.77721">
        <ele>1.5</ele>
        <time>2026-08-20T12:44:53Z</time>
      </trkpt>
      <trkpt lat="47.62736" lon="-2.7772">
        <ele>1.6</ele>
        <time>2026-08-20T12:44:54Z</time>
      </trkpt>
      <trkpt lat="47.62737" lon="-2.77719">
        <ele>1.7</ele>
        <time>2026-08-20T12:44:55Z</time>
      </trkpt>
      <trkpt lat="47.62738" lon="-2.77718">
        <ele>1.7</ele>
        <time>2026-08-20T12:44:56Z</time>
      </trkpt>
      <trkpt lat="47.62739" lon="-2.77717">
        <ele>1.8</ele>
        <time>2026-08-20T12:44:57Z</time>
      </trkpt>
      <trkpt lat="47.6274" lon="-2.77717">
        <ele>1.9</ele>
        <time>2026-08-20T12:44:58Z</time>
      </trkpt>
      <trkpt lat="47.62741" lon="-2.77716">
        <ele>2</ele>
        <time>2026-08-20T12:44:59Z</time>
      </trkpt>
      <trkpt lat="47.62741" lon="-2.77715">
        <ele>2</ele>
        <time>2026-08-20T12:45:00Z</time>
      </trkpt>
      <trkpt lat="47.62742" lon="-2.77713">
        <ele>2.2</ele>
        <time>2026-08-20T12:45:01Z</time>
      </trkpt>
      <trkpt lat="47.62743" lon="-2.77712">
        <ele>2.3</ele>
        <time>2026-08-20T12:45:02Z</time>
      </trkpt>
      <trkpt lat="47.62743" lon="-2.77712">
        <ele>2.3</ele>
        <time>2026-08-20T12:45:03Z</time>
      </trkpt>
      <trkpt lat="47.62743" lon="-2.77712">
        <ele>2.3</ele>
        <time>2026-08-20T12:45:04Z</time>
      </trkpt>
      <trkpt lat="47.62752" lon="-2.77717">
        <ele>2.4</ele>
        <time>2026-08-20T12:46:11Z</time>
      </trkpt>
      <trkpt lat="47.62754" lon="-2.77719">
        <ele>2.3</ele>
        <time>2026-08-20T12:46:12Z</time>
      </trkpt>
      <trkpt lat="47.62756" lon="-2.77721">
        <ele>2.3</ele>
        <time>2026-08-20T12:46:13Z</time>
      </trkpt>
      <trkpt lat="47.62758" lon="-2.77723">
        <ele>2.3</ele>
        <time>2026-08-20T12:46:14Z</time>
      </trkpt>
      <trkpt lat="47.6276" lon="-2.77724">
        <ele>2.3</ele>
        <time>2026-08-20T12:46:15Z</time>
      </trkpt>
      <trkpt lat="47.62762" lon="-2.77726">
        <ele>2.4</ele>
        <time>2026-08-20T12:46:16Z</time>
      </trkpt>
      <trkpt lat="47.62763" lon="-2.77728">
        <ele>2.4</ele>
        <time>2026-08-20T12:46:17Z</time>
      </trkpt>
      <trkpt lat="47.62765" lon="-2.77729">
        <ele>2.4</ele>
        <time>2026-08-20T12:46:18Z</time>
      </trkpt>
      <trkpt lat="47.62767" lon="-2.77731">
        <ele>2.5</ele>
        <time>2026-08-20T12:46:19Z</time>
      </trkpt>
      <trkpt lat="47.62768" lon="-2.77732">
        <ele>2.5</ele>
        <time>2026-08-20T12:46:20Z</time>
      </trkpt>
      <trkpt lat="47.62769" lon="-2.77734">
        <ele>2.6</ele>
        <time>2026-08-20T12:46:21Z</time>
      </trkpt>
      <trkpt lat="47.6277" lon="-2.77735">
        <ele>2.6</ele>
        <time>2026-08-20T12:46:22Z</time>
      </trkpt>
      <trkpt lat="47.62772" lon="-2.77737">
        <ele>2.7</ele>
        <time>2026-08-20T12:46:23Z</time>
      </trkpt>
      <trkpt lat="47.62773" lon="-2.77739">
        <ele>2.7</ele>
        <time>2026-08-20T12:46:24Z</time>
      </trkpt>
      <trkpt lat="47.62774" lon="-2.77742">
        <ele>2.8</ele>
        <time>2026-08-20T12:46:25Z</time>
      </trkpt>
      <trkpt lat="47.62775" lon="-2.77744">
        <ele>2.8</ele>
        <time>2026-08-20T12:46:26Z</time>
      </trkpt>
      <trkpt lat="47.62776" lon="-2.77747">
        <ele>2.9</ele>
        <time>2026-08-20T12:46:27Z</time>
      </trkpt>
      <trkpt lat="47.62777" lon="-2.77749">
        <ele>2.9</ele>
        <time>2026-08-20T12:46:28Z</time>
      </trkpt>
      <trkpt lat="47.62778" lon="-2.77752">
        <ele>2.9</ele>
        <time>2026-08-20T12:46:29Z</time>
      </trkpt>
      <trkpt lat="47.62779" lon="-2.77754">
        <ele>2.9</ele>
        <time>2026-08-20T12:46:30Z</time>
      </trkpt>
      <trkpt lat="47.6278" lon="-2.77755">
        <ele>2.8</ele>
        <time>2026-08-20T12:46:31Z</time>
      </trkpt>
      <trkpt lat="47.62781" lon="-2.77758">
        <ele>2.7</ele>
        <time>2026-08-20T12:46:32Z</time>
      </trkpt>
      <trkpt lat="47.62781" lon="-2.7776">
        <ele>2.7</ele>
        <time>2026-08-20T12:46:33Z</time>
      </trkpt>
      <trkpt lat="47.62782" lon="-2.77762">
        <ele>2.6</ele>
        <time>2026-08-20T12:46:34Z</time>
      </trkpt>
      <trkpt lat="47.62783" lon="-2.77764">
        <ele>2.6</ele>
        <time>2026-08-20T12:46:35Z</time>
      </trkpt>
      <trkpt lat="47.62783" lon="-2.77765">
        <ele>2.6</ele>
        <time>2026-08-20T12:46:36Z</time>
      </trkpt>
      <trkpt lat="47.62784" lon="-2.77767">
        <ele>2.5</ele>
        <time>2026-08-20T12:46:37Z</time>
      </trkpt>
      <trkpt lat="47.62784" lon="-2.77769">
        <ele>2.5</ele>
        <time>2026-08-20T12:46:38Z</time>
      </trkpt>
      <trkpt lat="47.62785" lon="-2.77771">
        <ele>2.4</ele>
        <time>2026-08-20T12:46:39Z</time>
      </trkpt>
      <trkpt lat="47.62786" lon="-2.77773">
        <ele>2.4</ele>
        <time>2026-08-20T12:46:40Z</time>
      </trkpt>
      <trkpt lat="47.62787" lon="-2.77774">
        <ele>2.4</ele>
        <time>2026-08-20T12:46:41Z</time>
      </trkpt>
      <trkpt lat="47.62788" lon="-2.77776">
        <ele>2.4</ele>
        <time>2026-08-20T12:46:42Z</time>
      </trkpt>
      <trkpt lat="47.6279" lon="-2.77778">
        <ele>2.4</ele>
        <time>2026-08-20T12:46:43Z</time>
      </trkpt>
      <trkpt lat="47.62793" lon="-2.77779">
        <ele>2.6</ele>
        <time>2026-08-20T12:46:44Z</time>
      </trkpt>
      <trkpt lat="47.62795" lon="-2.7778">
        <ele>2.6</ele>
        <time>2026-08-20T12:46:45Z</time>
      </trkpt>
      <trkpt lat="47.62798" lon="-2.77781">
        <ele>2.8</ele>
        <time>2026-08-20T12:46:46Z</time>
      </trkpt>
      <trkpt lat="47.62801" lon="-2.77782">
        <ele>2.9</ele>
        <time>2026-08-20T12:46:47Z</time>
      </trkpt>
      <trkpt lat="47.62804" lon="-2.77782">
        <ele>3.1</ele>
        <time>2026-08-20T12:46:48Z</time>
      </trkpt>
      <trkpt lat="47.62807" lon="-2.77784">
        <ele>3.3</ele>
        <time>2026-08-20T12:46:49Z</time>
      </trkpt>
      <trkpt lat="47.6281" lon="-2.77785">
        <ele>3.4</ele>
        <time>2026-08-20T12:46:50Z</time>
      </trkpt>
      <trkpt lat="47.62813" lon="-2.77786">
        <ele>3.5</ele>
        <time>2026-08-20T12:46:51Z</time>
      </trkpt>
      <trkpt lat="47.62816" lon="-2.77788">
        <ele>3.6</ele>
        <time>2026-08-20T12:46:52Z</time>
      </trkpt>
      <trkpt lat="47.6282" lon="-2.77789">
        <ele>3.7</ele>
        <time>2026-08-20T12:46:53Z</time>
      </trkpt>
      <trkpt lat="47.62823" lon="-2.77791">
        <ele>3.8</ele>
        <time>2026-08-20T12:46:54Z</time>
      </trkpt>
      <trkpt lat="47.62826" lon="-2.77793">
        <ele>3.9</ele>
        <time>2026-08-20T12:46:55Z</time>
      </trkpt>
      <trkpt lat="47.62829" lon="-2.77796">
        <ele>3.9</ele>
        <time>2026-08-20T12:46:56Z</time>
      </trkpt>
      <trkpt lat="47.62833" lon="-2.77798">
        <ele>4</ele>
        <time>2026-08-20T12:46:57Z</time>
      </trkpt>
      <trkpt lat="47.62836" lon="-2.77801">
        <ele>4</ele>
        <time>2026-08-20T12:46:58Z</time>
      </trkpt>
      <trkpt lat="47.62839" lon="-2.77804">
        <ele>4</ele>
        <time>2026-08-20T12:46:59Z</time>
      </trkpt>
      <trkpt lat="47.62843" lon="-2.77808">
        <ele>4</ele>
        <time>2026-08-20T12:47:00Z</time>
      </trkpt>
      <trkpt lat="47.62846" lon="-2.77811">
        <ele>4</ele>
        <time>2026-08-20T12:47:01Z</time>
      </trkpt>
      <trkpt lat="47.62849" lon="-2.77814">
        <ele>4</ele>
        <time>2026-08-20T12:47:02Z</time>
      </trkpt>
      <trkpt lat="47.62853" lon="-2.77818">
        <ele>4</ele>
        <time>2026-08-20T12:47:03Z</time>
      </trkpt>
      <trkpt lat="47.62856" lon="-2.77822">
        <ele>4</ele>
        <time>2026-08-20T12:47:04Z</time>
      </trkpt>
      <trkpt lat="47.62859" lon="-2.77826">
        <ele>4</ele>
        <time>2026-08-20T12:47:05Z</time>
      </trkpt>
      <trkpt lat="47.62862" lon="-2.77831">
        <ele>4</ele>
        <time>2026-08-20T12:47:06Z</time>
      </trkpt>
      <trkpt lat="47.62865" lon="-2.77835">
        <ele>4.1</ele>
        <time>2026-08-20T12:47:07Z</time>
      </trkpt>
      <trkpt lat="47.62867" lon="-2.7784">
        <ele>4.2</ele>
        <time>2026-08-20T12:47:08Z</time>
      </trkpt>
      <trkpt lat="47.6287" lon="-2.77845">
        <ele>4.3</ele>
        <time>2026-08-20T12:47:09Z</time>
      </trkpt>
      <trkpt lat="47.62872" lon="-2.77849">
        <ele>4.3</ele>
        <time>2026-08-20T12:47:10Z</time>
      </trkpt>
      <trkpt lat="47.62875" lon="-2.77854">
        <ele>4.4</ele>
        <time>2026-08-20T12:47:11Z</time>
      </trkpt>
      <trkpt lat="47.62877" lon="-2.77858">
        <ele>4.4</ele>
        <time>2026-08-20T12:47:12Z</time>
      </trkpt>
      <trkpt lat="47.6288" lon="-2.77863">
        <ele>4.3</ele>
        <time>2026-08-20T12:47:13Z</time>
      </trkpt>
      <trkpt lat="47.62882" lon="-2.77867">
        <ele>4.2</ele>
        <time>2026-08-20T12:47:14Z</time>
      </trkpt>
      <trkpt lat="47.62885" lon="-2.77872">
        <ele>4.1</ele>
        <time>2026-08-20T12:47:15Z</time>
      </trkpt>
      <trkpt lat="47.62887" lon="-2.77877">
        <ele>4.1</ele>
        <time>2026-08-20T12:47:16Z</time>
      </trkpt>
      <trkpt lat="47.6289" lon="-2.77882">
        <ele>4</ele>
        <time>2026-08-20T12:47:17Z</time>
      </trkpt>
      <trkpt lat="47.62892" lon="-2.77887">
        <ele>3.9</ele>
        <time>2026-08-20T12:47:18Z</time>
      </trkpt>
      <trkpt lat="47.62895" lon="-2.77892">
        <ele>3.8</ele>
        <time>2026-08-20T12:47:19Z</time>
      </trkpt>
      <trkpt lat="47.62898" lon="-2.77897">
        <ele>3.7</ele>
        <time>2026-08-20T12:47:20Z</time>
      </trkpt>
      <trkpt lat="47.629" lon="-2.77901">
        <ele>3.6</ele>
        <time>2026-08-20T12:47:21Z</time>
      </trkpt>
      <trkpt lat="47.62903" lon="-2.77905">
        <ele>3.5</ele>
        <time>2026-08-20T12:47:22Z</time>
      </trkpt>
      <trkpt lat="47.62905" lon="-2.77909">
        <ele>3.4</ele>
        <time>2026-08-20T12:47:23Z</time>
      </trkpt>
      <trkpt lat="47.62907" lon="-2.77913">
        <ele>3.3</ele>
        <time>2026-08-20T12:47:24Z</time>
      </trkpt>
      <trkpt lat="47.62909" lon="-2.77917">
        <ele>3.3</ele>
        <time>2026-08-20T12:47:25Z</time>
      </trkpt>
      <trkpt lat="47.62912" lon="-2.77922">
        <ele>3.1</ele>
        <time>2026-08-20T12:47:26Z</time>
      </trkpt>
      <trkpt lat="47.62914" lon="-2.77927">
        <ele>3.1</ele>
        <time>2026-08-20T12:47:27Z</time>
      </trkpt>
      <trkpt lat="47.62916" lon="-2.77932">
        <ele>3</ele>
        <time>2026-08-20T12:47:28Z</time>
      </trkpt>
      <trkpt lat="47.62919" lon="-2.77937">
        <ele>3</ele>
        <time>2026-08-20T12:47:29Z</time>
      </trkpt>
      <trkpt lat="47.62921" lon="-2.77941">
        <ele>3</ele>
        <time>2026-08-20T12:47:30Z</time>
      </trkpt>
      <trkpt lat="47.62925" lon="-2.77945">
        <ele>3</ele>
        <time>2026-08-20T12:47:31Z</time>
      </trkpt>
      <trkpt lat="47.62928" lon="-2.77951">
        <ele>3</ele>
        <time>2026-08-20T12:47:32Z</time>
      </trkpt>
      <trkpt lat="47.62931" lon="-2.77956">
        <ele>3</ele>
        <time>2026-08-20T12:47:33Z</time>
      </trkpt>
      <trkpt lat="47.62934" lon="-2.77961">
        <ele>3</ele>
        <time>2026-08-20T12:47:34Z</time>
      </trkpt>
      <trkpt lat="47.62937" lon="-2.77966">
        <ele>3</ele>
        <time>2026-08-20T12:47:35Z</time>
      </trkpt>
      <trkpt lat="47.6294" lon="-2.77972">
        <ele>3</ele>
        <time>2026-08-20T12:47:36Z</time>
      </trkpt>
      <trkpt lat="47.62943" lon="-2.77977">
        <ele>3</ele>
        <time>2026-08-20T12:47:37Z</time>
      </trkpt>
      <trkpt lat="47.62945" lon="-2.77981">
        <ele>3</ele>
        <time>2026-08-20T12:47:38Z</time>
      </trkpt>
      <trkpt lat="47.62948" lon="-2.77986">
        <ele>3.2</ele>
        <time>2026-08-20T12:47:39Z</time>
      </trkpt>
      <trkpt lat="47.6295" lon="-2.7799">
        <ele>3.3</ele>
        <time>2026-08-20T12:47:40Z</time>
      </trkpt>
      <trkpt lat="47.62952" lon="-2.77995">
        <ele>3.5</ele>
        <time>2026-08-20T12:47:41Z</time>
      </trkpt>
      <trkpt lat="47.62955" lon="-2.78">
        <ele>3.8</ele>
        <time>2026-08-20T12:47:42Z</time>
      </trkpt>
      <trkpt lat="47.62957" lon="-2.78004">
        <ele>3.8</ele>
        <time>2026-08-20T12:47:43Z</time>
      </trkpt>
      <trkpt lat="47.6296" lon="-2.78009">
        <ele>4</ele>
        <time>2026-08-20T12:47:44Z</time>
      </trkpt>
      <trkpt lat="47.62962" lon="-2.78013">
        <ele>4.1</ele>
        <time>2026-08-20T12:47:45Z</time>
      </trkpt>
      <trkpt lat="47.62965" lon="-2.78017">
        <ele>4.3</ele>
        <time>2026-08-20T12:47:46Z</time>
      </trkpt>
      <trkpt lat="47.62968" lon="-2.78021">
        <ele>4.6</ele>
        <time>2026-08-20T12:47:47Z</time>
      </trkpt>
      <trkpt lat="47.62971" lon="-2.78025">
        <ele>4.9</ele>
        <time>2026-08-20T12:47:48Z</time>
      </trkpt>
      <trkpt lat="47.62974" lon="-2.78028">
        <ele>5.1</ele>
        <time>2026-08-20T12:47:49Z</time>
      </trkpt>
      <trkpt lat="47.62977" lon="-2.78031">
        <ele>5.3</ele>
        <time>2026-08-20T12:47:50Z</time>
      </trkpt>
      <trkpt lat="47.6298" lon="-2.78033">
        <ele>5.5</ele>
        <time>2026-08-20T12:47:51Z</time>
      </trkpt>
      <trkpt lat="47.62983" lon="-2.78035">
        <ele>5.7</ele>
        <time>2026-08-20T12:47:52Z</time>
      </trkpt>
      <trkpt lat="47.62986" lon="-2.78037">
        <ele>5.8</ele>
        <time>2026-08-20T12:47:53Z</time>
      </trkpt>
      <trkpt lat="47.62988" lon="-2.78039">
        <ele>5.9</ele>
        <time>2026-08-20T12:47:54Z</time>
      </trkpt>
      <trkpt lat="47.62991" lon="-2.7804">
        <ele>6.1</ele>
        <time>2026-08-20T12:47:55Z</time>
      </trkpt>
      <trkpt lat="47.62994" lon="-2.78041">
        <ele>6.2</ele>
        <time>2026-08-20T12:47:56Z</time>
      </trkpt>
      <trkpt lat="47.62997" lon="-2.78041">
        <ele>6.4</ele>
        <time>2026-08-20T12:47:57Z</time>
      </trkpt>
      <trkpt lat="47.63001" lon="-2.78041">
        <ele>6.5</ele>
        <time>2026-08-20T12:47:58Z</time>
      </trkpt>
      <trkpt lat="47.63004" lon="-2.78042">
        <ele>6.4</ele>
        <time>2026-08-20T12:47:59Z</time>
      </trkpt>
      <trkpt lat="47.63008" lon="-2.78043">
        <ele>6.3</ele>
        <time>2026-08-20T12:48:00Z</time>
      </trkpt>
      <trkpt lat="47.63011" lon="-2.78044">
        <ele>6.3</ele>
        <time>2026-08-20T12:48:01Z</time>
      </trkpt>
      <trkpt lat="47.63015" lon="-2.78044">
        <ele>6.2</ele>
        <time>2026-08-20T12:48:02Z</time>
      </trkpt>
      <trkpt lat="47.63019" lon="-2.78045">
        <ele>6.1</ele>
        <time>2026-08-20T12:48:03Z</time>
      </trkpt>
      <trkpt lat="47.63024" lon="-2.78047">
        <ele>6</ele>
        <time>2026-08-20T12:48:04Z</time>
      </trkpt>
      <trkpt lat="47.63029" lon="-2.78048">
        <ele>5.9</ele>
        <time>2026-08-20T12:48:05Z</time>
      </trkpt>
      <trkpt lat="47.63033" lon="-2.78048">
        <ele>5.6</ele>
        <time>2026-08-20T12:48:06Z</time>
      </trkpt>
      <trkpt lat="47.63038" lon="-2.78047">
        <ele>5.3</ele>
        <time>2026-08-20T12:48:07Z</time>
      </trkpt>
      <trkpt lat="47.63042" lon="-2.78047">
        <ele>5</ele>
        <time>2026-08-20T12:48:08Z</time>
      </trkpt>
      <trkpt lat="47.63048" lon="-2.78049">
        <ele>4.5</ele>
        <time>2026-08-20T12:48:09Z</time>
      </trkpt>
      <trkpt lat="47.63054" lon="-2.7805">
        <ele>4.1</ele>
        <time>2026-08-20T12:48:10Z</time>
      </trkpt>
      <trkpt lat="47.6306" lon="-2.78051">
        <ele>3.8</ele>
        <time>2026-08-20T12:48:11Z</time>
      </trkpt>
      <trkpt lat="47.63067" lon="-2.78052">
        <ele>3.6</ele>
        <time>2026-08-20T12:48:12Z</time>
      </trkpt>
      <trkpt lat="47.63073" lon="-2.78053">
        <ele>3.4</ele>
        <time>2026-08-20T12:48:13Z</time>
      </trkpt>
      <trkpt lat="47.6308" lon="-2.78054">
        <ele>3.1</ele>
        <time>2026-08-20T12:48:14Z</time>
      </trkpt>
      <trkpt lat="47.63086" lon="-2.78055">
        <ele>3</ele>
        <time>2026-08-20T12:48:15Z</time>
      </trkpt>
      <trkpt lat="47.63093" lon="-2.78056">
        <ele>3</ele>
        <time>2026-08-20T12:48:16Z</time>
      </trkpt>
      <trkpt lat="47.63099" lon="-2.78056">
        <ele>3</ele>
        <time>2026-08-20T12:48:17Z</time>
      </trkpt>
      <trkpt lat="47.63105" lon="-2.78055">
        <ele>3</ele>
        <time>2026-08-20T12:48:18Z</time>
      </trkpt>
      <trkpt lat="47.63112" lon="-2.78055">
        <ele>3</ele>
        <time>2026-08-20T12:48:19Z</time>
      </trkpt>
      <trkpt lat="47.63117" lon="-2.78054">
        <ele>2.9</ele>
        <time>2026-08-20T12:48:20Z</time>
      </trkpt>
      <trkpt lat="47.63123" lon="-2.78054">
        <ele>2.9</ele>
        <time>2026-08-20T12:48:21Z</time>
      </trkpt>
      <trkpt lat="47.63128" lon="-2.78054">
        <ele>2.9</ele>
        <time>2026-08-20T12:48:22Z</time>
      </trkpt>
      <trkpt lat="47.63134" lon="-2.78055">
        <ele>3</ele>
        <time>2026-08-20T12:48:23Z</time>
      </trkpt>
      <trkpt lat="47.63139" lon="-2.78056">
        <ele>3</ele>
        <time>2026-08-20T12:48:24Z</time>
      </trkpt>
      <trkpt lat="47.63144" lon="-2.78057">
        <ele>2.7</ele>
        <time>2026-08-20T12:48:25Z</time>
      </trkpt>
      <trkpt lat="47.63149" lon="-2.78058">
        <ele>2.5</ele>
        <time>2026-08-20T12:48:26Z</time>
      </trkpt>
      <trkpt lat="47.63154" lon="-2.78059">
        <ele>2.3</ele>
        <time>2026-08-20T12:48:27Z</time>
      </trkpt>
      <trkpt lat="47.63159" lon="-2.7806">
        <ele>2.1</ele>
        <time>2026-08-20T12:48:28Z</time>
      </trkpt>
      <trkpt lat="47.63165" lon="-2.78061">
        <ele>1.9</ele>
        <time>2026-08-20T12:48:29Z</time>
      </trkpt>
      <trkpt lat="47.6317" lon="-2.78062">
        <ele>1.9</ele>
        <time>2026-08-20T12:48:30Z</time>
      </trkpt>
      <trkpt lat="47.63175" lon="-2.78062">
        <ele>2</ele>
        <time>2026-08-20T12:48:31Z</time>
      </trkpt>
      <trkpt lat="47.6318" lon="-2.78063">
        <ele>2.1</ele>
        <time>2026-08-20T12:48:32Z</time>
      </trkpt>
      <trkpt lat="47.63185" lon="-2.78063">
        <ele>2.2</ele>
        <time>2026-08-20T12:48:33Z</time>
      </trkpt>
      <trkpt lat="47.63189" lon="-2.78063">
        <ele>2.3</ele>
        <time>2026-08-20T12:48:34Z</time>
      </trkpt>
      <trkpt lat="47.63194" lon="-2.78063">
        <ele>2.5</ele>
        <time>2026-08-20T12:48:35Z</time>
      </trkpt>
      <trkpt lat="47.63198" lon="-2.78063">
        <ele>2.5</ele>
        <time>2026-08-20T12:48:36Z</time>
      </trkpt>
      <trkpt lat="47.63203" lon="-2.78064">
        <ele>2.5</ele>
        <time>2026-08-20T12:48:37Z</time>
      </trkpt>
      <trkpt lat="47.63207" lon="-2.78064">
        <ele>2.5</ele>
        <time>2026-08-20T12:48:38Z</time>
      </trkpt>
      <trkpt lat="47.63212" lon="-2.78064">
        <ele>2.6</ele>
        <time>2026-08-20T12:48:39Z</time>
      </trkpt>
      <trkpt lat="47.63216" lon="-2.78063">
        <ele>2.7</ele>
        <time>2026-08-20T12:48:40Z</time>
      </trkpt>
      <trkpt lat="47.6322" lon="-2.78063">
        <ele>2.7</ele>
        <time>2026-08-20T12:48:41Z</time>
      </trkpt>
      <trkpt lat="47.63224" lon="-2.78062">
        <ele>2.8</ele>
        <time>2026-08-20T12:48:42Z</time>
      </trkpt>
      <trkpt lat="47.63228" lon="-2.78061">
        <ele>2.8</ele>
        <time>2026-08-20T12:48:43Z</time>
      </trkpt>
      <trkpt lat="47.63232" lon="-2.78059">
        <ele>2.9</ele>
        <time>2026-08-20T12:48:44Z</time>
      </trkpt>
      <trkpt lat="47.63236" lon="-2.78056">
        <ele>3</ele>
        <time>2026-08-20T12:48:45Z</time>
      </trkpt>
      <trkpt lat="47.6324" lon="-2.78054">
        <ele>3</ele>
        <time>2026-08-20T12:48:46Z</time>
      </trkpt>
      <trkpt lat="47.63244" lon="-2.7805">
        <ele>2.9</ele>
        <time>2026-08-20T12:48:47Z</time>
      </trkpt>
      <trkpt lat="47.63247" lon="-2.78046">
        <ele>2.9</ele>
        <time>2026-08-20T12:48:48Z</time>
      </trkpt>
      <trkpt lat="47.6325" lon="-2.78041">
        <ele>3</ele>
        <time>2026-08-20T12:48:49Z</time>
      </trkpt>
      <trkpt lat="47.63253" lon="-2.78036">
        <ele>3</ele>
        <time>2026-08-20T12:48:50Z</time>
      </trkpt>
      <trkpt lat="47.63256" lon="-2.78031">
        <ele>3</ele>
        <time>2026-08-20T12:48:51Z</time>
      </trkpt>
      <trkpt lat="47.63259" lon="-2.78026">
        <ele>2.9</ele>
        <time>2026-08-20T12:48:52Z</time>
      </trkpt>
      <trkpt lat="47.63262" lon="-2.78022">
        <ele>2.7</ele>
        <time>2026-08-20T12:48:53Z</time>
      </trkpt>
      <trkpt lat="47.63266" lon="-2.78017">
        <ele>2.4</ele>
        <time>2026-08-20T12:48:54Z</time>
      </trkpt>
      <trkpt lat="47.63269" lon="-2.78012">
        <ele>2.3</ele>
        <time>2026-08-20T12:48:55Z</time>
      </trkpt>
      <trkpt lat="47.63272" lon="-2.78007">
        <ele>2.1</ele>
        <time>2026-08-20T12:48:56Z</time>
      </trkpt>
      <trkpt lat="47.63276" lon="-2.78002">
        <ele>2</ele>
        <time>2026-08-20T12:48:57Z</time>
      </trkpt>
      <trkpt lat="47.63279" lon="-2.77997">
        <ele>2.1</ele>
        <time>2026-08-20T12:48:58Z</time>
      </trkpt>
      <trkpt lat="47.63282" lon="-2.77992">
        <ele>2.4</ele>
        <time>2026-08-20T12:48:59Z</time>
      </trkpt>
      <trkpt lat="47.63284" lon="-2.77987">
        <ele>2.6</ele>
        <time>2026-08-20T12:49:00Z</time>
      </trkpt>
      <trkpt lat="47.63287" lon="-2.77982">
        <ele>2.8</ele>
        <time>2026-08-20T12:49:01Z</time>
      </trkpt>
      <trkpt lat="47.6329" lon="-2.77977">
        <ele>2.9</ele>
        <time>2026-08-20T12:49:02Z</time>
      </trkpt>
      <trkpt lat="47.63292" lon="-2.77972">
        <ele>3</ele>
        <time>2026-08-20T12:49:03Z</time>
      </trkpt>
      <trkpt lat="47.63294" lon="-2.77966">
        <ele>2.9</ele>
        <time>2026-08-20T12:49:04Z</time>
      </trkpt>
      <trkpt lat="47.63297" lon="-2.77961">
        <ele>2.9</ele>
        <time>2026-08-20T12:49:05Z</time>
      </trkpt>
      <trkpt lat="47.63299" lon="-2.77955">
        <ele>2.9</ele>
        <time>2026-08-20T12:49:06Z</time>
      </trkpt>
      <trkpt lat="47.633" lon="-2.77949">
        <ele>2.8</ele>
        <time>2026-08-20T12:49:07Z</time>
      </trkpt>
      <trkpt lat="47.63301" lon="-2.77942">
        <ele>2.8</ele>
        <time>2026-08-20T12:49:08Z</time>
      </trkpt>
      <trkpt lat="47.63302" lon="-2.77936">
        <ele>2.9</ele>
        <time>2026-08-20T12:49:09Z</time>
      </trkpt>
      <trkpt lat="47.63303" lon="-2.77929">
        <ele>2.9</ele>
        <time>2026-08-20T12:49:10Z</time>
      </trkpt>
      <trkpt lat="47.63303" lon="-2.77923">
        <ele>2.9</ele>
        <time>2026-08-20T12:49:11Z</time>
      </trkpt>
      <trkpt lat="47.63303" lon="-2.77917">
        <ele>2.9</ele>
        <time>2026-08-20T12:49:12Z</time>
      </trkpt>
      <trkpt lat="47.63303" lon="-2.77911">
        <ele>2.9</ele>
        <time>2026-08-20T12:49:13Z</time>
      </trkpt>
      <trkpt lat="47.63302" lon="-2.77904">
        <ele>2.9</ele>
        <time>2026-08-20T12:49:14Z</time>
      </trkpt>
      <trkpt lat="47.633" lon="-2.77899">
        <ele>2.8</ele>
        <time>2026-08-20T12:49:15Z</time>
      </trkpt>
      <trkpt lat="47.63297" lon="-2.77894">
        <ele>2.7</ele>
        <time>2026-08-20T12:49:16Z</time>
      </trkpt>
      <trkpt lat="47.63295" lon="-2.77888">
        <ele>2.6</ele>
        <time>2026-08-20T12:49:17Z</time>
      </trkpt>
      <trkpt lat="47.63292" lon="-2.77883">
        <ele>2.4</ele>
        <time>2026-08-20T12:49:18Z</time>
      </trkpt>
      <trkpt lat="47.63291" lon="-2.77877">
        <ele>2.3</ele>
        <time>2026-08-20T12:49:19Z</time>
      </trkpt>
      <trkpt lat="47.6329" lon="-2.77872">
        <ele>2.1</ele>
        <time>2026-08-20T12:49:20Z</time>
      </trkpt>
      <trkpt lat="47.63291" lon="-2.77866">
        <ele>2</ele>
        <time>2026-08-20T12:49:21Z</time>
      </trkpt>
      <trkpt lat="47.63293" lon="-2.77861">
        <ele>2.1</ele>
        <time>2026-08-20T12:49:22Z</time>
      </trkpt>
      <trkpt lat="47.63294" lon="-2.77856">
        <ele>2.3</ele>
        <time>2026-08-20T12:49:23Z</time>
      </trkpt>
      <trkpt lat="47.63295" lon="-2.7785">
        <ele>2.5</ele>
        <time>2026-08-20T12:49:24Z</time>
      </trkpt>
      <trkpt lat="47.63295" lon="-2.77844">
        <ele>2.6</ele>
        <time>2026-08-20T12:49:25Z</time>
      </trkpt>
      <trkpt lat="47.63296" lon="-2.77838">
        <ele>2.9</ele>
        <time>2026-08-20T12:49:26Z</time>
      </trkpt>
      <trkpt lat="47.63296" lon="-2.77831">
        <ele>3</ele>
        <time>2026-08-20T12:49:27Z</time>
      </trkpt>
      <trkpt lat="47.63296" lon="-2.77825">
        <ele>3.2</ele>
        <time>2026-08-20T12:49:28Z</time>
      </trkpt>
      <trkpt lat="47.63296" lon="-2.77819">
        <ele>3.3</ele>
        <time>2026-08-20T12:49:29Z</time>
      </trkpt>
      <trkpt lat="47.63296" lon="-2.77812">
        <ele>3.5</ele>
        <time>2026-08-20T12:49:30Z</time>
      </trkpt>
      <trkpt lat="47.63296" lon="-2.77806">
        <ele>3.6</ele>
        <time>2026-08-20T12:49:31Z</time>
      </trkpt>
      <trkpt lat="47.63296" lon="-2.778">
        <ele>3.8</ele>
        <time>2026-08-20T12:49:32Z</time>
      </trkpt>
      <trkpt lat="47.63295" lon="-2.77794">
        <ele>3.8</ele>
        <time>2026-08-20T12:49:33Z</time>
      </trkpt>
      <trkpt lat="47.63294" lon="-2.77787">
        <ele>3.9</ele>
        <time>2026-08-20T12:49:34Z</time>
      </trkpt>
      <trkpt lat="47.63294" lon="-2.7778">
        <ele>4.1</ele>
        <time>2026-08-20T12:49:35Z</time>
      </trkpt>
      <trkpt lat="47.63293" lon="-2.77773">
        <ele>4.1</ele>
        <time>2026-08-20T12:49:36Z</time>
      </trkpt>
      <trkpt lat="47.63292" lon="-2.77766">
        <ele>4</ele>
        <time>2026-08-20T12:49:37Z</time>
      </trkpt>
      <trkpt lat="47.63292" lon="-2.77759">
        <ele>4</ele>
        <time>2026-08-20T12:49:38Z</time>
      </trkpt>
      <trkpt lat="47.6329" lon="-2.77752">
        <ele>3.9</ele>
        <time>2026-08-20T12:49:39Z</time>
      </trkpt>
      <trkpt lat="47.63289" lon="-2.77746">
        <ele>3.9</ele>
        <time>2026-08-20T12:49:40Z</time>
      </trkpt>
      <trkpt lat="47.63287" lon="-2.77739">
        <ele>3.9</ele>
        <time>2026-08-20T12:49:41Z</time>
      </trkpt>
      <trkpt lat="47.63285" lon="-2.77734">
        <ele>3.9</ele>
        <time>2026-08-20T12:49:42Z</time>
      </trkpt>
      <trkpt lat="47.63283" lon="-2.77728">
        <ele>4</ele>
        <time>2026-08-20T12:49:43Z</time>
      </trkpt>
      <trkpt lat="47.63281" lon="-2.77721">
        <ele>4.1</ele>
        <time>2026-08-20T12:49:44Z</time>
      </trkpt>
      <trkpt lat="47.63279" lon="-2.77715">
        <ele>4.1</ele>
        <time>2026-08-20T12:49:45Z</time>
      </trkpt>
      <trkpt lat="47.63278" lon="-2.77709">
        <ele>4</ele>
        <time>2026-08-20T12:49:46Z</time>
      </trkpt>
      <trkpt lat="47.63276" lon="-2.77703">
        <ele>3.9</ele>
        <time>2026-08-20T12:49:47Z</time>
      </trkpt>
      <trkpt lat="47.63275" lon="-2.77696">
        <ele>3.8</ele>
        <time>2026-08-20T12:49:48Z</time>
      </trkpt>
      <trkpt lat="47.63274" lon="-2.7769">
        <ele>3.9</ele>
        <time>2026-08-20T12:49:49Z</time>
      </trkpt>
      <trkpt lat="47.63272" lon="-2.77684">
        <ele>3.9</ele>
        <time>2026-08-20T12:49:50Z</time>
      </trkpt>
      <trkpt lat="47.6327" lon="-2.77677">
        <ele>3.9</ele>
        <time>2026-08-20T12:49:51Z</time>
      </trkpt>
      <trkpt lat="47.63268" lon="-2.77671">
        <ele>3.8</ele>
        <time>2026-08-20T12:49:52Z</time>
      </trkpt>
      <trkpt lat="47.63266" lon="-2.77665">
        <ele>3.8</ele>
        <time>2026-08-20T12:49:53Z</time>
      </trkpt>
      <trkpt lat="47.63264" lon="-2.77659">
        <ele>3.8</ele>
        <time>2026-08-20T12:49:54Z</time>
      </trkpt>
      <trkpt lat="47.63263" lon="-2.77653">
        <ele>3.9</ele>
        <time>2026-08-20T12:49:55Z</time>
      </trkpt>
      <trkpt lat="47.63261" lon="-2.77647">
        <ele>3.9</ele>
        <time>2026-08-20T12:49:56Z</time>
      </trkpt>
      <trkpt lat="47.63259" lon="-2.77642">
        <ele>3.9</ele>
        <time>2026-08-20T12:49:57Z</time>
      </trkpt>
      <trkpt lat="47.63258" lon="-2.77637">
        <ele>4</ele>
        <time>2026-08-20T12:49:58Z</time>
      </trkpt>
      <trkpt lat="47.63257" lon="-2.77632">
        <ele>4.4</ele>
        <time>2026-08-20T12:49:59Z</time>
      </trkpt>
      <trkpt lat="47.63255" lon="-2.77627">
        <ele>4.7</ele>
        <time>2026-08-20T12:50:00Z</time>
      </trkpt>
      <trkpt lat="47.63254" lon="-2.77621">
        <ele>5.3</ele>
        <time>2026-08-20T12:50:01Z</time>
      </trkpt>
      <trkpt lat="47.63252" lon="-2.77616">
        <ele>5.6</ele>
        <time>2026-08-20T12:50:02Z</time>
      </trkpt>
      <trkpt lat="47.6325" lon="-2.77611">
        <ele>6</ele>
        <time>2026-08-20T12:50:03Z</time>
      </trkpt>
      <trkpt lat="47.63248" lon="-2.77606">
        <ele>5.8</ele>
        <time>2026-08-20T12:50:04Z</time>
      </trkpt>
      <trkpt lat="47.63245" lon="-2.77601">
        <ele>5.5</ele>
        <time>2026-08-20T12:50:05Z</time>
      </trkpt>
      <trkpt lat="47.63243" lon="-2.77596">
        <ele>5.3</ele>
        <time>2026-08-20T12:50:06Z</time>
      </trkpt>
      <trkpt lat="47.63241" lon="-2.77591">
        <ele>5.1</ele>
        <time>2026-08-20T12:50:07Z</time>
      </trkpt>
      <trkpt lat="47.63239" lon="-2.77586">
        <ele>4.9</ele>
        <time>2026-08-20T12:50:08Z</time>
      </trkpt>
      <trkpt lat="47.63237" lon="-2.7758">
        <ele>4.8</ele>
        <time>2026-08-20T12:50:09Z</time>
      </trkpt>
      <trkpt lat="47.63235" lon="-2.77574">
        <ele>4.8</ele>
        <time>2026-08-20T12:50:10Z</time>
      </trkpt>
      <trkpt lat="47.63232" lon="-2.77569">
        <ele>4.6</ele>
        <time>2026-08-20T12:50:11Z</time>
      </trkpt>
      <trkpt lat="47.6323" lon="-2.77563">
        <ele>4.7</ele>
        <time>2026-08-20T12:50:12Z</time>
      </trkpt>
      <trkpt lat="47.63228" lon="-2.77557">
        <ele>4.7</ele>
        <time>2026-08-20T12:50:13Z</time>
      </trkpt>
      <trkpt lat="47.63226" lon="-2.77551">
        <ele>4.8</ele>
        <time>2026-08-20T12:50:14Z</time>
      </trkpt>
      <trkpt lat="47.63223" lon="-2.77545">
        <ele>4.9</ele>
        <time>2026-08-20T12:50:15Z</time>
      </trkpt>
      <trkpt lat="47.63221" lon="-2.77539">
        <ele>5</ele>
        <time>2026-08-20T12:50:16Z</time>
      </trkpt>
      <trkpt lat="47.63219" lon="-2.77532">
        <ele>5.2</ele>
        <time>2026-08-20T12:50:17Z</time>
      </trkpt>
      <trkpt lat="47.63216" lon="-2.77526">
        <ele>4.9</ele>
        <time>2026-08-20T12:50:18Z</time>
      </trkpt>
      <trkpt lat="47.63214" lon="-2.77519">
        <ele>4.8</ele>
        <time>2026-08-20T12:50:19Z</time>
      </trkpt>
      <trkpt lat="47.63212" lon="-2.77513">
        <ele>4.7</ele>
        <time>2026-08-20T12:50:20Z</time>
      </trkpt>
      <trkpt lat="47.6321" lon="-2.77507">
        <ele>4.5</ele>
        <time>2026-08-20T12:50:21Z</time>
      </trkpt>
      <trkpt lat="47.63208" lon="-2.77501">
        <ele>4.4</ele>
        <time>2026-08-20T12:50:22Z</time>
      </trkpt>
      <trkpt lat="47.63207" lon="-2.77495">
        <ele>4.7</ele>
        <time>2026-08-20T12:50:23Z</time>
      </trkpt>
      <trkpt lat="47.63205" lon="-2.77489">
        <ele>5</ele>
        <time>2026-08-20T12:50:24Z</time>
      </trkpt>
      <trkpt lat="47.63203" lon="-2.77483">
        <ele>5.4</ele>
        <time>2026-08-20T12:50:25Z</time>
      </trkpt>
      <trkpt lat="47.63201" lon="-2.77477">
        <ele>5.9</ele>
        <time>2026-08-20T12:50:26Z</time>
      </trkpt>
      <trkpt lat="47.63198" lon="-2.77472">
        <ele>6.3</ele>
        <time>2026-08-20T12:50:27Z</time>
      </trkpt>
      <trkpt lat="47.63196" lon="-2.77467">
        <ele>6.3</ele>
        <time>2026-08-20T12:50:28Z</time>
      </trkpt>
      <trkpt lat="47.63193" lon="-2.77462">
        <ele>6.1</ele>
        <time>2026-08-20T12:50:29Z</time>
      </trkpt>
      <trkpt lat="47.6319" lon="-2.77457">
        <ele>5.7</ele>
        <time>2026-08-20T12:50:30Z</time>
      </trkpt>
      <trkpt lat="47.63187" lon="-2.77452">
        <ele>5.4</ele>
        <time>2026-08-20T12:50:31Z</time>
      </trkpt>
      <trkpt lat="47.63184" lon="-2.77448">
        <ele>5</ele>
        <time>2026-08-20T12:50:32Z</time>
      </trkpt>
      <trkpt lat="47.6318" lon="-2.77443">
        <ele>4.5</ele>
        <time>2026-08-20T12:50:33Z</time>
      </trkpt>
      <trkpt lat="47.63176" lon="-2.77438">
        <ele>4.4</ele>
        <time>2026-08-20T12:50:34Z</time>
      </trkpt>
      <trkpt lat="47.63173" lon="-2.77432">
        <ele>4.6</ele>
        <time>2026-08-20T12:50:35Z</time>
      </trkpt>
      <trkpt lat="47.6317" lon="-2.77427">
        <ele>4.9</ele>
        <time>2026-08-20T12:50:36Z</time>
      </trkpt>
      <trkpt lat="47.63167" lon="-2.77422">
        <ele>5.3</ele>
        <time>2026-08-20T12:50:37Z</time>
      </trkpt>
      <trkpt lat="47.63163" lon="-2.77417">
        <ele>5.4</ele>
        <time>2026-08-20T12:50:38Z</time>
      </trkpt>
      <trkpt lat="47.63159" lon="-2.77411">
        <ele>5.2</ele>
        <time>2026-08-20T12:50:39Z</time>
      </trkpt>
      <trkpt lat="47.63156" lon="-2.77406">
        <ele>5</ele>
        <time>2026-08-20T12:50:40Z</time>
      </trkpt>
      <trkpt lat="47.63152" lon="-2.77401">
        <ele>4.7</ele>
        <time>2026-08-20T12:50:41Z</time>
      </trkpt>
      <trkpt lat="47.63149" lon="-2.77395">
        <ele>4.7</ele>
        <time>2026-08-20T12:50:42Z</time>
      </trkpt>
      <trkpt lat="47.63145" lon="-2.7739">
        <ele>4.6</ele>
        <time>2026-08-20T12:50:43Z</time>
      </trkpt>
      <trkpt lat="47.63142" lon="-2.77384">
        <ele>4.5</ele>
        <time>2026-08-20T12:50:44Z</time>
      </trkpt>
      <trkpt lat="47.63139" lon="-2.77379">
        <ele>4.4</ele>
        <time>2026-08-20T12:50:45Z</time>
      </trkpt>
      <trkpt lat="47.63135" lon="-2.77373">
        <ele>4.2</ele>
        <time>2026-08-20T12:50:46Z</time>
      </trkpt>
      <trkpt lat="47.63132" lon="-2.77368">
        <ele>4</ele>
        <time>2026-08-20T12:50:47Z</time>
      </trkpt>
      <trkpt lat="47.63128" lon="-2.77362">
        <ele>3.8</ele>
        <time>2026-08-20T12:50:48Z</time>
      </trkpt>
      <trkpt lat="47.63124" lon="-2.77355">
        <ele>3.6</ele>
        <time>2026-08-20T12:50:49Z</time>
      </trkpt>
      <trkpt lat="47.63121" lon="-2.77349">
        <ele>3.6</ele>
        <time>2026-08-20T12:50:50Z</time>
      </trkpt>
      <trkpt lat="47.63117" lon="-2.77343">
        <ele>3.7</ele>
        <time>2026-08-20T12:50:51Z</time>
      </trkpt>
      <trkpt lat="47.63114" lon="-2.77337">
        <ele>3.9</ele>
        <time>2026-08-20T12:50:52Z</time>
      </trkpt>
      <trkpt lat="47.63111" lon="-2.77331">
        <ele>4.1</ele>
        <time>2026-08-20T12:50:53Z</time>
      </trkpt>
      <trkpt lat="47.63107" lon="-2.77324">
        <ele>4</ele>
        <time>2026-08-20T12:50:54Z</time>
      </trkpt>
      <trkpt lat="47.63105" lon="-2.77319">
        <ele>4.1</ele>
        <time>2026-08-20T12:50:55Z</time>
      </trkpt>
      <trkpt lat="47.63102" lon="-2.77313">
        <ele>4.1</ele>
        <time>2026-08-20T12:50:56Z</time>
      </trkpt>
      <trkpt lat="47.631" lon="-2.77307">
        <ele>4.1</ele>
        <time>2026-08-20T12:50:57Z</time>
      </trkpt>
      <trkpt lat="47.63097" lon="-2.77301">
        <ele>4.1</ele>
        <time>2026-08-20T12:50:58Z</time>
      </trkpt>
      <trkpt lat="47.63095" lon="-2.77295">
        <ele>4.2</ele>
        <time>2026-08-20T12:50:59Z</time>
      </trkpt>
      <trkpt lat="47.63093" lon="-2.77288">
        <ele>4.3</ele>
        <time>2026-08-20T12:51:00Z</time>
      </trkpt>
      <trkpt lat="47.6309" lon="-2.77281">
        <ele>4.4</ele>
        <time>2026-08-20T12:51:01Z</time>
      </trkpt>
      <trkpt lat="47.63088" lon="-2.77275">
        <ele>4.4</ele>
        <time>2026-08-20T12:51:02Z</time>
      </trkpt>
      <trkpt lat="47.63087" lon="-2.77269">
        <ele>4.5</ele>
        <time>2026-08-20T12:51:03Z</time>
      </trkpt>
      <trkpt lat="47.63085" lon="-2.77261">
        <ele>4.7</ele>
        <time>2026-08-20T12:51:04Z</time>
      </trkpt>
      <trkpt lat="47.63084" lon="-2.77254">
        <ele>4.9</ele>
        <time>2026-08-20T12:51:05Z</time>
      </trkpt>
      <trkpt lat="47.63083" lon="-2.77247">
        <ele>5</ele>
        <time>2026-08-20T12:51:06Z</time>
      </trkpt>
      <trkpt lat="47.63082" lon="-2.77242">
        <ele>4.8</ele>
        <time>2026-08-20T12:51:07Z</time>
      </trkpt>
      <trkpt lat="47.63081" lon="-2.77235">
        <ele>4.7</ele>
        <time>2026-08-20T12:51:08Z</time>
      </trkpt>
      <trkpt lat="47.63081" lon="-2.77229">
        <ele>4.7</ele>
        <time>2026-08-20T12:51:09Z</time>
      </trkpt>
      <trkpt lat="47.6308" lon="-2.77222">
        <ele>4.5</ele>
        <time>2026-08-20T12:51:10Z</time>
      </trkpt>
      <trkpt lat="47.63079" lon="-2.77216">
        <ele>4.6</ele>
        <time>2026-08-20T12:51:11Z</time>
      </trkpt>
      <trkpt lat="47.63078" lon="-2.7721">
        <ele>4.6</ele>
        <time>2026-08-20T12:51:12Z</time>
      </trkpt>
      <trkpt lat="47.63078" lon="-2.77205">
        <ele>4.7</ele>
        <time>2026-08-20T12:51:13Z</time>
      </trkpt>
      <trkpt lat="47.63077" lon="-2.77199">
        <ele>4.7</ele>
        <time>2026-08-20T12:51:14Z</time>
      </trkpt>
      <trkpt lat="47.63076" lon="-2.77191">
        <ele>4.7</ele>
        <time>2026-08-20T12:51:15Z</time>
      </trkpt>
      <trkpt lat="47.63076" lon="-2.77186">
        <ele>4.7</ele>
        <time>2026-08-20T12:51:16Z</time>
      </trkpt>
      <trkpt lat="47.63074" lon="-2.77179">
        <ele>4.3</ele>
        <time>2026-08-20T12:51:17Z</time>
      </trkpt>
      <trkpt lat="47.63074" lon="-2.77174">
        <ele>4.3</ele>
        <time>2026-08-20T12:51:18Z</time>
      </trkpt>
      <trkpt lat="47.63073" lon="-2.77168">
        <ele>4.1</ele>
        <time>2026-08-20T12:51:19Z</time>
      </trkpt>
      <trkpt lat="47.63072" lon="-2.7716">
        <ele>4.2</ele>
        <time>2026-08-20T12:51:20Z</time>
      </trkpt>
      <trkpt lat="47.6307" lon="-2.77154">
        <ele>4</ele>
        <time>2026-08-20T12:51:21Z</time>
      </trkpt>
      <trkpt lat="47.63069" lon="-2.77149">
        <ele>4.1</ele>
        <time>2026-08-20T12:51:22Z</time>
      </trkpt>
      <trkpt lat="47.63068" lon="-2.77142">
        <ele>4.2</ele>
        <time>2026-08-20T12:51:23Z</time>
      </trkpt>
      <trkpt lat="47.63067" lon="-2.77136">
        <ele>4.3</ele>
        <time>2026-08-20T12:51:24Z</time>
      </trkpt>
      <trkpt lat="47.63065" lon="-2.77129">
        <ele>4.3</ele>
        <time>2026-08-20T12:51:25Z</time>
      </trkpt>
      <trkpt lat="47.63064" lon="-2.77122">
        <ele>4.3</ele>
        <time>2026-08-20T12:51:26Z</time>
      </trkpt>
      <trkpt lat="47.63062" lon="-2.77115">
        <ele>4.4</ele>
        <time>2026-08-20T12:51:27Z</time>
      </trkpt>
      <trkpt lat="47.6306" lon="-2.77108">
        <ele>4.3</ele>
        <time>2026-08-20T12:51:28Z</time>
      </trkpt>
      <trkpt lat="47.63058" lon="-2.77099">
        <ele>4.2</ele>
        <time>2026-08-20T12:51:29Z</time>
      </trkpt>
      <trkpt lat="47.63055" lon="-2.77092">
        <ele>3.9</ele>
        <time>2026-08-20T12:51:30Z</time>
      </trkpt>
      <trkpt lat="47.63053" lon="-2.77086">
        <ele>3.7</ele>
        <time>2026-08-20T12:51:31Z</time>
      </trkpt>
      <trkpt lat="47.63051" lon="-2.77078">
        <ele>3.7</ele>
        <time>2026-08-20T12:51:32Z</time>
      </trkpt>
      <trkpt lat="47.63049" lon="-2.77072">
        <ele>3.7</ele>
        <time>2026-08-20T12:51:33Z</time>
      </trkpt>
      <trkpt lat="47.63047" lon="-2.77063">
        <ele>3.8</ele>
        <time>2026-08-20T12:51:34Z</time>
      </trkpt>
      <trkpt lat="47.63045" lon="-2.77056">
        <ele>3.8</ele>
        <time>2026-08-20T12:51:35Z</time>
      </trkpt>
      <trkpt lat="47.63044" lon="-2.7705">
        <ele>3.8</ele>
        <time>2026-08-20T12:51:36Z</time>
      </trkpt>
      <trkpt lat="47.63043" lon="-2.77043">
        <ele>3.8</ele>
        <time>2026-08-20T12:51:37Z</time>
      </trkpt>
      <trkpt lat="47.63042" lon="-2.77036">
        <ele>3.9</ele>
        <time>2026-08-20T12:51:38Z</time>
      </trkpt>
      <trkpt lat="47.63041" lon="-2.77027">
        <ele>3.9</ele>
        <time>2026-08-20T12:51:39Z</time>
      </trkpt>
      <trkpt lat="47.6304" lon="-2.77022">
        <ele>3.8</ele>
        <time>2026-08-20T12:51:40Z</time>
      </trkpt>
      <trkpt lat="47.6304" lon="-2.77015">
        <ele>3.6</ele>
        <time>2026-08-20T12:51:41Z</time>
      </trkpt>
      <trkpt lat="47.6304" lon="-2.77008">
        <ele>3.5</ele>
        <time>2026-08-20T12:51:42Z</time>
      </trkpt>
      <trkpt lat="47.63039" lon="-2.77001">
        <ele>3.2</ele>
        <time>2026-08-20T12:51:43Z</time>
      </trkpt>
      <trkpt lat="47.63039" lon="-2.76994">
        <ele>3.4</ele>
        <time>2026-08-20T12:51:44Z</time>
      </trkpt>
      <trkpt lat="47.63039" lon="-2.76987">
        <ele>3.7</ele>
        <time>2026-08-20T12:51:45Z</time>
      </trkpt>
      <trkpt lat="47.63039" lon="-2.7698">
        <ele>3.9</ele>
        <time>2026-08-20T12:51:46Z</time>
      </trkpt>
      <trkpt lat="47.63039" lon="-2.76973">
        <ele>4.2</ele>
        <time>2026-08-20T12:51:47Z</time>
      </trkpt>
      <trkpt lat="47.6304" lon="-2.76966">
        <ele>4.2</ele>
        <time>2026-08-20T12:51:48Z</time>
      </trkpt>
      <trkpt lat="47.6304" lon="-2.76959">
        <ele>4.1</ele>
        <time>2026-08-20T12:51:49Z</time>
      </trkpt>
      <trkpt lat="47.63042" lon="-2.76953">
        <ele>4.2</ele>
        <time>2026-08-20T12:51:50Z</time>
      </trkpt>
      <trkpt lat="47.63043" lon="-2.76945">
        <ele>4.2</ele>
        <time>2026-08-20T12:51:51Z</time>
      </trkpt>
      <trkpt lat="47.63044" lon="-2.76939">
        <ele>4.3</ele>
        <time>2026-08-20T12:51:52Z</time>
      </trkpt>
      <trkpt lat="47.63046" lon="-2.76933">
        <ele>4.5</ele>
        <time>2026-08-20T12:51:53Z</time>
      </trkpt>
      <trkpt lat="47.63047" lon="-2.76927">
        <ele>4.6</ele>
        <time>2026-08-20T12:51:54Z</time>
      </trkpt>
      <trkpt lat="47.63048" lon="-2.76921">
        <ele>4.7</ele>
        <time>2026-08-20T12:51:55Z</time>
      </trkpt>
      <trkpt lat="47.63049" lon="-2.76915">
        <ele>4.8</ele>
        <time>2026-08-20T12:51:56Z</time>
      </trkpt>
      <trkpt lat="47.6305" lon="-2.76909">
        <ele>4.8</ele>
        <time>2026-08-20T12:51:57Z</time>
      </trkpt>
      <trkpt lat="47.63051" lon="-2.76904">
        <ele>4.8</ele>
        <time>2026-08-20T12:51:58Z</time>
      </trkpt>
      <trkpt lat="47.63052" lon="-2.76898">
        <ele>4.8</ele>
        <time>2026-08-20T12:51:59Z</time>
      </trkpt>
      <trkpt lat="47.63053" lon="-2.76893">
        <ele>4.8</ele>
        <time>2026-08-20T12:52:00Z</time>
      </trkpt>
      <trkpt lat="47.63054" lon="-2.7689">
        <ele>4.8</ele>
        <time>2026-08-20T12:52:01Z</time>
      </trkpt>
      <trkpt lat="47.63055" lon="-2.76887">
        <ele>4.9</ele>
        <time>2026-08-20T12:52:02Z</time>
      </trkpt>
      <trkpt lat="47.63055" lon="-2.76885">
        <ele>4.9</ele>
        <time>2026-08-20T12:52:03Z</time>
      </trkpt>
      <trkpt lat="47.63056" lon="-2.76881">
        <ele>5</ele>
        <time>2026-08-20T12:52:04Z</time>
      </trkpt>
      <trkpt lat="47.63056" lon="-2.76877">
        <ele>5</ele>
        <time>2026-08-20T12:52:05Z</time>
      </trkpt>
      <trkpt lat="47.63057" lon="-2.76873">
        <ele>5.2</ele>
        <time>2026-08-20T12:52:06Z</time>
      </trkpt>
      <trkpt lat="47.63058" lon="-2.76867">
        <ele>5.3</ele>
        <time>2026-08-20T12:52:07Z</time>
      </trkpt>
      <trkpt lat="47.63058" lon="-2.76862">
        <ele>5.3</ele>
        <time>2026-08-20T12:52:08Z</time>
      </trkpt>
      <trkpt lat="47.63059" lon="-2.76856">
        <ele>5.4</ele>
        <time>2026-08-20T12:52:09Z</time>
      </trkpt>
      <trkpt lat="47.63059" lon="-2.7685">
        <ele>5.4</ele>
        <time>2026-08-20T12:52:10Z</time>
      </trkpt>
      <trkpt lat="47.6306" lon="-2.76845">
        <ele>5.5</ele>
        <time>2026-08-20T12:52:11Z</time>
      </trkpt>
      <trkpt lat="47.6306" lon="-2.76839">
        <ele>5.5</ele>
        <time>2026-08-20T12:52:12Z</time>
      </trkpt>
      <trkpt lat="47.6306" lon="-2.76833">
        <ele>5.5</ele>
        <time>2026-08-20T12:52:13Z</time>
      </trkpt>
      <trkpt lat="47.6306" lon="-2.76827">
        <ele>5.3</ele>
        <time>2026-08-20T12:52:14Z</time>
      </trkpt>
      <trkpt lat="47.6306" lon="-2.7682">
        <ele>5.1</ele>
        <time>2026-08-20T12:52:15Z</time>
      </trkpt>
      <trkpt lat="47.6306" lon="-2.76814">
        <ele>4.9</ele>
        <time>2026-08-20T12:52:16Z</time>
      </trkpt>
      <trkpt lat="47.6306" lon="-2.76807">
        <ele>4.7</ele>
        <time>2026-08-20T12:52:17Z</time>
      </trkpt>
      <trkpt lat="47.63061" lon="-2.76801">
        <ele>4.5</ele>
        <time>2026-08-20T12:52:18Z</time>
      </trkpt>
      <trkpt lat="47.63062" lon="-2.76794">
        <ele>4.3</ele>
        <time>2026-08-20T12:52:19Z</time>
      </trkpt>
      <trkpt lat="47.63064" lon="-2.76788">
        <ele>4.3</ele>
        <time>2026-08-20T12:52:20Z</time>
      </trkpt>
      <trkpt lat="47.63066" lon="-2.76783">
        <ele>4.5</ele>
        <time>2026-08-20T12:52:21Z</time>
      </trkpt>
      <trkpt lat="47.63069" lon="-2.76777">
        <ele>4.9</ele>
        <time>2026-08-20T12:52:22Z</time>
      </trkpt>
      <trkpt lat="47.63071" lon="-2.76772">
        <ele>5.1</ele>
        <time>2026-08-20T12:52:23Z</time>
      </trkpt>
      <trkpt lat="47.63073" lon="-2.76767">
        <ele>5.4</ele>
        <time>2026-08-20T12:52:24Z</time>
      </trkpt>
      <trkpt lat="47.63075" lon="-2.76761">
        <ele>5.6</ele>
        <time>2026-08-20T12:52:25Z</time>
      </trkpt>
      <trkpt lat="47.63078" lon="-2.76755">
        <ele>6</ele>
        <time>2026-08-20T12:52:26Z</time>
      </trkpt>
      <trkpt lat="47.6308" lon="-2.7675">
        <ele>6.3</ele>
        <time>2026-08-20T12:52:27Z</time>
      </trkpt>
      <trkpt lat="47.63082" lon="-2.76744">
        <ele>6.1</ele>
        <time>2026-08-20T12:52:28Z</time>
      </trkpt>
      <trkpt lat="47.63084" lon="-2.76738">
        <ele>5.8</ele>
        <time>2026-08-20T12:52:29Z</time>
      </trkpt>
      <trkpt lat="47.63086" lon="-2.76731">
        <ele>5.3</ele>
        <time>2026-08-20T12:52:30Z</time>
      </trkpt>
      <trkpt lat="47.63088" lon="-2.76725">
        <ele>4.9</ele>
        <time>2026-08-20T12:52:31Z</time>
      </trkpt>
      <trkpt lat="47.6309" lon="-2.76719">
        <ele>4.7</ele>
        <time>2026-08-20T12:52:32Z</time>
      </trkpt>
      <trkpt lat="47.63092" lon="-2.76712">
        <ele>4.4</ele>
        <time>2026-08-20T12:52:33Z</time>
      </trkpt>
      <trkpt lat="47.63095" lon="-2.76706">
        <ele>4.4</ele>
        <time>2026-08-20T12:52:34Z</time>
      </trkpt>
      <trkpt lat="47.63098" lon="-2.767">
        <ele>4.6</ele>
        <time>2026-08-20T12:52:35Z</time>
      </trkpt>
      <trkpt lat="47.63101" lon="-2.76695">
        <ele>4.9</ele>
        <time>2026-08-20T12:52:36Z</time>
      </trkpt>
      <trkpt lat="47.63104" lon="-2.7669">
        <ele>5.3</ele>
        <time>2026-08-20T12:52:37Z</time>
      </trkpt>
      <trkpt lat="47.63106" lon="-2.76684">
        <ele>5.6</ele>
        <time>2026-08-20T12:52:38Z</time>
      </trkpt>
      <trkpt lat="47.63108" lon="-2.7668">
        <ele>5.9</ele>
        <time>2026-08-20T12:52:39Z</time>
      </trkpt>
      <trkpt lat="47.63109" lon="-2.76675">
        <ele>5.9</ele>
        <time>2026-08-20T12:52:40Z</time>
      </trkpt>
      <trkpt lat="47.63111" lon="-2.7667">
        <ele>6.1</ele>
        <time>2026-08-20T12:52:41Z</time>
      </trkpt>
      <trkpt lat="47.63113" lon="-2.76665">
        <ele>6</ele>
        <time>2026-08-20T12:52:42Z</time>
      </trkpt>
      <trkpt lat="47.63115" lon="-2.76659">
        <ele>5.5</ele>
        <time>2026-08-20T12:52:43Z</time>
      </trkpt>
      <trkpt lat="47.63117" lon="-2.76653">
        <ele>5.2</ele>
        <time>2026-08-20T12:52:44Z</time>
      </trkpt>
      <trkpt lat="47.63118" lon="-2.76647">
        <ele>4.7</ele>
        <time>2026-08-20T12:52:45Z</time>
      </trkpt>
      <trkpt lat="47.63119" lon="-2.7664">
        <ele>4.2</ele>
        <time>2026-08-20T12:52:46Z</time>
      </trkpt>
      <trkpt lat="47.63121" lon="-2.76634">
        <ele>4.2</ele>
        <time>2026-08-20T12:52:47Z</time>
      </trkpt>
      <trkpt lat="47.63123" lon="-2.76628">
        <ele>4.3</ele>
        <time>2026-08-20T12:52:48Z</time>
      </trkpt>
      <trkpt lat="47.63124" lon="-2.76622">
        <ele>4.2</ele>
        <time>2026-08-20T12:52:49Z</time>
      </trkpt>
      <trkpt lat="47.63125" lon="-2.76617">
        <ele>4.2</ele>
        <time>2026-08-20T12:52:50Z</time>
      </trkpt>
      <trkpt lat="47.63127" lon="-2.7661">
        <ele>4.2</ele>
        <time>2026-08-20T12:52:51Z</time>
      </trkpt>
      <trkpt lat="47.63129" lon="-2.76603">
        <ele>4.3</ele>
        <time>2026-08-20T12:52:52Z</time>
      </trkpt>
      <trkpt lat="47.63132" lon="-2.76595">
        <ele>4.4</ele>
        <time>2026-08-20T12:52:53Z</time>
      </trkpt>
      <trkpt lat="47.63135" lon="-2.76589">
        <ele>4.6</ele>
        <time>2026-08-20T12:52:54Z</time>
      </trkpt>
      <trkpt lat="47.63138" lon="-2.76582">
        <ele>4.8</ele>
        <time>2026-08-20T12:52:55Z</time>
      </trkpt>
      <trkpt lat="47.6314" lon="-2.76576">
        <ele>4.8</ele>
        <time>2026-08-20T12:52:56Z</time>
      </trkpt>
      <trkpt lat="47.63141" lon="-2.76569">
        <ele>4.7</ele>
        <time>2026-08-20T12:52:57Z</time>
      </trkpt>
      <trkpt lat="47.63142" lon="-2.76563">
        <ele>4.7</ele>
        <time>2026-08-20T12:52:58Z</time>
      </trkpt>
      <trkpt lat="47.63143" lon="-2.76556">
        <ele>4.6</ele>
        <time>2026-08-20T12:52:59Z</time>
      </trkpt>
      <trkpt lat="47.63144" lon="-2.76548">
        <ele>4.6</ele>
        <time>2026-08-20T12:53:00Z</time>
      </trkpt>
      <trkpt lat="47.63146" lon="-2.76542">
        <ele>4.8</ele>
        <time>2026-08-20T12:53:01Z</time>
      </trkpt>
      <trkpt lat="47.63147" lon="-2.76534">
        <ele>4.8</ele>
        <time>2026-08-20T12:53:02Z</time>
      </trkpt>
      <trkpt lat="47.63148" lon="-2.76527">
        <ele>4.9</ele>
        <time>2026-08-20T12:53:03Z</time>
      </trkpt>
      <trkpt lat="47.63149" lon="-2.7652">
        <ele>5</ele>
        <time>2026-08-20T12:53:04Z</time>
      </trkpt>
      <trkpt lat="47.6315" lon="-2.76514">
        <ele>5.1</ele>
        <time>2026-08-20T12:53:05Z</time>
      </trkpt>
      <trkpt lat="47.63151" lon="-2.76506">
        <ele>5.2</ele>
        <time>2026-08-20T12:53:06Z</time>
      </trkpt>
      <trkpt lat="47.63152" lon="-2.76501">
        <ele>5.3</ele>
        <time>2026-08-20T12:53:07Z</time>
      </trkpt>
      <trkpt lat="47.63153" lon="-2.76495">
        <ele>5.4</ele>
        <time>2026-08-20T12:53:08Z</time>
      </trkpt>
      <trkpt lat="47.63154" lon="-2.76489">
        <ele>5.4</ele>
        <time>2026-08-20T12:53:09Z</time>
      </trkpt>
      <trkpt lat="47.63155" lon="-2.76483">
        <ele>5.4</ele>
        <time>2026-08-20T12:53:10Z</time>
      </trkpt>
      <trkpt lat="47.63157" lon="-2.76476">
        <ele>5.7</ele>
        <time>2026-08-20T12:53:11Z</time>
      </trkpt>
      <trkpt lat="47.63158" lon="-2.76469">
        <ele>5.7</ele>
        <time>2026-08-20T12:53:12Z</time>
      </trkpt>
      <trkpt lat="47.6316" lon="-2.76462">
        <ele>5.8</ele>
        <time>2026-08-20T12:53:13Z</time>
      </trkpt>
      <trkpt lat="47.63162" lon="-2.76455">
        <ele>5.8</ele>
        <time>2026-08-20T12:53:14Z</time>
      </trkpt>
      <trkpt lat="47.63164" lon="-2.76448">
        <ele>5.8</ele>
        <time>2026-08-20T12:53:15Z</time>
      </trkpt>
      <trkpt lat="47.63166" lon="-2.76441">
        <ele>5.5</ele>
        <time>2026-08-20T12:53:16Z</time>
      </trkpt>
      <trkpt lat="47.63168" lon="-2.76434">
        <ele>4.9</ele>
        <time>2026-08-20T12:53:17Z</time>
      </trkpt>
      <trkpt lat="47.63171" lon="-2.76428">
        <ele>4.4</ele>
        <time>2026-08-20T12:53:18Z</time>
      </trkpt>
      <trkpt lat="47.63175" lon="-2.76422">
        <ele>4.1</ele>
        <time>2026-08-20T12:53:19Z</time>
      </trkpt>
      <trkpt lat="47.63179" lon="-2.76417">
        <ele>3.9</ele>
        <time>2026-08-20T12:53:20Z</time>
      </trkpt>
      <trkpt lat="47.63183" lon="-2.76413">
        <ele>3.8</ele>
        <time>2026-08-20T12:53:21Z</time>
      </trkpt>
      <trkpt lat="47.63188" lon="-2.76409">
        <ele>3.8</ele>
        <time>2026-08-20T12:53:22Z</time>
      </trkpt>
      <trkpt lat="47.63194" lon="-2.76404">
        <ele>3.6</ele>
        <time>2026-08-20T12:53:23Z</time>
      </trkpt>
      <trkpt lat="47.63198" lon="-2.764">
        <ele>3.2</ele>
        <time>2026-08-20T12:53:24Z</time>
      </trkpt>
      <trkpt lat="47.63201" lon="-2.76396">
        <ele>2.8</ele>
        <time>2026-08-20T12:53:25Z</time>
      </trkpt>
      <trkpt lat="47.63203" lon="-2.76392">
        <ele>2.5</ele>
        <time>2026-08-20T12:53:26Z</time>
      </trkpt>
      <trkpt lat="47.63205" lon="-2.76387">
        <ele>2.3</ele>
        <time>2026-08-20T12:53:27Z</time>
      </trkpt>
      <trkpt lat="47.63207" lon="-2.76383">
        <ele>2.3</ele>
        <time>2026-08-20T12:53:28Z</time>
      </trkpt>
      <trkpt lat="47.63209" lon="-2.76379">
        <ele>2.4</ele>
        <time>2026-08-20T12:53:29Z</time>
      </trkpt>
      <trkpt lat="47.63212" lon="-2.76374">
        <ele>2.4</ele>
        <time>2026-08-20T12:53:30Z</time>
      </trkpt>
      <trkpt lat="47.63214" lon="-2.7637">
        <ele>2.5</ele>
        <time>2026-08-20T12:53:31Z</time>
      </trkpt>
      <trkpt lat="47.63217" lon="-2.76366">
        <ele>2.7</ele>
        <time>2026-08-20T12:53:32Z</time>
      </trkpt>
      <trkpt lat="47.6322" lon="-2.76361">
        <ele>2.84</ele>
        <time>2026-08-20T12:53:33Z</time>
      </trkpt>
      <trkpt lat="47.63223" lon="-2.76357">
        <ele>3</ele>
        <time>2026-08-20T12:53:34Z</time>
      </trkpt>
      <trkpt lat="47.63226" lon="-2.76353">
        <ele>2.8</ele>
        <time>2026-08-20T12:53:35Z</time>
      </trkpt>
      <trkpt lat="47.63229" lon="-2.76348">
        <ele>2.7</ele>
        <time>2026-08-20T12:53:36Z</time>
      </trkpt>
      <trkpt lat="47.63232" lon="-2.76343">
        <ele>2.8</ele>
        <time>2026-08-20T12:53:37Z</time>
      </trkpt>
      <trkpt lat="47.63235" lon="-2.76338">
        <ele>2.8</ele>
        <time>2026-08-20T12:53:38Z</time>
      </trkpt>
      <trkpt lat="47.63239" lon="-2.76332">
        <ele>2.9</ele>
        <time>2026-08-20T12:53:39Z</time>
      </trkpt>
      <trkpt lat="47.63242" lon="-2.76327">
        <ele>2.5</ele>
        <time>2026-08-20T12:53:40Z</time>
      </trkpt>
      <trkpt lat="47.63245" lon="-2.76322">
        <ele>2.2</ele>
        <time>2026-08-20T12:53:41Z</time>
      </trkpt>
      <trkpt lat="47.63248" lon="-2.76318">
        <ele>1.9</ele>
        <time>2026-08-20T12:53:42Z</time>
      </trkpt>
      <trkpt lat="47.63253" lon="-2.76312">
        <ele>1.6</ele>
        <time>2026-08-20T12:53:43Z</time>
      </trkpt>
      <trkpt lat="47.63256" lon="-2.76308">
        <ele>1.6</ele>
        <time>2026-08-20T12:53:44Z</time>
      </trkpt>
      <trkpt lat="47.63261" lon="-2.76304">
        <ele>1.7</ele>
        <time>2026-08-20T12:53:45Z</time>
      </trkpt>
      <trkpt lat="47.63265" lon="-2.763">
        <ele>1.9</ele>
        <time>2026-08-20T12:53:46Z</time>
      </trkpt>
      <trkpt lat="47.63269" lon="-2.76297">
        <ele>1.9</ele>
        <time>2026-08-20T12:53:47Z</time>
      </trkpt>
      <trkpt lat="47.63273" lon="-2.76293">
        <ele>1.9</ele>
        <time>2026-08-20T12:53:48Z</time>
      </trkpt>
      <trkpt lat="47.63278" lon="-2.7629">
        <ele>1.9</ele>
        <time>2026-08-20T12:53:49Z</time>
      </trkpt>
      <trkpt lat="47.63282" lon="-2.76287">
        <ele>1.9</ele>
        <time>2026-08-20T12:53:50Z</time>
      </trkpt>
      <trkpt lat="47.63287" lon="-2.76284">
        <ele>2</ele>
        <time>2026-08-20T12:53:51Z</time>
      </trkpt>
      <trkpt lat="47.63291" lon="-2.76281">
        <ele>2.1</ele>
        <time>2026-08-20T12:53:52Z</time>
      </trkpt>
      <trkpt lat="47.63295" lon="-2.76279">
        <ele>2.3</ele>
        <time>2026-08-20T12:53:53Z</time>
      </trkpt>
      <trkpt lat="47.633" lon="-2.76276">
        <ele>2.6</ele>
        <time>2026-08-20T12:53:54Z</time>
      </trkpt>
      <trkpt lat="47.63304" lon="-2.76273">
        <ele>2.89</ele>
        <time>2026-08-20T12:53:55Z</time>
      </trkpt>
      <trkpt lat="47.63309" lon="-2.7627">
        <ele>2.7</ele>
        <time>2026-08-20T12:53:56Z</time>
      </trkpt>
      <trkpt lat="47.63313" lon="-2.76268">
        <ele>2.6</ele>
        <time>2026-08-20T12:53:57Z</time>
      </trkpt>
      <trkpt lat="47.63318" lon="-2.76265">
        <ele>2.5</ele>
        <time>2026-08-20T12:53:58Z</time>
      </trkpt>
      <trkpt lat="47.63323" lon="-2.76263">
        <ele>2.5</ele>
        <time>2026-08-20T12:53:59Z</time>
      </trkpt>
      <trkpt lat="47.63327" lon="-2.7626">
        <ele>2.4</ele>
        <time>2026-08-20T12:54:00Z</time>
      </trkpt>
      <trkpt lat="47.63332" lon="-2.76258">
        <ele>2.3</ele>
        <time>2026-08-20T12:54:01Z</time>
      </trkpt>
      <trkpt lat="47.63336" lon="-2.76255">
        <ele>2.3</ele>
        <time>2026-08-20T12:54:02Z</time>
      </trkpt>
      <trkpt lat="47.63341" lon="-2.76253">
        <ele>2.4</ele>
        <time>2026-08-20T12:54:03Z</time>
      </trkpt>
      <trkpt lat="47.63346" lon="-2.76252">
        <ele>2.5</ele>
        <time>2026-08-20T12:54:04Z</time>
      </trkpt>
      <trkpt lat="47.6335" lon="-2.7625">
        <ele>2.6</ele>
        <time>2026-08-20T12:54:05Z</time>
      </trkpt>
      <trkpt lat="47.63355" lon="-2.76248">
        <ele>2.7</ele>
        <time>2026-08-20T12:54:06Z</time>
      </trkpt>
      <trkpt lat="47.63359" lon="-2.76247">
        <ele>2.7</ele>
        <time>2026-08-20T12:54:07Z</time>
      </trkpt>
      <trkpt lat="47.63364" lon="-2.76246">
        <ele>2.7</ele>
        <time>2026-08-20T12:54:08Z</time>
      </trkpt>
      <trkpt lat="47.63369" lon="-2.76245">
        <ele>2.6</ele>
        <time>2026-08-20T12:54:09Z</time>
      </trkpt>
      <trkpt lat="47.63374" lon="-2.76244">
        <ele>2.6</ele>
        <time>2026-08-20T12:54:10Z</time>
      </trkpt>
      <trkpt lat="47.63379" lon="-2.76244">
        <ele>2.6</ele>
        <time>2026-08-20T12:54:11Z</time>
      </trkpt>
      <trkpt lat="47.63384" lon="-2.76243">
        <ele>2.5</ele>
        <time>2026-08-20T12:54:12Z</time>
      </trkpt>
      <trkpt lat="47.63389" lon="-2.76243">
        <ele>2.5</ele>
        <time>2026-08-20T12:54:13Z</time>
      </trkpt>
      <trkpt lat="47.63393" lon="-2.76243">
        <ele>2.6</ele>
        <time>2026-08-20T12:54:14Z</time>
      </trkpt>
      <trkpt lat="47.63398" lon="-2.76242">
        <ele>2.7</ele>
        <time>2026-08-20T12:54:15Z</time>
      </trkpt>
      <trkpt lat="47.63403" lon="-2.76242">
        <ele>2.8</ele>
        <time>2026-08-20T12:54:16Z</time>
      </trkpt>
      <trkpt lat="47.63408" lon="-2.76241">
        <ele>2.8</ele>
        <time>2026-08-20T12:54:17Z</time>
      </trkpt>
      <trkpt lat="47.63413" lon="-2.7624">
        <ele>2.8</ele>
        <time>2026-08-20T12:54:18Z</time>
      </trkpt>
      <trkpt lat="47.63418" lon="-2.7624">
        <ele>3.2</ele>
        <time>2026-08-20T12:54:19Z</time>
      </trkpt>
      <trkpt lat="47.63422" lon="-2.76239">
        <ele>3.1</ele>
        <time>2026-08-20T12:54:20Z</time>
      </trkpt>
      <trkpt lat="47.63427" lon="-2.76238">
        <ele>2.9</ele>
        <time>2026-08-20T12:54:21Z</time>
      </trkpt>
      <trkpt lat="47.63432" lon="-2.76238">
        <ele>2.8</ele>
        <time>2026-08-20T12:54:22Z</time>
      </trkpt>
      <trkpt lat="47.63437" lon="-2.76238">
        <ele>2.7</ele>
        <time>2026-08-20T12:54:23Z</time>
      </trkpt>
      <trkpt lat="47.63441" lon="-2.76237">
        <ele>2.6</ele>
        <time>2026-08-20T12:54:24Z</time>
      </trkpt>
      <trkpt lat="47.63446" lon="-2.76237">
        <ele>2.7</ele>
        <time>2026-08-20T12:54:25Z</time>
      </trkpt>
      <trkpt lat="47.63451" lon="-2.76236">
        <ele>3.1</ele>
        <time>2026-08-20T12:54:26Z</time>
      </trkpt>
      <trkpt lat="47.63456" lon="-2.76235">
        <ele>3.5</ele>
        <time>2026-08-20T12:54:27Z</time>
      </trkpt>
      <trkpt lat="47.6346" lon="-2.76234">
        <ele>4</ele>
        <time>2026-08-20T12:54:28Z</time>
      </trkpt>
      <trkpt lat="47.63465" lon="-2.76233">
        <ele>4.5</ele>
        <time>2026-08-20T12:54:29Z</time>
      </trkpt>
      <trkpt lat="47.6347" lon="-2.76232">
        <ele>5.1</ele>
        <time>2026-08-20T12:54:30Z</time>
      </trkpt>
      <trkpt lat="47.63474" lon="-2.76232">
        <ele>5.1</ele>
        <time>2026-08-20T12:54:31Z</time>
      </trkpt>
      <trkpt lat="47.63479" lon="-2.76231">
        <ele>4.5</ele>
        <time>2026-08-20T12:54:32Z</time>
      </trkpt>
      <trkpt lat="47.63484" lon="-2.76231">
        <ele>3.8</ele>
        <time>2026-08-20T12:54:33Z</time>
      </trkpt>
      <trkpt lat="47.63489" lon="-2.7623">
        <ele>3.1</ele>
        <time>2026-08-20T12:54:34Z</time>
      </trkpt>
      <trkpt lat="47.63493" lon="-2.7623">
        <ele>2.5</ele>
        <time>2026-08-20T12:54:35Z</time>
      </trkpt>
      <trkpt lat="47.63498" lon="-2.76229">
        <ele>1.8</ele>
        <time>2026-08-20T12:54:36Z</time>
      </trkpt>
      <trkpt lat="47.63503" lon="-2.76228">
        <ele>1.6</ele>
        <time>2026-08-20T12:54:37Z</time>
      </trkpt>
      <trkpt lat="47.63507" lon="-2.76228">
        <ele>1.8</ele>
        <time>2026-08-20T12:54:38Z</time>
      </trkpt>
      <trkpt lat="47.63512" lon="-2.76228">
        <ele>2.1</ele>
        <time>2026-08-20T12:54:39Z</time>
      </trkpt>
      <trkpt lat="47.63517" lon="-2.76228">
        <ele>2.4</ele>
        <time>2026-08-20T12:54:40Z</time>
      </trkpt>
      <trkpt lat="47.63521" lon="-2.76227">
        <ele>2.6</ele>
        <time>2026-08-20T12:54:41Z</time>
      </trkpt>
      <trkpt lat="47.63526" lon="-2.76227">
        <ele>2.9</ele>
        <time>2026-08-20T12:54:42Z</time>
      </trkpt>
      <trkpt lat="47.63531" lon="-2.76226">
        <ele>2.9</ele>
        <time>2026-08-20T12:54:43Z</time>
      </trkpt>
      <trkpt lat="47.63536" lon="-2.76226">
        <ele>2.7</ele>
        <time>2026-08-20T12:54:44Z</time>
      </trkpt>
      <trkpt lat="47.63541" lon="-2.76225">
        <ele>2.6</ele>
        <time>2026-08-20T12:54:45Z</time>
      </trkpt>
      <trkpt lat="47.63546" lon="-2.76225">
        <ele>2.4</ele>
        <time>2026-08-20T12:54:46Z</time>
      </trkpt>
      <trkpt lat="47.6355" lon="-2.76225">
        <ele>2.3</ele>
        <time>2026-08-20T12:54:47Z</time>
      </trkpt>
      <trkpt lat="47.63555" lon="-2.76224">
        <ele>2.1</ele>
        <time>2026-08-20T12:54:48Z</time>
      </trkpt>
      <trkpt lat="47.6356" lon="-2.76224">
        <ele>2.2</ele>
        <time>2026-08-20T12:54:49Z</time>
      </trkpt>
      <trkpt lat="47.63565" lon="-2.76224">
        <ele>2.4</ele>
        <time>2026-08-20T12:54:50Z</time>
      </trkpt>
      <trkpt lat="47.6357" lon="-2.76223">
        <ele>2.5</ele>
        <time>2026-08-20T12:54:51Z</time>
      </trkpt>
      <trkpt lat="47.63574" lon="-2.76223">
        <ele>2.7</ele>
        <time>2026-08-20T12:54:52Z</time>
      </trkpt>
      <trkpt lat="47.63578" lon="-2.76222">
        <ele>2.8</ele>
        <time>2026-08-20T12:54:53Z</time>
      </trkpt>
      <trkpt lat="47.63583" lon="-2.76222">
        <ele>3</ele>
        <time>2026-08-20T12:54:54Z</time>
      </trkpt>
      <trkpt lat="47.63588" lon="-2.76221">
        <ele>3.1</ele>
        <time>2026-08-20T12:54:55Z</time>
      </trkpt>
      <trkpt lat="47.63593" lon="-2.76221">
        <ele>3.1</ele>
        <time>2026-08-20T12:54:56Z</time>
      </trkpt>
      <trkpt lat="47.63598" lon="-2.7622">
        <ele>3.1</ele>
        <time>2026-08-20T12:54:57Z</time>
      </trkpt>
      <trkpt lat="47.63603" lon="-2.7622">
        <ele>3</ele>
        <time>2026-08-20T12:54:58Z</time>
      </trkpt>
      <trkpt lat="47.63608" lon="-2.7622">
        <ele>3</ele>
        <time>2026-08-20T12:54:59Z</time>
      </trkpt>
      <trkpt lat="47.63612" lon="-2.7622">
        <ele>3</ele>
        <time>2026-08-20T12:55:00Z</time>
      </trkpt>
      <trkpt lat="47.63617" lon="-2.7622">
        <ele>3</ele>
        <time>2026-08-20T12:55:01Z</time>
      </trkpt>
      <trkpt lat="47.63622" lon="-2.7622">
        <ele>3</ele>
        <time>2026-08-20T12:55:02Z</time>
      </trkpt>
      <trkpt lat="47.63627" lon="-2.7622">
        <ele>3</ele>
        <time>2026-08-20T12:55:03Z</time>
      </trkpt>
      <trkpt lat="47.63632" lon="-2.76221">
        <ele>3</ele>
        <time>2026-08-20T12:55:04Z</time>
      </trkpt>
      <trkpt lat="47.63636" lon="-2.76222">
        <ele>3</ele>
        <time>2026-08-20T12:55:05Z</time>
      </trkpt>
      <trkpt lat="47.63641" lon="-2.76224">
        <ele>3</ele>
        <time>2026-08-20T12:55:06Z</time>
      </trkpt>
      <trkpt lat="47.63646" lon="-2.76227">
        <ele>3</ele>
        <time>2026-08-20T12:55:07Z</time>
      </trkpt>
      <trkpt lat="47.63651" lon="-2.76228">
        <ele>3.1</ele>
        <time>2026-08-20T12:55:08Z</time>
      </trkpt>
      <trkpt lat="47.63655" lon="-2.7623">
        <ele>3.2</ele>
        <time>2026-08-20T12:55:09Z</time>
      </trkpt>
      <trkpt lat="47.63659" lon="-2.76232">
        <ele>3.3</ele>
        <time>2026-08-20T12:55:10Z</time>
      </trkpt>
      <trkpt lat="47.63663" lon="-2.76234">
        <ele>3.4</ele>
        <time>2026-08-20T12:55:11Z</time>
      </trkpt>
      <trkpt lat="47.63666" lon="-2.76236">
        <ele>3.5</ele>
        <time>2026-08-20T12:55:12Z</time>
      </trkpt>
      <trkpt lat="47.63669" lon="-2.76239">
        <ele>3.6</ele>
        <time>2026-08-20T12:55:13Z</time>
      </trkpt>
      <trkpt lat="47.63672" lon="-2.76242">
        <ele>3.6</ele>
        <time>2026-08-20T12:55:14Z</time>
      </trkpt>
      <trkpt lat="47.63676" lon="-2.76244">
        <ele>3.5</ele>
        <time>2026-08-20T12:55:15Z</time>
      </trkpt>
      <trkpt lat="47.6368" lon="-2.76246">
        <ele>3.4</ele>
        <time>2026-08-20T12:55:16Z</time>
      </trkpt>
      <trkpt lat="47.63684" lon="-2.76247">
        <ele>3.3</ele>
        <time>2026-08-20T12:55:17Z</time>
      </trkpt>
      <trkpt lat="47.63688" lon="-2.76249">
        <ele>3.2</ele>
        <time>2026-08-20T12:55:18Z</time>
      </trkpt>
      <trkpt lat="47.63692" lon="-2.76251">
        <ele>3.1</ele>
        <time>2026-08-20T12:55:19Z</time>
      </trkpt>
      <trkpt lat="47.63696" lon="-2.76252">
        <ele>3.1</ele>
        <time>2026-08-20T12:55:20Z</time>
      </trkpt>
      <trkpt lat="47.637" lon="-2.76254">
        <ele>3.2</ele>
        <time>2026-08-20T12:55:21Z</time>
      </trkpt>
      <trkpt lat="47.63704" lon="-2.76255">
        <ele>3.3</ele>
        <time>2026-08-20T12:55:22Z</time>
      </trkpt>
      <trkpt lat="47.63708" lon="-2.76257">
        <ele>3.5</ele>
        <time>2026-08-20T12:55:23Z</time>
      </trkpt>
      <trkpt lat="47.63712" lon="-2.76258">
        <ele>3.6</ele>
        <time>2026-08-20T12:55:24Z</time>
      </trkpt>
      <trkpt lat="47.63715" lon="-2.76259">
        <ele>3.7</ele>
        <time>2026-08-20T12:55:25Z</time>
      </trkpt>
      <trkpt lat="47.63718" lon="-2.76259">
        <ele>3.8</ele>
        <time>2026-08-20T12:55:26Z</time>
      </trkpt>
      <trkpt lat="47.63721" lon="-2.7626">
        <ele>4</ele>
        <time>2026-08-20T12:55:27Z</time>
      </trkpt>
      <trkpt lat="47.63725" lon="-2.76261">
        <ele>3.9</ele>
        <time>2026-08-20T12:55:28Z</time>
      </trkpt>
      <trkpt lat="47.63728" lon="-2.76262">
        <ele>3.8</ele>
        <time>2026-08-20T12:55:29Z</time>
      </trkpt>
      <trkpt lat="47.63732" lon="-2.76262">
        <ele>3.6</ele>
        <time>2026-08-20T12:55:30Z</time>
      </trkpt>
      <trkpt lat="47.63736" lon="-2.76262">
        <ele>3.5</ele>
        <time>2026-08-20T12:55:31Z</time>
      </trkpt>
      <trkpt lat="47.63741" lon="-2.76261">
        <ele>3.3</ele>
        <time>2026-08-20T12:55:32Z</time>
      </trkpt>
      <trkpt lat="47.63745" lon="-2.7626">
        <ele>3.2</ele>
        <time>2026-08-20T12:55:33Z</time>
      </trkpt>
      <trkpt lat="47.6375" lon="-2.76259">
        <ele>3</ele>
        <time>2026-08-20T12:55:34Z</time>
      </trkpt>
      <trkpt lat="47.63753" lon="-2.76258">
        <ele>3</ele>
        <time>2026-08-20T12:55:35Z</time>
      </trkpt>
      <trkpt lat="47.63757" lon="-2.76257">
        <ele>3</ele>
        <time>2026-08-20T12:55:36Z</time>
      </trkpt>
      <trkpt lat="47.63762" lon="-2.76256">
        <ele>3</ele>
        <time>2026-08-20T12:55:37Z</time>
      </trkpt>
      <trkpt lat="47.63767" lon="-2.76256">
        <ele>3</ele>
        <time>2026-08-20T12:55:38Z</time>
      </trkpt>
      <trkpt lat="47.63771" lon="-2.76255">
        <ele>3</ele>
        <time>2026-08-20T12:55:39Z</time>
      </trkpt>
      <trkpt lat="47.63776" lon="-2.76254">
        <ele>3</ele>
        <time>2026-08-20T12:55:40Z</time>
      </trkpt>
      <trkpt lat="47.63781" lon="-2.76254">
        <ele>3</ele>
        <time>2026-08-20T12:55:41Z</time>
      </trkpt>
      <trkpt lat="47.63785" lon="-2.76254">
        <ele>3</ele>
        <time>2026-08-20T12:55:42Z</time>
      </trkpt>
      <trkpt lat="47.6379" lon="-2.76253">
        <ele>3</ele>
        <time>2026-08-20T12:55:43Z</time>
      </trkpt>
      <trkpt lat="47.63795" lon="-2.76253">
        <ele>3</ele>
        <time>2026-08-20T12:55:44Z</time>
      </trkpt>
      <trkpt lat="47.638" lon="-2.76253">
        <ele>3</ele>
        <time>2026-08-20T12:55:45Z</time>
      </trkpt>
      <trkpt lat="47.63805" lon="-2.76252">
        <ele>3</ele>
        <time>2026-08-20T12:55:46Z</time>
      </trkpt>
      <trkpt lat="47.6381" lon="-2.76252">
        <ele>3</ele>
        <time>2026-08-20T12:55:47Z</time>
      </trkpt>
      <trkpt lat="47.63815" lon="-2.76251">
        <ele>3</ele>
        <time>2026-08-20T12:55:48Z</time>
      </trkpt>
      <trkpt lat="47.6382" lon="-2.76251">
        <ele>3</ele>
        <time>2026-08-20T12:55:49Z</time>
      </trkpt>
      <trkpt lat="47.63825" lon="-2.7625">
        <ele>3</ele>
        <time>2026-08-20T12:55:50Z</time>
      </trkpt>
      <trkpt lat="47.6383" lon="-2.76249">
        <ele>3</ele>
        <time>2026-08-20T12:55:51Z</time>
      </trkpt>
      <trkpt lat="47.63835" lon="-2.76249">
        <ele>3</ele>
        <time>2026-08-20T12:55:52Z</time>
      </trkpt>
      <trkpt lat="47.63839" lon="-2.76248">
        <ele>3</ele>
        <time>2026-08-20T12:55:53Z</time>
      </trkpt>
      <trkpt lat="47.63844" lon="-2.76248">
        <ele>3</ele>
        <time>2026-08-20T12:55:54Z</time>
      </trkpt>
      <trkpt lat="47.63849" lon="-2.76248">
        <ele>3</ele>
        <time>2026-08-20T12:55:55Z</time>
      </trkpt>
      <trkpt lat="47.63854" lon="-2.76247">
        <ele>3</ele>
        <time>2026-08-20T12:55:56Z</time>
      </trkpt>
      <trkpt lat="47.63859" lon="-2.76247">
        <ele>3</ele>
        <time>2026-08-20T12:55:57Z</time>
      </trkpt>
      <trkpt lat="47.63864" lon="-2.76247">
        <ele>3</ele>
        <time>2026-08-20T12:55:58Z</time>
      </trkpt>
      <trkpt lat="47.63868" lon="-2.76246">
        <ele>3</ele>
        <time>2026-08-20T12:55:59Z</time>
      </trkpt>
      <trkpt lat="47.63873" lon="-2.76246">
        <ele>3</ele>
        <time>2026-08-20T12:56:00Z</time>
      </trkpt>
      <trkpt lat="47.63878" lon="-2.76245">
        <ele>3</ele>
        <time>2026-08-20T12:56:01Z</time>
      </trkpt>
      <trkpt lat="47.63883" lon="-2.76245">
        <ele>3</ele>
        <time>2026-08-20T12:56:02Z</time>
      </trkpt>
      <trkpt lat="47.63888" lon="-2.76244">
        <ele>3</ele>
        <time>2026-08-20T12:56:03Z</time>
      </trkpt>
      <trkpt lat="47.63893" lon="-2.76244">
        <ele>3</ele>
        <time>2026-08-20T12:56:04Z</time>
      </trkpt>
      <trkpt lat="47.63897" lon="-2.76244">
        <ele>3</ele>
        <time>2026-08-20T12:56:05Z</time>
      </trkpt>
      <trkpt lat="47.63902" lon="-2.76243">
        <ele>3</ele>
        <time>2026-08-20T12:56:06Z</time>
      </trkpt>
      <trkpt lat="47.63907" lon="-2.76243">
        <ele>3</ele>
        <time>2026-08-20T12:56:07Z</time>
      </trkpt>
      <trkpt lat="47.63912" lon="-2.76242">
        <ele>3</ele>
        <time>2026-08-20T12:56:08Z</time>
      </trkpt>
      <trkpt lat="47.63917" lon="-2.76242">
        <ele>3</ele>
        <time>2026-08-20T12:56:09Z</time>
      </trkpt>
      <trkpt lat="47.63922" lon="-2.76241">
        <ele>3</ele>
        <time>2026-08-20T12:56:10Z</time>
      </trkpt>
      <trkpt lat="47.63927" lon="-2.76241">
        <ele>3</ele>
        <time>2026-08-20T12:56:11Z</time>
      </trkpt>
      <trkpt lat="47.63932" lon="-2.76241">
        <ele>3</ele>
        <time>2026-08-20T12:56:12Z</time>
      </trkpt>
      <trkpt lat="47.63937" lon="-2.7624">
        <ele>3</ele>
        <time>2026-08-20T12:56:13Z</time>
      </trkpt>
      <trkpt lat="47.63942" lon="-2.7624">
        <ele>3</ele>
        <time>2026-08-20T12:56:14Z</time>
      </trkpt>
      <trkpt lat="47.63947" lon="-2.7624">
        <ele>3</ele>
        <time>2026-08-20T12:56:15Z</time>
      </trkpt>
      <trkpt lat="47.63951" lon="-2.76239">
        <ele>3</ele>
        <time>2026-08-20T12:56:16Z</time>
      </trkpt>
      <trkpt lat="47.63956" lon="-2.76238">
        <ele>3</ele>
        <time>2026-08-20T12:56:17Z</time>
      </trkpt>
      <trkpt lat="47.63961" lon="-2.76238">
        <ele>3</ele>
        <time>2026-08-20T12:56:18Z</time>
      </trkpt>
      <trkpt lat="47.63965" lon="-2.76238">
        <ele>3</ele>
        <time>2026-08-20T12:56:19Z</time>
      </trkpt>
      <trkpt lat="47.6397" lon="-2.76237">
        <ele>3</ele>
        <time>2026-08-20T12:56:20Z</time>
      </trkpt>
      <trkpt lat="47.63974" lon="-2.76237">
        <ele>3</ele>
        <time>2026-08-20T12:56:21Z</time>
      </trkpt>
      <trkpt lat="47.63979" lon="-2.76237">
        <ele>3</ele>
        <time>2026-08-20T12:56:22Z</time>
      </trkpt>
      <trkpt lat="47.63984" lon="-2.76236">
        <ele>3</ele>
        <time>2026-08-20T12:56:23Z</time>
      </trkpt>
      <trkpt lat="47.63988" lon="-2.76236">
        <ele>3</ele>
        <time>2026-08-20T12:56:24Z</time>
      </trkpt>
      <trkpt lat="47.63992" lon="-2.76235">
        <ele>3</ele>
        <time>2026-08-20T12:56:25Z</time>
      </trkpt>
      <trkpt lat="47.63996" lon="-2.76233">
        <ele>3</ele>
        <time>2026-08-20T12:56:26Z</time>
      </trkpt>
      <trkpt lat="47.63999" lon="-2.76229">
        <ele>3</ele>
        <time>2026-08-20T12:56:27Z</time>
      </trkpt>
      <trkpt lat="47.64001" lon="-2.76223">
        <ele>3</ele>
        <time>2026-08-20T12:56:28Z</time>
      </trkpt>
      <trkpt lat="47.64002" lon="-2.76217">
        <ele>3</ele>
        <time>2026-08-20T12:56:29Z</time>
      </trkpt>
      <trkpt lat="47.64003" lon="-2.76211">
        <ele>3</ele>
        <time>2026-08-20T12:56:30Z</time>
      </trkpt>
      <trkpt lat="47.64004" lon="-2.76205">
        <ele>3</ele>
        <time>2026-08-20T12:56:31Z</time>
      </trkpt>
      <trkpt lat="47.64006" lon="-2.762">
        <ele>3</ele>
        <time>2026-08-20T12:56:32Z</time>
      </trkpt>
      <trkpt lat="47.64008" lon="-2.76194">
        <ele>3</ele>
        <time>2026-08-20T12:56:33Z</time>
      </trkpt>
      <trkpt lat="47.6401" lon="-2.76188">
        <ele>3</ele>
        <time>2026-08-20T12:56:34Z</time>
      </trkpt>
      <trkpt lat="47.64013" lon="-2.76183">
        <ele>3</ele>
        <time>2026-08-20T12:56:35Z</time>
      </trkpt>
      <trkpt lat="47.64016" lon="-2.76179">
        <ele>3</ele>
        <time>2026-08-20T12:56:36Z</time>
      </trkpt>
      <trkpt lat="47.64019" lon="-2.76176">
        <ele>3</ele>
        <time>2026-08-20T12:56:37Z</time>
      </trkpt>
      <trkpt lat="47.64023" lon="-2.76175">
        <ele>3</ele>
        <time>2026-08-20T12:56:38Z</time>
      </trkpt>
      <trkpt lat="47.64027" lon="-2.76173">
        <ele>3</ele>
        <time>2026-08-20T12:56:39Z</time>
      </trkpt>
      <trkpt lat="47.64032" lon="-2.76172">
        <ele>3</ele>
        <time>2026-08-20T12:56:40Z</time>
      </trkpt>
      <trkpt lat="47.64036" lon="-2.7617">
        <ele>3</ele>
        <time>2026-08-20T12:56:41Z</time>
      </trkpt>
      <trkpt lat="47.6404" lon="-2.76168">
        <ele>3</ele>
        <time>2026-08-20T12:56:42Z</time>
      </trkpt>
      <trkpt lat="47.64045" lon="-2.76167">
        <ele>3</ele>
        <time>2026-08-20T12:56:43Z</time>
      </trkpt>
      <trkpt lat="47.64049" lon="-2.76165">
        <ele>3</ele>
        <time>2026-08-20T12:56:44Z</time>
      </trkpt>
      <trkpt lat="47.64053" lon="-2.76163">
        <ele>3</ele>
        <time>2026-08-20T12:56:45Z</time>
      </trkpt>
      <trkpt lat="47.64058" lon="-2.76161">
        <ele>3</ele>
        <time>2026-08-20T12:56:46Z</time>
      </trkpt>
      <trkpt lat="47.64062" lon="-2.7616">
        <ele>2.9</ele>
        <time>2026-08-20T12:56:47Z</time>
      </trkpt>
      <trkpt lat="47.64066" lon="-2.76159">
        <ele>2.8</ele>
        <time>2026-08-20T12:56:48Z</time>
      </trkpt>
      <trkpt lat="47.64071" lon="-2.76158">
        <ele>2.7</ele>
        <time>2026-08-20T12:56:49Z</time>
      </trkpt>
      <trkpt lat="47.64075" lon="-2.76158">
        <ele>2.6</ele>
        <time>2026-08-20T12:56:50Z</time>
      </trkpt>
      <trkpt lat="47.6408" lon="-2.76157">
        <ele>2.4</ele>
        <time>2026-08-20T12:56:51Z</time>
      </trkpt>
      <trkpt lat="47.64084" lon="-2.76157">
        <ele>2.3</ele>
        <time>2026-08-20T12:56:52Z</time>
      </trkpt>
      <trkpt lat="47.64088" lon="-2.76156">
        <ele>2.4</ele>
        <time>2026-08-20T12:56:53Z</time>
      </trkpt>
      <trkpt lat="47.64092" lon="-2.76154">
        <ele>2.4</ele>
        <time>2026-08-20T12:56:54Z</time>
      </trkpt>
      <trkpt lat="47.64096" lon="-2.76151">
        <ele>2.4</ele>
        <time>2026-08-20T12:56:55Z</time>
      </trkpt>
      <trkpt lat="47.64101" lon="-2.76148">
        <ele>2.5</ele>
        <time>2026-08-20T12:56:56Z</time>
      </trkpt>
      <trkpt lat="47.64105" lon="-2.76145">
        <ele>2.7</ele>
        <time>2026-08-20T12:56:57Z</time>
      </trkpt>
      <trkpt lat="47.64109" lon="-2.76141">
        <ele>2.9</ele>
        <time>2026-08-20T12:56:58Z</time>
      </trkpt>
      <trkpt lat="47.64114" lon="-2.76139">
        <ele>3</ele>
        <time>2026-08-20T12:56:59Z</time>
      </trkpt>
      <trkpt lat="47.64118" lon="-2.76137">
        <ele>3</ele>
        <time>2026-08-20T12:57:00Z</time>
      </trkpt>
      <trkpt lat="47.64122" lon="-2.76135">
        <ele>3</ele>
        <time>2026-08-20T12:57:01Z</time>
      </trkpt>
      <trkpt lat="47.64127" lon="-2.76133">
        <ele>3</ele>
        <time>2026-08-20T12:57:02Z</time>
      </trkpt>
      <trkpt lat="47.64131" lon="-2.76131">
        <ele>3</ele>
        <time>2026-08-20T12:57:03Z</time>
      </trkpt>
      <trkpt lat="47.64136" lon="-2.76129">
        <ele>3</ele>
        <time>2026-08-20T12:57:04Z</time>
      </trkpt>
      <trkpt lat="47.64141" lon="-2.76127">
        <ele>2.1</ele>
        <time>2026-08-20T12:57:05Z</time>
      </trkpt>
      <trkpt lat="47.64146" lon="-2.76125">
        <ele>2</ele>
        <time>2026-08-20T12:57:06Z</time>
      </trkpt>
      <trkpt lat="47.64151" lon="-2.76124">
        <ele>1.9</ele>
        <time>2026-08-20T12:57:07Z</time>
      </trkpt>
      <trkpt lat="47.64156" lon="-2.76122">
        <ele>1.8</ele>
        <time>2026-08-20T12:57:08Z</time>
      </trkpt>
      <trkpt lat="47.64161" lon="-2.7612">
        <ele>1.6</ele>
        <time>2026-08-20T12:57:09Z</time>
      </trkpt>
      <trkpt lat="47.64166" lon="-2.76118">
        <ele>1.5</ele>
        <time>2026-08-20T12:57:10Z</time>
      </trkpt>
      <trkpt lat="47.6417" lon="-2.76116">
        <ele>1.5</ele>
        <time>2026-08-20T12:57:11Z</time>
      </trkpt>
      <trkpt lat="47.64175" lon="-2.76115">
        <ele>1.8</ele>
        <time>2026-08-20T12:57:12Z</time>
      </trkpt>
      <trkpt lat="47.6418" lon="-2.76113">
        <ele>2</ele>
        <time>2026-08-20T12:57:13Z</time>
      </trkpt>
      <trkpt lat="47.64185" lon="-2.76111">
        <ele>2.32</ele>
        <time>2026-08-20T12:57:14Z</time>
      </trkpt>
      <trkpt lat="47.6419" lon="-2.7611">
        <ele>2.68</ele>
        <time>2026-08-20T12:57:15Z</time>
      </trkpt>
      <trkpt lat="47.64195" lon="-2.76108">
        <ele>2.8</ele>
        <time>2026-08-20T12:57:16Z</time>
      </trkpt>
      <trkpt lat="47.64199" lon="-2.76106">
        <ele>2.6</ele>
        <time>2026-08-20T12:57:17Z</time>
      </trkpt>
      <trkpt lat="47.64204" lon="-2.76104">
        <ele>2.5</ele>
        <time>2026-08-20T12:57:18Z</time>
      </trkpt>
      <trkpt lat="47.64208" lon="-2.76102">
        <ele>2.3</ele>
        <time>2026-08-20T12:57:19Z</time>
      </trkpt>
      <trkpt lat="47.64213" lon="-2.761">
        <ele>2.2</ele>
        <time>2026-08-20T12:57:20Z</time>
      </trkpt>
      <trkpt lat="47.64217" lon="-2.76098">
        <ele>2.1</ele>
        <time>2026-08-20T12:57:21Z</time>
      </trkpt>
      <trkpt lat="47.64222" lon="-2.76097">
        <ele>2</ele>
        <time>2026-08-20T12:57:22Z</time>
      </trkpt>
      <trkpt lat="47.64227" lon="-2.76095">
        <ele>2</ele>
        <time>2026-08-20T12:57:23Z</time>
      </trkpt>
      <trkpt lat="47.64232" lon="-2.76093">
        <ele>2</ele>
        <time>2026-08-20T12:57:24Z</time>
      </trkpt>
      <trkpt lat="47.64237" lon="-2.76091">
        <ele>2.1</ele>
        <time>2026-08-20T12:57:25Z</time>
      </trkpt>
      <trkpt lat="47.64241" lon="-2.76089">
        <ele>2.1</ele>
        <time>2026-08-20T12:57:26Z</time>
      </trkpt>
      <trkpt lat="47.64246" lon="-2.76088">
        <ele>2.2</ele>
        <time>2026-08-20T12:57:27Z</time>
      </trkpt>
      <trkpt lat="47.64251" lon="-2.76086">
        <ele>2.2</ele>
        <time>2026-08-20T12:57:28Z</time>
      </trkpt>
      <trkpt lat="47.64255" lon="-2.76084">
        <ele>2.2</ele>
        <time>2026-08-20T12:57:29Z</time>
      </trkpt>
      <trkpt lat="47.6426" lon="-2.76083">
        <ele>2.4</ele>
        <time>2026-08-20T12:57:30Z</time>
      </trkpt>
      <trkpt lat="47.64265" lon="-2.76082">
        <ele>2.5</ele>
        <time>2026-08-20T12:57:31Z</time>
      </trkpt>
      <trkpt lat="47.6427" lon="-2.7608">
        <ele>2.6</ele>
        <time>2026-08-20T12:57:32Z</time>
      </trkpt>
      <trkpt lat="47.64274" lon="-2.76078">
        <ele>2.7</ele>
        <time>2026-08-20T12:57:33Z</time>
      </trkpt>
      <trkpt lat="47.64279" lon="-2.76075">
        <ele>2.7</ele>
        <time>2026-08-20T12:57:34Z</time>
      </trkpt>
      <trkpt lat="47.64283" lon="-2.76072">
        <ele>2.7</ele>
        <time>2026-08-20T12:57:35Z</time>
      </trkpt>
      <trkpt lat="47.64287" lon="-2.76069">
        <ele>2.7</ele>
        <time>2026-08-20T12:57:36Z</time>
      </trkpt>
      <trkpt lat="47.64291" lon="-2.76065">
        <ele>2.7</ele>
        <time>2026-08-20T12:57:37Z</time>
      </trkpt>
      <trkpt lat="47.64295" lon="-2.7606">
        <ele>2.7</ele>
        <time>2026-08-20T12:57:38Z</time>
      </trkpt>
      <trkpt lat="47.64299" lon="-2.76056">
        <ele>2.8</ele>
        <time>2026-08-20T12:57:39Z</time>
      </trkpt>
      <trkpt lat="47.64303" lon="-2.76051">
        <ele>2.91</ele>
        <time>2026-08-20T12:57:40Z</time>
      </trkpt>
      <trkpt lat="47.64307" lon="-2.76047">
        <ele>3</ele>
        <time>2026-08-20T12:57:41Z</time>
      </trkpt>
      <trkpt lat="47.64311" lon="-2.76043">
        <ele>3</ele>
        <time>2026-08-20T12:57:42Z</time>
      </trkpt>
      <trkpt lat="47.64315" lon="-2.76038">
        <ele>3</ele>
        <time>2026-08-20T12:57:43Z</time>
      </trkpt>
      <trkpt lat="47.64319" lon="-2.76035">
        <ele>3</ele>
        <time>2026-08-20T12:57:44Z</time>
      </trkpt>
      <trkpt lat="47.64324" lon="-2.76031">
        <ele>3</ele>
        <time>2026-08-20T12:57:45Z</time>
      </trkpt>
      <trkpt lat="47.64328" lon="-2.76028">
        <ele>3</ele>
        <time>2026-08-20T12:57:46Z</time>
      </trkpt>
      <trkpt lat="47.64332" lon="-2.76024">
        <ele>2.7</ele>
        <time>2026-08-20T12:57:47Z</time>
      </trkpt>
      <trkpt lat="47.64337" lon="-2.76021">
        <ele>2.8</ele>
        <time>2026-08-20T12:57:48Z</time>
      </trkpt>
      <trkpt lat="47.64341" lon="-2.76018">
        <ele>2.6</ele>
        <time>2026-08-20T12:57:49Z</time>
      </trkpt>
      <trkpt lat="47.64346" lon="-2.76015">
        <ele>2.5</ele>
        <time>2026-08-20T12:57:50Z</time>
      </trkpt>
      <trkpt lat="47.64351" lon="-2.76013">
        <ele>2.5</ele>
        <time>2026-08-20T12:57:51Z</time>
      </trkpt>
      <trkpt lat="47.64356" lon="-2.76011">
        <ele>2.4</ele>
        <time>2026-08-20T12:57:52Z</time>
      </trkpt>
      <trkpt lat="47.64361" lon="-2.76009">
        <ele>2.3</ele>
        <time>2026-08-20T12:57:53Z</time>
      </trkpt>
      <trkpt lat="47.64366" lon="-2.76008">
        <ele>2.4</ele>
        <time>2026-08-20T12:57:54Z</time>
      </trkpt>
      <trkpt lat="47.6437" lon="-2.76007">
        <ele>2.5</ele>
        <time>2026-08-20T12:57:55Z</time>
      </trkpt>
      <trkpt lat="47.64375" lon="-2.76005">
        <ele>2.6</ele>
        <time>2026-08-20T12:57:56Z</time>
      </trkpt>
      <trkpt lat="47.6438" lon="-2.76003">
        <ele>2.7</ele>
        <time>2026-08-20T12:57:57Z</time>
      </trkpt>
      <trkpt lat="47.64385" lon="-2.76001">
        <ele>2.9</ele>
        <time>2026-08-20T12:57:58Z</time>
      </trkpt>
      <trkpt lat="47.6439" lon="-2.75999">
        <ele>2.9</ele>
        <time>2026-08-20T12:57:59Z</time>
      </trkpt>
      <trkpt lat="47.64394" lon="-2.75997">
        <ele>2.8</ele>
        <time>2026-08-20T12:58:00Z</time>
      </trkpt>
      <trkpt lat="47.64399" lon="-2.75996">
        <ele>2.8</ele>
        <time>2026-08-20T12:58:01Z</time>
      </trkpt>
      <trkpt lat="47.64404" lon="-2.75994">
        <ele>2.8</ele>
        <time>2026-08-20T12:58:02Z</time>
      </trkpt>
      <trkpt lat="47.64408" lon="-2.75991">
        <ele>2.8</ele>
        <time>2026-08-20T12:58:03Z</time>
      </trkpt>
      <trkpt lat="47.64412" lon="-2.75989">
        <ele>2.9</ele>
        <time>2026-08-20T12:58:04Z</time>
      </trkpt>
      <trkpt lat="47.64417" lon="-2.75986">
        <ele>3</ele>
        <time>2026-08-20T12:58:05Z</time>
      </trkpt>
      <trkpt lat="47.64421" lon="-2.75984">
        <ele>3.1</ele>
        <time>2026-08-20T12:58:06Z</time>
      </trkpt>
      <trkpt lat="47.64425" lon="-2.75982">
        <ele>3.1</ele>
        <time>2026-08-20T12:58:07Z</time>
      </trkpt>
      <trkpt lat="47.6443" lon="-2.7598">
        <ele>3.1</ele>
        <time>2026-08-20T12:58:08Z</time>
      </trkpt>
      <trkpt lat="47.64434" lon="-2.75977">
        <ele>3.1</ele>
        <time>2026-08-20T12:58:09Z</time>
      </trkpt>
      <trkpt lat="47.64439" lon="-2.75973">
        <ele>3</ele>
        <time>2026-08-20T12:58:10Z</time>
      </trkpt>
      <trkpt lat="47.64443" lon="-2.7597">
        <ele>2.8</ele>
        <time>2026-08-20T12:58:11Z</time>
      </trkpt>
      <trkpt lat="47.64447" lon="-2.75967">
        <ele>2.7</ele>
        <time>2026-08-20T12:58:12Z</time>
      </trkpt>
      <trkpt lat="47.64452" lon="-2.75964">
        <ele>2.8</ele>
        <time>2026-08-20T12:58:13Z</time>
      </trkpt>
      <trkpt lat="47.64456" lon="-2.75961">
        <ele>2.8</ele>
        <time>2026-08-20T12:58:14Z</time>
      </trkpt>
      <trkpt lat="47.64461" lon="-2.75958">
        <ele>2.9</ele>
        <time>2026-08-20T12:58:15Z</time>
      </trkpt>
      <trkpt lat="47.64466" lon="-2.75955">
        <ele>3</ele>
        <time>2026-08-20T12:58:16Z</time>
      </trkpt>
      <trkpt lat="47.64471" lon="-2.75953">
        <ele>3.2</ele>
        <time>2026-08-20T12:58:17Z</time>
      </trkpt>
      <trkpt lat="47.64476" lon="-2.75951">
        <ele>3.3</ele>
        <time>2026-08-20T12:58:18Z</time>
      </trkpt>
      <trkpt lat="47.6448" lon="-2.75948">
        <ele>3.4</ele>
        <time>2026-08-20T12:58:19Z</time>
      </trkpt>
      <trkpt lat="47.64485" lon="-2.75946">
        <ele>3.5</ele>
        <time>2026-08-20T12:58:20Z</time>
      </trkpt>
      <trkpt lat="47.6449" lon="-2.75944">
        <ele>3.6</ele>
        <time>2026-08-20T12:58:21Z</time>
      </trkpt>
      <trkpt lat="47.64494" lon="-2.75941">
        <ele>3.4</ele>
        <time>2026-08-20T12:58:22Z</time>
      </trkpt>
      <trkpt lat="47.64499" lon="-2.75938">
        <ele>3.3</ele>
        <time>2026-08-20T12:58:23Z</time>
      </trkpt>
      <trkpt lat="47.64504" lon="-2.75936">
        <ele>3.2</ele>
        <time>2026-08-20T12:58:24Z</time>
      </trkpt>
      <trkpt lat="47.64509" lon="-2.75933">
        <ele>3</ele>
        <time>2026-08-20T12:58:25Z</time>
      </trkpt>
      <trkpt lat="47.64514" lon="-2.7593">
        <ele>3</ele>
        <time>2026-08-20T12:58:26Z</time>
      </trkpt>
      <trkpt lat="47.64519" lon="-2.75928">
        <ele>3</ele>
        <time>2026-08-20T12:58:27Z</time>
      </trkpt>
      <trkpt lat="47.64524" lon="-2.75925">
        <ele>3.1</ele>
        <time>2026-08-20T12:58:28Z</time>
      </trkpt>
      <trkpt lat="47.64528" lon="-2.75922">
        <ele>3.2</ele>
        <time>2026-08-20T12:58:29Z</time>
      </trkpt>
      <trkpt lat="47.64533" lon="-2.75919">
        <ele>3.3</ele>
        <time>2026-08-20T12:58:30Z</time>
      </trkpt>
      <trkpt lat="47.64538" lon="-2.75917">
        <ele>3.4</ele>
        <time>2026-08-20T12:58:31Z</time>
      </trkpt>
      <trkpt lat="47.64543" lon="-2.75914">
        <ele>3.4</ele>
        <time>2026-08-20T12:58:32Z</time>
      </trkpt>
      <trkpt lat="47.64547" lon="-2.75911">
        <ele>3.3</ele>
        <time>2026-08-20T12:58:33Z</time>
      </trkpt>
      <trkpt lat="47.64552" lon="-2.75909">
        <ele>3.3</ele>
        <time>2026-08-20T12:58:34Z</time>
      </trkpt>
      <trkpt lat="47.64557" lon="-2.75906">
        <ele>3.3</ele>
        <time>2026-08-20T12:58:35Z</time>
      </trkpt>
      <trkpt lat="47.64562" lon="-2.75903">
        <ele>3.1</ele>
        <time>2026-08-20T12:58:36Z</time>
      </trkpt>
      <trkpt lat="47.64567" lon="-2.75901">
        <ele>3.1</ele>
        <time>2026-08-20T12:58:37Z</time>
      </trkpt>
      <trkpt lat="47.64572" lon="-2.75898">
        <ele>3.1</ele>
        <time>2026-08-20T12:58:38Z</time>
      </trkpt>
      <trkpt lat="47.64576" lon="-2.75896">
        <ele>3.1</ele>
        <time>2026-08-20T12:58:39Z</time>
      </trkpt>
      <trkpt lat="47.64581" lon="-2.75893">
        <ele>3.1</ele>
        <time>2026-08-20T12:58:40Z</time>
      </trkpt>
      <trkpt lat="47.64586" lon="-2.75891">
        <ele>3.2</ele>
        <time>2026-08-20T12:58:41Z</time>
      </trkpt>
      <trkpt lat="47.6459" lon="-2.75888">
        <ele>3.2</ele>
        <time>2026-08-20T12:58:42Z</time>
      </trkpt>
      <trkpt lat="47.64595" lon="-2.75886">
        <ele>3.2</ele>
        <time>2026-08-20T12:58:43Z</time>
      </trkpt>
      <trkpt lat="47.646" lon="-2.75884">
        <ele>3.2</ele>
        <time>2026-08-20T12:58:44Z</time>
      </trkpt>
      <trkpt lat="47.64605" lon="-2.75882">
        <ele>3.1</ele>
        <time>2026-08-20T12:58:45Z</time>
      </trkpt>
      <trkpt lat="47.64609" lon="-2.7588">
        <ele>3</ele>
        <time>2026-08-20T12:58:46Z</time>
      </trkpt>
      <trkpt lat="47.64614" lon="-2.75877">
        <ele>2.8</ele>
        <time>2026-08-20T12:58:47Z</time>
      </trkpt>
      <trkpt lat="47.64619" lon="-2.75875">
        <ele>2.8</ele>
        <time>2026-08-20T12:58:48Z</time>
      </trkpt>
      <trkpt lat="47.64624" lon="-2.75873">
        <ele>2.8</ele>
        <time>2026-08-20T12:58:49Z</time>
      </trkpt>
      <trkpt lat="47.64629" lon="-2.7587">
        <ele>2.8</ele>
        <time>2026-08-20T12:58:50Z</time>
      </trkpt>
      <trkpt lat="47.64633" lon="-2.75868">
        <ele>2.9</ele>
        <time>2026-08-20T12:58:51Z</time>
      </trkpt>
      <trkpt lat="47.64638" lon="-2.75866">
        <ele>3.1</ele>
        <time>2026-08-20T12:58:52Z</time>
      </trkpt>
      <trkpt lat="47.64643" lon="-2.75863">
        <ele>3.1</ele>
        <time>2026-08-20T12:58:53Z</time>
      </trkpt>
      <trkpt lat="47.64648" lon="-2.75861">
        <ele>3</ele>
        <time>2026-08-20T12:58:54Z</time>
      </trkpt>
      <trkpt lat="47.64653" lon="-2.75859">
        <ele>2.9</ele>
        <time>2026-08-20T12:58:55Z</time>
      </trkpt>
      <trkpt lat="47.64658" lon="-2.75856">
        <ele>2.8</ele>
        <time>2026-08-20T12:58:56Z</time>
      </trkpt>
      <trkpt lat="47.64664" lon="-2.75854">
        <ele>2.7</ele>
        <time>2026-08-20T12:58:57Z</time>
      </trkpt>
      <trkpt lat="47.64669" lon="-2.75851">
        <ele>2.7</ele>
        <time>2026-08-20T12:58:58Z</time>
      </trkpt>
      <trkpt lat="47.64674" lon="-2.75848">
        <ele>2.7</ele>
        <time>2026-08-20T12:58:59Z</time>
      </trkpt>
      <trkpt lat="47.64679" lon="-2.75846">
        <ele>2.7</ele>
        <time>2026-08-20T12:59:00Z</time>
      </trkpt>
      <trkpt lat="47.64684" lon="-2.75843">
        <ele>2.8</ele>
        <time>2026-08-20T12:59:01Z</time>
      </trkpt>
      <trkpt lat="47.64689" lon="-2.75841">
        <ele>2.9</ele>
        <time>2026-08-20T12:59:02Z</time>
      </trkpt>
      <trkpt lat="47.64694" lon="-2.75839">
        <ele>3</ele>
        <time>2026-08-20T12:59:03Z</time>
      </trkpt>
      <trkpt lat="47.64699" lon="-2.75837">
        <ele>3</ele>
        <time>2026-08-20T12:59:04Z</time>
      </trkpt>
      <trkpt lat="47.64705" lon="-2.75835">
        <ele>3</ele>
        <time>2026-08-20T12:59:05Z</time>
      </trkpt>
      <trkpt lat="47.6471" lon="-2.75833">
        <ele>3</ele>
        <time>2026-08-20T12:59:06Z</time>
      </trkpt>
      <trkpt lat="47.64715" lon="-2.7583">
        <ele>2.8</ele>
        <time>2026-08-20T12:59:07Z</time>
      </trkpt>
      <trkpt lat="47.6472" lon="-2.75828">
        <ele>2.6</ele>
        <time>2026-08-20T12:59:08Z</time>
      </trkpt>
      <trkpt lat="47.64725" lon="-2.75826">
        <ele>2.5</ele>
        <time>2026-08-20T12:59:09Z</time>
      </trkpt>
      <trkpt lat="47.6473" lon="-2.75824">
        <ele>2.4</ele>
        <time>2026-08-20T12:59:10Z</time>
      </trkpt>
      <trkpt lat="47.64735" lon="-2.75822">
        <ele>2.4</ele>
        <time>2026-08-20T12:59:11Z</time>
      </trkpt>
      <trkpt lat="47.6474" lon="-2.7582">
        <ele>2.3</ele>
        <time>2026-08-20T12:59:12Z</time>
      </trkpt>
      <trkpt lat="47.64745" lon="-2.75819">
        <ele>2.4</ele>
        <time>2026-08-20T12:59:13Z</time>
      </trkpt>
      <trkpt lat="47.6475" lon="-2.75818">
        <ele>2.4</ele>
        <time>2026-08-20T12:59:14Z</time>
      </trkpt>
      <trkpt lat="47.64755" lon="-2.75817">
        <ele>2.4</ele>
        <time>2026-08-20T12:59:15Z</time>
      </trkpt>
      <trkpt lat="47.6476" lon="-2.75816">
        <ele>2.4</ele>
        <time>2026-08-20T12:59:16Z</time>
      </trkpt>
      <trkpt lat="47.64765" lon="-2.75815">
        <ele>2.3</ele>
        <time>2026-08-20T12:59:17Z</time>
      </trkpt>
      <trkpt lat="47.64771" lon="-2.75814">
        <ele>2.3</ele>
        <time>2026-08-20T12:59:18Z</time>
      </trkpt>
      <trkpt lat="47.64776" lon="-2.75813">
        <ele>2.3</ele>
        <time>2026-08-20T12:59:19Z</time>
      </trkpt>
      <trkpt lat="47.64781" lon="-2.75813">
        <ele>2.4</ele>
        <time>2026-08-20T12:59:20Z</time>
      </trkpt>
      <trkpt lat="47.64786" lon="-2.75813">
        <ele>2.6</ele>
        <time>2026-08-20T12:59:21Z</time>
      </trkpt>
      <trkpt lat="47.64792" lon="-2.75813">
        <ele>2.8</ele>
        <time>2026-08-20T12:59:22Z</time>
      </trkpt>
      <trkpt lat="47.64797" lon="-2.75813">
        <ele>3</ele>
        <time>2026-08-20T12:59:23Z</time>
      </trkpt>
      <trkpt lat="47.64802" lon="-2.75814">
        <ele>3.2</ele>
        <time>2026-08-20T12:59:24Z</time>
      </trkpt>
      <trkpt lat="47.64808" lon="-2.75814">
        <ele>3.3</ele>
        <time>2026-08-20T12:59:25Z</time>
      </trkpt>
      <trkpt lat="47.64813" lon="-2.75815">
        <ele>3.2</ele>
        <time>2026-08-20T12:59:26Z</time>
      </trkpt>
      <trkpt lat="47.64818" lon="-2.75815">
        <ele>3.2</ele>
        <time>2026-08-20T12:59:27Z</time>
      </trkpt>
      <trkpt lat="47.64823" lon="-2.75816">
        <ele>3.1</ele>
        <time>2026-08-20T12:59:28Z</time>
      </trkpt>
      <trkpt lat="47.64828" lon="-2.75816">
        <ele>3.1</ele>
        <time>2026-08-20T12:59:29Z</time>
      </trkpt>
      <trkpt lat="47.64833" lon="-2.75817">
        <ele>3</ele>
        <time>2026-08-20T12:59:30Z</time>
      </trkpt>
      <trkpt lat="47.64838" lon="-2.75817">
        <ele>2.9</ele>
        <time>2026-08-20T12:59:31Z</time>
      </trkpt>
      <trkpt lat="47.64844" lon="-2.75817">
        <ele>2.8</ele>
        <time>2026-08-20T12:59:32Z</time>
      </trkpt>
      <trkpt lat="47.64849" lon="-2.75818">
        <ele>2.7</ele>
        <time>2026-08-20T12:59:33Z</time>
      </trkpt>
      <trkpt lat="47.64854" lon="-2.75818">
        <ele>2.6</ele>
        <time>2026-08-20T12:59:34Z</time>
      </trkpt>
      <trkpt lat="47.64859" lon="-2.75819">
        <ele>2.5</ele>
        <time>2026-08-20T12:59:35Z</time>
      </trkpt>
      <trkpt lat="47.64864" lon="-2.75819">
        <ele>2.5</ele>
        <time>2026-08-20T12:59:36Z</time>
      </trkpt>
      <trkpt lat="47.64869" lon="-2.7582">
        <ele>2.5</ele>
        <time>2026-08-20T12:59:37Z</time>
      </trkpt>
      <trkpt lat="47.64874" lon="-2.7582">
        <ele>2.5</ele>
        <time>2026-08-20T12:59:38Z</time>
      </trkpt>
      <trkpt lat="47.64879" lon="-2.75821">
        <ele>2.6</ele>
        <time>2026-08-20T12:59:39Z</time>
      </trkpt>
      <trkpt lat="47.64885" lon="-2.75821">
        <ele>2.6</ele>
        <time>2026-08-20T12:59:40Z</time>
      </trkpt>
      <trkpt lat="47.6489" lon="-2.75822">
        <ele>2.6</ele>
        <time>2026-08-20T12:59:41Z</time>
      </trkpt>
      <trkpt lat="47.64895" lon="-2.75822">
        <ele>2.5</ele>
        <time>2026-08-20T12:59:42Z</time>
      </trkpt>
      <trkpt lat="47.64901" lon="-2.75823">
        <ele>2.5</ele>
        <time>2026-08-20T12:59:43Z</time>
      </trkpt>
      <trkpt lat="47.64906" lon="-2.75823">
        <ele>2.4</ele>
        <time>2026-08-20T12:59:44Z</time>
      </trkpt>
      <trkpt lat="47.64911" lon="-2.75824">
        <ele>2.4</ele>
        <time>2026-08-20T12:59:45Z</time>
      </trkpt>
      <trkpt lat="47.64916" lon="-2.75825">
        <ele>2.4</ele>
        <time>2026-08-20T12:59:46Z</time>
      </trkpt>
      <trkpt lat="47.64922" lon="-2.75825">
        <ele>2.4</ele>
        <time>2026-08-20T12:59:47Z</time>
      </trkpt>
      <trkpt lat="47.64927" lon="-2.75826">
        <ele>2.5</ele>
        <time>2026-08-20T12:59:48Z</time>
      </trkpt>
      <trkpt lat="47.64932" lon="-2.75827">
        <ele>2.5</ele>
        <time>2026-08-20T12:59:49Z</time>
      </trkpt>
      <trkpt lat="47.64937" lon="-2.75827">
        <ele>2.5</ele>
        <time>2026-08-20T12:59:50Z</time>
      </trkpt>
      <trkpt lat="47.64942" lon="-2.75828">
        <ele>2.6</ele>
        <time>2026-08-20T12:59:51Z</time>
      </trkpt>
      <trkpt lat="47.64948" lon="-2.75829">
        <ele>2.7</ele>
        <time>2026-08-20T12:59:52Z</time>
      </trkpt>
      <trkpt lat="47.64953" lon="-2.7583">
        <ele>2.8</ele>
        <time>2026-08-20T12:59:53Z</time>
      </trkpt>
      <trkpt lat="47.64958" lon="-2.75831">
        <ele>2.8</ele>
        <time>2026-08-20T12:59:54Z</time>
      </trkpt>
      <trkpt lat="47.64964" lon="-2.75831">
        <ele>2.8</ele>
        <time>2026-08-20T12:59:55Z</time>
      </trkpt>
      <trkpt lat="47.64969" lon="-2.75832">
        <ele>2.9</ele>
        <time>2026-08-20T12:59:56Z</time>
      </trkpt>
      <trkpt lat="47.64974" lon="-2.75833">
        <ele>3</ele>
        <time>2026-08-20T12:59:57Z</time>
      </trkpt>
      <trkpt lat="47.64979" lon="-2.75833">
        <ele>3</ele>
        <time>2026-08-20T12:59:58Z</time>
      </trkpt>
      <trkpt lat="47.64984" lon="-2.75834">
        <ele>3</ele>
        <time>2026-08-20T12:59:59Z</time>
      </trkpt>
      <trkpt lat="47.6499" lon="-2.75835">
        <ele>3</ele>
        <time>2026-08-20T13:00:00Z</time>
      </trkpt>
      <trkpt lat="47.64995" lon="-2.75835">
        <ele>3</ele>
        <time>2026-08-20T13:00:01Z</time>
      </trkpt>
      <trkpt lat="47.65" lon="-2.75836">
        <ele>3</ele>
        <time>2026-08-20T13:00:02Z</time>
      </trkpt>
      <trkpt lat="47.65005" lon="-2.75837">
        <ele>3</ele>
        <time>2026-08-20T13:00:03Z</time>
      </trkpt>
      <trkpt lat="47.65011" lon="-2.75837">
        <ele>3</ele>
        <time>2026-08-20T13:00:04Z</time>
      </trkpt>
      <trkpt lat="47.65016" lon="-2.75838">
        <ele>3</ele>
        <time>2026-08-20T13:00:05Z</time>
      </trkpt>
      <trkpt lat="47.65021" lon="-2.75839">
        <ele>3</ele>
        <time>2026-08-20T13:00:06Z</time>
      </trkpt>
      <trkpt lat="47.65026" lon="-2.7584">
        <ele>3</ele>
        <time>2026-08-20T13:00:07Z</time>
      </trkpt>
      <trkpt lat="47.65031" lon="-2.75841">
        <ele>3</ele>
        <time>2026-08-20T13:00:08Z</time>
      </trkpt>
      <trkpt lat="47.65036" lon="-2.75843">
        <ele>3</ele>
        <time>2026-08-20T13:00:09Z</time>
      </trkpt>
      <trkpt lat="47.6504" lon="-2.75846">
        <ele>3</ele>
        <time>2026-08-20T13:00:10Z</time>
      </trkpt>
      <trkpt lat="47.65042" lon="-2.75851">
        <ele>3</ele>
        <time>2026-08-20T13:00:11Z</time>
      </trkpt>
      <trkpt lat="47.65044" lon="-2.75857">
        <ele>3</ele>
        <time>2026-08-20T13:00:12Z</time>
      </trkpt>
      <trkpt lat="47.65047" lon="-2.75862">
        <ele>3</ele>
        <time>2026-08-20T13:00:13Z</time>
      </trkpt>
      <trkpt lat="47.6505" lon="-2.75867">
        <ele>3</ele>
        <time>2026-08-20T13:00:14Z</time>
      </trkpt>
      <trkpt lat="47.65054" lon="-2.7587">
        <ele>3</ele>
        <time>2026-08-20T13:00:15Z</time>
      </trkpt>
      <trkpt lat="47.65058" lon="-2.75872">
        <ele>3</ele>
        <time>2026-08-20T13:00:16Z</time>
      </trkpt>
      <trkpt lat="47.65062" lon="-2.75875">
        <ele>3</ele>
        <time>2026-08-20T13:00:17Z</time>
      </trkpt>
      <trkpt lat="47.65067" lon="-2.75876">
        <ele>3</ele>
        <time>2026-08-20T13:00:18Z</time>
      </trkpt>
      <trkpt lat="47.65072" lon="-2.75877">
        <ele>3</ele>
        <time>2026-08-20T13:00:19Z</time>
      </trkpt>
      <trkpt lat="47.65076" lon="-2.75878">
        <ele>3</ele>
        <time>2026-08-20T13:00:20Z</time>
      </trkpt>
      <trkpt lat="47.65081" lon="-2.75879">
        <ele>3</ele>
        <time>2026-08-20T13:00:21Z</time>
      </trkpt>
      <trkpt lat="47.65086" lon="-2.75879">
        <ele>3</ele>
        <time>2026-08-20T13:00:22Z</time>
      </trkpt>
      <trkpt lat="47.65091" lon="-2.7588">
        <ele>3</ele>
        <time>2026-08-20T13:00:23Z</time>
      </trkpt>
      <trkpt lat="47.65096" lon="-2.75881">
        <ele>3</ele>
        <time>2026-08-20T13:00:24Z</time>
      </trkpt>
      <trkpt lat="47.65102" lon="-2.75882">
        <ele>3</ele>
        <time>2026-08-20T13:00:25Z</time>
      </trkpt>
      <trkpt lat="47.65107" lon="-2.75883">
        <ele>3</ele>
        <time>2026-08-20T13:00:26Z</time>
      </trkpt>
      <trkpt lat="47.65112" lon="-2.75884">
        <ele>3</ele>
        <time>2026-08-20T13:00:27Z</time>
      </trkpt>
      <trkpt lat="47.65117" lon="-2.75886">
        <ele>3</ele>
        <time>2026-08-20T13:00:28Z</time>
      </trkpt>
      <trkpt lat="47.65122" lon="-2.75887">
        <ele>3</ele>
        <time>2026-08-20T13:00:29Z</time>
      </trkpt>
      <trkpt lat="47.65126" lon="-2.75889">
        <ele>3</ele>
        <time>2026-08-20T13:00:30Z</time>
      </trkpt>
      <trkpt lat="47.65131" lon="-2.7589">
        <ele>3</ele>
        <time>2026-08-20T13:00:31Z</time>
      </trkpt>
      <trkpt lat="47.65135" lon="-2.75891">
        <ele>3.1</ele>
        <time>2026-08-20T13:00:32Z</time>
      </trkpt>
      <trkpt lat="47.65139" lon="-2.75891">
        <ele>3.1</ele>
        <time>2026-08-20T13:00:33Z</time>
      </trkpt>
      <trkpt lat="47.65143" lon="-2.75891">
        <ele>3.1</ele>
        <time>2026-08-20T13:00:34Z</time>
      </trkpt>
      <trkpt lat="47.65147" lon="-2.75892">
        <ele>3.1</ele>
        <time>2026-08-20T13:00:35Z</time>
      </trkpt>
      <trkpt lat="47.65152" lon="-2.75892">
        <ele>3.1</ele>
        <time>2026-08-20T13:00:36Z</time>
      </trkpt>
      <trkpt lat="47.65157" lon="-2.75892">
        <ele>3.1</ele>
        <time>2026-08-20T13:00:37Z</time>
      </trkpt>
      <trkpt lat="47.65161" lon="-2.75892">
        <ele>3.1</ele>
        <time>2026-08-20T13:00:38Z</time>
      </trkpt>
      <trkpt lat="47.65165" lon="-2.75892">
        <ele>3.1</ele>
        <time>2026-08-20T13:00:39Z</time>
      </trkpt>
      <trkpt lat="47.6517" lon="-2.75892">
        <ele>3.1</ele>
        <time>2026-08-20T13:00:40Z</time>
      </trkpt>
      <trkpt lat="47.65174" lon="-2.75892">
        <ele>3.1</ele>
        <time>2026-08-20T13:00:41Z</time>
      </trkpt>
      <trkpt lat="47.65179" lon="-2.75892">
        <ele>3.1</ele>
        <time>2026-08-20T13:00:42Z</time>
      </trkpt>
      <trkpt lat="47.65183" lon="-2.75892">
        <ele>3</ele>
        <time>2026-08-20T13:00:43Z</time>
      </trkpt>
      <trkpt lat="47.65188" lon="-2.75893">
        <ele>3</ele>
        <time>2026-08-20T13:00:44Z</time>
      </trkpt>
      <trkpt lat="47.65193" lon="-2.75893">
        <ele>3</ele>
        <time>2026-08-20T13:00:45Z</time>
      </trkpt>
      <trkpt lat="47.65197" lon="-2.75893">
        <ele>3</ele>
        <time>2026-08-20T13:00:46Z</time>
      </trkpt>
      <trkpt lat="47.65202" lon="-2.75893">
        <ele>3</ele>
        <time>2026-08-20T13:00:47Z</time>
      </trkpt>
      <trkpt lat="47.65207" lon="-2.75893">
        <ele>3</ele>
        <time>2026-08-20T13:00:48Z</time>
      </trkpt>
      <trkpt lat="47.65212" lon="-2.75893">
        <ele>3</ele>
        <time>2026-08-20T13:00:49Z</time>
      </trkpt>
      <trkpt lat="47.65217" lon="-2.75893">
        <ele>3</ele>
        <time>2026-08-20T13:00:50Z</time>
      </trkpt>
      <trkpt lat="47.65222" lon="-2.75891">
        <ele>3</ele>
        <time>2026-08-20T13:00:51Z</time>
      </trkpt>
      <trkpt lat="47.65226" lon="-2.75888">
        <ele>3.1</ele>
        <time>2026-08-20T13:00:52Z</time>
      </trkpt>
      <trkpt lat="47.65231" lon="-2.75887">
        <ele>3.3</ele>
        <time>2026-08-20T13:00:53Z</time>
      </trkpt>
      <trkpt lat="47.65236" lon="-2.75886">
        <ele>3.4</ele>
        <time>2026-08-20T13:00:54Z</time>
      </trkpt>
      <trkpt lat="47.6524" lon="-2.75887">
        <ele>3.6</ele>
        <time>2026-08-20T13:00:55Z</time>
      </trkpt>
      <trkpt lat="47.65244" lon="-2.75888">
        <ele>3.8</ele>
        <time>2026-08-20T13:00:56Z</time>
      </trkpt>
      <trkpt lat="47.65248" lon="-2.75891">
        <ele>3.9</ele>
        <time>2026-08-20T13:00:57Z</time>
      </trkpt>
      <trkpt lat="47.65252" lon="-2.75894">
        <ele>3.8</ele>
        <time>2026-08-20T13:00:58Z</time>
      </trkpt>
      <trkpt lat="47.65256" lon="-2.75895">
        <ele>3.8</ele>
        <time>2026-08-20T13:00:59Z</time>
      </trkpt>
      <trkpt lat="47.6526" lon="-2.75895">
        <ele>3.8</ele>
        <time>2026-08-20T13:01:00Z</time>
      </trkpt>
      <trkpt lat="47.65265" lon="-2.75896">
        <ele>3.7</ele>
        <time>2026-08-20T13:01:01Z</time>
      </trkpt>
      <trkpt lat="47.65269" lon="-2.75896">
        <ele>3.7</ele>
        <time>2026-08-20T13:01:02Z</time>
      </trkpt>
      <trkpt lat="47.65274" lon="-2.75896">
        <ele>3.7</ele>
        <time>2026-08-20T13:01:03Z</time>
      </trkpt>
      <trkpt lat="47.65278" lon="-2.75897">
        <ele>3.7</ele>
        <time>2026-08-20T13:01:04Z</time>
      </trkpt>
      <trkpt lat="47.65282" lon="-2.75897">
        <ele>3.7</ele>
        <time>2026-08-20T13:01:05Z</time>
      </trkpt>
      <trkpt lat="47.65286" lon="-2.75898">
        <ele>3.7</ele>
        <time>2026-08-20T13:01:06Z</time>
      </trkpt>
      <trkpt lat="47.6529" lon="-2.75898">
        <ele>3.7</ele>
        <time>2026-08-20T13:01:07Z</time>
      </trkpt>
      <trkpt lat="47.65294" lon="-2.75899">
        <ele>3.6</ele>
        <time>2026-08-20T13:01:08Z</time>
      </trkpt>
      <trkpt lat="47.65297" lon="-2.75899">
        <ele>3.6</ele>
        <time>2026-08-20T13:01:09Z</time>
      </trkpt>
      <trkpt lat="47.653" lon="-2.759">
        <ele>3.6</ele>
        <time>2026-08-20T13:01:10Z</time>
      </trkpt>
      <trkpt lat="47.65304" lon="-2.759">
        <ele>3.6</ele>
        <time>2026-08-20T13:01:11Z</time>
      </trkpt>
      <trkpt lat="47.65308" lon="-2.759">
        <ele>3.6</ele>
        <time>2026-08-20T13:01:12Z</time>
      </trkpt>
      <trkpt lat="47.65312" lon="-2.75899">
        <ele>3.7</ele>
        <time>2026-08-20T13:01:13Z</time>
      </trkpt>
      <trkpt lat="47.65315" lon="-2.75899">
        <ele>3.8</ele>
        <time>2026-08-20T13:01:14Z</time>
      </trkpt>
      <trkpt lat="47.65319" lon="-2.75899">
        <ele>3.8</ele>
        <time>2026-08-20T13:01:15Z</time>
      </trkpt>
      <trkpt lat="47.65322" lon="-2.75899">
        <ele>3.9</ele>
        <time>2026-08-20T13:01:16Z</time>
      </trkpt>
      <trkpt lat="47.65326" lon="-2.75899">
        <ele>3.9</ele>
        <time>2026-08-20T13:01:17Z</time>
      </trkpt>
      <trkpt lat="47.65329" lon="-2.759">
        <ele>3.9</ele>
        <time>2026-08-20T13:01:18Z</time>
      </trkpt>
      <trkpt lat="47.65333" lon="-2.75901">
        <ele>4</ele>
        <time>2026-08-20T13:01:19Z</time>
      </trkpt>
      <trkpt lat="47.65336" lon="-2.75903">
        <ele>4</ele>
        <time>2026-08-20T13:01:20Z</time>
      </trkpt>
      <trkpt lat="47.6534" lon="-2.75904">
        <ele>4</ele>
        <time>2026-08-20T13:01:21Z</time>
      </trkpt>
      <trkpt lat="47.65343" lon="-2.75906">
        <ele>4</ele>
        <time>2026-08-20T13:01:22Z</time>
      </trkpt>
      <trkpt lat="47.65346" lon="-2.75908">
        <ele>4</ele>
        <time>2026-08-20T13:01:23Z</time>
      </trkpt>
      <trkpt lat="47.65348" lon="-2.75909">
        <ele>4</ele>
        <time>2026-08-20T13:01:24Z</time>
      </trkpt>
      <trkpt lat="47.6535" lon="-2.75911">
        <ele>4</ele>
        <time>2026-08-20T13:01:25Z</time>
      </trkpt>
      <trkpt lat="47.65352" lon="-2.75912">
        <ele>4</ele>
        <time>2026-08-20T13:01:26Z</time>
      </trkpt>
      <trkpt lat="47.65355" lon="-2.75913">
        <ele>4</ele>
        <time>2026-08-20T13:01:27Z</time>
      </trkpt>
      <trkpt lat="47.65357" lon="-2.75913">
        <ele>4</ele>
        <time>2026-08-20T13:01:28Z</time>
      </trkpt>
      <trkpt lat="47.6536" lon="-2.75913">
        <ele>4</ele>
        <time>2026-08-20T13:01:29Z</time>
      </trkpt>
      <trkpt lat="47.65362" lon="-2.75912">
        <ele>4</ele>
        <time>2026-08-20T13:01:30Z</time>
      </trkpt>
      <trkpt lat="47.65364" lon="-2.75911">
        <ele>3.9</ele>
        <time>2026-08-20T13:01:31Z</time>
      </trkpt>
      <trkpt lat="47.65365" lon="-2.7591">
        <ele>3.9</ele>
        <time>2026-08-20T13:01:32Z</time>
      </trkpt>
      <trkpt lat="47.65367" lon="-2.75909">
        <ele>3.8</ele>
        <time>2026-08-20T13:01:33Z</time>
      </trkpt>
      <trkpt lat="47.65368" lon="-2.75907">
        <ele>3.8</ele>
        <time>2026-08-20T13:01:34Z</time>
      </trkpt>
      <trkpt lat="47.65369" lon="-2.75906">
        <ele>3.7</ele>
        <time>2026-08-20T13:01:35Z</time>
      </trkpt>
      <trkpt lat="47.6537" lon="-2.75904">
        <ele>3.7</ele>
        <time>2026-08-20T13:01:36Z</time>
      </trkpt>
      <trkpt lat="47.65371" lon="-2.75902">
        <ele>3.6</ele>
        <time>2026-08-20T13:01:37Z</time>
      </trkpt>
      <trkpt lat="47.65373" lon="-2.759">
        <ele>3.6</ele>
        <time>2026-08-20T13:01:38Z</time>
      </trkpt>
      <trkpt lat="47.65375" lon="-2.75897">
        <ele>3.5</ele>
        <time>2026-08-20T13:01:39Z</time>
      </trkpt>
      <trkpt lat="47.65377" lon="-2.75894">
        <ele>3.4</ele>
        <time>2026-08-20T13:01:40Z</time>
      </trkpt>
      <trkpt lat="47.65378" lon="-2.75891">
        <ele>3.4</ele>
        <time>2026-08-20T13:01:41Z</time>
      </trkpt>
      <trkpt lat="47.6538" lon="-2.75887">
        <ele>3.3</ele>
        <time>2026-08-20T13:01:42Z</time>
      </trkpt>
      <trkpt lat="47.65383" lon="-2.75884">
        <ele>3.2</ele>
        <time>2026-08-20T13:01:43Z</time>
      </trkpt>
      <trkpt lat="47.65385" lon="-2.7588">
        <ele>3.1</ele>
        <time>2026-08-20T13:01:44Z</time>
      </trkpt>
      <trkpt lat="47.65387" lon="-2.75877">
        <ele>3</ele>
        <time>2026-08-20T13:01:45Z</time>
      </trkpt>
      <trkpt lat="47.6539" lon="-2.75873">
        <ele>3</ele>
        <time>2026-08-20T13:01:46Z</time>
      </trkpt>
      <trkpt lat="47.65393" lon="-2.75869">
        <ele>3</ele>
        <time>2026-08-20T13:01:47Z</time>
      </trkpt>
      <trkpt lat="47.65395" lon="-2.75865">
        <ele>3</ele>
        <time>2026-08-20T13:01:48Z</time>
      </trkpt>
      <trkpt lat="47.65398" lon="-2.75861">
        <ele>3</ele>
        <time>2026-08-20T13:01:49Z</time>
      </trkpt>
      <trkpt lat="47.65401" lon="-2.75857">
        <ele>2.9</ele>
        <time>2026-08-20T13:01:50Z</time>
      </trkpt>
      <trkpt lat="47.65404" lon="-2.75852">
        <ele>2.9</ele>
        <time>2026-08-20T13:01:51Z</time>
      </trkpt>
      <trkpt lat="47.65405" lon="-2.75847">
        <ele>2.9</ele>
        <time>2026-08-20T13:01:52Z</time>
      </trkpt>
      <trkpt lat="47.65407" lon="-2.75842">
        <ele>3</ele>
        <time>2026-08-20T13:01:53Z</time>
      </trkpt>
      <trkpt lat="47.65407" lon="-2.75837">
        <ele>3</ele>
        <time>2026-08-20T13:01:54Z</time>
      </trkpt>
      <trkpt lat="47.65407" lon="-2.75832">
        <ele>3</ele>
        <time>2026-08-20T13:01:55Z</time>
      </trkpt>
      <trkpt lat="47.65408" lon="-2.75828">
        <ele>3.1</ele>
        <time>2026-08-20T13:01:56Z</time>
      </trkpt>
      <trkpt lat="47.65408" lon="-2.75825">
        <ele>3.2</ele>
        <time>2026-08-20T13:01:57Z</time>
      </trkpt>
      <trkpt lat="47.65408" lon="-2.75821">
        <ele>3.2</ele>
        <time>2026-08-20T13:01:58Z</time>
      </trkpt>
      <trkpt lat="47.65408" lon="-2.75818">
        <ele>3.2</ele>
        <time>2026-08-20T13:01:59Z</time>
      </trkpt>
      <trkpt lat="47.65408" lon="-2.75815">
        <ele>3.3</ele>
        <time>2026-08-20T13:02:00Z</time>
      </trkpt>
      <trkpt lat="47.65408" lon="-2.75812">
        <ele>3.3</ele>
        <time>2026-08-20T13:02:01Z</time>
      </trkpt>
      <trkpt lat="47.65408" lon="-2.7581">
        <ele>3.3</ele>
        <time>2026-08-20T13:02:02Z</time>
      </trkpt>
      <trkpt lat="47.65408" lon="-2.75807">
        <ele>3.4</ele>
        <time>2026-08-20T13:02:03Z</time>
      </trkpt>
      <trkpt lat="47.65408" lon="-2.75805">
        <ele>3.4</ele>
        <time>2026-08-20T13:02:04Z</time>
      </trkpt>
      <trkpt lat="47.65409" lon="-2.75802">
        <ele>3.5</ele>
        <time>2026-08-20T13:02:05Z</time>
      </trkpt>
      <trkpt lat="47.65409" lon="-2.758">
        <ele>3.5</ele>
        <time>2026-08-20T13:02:06Z</time>
      </trkpt>
      <trkpt lat="47.65409" lon="-2.75797">
        <ele>3.5</ele>
        <time>2026-08-20T13:02:07Z</time>
      </trkpt>
      <trkpt lat="47.65409" lon="-2.75794">
        <ele>3.6</ele>
        <time>2026-08-20T13:02:08Z</time>
      </trkpt>
      <trkpt lat="47.65409" lon="-2.75791">
        <ele>3.6</ele>
        <time>2026-08-20T13:02:09Z</time>
      </trkpt>
      <trkpt lat="47.65409" lon="-2.75788">
        <ele>3.6</ele>
        <time>2026-08-20T13:02:10Z</time>
      </trkpt>
      <trkpt lat="47.65409" lon="-2.75785">
        <ele>3.7</ele>
        <time>2026-08-20T13:02:11Z</time>
      </trkpt>
      <trkpt lat="47.65408" lon="-2.75783">
        <ele>3.6</ele>
        <time>2026-08-20T13:02:12Z</time>
      </trkpt>
      <trkpt lat="47.65407" lon="-2.75781">
        <ele>3.6</ele>
        <time>2026-08-20T13:02:13Z</time>
      </trkpt>
      <trkpt lat="47.65404" lon="-2.7578">
        <ele>3.5</ele>
        <time>2026-08-20T13:02:14Z</time>
      </trkpt>
      <trkpt lat="47.65401" lon="-2.75779">
        <ele>3.4</ele>
        <time>2026-08-20T13:02:15Z</time>
      </trkpt>
      <trkpt lat="47.65398" lon="-2.75778">
        <ele>3.3</ele>
        <time>2026-08-20T13:02:16Z</time>
      </trkpt>
      <trkpt lat="47.65394" lon="-2.75778">
        <ele>3.2</ele>
        <time>2026-08-20T13:02:17Z</time>
      </trkpt>
      <trkpt lat="47.65391" lon="-2.75778">
        <ele>3.1</ele>
        <time>2026-08-20T13:02:18Z</time>
      </trkpt>
      <trkpt lat="47.65387" lon="-2.75778">
        <ele>3</ele>
        <time>2026-08-20T13:02:19Z</time>
      </trkpt>
      <trkpt lat="47.65384" lon="-2.75777">
        <ele>3.1</ele>
        <time>2026-08-20T13:02:20Z</time>
      </trkpt>
      <trkpt lat="47.6538" lon="-2.75777">
        <ele>3</ele>
        <time>2026-08-20T13:02:21Z</time>
      </trkpt>
      <trkpt lat="47.65376" lon="-2.75776">
        <ele>3.1</ele>
        <time>2026-08-20T13:02:22Z</time>
      </trkpt>
      <trkpt lat="47.65372" lon="-2.75776">
        <ele>3.1</ele>
        <time>2026-08-20T13:02:23Z</time>
      </trkpt>
      <trkpt lat="47.65368" lon="-2.75775">
        <ele>3.1</ele>
        <time>2026-08-20T13:02:24Z</time>
      </trkpt>
      <trkpt lat="47.65364" lon="-2.75774">
        <ele>3.2</ele>
        <time>2026-08-20T13:02:25Z</time>
      </trkpt>
      <trkpt lat="47.65359" lon="-2.75774">
        <ele>3.1</ele>
        <time>2026-08-20T13:02:26Z</time>
      </trkpt>
      <trkpt lat="47.65354" lon="-2.75774">
        <ele>3.2</ele>
        <time>2026-08-20T13:02:27Z</time>
      </trkpt>
      <trkpt lat="47.6535" lon="-2.75774">
        <ele>3.2</ele>
        <time>2026-08-20T13:02:28Z</time>
      </trkpt>
      <trkpt lat="47.65345" lon="-2.75774">
        <ele>3.2</ele>
        <time>2026-08-20T13:02:29Z</time>
      </trkpt>
      <trkpt lat="47.6534" lon="-2.75773">
        <ele>3.3</ele>
        <time>2026-08-20T13:02:30Z</time>
      </trkpt>
      <trkpt lat="47.65335" lon="-2.75773">
        <ele>3.3</ele>
        <time>2026-08-20T13:02:31Z</time>
      </trkpt>
      <trkpt lat="47.6533" lon="-2.75773">
        <ele>3.3</ele>
        <time>2026-08-20T13:02:32Z</time>
      </trkpt>
      <trkpt lat="47.65326" lon="-2.75772">
        <ele>3.4</ele>
        <time>2026-08-20T13:02:33Z</time>
      </trkpt>
      <trkpt lat="47.65321" lon="-2.7577">
        <ele>3.4</ele>
        <time>2026-08-20T13:02:34Z</time>
      </trkpt>
      <trkpt lat="47.65317" lon="-2.75769">
        <ele>3.4</ele>
        <time>2026-08-20T13:02:35Z</time>
      </trkpt>
      <trkpt lat="47.65312" lon="-2.75767">
        <ele>3.5</ele>
        <time>2026-08-20T13:02:36Z</time>
      </trkpt>
      <trkpt lat="47.65308" lon="-2.75765">
        <ele>3.5</ele>
        <time>2026-08-20T13:02:37Z</time>
      </trkpt>
      <trkpt lat="47.65303" lon="-2.75764">
        <ele>3.5</ele>
        <time>2026-08-20T13:02:38Z</time>
      </trkpt>
      <trkpt lat="47.65299" lon="-2.75762">
        <ele>3.6</ele>
        <time>2026-08-20T13:02:39Z</time>
      </trkpt>
      <trkpt lat="47.65295" lon="-2.7576">
        <ele>3.6</ele>
        <time>2026-08-20T13:02:40Z</time>
      </trkpt>
      <trkpt lat="47.6529" lon="-2.75758">
        <ele>3.7</ele>
        <time>2026-08-20T13:02:41Z</time>
      </trkpt>
      <trkpt lat="47.65286" lon="-2.75756">
        <ele>3.8</ele>
        <time>2026-08-20T13:02:42Z</time>
      </trkpt>
      <trkpt lat="47.65282" lon="-2.75755">
        <ele>3.8</ele>
        <time>2026-08-20T13:02:43Z</time>
      </trkpt>
      <trkpt lat="47.65278" lon="-2.75753">
        <ele>3.9</ele>
        <time>2026-08-20T13:02:44Z</time>
      </trkpt>
      <trkpt lat="47.65274" lon="-2.75751">
        <ele>4</ele>
        <time>2026-08-20T13:02:45Z</time>
      </trkpt>
      <trkpt lat="47.65271" lon="-2.75749">
        <ele>4</ele>
        <time>2026-08-20T13:02:46Z</time>
      </trkpt>
      <trkpt lat="47.65267" lon="-2.75748">
        <ele>4</ele>
        <time>2026-08-20T13:02:47Z</time>
      </trkpt>
      <trkpt lat="47.65263" lon="-2.75747">
        <ele>4.1</ele>
        <time>2026-08-20T13:02:48Z</time>
      </trkpt>
      <trkpt lat="47.6526" lon="-2.75746">
        <ele>4.1</ele>
        <time>2026-08-20T13:02:49Z</time>
      </trkpt>
      <trkpt lat="47.65257" lon="-2.75745">
        <ele>4</ele>
        <time>2026-08-20T13:02:50Z</time>
      </trkpt>
      <trkpt lat="47.65255" lon="-2.75745">
        <ele>4</ele>
        <time>2026-08-20T13:02:51Z</time>
      </trkpt>
      <trkpt lat="47.65254" lon="-2.75745">
        <ele>4</ele>
        <time>2026-08-20T13:02:52Z</time>
      </trkpt>
      <trkpt lat="47.65252" lon="-2.75744">
        <ele>4</ele>
        <time>2026-08-20T13:02:53Z</time>
      </trkpt>
      <trkpt lat="47.65251" lon="-2.75743">
        <ele>4</ele>
        <time>2026-08-20T13:02:54Z</time>
      </trkpt>
      <trkpt lat="47.65249" lon="-2.75742">
        <ele>4</ele>
        <time>2026-08-20T13:02:55Z</time>
      </trkpt>
      <trkpt lat="47.65248" lon="-2.75739">
        <ele>4</ele>
        <time>2026-08-20T13:02:56Z</time>
      </trkpt>
      <trkpt lat="47.65246" lon="-2.75737">
        <ele>4</ele>
        <time>2026-08-20T13:02:57Z</time>
      </trkpt>
      <trkpt lat="47.65243" lon="-2.75736">
        <ele>4</ele>
        <time>2026-08-20T13:02:58Z</time>
      </trkpt>
      <trkpt lat="47.6524" lon="-2.75735">
        <ele>4</ele>
        <time>2026-08-20T13:02:59Z</time>
      </trkpt>
      <trkpt lat="47.65237" lon="-2.75735">
        <ele>4</ele>
        <time>2026-08-20T13:03:00Z</time>
      </trkpt>
      <trkpt lat="47.65233" lon="-2.75734">
        <ele>4</ele>
        <time>2026-08-20T13:03:01Z</time>
      </trkpt>
      <trkpt lat="47.65229" lon="-2.75733">
        <ele>4</ele>
        <time>2026-08-20T13:03:02Z</time>
      </trkpt>
      <trkpt lat="47.65225" lon="-2.75731">
        <ele>4</ele>
        <time>2026-08-20T13:03:03Z</time>
      </trkpt>
      <trkpt lat="47.6522" lon="-2.7573">
        <ele>4</ele>
        <time>2026-08-20T13:03:04Z</time>
      </trkpt>
      <trkpt lat="47.65216" lon="-2.75728">
        <ele>4</ele>
        <time>2026-08-20T13:03:05Z</time>
      </trkpt>
      <trkpt lat="47.65212" lon="-2.75727">
        <ele>4</ele>
        <time>2026-08-20T13:03:06Z</time>
      </trkpt>
      <trkpt lat="47.65207" lon="-2.75725">
        <ele>4</ele>
        <time>2026-08-20T13:03:07Z</time>
      </trkpt>
      <trkpt lat="47.65203" lon="-2.75723">
        <ele>4</ele>
        <time>2026-08-20T13:03:08Z</time>
      </trkpt>
      <trkpt lat="47.65199" lon="-2.75721">
        <ele>4.1</ele>
        <time>2026-08-20T13:03:09Z</time>
      </trkpt>
      <trkpt lat="47.65194" lon="-2.75719">
        <ele>4.1</ele>
        <time>2026-08-20T13:03:10Z</time>
      </trkpt>
      <trkpt lat="47.6519" lon="-2.75716">
        <ele>4.2</ele>
        <time>2026-08-20T13:03:11Z</time>
      </trkpt>
      <trkpt lat="47.65185" lon="-2.75714">
        <ele>4.3</ele>
        <time>2026-08-20T13:03:12Z</time>
      </trkpt>
      <trkpt lat="47.65181" lon="-2.75712">
        <ele>4.4</ele>
        <time>2026-08-20T13:03:13Z</time>
      </trkpt>
      <trkpt lat="47.65177" lon="-2.7571">
        <ele>4.4</ele>
        <time>2026-08-20T13:03:14Z</time>
      </trkpt>
      <trkpt lat="47.65172" lon="-2.75707">
        <ele>4.5</ele>
        <time>2026-08-20T13:03:15Z</time>
      </trkpt>
      <trkpt lat="47.65168" lon="-2.75705">
        <ele>4.6</ele>
        <time>2026-08-20T13:03:16Z</time>
      </trkpt>
      <trkpt lat="47.65163" lon="-2.75702">
        <ele>4.6</ele>
        <time>2026-08-20T13:03:17Z</time>
      </trkpt>
      <trkpt lat="47.65159" lon="-2.757">
        <ele>4.5</ele>
        <time>2026-08-20T13:03:18Z</time>
      </trkpt>
      <trkpt lat="47.65155" lon="-2.75697">
        <ele>4.5</ele>
        <time>2026-08-20T13:03:19Z</time>
      </trkpt>
      <trkpt lat="47.65151" lon="-2.75693">
        <ele>4.5</ele>
        <time>2026-08-20T13:03:20Z</time>
      </trkpt>
      <trkpt lat="47.65147" lon="-2.75688">
        <ele>4.5</ele>
        <time>2026-08-20T13:03:21Z</time>
      </trkpt>
      <trkpt lat="47.65145" lon="-2.75682">
        <ele>4.6</ele>
        <time>2026-08-20T13:03:22Z</time>
      </trkpt>
      <trkpt lat="47.65144" lon="-2.75675">
        <ele>4.8</ele>
        <time>2026-08-20T13:03:23Z</time>
      </trkpt>
      <trkpt lat="47.65143" lon="-2.75669">
        <ele>4.9</ele>
        <time>2026-08-20T13:03:24Z</time>
      </trkpt>
      <trkpt lat="47.65141" lon="-2.75663">
        <ele>5.4</ele>
        <time>2026-08-20T13:03:25Z</time>
      </trkpt>
      <trkpt lat="47.6514" lon="-2.75658">
        <ele>6</ele>
        <time>2026-08-20T13:03:26Z</time>
      </trkpt>
      <trkpt lat="47.65138" lon="-2.75653">
        <ele>6.5</ele>
        <time>2026-08-20T13:03:27Z</time>
      </trkpt>
      <trkpt lat="47.65136" lon="-2.75649">
        <ele>6.9</ele>
        <time>2026-08-20T13:03:28Z</time>
      </trkpt>
      <trkpt lat="47.65134" lon="-2.75644">
        <ele>7.4</ele>
        <time>2026-08-20T13:03:29Z</time>
      </trkpt>
      <trkpt lat="47.65132" lon="-2.7564">
        <ele>7.9</ele>
        <time>2026-08-20T13:03:30Z</time>
      </trkpt>
      <trkpt lat="47.6513" lon="-2.75636">
        <ele>8.2</ele>
        <time>2026-08-20T13:03:31Z</time>
      </trkpt>
      <trkpt lat="47.65127" lon="-2.75633">
        <ele>8.5</ele>
        <time>2026-08-20T13:03:32Z</time>
      </trkpt>
      <trkpt lat="47.65125" lon="-2.7563">
        <ele>8.8</ele>
        <time>2026-08-20T13:03:33Z</time>
      </trkpt>
      <trkpt lat="47.65122" lon="-2.75627">
        <ele>9.1</ele>
        <time>2026-08-20T13:03:34Z</time>
      </trkpt>
      <trkpt lat="47.65119" lon="-2.75625">
        <ele>9.4</ele>
        <time>2026-08-20T13:03:35Z</time>
      </trkpt>
      <trkpt lat="47.65116" lon="-2.75623">
        <ele>9.6</ele>
        <time>2026-08-20T13:03:36Z</time>
      </trkpt>
      <trkpt lat="47.65112" lon="-2.75621">
        <ele>9.9</ele>
        <time>2026-08-20T13:03:37Z</time>
      </trkpt>
      <trkpt lat="47.65109" lon="-2.75618">
        <ele>10.2</ele>
        <time>2026-08-20T13:03:38Z</time>
      </trkpt>
      <trkpt lat="47.65106" lon="-2.75616">
        <ele>10.3</ele>
        <time>2026-08-20T13:03:39Z</time>
      </trkpt>
      <trkpt lat="47.65103" lon="-2.75614">
        <ele>10.4</ele>
        <time>2026-08-20T13:03:40Z</time>
      </trkpt>
      <trkpt lat="47.65099" lon="-2.75611">
        <ele>10.6</ele>
        <time>2026-08-20T13:03:41Z</time>
      </trkpt>
      <trkpt lat="47.65096" lon="-2.75609">
        <ele>10.6</ele>
        <time>2026-08-20T13:03:42Z</time>
      </trkpt>
      <trkpt lat="47.65091" lon="-2.75608">
        <ele>10.5</ele>
        <time>2026-08-20T13:03:43Z</time>
      </trkpt>
      <trkpt lat="47.65088" lon="-2.75606">
        <ele>10.5</ele>
        <time>2026-08-20T13:03:44Z</time>
      </trkpt>
      <trkpt lat="47.65085" lon="-2.75604">
        <ele>10.6</ele>
        <time>2026-08-20T13:03:45Z</time>
      </trkpt>
      <trkpt lat="47.65081" lon="-2.75602">
        <ele>10.7</ele>
        <time>2026-08-20T13:03:46Z</time>
      </trkpt>
      <trkpt lat="47.65078" lon="-2.756">
        <ele>10.8</ele>
        <time>2026-08-20T13:03:47Z</time>
      </trkpt>
      <trkpt lat="47.65075" lon="-2.75598">
        <ele>10.9</ele>
        <time>2026-08-20T13:03:48Z</time>
      </trkpt>
      <trkpt lat="47.65072" lon="-2.75596">
        <ele>11.1</ele>
        <time>2026-08-20T13:03:49Z</time>
      </trkpt>
      <trkpt lat="47.65069" lon="-2.75594">
        <ele>11.2</ele>
        <time>2026-08-20T13:03:50Z</time>
      </trkpt>
      <trkpt lat="47.65066" lon="-2.75593">
        <ele>11.3</ele>
        <time>2026-08-20T13:03:51Z</time>
      </trkpt>
      <trkpt lat="47.65063" lon="-2.75591">
        <ele>11.4</ele>
        <time>2026-08-20T13:03:52Z</time>
      </trkpt>
      <trkpt lat="47.65059" lon="-2.75588">
        <ele>11.7</ele>
        <time>2026-08-20T13:03:53Z</time>
      </trkpt>
      <trkpt lat="47.65056" lon="-2.75586">
        <ele>11.8</ele>
        <time>2026-08-20T13:03:54Z</time>
      </trkpt>
      <trkpt lat="47.65053" lon="-2.75585">
        <ele>11.9</ele>
        <time>2026-08-20T13:03:55Z</time>
      </trkpt>
      <trkpt lat="47.6505" lon="-2.75583">
        <ele>12</ele>
        <time>2026-08-20T13:03:56Z</time>
      </trkpt>
      <trkpt lat="47.65047" lon="-2.75581">
        <ele>12.2</ele>
        <time>2026-08-20T13:03:57Z</time>
      </trkpt>
      <trkpt lat="47.65044" lon="-2.7558">
        <ele>12.2</ele>
        <time>2026-08-20T13:03:58Z</time>
      </trkpt>
      <trkpt lat="47.65041" lon="-2.75578">
        <ele>12.4</ele>
        <time>2026-08-20T13:03:59Z</time>
      </trkpt>
      <trkpt lat="47.65038" lon="-2.75576">
        <ele>12.5</ele>
        <time>2026-08-20T13:04:00Z</time>
      </trkpt>
      <trkpt lat="47.65034" lon="-2.75574">
        <ele>12.7</ele>
        <time>2026-08-20T13:04:01Z</time>
      </trkpt>
      <trkpt lat="47.65031" lon="-2.75572">
        <ele>12.8</ele>
        <time>2026-08-20T13:04:02Z</time>
      </trkpt>
      <trkpt lat="47.65028" lon="-2.7557">
        <ele>13</ele>
        <time>2026-08-20T13:04:03Z</time>
      </trkpt>
      <trkpt lat="47.65025" lon="-2.75568">
        <ele>13.2</ele>
        <time>2026-08-20T13:04:04Z</time>
      </trkpt>
      <trkpt lat="47.65021" lon="-2.75566">
        <ele>13.4</ele>
        <time>2026-08-20T13:04:05Z</time>
      </trkpt>
      <trkpt lat="47.65018" lon="-2.75564">
        <ele>13.6</ele>
        <time>2026-08-20T13:04:06Z</time>
      </trkpt>
      <trkpt lat="47.65014" lon="-2.75562">
        <ele>13.8</ele>
        <time>2026-08-20T13:04:07Z</time>
      </trkpt>
      <trkpt lat="47.65011" lon="-2.7556">
        <ele>13.9</ele>
        <time>2026-08-20T13:04:08Z</time>
      </trkpt>
      <trkpt lat="47.65008" lon="-2.75558">
        <ele>13.9</ele>
        <time>2026-08-20T13:04:09Z</time>
      </trkpt>
      <trkpt lat="47.65005" lon="-2.75556">
        <ele>14</ele>
        <time>2026-08-20T13:04:10Z</time>
      </trkpt>
      <trkpt lat="47.65002" lon="-2.75555">
        <ele>14</ele>
        <time>2026-08-20T13:04:11Z</time>
      </trkpt>
      <trkpt lat="47.64999" lon="-2.75553">
        <ele>14.2</ele>
        <time>2026-08-20T13:04:12Z</time>
      </trkpt>
      <trkpt lat="47.64996" lon="-2.75551">
        <ele>14.4</ele>
        <time>2026-08-20T13:04:13Z</time>
      </trkpt>
      <trkpt lat="47.64993" lon="-2.75549">
        <ele>14.7</ele>
        <time>2026-08-20T13:04:14Z</time>
      </trkpt>
      <trkpt lat="47.6499" lon="-2.75548">
        <ele>14.8</ele>
        <time>2026-08-20T13:04:15Z</time>
      </trkpt>
      <trkpt lat="47.64987" lon="-2.75546">
        <ele>15</ele>
        <time>2026-08-20T13:04:16Z</time>
      </trkpt>
      <trkpt lat="47.64984" lon="-2.75544">
        <ele>15.2</ele>
        <time>2026-08-20T13:04:17Z</time>
      </trkpt>
      <trkpt lat="47.64981" lon="-2.75542">
        <ele>15.3</ele>
        <time>2026-08-20T13:04:18Z</time>
      </trkpt>
      <trkpt lat="47.64978" lon="-2.7554">
        <ele>15.5</ele>
        <time>2026-08-20T13:04:19Z</time>
      </trkpt>
      <trkpt lat="47.64976" lon="-2.75538">
        <ele>15.6</ele>
        <time>2026-08-20T13:04:20Z</time>
      </trkpt>
      <trkpt lat="47.64973" lon="-2.75536">
        <ele>15.7</ele>
        <time>2026-08-20T13:04:21Z</time>
      </trkpt>
      <trkpt lat="47.6497" lon="-2.75535">
        <ele>15.8</ele>
        <time>2026-08-20T13:04:22Z</time>
      </trkpt>
      <trkpt lat="47.64967" lon="-2.75533">
        <ele>16</ele>
        <time>2026-08-20T13:04:23Z</time>
      </trkpt>
      <trkpt lat="47.64965" lon="-2.75532">
        <ele>16.1</ele>
        <time>2026-08-20T13:04:24Z</time>
      </trkpt>
      <trkpt lat="47.64962" lon="-2.7553">
        <ele>16.3</ele>
        <time>2026-08-20T13:04:25Z</time>
      </trkpt>
      <trkpt lat="47.64959" lon="-2.75529">
        <ele>16.4</ele>
        <time>2026-08-20T13:04:26Z</time>
      </trkpt>
      <trkpt lat="47.64956" lon="-2.75527">
        <ele>16.6</ele>
        <time>2026-08-20T13:04:27Z</time>
      </trkpt>
      <trkpt lat="47.64953" lon="-2.75525">
        <ele>16.8</ele>
        <time>2026-08-20T13:04:28Z</time>
      </trkpt>
      <trkpt lat="47.64951" lon="-2.75523">
        <ele>16.9</ele>
        <time>2026-08-20T13:04:29Z</time>
      </trkpt>
      <trkpt lat="47.64948" lon="-2.75522">
        <ele>17.1</ele>
        <time>2026-08-20T13:04:30Z</time>
      </trkpt>
      <trkpt lat="47.64945" lon="-2.7552">
        <ele>17.3</ele>
        <time>2026-08-20T13:04:31Z</time>
      </trkpt>
      <trkpt lat="47.64942" lon="-2.75518">
        <ele>17.4</ele>
        <time>2026-08-20T13:04:32Z</time>
      </trkpt>
      <trkpt lat="47.64939" lon="-2.75516">
        <ele>17.4</ele>
        <time>2026-08-20T13:04:33Z</time>
      </trkpt>
      <trkpt lat="47.64936" lon="-2.75514">
        <ele>17.5</ele>
        <time>2026-08-20T13:04:34Z</time>
      </trkpt>
      <trkpt lat="47.64933" lon="-2.75512">
        <ele>17.6</ele>
        <time>2026-08-20T13:04:35Z</time>
      </trkpt>
      <trkpt lat="47.6493" lon="-2.7551">
        <ele>17.6</ele>
        <time>2026-08-20T13:04:36Z</time>
      </trkpt>
      <trkpt lat="47.64927" lon="-2.75509">
        <ele>17.7</ele>
        <time>2026-08-20T13:04:37Z</time>
      </trkpt>
      <trkpt lat="47.64925" lon="-2.75507">
        <ele>17.7</ele>
        <time>2026-08-20T13:04:38Z</time>
      </trkpt>
      <trkpt lat="47.64922" lon="-2.75505">
        <ele>17.8</ele>
        <time>2026-08-20T13:04:39Z</time>
      </trkpt>
      <trkpt lat="47.64919" lon="-2.75503">
        <ele>17.9</ele>
        <time>2026-08-20T13:04:40Z</time>
      </trkpt>
      <trkpt lat="47.64916" lon="-2.75501">
        <ele>18</ele>
        <time>2026-08-20T13:04:41Z</time>
      </trkpt>
      <trkpt lat="47.64913" lon="-2.75499">
        <ele>18.1</ele>
        <time>2026-08-20T13:04:42Z</time>
      </trkpt>
      <trkpt lat="47.6491" lon="-2.75498">
        <ele>18.1</ele>
        <time>2026-08-20T13:04:43Z</time>
      </trkpt>
      <trkpt lat="47.64907" lon="-2.75496">
        <ele>18.3</ele>
        <time>2026-08-20T13:04:44Z</time>
      </trkpt>
      <trkpt lat="47.64904" lon="-2.75494">
        <ele>18.4</ele>
        <time>2026-08-20T13:04:45Z</time>
      </trkpt>
      <trkpt lat="47.64902" lon="-2.75492">
        <ele>18.6</ele>
        <time>2026-08-20T13:04:46Z</time>
      </trkpt>
      <trkpt lat="47.64898" lon="-2.7549">
        <ele>18.7</ele>
        <time>2026-08-20T13:04:47Z</time>
      </trkpt>
      <trkpt lat="47.64896" lon="-2.75489">
        <ele>18.8</ele>
        <time>2026-08-20T13:04:48Z</time>
      </trkpt>
      <trkpt lat="47.64893" lon="-2.75487">
        <ele>18.9</ele>
        <time>2026-08-20T13:04:49Z</time>
      </trkpt>
      <trkpt lat="47.6489" lon="-2.75486">
        <ele>19</ele>
        <time>2026-08-20T13:04:50Z</time>
      </trkpt>
      <trkpt lat="47.64887" lon="-2.75484">
        <ele>19.2</ele>
        <time>2026-08-20T13:04:51Z</time>
      </trkpt>
      <trkpt lat="47.64884" lon="-2.75482">
        <ele>19.4</ele>
        <time>2026-08-20T13:04:52Z</time>
      </trkpt>
      <trkpt lat="47.64881" lon="-2.7548">
        <ele>19.5</ele>
        <time>2026-08-20T13:04:53Z</time>
      </trkpt>
      <trkpt lat="47.64878" lon="-2.75478">
        <ele>19.7</ele>
        <time>2026-08-20T13:04:54Z</time>
      </trkpt>
      <trkpt lat="47.64875" lon="-2.75476">
        <ele>19.8</ele>
        <time>2026-08-20T13:04:55Z</time>
      </trkpt>
      <trkpt lat="47.64872" lon="-2.75474">
        <ele>19.9</ele>
        <time>2026-08-20T13:04:56Z</time>
      </trkpt>
      <trkpt lat="47.64869" lon="-2.75472">
        <ele>20</ele>
        <time>2026-08-20T13:04:57Z</time>
      </trkpt>
      <trkpt lat="47.64866" lon="-2.75471">
        <ele>20.1</ele>
        <time>2026-08-20T13:04:58Z</time>
      </trkpt>
      <trkpt lat="47.64863" lon="-2.75469">
        <ele>20.2</ele>
        <time>2026-08-20T13:04:59Z</time>
      </trkpt>
      <trkpt lat="47.6486" lon="-2.75467">
        <ele>20.4</ele>
        <time>2026-08-20T13:05:00Z</time>
      </trkpt>
      <trkpt lat="47.64857" lon="-2.75466">
        <ele>20.5</ele>
        <time>2026-08-20T13:05:01Z</time>
      </trkpt>
      <trkpt lat="47.64854" lon="-2.75464">
        <ele>20.7</ele>
        <time>2026-08-20T13:05:02Z</time>
      </trkpt>
      <trkpt lat="47.64851" lon="-2.75462">
        <ele>20.8</ele>
        <time>2026-08-20T13:05:03Z</time>
      </trkpt>
      <trkpt lat="47.64848" lon="-2.7546">
        <ele>20.9</ele>
        <time>2026-08-20T13:05:04Z</time>
      </trkpt>
      <trkpt lat="47.64845" lon="-2.75458">
        <ele>21</ele>
        <time>2026-08-20T13:05:05Z</time>
      </trkpt>
      <trkpt lat="47.64841" lon="-2.75456">
        <ele>21</ele>
        <time>2026-08-20T13:05:06Z</time>
      </trkpt>
      <trkpt lat="47.64838" lon="-2.75454">
        <ele>21.1</ele>
        <time>2026-08-20T13:05:07Z</time>
      </trkpt>
      <trkpt lat="47.64835" lon="-2.75453">
        <ele>21</ele>
        <time>2026-08-20T13:05:08Z</time>
      </trkpt>
      <trkpt lat="47.64832" lon="-2.7545">
        <ele>21</ele>
        <time>2026-08-20T13:05:09Z</time>
      </trkpt>
      <trkpt lat="47.64829" lon="-2.75448">
        <ele>21.1</ele>
        <time>2026-08-20T13:05:10Z</time>
      </trkpt>
      <trkpt lat="47.64825" lon="-2.75446">
        <ele>21.3</ele>
        <time>2026-08-20T13:05:11Z</time>
      </trkpt>
      <trkpt lat="47.64822" lon="-2.75444">
        <ele>21.4</ele>
        <time>2026-08-20T13:05:12Z</time>
      </trkpt>
      <trkpt lat="47.64819" lon="-2.75442">
        <ele>21.6</ele>
        <time>2026-08-20T13:05:13Z</time>
      </trkpt>
      <trkpt lat="47.64816" lon="-2.7544">
        <ele>21.7</ele>
        <time>2026-08-20T13:05:14Z</time>
      </trkpt>
      <trkpt lat="47.64812" lon="-2.75438">
        <ele>21.8</ele>
        <time>2026-08-20T13:05:15Z</time>
      </trkpt>
      <trkpt lat="47.64809" lon="-2.75436">
        <ele>21.9</ele>
        <time>2026-08-20T13:05:16Z</time>
      </trkpt>
      <trkpt lat="47.64805" lon="-2.75434">
        <ele>22</ele>
        <time>2026-08-20T13:05:17Z</time>
      </trkpt>
      <trkpt lat="47.64802" lon="-2.75431">
        <ele>22</ele>
        <time>2026-08-20T13:05:18Z</time>
      </trkpt>
      <trkpt lat="47.64798" lon="-2.75429">
        <ele>22</ele>
        <time>2026-08-20T13:05:19Z</time>
      </trkpt>
      <trkpt lat="47.64794" lon="-2.75427">
        <ele>22</ele>
        <time>2026-08-20T13:05:20Z</time>
      </trkpt>
      <trkpt lat="47.64791" lon="-2.75425">
        <ele>22</ele>
        <time>2026-08-20T13:05:21Z</time>
      </trkpt>
      <trkpt lat="47.64787" lon="-2.75423">
        <ele>22</ele>
        <time>2026-08-20T13:05:22Z</time>
      </trkpt>
      <trkpt lat="47.64783" lon="-2.75421">
        <ele>22</ele>
        <time>2026-08-20T13:05:23Z</time>
      </trkpt>
      <trkpt lat="47.6478" lon="-2.75418">
        <ele>22</ele>
        <time>2026-08-20T13:05:24Z</time>
      </trkpt>
      <trkpt lat="47.64776" lon="-2.75416">
        <ele>22</ele>
        <time>2026-08-20T13:05:25Z</time>
      </trkpt>
      <trkpt lat="47.64773" lon="-2.75414">
        <ele>22.1</ele>
        <time>2026-08-20T13:05:26Z</time>
      </trkpt>
      <trkpt lat="47.64769" lon="-2.75411">
        <ele>22.1</ele>
        <time>2026-08-20T13:05:27Z</time>
      </trkpt>
      <trkpt lat="47.64765" lon="-2.75409">
        <ele>22.1</ele>
        <time>2026-08-20T13:05:28Z</time>
      </trkpt>
      <trkpt lat="47.64761" lon="-2.75406">
        <ele>22.2</ele>
        <time>2026-08-20T13:05:29Z</time>
      </trkpt>
      <trkpt lat="47.64757" lon="-2.75404">
        <ele>22.1</ele>
        <time>2026-08-20T13:05:30Z</time>
      </trkpt>
      <trkpt lat="47.64753" lon="-2.75401">
        <ele>22.1</ele>
        <time>2026-08-20T13:05:31Z</time>
      </trkpt>
      <trkpt lat="47.64749" lon="-2.75399">
        <ele>22</ele>
        <time>2026-08-20T13:05:32Z</time>
      </trkpt>
      <trkpt lat="47.64744" lon="-2.75396">
        <ele>21.9</ele>
        <time>2026-08-20T13:05:33Z</time>
      </trkpt>
      <trkpt lat="47.6474" lon="-2.75394">
        <ele>21.9</ele>
        <time>2026-08-20T13:05:34Z</time>
      </trkpt>
      <trkpt lat="47.64736" lon="-2.75391">
        <ele>22</ele>
        <time>2026-08-20T13:05:35Z</time>
      </trkpt>
      <trkpt lat="47.64731" lon="-2.75389">
        <ele>22</ele>
        <time>2026-08-20T13:05:36Z</time>
      </trkpt>
      <trkpt lat="47.64727" lon="-2.75387">
        <ele>21.9</ele>
        <time>2026-08-20T13:05:37Z</time>
      </trkpt>
      <trkpt lat="47.64722" lon="-2.75384">
        <ele>21.8</ele>
        <time>2026-08-20T13:05:38Z</time>
      </trkpt>
      <trkpt lat="47.64717" lon="-2.75382">
        <ele>21.7</ele>
        <time>2026-08-20T13:05:39Z</time>
      </trkpt>
      <trkpt lat="47.64713" lon="-2.7538">
        <ele>21.6</ele>
        <time>2026-08-20T13:05:40Z</time>
      </trkpt>
      <trkpt lat="47.64708" lon="-2.75378">
        <ele>21.5</ele>
        <time>2026-08-20T13:05:41Z</time>
      </trkpt>
      <trkpt lat="47.64703" lon="-2.75376">
        <ele>21.5</ele>
        <time>2026-08-20T13:05:42Z</time>
      </trkpt>
      <trkpt lat="47.64698" lon="-2.75374">
        <ele>21.5</ele>
        <time>2026-08-20T13:05:43Z</time>
      </trkpt>
      <trkpt lat="47.64694" lon="-2.75373">
        <ele>21.6</ele>
        <time>2026-08-20T13:05:44Z</time>
      </trkpt>
      <trkpt lat="47.64689" lon="-2.75371">
        <ele>21.6</ele>
        <time>2026-08-20T13:05:45Z</time>
      </trkpt>
      <trkpt lat="47.64684" lon="-2.75369">
        <ele>21.7</ele>
        <time>2026-08-20T13:05:46Z</time>
      </trkpt>
      <trkpt lat="47.6468" lon="-2.75368">
        <ele>21.8</ele>
        <time>2026-08-20T13:05:47Z</time>
      </trkpt>
      <trkpt lat="47.64675" lon="-2.75367">
        <ele>21.8</ele>
        <time>2026-08-20T13:05:48Z</time>
      </trkpt>
      <trkpt lat="47.6467" lon="-2.75366">
        <ele>21.8</ele>
        <time>2026-08-20T13:05:49Z</time>
      </trkpt>
      <trkpt lat="47.64665" lon="-2.75365">
        <ele>21.9</ele>
        <time>2026-08-20T13:05:50Z</time>
      </trkpt>
      <trkpt lat="47.64661" lon="-2.75365">
        <ele>21.9</ele>
        <time>2026-08-20T13:05:51Z</time>
      </trkpt>
      <trkpt lat="47.64656" lon="-2.75365">
        <ele>21.9</ele>
        <time>2026-08-20T13:05:52Z</time>
      </trkpt>
      <trkpt lat="47.64651" lon="-2.75364">
        <ele>21.9</ele>
        <time>2026-08-20T13:05:53Z</time>
      </trkpt>
      <trkpt lat="47.64647" lon="-2.75363">
        <ele>21.9</ele>
        <time>2026-08-20T13:05:54Z</time>
      </trkpt>
      <trkpt lat="47.64642" lon="-2.75363">
        <ele>21.9</ele>
        <time>2026-08-20T13:05:55Z</time>
      </trkpt>
      <trkpt lat="47.64637" lon="-2.75362">
        <ele>22</ele>
        <time>2026-08-20T13:05:56Z</time>
      </trkpt>
      <trkpt lat="47.64633" lon="-2.75362">
        <ele>22</ele>
        <time>2026-08-20T13:05:57Z</time>
      </trkpt>
      <trkpt lat="47.64628" lon="-2.75361">
        <ele>22</ele>
        <time>2026-08-20T13:05:58Z</time>
      </trkpt>
      <trkpt lat="47.64624" lon="-2.7536">
        <ele>22</ele>
        <time>2026-08-20T13:05:59Z</time>
      </trkpt>
      <trkpt lat="47.64619" lon="-2.7536">
        <ele>22</ele>
        <time>2026-08-20T13:06:00Z</time>
      </trkpt>
      <trkpt lat="47.64615" lon="-2.75359">
        <ele>22</ele>
        <time>2026-08-20T13:06:01Z</time>
      </trkpt>
      <trkpt lat="47.6461" lon="-2.75358">
        <ele>22</ele>
        <time>2026-08-20T13:06:02Z</time>
      </trkpt>
      <trkpt lat="47.64606" lon="-2.75358">
        <ele>22.2</ele>
        <time>2026-08-20T13:06:03Z</time>
      </trkpt>
      <trkpt lat="47.64601" lon="-2.75357">
        <ele>22.4</ele>
        <time>2026-08-20T13:06:04Z</time>
      </trkpt>
      <trkpt lat="47.64597" lon="-2.75357">
        <ele>22.6</ele>
        <time>2026-08-20T13:06:05Z</time>
      </trkpt>
      <trkpt lat="47.64592" lon="-2.75358">
        <ele>22.8</ele>
        <time>2026-08-20T13:06:06Z</time>
      </trkpt>
      <trkpt lat="47.64588" lon="-2.75358">
        <ele>22.9</ele>
        <time>2026-08-20T13:06:07Z</time>
      </trkpt>
      <trkpt lat="47.64583" lon="-2.75358">
        <ele>23.1</ele>
        <time>2026-08-20T13:06:08Z</time>
      </trkpt>
      <trkpt lat="47.64579" lon="-2.75358">
        <ele>23.3</ele>
        <time>2026-08-20T13:06:09Z</time>
      </trkpt>
      <trkpt lat="47.64574" lon="-2.75357">
        <ele>23.4</ele>
        <time>2026-08-20T13:06:10Z</time>
      </trkpt>
      <trkpt lat="47.6457" lon="-2.75357">
        <ele>23.6</ele>
        <time>2026-08-20T13:06:11Z</time>
      </trkpt>
      <trkpt lat="47.64565" lon="-2.75356">
        <ele>23.7</ele>
        <time>2026-08-20T13:06:12Z</time>
      </trkpt>
      <trkpt lat="47.6456" lon="-2.75356">
        <ele>23.9</ele>
        <time>2026-08-20T13:06:13Z</time>
      </trkpt>
      <trkpt lat="47.64555" lon="-2.75355">
        <ele>24</ele>
        <time>2026-08-20T13:06:14Z</time>
      </trkpt>
      <trkpt lat="47.64551" lon="-2.75355">
        <ele>24</ele>
        <time>2026-08-20T13:06:15Z</time>
      </trkpt>
      <trkpt lat="47.64546" lon="-2.75354">
        <ele>24.1</ele>
        <time>2026-08-20T13:06:16Z</time>
      </trkpt>
      <trkpt lat="47.64541" lon="-2.75354">
        <ele>24.1</ele>
        <time>2026-08-20T13:06:17Z</time>
      </trkpt>
      <trkpt lat="47.64536" lon="-2.75353">
        <ele>24.2</ele>
        <time>2026-08-20T13:06:18Z</time>
      </trkpt>
      <trkpt lat="47.64532" lon="-2.75353">
        <ele>24.2</ele>
        <time>2026-08-20T13:06:19Z</time>
      </trkpt>
      <trkpt lat="47.64527" lon="-2.75352">
        <ele>24.3</ele>
        <time>2026-08-20T13:06:20Z</time>
      </trkpt>
      <trkpt lat="47.64522" lon="-2.75351">
        <ele>24.5</ele>
        <time>2026-08-20T13:06:21Z</time>
      </trkpt>
      <trkpt lat="47.64517" lon="-2.7535">
        <ele>24.6</ele>
        <time>2026-08-20T13:06:22Z</time>
      </trkpt>
      <trkpt lat="47.64513" lon="-2.75348">
        <ele>24.8</ele>
        <time>2026-08-20T13:06:23Z</time>
      </trkpt>
      <trkpt lat="47.64508" lon="-2.75347">
        <ele>24.9</ele>
        <time>2026-08-20T13:06:24Z</time>
      </trkpt>
      <trkpt lat="47.64503" lon="-2.75345">
        <ele>25</ele>
        <time>2026-08-20T13:06:25Z</time>
      </trkpt>
      <trkpt lat="47.64499" lon="-2.75344">
        <ele>25</ele>
        <time>2026-08-20T13:06:26Z</time>
      </trkpt>
      <trkpt lat="47.64494" lon="-2.75342">
        <ele>24.7</ele>
        <time>2026-08-20T13:06:27Z</time>
      </trkpt>
      <trkpt lat="47.6449" lon="-2.75341">
        <ele>24.5</ele>
        <time>2026-08-20T13:06:28Z</time>
      </trkpt>
      <trkpt lat="47.64485" lon="-2.75339">
        <ele>24.3</ele>
        <time>2026-08-20T13:06:29Z</time>
      </trkpt>
      <trkpt lat="47.6448" lon="-2.75337">
        <ele>24.2</ele>
        <time>2026-08-20T13:06:30Z</time>
      </trkpt>
      <trkpt lat="47.64475" lon="-2.75336">
        <ele>24</ele>
        <time>2026-08-20T13:06:31Z</time>
      </trkpt>
      <trkpt lat="47.64471" lon="-2.75334">
        <ele>23.9</ele>
        <time>2026-08-20T13:06:32Z</time>
      </trkpt>
      <trkpt lat="47.64466" lon="-2.75332">
        <ele>23.8</ele>
        <time>2026-08-20T13:06:33Z</time>
      </trkpt>
      <trkpt lat="47.64462" lon="-2.7533">
        <ele>23.6</ele>
        <time>2026-08-20T13:06:34Z</time>
      </trkpt>
      <trkpt lat="47.64458" lon="-2.75329">
        <ele>23.5</ele>
        <time>2026-08-20T13:06:35Z</time>
      </trkpt>
      <trkpt lat="47.64454" lon="-2.75326">
        <ele>23.3</ele>
        <time>2026-08-20T13:06:36Z</time>
      </trkpt>
      <trkpt lat="47.6445" lon="-2.75322">
        <ele>23.2</ele>
        <time>2026-08-20T13:06:37Z</time>
      </trkpt>
      <trkpt lat="47.64446" lon="-2.75318">
        <ele>23.1</ele>
        <time>2026-08-20T13:06:38Z</time>
      </trkpt>
      <trkpt lat="47.64442" lon="-2.75314">
        <ele>22.9</ele>
        <time>2026-08-20T13:06:39Z</time>
      </trkpt>
      <trkpt lat="47.64437" lon="-2.75309">
        <ele>22.7</ele>
        <time>2026-08-20T13:06:40Z</time>
      </trkpt>
      <trkpt lat="47.64433" lon="-2.75305">
        <ele>22.6</ele>
        <time>2026-08-20T13:06:41Z</time>
      </trkpt>
      <trkpt lat="47.64429" lon="-2.753">
        <ele>22.4</ele>
        <time>2026-08-20T13:06:42Z</time>
      </trkpt>
      <trkpt lat="47.64424" lon="-2.75296">
        <ele>22.2</ele>
        <time>2026-08-20T13:06:43Z</time>
      </trkpt>
      <trkpt lat="47.6442" lon="-2.75291">
        <ele>22.1</ele>
        <time>2026-08-20T13:06:44Z</time>
      </trkpt>
      <trkpt lat="47.64416" lon="-2.75286">
        <ele>22</ele>
        <time>2026-08-20T13:06:45Z</time>
      </trkpt>
      <trkpt lat="47.64411" lon="-2.75281">
        <ele>21.8</ele>
        <time>2026-08-20T13:06:46Z</time>
      </trkpt>
      <trkpt lat="47.64407" lon="-2.75276">
        <ele>21.7</ele>
        <time>2026-08-20T13:06:47Z</time>
      </trkpt>
      <trkpt lat="47.64403" lon="-2.75271">
        <ele>21.5</ele>
        <time>2026-08-20T13:06:48Z</time>
      </trkpt>
      <trkpt lat="47.64399" lon="-2.75266">
        <ele>21.4</ele>
        <time>2026-08-20T13:06:49Z</time>
      </trkpt>
      <trkpt lat="47.64394" lon="-2.75261">
        <ele>21.2</ele>
        <time>2026-08-20T13:06:50Z</time>
      </trkpt>
      <trkpt lat="47.6439" lon="-2.75257">
        <ele>21</ele>
        <time>2026-08-20T13:06:51Z</time>
      </trkpt>
      <trkpt lat="47.64386" lon="-2.75252">
        <ele>21</ele>
        <time>2026-08-20T13:06:52Z</time>
      </trkpt>
      <trkpt lat="47.64381" lon="-2.75247">
        <ele>21</ele>
        <time>2026-08-20T13:06:53Z</time>
      </trkpt>
      <trkpt lat="47.64376" lon="-2.75243">
        <ele>21</ele>
        <time>2026-08-20T13:06:54Z</time>
      </trkpt>
      <trkpt lat="47.64372" lon="-2.75238">
        <ele>21</ele>
        <time>2026-08-20T13:06:55Z</time>
      </trkpt>
      <trkpt lat="47.64367" lon="-2.75234">
        <ele>21</ele>
        <time>2026-08-20T13:06:56Z</time>
      </trkpt>
      <trkpt lat="47.64362" lon="-2.75231">
        <ele>21</ele>
        <time>2026-08-20T13:06:57Z</time>
      </trkpt>
      <trkpt lat="47.64357" lon="-2.75228">
        <ele>21</ele>
        <time>2026-08-20T13:06:58Z</time>
      </trkpt>
      <trkpt lat="47.64352" lon="-2.75225">
        <ele>21</ele>
        <time>2026-08-20T13:06:59Z</time>
      </trkpt>
      <trkpt lat="47.64347" lon="-2.75222">
        <ele>21</ele>
        <time>2026-08-20T13:07:00Z</time>
      </trkpt>
      <trkpt lat="47.64342" lon="-2.7522">
        <ele>21</ele>
        <time>2026-08-20T13:07:01Z</time>
      </trkpt>
      <trkpt lat="47.64338" lon="-2.75218">
        <ele>21</ele>
        <time>2026-08-20T13:07:02Z</time>
      </trkpt>
      <trkpt lat="47.64336" lon="-2.75218">
        <ele>21</ele>
        <time>2026-08-20T13:07:03Z</time>
      </trkpt>
      <trkpt lat="47.64335" lon="-2.75217">
        <ele>21</ele>
        <time>2026-08-20T13:07:04Z</time>
      </trkpt>
      <trkpt lat="47.64334" lon="-2.75217">
        <ele>21</ele>
        <time>2026-08-20T13:07:05Z</time>
      </trkpt>
      <trkpt lat="47.64333" lon="-2.75217">
        <ele>21</ele>
        <time>2026-08-20T13:07:06Z</time>
      </trkpt>
      <trkpt lat="47.64331" lon="-2.75217">
        <ele>21</ele>
        <time>2026-08-20T13:07:07Z</time>
      </trkpt>
      <trkpt lat="47.64329" lon="-2.75218">
        <ele>21</ele>
        <time>2026-08-20T13:07:08Z</time>
      </trkpt>
      <trkpt lat="47.64325" lon="-2.75218">
        <ele>21</ele>
        <time>2026-08-20T13:07:09Z</time>
      </trkpt>
      <trkpt lat="47.64321" lon="-2.75218">
        <ele>21</ele>
        <time>2026-08-20T13:07:10Z</time>
      </trkpt>
      <trkpt lat="47.64317" lon="-2.75216">
        <ele>21</ele>
        <time>2026-08-20T13:07:11Z</time>
      </trkpt>
      <trkpt lat="47.64312" lon="-2.75212">
        <ele>21</ele>
        <time>2026-08-20T13:07:12Z</time>
      </trkpt>
      <trkpt lat="47.64308" lon="-2.75208">
        <ele>21</ele>
        <time>2026-08-20T13:07:13Z</time>
      </trkpt>
      <trkpt lat="47.64305" lon="-2.75202">
        <ele>21</ele>
        <time>2026-08-20T13:07:14Z</time>
      </trkpt>
      <trkpt lat="47.64303" lon="-2.75196">
        <ele>20.9</ele>
        <time>2026-08-20T13:07:15Z</time>
      </trkpt>
      <trkpt lat="47.64302" lon="-2.75189">
        <ele>20.9</ele>
        <time>2026-08-20T13:07:16Z</time>
      </trkpt>
      <trkpt lat="47.64302" lon="-2.75181">
        <ele>20.9</ele>
        <time>2026-08-20T13:07:17Z</time>
      </trkpt>
      <trkpt lat="47.64304" lon="-2.75173">
        <ele>20.9</ele>
        <time>2026-08-20T13:07:18Z</time>
      </trkpt>
      <trkpt lat="47.64308" lon="-2.75166">
        <ele>21</ele>
        <time>2026-08-20T13:07:19Z</time>
      </trkpt>
      <trkpt lat="47.64312" lon="-2.7516">
        <ele>20.9</ele>
        <time>2026-08-20T13:07:20Z</time>
      </trkpt>
      <trkpt lat="47.64316" lon="-2.75155">
        <ele>20.8</ele>
        <time>2026-08-20T13:07:21Z</time>
      </trkpt>
      <trkpt lat="47.64321" lon="-2.75151">
        <ele>20.7</ele>
        <time>2026-08-20T13:07:22Z</time>
      </trkpt>
      <trkpt lat="47.64326" lon="-2.75148">
        <ele>20.5</ele>
        <time>2026-08-20T13:07:23Z</time>
      </trkpt>
      <trkpt lat="47.64331" lon="-2.75145">
        <ele>20.3</ele>
        <time>2026-08-20T13:07:24Z</time>
      </trkpt>
      <trkpt lat="47.64335" lon="-2.75144">
        <ele>20.2</ele>
        <time>2026-08-20T13:07:25Z</time>
      </trkpt>
      <trkpt lat="47.6434" lon="-2.75144">
        <ele>20.1</ele>
        <time>2026-08-20T13:07:26Z</time>
      </trkpt>
      <trkpt lat="47.64345" lon="-2.75142">
        <ele>20.1</ele>
        <time>2026-08-20T13:07:27Z</time>
      </trkpt>
      <trkpt lat="47.64348" lon="-2.75138">
        <ele>20</ele>
        <time>2026-08-20T13:07:28Z</time>
      </trkpt>
      <trkpt lat="47.6435" lon="-2.75132">
        <ele>20</ele>
        <time>2026-08-20T13:07:29Z</time>
      </trkpt>
      <trkpt lat="47.64351" lon="-2.75125">
        <ele>20</ele>
        <time>2026-08-20T13:07:30Z</time>
      </trkpt>
      <trkpt lat="47.64353" lon="-2.75118">
        <ele>20</ele>
        <time>2026-08-20T13:07:31Z</time>
      </trkpt>
      <trkpt lat="47.64354" lon="-2.75111">
        <ele>20</ele>
        <time>2026-08-20T13:07:32Z</time>
      </trkpt>
      <trkpt lat="47.64356" lon="-2.75103">
        <ele>20.1</ele>
        <time>2026-08-20T13:07:33Z</time>
      </trkpt>
      <trkpt lat="47.64359" lon="-2.75095">
        <ele>20</ele>
        <time>2026-08-20T13:07:34Z</time>
      </trkpt>
      <trkpt lat="47.64361" lon="-2.75088">
        <ele>20</ele>
        <time>2026-08-20T13:07:35Z</time>
      </trkpt>
      <trkpt lat="47.64364" lon="-2.7508">
        <ele>19.9</ele>
        <time>2026-08-20T13:07:36Z</time>
      </trkpt>
      <trkpt lat="47.64366" lon="-2.75072">
        <ele>19.8</ele>
        <time>2026-08-20T13:07:37Z</time>
      </trkpt>
      <trkpt lat="47.64368" lon="-2.75063">
        <ele>19.6</ele>
        <time>2026-08-20T13:07:38Z</time>
      </trkpt>
      <trkpt lat="47.6437" lon="-2.75055">
        <ele>19.3</ele>
        <time>2026-08-20T13:07:39Z</time>
      </trkpt>
      <trkpt lat="47.64373" lon="-2.75047">
        <ele>19</ele>
        <time>2026-08-20T13:07:40Z</time>
      </trkpt>
      <trkpt lat="47.64375" lon="-2.75038">
        <ele>18.7</ele>
        <time>2026-08-20T13:07:41Z</time>
      </trkpt>
      <trkpt lat="47.64377" lon="-2.7503">
        <ele>18.5</ele>
        <time>2026-08-20T13:07:42Z</time>
      </trkpt>
      <trkpt lat="47.64379" lon="-2.75021">
        <ele>18.4</ele>
        <time>2026-08-20T13:07:43Z</time>
      </trkpt>
      <trkpt lat="47.64381" lon="-2.75013">
        <ele>18.3</ele>
        <time>2026-08-20T13:07:44Z</time>
      </trkpt>
      <trkpt lat="47.64383" lon="-2.75004">
        <ele>18.2</ele>
        <time>2026-08-20T13:07:45Z</time>
      </trkpt>
      <trkpt lat="47.64386" lon="-2.74996">
        <ele>18.2</ele>
        <time>2026-08-20T13:07:46Z</time>
      </trkpt>
      <trkpt lat="47.64388" lon="-2.74987">
        <ele>18.5</ele>
        <time>2026-08-20T13:07:47Z</time>
      </trkpt>
      <trkpt lat="47.6439" lon="-2.74978">
        <ele>18.7</ele>
        <time>2026-08-20T13:07:48Z</time>
      </trkpt>
      <trkpt lat="47.64393" lon="-2.74969">
        <ele>18.7</ele>
        <time>2026-08-20T13:07:49Z</time>
      </trkpt>
      <trkpt lat="47.64395" lon="-2.7496">
        <ele>18.6</ele>
        <time>2026-08-20T13:07:50Z</time>
      </trkpt>
      <trkpt lat="47.64397" lon="-2.74951">
        <ele>18.4</ele>
        <time>2026-08-20T13:07:51Z</time>
      </trkpt>
      <trkpt lat="47.644" lon="-2.74942">
        <ele>18.1</ele>
        <time>2026-08-20T13:07:52Z</time>
      </trkpt>
      <trkpt lat="47.64402" lon="-2.74933">
        <ele>17.8</ele>
        <time>2026-08-20T13:07:53Z</time>
      </trkpt>
      <trkpt lat="47.64404" lon="-2.74924">
        <ele>17.6</ele>
        <time>2026-08-20T13:07:54Z</time>
      </trkpt>
      <trkpt lat="47.64406" lon="-2.74915">
        <ele>17.4</ele>
        <time>2026-08-20T13:07:55Z</time>
      </trkpt>
      <trkpt lat="47.64408" lon="-2.74905">
        <ele>17.3</ele>
        <time>2026-08-20T13:07:56Z</time>
      </trkpt>
      <trkpt lat="47.64409" lon="-2.74896">
        <ele>17.3</ele>
        <time>2026-08-20T13:07:57Z</time>
      </trkpt>
      <trkpt lat="47.64411" lon="-2.74886">
        <ele>17.2</ele>
        <time>2026-08-20T13:07:58Z</time>
      </trkpt>
      <trkpt lat="47.64412" lon="-2.74877">
        <ele>17.1</ele>
        <time>2026-08-20T13:07:59Z</time>
      </trkpt>
      <trkpt lat="47.64413" lon="-2.74867">
        <ele>17</ele>
        <time>2026-08-20T13:08:00Z</time>
      </trkpt>
      <trkpt lat="47.64415" lon="-2.74857">
        <ele>17</ele>
        <time>2026-08-20T13:08:01Z</time>
      </trkpt>
      <trkpt lat="47.64416" lon="-2.74847">
        <ele>17</ele>
        <time>2026-08-20T13:08:02Z</time>
      </trkpt>
      <trkpt lat="47.64417" lon="-2.74837">
        <ele>17</ele>
        <time>2026-08-20T13:08:03Z</time>
      </trkpt>
      <trkpt lat="47.64417" lon="-2.74827">
        <ele>17</ele>
        <time>2026-08-20T13:08:04Z</time>
      </trkpt>
      <trkpt lat="47.64418" lon="-2.74816">
        <ele>17</ele>
        <time>2026-08-20T13:08:05Z</time>
      </trkpt>
      <trkpt lat="47.64419" lon="-2.74805">
        <ele>16.9</ele>
        <time>2026-08-20T13:08:06Z</time>
      </trkpt>
      <trkpt lat="47.64419" lon="-2.74795">
        <ele>16.9</ele>
        <time>2026-08-20T13:08:07Z</time>
      </trkpt>
      <trkpt lat="47.6442" lon="-2.74784">
        <ele>16.9</ele>
        <time>2026-08-20T13:08:08Z</time>
      </trkpt>
      <trkpt lat="47.6442" lon="-2.74773">
        <ele>16.9</ele>
        <time>2026-08-20T13:08:09Z</time>
      </trkpt>
      <trkpt lat="47.6442" lon="-2.74763">
        <ele>16.9</ele>
        <time>2026-08-20T13:08:10Z</time>
      </trkpt>
      <trkpt lat="47.6442" lon="-2.74752">
        <ele>17</ele>
        <time>2026-08-20T13:08:11Z</time>
      </trkpt>
      <trkpt lat="47.64421" lon="-2.74742">
        <ele>16.8</ele>
        <time>2026-08-20T13:08:12Z</time>
      </trkpt>
      <trkpt lat="47.64421" lon="-2.74731">
        <ele>16.4</ele>
        <time>2026-08-20T13:08:13Z</time>
      </trkpt>
      <trkpt lat="47.64422" lon="-2.7472">
        <ele>16.2</ele>
        <time>2026-08-20T13:08:14Z</time>
      </trkpt>
      <trkpt lat="47.64422" lon="-2.7471">
        <ele>16.2</ele>
        <time>2026-08-20T13:08:15Z</time>
      </trkpt>
      <trkpt lat="47.64422" lon="-2.74699">
        <ele>16.2</ele>
        <time>2026-08-20T13:08:16Z</time>
      </trkpt>
      <trkpt lat="47.64423" lon="-2.74689">
        <ele>16.2</ele>
        <time>2026-08-20T13:08:17Z</time>
      </trkpt>
      <trkpt lat="47.64423" lon="-2.74679">
        <ele>16.2</ele>
        <time>2026-08-20T13:08:18Z</time>
      </trkpt>
      <trkpt lat="47.64423" lon="-2.74668">
        <ele>16.2</ele>
        <time>2026-08-20T13:08:19Z</time>
      </trkpt>
      <trkpt lat="47.64424" lon="-2.74658">
        <ele>16.3</ele>
        <time>2026-08-20T13:08:20Z</time>
      </trkpt>
      <trkpt lat="47.64424" lon="-2.74648">
        <ele>16.3</ele>
        <time>2026-08-20T13:08:21Z</time>
      </trkpt>
      <trkpt lat="47.64424" lon="-2.74638">
        <ele>16.2</ele>
        <time>2026-08-20T13:08:22Z</time>
      </trkpt>
      <trkpt lat="47.64425" lon="-2.74628">
        <ele>16</ele>
        <time>2026-08-20T13:08:23Z</time>
      </trkpt>
      <trkpt lat="47.64425" lon="-2.74617">
        <ele>15.7</ele>
        <time>2026-08-20T13:08:24Z</time>
      </trkpt>
      <trkpt lat="47.64425" lon="-2.74607">
        <ele>15.6</ele>
        <time>2026-08-20T13:08:25Z</time>
      </trkpt>
      <trkpt lat="47.64426" lon="-2.74597">
        <ele>15.7</ele>
        <time>2026-08-20T13:08:26Z</time>
      </trkpt>
      <trkpt lat="47.64426" lon="-2.74586">
        <ele>15.7</ele>
        <time>2026-08-20T13:08:27Z</time>
      </trkpt>
      <trkpt lat="47.64427" lon="-2.74575">
        <ele>15.7</ele>
        <time>2026-08-20T13:08:28Z</time>
      </trkpt>
      <trkpt lat="47.64427" lon="-2.74564">
        <ele>15.7</ele>
        <time>2026-08-20T13:08:29Z</time>
      </trkpt>
      <trkpt lat="47.64427" lon="-2.74553">
        <ele>15.7</ele>
        <time>2026-08-20T13:08:30Z</time>
      </trkpt>
      <trkpt lat="47.64428" lon="-2.74543">
        <ele>15.5</ele>
        <time>2026-08-20T13:08:31Z</time>
      </trkpt>
      <trkpt lat="47.64428" lon="-2.74532">
        <ele>15.3</ele>
        <time>2026-08-20T13:08:32Z</time>
      </trkpt>
      <trkpt lat="47.64429" lon="-2.74521">
        <ele>15.3</ele>
        <time>2026-08-20T13:08:33Z</time>
      </trkpt>
      <trkpt lat="47.64429" lon="-2.7451">
        <ele>15.3</ele>
        <time>2026-08-20T13:08:34Z</time>
      </trkpt>
      <trkpt lat="47.6443" lon="-2.74499">
        <ele>15.4</ele>
        <time>2026-08-20T13:08:35Z</time>
      </trkpt>
      <trkpt lat="47.6443" lon="-2.74488">
        <ele>15.4</ele>
        <time>2026-08-20T13:08:36Z</time>
      </trkpt>
      <trkpt lat="47.64431" lon="-2.74477">
        <ele>15.5</ele>
        <time>2026-08-20T13:08:37Z</time>
      </trkpt>
      <trkpt lat="47.64431" lon="-2.74466">
        <ele>15.3</ele>
        <time>2026-08-20T13:08:38Z</time>
      </trkpt>
      <trkpt lat="47.64433" lon="-2.74455">
        <ele>15</ele>
        <time>2026-08-20T13:08:39Z</time>
      </trkpt>
      <trkpt lat="47.64435" lon="-2.74446">
        <ele>14.7</ele>
        <time>2026-08-20T13:08:40Z</time>
      </trkpt>
      <trkpt lat="47.64439" lon="-2.74437">
        <ele>14.4</ele>
        <time>2026-08-20T13:08:41Z</time>
      </trkpt>
      <trkpt lat="47.64443" lon="-2.74429">
        <ele>13.9</ele>
        <time>2026-08-20T13:08:42Z</time>
      </trkpt>
      <trkpt lat="47.64447" lon="-2.74422">
        <ele>13.8</ele>
        <time>2026-08-20T13:08:43Z</time>
      </trkpt>
      <trkpt lat="47.64451" lon="-2.74415">
        <ele>13.9</ele>
        <time>2026-08-20T13:08:44Z</time>
      </trkpt>
      <trkpt lat="47.64452" lon="-2.74409">
        <ele>13.9</ele>
        <time>2026-08-20T13:08:45Z</time>
      </trkpt>
      <trkpt lat="47.64452" lon="-2.74402">
        <ele>13.7</ele>
        <time>2026-08-20T13:08:46Z</time>
      </trkpt>
      <trkpt lat="47.64451" lon="-2.74396">
        <ele>13.4</ele>
        <time>2026-08-20T13:08:47Z</time>
      </trkpt>
      <trkpt lat="47.64451" lon="-2.74389">
        <ele>13.2</ele>
        <time>2026-08-20T13:08:48Z</time>
      </trkpt>
      <trkpt lat="47.64451" lon="-2.74383">
        <ele>13.3</ele>
        <time>2026-08-20T13:08:49Z</time>
      </trkpt>
      <trkpt lat="47.6445" lon="-2.74376">
        <ele>13.3</ele>
        <time>2026-08-20T13:08:50Z</time>
      </trkpt>
      <trkpt lat="47.64447" lon="-2.74371">
        <ele>13.2</ele>
        <time>2026-08-20T13:08:51Z</time>
      </trkpt>
      <trkpt lat="47.64444" lon="-2.74366">
        <ele>13</ele>
        <time>2026-08-20T13:08:52Z</time>
      </trkpt>
      <trkpt lat="47.64441" lon="-2.7436">
        <ele>13</ele>
        <time>2026-08-20T13:08:53Z</time>
      </trkpt>
      <trkpt lat="47.64439" lon="-2.74355">
        <ele>13.1</ele>
        <time>2026-08-20T13:08:54Z</time>
      </trkpt>
      <trkpt lat="47.64437" lon="-2.74347">
        <ele>13.2</ele>
        <time>2026-08-20T13:08:55Z</time>
      </trkpt>
      <trkpt lat="47.64436" lon="-2.7434">
        <ele>13.3</ele>
        <time>2026-08-20T13:08:56Z</time>
      </trkpt>
      <trkpt lat="47.64435" lon="-2.74332">
        <ele>13.3</ele>
        <time>2026-08-20T13:08:57Z</time>
      </trkpt>
      <trkpt lat="47.64435" lon="-2.74323">
        <ele>13.3</ele>
        <time>2026-08-20T13:08:58Z</time>
      </trkpt>
      <trkpt lat="47.64435" lon="-2.74314">
        <ele>13.3</ele>
        <time>2026-08-20T13:08:59Z</time>
      </trkpt>
      <trkpt lat="47.64435" lon="-2.74305">
        <ele>13.3</ele>
        <time>2026-08-20T13:09:00Z</time>
      </trkpt>
      <trkpt lat="47.64435" lon="-2.74296">
        <ele>13.1</ele>
        <time>2026-08-20T13:09:01Z</time>
      </trkpt>
      <trkpt lat="47.64434" lon="-2.74287">
        <ele>12.8</ele>
        <time>2026-08-20T13:09:02Z</time>
      </trkpt>
      <trkpt lat="47.64434" lon="-2.74278">
        <ele>12.6</ele>
        <time>2026-08-20T13:09:03Z</time>
      </trkpt>
      <trkpt lat="47.64434" lon="-2.74269">
        <ele>12.4</ele>
        <time>2026-08-20T13:09:04Z</time>
      </trkpt>
      <trkpt lat="47.64434" lon="-2.7426">
        <ele>12.2</ele>
        <time>2026-08-20T13:09:05Z</time>
      </trkpt>
      <trkpt lat="47.64434" lon="-2.7425">
        <ele>12</ele>
        <time>2026-08-20T13:09:06Z</time>
      </trkpt>
      <trkpt lat="47.64435" lon="-2.74241">
        <ele>11.9</ele>
        <time>2026-08-20T13:09:07Z</time>
      </trkpt>
      <trkpt lat="47.64435" lon="-2.74231">
        <ele>11.8</ele>
        <time>2026-08-20T13:09:08Z</time>
      </trkpt>
      <trkpt lat="47.64435" lon="-2.74221">
        <ele>11.6</ele>
        <time>2026-08-20T13:09:09Z</time>
      </trkpt>
      <trkpt lat="47.64435" lon="-2.74212">
        <ele>11.4</ele>
        <time>2026-08-20T13:09:10Z</time>
      </trkpt>
      <trkpt lat="47.64435" lon="-2.74202">
        <ele>11.2</ele>
        <time>2026-08-20T13:09:11Z</time>
      </trkpt>
      <trkpt lat="47.64435" lon="-2.74192">
        <ele>11</ele>
        <time>2026-08-20T13:09:12Z</time>
      </trkpt>
      <trkpt lat="47.64436" lon="-2.74182">
        <ele>11</ele>
        <time>2026-08-20T13:09:13Z</time>
      </trkpt>
      <trkpt lat="47.64436" lon="-2.74172">
        <ele>11</ele>
        <time>2026-08-20T13:09:14Z</time>
      </trkpt>
      <trkpt lat="47.64436" lon="-2.74162">
        <ele>10.8</ele>
        <time>2026-08-20T13:09:15Z</time>
      </trkpt>
      <trkpt lat="47.64435" lon="-2.74152">
        <ele>10.5</ele>
        <time>2026-08-20T13:09:16Z</time>
      </trkpt>
      <trkpt lat="47.64435" lon="-2.74141">
        <ele>10.1</ele>
        <time>2026-08-20T13:09:17Z</time>
      </trkpt>
      <trkpt lat="47.64435" lon="-2.74131">
        <ele>10</ele>
        <time>2026-08-20T13:09:18Z</time>
      </trkpt>
      <trkpt lat="47.64435" lon="-2.74121">
        <ele>10</ele>
        <time>2026-08-20T13:09:19Z</time>
      </trkpt>
      <trkpt lat="47.64434" lon="-2.74111">
        <ele>10</ele>
        <time>2026-08-20T13:09:20Z</time>
      </trkpt>
      <trkpt lat="47.64433" lon="-2.74102">
        <ele>10</ele>
        <time>2026-08-20T13:09:21Z</time>
      </trkpt>
      <trkpt lat="47.64433" lon="-2.74092">
        <ele>10</ele>
        <time>2026-08-20T13:09:22Z</time>
      </trkpt>
      <trkpt lat="47.64432" lon="-2.74082">
        <ele>10</ele>
        <time>2026-08-20T13:09:23Z</time>
      </trkpt>
      <trkpt lat="47.64431" lon="-2.74073">
        <ele>10</ele>
        <time>2026-08-20T13:09:24Z</time>
      </trkpt>
      <trkpt lat="47.6443" lon="-2.74063">
        <ele>10</ele>
        <time>2026-08-20T13:09:25Z</time>
      </trkpt>
      <trkpt lat="47.64429" lon="-2.74054">
        <ele>10</ele>
        <time>2026-08-20T13:09:26Z</time>
      </trkpt>
      <trkpt lat="47.64427" lon="-2.74045">
        <ele>10</ele>
        <time>2026-08-20T13:09:27Z</time>
      </trkpt>
      <trkpt lat="47.64426" lon="-2.74036">
        <ele>10</ele>
        <time>2026-08-20T13:09:28Z</time>
      </trkpt>
      <trkpt lat="47.64424" lon="-2.74027">
        <ele>10</ele>
        <time>2026-08-20T13:09:29Z</time>
      </trkpt>
      <trkpt lat="47.64423" lon="-2.74018">
        <ele>10</ele>
        <time>2026-08-20T13:09:30Z</time>
      </trkpt>
      <trkpt lat="47.64421" lon="-2.74009">
        <ele>10</ele>
        <time>2026-08-20T13:09:31Z</time>
      </trkpt>
      <trkpt lat="47.6442" lon="-2.74">
        <ele>10</ele>
        <time>2026-08-20T13:09:32Z</time>
      </trkpt>
      <trkpt lat="47.64418" lon="-2.73992">
        <ele>10</ele>
        <time>2026-08-20T13:09:33Z</time>
      </trkpt>
      <trkpt lat="47.64416" lon="-2.73984">
        <ele>10</ele>
        <time>2026-08-20T13:09:34Z</time>
      </trkpt>
      <trkpt lat="47.64414" lon="-2.73976">
        <ele>10</ele>
        <time>2026-08-20T13:09:35Z</time>
      </trkpt>
      <trkpt lat="47.64412" lon="-2.73967">
        <ele>10</ele>
        <time>2026-08-20T13:09:36Z</time>
      </trkpt>
      <trkpt lat="47.6441" lon="-2.73959">
        <ele>10</ele>
        <time>2026-08-20T13:09:37Z</time>
      </trkpt>
      <trkpt lat="47.64408" lon="-2.73951">
        <ele>10</ele>
        <time>2026-08-20T13:09:38Z</time>
      </trkpt>
      <trkpt lat="47.64406" lon="-2.73943">
        <ele>10</ele>
        <time>2026-08-20T13:09:39Z</time>
      </trkpt>
      <trkpt lat="47.64404" lon="-2.73935">
        <ele>10.2</ele>
        <time>2026-08-20T13:09:40Z</time>
      </trkpt>
      <trkpt lat="47.64401" lon="-2.73926">
        <ele>10.3</ele>
        <time>2026-08-20T13:09:41Z</time>
      </trkpt>
      <trkpt lat="47.64399" lon="-2.73918">
        <ele>10.3</ele>
        <time>2026-08-20T13:09:42Z</time>
      </trkpt>
      <trkpt lat="47.64396" lon="-2.7391">
        <ele>10.3</ele>
        <time>2026-08-20T13:09:43Z</time>
      </trkpt>
      <trkpt lat="47.64393" lon="-2.73902">
        <ele>10.1</ele>
        <time>2026-08-20T13:09:44Z</time>
      </trkpt>
      <trkpt lat="47.64391" lon="-2.73894">
        <ele>10.1</ele>
        <time>2026-08-20T13:09:45Z</time>
      </trkpt>
      <trkpt lat="47.64388" lon="-2.73886">
        <ele>10</ele>
        <time>2026-08-20T13:09:46Z</time>
      </trkpt>
      <trkpt lat="47.64384" lon="-2.73878">
        <ele>9.9</ele>
        <time>2026-08-20T13:09:47Z</time>
      </trkpt>
      <trkpt lat="47.64381" lon="-2.7387">
        <ele>9.8</ele>
        <time>2026-08-20T13:09:48Z</time>
      </trkpt>
      <trkpt lat="47.64378" lon="-2.73862">
        <ele>9.6</ele>
        <time>2026-08-20T13:09:49Z</time>
      </trkpt>
      <trkpt lat="47.64375" lon="-2.73854">
        <ele>9.5</ele>
        <time>2026-08-20T13:09:50Z</time>
      </trkpt>
      <trkpt lat="47.64372" lon="-2.73846">
        <ele>9.4</ele>
        <time>2026-08-20T13:09:51Z</time>
      </trkpt>
      <trkpt lat="47.64368" lon="-2.73839">
        <ele>9.2</ele>
        <time>2026-08-20T13:09:52Z</time>
      </trkpt>
      <trkpt lat="47.64365" lon="-2.73831">
        <ele>9.2</ele>
        <time>2026-08-20T13:09:53Z</time>
      </trkpt>
      <trkpt lat="47.64361" lon="-2.73823">
        <ele>9</ele>
        <time>2026-08-20T13:09:54Z</time>
      </trkpt>
      <trkpt lat="47.64358" lon="-2.73815">
        <ele>9</ele>
        <time>2026-08-20T13:09:55Z</time>
      </trkpt>
      <trkpt lat="47.64355" lon="-2.73807">
        <ele>9</ele>
        <time>2026-08-20T13:09:56Z</time>
      </trkpt>
      <trkpt lat="47.64351" lon="-2.73799">
        <ele>9</ele>
        <time>2026-08-20T13:09:57Z</time>
      </trkpt>
      <trkpt lat="47.64348" lon="-2.73791">
        <ele>9</ele>
        <time>2026-08-20T13:09:58Z</time>
      </trkpt>
      <trkpt lat="47.64344" lon="-2.73783">
        <ele>9</ele>
        <time>2026-08-20T13:09:59Z</time>
      </trkpt>
      <trkpt lat="47.64341" lon="-2.73775">
        <ele>8.9</ele>
        <time>2026-08-20T13:10:00Z</time>
      </trkpt>
      <trkpt lat="47.64338" lon="-2.73767">
        <ele>8.7</ele>
        <time>2026-08-20T13:10:01Z</time>
      </trkpt>
      <trkpt lat="47.64334" lon="-2.73759">
        <ele>8.3</ele>
        <time>2026-08-20T13:10:02Z</time>
      </trkpt>
      <trkpt lat="47.64331" lon="-2.73751">
        <ele>8</ele>
        <time>2026-08-20T13:10:03Z</time>
      </trkpt>
      <trkpt lat="47.64328" lon="-2.73743">
        <ele>8</ele>
        <time>2026-08-20T13:10:04Z</time>
      </trkpt>
      <trkpt lat="47.64324" lon="-2.73735">
        <ele>8</ele>
        <time>2026-08-20T13:10:05Z</time>
      </trkpt>
      <trkpt lat="47.64321" lon="-2.73727">
        <ele>8</ele>
        <time>2026-08-20T13:10:06Z</time>
      </trkpt>
      <trkpt lat="47.64317" lon="-2.73719">
        <ele>8</ele>
        <time>2026-08-20T13:10:07Z</time>
      </trkpt>
      <trkpt lat="47.64314" lon="-2.73711">
        <ele>8</ele>
        <time>2026-08-20T13:10:08Z</time>
      </trkpt>
      <trkpt lat="47.64311" lon="-2.73702">
        <ele>8</ele>
        <time>2026-08-20T13:10:09Z</time>
      </trkpt>
      <trkpt lat="47.64307" lon="-2.73694">
        <ele>8</ele>
        <time>2026-08-20T13:10:10Z</time>
      </trkpt>
      <trkpt lat="47.64303" lon="-2.73686">
        <ele>7.6</ele>
        <time>2026-08-20T13:10:11Z</time>
      </trkpt>
      <trkpt lat="47.643" lon="-2.73678">
        <ele>7.3</ele>
        <time>2026-08-20T13:10:12Z</time>
      </trkpt>
      <trkpt lat="47.64296" lon="-2.73669">
        <ele>7.1</ele>
        <time>2026-08-20T13:10:13Z</time>
      </trkpt>
      <trkpt lat="47.64293" lon="-2.73661">
        <ele>7</ele>
        <time>2026-08-20T13:10:14Z</time>
      </trkpt>
      <trkpt lat="47.64289" lon="-2.73652">
        <ele>7</ele>
        <time>2026-08-20T13:10:15Z</time>
      </trkpt>
      <trkpt lat="47.64286" lon="-2.73644">
        <ele>7</ele>
        <time>2026-08-20T13:10:16Z</time>
      </trkpt>
      <trkpt lat="47.64282" lon="-2.73636">
        <ele>7</ele>
        <time>2026-08-20T13:10:17Z</time>
      </trkpt>
      <trkpt lat="47.64279" lon="-2.73628">
        <ele>7</ele>
        <time>2026-08-20T13:10:18Z</time>
      </trkpt>
      <trkpt lat="47.64275" lon="-2.73619">
        <ele>7</ele>
        <time>2026-08-20T13:10:19Z</time>
      </trkpt>
      <trkpt lat="47.64271" lon="-2.73611">
        <ele>7</ele>
        <time>2026-08-20T13:10:20Z</time>
      </trkpt>
      <trkpt lat="47.64268" lon="-2.73603">
        <ele>7</ele>
        <time>2026-08-20T13:10:21Z</time>
      </trkpt>
      <trkpt lat="47.64265" lon="-2.73594">
        <ele>7</ele>
        <time>2026-08-20T13:10:22Z</time>
      </trkpt>
      <trkpt lat="47.64262" lon="-2.73585">
        <ele>7</ele>
        <time>2026-08-20T13:10:23Z</time>
      </trkpt>
      <trkpt lat="47.64259" lon="-2.73577">
        <ele>7</ele>
        <time>2026-08-20T13:10:24Z</time>
      </trkpt>
      <trkpt lat="47.64256" lon="-2.73568">
        <ele>7</ele>
        <time>2026-08-20T13:10:25Z</time>
      </trkpt>
      <trkpt lat="47.64253" lon="-2.7356">
        <ele>7</ele>
        <time>2026-08-20T13:10:26Z</time>
      </trkpt>
      <trkpt lat="47.6425" lon="-2.73551">
        <ele>7</ele>
        <time>2026-08-20T13:10:27Z</time>
      </trkpt>
      <trkpt lat="47.64248" lon="-2.73543">
        <ele>7</ele>
        <time>2026-08-20T13:10:28Z</time>
      </trkpt>
      <trkpt lat="47.64246" lon="-2.73534">
        <ele>7</ele>
        <time>2026-08-20T13:10:29Z</time>
      </trkpt>
      <trkpt lat="47.64243" lon="-2.73526">
        <ele>7</ele>
        <time>2026-08-20T13:10:30Z</time>
      </trkpt>
      <trkpt lat="47.64241" lon="-2.73518">
        <ele>6.8</ele>
        <time>2026-08-20T13:10:31Z</time>
      </trkpt>
      <trkpt lat="47.64239" lon="-2.73509">
        <ele>6.6</ele>
        <time>2026-08-20T13:10:32Z</time>
      </trkpt>
      <trkpt lat="47.64237" lon="-2.73501">
        <ele>6.5</ele>
        <time>2026-08-20T13:10:33Z</time>
      </trkpt>
      <trkpt lat="47.64235" lon="-2.73492">
        <ele>6.5</ele>
        <time>2026-08-20T13:10:34Z</time>
      </trkpt>
      <trkpt lat="47.64233" lon="-2.73484">
        <ele>6.6</ele>
        <time>2026-08-20T13:10:35Z</time>
      </trkpt>
      <trkpt lat="47.64232" lon="-2.73475">
        <ele>6.6</ele>
        <time>2026-08-20T13:10:36Z</time>
      </trkpt>
      <trkpt lat="47.6423" lon="-2.73467">
        <ele>6.8</ele>
        <time>2026-08-20T13:10:37Z</time>
      </trkpt>
      <trkpt lat="47.64229" lon="-2.73459">
        <ele>6.9</ele>
        <time>2026-08-20T13:10:38Z</time>
      </trkpt>
      <trkpt lat="47.64227" lon="-2.7345">
        <ele>7</ele>
        <time>2026-08-20T13:10:39Z</time>
      </trkpt>
      <trkpt lat="47.64226" lon="-2.73442">
        <ele>7</ele>
        <time>2026-08-20T13:10:40Z</time>
      </trkpt>
      <trkpt lat="47.64225" lon="-2.73433">
        <ele>7</ele>
        <time>2026-08-20T13:10:41Z</time>
      </trkpt>
      <trkpt lat="47.64224" lon="-2.73425">
        <ele>7</ele>
        <time>2026-08-20T13:10:42Z</time>
      </trkpt>
      <trkpt lat="47.64223" lon="-2.73417">
        <ele>7</ele>
        <time>2026-08-20T13:10:43Z</time>
      </trkpt>
      <trkpt lat="47.64222" lon="-2.73409">
        <ele>7.3</ele>
        <time>2026-08-20T13:10:44Z</time>
      </trkpt>
      <trkpt lat="47.64221" lon="-2.73402">
        <ele>7.5</ele>
        <time>2026-08-20T13:10:45Z</time>
      </trkpt>
      <trkpt lat="47.6422" lon="-2.73394">
        <ele>7.8</ele>
        <time>2026-08-20T13:10:46Z</time>
      </trkpt>
      <trkpt lat="47.6422" lon="-2.73386">
        <ele>7.9</ele>
        <time>2026-08-20T13:10:47Z</time>
      </trkpt>
      <trkpt lat="47.64219" lon="-2.73378">
        <ele>7.9</ele>
        <time>2026-08-20T13:10:48Z</time>
      </trkpt>
      <trkpt lat="47.64219" lon="-2.7337">
        <ele>7.9</ele>
        <time>2026-08-20T13:10:49Z</time>
      </trkpt>
      <trkpt lat="47.64218" lon="-2.73362">
        <ele>7.8</ele>
        <time>2026-08-20T13:10:50Z</time>
      </trkpt>
      <trkpt lat="47.64218" lon="-2.73354">
        <ele>7.9</ele>
        <time>2026-08-20T13:10:51Z</time>
      </trkpt>
      <trkpt lat="47.64218" lon="-2.73346">
        <ele>7.9</ele>
        <time>2026-08-20T13:10:52Z</time>
      </trkpt>
      <trkpt lat="47.64218" lon="-2.73339">
        <ele>8</ele>
        <time>2026-08-20T13:10:53Z</time>
      </trkpt>
      <trkpt lat="47.64218" lon="-2.73331">
        <ele>8</ele>
        <time>2026-08-20T13:10:54Z</time>
      </trkpt>
      <trkpt lat="47.64218" lon="-2.73323">
        <ele>7.9</ele>
        <time>2026-08-20T13:10:55Z</time>
      </trkpt>
      <trkpt lat="47.64218" lon="-2.73315">
        <ele>7.9</ele>
        <time>2026-08-20T13:10:56Z</time>
      </trkpt>
      <trkpt lat="47.64218" lon="-2.73307">
        <ele>7.9</ele>
        <time>2026-08-20T13:10:57Z</time>
      </trkpt>
      <trkpt lat="47.64218" lon="-2.73299">
        <ele>7.8</ele>
        <time>2026-08-20T13:10:58Z</time>
      </trkpt>
      <trkpt lat="47.64218" lon="-2.73291">
        <ele>7.8</ele>
        <time>2026-08-20T13:10:59Z</time>
      </trkpt>
      <trkpt lat="47.64219" lon="-2.73283">
        <ele>7.9</ele>
        <time>2026-08-20T13:11:00Z</time>
      </trkpt>
      <trkpt lat="47.64219" lon="-2.73275">
        <ele>7.9</ele>
        <time>2026-08-20T13:11:01Z</time>
      </trkpt>
      <trkpt lat="47.6422" lon="-2.73267">
        <ele>7.9</ele>
        <time>2026-08-20T13:11:02Z</time>
      </trkpt>
      <trkpt lat="47.6422" lon="-2.73259">
        <ele>7.9</ele>
        <time>2026-08-20T13:11:03Z</time>
      </trkpt>
      <trkpt lat="47.64221" lon="-2.73251">
        <ele>8</ele>
        <time>2026-08-20T13:11:04Z</time>
      </trkpt>
      <trkpt lat="47.64222" lon="-2.73243">
        <ele>8.2</ele>
        <time>2026-08-20T13:11:05Z</time>
      </trkpt>
      <trkpt lat="47.64223" lon="-2.73235">
        <ele>8.6</ele>
        <time>2026-08-20T13:11:06Z</time>
      </trkpt>
      <trkpt lat="47.64224" lon="-2.73228">
        <ele>8.8</ele>
        <time>2026-08-20T13:11:07Z</time>
      </trkpt>
      <trkpt lat="47.64225" lon="-2.7322">
        <ele>9</ele>
        <time>2026-08-20T13:11:08Z</time>
      </trkpt>
      <trkpt lat="47.64226" lon="-2.73213">
        <ele>9.1</ele>
        <time>2026-08-20T13:11:09Z</time>
      </trkpt>
      <trkpt lat="47.64227" lon="-2.73205">
        <ele>9.2</ele>
        <time>2026-08-20T13:11:10Z</time>
      </trkpt>
      <trkpt lat="47.64228" lon="-2.73197">
        <ele>9.4</ele>
        <time>2026-08-20T13:11:11Z</time>
      </trkpt>
      <trkpt lat="47.64229" lon="-2.7319">
        <ele>9.4</ele>
        <time>2026-08-20T13:11:12Z</time>
      </trkpt>
      <trkpt lat="47.6423" lon="-2.73182">
        <ele>9.3</ele>
        <time>2026-08-20T13:11:13Z</time>
      </trkpt>
      <trkpt lat="47.64231" lon="-2.73175">
        <ele>9.2</ele>
        <time>2026-08-20T13:11:14Z</time>
      </trkpt>
      <trkpt lat="47.64232" lon="-2.73168">
        <ele>9</ele>
        <time>2026-08-20T13:11:15Z</time>
      </trkpt>
      <trkpt lat="47.64233" lon="-2.73161">
        <ele>9.1</ele>
        <time>2026-08-20T13:11:16Z</time>
      </trkpt>
      <trkpt lat="47.64235" lon="-2.73155">
        <ele>9.2</ele>
        <time>2026-08-20T13:11:17Z</time>
      </trkpt>
      <trkpt lat="47.64237" lon="-2.73149">
        <ele>9.3</ele>
        <time>2026-08-20T13:11:18Z</time>
      </trkpt>
      <trkpt lat="47.6424" lon="-2.73143">
        <ele>9.5</ele>
        <time>2026-08-20T13:11:19Z</time>
      </trkpt>
      <trkpt lat="47.64244" lon="-2.73139">
        <ele>9.8</ele>
        <time>2026-08-20T13:11:20Z</time>
      </trkpt>
      <trkpt lat="47.64247" lon="-2.73134">
        <ele>9.9</ele>
        <time>2026-08-20T13:11:21Z</time>
      </trkpt>
      <trkpt lat="47.6425" lon="-2.73129">
        <ele>10</ele>
        <time>2026-08-20T13:11:22Z</time>
      </trkpt>
      <trkpt lat="47.64252" lon="-2.73124">
        <ele>10.1</ele>
        <time>2026-08-20T13:11:23Z</time>
      </trkpt>
      <trkpt lat="47.64252" lon="-2.73117">
        <ele>10.1</ele>
        <time>2026-08-20T13:11:24Z</time>
      </trkpt>
      <trkpt lat="47.64252" lon="-2.73111">
        <ele>10.1</ele>
        <time>2026-08-20T13:11:25Z</time>
      </trkpt>
      <trkpt lat="47.64252" lon="-2.73105">
        <ele>10.5</ele>
        <time>2026-08-20T13:11:26Z</time>
      </trkpt>
      <trkpt lat="47.6425" lon="-2.731">
        <ele>10.8</ele>
        <time>2026-08-20T13:11:27Z</time>
      </trkpt>
      <trkpt lat="47.64247" lon="-2.73096">
        <ele>10.9</ele>
        <time>2026-08-20T13:11:28Z</time>
      </trkpt>
      <trkpt lat="47.64245" lon="-2.73091">
        <ele>11</ele>
        <time>2026-08-20T13:11:29Z</time>
      </trkpt>
      <trkpt lat="47.64244" lon="-2.73084">
        <ele>11.3</ele>
        <time>2026-08-20T13:11:30Z</time>
      </trkpt>
      <trkpt lat="47.64245" lon="-2.73078">
        <ele>11.4</ele>
        <time>2026-08-20T13:11:31Z</time>
      </trkpt>
      <trkpt lat="47.64246" lon="-2.73072">
        <ele>11.3</ele>
        <time>2026-08-20T13:11:32Z</time>
      </trkpt>
      <trkpt lat="47.64247" lon="-2.73066">
        <ele>11.3</ele>
        <time>2026-08-20T13:11:33Z</time>
      </trkpt>
      <trkpt lat="47.64248" lon="-2.7306">
        <ele>11.1</ele>
        <time>2026-08-20T13:11:34Z</time>
      </trkpt>
      <trkpt lat="47.64249" lon="-2.73055">
        <ele>11</ele>
        <time>2026-08-20T13:11:35Z</time>
      </trkpt>
      <trkpt lat="47.6425" lon="-2.73049">
        <ele>11</ele>
        <time>2026-08-20T13:11:36Z</time>
      </trkpt>
      <trkpt lat="47.6425" lon="-2.73043">
        <ele>11</ele>
        <time>2026-08-20T13:11:37Z</time>
      </trkpt>
      <trkpt lat="47.64251" lon="-2.73037">
        <ele>11.1</ele>
        <time>2026-08-20T13:11:38Z</time>
      </trkpt>
      <trkpt lat="47.64252" lon="-2.73031">
        <ele>11.1</ele>
        <time>2026-08-20T13:11:39Z</time>
      </trkpt>
      <trkpt lat="47.64253" lon="-2.73024">
        <ele>11.1</ele>
        <time>2026-08-20T13:11:40Z</time>
      </trkpt>
      <trkpt lat="47.64254" lon="-2.73017">
        <ele>10.9</ele>
        <time>2026-08-20T13:11:41Z</time>
      </trkpt>
      <trkpt lat="47.64254" lon="-2.73011">
        <ele>10.7</ele>
        <time>2026-08-20T13:11:42Z</time>
      </trkpt>
      <trkpt lat="47.64255" lon="-2.73004">
        <ele>10.5</ele>
        <time>2026-08-20T13:11:43Z</time>
      </trkpt>
      <trkpt lat="47.64256" lon="-2.72996">
        <ele>10.4</ele>
        <time>2026-08-20T13:11:44Z</time>
      </trkpt>
      <trkpt lat="47.64257" lon="-2.72989">
        <ele>10.5</ele>
        <time>2026-08-20T13:11:45Z</time>
      </trkpt>
      <trkpt lat="47.64257" lon="-2.72982">
        <ele>10.5</ele>
        <time>2026-08-20T13:11:46Z</time>
      </trkpt>
      <trkpt lat="47.64258" lon="-2.72974">
        <ele>10.6</ele>
        <time>2026-08-20T13:11:47Z</time>
      </trkpt>
      <trkpt lat="47.64259" lon="-2.72967">
        <ele>10.6</ele>
        <time>2026-08-20T13:11:48Z</time>
      </trkpt>
      <trkpt lat="47.6426" lon="-2.72959">
        <ele>10.5</ele>
        <time>2026-08-20T13:11:49Z</time>
      </trkpt>
      <trkpt lat="47.64261" lon="-2.72951">
        <ele>10.5</ele>
        <time>2026-08-20T13:11:50Z</time>
      </trkpt>
      <trkpt lat="47.64262" lon="-2.72943">
        <ele>10.4</ele>
        <time>2026-08-20T13:11:51Z</time>
      </trkpt>
      <trkpt lat="47.64263" lon="-2.72935">
        <ele>10.5</ele>
        <time>2026-08-20T13:11:52Z</time>
      </trkpt>
      <trkpt lat="47.64264" lon="-2.72926">
        <ele>10.5</ele>
        <time>2026-08-20T13:11:53Z</time>
      </trkpt>
      <trkpt lat="47.64264" lon="-2.72918">
        <ele>10.5</ele>
        <time>2026-08-20T13:11:54Z</time>
      </trkpt>
      <trkpt lat="47.64265" lon="-2.7291">
        <ele>10.4</ele>
        <time>2026-08-20T13:11:55Z</time>
      </trkpt>
      <trkpt lat="47.64266" lon="-2.72901">
        <ele>10.3</ele>
        <time>2026-08-20T13:11:56Z</time>
      </trkpt>
      <trkpt lat="47.64267" lon="-2.72893">
        <ele>10.1</ele>
        <time>2026-08-20T13:11:57Z</time>
      </trkpt>
      <trkpt lat="47.64268" lon="-2.72885">
        <ele>10</ele>
        <time>2026-08-20T13:11:58Z</time>
      </trkpt>
      <trkpt lat="47.64269" lon="-2.72876">
        <ele>9.9</ele>
        <time>2026-08-20T13:11:59Z</time>
      </trkpt>
      <trkpt lat="47.64271" lon="-2.72868">
        <ele>9.8</ele>
        <time>2026-08-20T13:12:00Z</time>
      </trkpt>
      <trkpt lat="47.64272" lon="-2.7286">
        <ele>9.8</ele>
        <time>2026-08-20T13:12:01Z</time>
      </trkpt>
      <trkpt lat="47.64273" lon="-2.72851">
        <ele>9.8</ele>
        <time>2026-08-20T13:12:02Z</time>
      </trkpt>
      <trkpt lat="47.64274" lon="-2.72843">
        <ele>9.9</ele>
        <time>2026-08-20T13:12:03Z</time>
      </trkpt>
      <trkpt lat="47.64275" lon="-2.72835">
        <ele>9.9</ele>
        <time>2026-08-20T13:12:04Z</time>
      </trkpt>
      <trkpt lat="47.64276" lon="-2.72826">
        <ele>9.9</ele>
        <time>2026-08-20T13:12:05Z</time>
      </trkpt>
      <trkpt lat="47.64277" lon="-2.72818">
        <ele>10</ele>
        <time>2026-08-20T13:12:06Z</time>
      </trkpt>
      <trkpt lat="47.64278" lon="-2.7281">
        <ele>10</ele>
        <time>2026-08-20T13:12:07Z</time>
      </trkpt>
      <trkpt lat="47.64279" lon="-2.72802">
        <ele>10.1</ele>
        <time>2026-08-20T13:12:08Z</time>
      </trkpt>
      <trkpt lat="47.6428" lon="-2.72794">
        <ele>10.4</ele>
        <time>2026-08-20T13:12:09Z</time>
      </trkpt>
      <trkpt lat="47.64282" lon="-2.72786">
        <ele>10.6</ele>
        <time>2026-08-20T13:12:10Z</time>
      </trkpt>
      <trkpt lat="47.64283" lon="-2.72777">
        <ele>10.8</ele>
        <time>2026-08-20T13:12:11Z</time>
      </trkpt>
      <trkpt lat="47.64284" lon="-2.7277">
        <ele>10.7</ele>
        <time>2026-08-20T13:12:12Z</time>
      </trkpt>
      <trkpt lat="47.64285" lon="-2.72762">
        <ele>10.6</ele>
        <time>2026-08-20T13:12:13Z</time>
      </trkpt>
      <trkpt lat="47.64286" lon="-2.72754">
        <ele>10.5</ele>
        <time>2026-08-20T13:12:14Z</time>
      </trkpt>
      <trkpt lat="47.64287" lon="-2.72746">
        <ele>10.4</ele>
        <time>2026-08-20T13:12:15Z</time>
      </trkpt>
      <trkpt lat="47.64288" lon="-2.72738">
        <ele>10.6</ele>
        <time>2026-08-20T13:12:16Z</time>
      </trkpt>
      <trkpt lat="47.64289" lon="-2.7273">
        <ele>10.8</ele>
        <time>2026-08-20T13:12:17Z</time>
      </trkpt>
      <trkpt lat="47.6429" lon="-2.72723">
        <ele>11</ele>
        <time>2026-08-20T13:12:18Z</time>
      </trkpt>
      <trkpt lat="47.64291" lon="-2.72715">
        <ele>11.3</ele>
        <time>2026-08-20T13:12:19Z</time>
      </trkpt>
      <trkpt lat="47.64291" lon="-2.72708">
        <ele>11.5</ele>
        <time>2026-08-20T13:12:20Z</time>
      </trkpt>
      <trkpt lat="47.64292" lon="-2.727">
        <ele>11.8</ele>
        <time>2026-08-20T13:12:21Z</time>
      </trkpt>
      <trkpt lat="47.64292" lon="-2.72693">
        <ele>12</ele>
        <time>2026-08-20T13:12:22Z</time>
      </trkpt>
      <trkpt lat="47.64293" lon="-2.72685">
        <ele>12</ele>
        <time>2026-08-20T13:12:23Z</time>
      </trkpt>
      <trkpt lat="47.64293" lon="-2.72678">
        <ele>12</ele>
        <time>2026-08-20T13:12:24Z</time>
      </trkpt>
      <trkpt lat="47.64294" lon="-2.7267">
        <ele>12</ele>
        <time>2026-08-20T13:12:25Z</time>
      </trkpt>
      <trkpt lat="47.64295" lon="-2.72662">
        <ele>12.1</ele>
        <time>2026-08-20T13:12:26Z</time>
      </trkpt>
      <trkpt lat="47.64295" lon="-2.72654">
        <ele>12.2</ele>
        <time>2026-08-20T13:12:27Z</time>
      </trkpt>
      <trkpt lat="47.64296" lon="-2.72646">
        <ele>12.3</ele>
        <time>2026-08-20T13:12:28Z</time>
      </trkpt>
      <trkpt lat="47.64296" lon="-2.72639">
        <ele>12.3</ele>
        <time>2026-08-20T13:12:29Z</time>
      </trkpt>
      <trkpt lat="47.64296" lon="-2.72631">
        <ele>12.3</ele>
        <time>2026-08-20T13:12:30Z</time>
      </trkpt>
      <trkpt lat="47.64297" lon="-2.72623">
        <ele>12.3</ele>
        <time>2026-08-20T13:12:31Z</time>
      </trkpt>
      <trkpt lat="47.64297" lon="-2.72615">
        <ele>12.3</ele>
        <time>2026-08-20T13:12:32Z</time>
      </trkpt>
      <trkpt lat="47.64298" lon="-2.72607">
        <ele>12.3</ele>
        <time>2026-08-20T13:12:33Z</time>
      </trkpt>
      <trkpt lat="47.64298" lon="-2.72599">
        <ele>12.3</ele>
        <time>2026-08-20T13:12:34Z</time>
      </trkpt>
      <trkpt lat="47.64299" lon="-2.72591">
        <ele>12.2</ele>
        <time>2026-08-20T13:12:35Z</time>
      </trkpt>
      <trkpt lat="47.64299" lon="-2.72584">
        <ele>12.2</ele>
        <time>2026-08-20T13:12:36Z</time>
      </trkpt>
      <trkpt lat="47.643" lon="-2.72577">
        <ele>12.2</ele>
        <time>2026-08-20T13:12:37Z</time>
      </trkpt>
      <trkpt lat="47.643" lon="-2.7257">
        <ele>12.2</ele>
        <time>2026-08-20T13:12:38Z</time>
      </trkpt>
      <trkpt lat="47.64302" lon="-2.72563">
        <ele>12.1</ele>
        <time>2026-08-20T13:12:39Z</time>
      </trkpt>
      <trkpt lat="47.64303" lon="-2.72557">
        <ele>12.1</ele>
        <time>2026-08-20T13:12:40Z</time>
      </trkpt>
      <trkpt lat="47.64303" lon="-2.7255">
        <ele>12.1</ele>
        <time>2026-08-20T13:12:41Z</time>
      </trkpt>
      <trkpt lat="47.64304" lon="-2.72543">
        <ele>12</ele>
        <time>2026-08-20T13:12:42Z</time>
      </trkpt>
      <trkpt lat="47.64304" lon="-2.72536">
        <ele>12</ele>
        <time>2026-08-20T13:12:43Z</time>
      </trkpt>
      <trkpt lat="47.64305" lon="-2.72529">
        <ele>12</ele>
        <time>2026-08-20T13:12:44Z</time>
      </trkpt>
      <trkpt lat="47.64306" lon="-2.72522">
        <ele>12</ele>
        <time>2026-08-20T13:12:45Z</time>
      </trkpt>
      <trkpt lat="47.64307" lon="-2.72515">
        <ele>12</ele>
        <time>2026-08-20T13:12:46Z</time>
      </trkpt>
      <trkpt lat="47.64311" lon="-2.7251">
        <ele>12</ele>
        <time>2026-08-20T13:12:47Z</time>
      </trkpt>
      <trkpt lat="47.64315" lon="-2.72507">
        <ele>12</ele>
        <time>2026-08-20T13:12:48Z</time>
      </trkpt>
      <trkpt lat="47.6432" lon="-2.72505">
        <ele>12</ele>
        <time>2026-08-20T13:12:49Z</time>
      </trkpt>
      <trkpt lat="47.64324" lon="-2.72503">
        <ele>12</ele>
        <time>2026-08-20T13:12:50Z</time>
      </trkpt>
      <trkpt lat="47.64327" lon="-2.72499">
        <ele>12</ele>
        <time>2026-08-20T13:12:51Z</time>
      </trkpt>
      <trkpt lat="47.64327" lon="-2.72495">
        <ele>12</ele>
        <time>2026-08-20T13:12:52Z</time>
      </trkpt>
      <trkpt lat="47.64326" lon="-2.72491">
        <ele>12.1</ele>
        <time>2026-08-20T13:12:53Z</time>
      </trkpt>
      <trkpt lat="47.64324" lon="-2.7249">
        <ele>12.1</ele>
        <time>2026-08-20T13:12:54Z</time>
      </trkpt>
      <trkpt lat="47.64321" lon="-2.7249">
        <ele>12.2</ele>
        <time>2026-08-20T13:12:55Z</time>
      </trkpt>
      <trkpt lat="47.64317" lon="-2.7249">
        <ele>12.2</ele>
        <time>2026-08-20T13:12:56Z</time>
      </trkpt>
      <trkpt lat="47.64313" lon="-2.72489">
        <ele>12.3</ele>
        <time>2026-08-20T13:12:57Z</time>
      </trkpt>
      <trkpt lat="47.6431" lon="-2.72487">
        <ele>12.4</ele>
        <time>2026-08-20T13:12:58Z</time>
      </trkpt>
      <trkpt lat="47.64306" lon="-2.72484">
        <ele>12.6</ele>
        <time>2026-08-20T13:12:59Z</time>
      </trkpt>
      <trkpt lat="47.64304" lon="-2.72479">
        <ele>12.8</ele>
        <time>2026-08-20T13:13:00Z</time>
      </trkpt>
      <trkpt lat="47.64302" lon="-2.72473">
        <ele>13</ele>
        <time>2026-08-20T13:13:01Z</time>
      </trkpt>
      <trkpt lat="47.64301" lon="-2.72467">
        <ele>13</ele>
        <time>2026-08-20T13:13:02Z</time>
      </trkpt>
      <trkpt lat="47.643" lon="-2.7246">
        <ele>13</ele>
        <time>2026-08-20T13:13:03Z</time>
      </trkpt>
      <trkpt lat="47.643" lon="-2.72453">
        <ele>13</ele>
        <time>2026-08-20T13:13:04Z</time>
      </trkpt>
      <trkpt lat="47.643" lon="-2.72446">
        <ele>13</ele>
        <time>2026-08-20T13:13:05Z</time>
      </trkpt>
      <trkpt lat="47.643" lon="-2.7244">
        <ele>13</ele>
        <time>2026-08-20T13:13:06Z</time>
      </trkpt>
      <trkpt lat="47.64299" lon="-2.72433">
        <ele>13</ele>
        <time>2026-08-20T13:13:07Z</time>
      </trkpt>
      <trkpt lat="47.64299" lon="-2.72426">
        <ele>13</ele>
        <time>2026-08-20T13:13:08Z</time>
      </trkpt>
      <trkpt lat="47.64299" lon="-2.72419">
        <ele>13</ele>
        <time>2026-08-20T13:13:09Z</time>
      </trkpt>
      <trkpt lat="47.64299" lon="-2.72412">
        <ele>13</ele>
        <time>2026-08-20T13:13:10Z</time>
      </trkpt>
      <trkpt lat="47.64298" lon="-2.72405">
        <ele>13</ele>
        <time>2026-08-20T13:13:11Z</time>
      </trkpt>
      <trkpt lat="47.64298" lon="-2.72398">
        <ele>13</ele>
        <time>2026-08-20T13:13:12Z</time>
      </trkpt>
      <trkpt lat="47.64298" lon="-2.7239">
        <ele>13</ele>
        <time>2026-08-20T13:13:13Z</time>
      </trkpt>
      <trkpt lat="47.64298" lon="-2.72383">
        <ele>13</ele>
        <time>2026-08-20T13:13:14Z</time>
      </trkpt>
      <trkpt lat="47.64298" lon="-2.72375">
        <ele>13</ele>
        <time>2026-08-20T13:13:15Z</time>
      </trkpt>
      <trkpt lat="47.64297" lon="-2.72368">
        <ele>13</ele>
        <time>2026-08-20T13:13:16Z</time>
      </trkpt>
      <trkpt lat="47.64297" lon="-2.7236">
        <ele>13</ele>
        <time>2026-08-20T13:13:17Z</time>
      </trkpt>
      <trkpt lat="47.64297" lon="-2.72353">
        <ele>12.8</ele>
        <time>2026-08-20T13:13:18Z</time>
      </trkpt>
      <trkpt lat="47.64296" lon="-2.72345">
        <ele>12.6</ele>
        <time>2026-08-20T13:13:19Z</time>
      </trkpt>
      <trkpt lat="47.64296" lon="-2.72338">
        <ele>12.5</ele>
        <time>2026-08-20T13:13:20Z</time>
      </trkpt>
      <trkpt lat="47.64296" lon="-2.7233">
        <ele>12.4</ele>
        <time>2026-08-20T13:13:21Z</time>
      </trkpt>
      <trkpt lat="47.64295" lon="-2.72323">
        <ele>12.6</ele>
        <time>2026-08-20T13:13:22Z</time>
      </trkpt>
      <trkpt lat="47.64295" lon="-2.72315">
        <ele>12.8</ele>
        <time>2026-08-20T13:13:23Z</time>
      </trkpt>
      <trkpt lat="47.64295" lon="-2.72307">
        <ele>13</ele>
        <time>2026-08-20T13:13:24Z</time>
      </trkpt>
      <trkpt lat="47.64295" lon="-2.723">
        <ele>12.9</ele>
        <time>2026-08-20T13:13:25Z</time>
      </trkpt>
      <trkpt lat="47.64294" lon="-2.72293">
        <ele>12.7</ele>
        <time>2026-08-20T13:13:26Z</time>
      </trkpt>
      <trkpt lat="47.64294" lon="-2.72286">
        <ele>12.6</ele>
        <time>2026-08-20T13:13:27Z</time>
      </trkpt>
      <trkpt lat="47.64293" lon="-2.72279">
        <ele>12.5</ele>
        <time>2026-08-20T13:13:28Z</time>
      </trkpt>
      <trkpt lat="47.64293" lon="-2.72272">
        <ele>12.5</ele>
        <time>2026-08-20T13:13:29Z</time>
      </trkpt>
      <trkpt lat="47.64292" lon="-2.72265">
        <ele>12.5</ele>
        <time>2026-08-20T13:13:30Z</time>
      </trkpt>
      <trkpt lat="47.64291" lon="-2.72258">
        <ele>12.5</ele>
        <time>2026-08-20T13:13:31Z</time>
      </trkpt>
      <trkpt lat="47.6429" lon="-2.72251">
        <ele>12.4</ele>
        <time>2026-08-20T13:13:32Z</time>
      </trkpt>
      <trkpt lat="47.64291" lon="-2.72245">
        <ele>12.4</ele>
        <time>2026-08-20T13:13:33Z</time>
      </trkpt>
      <trkpt lat="47.64292" lon="-2.72238">
        <ele>12.3</ele>
        <time>2026-08-20T13:13:34Z</time>
      </trkpt>
      <trkpt lat="47.64295" lon="-2.72232">
        <ele>12.2</ele>
        <time>2026-08-20T13:13:35Z</time>
      </trkpt>
      <trkpt lat="47.64297" lon="-2.72227">
        <ele>12.1</ele>
        <time>2026-08-20T13:13:36Z</time>
      </trkpt>
      <trkpt lat="47.643" lon="-2.72223">
        <ele>12</ele>
        <time>2026-08-20T13:13:37Z</time>
      </trkpt>
      <trkpt lat="47.64304" lon="-2.72219">
        <ele>12.1</ele>
        <time>2026-08-20T13:13:38Z</time>
      </trkpt>
      <trkpt lat="47.64307" lon="-2.72215">
        <ele>12.3</ele>
        <time>2026-08-20T13:13:39Z</time>
      </trkpt>
      <trkpt lat="47.64309" lon="-2.72211">
        <ele>12.4</ele>
        <time>2026-08-20T13:13:40Z</time>
      </trkpt>
      <trkpt lat="47.64312" lon="-2.72208">
        <ele>12.5</ele>
        <time>2026-08-20T13:13:41Z</time>
      </trkpt>
      <trkpt lat="47.64315" lon="-2.72206">
        <ele>12.6</ele>
        <time>2026-08-20T13:13:42Z</time>
      </trkpt>
      <trkpt lat="47.64318" lon="-2.72204">
        <ele>12.7</ele>
        <time>2026-08-20T13:13:43Z</time>
      </trkpt>
      <trkpt lat="47.6432" lon="-2.72203">
        <ele>12.7</ele>
        <time>2026-08-20T13:13:44Z</time>
      </trkpt>
      <trkpt lat="47.64321" lon="-2.72202">
        <ele>12.7</ele>
        <time>2026-08-20T13:13:45Z</time>
      </trkpt>
      <trkpt lat="47.64322" lon="-2.72202">
        <ele>12.7</ele>
        <time>2026-08-20T13:13:46Z</time>
      </trkpt>
      <trkpt lat="47.64322" lon="-2.72201">
        <ele>12.8</ele>
        <time>2026-08-20T13:13:47Z</time>
      </trkpt>
      <trkpt lat="47.64322" lon="-2.72201">
        <ele>12.8</ele>
        <time>2026-08-20T13:13:48Z</time>
      </trkpt>
      <trkpt lat="47.64322" lon="-2.72193">
        <ele>13</ele>
        <time>2026-08-20T13:13:51Z</time>
      </trkpt>
      <trkpt lat="47.64321" lon="-2.72189">
        <ele>12.9</ele>
        <time>2026-08-20T13:13:52Z</time>
      </trkpt>
      <trkpt lat="47.64321" lon="-2.72184">
        <ele>12.8</ele>
        <time>2026-08-20T13:13:53Z</time>
      </trkpt>
      <trkpt lat="47.64322" lon="-2.7218">
        <ele>12.8</ele>
        <time>2026-08-20T13:13:54Z</time>
      </trkpt>
      <trkpt lat="47.64322" lon="-2.72175">
        <ele>12.7</ele>
        <time>2026-08-20T13:13:55Z</time>
      </trkpt>
      <trkpt lat="47.64321" lon="-2.72171">
        <ele>12.6</ele>
        <time>2026-08-20T13:13:56Z</time>
      </trkpt>
      <trkpt lat="47.64318" lon="-2.72167">
        <ele>12.5</ele>
        <time>2026-08-20T13:13:57Z</time>
      </trkpt>
      <trkpt lat="47.64316" lon="-2.72162">
        <ele>12.4</ele>
        <time>2026-08-20T13:13:58Z</time>
      </trkpt>
      <trkpt lat="47.64314" lon="-2.72157">
        <ele>12.3</ele>
        <time>2026-08-20T13:13:59Z</time>
      </trkpt>
      <trkpt lat="47.64312" lon="-2.72152">
        <ele>12.2</ele>
        <time>2026-08-20T13:14:00Z</time>
      </trkpt>
      <trkpt lat="47.64312" lon="-2.72145">
        <ele>12.2</ele>
        <time>2026-08-20T13:14:01Z</time>
      </trkpt>
      <trkpt lat="47.64312" lon="-2.72139">
        <ele>12.2</ele>
        <time>2026-08-20T13:14:02Z</time>
      </trkpt>
      <trkpt lat="47.64312" lon="-2.72132">
        <ele>12.2</ele>
        <time>2026-08-20T13:14:03Z</time>
      </trkpt>
      <trkpt lat="47.64313" lon="-2.72126">
        <ele>12.3</ele>
        <time>2026-08-20T13:14:04Z</time>
      </trkpt>
      <trkpt lat="47.64315" lon="-2.7212">
        <ele>12.3</ele>
        <time>2026-08-20T13:14:05Z</time>
      </trkpt>
      <trkpt lat="47.64318" lon="-2.72115">
        <ele>12.4</ele>
        <time>2026-08-20T13:14:06Z</time>
      </trkpt>
      <trkpt lat="47.64322" lon="-2.72111">
        <ele>12.6</ele>
        <time>2026-08-20T13:14:07Z</time>
      </trkpt>
      <trkpt lat="47.64326" lon="-2.72107">
        <ele>12.7</ele>
        <time>2026-08-20T13:14:08Z</time>
      </trkpt>
      <trkpt lat="47.6433" lon="-2.72104">
        <ele>12.9</ele>
        <time>2026-08-20T13:14:09Z</time>
      </trkpt>
      <trkpt lat="47.64334" lon="-2.72101">
        <ele>13</ele>
        <time>2026-08-20T13:14:10Z</time>
      </trkpt>
      <trkpt lat="47.64339" lon="-2.72098">
        <ele>13.2</ele>
        <time>2026-08-20T13:14:11Z</time>
      </trkpt>
      <trkpt lat="47.64343" lon="-2.72095">
        <ele>13.3</ele>
        <time>2026-08-20T13:14:12Z</time>
      </trkpt>
      <trkpt lat="47.64347" lon="-2.72092">
        <ele>13.5</ele>
        <time>2026-08-20T13:14:13Z</time>
      </trkpt>
      <trkpt lat="47.64352" lon="-2.72089">
        <ele>13.7</ele>
        <time>2026-08-20T13:14:14Z</time>
      </trkpt>
      <trkpt lat="47.64356" lon="-2.72086">
        <ele>13.8</ele>
        <time>2026-08-20T13:14:15Z</time>
      </trkpt>
      <trkpt lat="47.6436" lon="-2.72083">
        <ele>14</ele>
        <time>2026-08-20T13:14:16Z</time>
      </trkpt>
      <trkpt lat="47.64365" lon="-2.72081">
        <ele>14.1</ele>
        <time>2026-08-20T13:14:17Z</time>
      </trkpt>
      <trkpt lat="47.64369" lon="-2.72078">
        <ele>14.2</ele>
        <time>2026-08-20T13:14:18Z</time>
      </trkpt>
      <trkpt lat="47.64373" lon="-2.72075">
        <ele>14.3</ele>
        <time>2026-08-20T13:14:19Z</time>
      </trkpt>
      <trkpt lat="47.64377" lon="-2.72072">
        <ele>14.3</ele>
        <time>2026-08-20T13:14:20Z</time>
      </trkpt>
      <trkpt lat="47.64381" lon="-2.72069">
        <ele>14.3</ele>
        <time>2026-08-20T13:14:21Z</time>
      </trkpt>
      <trkpt lat="47.64385" lon="-2.72067">
        <ele>14.4</ele>
        <time>2026-08-20T13:14:22Z</time>
      </trkpt>
      <trkpt lat="47.64388" lon="-2.72064">
        <ele>14.3</ele>
        <time>2026-08-20T13:14:23Z</time>
      </trkpt>
      <trkpt lat="47.64392" lon="-2.72061">
        <ele>14.3</ele>
        <time>2026-08-20T13:14:24Z</time>
      </trkpt>
      <trkpt lat="47.64394" lon="-2.72056">
        <ele>14.2</ele>
        <time>2026-08-20T13:14:25Z</time>
      </trkpt>
      <trkpt lat="47.64395" lon="-2.7205">
        <ele>14.2</ele>
        <time>2026-08-20T13:14:26Z</time>
      </trkpt>
      <trkpt lat="47.64394" lon="-2.72044">
        <ele>14.1</ele>
        <time>2026-08-20T13:14:27Z</time>
      </trkpt>
      <trkpt lat="47.64392" lon="-2.72038">
        <ele>14</ele>
        <time>2026-08-20T13:14:28Z</time>
      </trkpt>
      <trkpt lat="47.6439" lon="-2.72031">
        <ele>14</ele>
        <time>2026-08-20T13:14:29Z</time>
      </trkpt>
      <trkpt lat="47.64387" lon="-2.72024">
        <ele>13.8</ele>
        <time>2026-08-20T13:14:30Z</time>
      </trkpt>
      <trkpt lat="47.64385" lon="-2.72017">
        <ele>13.5</ele>
        <time>2026-08-20T13:14:31Z</time>
      </trkpt>
      <trkpt lat="47.64383" lon="-2.7201">
        <ele>13.3</ele>
        <time>2026-08-20T13:14:32Z</time>
      </trkpt>
      <trkpt lat="47.6438" lon="-2.72003">
        <ele>13.1</ele>
        <time>2026-08-20T13:14:33Z</time>
      </trkpt>
      <trkpt lat="47.64378" lon="-2.71996">
        <ele>12.9</ele>
        <time>2026-08-20T13:14:34Z</time>
      </trkpt>
      <trkpt lat="47.64375" lon="-2.71988">
        <ele>12.8</ele>
        <time>2026-08-20T13:14:35Z</time>
      </trkpt>
      <trkpt lat="47.64373" lon="-2.71979">
        <ele>12.6</ele>
        <time>2026-08-20T13:14:36Z</time>
      </trkpt>
      <trkpt lat="47.64371" lon="-2.71971">
        <ele>12.3</ele>
        <time>2026-08-20T13:14:37Z</time>
      </trkpt>
      <trkpt lat="47.64368" lon="-2.71962">
        <ele>11.9</ele>
        <time>2026-08-20T13:14:38Z</time>
      </trkpt>
      <trkpt lat="47.64365" lon="-2.71953">
        <ele>11.4</ele>
        <time>2026-08-20T13:14:39Z</time>
      </trkpt>
      <trkpt lat="47.64362" lon="-2.71944">
        <ele>11</ele>
        <time>2026-08-20T13:14:40Z</time>
      </trkpt>
      <trkpt lat="47.64358" lon="-2.71935">
        <ele>11</ele>
        <time>2026-08-20T13:14:41Z</time>
      </trkpt>
      <trkpt lat="47.64355" lon="-2.71926">
        <ele>11</ele>
        <time>2026-08-20T13:14:42Z</time>
      </trkpt>
      <trkpt lat="47.64352" lon="-2.71917">
        <ele>11</ele>
        <time>2026-08-20T13:14:43Z</time>
      </trkpt>
      <trkpt lat="47.64348" lon="-2.71909">
        <ele>10.7</ele>
        <time>2026-08-20T13:14:44Z</time>
      </trkpt>
      <trkpt lat="47.64344" lon="-2.71901">
        <ele>10.4</ele>
        <time>2026-08-20T13:14:45Z</time>
      </trkpt>
      <trkpt lat="47.6434" lon="-2.71893">
        <ele>10.1</ele>
        <time>2026-08-20T13:14:46Z</time>
      </trkpt>
      <trkpt lat="47.64336" lon="-2.71885">
        <ele>10</ele>
        <time>2026-08-20T13:14:47Z</time>
      </trkpt>
      <trkpt lat="47.64332" lon="-2.71878">
        <ele>10</ele>
        <time>2026-08-20T13:14:48Z</time>
      </trkpt>
      <trkpt lat="47.64328" lon="-2.71871">
        <ele>10.2</ele>
        <time>2026-08-20T13:14:49Z</time>
      </trkpt>
      <trkpt lat="47.64324" lon="-2.71864">
        <ele>10.3</ele>
        <time>2026-08-20T13:14:50Z</time>
      </trkpt>
      <trkpt lat="47.64321" lon="-2.71857">
        <ele>10.4</ele>
        <time>2026-08-20T13:14:51Z</time>
      </trkpt>
      <trkpt lat="47.64317" lon="-2.71851">
        <ele>10.6</ele>
        <time>2026-08-20T13:14:52Z</time>
      </trkpt>
      <trkpt lat="47.64314" lon="-2.71844">
        <ele>10.7</ele>
        <time>2026-08-20T13:14:53Z</time>
      </trkpt>
      <trkpt lat="47.6431" lon="-2.71838">
        <ele>10.8</ele>
        <time>2026-08-20T13:14:54Z</time>
      </trkpt>
      <trkpt lat="47.64308" lon="-2.71831">
        <ele>11</ele>
        <time>2026-08-20T13:14:55Z</time>
      </trkpt>
      <trkpt lat="47.64305" lon="-2.71825">
        <ele>11.3</ele>
        <time>2026-08-20T13:14:56Z</time>
      </trkpt>
      <trkpt lat="47.64302" lon="-2.71818">
        <ele>11.8</ele>
        <time>2026-08-20T13:14:57Z</time>
      </trkpt>
      <trkpt lat="47.643" lon="-2.71813">
        <ele>12.1</ele>
        <time>2026-08-20T13:14:58Z</time>
      </trkpt>
      <trkpt lat="47.64298" lon="-2.71807">
        <ele>12.5</ele>
        <time>2026-08-20T13:14:59Z</time>
      </trkpt>
      <trkpt lat="47.64296" lon="-2.71801">
        <ele>12.9</ele>
        <time>2026-08-20T13:15:00Z</time>
      </trkpt>
      <trkpt lat="47.64295" lon="-2.71796">
        <ele>13.1</ele>
        <time>2026-08-20T13:15:01Z</time>
      </trkpt>
      <trkpt lat="47.64294" lon="-2.71791">
        <ele>13.4</ele>
        <time>2026-08-20T13:15:02Z</time>
      </trkpt>
      <trkpt lat="47.64293" lon="-2.71786">
        <ele>13.6</ele>
        <time>2026-08-20T13:15:03Z</time>
      </trkpt>
      <trkpt lat="47.64293" lon="-2.71781">
        <ele>13.8</ele>
        <time>2026-08-20T13:15:04Z</time>
      </trkpt>
      <trkpt lat="47.64295" lon="-2.71778">
        <ele>13.8</ele>
        <time>2026-08-20T13:15:05Z</time>
      </trkpt>
      <trkpt lat="47.64297" lon="-2.71775">
        <ele>13.7</ele>
        <time>2026-08-20T13:15:06Z</time>
      </trkpt>
      <trkpt lat="47.643" lon="-2.71772">
        <ele>13.6</ele>
        <time>2026-08-20T13:15:07Z</time>
      </trkpt>
      <trkpt lat="47.64303" lon="-2.71769">
        <ele>13.5</ele>
        <time>2026-08-20T13:15:08Z</time>
      </trkpt>
      <trkpt lat="47.64307" lon="-2.71767">
        <ele>13.3</ele>
        <time>2026-08-20T13:15:09Z</time>
      </trkpt>
      <trkpt lat="47.64311" lon="-2.71765">
        <ele>13</ele>
        <time>2026-08-20T13:15:10Z</time>
      </trkpt>
      <trkpt lat="47.64315" lon="-2.71762">
        <ele>12.7</ele>
        <time>2026-08-20T13:15:11Z</time>
      </trkpt>
      <trkpt lat="47.64319" lon="-2.71758">
        <ele>12.4</ele>
        <time>2026-08-20T13:15:12Z</time>
      </trkpt>
      <trkpt lat="47.64324" lon="-2.71754">
        <ele>12</ele>
        <time>2026-08-20T13:15:13Z</time>
      </trkpt>
      <trkpt lat="47.64329" lon="-2.71751">
        <ele>11.5</ele>
        <time>2026-08-20T13:15:14Z</time>
      </trkpt>
      <trkpt lat="47.64334" lon="-2.71747">
        <ele>11.2</ele>
        <time>2026-08-20T13:15:15Z</time>
      </trkpt>
      <trkpt lat="47.64339" lon="-2.71743">
        <ele>11</ele>
        <time>2026-08-20T13:15:16Z</time>
      </trkpt>
      <trkpt lat="47.64343" lon="-2.71738">
        <ele>11</ele>
        <time>2026-08-20T13:15:17Z</time>
      </trkpt>
      <trkpt lat="47.64348" lon="-2.71732">
        <ele>10.9</ele>
        <time>2026-08-20T13:15:18Z</time>
      </trkpt>
      <trkpt lat="47.64353" lon="-2.71727">
        <ele>10.7</ele>
        <time>2026-08-20T13:15:19Z</time>
      </trkpt>
      <trkpt lat="47.64357" lon="-2.71723">
        <ele>10.4</ele>
        <time>2026-08-20T13:15:20Z</time>
      </trkpt>
      <trkpt lat="47.6436" lon="-2.71719">
        <ele>10.5</ele>
        <time>2026-08-20T13:15:21Z</time>
      </trkpt>
      <trkpt lat="47.64364" lon="-2.71713">
        <ele>10.7</ele>
        <time>2026-08-20T13:15:22Z</time>
      </trkpt>
      <trkpt lat="47.64367" lon="-2.71706">
        <ele>11.1</ele>
        <time>2026-08-20T13:15:23Z</time>
      </trkpt>
      <trkpt lat="47.64371" lon="-2.71698">
        <ele>11.3</ele>
        <time>2026-08-20T13:15:24Z</time>
      </trkpt>
      <trkpt lat="47.64375" lon="-2.71687">
        <ele>11.1</ele>
        <time>2026-08-20T13:15:25Z</time>
      </trkpt>
      <trkpt lat="47.64378" lon="-2.7168">
        <ele>10.9</ele>
        <time>2026-08-20T13:15:26Z</time>
      </trkpt>
      <trkpt lat="47.6438" lon="-2.71672">
        <ele>10.8</ele>
        <time>2026-08-20T13:15:27Z</time>
      </trkpt>
      <trkpt lat="47.64382" lon="-2.71663">
        <ele>10.8</ele>
        <time>2026-08-20T13:15:28Z</time>
      </trkpt>
      <trkpt lat="47.64385" lon="-2.71654">
        <ele>10.8</ele>
        <time>2026-08-20T13:15:29Z</time>
      </trkpt>
      <trkpt lat="47.6439" lon="-2.71647">
        <ele>10.6</ele>
        <time>2026-08-20T13:15:30Z</time>
      </trkpt>
      <trkpt lat="47.64396" lon="-2.71643">
        <ele>10.3</ele>
        <time>2026-08-20T13:15:31Z</time>
      </trkpt>
      <trkpt lat="47.64402" lon="-2.7164">
        <ele>10</ele>
        <time>2026-08-20T13:15:32Z</time>
      </trkpt>
      <trkpt lat="47.64409" lon="-2.71639">
        <ele>9.5</ele>
        <time>2026-08-20T13:15:33Z</time>
      </trkpt>
      <trkpt lat="47.64415" lon="-2.71636">
        <ele>9.1</ele>
        <time>2026-08-20T13:15:34Z</time>
      </trkpt>
      <trkpt lat="47.64421" lon="-2.71634">
        <ele>8.7</ele>
        <time>2026-08-20T13:15:35Z</time>
      </trkpt>
      <trkpt lat="47.64426" lon="-2.71633">
        <ele>8.3</ele>
        <time>2026-08-20T13:15:36Z</time>
      </trkpt>
      <trkpt lat="47.64431" lon="-2.7163">
        <ele>8</ele>
        <time>2026-08-20T13:15:37Z</time>
      </trkpt>
      <trkpt lat="47.64433" lon="-2.71623">
        <ele>7.8</ele>
        <time>2026-08-20T13:15:38Z</time>
      </trkpt>
      <trkpt lat="47.64434" lon="-2.71617">
        <ele>7.8</ele>
        <time>2026-08-20T13:15:39Z</time>
      </trkpt>
      <trkpt lat="47.64434" lon="-2.71611">
        <ele>7.8</ele>
        <time>2026-08-20T13:15:40Z</time>
      </trkpt>
      <trkpt lat="47.64432" lon="-2.71605">
        <ele>7.9</ele>
        <time>2026-08-20T13:15:41Z</time>
      </trkpt>
      <trkpt lat="47.6443" lon="-2.716">
        <ele>8</ele>
        <time>2026-08-20T13:15:42Z</time>
      </trkpt>
      <trkpt lat="47.64429" lon="-2.71592">
        <ele>8.1</ele>
        <time>2026-08-20T13:15:43Z</time>
      </trkpt>
      <trkpt lat="47.64428" lon="-2.71585">
        <ele>8.2</ele>
        <time>2026-08-20T13:15:44Z</time>
      </trkpt>
      <trkpt lat="47.64428" lon="-2.7158">
        <ele>8.1</ele>
        <time>2026-08-20T13:15:45Z</time>
      </trkpt>
      <trkpt lat="47.64429" lon="-2.71575">
        <ele>7.9</ele>
        <time>2026-08-20T13:15:46Z</time>
      </trkpt>
      <trkpt lat="47.64431" lon="-2.71573">
        <ele>7.8</ele>
        <time>2026-08-20T13:15:47Z</time>
      </trkpt>
      <trkpt lat="47.64433" lon="-2.7157">
        <ele>7.6</ele>
        <time>2026-08-20T13:15:48Z</time>
      </trkpt>
      <trkpt lat="47.64438" lon="-2.71565">
        <ele>7.3</ele>
        <time>2026-08-20T13:15:49Z</time>
      </trkpt>
      <trkpt lat="47.64443" lon="-2.71561">
        <ele>7.1</ele>
        <time>2026-08-20T13:15:50Z</time>
      </trkpt>
      <trkpt lat="47.64446" lon="-2.71556">
        <ele>6.9</ele>
        <time>2026-08-20T13:15:51Z</time>
      </trkpt>
      <trkpt lat="47.6445" lon="-2.71551">
        <ele>6.8</ele>
        <time>2026-08-20T13:15:52Z</time>
      </trkpt>
      <trkpt lat="47.64454" lon="-2.71545">
        <ele>6.7</ele>
        <time>2026-08-20T13:15:53Z</time>
      </trkpt>
      <trkpt lat="47.64457" lon="-2.71541">
        <ele>6.5</ele>
        <time>2026-08-20T13:15:54Z</time>
      </trkpt>
      <trkpt lat="47.64459" lon="-2.71537">
        <ele>6.5</ele>
        <time>2026-08-20T13:15:55Z</time>
      </trkpt>
      <trkpt lat="47.64459" lon="-2.71533">
        <ele>6.5</ele>
        <time>2026-08-20T13:15:56Z</time>
      </trkpt>
      <trkpt lat="47.64459" lon="-2.7153">
        <ele>6.5</ele>
        <time>2026-08-20T13:15:57Z</time>
      </trkpt>
      <trkpt lat="47.64459" lon="-2.71526">
        <ele>6.4</ele>
        <time>2026-08-20T13:15:58Z</time>
      </trkpt>
      <trkpt lat="47.64459" lon="-2.71522">
        <ele>6.4</ele>
        <time>2026-08-20T13:15:59Z</time>
      </trkpt>
      <trkpt lat="47.64458" lon="-2.71517">
        <ele>6.3</ele>
        <time>2026-08-20T13:16:00Z</time>
      </trkpt>
      <trkpt lat="47.64457" lon="-2.71512">
        <ele>6.2</ele>
        <time>2026-08-20T13:16:01Z</time>
      </trkpt>
      <trkpt lat="47.64457" lon="-2.71505">
        <ele>6.1</ele>
        <time>2026-08-20T13:16:02Z</time>
      </trkpt>
      <trkpt lat="47.64457" lon="-2.71495">
        <ele>6</ele>
        <time>2026-08-20T13:16:03Z</time>
      </trkpt>
      <trkpt lat="47.64457" lon="-2.71487">
        <ele>6</ele>
        <time>2026-08-20T13:16:04Z</time>
      </trkpt>
      <trkpt lat="47.64459" lon="-2.7148">
        <ele>6</ele>
        <time>2026-08-20T13:16:05Z</time>
      </trkpt>
      <trkpt lat="47.64459" lon="-2.71475">
        <ele>6</ele>
        <time>2026-08-20T13:16:06Z</time>
      </trkpt>
      <trkpt lat="47.64459" lon="-2.71469">
        <ele>5.9</ele>
        <time>2026-08-20T13:16:07Z</time>
      </trkpt>
      <trkpt lat="47.64458" lon="-2.71463">
        <ele>5.8</ele>
        <time>2026-08-20T13:16:08Z</time>
      </trkpt>
      <trkpt lat="47.64458" lon="-2.71457">
        <ele>5.7</ele>
        <time>2026-08-20T13:16:09Z</time>
      </trkpt>
      <trkpt lat="47.64458" lon="-2.71451">
        <ele>5.6</ele>
        <time>2026-08-20T13:16:10Z</time>
      </trkpt>
      <trkpt lat="47.64457" lon="-2.71445">
        <ele>5.6</ele>
        <time>2026-08-20T13:16:11Z</time>
      </trkpt>
      <trkpt lat="47.64456" lon="-2.71439">
        <ele>5.6</ele>
        <time>2026-08-20T13:16:12Z</time>
      </trkpt>
      <trkpt lat="47.64455" lon="-2.71432">
        <ele>5.6</ele>
        <time>2026-08-20T13:16:13Z</time>
      </trkpt>
      <trkpt lat="47.64455" lon="-2.71427">
        <ele>5.6</ele>
        <time>2026-08-20T13:16:14Z</time>
      </trkpt>
      <trkpt lat="47.64454" lon="-2.71422">
        <ele>5.7</ele>
        <time>2026-08-20T13:16:15Z</time>
      </trkpt>
      <trkpt lat="47.64454" lon="-2.71417">
        <ele>5.7</ele>
        <time>2026-08-20T13:16:16Z</time>
      </trkpt>
      <trkpt lat="47.64454" lon="-2.71411">
        <ele>5.7</ele>
        <time>2026-08-20T13:16:17Z</time>
      </trkpt>
      <trkpt lat="47.64454" lon="-2.71405">
        <ele>5.7</ele>
        <time>2026-08-20T13:16:18Z</time>
      </trkpt>
      <trkpt lat="47.64455" lon="-2.714">
        <ele>5.6</ele>
        <time>2026-08-20T13:16:19Z</time>
      </trkpt>
      <trkpt lat="47.64455" lon="-2.71395">
        <ele>5.6</ele>
        <time>2026-08-20T13:16:20Z</time>
      </trkpt>
      <trkpt lat="47.64456" lon="-2.7139">
        <ele>5.6</ele>
        <time>2026-08-20T13:16:21Z</time>
      </trkpt>
      <trkpt lat="47.64457" lon="-2.71384">
        <ele>5.5</ele>
        <time>2026-08-20T13:16:22Z</time>
      </trkpt>
      <trkpt lat="47.64459" lon="-2.71379">
        <ele>5.3</ele>
        <time>2026-08-20T13:16:23Z</time>
      </trkpt>
      <trkpt lat="47.64462" lon="-2.71374">
        <ele>5.2</ele>
        <time>2026-08-20T13:16:24Z</time>
      </trkpt>
      <trkpt lat="47.64465" lon="-2.71371">
        <ele>5.1</ele>
        <time>2026-08-20T13:16:25Z</time>
      </trkpt>
      <trkpt lat="47.64468" lon="-2.7137">
        <ele>5</ele>
        <time>2026-08-20T13:16:26Z</time>
      </trkpt>
      <trkpt lat="47.64472" lon="-2.71369">
        <ele>5</ele>
        <time>2026-08-20T13:16:27Z</time>
      </trkpt>
      <trkpt lat="47.64476" lon="-2.71367">
        <ele>4.9</ele>
        <time>2026-08-20T13:16:28Z</time>
      </trkpt>
      <trkpt lat="47.6448" lon="-2.71364">
        <ele>4.7</ele>
        <time>2026-08-20T13:16:29Z</time>
      </trkpt>
      <trkpt lat="47.64483" lon="-2.71361">
        <ele>4.6</ele>
        <time>2026-08-20T13:16:30Z</time>
      </trkpt>
      <trkpt lat="47.64487" lon="-2.71358">
        <ele>4.4</ele>
        <time>2026-08-20T13:16:31Z</time>
      </trkpt>
      <trkpt lat="47.64491" lon="-2.71355">
        <ele>4.3</ele>
        <time>2026-08-20T13:16:32Z</time>
      </trkpt>
      <trkpt lat="47.64495" lon="-2.71352">
        <ele>4.1</ele>
        <time>2026-08-20T13:16:33Z</time>
      </trkpt>
      <trkpt lat="47.645" lon="-2.71351">
        <ele>4</ele>
        <time>2026-08-20T13:16:34Z</time>
      </trkpt>
      <trkpt lat="47.64504" lon="-2.71351">
        <ele>4</ele>
        <time>2026-08-20T13:16:35Z</time>
      </trkpt>
      <trkpt lat="47.64509" lon="-2.7135">
        <ele>4</ele>
        <time>2026-08-20T13:16:36Z</time>
      </trkpt>
      <trkpt lat="47.64514" lon="-2.7135">
        <ele>4</ele>
        <time>2026-08-20T13:16:37Z</time>
      </trkpt>
      <trkpt lat="47.64519" lon="-2.71349">
        <ele>4</ele>
        <time>2026-08-20T13:16:38Z</time>
      </trkpt>
      <trkpt lat="47.64524" lon="-2.71349">
        <ele>4</ele>
        <time>2026-08-20T13:16:39Z</time>
      </trkpt>
      <trkpt lat="47.64529" lon="-2.71347">
        <ele>4</ele>
        <time>2026-08-20T13:16:40Z</time>
      </trkpt>
      <trkpt lat="47.64534" lon="-2.71346">
        <ele>3.9</ele>
        <time>2026-08-20T13:16:41Z</time>
      </trkpt>
      <trkpt lat="47.6454" lon="-2.71345">
        <ele>3.7</ele>
        <time>2026-08-20T13:16:42Z</time>
      </trkpt>
      <trkpt lat="47.64546" lon="-2.71345">
        <ele>3.6</ele>
        <time>2026-08-20T13:16:43Z</time>
      </trkpt>
      <trkpt lat="47.64551" lon="-2.71345">
        <ele>3.5</ele>
        <time>2026-08-20T13:16:44Z</time>
      </trkpt>
      <trkpt lat="47.64556" lon="-2.71344">
        <ele>3.4</ele>
        <time>2026-08-20T13:16:45Z</time>
      </trkpt>
      <trkpt lat="47.64561" lon="-2.71344">
        <ele>3.4</ele>
        <time>2026-08-20T13:16:46Z</time>
      </trkpt>
      <trkpt lat="47.64566" lon="-2.71345">
        <ele>3.5</ele>
        <time>2026-08-20T13:16:47Z</time>
      </trkpt>
      <trkpt lat="47.64572" lon="-2.71343">
        <ele>3.5</ele>
        <time>2026-08-20T13:16:48Z</time>
      </trkpt>
      <trkpt lat="47.64577" lon="-2.71342">
        <ele>3.6</ele>
        <time>2026-08-20T13:16:49Z</time>
      </trkpt>
      <trkpt lat="47.64583" lon="-2.71341">
        <ele>3.7</ele>
        <time>2026-08-20T13:16:50Z</time>
      </trkpt>
      <trkpt lat="47.64587" lon="-2.71341">
        <ele>3.8</ele>
        <time>2026-08-20T13:16:51Z</time>
      </trkpt>
      <trkpt lat="47.64592" lon="-2.71341">
        <ele>3.9</ele>
        <time>2026-08-20T13:16:52Z</time>
      </trkpt>
      <trkpt lat="47.64598" lon="-2.71341">
        <ele>4</ele>
        <time>2026-08-20T13:16:53Z</time>
      </trkpt>
      <trkpt lat="47.64603" lon="-2.71341">
        <ele>4.1</ele>
        <time>2026-08-20T13:16:54Z</time>
      </trkpt>
      <trkpt lat="47.64608" lon="-2.71339">
        <ele>4.2</ele>
        <time>2026-08-20T13:16:55Z</time>
      </trkpt>
      <trkpt lat="47.64613" lon="-2.71338">
        <ele>4.3</ele>
        <time>2026-08-20T13:16:56Z</time>
      </trkpt>
      <trkpt lat="47.64617" lon="-2.71335">
        <ele>4.5</ele>
        <time>2026-08-20T13:16:57Z</time>
      </trkpt>
      <trkpt lat="47.64621" lon="-2.71333">
        <ele>4.7</ele>
        <time>2026-08-20T13:16:58Z</time>
      </trkpt>
      <trkpt lat="47.64625" lon="-2.7133">
        <ele>5</ele>
        <time>2026-08-20T13:16:59Z</time>
      </trkpt>
      <trkpt lat="47.64629" lon="-2.71328">
        <ele>5.3</ele>
        <time>2026-08-20T13:17:00Z</time>
      </trkpt>
      <trkpt lat="47.64633" lon="-2.71325">
        <ele>5.6</ele>
        <time>2026-08-20T13:17:01Z</time>
      </trkpt>
      <trkpt lat="47.64637" lon="-2.71322">
        <ele>5.9</ele>
        <time>2026-08-20T13:17:02Z</time>
      </trkpt>
      <trkpt lat="47.6464" lon="-2.71319">
        <ele>6.1</ele>
        <time>2026-08-20T13:17:03Z</time>
      </trkpt>
      <trkpt lat="47.64643" lon="-2.71316">
        <ele>6.2</ele>
        <time>2026-08-20T13:17:04Z</time>
      </trkpt>
      <trkpt lat="47.64647" lon="-2.71312">
        <ele>6.4</ele>
        <time>2026-08-20T13:17:05Z</time>
      </trkpt>
      <trkpt lat="47.64652" lon="-2.71309">
        <ele>6.5</ele>
        <time>2026-08-20T13:17:06Z</time>
      </trkpt>
      <trkpt lat="47.64656" lon="-2.71306">
        <ele>6.6</ele>
        <time>2026-08-20T13:17:07Z</time>
      </trkpt>
      <trkpt lat="47.6466" lon="-2.71305">
        <ele>6.7</ele>
        <time>2026-08-20T13:17:08Z</time>
      </trkpt>
      <trkpt lat="47.64664" lon="-2.71304">
        <ele>6.8</ele>
        <time>2026-08-20T13:17:09Z</time>
      </trkpt>
      <trkpt lat="47.64668" lon="-2.71304">
        <ele>7</ele>
        <time>2026-08-20T13:17:10Z</time>
      </trkpt>
      <trkpt lat="47.64673" lon="-2.71304">
        <ele>7.2</ele>
        <time>2026-08-20T13:17:11Z</time>
      </trkpt>
      <trkpt lat="47.64678" lon="-2.71305">
        <ele>7.4</ele>
        <time>2026-08-20T13:17:12Z</time>
      </trkpt>
      <trkpt lat="47.64682" lon="-2.71306">
        <ele>7.6</ele>
        <time>2026-08-20T13:17:13Z</time>
      </trkpt>
      <trkpt lat="47.64687" lon="-2.71306">
        <ele>7.7</ele>
        <time>2026-08-20T13:17:14Z</time>
      </trkpt>
      <trkpt lat="47.64692" lon="-2.71307">
        <ele>8</ele>
        <time>2026-08-20T13:17:15Z</time>
      </trkpt>
      <trkpt lat="47.64697" lon="-2.71307">
        <ele>8.1</ele>
        <time>2026-08-20T13:17:16Z</time>
      </trkpt>
      <trkpt lat="47.64701" lon="-2.71307">
        <ele>8.3</ele>
        <time>2026-08-20T13:17:17Z</time>
      </trkpt>
      <trkpt lat="47.64705" lon="-2.71307">
        <ele>8.5</ele>
        <time>2026-08-20T13:17:18Z</time>
      </trkpt>
      <trkpt lat="47.6471" lon="-2.71306">
        <ele>8.6</ele>
        <time>2026-08-20T13:17:19Z</time>
      </trkpt>
      <trkpt lat="47.64714" lon="-2.71305">
        <ele>8.7</ele>
        <time>2026-08-20T13:17:20Z</time>
      </trkpt>
      <trkpt lat="47.64719" lon="-2.71305">
        <ele>8.8</ele>
        <time>2026-08-20T13:17:21Z</time>
      </trkpt>
      <trkpt lat="47.64723" lon="-2.71305">
        <ele>9</ele>
        <time>2026-08-20T13:17:22Z</time>
      </trkpt>
      <trkpt lat="47.64728" lon="-2.71304">
        <ele>9.1</ele>
        <time>2026-08-20T13:17:23Z</time>
      </trkpt>
      <trkpt lat="47.64732" lon="-2.71304">
        <ele>9.2</ele>
        <time>2026-08-20T13:17:24Z</time>
      </trkpt>
      <trkpt lat="47.64737" lon="-2.71303">
        <ele>9.3</ele>
        <time>2026-08-20T13:17:25Z</time>
      </trkpt>
      <trkpt lat="47.6474" lon="-2.71302">
        <ele>9.3</ele>
        <time>2026-08-20T13:17:26Z</time>
      </trkpt>
      <trkpt lat="47.64744" lon="-2.71301">
        <ele>9.3</ele>
        <time>2026-08-20T13:17:27Z</time>
      </trkpt>
      <trkpt lat="47.64748" lon="-2.71301">
        <ele>9.4</ele>
        <time>2026-08-20T13:17:28Z</time>
      </trkpt>
      <trkpt lat="47.64752" lon="-2.713">
        <ele>9.5</ele>
        <time>2026-08-20T13:17:29Z</time>
      </trkpt>
      <trkpt lat="47.64756" lon="-2.71299">
        <ele>9.5</ele>
        <time>2026-08-20T13:17:30Z</time>
      </trkpt>
      <trkpt lat="47.64761" lon="-2.71299">
        <ele>9.7</ele>
        <time>2026-08-20T13:17:31Z</time>
      </trkpt>
      <trkpt lat="47.64765" lon="-2.71298">
        <ele>9.7</ele>
        <time>2026-08-20T13:17:32Z</time>
      </trkpt>
      <trkpt lat="47.6477" lon="-2.71298">
        <ele>9.9</ele>
        <time>2026-08-20T13:17:33Z</time>
      </trkpt>
      <trkpt lat="47.64774" lon="-2.71296">
        <ele>9.8</ele>
        <time>2026-08-20T13:17:34Z</time>
      </trkpt>
      <trkpt lat="47.64778" lon="-2.71295">
        <ele>9.9</ele>
        <time>2026-08-20T13:17:35Z</time>
      </trkpt>
      <trkpt lat="47.64782" lon="-2.71294">
        <ele>10</ele>
        <time>2026-08-20T13:17:36Z</time>
      </trkpt>
      <trkpt lat="47.64786" lon="-2.71292">
        <ele>10</ele>
        <time>2026-08-20T13:17:37Z</time>
      </trkpt>
      <trkpt lat="47.6479" lon="-2.7129">
        <ele>10</ele>
        <time>2026-08-20T13:17:38Z</time>
      </trkpt>
      <trkpt lat="47.64794" lon="-2.71288">
        <ele>10.1</ele>
        <time>2026-08-20T13:17:39Z</time>
      </trkpt>
      <trkpt lat="47.64798" lon="-2.71286">
        <ele>10.1</ele>
        <time>2026-08-20T13:17:40Z</time>
      </trkpt>
      <trkpt lat="47.64802" lon="-2.71285">
        <ele>10.3</ele>
        <time>2026-08-20T13:17:41Z</time>
      </trkpt>
      <trkpt lat="47.64806" lon="-2.71283">
        <ele>10.4</ele>
        <time>2026-08-20T13:17:42Z</time>
      </trkpt>
      <trkpt lat="47.6481" lon="-2.71281">
        <ele>10.4</ele>
        <time>2026-08-20T13:17:43Z</time>
      </trkpt>
      <trkpt lat="47.64814" lon="-2.7128">
        <ele>10.5</ele>
        <time>2026-08-20T13:17:44Z</time>
      </trkpt>
      <trkpt lat="47.64818" lon="-2.71278">
        <ele>10.5</ele>
        <time>2026-08-20T13:17:45Z</time>
      </trkpt>
      <trkpt lat="47.64822" lon="-2.71275">
        <ele>10.3</ele>
        <time>2026-08-20T13:17:46Z</time>
      </trkpt>
      <trkpt lat="47.64826" lon="-2.71273">
        <ele>10.3</ele>
        <time>2026-08-20T13:17:47Z</time>
      </trkpt>
      <trkpt lat="47.6483" lon="-2.71271">
        <ele>10.3</ele>
        <time>2026-08-20T13:17:48Z</time>
      </trkpt>
      <trkpt lat="47.64835" lon="-2.7127">
        <ele>10.4</ele>
        <time>2026-08-20T13:17:49Z</time>
      </trkpt>
      <trkpt lat="47.64839" lon="-2.7127">
        <ele>10.3</ele>
        <time>2026-08-20T13:17:50Z</time>
      </trkpt>
      <trkpt lat="47.64844" lon="-2.7127">
        <ele>10.2</ele>
        <time>2026-08-20T13:17:51Z</time>
      </trkpt>
      <trkpt lat="47.64849" lon="-2.71271">
        <ele>10.2</ele>
        <time>2026-08-20T13:17:52Z</time>
      </trkpt>
      <trkpt lat="47.64854" lon="-2.71273">
        <ele>10.4</ele>
        <time>2026-08-20T13:17:53Z</time>
      </trkpt>
      <trkpt lat="47.64858" lon="-2.71274">
        <ele>10.5</ele>
        <time>2026-08-20T13:17:54Z</time>
      </trkpt>
      <trkpt lat="47.64863" lon="-2.71276">
        <ele>10.7</ele>
        <time>2026-08-20T13:17:55Z</time>
      </trkpt>
      <trkpt lat="47.64867" lon="-2.71278">
        <ele>10.8</ele>
        <time>2026-08-20T13:17:56Z</time>
      </trkpt>
      <trkpt lat="47.64871" lon="-2.7128">
        <ele>10.7</ele>
        <time>2026-08-20T13:17:57Z</time>
      </trkpt>
      <trkpt lat="47.64875" lon="-2.71281">
        <ele>10.6</ele>
        <time>2026-08-20T13:17:58Z</time>
      </trkpt>
      <trkpt lat="47.64879" lon="-2.7128">
        <ele>10.4</ele>
        <time>2026-08-20T13:17:59Z</time>
      </trkpt>
      <trkpt lat="47.64882" lon="-2.71277">
        <ele>10.2</ele>
        <time>2026-08-20T13:18:00Z</time>
      </trkpt>
      <trkpt lat="47.64886" lon="-2.71273">
        <ele>9.6</ele>
        <time>2026-08-20T13:18:01Z</time>
      </trkpt>
      <trkpt lat="47.64889" lon="-2.71268">
        <ele>8.9</ele>
        <time>2026-08-20T13:18:02Z</time>
      </trkpt>
      <trkpt lat="47.64893" lon="-2.71262">
        <ele>8.3</ele>
        <time>2026-08-20T13:18:03Z</time>
      </trkpt>
      <trkpt lat="47.64898" lon="-2.71256">
        <ele>7.8</ele>
        <time>2026-08-20T13:18:04Z</time>
      </trkpt>
      <trkpt lat="47.64904" lon="-2.71251">
        <ele>7.6</ele>
        <time>2026-08-20T13:18:05Z</time>
      </trkpt>
      <trkpt lat="47.64909" lon="-2.71247">
        <ele>7.6</ele>
        <time>2026-08-20T13:18:06Z</time>
      </trkpt>
      <trkpt lat="47.64914" lon="-2.71243">
        <ele>7.6</ele>
        <time>2026-08-20T13:18:07Z</time>
      </trkpt>
      <trkpt lat="47.64916" lon="-2.7124">
        <ele>7.6</ele>
        <time>2026-08-20T13:18:08Z</time>
      </trkpt>
      <trkpt lat="47.64918" lon="-2.71236">
        <ele>7.6</ele>
        <time>2026-08-20T13:18:09Z</time>
      </trkpt>
      <trkpt lat="47.64919" lon="-2.71232">
        <ele>7.5</ele>
        <time>2026-08-20T13:18:10Z</time>
      </trkpt>
      <trkpt lat="47.6492" lon="-2.71226">
        <ele>7.3</ele>
        <time>2026-08-20T13:18:11Z</time>
      </trkpt>
      <trkpt lat="47.6492" lon="-2.71219">
        <ele>6.9</ele>
        <time>2026-08-20T13:18:12Z</time>
      </trkpt>
      <trkpt lat="47.6492" lon="-2.71212">
        <ele>6.4</ele>
        <time>2026-08-20T13:18:13Z</time>
      </trkpt>
      <trkpt lat="47.6492" lon="-2.71204">
        <ele>5.9</ele>
        <time>2026-08-20T13:18:14Z</time>
      </trkpt>
      <trkpt lat="47.6492" lon="-2.71196">
        <ele>5.3</ele>
        <time>2026-08-20T13:18:15Z</time>
      </trkpt>
      <trkpt lat="47.6492" lon="-2.71188">
        <ele>5</ele>
        <time>2026-08-20T13:18:16Z</time>
      </trkpt>
      <trkpt lat="47.6492" lon="-2.71179">
        <ele>4.7</ele>
        <time>2026-08-20T13:18:17Z</time>
      </trkpt>
      <trkpt lat="47.6492" lon="-2.7117">
        <ele>4.4</ele>
        <time>2026-08-20T13:18:18Z</time>
      </trkpt>
      <trkpt lat="47.6492" lon="-2.71161">
        <ele>4.2</ele>
        <time>2026-08-20T13:18:19Z</time>
      </trkpt>
      <trkpt lat="47.64919" lon="-2.71151">
        <ele>4.1</ele>
        <time>2026-08-20T13:18:20Z</time>
      </trkpt>
      <trkpt lat="47.64918" lon="-2.71142">
        <ele>4.1</ele>
        <time>2026-08-20T13:18:21Z</time>
      </trkpt>
      <trkpt lat="47.64917" lon="-2.71133">
        <ele>4.2</ele>
        <time>2026-08-20T13:18:22Z</time>
      </trkpt>
      <trkpt lat="47.64916" lon="-2.71124">
        <ele>4.5</ele>
        <time>2026-08-20T13:18:23Z</time>
      </trkpt>
      <trkpt lat="47.64915" lon="-2.71115">
        <ele>4.7</ele>
        <time>2026-08-20T13:18:24Z</time>
      </trkpt>
      <trkpt lat="47.64915" lon="-2.71106">
        <ele>4.9</ele>
        <time>2026-08-20T13:18:25Z</time>
      </trkpt>
      <trkpt lat="47.64914" lon="-2.71097">
        <ele>4.8</ele>
        <time>2026-08-20T13:18:26Z</time>
      </trkpt>
      <trkpt lat="47.64913" lon="-2.71089">
        <ele>4.6</ele>
        <time>2026-08-20T13:18:27Z</time>
      </trkpt>
      <trkpt lat="47.64913" lon="-2.71081">
        <ele>4.6</ele>
        <time>2026-08-20T13:18:28Z</time>
      </trkpt>
      <trkpt lat="47.64912" lon="-2.71073">
        <ele>4.5</ele>
        <time>2026-08-20T13:18:29Z</time>
      </trkpt>
      <trkpt lat="47.64911" lon="-2.71065">
        <ele>4.4</ele>
        <time>2026-08-20T13:18:30Z</time>
      </trkpt>
      <trkpt lat="47.6491" lon="-2.71058">
        <ele>4.3</ele>
        <time>2026-08-20T13:18:31Z</time>
      </trkpt>
      <trkpt lat="47.64908" lon="-2.71051">
        <ele>4.1</ele>
        <time>2026-08-20T13:18:32Z</time>
      </trkpt>
      <trkpt lat="47.64907" lon="-2.71043">
        <ele>4</ele>
        <time>2026-08-20T13:18:33Z</time>
      </trkpt>
      <trkpt lat="47.64905" lon="-2.71036">
        <ele>3.9</ele>
        <time>2026-08-20T13:18:34Z</time>
      </trkpt>
      <trkpt lat="47.64904" lon="-2.7103">
        <ele>4</ele>
        <time>2026-08-20T13:18:35Z</time>
      </trkpt>
      <trkpt lat="47.64903" lon="-2.71024">
        <ele>4.1</ele>
        <time>2026-08-20T13:18:36Z</time>
      </trkpt>
      <trkpt lat="47.64901" lon="-2.71021">
        <ele>4.1</ele>
        <time>2026-08-20T13:18:37Z</time>
      </trkpt>
      <trkpt lat="47.64899" lon="-2.71019">
        <ele>4.2</ele>
        <time>2026-08-20T13:18:38Z</time>
      </trkpt>
      <trkpt lat="47.64895" lon="-2.71021">
        <ele>4.2</ele>
        <time>2026-08-20T13:18:39Z</time>
      </trkpt>
      <trkpt lat="47.64892" lon="-2.71023">
        <ele>4.2</ele>
        <time>2026-08-20T13:18:40Z</time>
      </trkpt>
      <trkpt lat="47.64889" lon="-2.71024">
        <ele>4.1</ele>
        <time>2026-08-20T13:18:41Z</time>
      </trkpt>
      <trkpt lat="47.64885" lon="-2.71026">
        <ele>3.8</ele>
        <time>2026-08-20T13:18:42Z</time>
      </trkpt>
      <trkpt lat="47.64881" lon="-2.71028">
        <ele>3.4</ele>
        <time>2026-08-20T13:18:43Z</time>
      </trkpt>
      <trkpt lat="47.64878" lon="-2.71031">
        <ele>3.1</ele>
        <time>2026-08-20T13:18:44Z</time>
      </trkpt>
      <trkpt lat="47.64873" lon="-2.71033">
        <ele>2.7</ele>
        <time>2026-08-20T13:18:45Z</time>
      </trkpt>
      <trkpt lat="47.64869" lon="-2.71036">
        <ele>2.4</ele>
        <time>2026-08-20T13:18:46Z</time>
      </trkpt>
      <trkpt lat="47.64864" lon="-2.71038">
        <ele>2.1</ele>
        <time>2026-08-20T13:18:47Z</time>
      </trkpt>
      <trkpt lat="47.6486" lon="-2.71041">
        <ele>2.1</ele>
        <time>2026-08-20T13:18:48Z</time>
      </trkpt>
      <trkpt lat="47.64855" lon="-2.71043">
        <ele>2.6</ele>
        <time>2026-08-20T13:18:49Z</time>
      </trkpt>
      <trkpt lat="47.6485" lon="-2.71046">
        <ele>3.1</ele>
        <time>2026-08-20T13:18:50Z</time>
      </trkpt>
      <trkpt lat="47.64845" lon="-2.71049">
        <ele>3.4</ele>
        <time>2026-08-20T13:18:51Z</time>
      </trkpt>
      <trkpt lat="47.6484" lon="-2.71051">
        <ele>3.8</ele>
        <time>2026-08-20T13:18:52Z</time>
      </trkpt>
      <trkpt lat="47.64836" lon="-2.71054">
        <ele>3.9</ele>
        <time>2026-08-20T13:18:53Z</time>
      </trkpt>
      <trkpt lat="47.64831" lon="-2.71057">
        <ele>4.1</ele>
        <time>2026-08-20T13:18:54Z</time>
      </trkpt>
      <trkpt lat="47.64826" lon="-2.7106">
        <ele>4.4</ele>
        <time>2026-08-20T13:18:55Z</time>
      </trkpt>
      <trkpt lat="47.6482" lon="-2.71063">
        <ele>4.8</ele>
        <time>2026-08-20T13:18:56Z</time>
      </trkpt>
      <trkpt lat="47.64815" lon="-2.71066">
        <ele>5</ele>
        <time>2026-08-20T13:18:57Z</time>
      </trkpt>
      <trkpt lat="47.6481" lon="-2.71068">
        <ele>5.2</ele>
        <time>2026-08-20T13:18:58Z</time>
      </trkpt>
      <trkpt lat="47.64805" lon="-2.7107">
        <ele>5.5</ele>
        <time>2026-08-20T13:18:59Z</time>
      </trkpt>
      <trkpt lat="47.648" lon="-2.71072">
        <ele>5.7</ele>
        <time>2026-08-20T13:19:00Z</time>
      </trkpt>
      <trkpt lat="47.64794" lon="-2.71074">
        <ele>6</ele>
        <time>2026-08-20T13:19:01Z</time>
      </trkpt>
      <trkpt lat="47.6479" lon="-2.71076">
        <ele>6.1</ele>
        <time>2026-08-20T13:19:02Z</time>
      </trkpt>
      <trkpt lat="47.64785" lon="-2.71076">
        <ele>6.5</ele>
        <time>2026-08-20T13:19:03Z</time>
      </trkpt>
      <trkpt lat="47.6478" lon="-2.71077">
        <ele>6.7</ele>
        <time>2026-08-20T13:19:04Z</time>
      </trkpt>
      <trkpt lat="47.64775" lon="-2.71077">
        <ele>6.9</ele>
        <time>2026-08-20T13:19:05Z</time>
      </trkpt>
      <trkpt lat="47.64771" lon="-2.71077">
        <ele>6.9</ele>
        <time>2026-08-20T13:19:06Z</time>
      </trkpt>
      <trkpt lat="47.64765" lon="-2.71077">
        <ele>6.8</ele>
        <time>2026-08-20T13:19:07Z</time>
      </trkpt>
      <trkpt lat="47.6476" lon="-2.71078">
        <ele>6.6</ele>
        <time>2026-08-20T13:19:08Z</time>
      </trkpt>
      <trkpt lat="47.64755" lon="-2.71078">
        <ele>6.6</ele>
        <time>2026-08-20T13:19:09Z</time>
      </trkpt>
      <trkpt lat="47.64751" lon="-2.71078">
        <ele>6.6</ele>
        <time>2026-08-20T13:19:10Z</time>
      </trkpt>
      <trkpt lat="47.64746" lon="-2.71076">
        <ele>6.8</ele>
        <time>2026-08-20T13:19:11Z</time>
      </trkpt>
      <trkpt lat="47.64742" lon="-2.71074">
        <ele>7</ele>
        <time>2026-08-20T13:19:12Z</time>
      </trkpt>
      <trkpt lat="47.64736" lon="-2.71072">
        <ele>7.1</ele>
        <time>2026-08-20T13:19:13Z</time>
      </trkpt>
      <trkpt lat="47.64729" lon="-2.71069">
        <ele>7.1</ele>
        <time>2026-08-20T13:19:14Z</time>
      </trkpt>
      <trkpt lat="47.64724" lon="-2.71066">
        <ele>7.1</ele>
        <time>2026-08-20T13:19:15Z</time>
      </trkpt>
      <trkpt lat="47.64719" lon="-2.71064">
        <ele>6.8</ele>
        <time>2026-08-20T13:19:16Z</time>
      </trkpt>
      <trkpt lat="47.64715" lon="-2.71062">
        <ele>6.5</ele>
        <time>2026-08-20T13:19:17Z</time>
      </trkpt>
      <trkpt lat="47.64711" lon="-2.71059">
        <ele>6.2</ele>
        <time>2026-08-20T13:19:18Z</time>
      </trkpt>
      <trkpt lat="47.64705" lon="-2.71055">
        <ele>5.8</ele>
        <time>2026-08-20T13:19:19Z</time>
      </trkpt>
      <trkpt lat="47.64699" lon="-2.7105">
        <ele>5.7</ele>
        <time>2026-08-20T13:19:20Z</time>
      </trkpt>
      <trkpt lat="47.64694" lon="-2.71045">
        <ele>5.7</ele>
        <time>2026-08-20T13:19:21Z</time>
      </trkpt>
      <trkpt lat="47.64689" lon="-2.7104">
        <ele>5.8</ele>
        <time>2026-08-20T13:19:22Z</time>
      </trkpt>
      <trkpt lat="47.64685" lon="-2.71036">
        <ele>5.8</ele>
        <time>2026-08-20T13:19:23Z</time>
      </trkpt>
      <trkpt lat="47.64681" lon="-2.71031">
        <ele>5.9</ele>
        <time>2026-08-20T13:19:24Z</time>
      </trkpt>
      <trkpt lat="47.64677" lon="-2.71025">
        <ele>5.8</ele>
        <time>2026-08-20T13:19:25Z</time>
      </trkpt>
      <trkpt lat="47.64673" lon="-2.71019">
        <ele>5.8</ele>
        <time>2026-08-20T13:19:26Z</time>
      </trkpt>
      <trkpt lat="47.64668" lon="-2.71014">
        <ele>5.6</ele>
        <time>2026-08-20T13:19:27Z</time>
      </trkpt>
      <trkpt lat="47.64664" lon="-2.71008">
        <ele>5.5</ele>
        <time>2026-08-20T13:19:28Z</time>
      </trkpt>
      <trkpt lat="47.6466" lon="-2.71002">
        <ele>5.4</ele>
        <time>2026-08-20T13:19:29Z</time>
      </trkpt>
      <trkpt lat="47.64656" lon="-2.70996">
        <ele>5.1</ele>
        <time>2026-08-20T13:19:30Z</time>
      </trkpt>
      <trkpt lat="47.64652" lon="-2.7099">
        <ele>4.8</ele>
        <time>2026-08-20T13:19:31Z</time>
      </trkpt>
      <trkpt lat="47.64648" lon="-2.70984">
        <ele>4.5</ele>
        <time>2026-08-20T13:19:32Z</time>
      </trkpt>
      <trkpt lat="47.64644" lon="-2.70978">
        <ele>4.2</ele>
        <time>2026-08-20T13:19:33Z</time>
      </trkpt>
      <trkpt lat="47.6464" lon="-2.70972">
        <ele>4.1</ele>
        <time>2026-08-20T13:19:34Z</time>
      </trkpt>
      <trkpt lat="47.64636" lon="-2.70966">
        <ele>4.4</ele>
        <time>2026-08-20T13:19:35Z</time>
      </trkpt>
      <trkpt lat="47.64632" lon="-2.7096">
        <ele>4.7</ele>
        <time>2026-08-20T13:19:36Z</time>
      </trkpt>
      <trkpt lat="47.64628" lon="-2.70953">
        <ele>4.8</ele>
        <time>2026-08-20T13:19:37Z</time>
      </trkpt>
      <trkpt lat="47.64624" lon="-2.70948">
        <ele>4.8</ele>
        <time>2026-08-20T13:19:38Z</time>
      </trkpt>
      <trkpt lat="47.6462" lon="-2.70942">
        <ele>4.6</ele>
        <time>2026-08-20T13:19:39Z</time>
      </trkpt>
      <trkpt lat="47.64616" lon="-2.70936">
        <ele>4.3</ele>
        <time>2026-08-20T13:19:40Z</time>
      </trkpt>
      <trkpt lat="47.64612" lon="-2.7093">
        <ele>4</ele>
        <time>2026-08-20T13:19:41Z</time>
      </trkpt>
      <trkpt lat="47.64609" lon="-2.70925">
        <ele>4</ele>
        <time>2026-08-20T13:19:42Z</time>
      </trkpt>
      <trkpt lat="47.64605" lon="-2.7092">
        <ele>4</ele>
        <time>2026-08-20T13:19:43Z</time>
      </trkpt>
      <trkpt lat="47.64601" lon="-2.70914">
        <ele>4.1</ele>
        <time>2026-08-20T13:19:44Z</time>
      </trkpt>
      <trkpt lat="47.64597" lon="-2.70908">
        <ele>4.3</ele>
        <time>2026-08-20T13:19:45Z</time>
      </trkpt>
      <trkpt lat="47.64594" lon="-2.70903">
        <ele>4.4</ele>
        <time>2026-08-20T13:19:46Z</time>
      </trkpt>
      <trkpt lat="47.6459" lon="-2.70897">
        <ele>4.3</ele>
        <time>2026-08-20T13:19:47Z</time>
      </trkpt>
      <trkpt lat="47.64586" lon="-2.70892">
        <ele>4.2</ele>
        <time>2026-08-20T13:19:48Z</time>
      </trkpt>
      <trkpt lat="47.64582" lon="-2.70886">
        <ele>4.1</ele>
        <time>2026-08-20T13:19:49Z</time>
      </trkpt>
      <trkpt lat="47.64578" lon="-2.70881">
        <ele>4.2</ele>
        <time>2026-08-20T13:19:50Z</time>
      </trkpt>
      <trkpt lat="47.64574" lon="-2.70875">
        <ele>4.3</ele>
        <time>2026-08-20T13:19:51Z</time>
      </trkpt>
      <trkpt lat="47.6457" lon="-2.7087">
        <ele>4.4</ele>
        <time>2026-08-20T13:19:52Z</time>
      </trkpt>
      <trkpt lat="47.64566" lon="-2.70865">
        <ele>4.3</ele>
        <time>2026-08-20T13:19:53Z</time>
      </trkpt>
      <trkpt lat="47.64563" lon="-2.7086">
        <ele>4.3</ele>
        <time>2026-08-20T13:19:54Z</time>
      </trkpt>
      <trkpt lat="47.64559" lon="-2.70854">
        <ele>4.1</ele>
        <time>2026-08-20T13:19:55Z</time>
      </trkpt>
      <trkpt lat="47.64555" lon="-2.70849">
        <ele>4</ele>
        <time>2026-08-20T13:19:56Z</time>
      </trkpt>
      <trkpt lat="47.64551" lon="-2.70843">
        <ele>3.8</ele>
        <time>2026-08-20T13:19:57Z</time>
      </trkpt>
      <trkpt lat="47.64547" lon="-2.70837">
        <ele>3.7</ele>
        <time>2026-08-20T13:19:58Z</time>
      </trkpt>
      <trkpt lat="47.64543" lon="-2.70832">
        <ele>3.6</ele>
        <time>2026-08-20T13:19:59Z</time>
      </trkpt>
      <trkpt lat="47.6454" lon="-2.70826">
        <ele>3.7</ele>
        <time>2026-08-20T13:20:00Z</time>
      </trkpt>
      <trkpt lat="47.64536" lon="-2.70821">
        <ele>3.7</ele>
        <time>2026-08-20T13:20:01Z</time>
      </trkpt>
      <trkpt lat="47.64532" lon="-2.70815">
        <ele>3.8</ele>
        <time>2026-08-20T13:20:02Z</time>
      </trkpt>
      <trkpt lat="47.64528" lon="-2.70809">
        <ele>3.9</ele>
        <time>2026-08-20T13:20:03Z</time>
      </trkpt>
      <trkpt lat="47.64525" lon="-2.70803">
        <ele>3.9</ele>
        <time>2026-08-20T13:20:04Z</time>
      </trkpt>
      <trkpt lat="47.64521" lon="-2.70798">
        <ele>3.8</ele>
        <time>2026-08-20T13:20:05Z</time>
      </trkpt>
      <trkpt lat="47.64517" lon="-2.70793">
        <ele>3.6</ele>
        <time>2026-08-20T13:20:06Z</time>
      </trkpt>
      <trkpt lat="47.64513" lon="-2.70787">
        <ele>3.5</ele>
        <time>2026-08-20T13:20:07Z</time>
      </trkpt>
      <trkpt lat="47.6451" lon="-2.70782">
        <ele>3.4</ele>
        <time>2026-08-20T13:20:08Z</time>
      </trkpt>
      <trkpt lat="47.64506" lon="-2.70777">
        <ele>3.2</ele>
        <time>2026-08-20T13:20:09Z</time>
      </trkpt>
      <trkpt lat="47.64503" lon="-2.70772">
        <ele>3.3</ele>
        <time>2026-08-20T13:20:10Z</time>
      </trkpt>
      <trkpt lat="47.64499" lon="-2.70767">
        <ele>3.4</ele>
        <time>2026-08-20T13:20:11Z</time>
      </trkpt>
      <trkpt lat="47.64496" lon="-2.70762">
        <ele>3.5</ele>
        <time>2026-08-20T13:20:12Z</time>
      </trkpt>
      <trkpt lat="47.64492" lon="-2.70756">
        <ele>3.6</ele>
        <time>2026-08-20T13:20:13Z</time>
      </trkpt>
      <trkpt lat="47.64489" lon="-2.70751">
        <ele>3.6</ele>
        <time>2026-08-20T13:20:14Z</time>
      </trkpt>
      <trkpt lat="47.64485" lon="-2.70747">
        <ele>3.6</ele>
        <time>2026-08-20T13:20:15Z</time>
      </trkpt>
      <trkpt lat="47.64482" lon="-2.70742">
        <ele>3.6</ele>
        <time>2026-08-20T13:20:16Z</time>
      </trkpt>
      <trkpt lat="47.64479" lon="-2.70737">
        <ele>3.7</ele>
        <time>2026-08-20T13:20:17Z</time>
      </trkpt>
      <trkpt lat="47.64475" lon="-2.70732">
        <ele>3.7</ele>
        <time>2026-08-20T13:20:18Z</time>
      </trkpt>
      <trkpt lat="47.64472" lon="-2.70727">
        <ele>3.8</ele>
        <time>2026-08-20T13:20:19Z</time>
      </trkpt>
      <trkpt lat="47.64469" lon="-2.70722">
        <ele>3.9</ele>
        <time>2026-08-20T13:20:20Z</time>
      </trkpt>
      <trkpt lat="47.64466" lon="-2.70717">
        <ele>4</ele>
        <time>2026-08-20T13:20:21Z</time>
      </trkpt>
      <trkpt lat="47.64462" lon="-2.70712">
        <ele>4</ele>
        <time>2026-08-20T13:20:22Z</time>
      </trkpt>
      <trkpt lat="47.6446" lon="-2.70708">
        <ele>4.1</ele>
        <time>2026-08-20T13:20:23Z</time>
      </trkpt>
      <trkpt lat="47.64457" lon="-2.70704">
        <ele>4.1</ele>
        <time>2026-08-20T13:20:24Z</time>
      </trkpt>
      <trkpt lat="47.64454" lon="-2.70699">
        <ele>4.2</ele>
        <time>2026-08-20T13:20:25Z</time>
      </trkpt>
      <trkpt lat="47.6445" lon="-2.70694">
        <ele>4.2</ele>
        <time>2026-08-20T13:20:26Z</time>
      </trkpt>
      <trkpt lat="47.64446" lon="-2.70688">
        <ele>4.1</ele>
        <time>2026-08-20T13:20:27Z</time>
      </trkpt>
      <trkpt lat="47.64442" lon="-2.70682">
        <ele>3.9</ele>
        <time>2026-08-20T13:20:28Z</time>
      </trkpt>
      <trkpt lat="47.64438" lon="-2.70676">
        <ele>3.7</ele>
        <time>2026-08-20T13:20:29Z</time>
      </trkpt>
      <trkpt lat="47.64434" lon="-2.70671">
        <ele>3.6</ele>
        <time>2026-08-20T13:20:30Z</time>
      </trkpt>
      <trkpt lat="47.6443" lon="-2.70665">
        <ele>3.5</ele>
        <time>2026-08-20T13:20:31Z</time>
      </trkpt>
      <trkpt lat="47.64426" lon="-2.70659">
        <ele>3.6</ele>
        <time>2026-08-20T13:20:32Z</time>
      </trkpt>
      <trkpt lat="47.64421" lon="-2.70654">
        <ele>3.6</ele>
        <time>2026-08-20T13:20:33Z</time>
      </trkpt>
      <trkpt lat="47.64417" lon="-2.70648">
        <ele>3.7</ele>
        <time>2026-08-20T13:20:34Z</time>
      </trkpt>
      <trkpt lat="47.64413" lon="-2.70642">
        <ele>3.8</ele>
        <time>2026-08-20T13:20:35Z</time>
      </trkpt>
      <trkpt lat="47.64409" lon="-2.70637">
        <ele>3.8</ele>
        <time>2026-08-20T13:20:36Z</time>
      </trkpt>
      <trkpt lat="47.64405" lon="-2.70631">
        <ele>3.9</ele>
        <time>2026-08-20T13:20:37Z</time>
      </trkpt>
      <trkpt lat="47.64402" lon="-2.70626">
        <ele>3.9</ele>
        <time>2026-08-20T13:20:38Z</time>
      </trkpt>
      <trkpt lat="47.64398" lon="-2.7062">
        <ele>4</ele>
        <time>2026-08-20T13:20:39Z</time>
      </trkpt>
      <trkpt lat="47.64394" lon="-2.70614">
        <ele>4.1</ele>
        <time>2026-08-20T13:20:40Z</time>
      </trkpt>
      <trkpt lat="47.6439" lon="-2.70609">
        <ele>4</ele>
        <time>2026-08-20T13:20:41Z</time>
      </trkpt>
      <trkpt lat="47.64386" lon="-2.70604">
        <ele>3.9</ele>
        <time>2026-08-20T13:20:42Z</time>
      </trkpt>
      <trkpt lat="47.64383" lon="-2.70599">
        <ele>3.8</ele>
        <time>2026-08-20T13:20:43Z</time>
      </trkpt>
      <trkpt lat="47.64379" lon="-2.70594">
        <ele>3.6</ele>
        <time>2026-08-20T13:20:44Z</time>
      </trkpt>
      <trkpt lat="47.64376" lon="-2.70588">
        <ele>3.5</ele>
        <time>2026-08-20T13:20:45Z</time>
      </trkpt>
      <trkpt lat="47.64372" lon="-2.70584">
        <ele>3.4</ele>
        <time>2026-08-20T13:20:46Z</time>
      </trkpt>
      <trkpt lat="47.64369" lon="-2.70579">
        <ele>3.4</ele>
        <time>2026-08-20T13:20:47Z</time>
      </trkpt>
      <trkpt lat="47.64365" lon="-2.70575">
        <ele>3.4</ele>
        <time>2026-08-20T13:20:48Z</time>
      </trkpt>
      <trkpt lat="47.64362" lon="-2.7057">
        <ele>3.5</ele>
        <time>2026-08-20T13:20:49Z</time>
      </trkpt>
      <trkpt lat="47.64359" lon="-2.70565">
        <ele>3.6</ele>
        <time>2026-08-20T13:20:50Z</time>
      </trkpt>
      <trkpt lat="47.64355" lon="-2.7056">
        <ele>3.6</ele>
        <time>2026-08-20T13:20:51Z</time>
      </trkpt>
      <trkpt lat="47.64352" lon="-2.70556">
        <ele>3.7</ele>
        <time>2026-08-20T13:20:52Z</time>
      </trkpt>
      <trkpt lat="47.64349" lon="-2.70551">
        <ele>3.6</ele>
        <time>2026-08-20T13:20:53Z</time>
      </trkpt>
      <trkpt lat="47.64346" lon="-2.70547">
        <ele>3.5</ele>
        <time>2026-08-20T13:20:54Z</time>
      </trkpt>
      <trkpt lat="47.64343" lon="-2.70542">
        <ele>3.3</ele>
        <time>2026-08-20T13:20:55Z</time>
      </trkpt>
      <trkpt lat="47.64339" lon="-2.70537">
        <ele>3.2</ele>
        <time>2026-08-20T13:20:56Z</time>
      </trkpt>
      <trkpt lat="47.64335" lon="-2.70531">
        <ele>3.1</ele>
        <time>2026-08-20T13:20:57Z</time>
      </trkpt>
      <trkpt lat="47.64332" lon="-2.70525">
        <ele>3</ele>
        <time>2026-08-20T13:20:58Z</time>
      </trkpt>
      <trkpt lat="47.64329" lon="-2.7052">
        <ele>3</ele>
        <time>2026-08-20T13:20:59Z</time>
      </trkpt>
      <trkpt lat="47.64326" lon="-2.70515">
        <ele>3</ele>
        <time>2026-08-20T13:21:00Z</time>
      </trkpt>
      <trkpt lat="47.64323" lon="-2.7051">
        <ele>3</ele>
        <time>2026-08-20T13:21:01Z</time>
      </trkpt>
      <trkpt lat="47.64319" lon="-2.70505">
        <ele>3</ele>
        <time>2026-08-20T13:21:02Z</time>
      </trkpt>
      <trkpt lat="47.64316" lon="-2.705">
        <ele>3</ele>
        <time>2026-08-20T13:21:03Z</time>
      </trkpt>
      <trkpt lat="47.64312" lon="-2.70494">
        <ele>3.2</ele>
        <time>2026-08-20T13:21:04Z</time>
      </trkpt>
      <trkpt lat="47.64308" lon="-2.70489">
        <ele>3.4</ele>
        <time>2026-08-20T13:21:05Z</time>
      </trkpt>
      <trkpt lat="47.64304" lon="-2.70483">
        <ele>3.6</ele>
        <time>2026-08-20T13:21:06Z</time>
      </trkpt>
      <trkpt lat="47.643" lon="-2.70477">
        <ele>3.8</ele>
        <time>2026-08-20T13:21:07Z</time>
      </trkpt>
      <trkpt lat="47.64296" lon="-2.70472">
        <ele>4</ele>
        <time>2026-08-20T13:21:08Z</time>
      </trkpt>
      <trkpt lat="47.64292" lon="-2.70467">
        <ele>4</ele>
        <time>2026-08-20T13:21:09Z</time>
      </trkpt>
      <trkpt lat="47.64289" lon="-2.70462">
        <ele>4</ele>
        <time>2026-08-20T13:21:10Z</time>
      </trkpt>
      <trkpt lat="47.64285" lon="-2.70456">
        <ele>4</ele>
        <time>2026-08-20T13:21:11Z</time>
      </trkpt>
      <trkpt lat="47.64282" lon="-2.70451">
        <ele>4</ele>
        <time>2026-08-20T13:21:12Z</time>
      </trkpt>
      <trkpt lat="47.64279" lon="-2.70447">
        <ele>4</ele>
        <time>2026-08-20T13:21:13Z</time>
      </trkpt>
      <trkpt lat="47.64276" lon="-2.70442">
        <ele>4.2</ele>
        <time>2026-08-20T13:21:14Z</time>
      </trkpt>
      <trkpt lat="47.64272" lon="-2.70437">
        <ele>4.5</ele>
        <time>2026-08-20T13:21:15Z</time>
      </trkpt>
      <trkpt lat="47.64269" lon="-2.70432">
        <ele>4.8</ele>
        <time>2026-08-20T13:21:16Z</time>
      </trkpt>
      <trkpt lat="47.64266" lon="-2.70428">
        <ele>5</ele>
        <time>2026-08-20T13:21:17Z</time>
      </trkpt>
      <trkpt lat="47.64263" lon="-2.70424">
        <ele>5.3</ele>
        <time>2026-08-20T13:21:18Z</time>
      </trkpt>
      <trkpt lat="47.6426" lon="-2.7042">
        <ele>5.5</ele>
        <time>2026-08-20T13:21:19Z</time>
      </trkpt>
      <trkpt lat="47.64257" lon="-2.70416">
        <ele>5.7</ele>
        <time>2026-08-20T13:21:20Z</time>
      </trkpt>
      <trkpt lat="47.64254" lon="-2.70412">
        <ele>5.9</ele>
        <time>2026-08-20T13:21:21Z</time>
      </trkpt>
      <trkpt lat="47.64252" lon="-2.70408">
        <ele>5.9</ele>
        <time>2026-08-20T13:21:22Z</time>
      </trkpt>
      <trkpt lat="47.64248" lon="-2.70403">
        <ele>6.1</ele>
        <time>2026-08-20T13:21:23Z</time>
      </trkpt>
      <trkpt lat="47.64245" lon="-2.70399">
        <ele>6.2</ele>
        <time>2026-08-20T13:21:24Z</time>
      </trkpt>
      <trkpt lat="47.64242" lon="-2.70394">
        <ele>6.3</ele>
        <time>2026-08-20T13:21:25Z</time>
      </trkpt>
      <trkpt lat="47.64239" lon="-2.70389">
        <ele>6.4</ele>
        <time>2026-08-20T13:21:26Z</time>
      </trkpt>
      <trkpt lat="47.64236" lon="-2.70385">
        <ele>6.4</ele>
        <time>2026-08-20T13:21:27Z</time>
      </trkpt>
      <trkpt lat="47.64234" lon="-2.7038">
        <ele>6.4</ele>
        <time>2026-08-20T13:21:28Z</time>
      </trkpt>
      <trkpt lat="47.64231" lon="-2.70376">
        <ele>6.4</ele>
        <time>2026-08-20T13:21:29Z</time>
      </trkpt>
      <trkpt lat="47.64228" lon="-2.70372">
        <ele>6.3</ele>
        <time>2026-08-20T13:21:30Z</time>
      </trkpt>
      <trkpt lat="47.64224" lon="-2.70367">
        <ele>6.2</ele>
        <time>2026-08-20T13:21:31Z</time>
      </trkpt>
      <trkpt lat="47.64221" lon="-2.70362">
        <ele>6.1</ele>
        <time>2026-08-20T13:21:32Z</time>
      </trkpt>
      <trkpt lat="47.64218" lon="-2.70358">
        <ele>6.3</ele>
        <time>2026-08-20T13:21:33Z</time>
      </trkpt>
      <trkpt lat="47.64215" lon="-2.70354">
        <ele>6.6</ele>
        <time>2026-08-20T13:21:34Z</time>
      </trkpt>
      <trkpt lat="47.64212" lon="-2.70349">
        <ele>6.8</ele>
        <time>2026-08-20T13:21:35Z</time>
      </trkpt>
      <trkpt lat="47.64209" lon="-2.70345">
        <ele>6.8</ele>
        <time>2026-08-20T13:21:36Z</time>
      </trkpt>
      <trkpt lat="47.64206" lon="-2.7034">
        <ele>6.8</ele>
        <time>2026-08-20T13:21:37Z</time>
      </trkpt>
      <trkpt lat="47.64203" lon="-2.70336">
        <ele>6.6</ele>
        <time>2026-08-20T13:21:38Z</time>
      </trkpt>
      <trkpt lat="47.642" lon="-2.70331">
        <ele>6.5</ele>
        <time>2026-08-20T13:21:39Z</time>
      </trkpt>
      <trkpt lat="47.64197" lon="-2.70326">
        <ele>6.4</ele>
        <time>2026-08-20T13:21:40Z</time>
      </trkpt>
      <trkpt lat="47.64193" lon="-2.70321">
        <ele>6.4</ele>
        <time>2026-08-20T13:21:41Z</time>
      </trkpt>
      <trkpt lat="47.6419" lon="-2.70316">
        <ele>6.6</ele>
        <time>2026-08-20T13:21:42Z</time>
      </trkpt>
      <trkpt lat="47.64187" lon="-2.70311">
        <ele>6.6</ele>
        <time>2026-08-20T13:21:43Z</time>
      </trkpt>
      <trkpt lat="47.64184" lon="-2.70306">
        <ele>6.6</ele>
        <time>2026-08-20T13:21:44Z</time>
      </trkpt>
      <trkpt lat="47.6418" lon="-2.70301">
        <ele>6.3</ele>
        <time>2026-08-20T13:21:45Z</time>
      </trkpt>
      <trkpt lat="47.64176" lon="-2.70296">
        <ele>6</ele>
        <time>2026-08-20T13:21:46Z</time>
      </trkpt>
      <trkpt lat="47.64172" lon="-2.70291">
        <ele>5.7</ele>
        <time>2026-08-20T13:21:47Z</time>
      </trkpt>
      <trkpt lat="47.64169" lon="-2.70286">
        <ele>5.4</ele>
        <time>2026-08-20T13:21:48Z</time>
      </trkpt>
      <trkpt lat="47.64165" lon="-2.7028">
        <ele>5.1</ele>
        <time>2026-08-20T13:21:49Z</time>
      </trkpt>
      <trkpt lat="47.64161" lon="-2.70274">
        <ele>5</ele>
        <time>2026-08-20T13:21:50Z</time>
      </trkpt>
      <trkpt lat="47.64157" lon="-2.70268">
        <ele>5</ele>
        <time>2026-08-20T13:21:51Z</time>
      </trkpt>
      <trkpt lat="47.64153" lon="-2.70263">
        <ele>5</ele>
        <time>2026-08-20T13:21:52Z</time>
      </trkpt>
      <trkpt lat="47.64148" lon="-2.70257">
        <ele>5</ele>
        <time>2026-08-20T13:21:53Z</time>
      </trkpt>
      <trkpt lat="47.64144" lon="-2.70251">
        <ele>5</ele>
        <time>2026-08-20T13:21:54Z</time>
      </trkpt>
      <trkpt lat="47.6414" lon="-2.70245">
        <ele>4.8</ele>
        <time>2026-08-20T13:21:55Z</time>
      </trkpt>
      <trkpt lat="47.64136" lon="-2.70239">
        <ele>4.5</ele>
        <time>2026-08-20T13:21:56Z</time>
      </trkpt>
      <trkpt lat="47.64132" lon="-2.70233">
        <ele>4.3</ele>
        <time>2026-08-20T13:21:57Z</time>
      </trkpt>
      <trkpt lat="47.64128" lon="-2.70228">
        <ele>4.1</ele>
        <time>2026-08-20T13:21:58Z</time>
      </trkpt>
      <trkpt lat="47.64124" lon="-2.70222">
        <ele>4</ele>
        <time>2026-08-20T13:21:59Z</time>
      </trkpt>
      <trkpt lat="47.6412" lon="-2.70217">
        <ele>4</ele>
        <time>2026-08-20T13:22:00Z</time>
      </trkpt>
      <trkpt lat="47.64117" lon="-2.70212">
        <ele>4</ele>
        <time>2026-08-20T13:22:01Z</time>
      </trkpt>
      <trkpt lat="47.64114" lon="-2.70208">
        <ele>4</ele>
        <time>2026-08-20T13:22:02Z</time>
      </trkpt>
      <trkpt lat="47.64111" lon="-2.70203">
        <ele>4</ele>
        <time>2026-08-20T13:22:03Z</time>
      </trkpt>
      <trkpt lat="47.64108" lon="-2.70199">
        <ele>4</ele>
        <time>2026-08-20T13:22:04Z</time>
      </trkpt>
      <trkpt lat="47.64105" lon="-2.70194">
        <ele>4</ele>
        <time>2026-08-20T13:22:05Z</time>
      </trkpt>
      <trkpt lat="47.64102" lon="-2.70189">
        <ele>4</ele>
        <time>2026-08-20T13:22:06Z</time>
      </trkpt>
      <trkpt lat="47.64097" lon="-2.70183">
        <ele>4</ele>
        <time>2026-08-20T13:22:07Z</time>
      </trkpt>
      <trkpt lat="47.64093" lon="-2.70177">
        <ele>4</ele>
        <time>2026-08-20T13:22:08Z</time>
      </trkpt>
      <trkpt lat="47.64089" lon="-2.70171">
        <ele>4</ele>
        <time>2026-08-20T13:22:09Z</time>
      </trkpt>
      <trkpt lat="47.64085" lon="-2.70165">
        <ele>4</ele>
        <time>2026-08-20T13:22:10Z</time>
      </trkpt>
      <trkpt lat="47.64081" lon="-2.7016">
        <ele>4</ele>
        <time>2026-08-20T13:22:11Z</time>
      </trkpt>
      <trkpt lat="47.64078" lon="-2.70155">
        <ele>4</ele>
        <time>2026-08-20T13:22:12Z</time>
      </trkpt>
      <trkpt lat="47.64074" lon="-2.7015">
        <ele>4</ele>
        <time>2026-08-20T13:22:13Z</time>
      </trkpt>
      <trkpt lat="47.6407" lon="-2.70144">
        <ele>4</ele>
        <time>2026-08-20T13:22:14Z</time>
      </trkpt>
      <trkpt lat="47.64066" lon="-2.70139">
        <ele>4</ele>
        <time>2026-08-20T13:22:15Z</time>
      </trkpt>
      <trkpt lat="47.64063" lon="-2.70133">
        <ele>4.2</ele>
        <time>2026-08-20T13:22:16Z</time>
      </trkpt>
      <trkpt lat="47.64059" lon="-2.70127">
        <ele>4.4</ele>
        <time>2026-08-20T13:22:17Z</time>
      </trkpt>
      <trkpt lat="47.64055" lon="-2.70122">
        <ele>4.6</ele>
        <time>2026-08-20T13:22:18Z</time>
      </trkpt>
      <trkpt lat="47.64052" lon="-2.70117">
        <ele>4.8</ele>
        <time>2026-08-20T13:22:19Z</time>
      </trkpt>
      <trkpt lat="47.64048" lon="-2.70112">
        <ele>5</ele>
        <time>2026-08-20T13:22:20Z</time>
      </trkpt>
      <trkpt lat="47.64045" lon="-2.70107">
        <ele>5.1</ele>
        <time>2026-08-20T13:22:21Z</time>
      </trkpt>
      <trkpt lat="47.64041" lon="-2.70102">
        <ele>5.2</ele>
        <time>2026-08-20T13:22:22Z</time>
      </trkpt>
      <trkpt lat="47.64037" lon="-2.70097">
        <ele>5.3</ele>
        <time>2026-08-20T13:22:23Z</time>
      </trkpt>
      <trkpt lat="47.64034" lon="-2.70092">
        <ele>5.5</ele>
        <time>2026-08-20T13:22:24Z</time>
      </trkpt>
      <trkpt lat="47.6403" lon="-2.70086">
        <ele>5.8</ele>
        <time>2026-08-20T13:22:25Z</time>
      </trkpt>
      <trkpt lat="47.64027" lon="-2.70082">
        <ele>6</ele>
        <time>2026-08-20T13:22:26Z</time>
      </trkpt>
      <trkpt lat="47.64024" lon="-2.70077">
        <ele>6.1</ele>
        <time>2026-08-20T13:22:27Z</time>
      </trkpt>
      <trkpt lat="47.6402" lon="-2.70073">
        <ele>6.1</ele>
        <time>2026-08-20T13:22:28Z</time>
      </trkpt>
      <trkpt lat="47.64017" lon="-2.70068">
        <ele>6.2</ele>
        <time>2026-08-20T13:22:29Z</time>
      </trkpt>
      <trkpt lat="47.64014" lon="-2.70063">
        <ele>6.2</ele>
        <time>2026-08-20T13:22:30Z</time>
      </trkpt>
      <trkpt lat="47.6401" lon="-2.70058">
        <ele>6.3</ele>
        <time>2026-08-20T13:22:31Z</time>
      </trkpt>
      <trkpt lat="47.64007" lon="-2.70053">
        <ele>6.3</ele>
        <time>2026-08-20T13:22:32Z</time>
      </trkpt>
      <trkpt lat="47.64004" lon="-2.70048">
        <ele>6.4</ele>
        <time>2026-08-20T13:22:33Z</time>
      </trkpt>
      <trkpt lat="47.64001" lon="-2.70044">
        <ele>6.5</ele>
        <time>2026-08-20T13:22:34Z</time>
      </trkpt>
      <trkpt lat="47.63998" lon="-2.70039">
        <ele>6.6</ele>
        <time>2026-08-20T13:22:35Z</time>
      </trkpt>
      <trkpt lat="47.63995" lon="-2.70035">
        <ele>6.6</ele>
        <time>2026-08-20T13:22:36Z</time>
      </trkpt>
      <trkpt lat="47.63993" lon="-2.70031">
        <ele>6.7</ele>
        <time>2026-08-20T13:22:37Z</time>
      </trkpt>
      <trkpt lat="47.6399" lon="-2.70026">
        <ele>6.7</ele>
        <time>2026-08-20T13:22:38Z</time>
      </trkpt>
      <trkpt lat="47.63987" lon="-2.70021">
        <ele>6.8</ele>
        <time>2026-08-20T13:22:39Z</time>
      </trkpt>
      <trkpt lat="47.63984" lon="-2.70016">
        <ele>6.8</ele>
        <time>2026-08-20T13:22:40Z</time>
      </trkpt>
      <trkpt lat="47.63981" lon="-2.70011">
        <ele>6.9</ele>
        <time>2026-08-20T13:22:41Z</time>
      </trkpt>
      <trkpt lat="47.63977" lon="-2.70006">
        <ele>7</ele>
        <time>2026-08-20T13:22:42Z</time>
      </trkpt>
      <trkpt lat="47.63974" lon="-2.70001">
        <ele>7</ele>
        <time>2026-08-20T13:22:43Z</time>
      </trkpt>
      <trkpt lat="47.63971" lon="-2.69996">
        <ele>7</ele>
        <time>2026-08-20T13:22:44Z</time>
      </trkpt>
      <trkpt lat="47.63968" lon="-2.6999">
        <ele>6.8</ele>
        <time>2026-08-20T13:22:45Z</time>
      </trkpt>
      <trkpt lat="47.63965" lon="-2.69985">
        <ele>6.7</ele>
        <time>2026-08-20T13:22:46Z</time>
      </trkpt>
      <trkpt lat="47.63963" lon="-2.6998">
        <ele>6.7</ele>
        <time>2026-08-20T13:22:47Z</time>
      </trkpt>
      <trkpt lat="47.6396" lon="-2.69974">
        <ele>6.6</ele>
        <time>2026-08-20T13:22:48Z</time>
      </trkpt>
      <trkpt lat="47.63958" lon="-2.69969">
        <ele>6.5</ele>
        <time>2026-08-20T13:22:49Z</time>
      </trkpt>
      <trkpt lat="47.63956" lon="-2.69963">
        <ele>6.6</ele>
        <time>2026-08-20T13:22:50Z</time>
      </trkpt>
      <trkpt lat="47.63954" lon="-2.69957">
        <ele>6.5</ele>
        <time>2026-08-20T13:22:51Z</time>
      </trkpt>
      <trkpt lat="47.63951" lon="-2.6995">
        <ele>6.4</ele>
        <time>2026-08-20T13:22:52Z</time>
      </trkpt>
      <trkpt lat="47.63948" lon="-2.69942">
        <ele>6.3</ele>
        <time>2026-08-20T13:22:53Z</time>
      </trkpt>
      <trkpt lat="47.63945" lon="-2.69934">
        <ele>6</ele>
        <time>2026-08-20T13:22:54Z</time>
      </trkpt>
      <trkpt lat="47.63942" lon="-2.69926">
        <ele>5.9</ele>
        <time>2026-08-20T13:22:55Z</time>
      </trkpt>
      <trkpt lat="47.63939" lon="-2.69918">
        <ele>5.8</ele>
        <time>2026-08-20T13:22:56Z</time>
      </trkpt>
      <trkpt lat="47.63937" lon="-2.69911">
        <ele>5.7</ele>
        <time>2026-08-20T13:22:57Z</time>
      </trkpt>
      <trkpt lat="47.63934" lon="-2.69904">
        <ele>5.6</ele>
        <time>2026-08-20T13:22:58Z</time>
      </trkpt>
      <trkpt lat="47.63931" lon="-2.69897">
        <ele>5.5</ele>
        <time>2026-08-20T13:22:59Z</time>
      </trkpt>
      <trkpt lat="47.63928" lon="-2.69889">
        <ele>5.4</ele>
        <time>2026-08-20T13:23:00Z</time>
      </trkpt>
      <trkpt lat="47.63926" lon="-2.69882">
        <ele>5.3</ele>
        <time>2026-08-20T13:23:01Z</time>
      </trkpt>
      <trkpt lat="47.63925" lon="-2.69874">
        <ele>5.3</ele>
        <time>2026-08-20T13:23:02Z</time>
      </trkpt>
      <trkpt lat="47.63923" lon="-2.69865">
        <ele>5.2</ele>
        <time>2026-08-20T13:23:03Z</time>
      </trkpt>
      <trkpt lat="47.63922" lon="-2.69856">
        <ele>5.2</ele>
        <time>2026-08-20T13:23:04Z</time>
      </trkpt>
      <trkpt lat="47.6392" lon="-2.69848">
        <ele>5.2</ele>
        <time>2026-08-20T13:23:05Z</time>
      </trkpt>
      <trkpt lat="47.63918" lon="-2.6984">
        <ele>5.1</ele>
        <time>2026-08-20T13:23:06Z</time>
      </trkpt>
      <trkpt lat="47.63916" lon="-2.69832">
        <ele>5</ele>
        <time>2026-08-20T13:23:07Z</time>
      </trkpt>
      <trkpt lat="47.63915" lon="-2.69823">
        <ele>4.9</ele>
        <time>2026-08-20T13:23:08Z</time>
      </trkpt>
      <trkpt lat="47.63914" lon="-2.69815">
        <ele>4.9</ele>
        <time>2026-08-20T13:23:09Z</time>
      </trkpt>
      <trkpt lat="47.63914" lon="-2.69807">
        <ele>4.9</ele>
        <time>2026-08-20T13:23:10Z</time>
      </trkpt>
      <trkpt lat="47.63913" lon="-2.69799">
        <ele>4.9</ele>
        <time>2026-08-20T13:23:11Z</time>
      </trkpt>
      <trkpt lat="47.63912" lon="-2.69791">
        <ele>4.8</ele>
        <time>2026-08-20T13:23:12Z</time>
      </trkpt>
      <trkpt lat="47.63912" lon="-2.69784">
        <ele>4.8</ele>
        <time>2026-08-20T13:23:13Z</time>
      </trkpt>
      <trkpt lat="47.63911" lon="-2.69776">
        <ele>4.8</ele>
        <time>2026-08-20T13:23:14Z</time>
      </trkpt>
      <trkpt lat="47.63911" lon="-2.69768">
        <ele>4.8</ele>
        <time>2026-08-20T13:23:15Z</time>
      </trkpt>
      <trkpt lat="47.6391" lon="-2.6976">
        <ele>4.8</ele>
        <time>2026-08-20T13:23:16Z</time>
      </trkpt>
      <trkpt lat="47.6391" lon="-2.69752">
        <ele>4.8</ele>
        <time>2026-08-20T13:23:17Z</time>
      </trkpt>
      <trkpt lat="47.6391" lon="-2.69744">
        <ele>4.8</ele>
        <time>2026-08-20T13:23:18Z</time>
      </trkpt>
      <trkpt lat="47.6391" lon="-2.69736">
        <ele>4.8</ele>
        <time>2026-08-20T13:23:19Z</time>
      </trkpt>
      <trkpt lat="47.63911" lon="-2.69728">
        <ele>4.8</ele>
        <time>2026-08-20T13:23:20Z</time>
      </trkpt>
      <trkpt lat="47.63911" lon="-2.6972">
        <ele>4.8</ele>
        <time>2026-08-20T13:23:21Z</time>
      </trkpt>
      <trkpt lat="47.63911" lon="-2.69712">
        <ele>4.8</ele>
        <time>2026-08-20T13:23:22Z</time>
      </trkpt>
      <trkpt lat="47.63912" lon="-2.69704">
        <ele>4.8</ele>
        <time>2026-08-20T13:23:23Z</time>
      </trkpt>
      <trkpt lat="47.63912" lon="-2.69696">
        <ele>4.8</ele>
        <time>2026-08-20T13:23:24Z</time>
      </trkpt>
      <trkpt lat="47.63913" lon="-2.69688">
        <ele>4.7</ele>
        <time>2026-08-20T13:23:25Z</time>
      </trkpt>
      <trkpt lat="47.63913" lon="-2.6968">
        <ele>4.4</ele>
        <time>2026-08-20T13:23:26Z</time>
      </trkpt>
      <trkpt lat="47.63914" lon="-2.69672">
        <ele>4.2</ele>
        <time>2026-08-20T13:23:27Z</time>
      </trkpt>
      <trkpt lat="47.63915" lon="-2.69664">
        <ele>4</ele>
        <time>2026-08-20T13:23:28Z</time>
      </trkpt>
      <trkpt lat="47.63915" lon="-2.69655">
        <ele>4</ele>
        <time>2026-08-20T13:23:29Z</time>
      </trkpt>
      <trkpt lat="47.63916" lon="-2.69647">
        <ele>4</ele>
        <time>2026-08-20T13:23:30Z</time>
      </trkpt>
      <trkpt lat="47.63916" lon="-2.69639">
        <ele>4</ele>
        <time>2026-08-20T13:23:31Z</time>
      </trkpt>
      <trkpt lat="47.63917" lon="-2.69632">
        <ele>4</ele>
        <time>2026-08-20T13:23:32Z</time>
      </trkpt>
      <trkpt lat="47.63917" lon="-2.69624">
        <ele>4</ele>
        <time>2026-08-20T13:23:33Z</time>
      </trkpt>
      <trkpt lat="47.63918" lon="-2.69617">
        <ele>4</ele>
        <time>2026-08-20T13:23:34Z</time>
      </trkpt>
      <trkpt lat="47.63919" lon="-2.6961">
        <ele>4.1</ele>
        <time>2026-08-20T13:23:35Z</time>
      </trkpt>
      <trkpt lat="47.63919" lon="-2.69602">
        <ele>4.1</ele>
        <time>2026-08-20T13:23:36Z</time>
      </trkpt>
      <trkpt lat="47.63919" lon="-2.69595">
        <ele>4.1</ele>
        <time>2026-08-20T13:23:37Z</time>
      </trkpt>
      <trkpt lat="47.6392" lon="-2.69587">
        <ele>4.1</ele>
        <time>2026-08-20T13:23:38Z</time>
      </trkpt>
      <trkpt lat="47.63921" lon="-2.69579">
        <ele>4.2</ele>
        <time>2026-08-20T13:23:39Z</time>
      </trkpt>
      <trkpt lat="47.63922" lon="-2.69571">
        <ele>4.2</ele>
        <time>2026-08-20T13:23:40Z</time>
      </trkpt>
      <trkpt lat="47.63923" lon="-2.69562">
        <ele>4.2</ele>
        <time>2026-08-20T13:23:41Z</time>
      </trkpt>
      <trkpt lat="47.63923" lon="-2.69554">
        <ele>4.3</ele>
        <time>2026-08-20T13:23:42Z</time>
      </trkpt>
      <trkpt lat="47.63924" lon="-2.69547">
        <ele>4.5</ele>
        <time>2026-08-20T13:23:43Z</time>
      </trkpt>
      <trkpt lat="47.63925" lon="-2.69539">
        <ele>4.7</ele>
        <time>2026-08-20T13:23:44Z</time>
      </trkpt>
      <trkpt lat="47.63927" lon="-2.69531">
        <ele>4.9</ele>
        <time>2026-08-20T13:23:45Z</time>
      </trkpt>
      <trkpt lat="47.63928" lon="-2.69523">
        <ele>4.9</ele>
        <time>2026-08-20T13:23:46Z</time>
      </trkpt>
      <trkpt lat="47.6393" lon="-2.69515">
        <ele>4.8</ele>
        <time>2026-08-20T13:23:47Z</time>
      </trkpt>
      <trkpt lat="47.63931" lon="-2.69507">
        <ele>4.6</ele>
        <time>2026-08-20T13:23:48Z</time>
      </trkpt>
      <trkpt lat="47.63932" lon="-2.695">
        <ele>4.6</ele>
        <time>2026-08-20T13:23:49Z</time>
      </trkpt>
      <trkpt lat="47.63933" lon="-2.69492">
        <ele>4.6</ele>
        <time>2026-08-20T13:23:50Z</time>
      </trkpt>
      <trkpt lat="47.63934" lon="-2.69484">
        <ele>4.6</ele>
        <time>2026-08-20T13:23:51Z</time>
      </trkpt>
      <trkpt lat="47.63935" lon="-2.69476">
        <ele>4.7</ele>
        <time>2026-08-20T13:23:52Z</time>
      </trkpt>
      <trkpt lat="47.63936" lon="-2.69468">
        <ele>4.7</ele>
        <time>2026-08-20T13:23:53Z</time>
      </trkpt>
      <trkpt lat="47.63937" lon="-2.6946">
        <ele>4.7</ele>
        <time>2026-08-20T13:23:54Z</time>
      </trkpt>
      <trkpt lat="47.63938" lon="-2.69452">
        <ele>4.8</ele>
        <time>2026-08-20T13:23:55Z</time>
      </trkpt>
      <trkpt lat="47.63938" lon="-2.69445">
        <ele>4.8</ele>
        <time>2026-08-20T13:23:56Z</time>
      </trkpt>
      <trkpt lat="47.6394" lon="-2.69437">
        <ele>4.8</ele>
        <time>2026-08-20T13:23:57Z</time>
      </trkpt>
      <trkpt lat="47.6394" lon="-2.69429">
        <ele>4.8</ele>
        <time>2026-08-20T13:23:58Z</time>
      </trkpt>
      <trkpt lat="47.63941" lon="-2.69421">
        <ele>4.9</ele>
        <time>2026-08-20T13:23:59Z</time>
      </trkpt>
      <trkpt lat="47.63942" lon="-2.69413">
        <ele>4.9</ele>
        <time>2026-08-20T13:24:00Z</time>
      </trkpt>
      <trkpt lat="47.63943" lon="-2.69406">
        <ele>4.9</ele>
        <time>2026-08-20T13:24:01Z</time>
      </trkpt>
      <trkpt lat="47.63944" lon="-2.69398">
        <ele>5</ele>
        <time>2026-08-20T13:24:02Z</time>
      </trkpt>
      <trkpt lat="47.63945" lon="-2.6939">
        <ele>5</ele>
        <time>2026-08-20T13:24:03Z</time>
      </trkpt>
      <trkpt lat="47.63945" lon="-2.69382">
        <ele>4.8</ele>
        <time>2026-08-20T13:24:04Z</time>
      </trkpt>
      <trkpt lat="47.63946" lon="-2.69374">
        <ele>4.5</ele>
        <time>2026-08-20T13:24:05Z</time>
      </trkpt>
      <trkpt lat="47.63947" lon="-2.69367">
        <ele>4.3</ele>
        <time>2026-08-20T13:24:06Z</time>
      </trkpt>
      <trkpt lat="47.63948" lon="-2.69359">
        <ele>4.1</ele>
        <time>2026-08-20T13:24:07Z</time>
      </trkpt>
      <trkpt lat="47.63949" lon="-2.69352">
        <ele>4.2</ele>
        <time>2026-08-20T13:24:08Z</time>
      </trkpt>
      <trkpt lat="47.6395" lon="-2.69345">
        <ele>4.2</ele>
        <time>2026-08-20T13:24:09Z</time>
      </trkpt>
      <trkpt lat="47.6395" lon="-2.69337">
        <ele>4.2</ele>
        <time>2026-08-20T13:24:10Z</time>
      </trkpt>
      <trkpt lat="47.6395" lon="-2.69329">
        <ele>4.2</ele>
        <time>2026-08-20T13:24:11Z</time>
      </trkpt>
      <trkpt lat="47.6395" lon="-2.69321">
        <ele>4.2</ele>
        <time>2026-08-20T13:24:12Z</time>
      </trkpt>
      <trkpt lat="47.6395" lon="-2.69313">
        <ele>4.2</ele>
        <time>2026-08-20T13:24:13Z</time>
      </trkpt>
      <trkpt lat="47.6395" lon="-2.69305">
        <ele>4.2</ele>
        <time>2026-08-20T13:24:14Z</time>
      </trkpt>
      <trkpt lat="47.6395" lon="-2.69296">
        <ele>4.2</ele>
        <time>2026-08-20T13:24:15Z</time>
      </trkpt>
      <trkpt lat="47.63949" lon="-2.69287">
        <ele>4.2</ele>
        <time>2026-08-20T13:24:16Z</time>
      </trkpt>
      <trkpt lat="47.63949" lon="-2.69279">
        <ele>4.2</ele>
        <time>2026-08-20T13:24:17Z</time>
      </trkpt>
      <trkpt lat="47.63948" lon="-2.69271">
        <ele>4.1</ele>
        <time>2026-08-20T13:24:18Z</time>
      </trkpt>
      <trkpt lat="47.63948" lon="-2.69262">
        <ele>4.1</ele>
        <time>2026-08-20T13:24:19Z</time>
      </trkpt>
      <trkpt lat="47.63946" lon="-2.69254">
        <ele>4.1</ele>
        <time>2026-08-20T13:24:20Z</time>
      </trkpt>
      <trkpt lat="47.63945" lon="-2.69246">
        <ele>4</ele>
        <time>2026-08-20T13:24:21Z</time>
      </trkpt>
      <trkpt lat="47.63944" lon="-2.69238">
        <ele>4</ele>
        <time>2026-08-20T13:24:22Z</time>
      </trkpt>
      <trkpt lat="47.63942" lon="-2.6923">
        <ele>4</ele>
        <time>2026-08-20T13:24:23Z</time>
      </trkpt>
      <trkpt lat="47.63941" lon="-2.69222">
        <ele>4</ele>
        <time>2026-08-20T13:24:24Z</time>
      </trkpt>
      <trkpt lat="47.63939" lon="-2.69214">
        <ele>4.2</ele>
        <time>2026-08-20T13:24:25Z</time>
      </trkpt>
      <trkpt lat="47.63937" lon="-2.69206">
        <ele>4.4</ele>
        <time>2026-08-20T13:24:26Z</time>
      </trkpt>
      <trkpt lat="47.63936" lon="-2.69199">
        <ele>4.6</ele>
        <time>2026-08-20T13:24:27Z</time>
      </trkpt>
      <trkpt lat="47.63933" lon="-2.69192">
        <ele>4.6</ele>
        <time>2026-08-20T13:24:28Z</time>
      </trkpt>
      <trkpt lat="47.63931" lon="-2.69186">
        <ele>4.5</ele>
        <time>2026-08-20T13:24:29Z</time>
      </trkpt>
      <trkpt lat="47.63929" lon="-2.69179">
        <ele>4.4</ele>
        <time>2026-08-20T13:24:30Z</time>
      </trkpt>
      <trkpt lat="47.63927" lon="-2.69172">
        <ele>4.4</ele>
        <time>2026-08-20T13:24:31Z</time>
      </trkpt>
      <trkpt lat="47.63925" lon="-2.69165">
        <ele>4.3</ele>
        <time>2026-08-20T13:24:32Z</time>
      </trkpt>
      <trkpt lat="47.63923" lon="-2.69159">
        <ele>4.2</ele>
        <time>2026-08-20T13:24:33Z</time>
      </trkpt>
      <trkpt lat="47.63921" lon="-2.69153">
        <ele>4.2</ele>
        <time>2026-08-20T13:24:34Z</time>
      </trkpt>
      <trkpt lat="47.63918" lon="-2.69148">
        <ele>4</ele>
        <time>2026-08-20T13:24:35Z</time>
      </trkpt>
      <trkpt lat="47.63916" lon="-2.69143">
        <ele>4</ele>
        <time>2026-08-20T13:24:36Z</time>
      </trkpt>
      <trkpt lat="47.63913" lon="-2.69137">
        <ele>4</ele>
        <time>2026-08-20T13:24:37Z</time>
      </trkpt>
      <trkpt lat="47.63909" lon="-2.69131">
        <ele>4</ele>
        <time>2026-08-20T13:24:38Z</time>
      </trkpt>
      <trkpt lat="47.63906" lon="-2.69126">
        <ele>4</ele>
        <time>2026-08-20T13:24:39Z</time>
      </trkpt>
      <trkpt lat="47.63902" lon="-2.69121">
        <ele>4</ele>
        <time>2026-08-20T13:24:40Z</time>
      </trkpt>
      <trkpt lat="47.63899" lon="-2.69116">
        <ele>4</ele>
        <time>2026-08-20T13:24:41Z</time>
      </trkpt>
      <trkpt lat="47.63895" lon="-2.69112">
        <ele>4</ele>
        <time>2026-08-20T13:24:42Z</time>
      </trkpt>
      <trkpt lat="47.63891" lon="-2.69107">
        <ele>4</ele>
        <time>2026-08-20T13:24:43Z</time>
      </trkpt>
      <trkpt lat="47.63887" lon="-2.69102">
        <ele>4</ele>
        <time>2026-08-20T13:24:44Z</time>
      </trkpt>
      <trkpt lat="47.63882" lon="-2.69098">
        <ele>3.9</ele>
        <time>2026-08-20T13:24:45Z</time>
      </trkpt>
      <trkpt lat="47.63878" lon="-2.69094">
        <ele>3.8</ele>
        <time>2026-08-20T13:24:46Z</time>
      </trkpt>
      <trkpt lat="47.63873" lon="-2.69089">
        <ele>3.9</ele>
        <time>2026-08-20T13:24:47Z</time>
      </trkpt>
      <trkpt lat="47.63868" lon="-2.69084">
        <ele>4</ele>
        <time>2026-08-20T13:24:48Z</time>
      </trkpt>
      <trkpt lat="47.63863" lon="-2.6908">
        <ele>4</ele>
        <time>2026-08-20T13:24:49Z</time>
      </trkpt>
      <trkpt lat="47.63858" lon="-2.69075">
        <ele>3.9</ele>
        <time>2026-08-20T13:24:50Z</time>
      </trkpt>
      <trkpt lat="47.63853" lon="-2.6907">
        <ele>3.7</ele>
        <time>2026-08-20T13:24:51Z</time>
      </trkpt>
      <trkpt lat="47.63848" lon="-2.69065">
        <ele>3.5</ele>
        <time>2026-08-20T13:24:52Z</time>
      </trkpt>
      <trkpt lat="47.63844" lon="-2.6906">
        <ele>3.4</ele>
        <time>2026-08-20T13:24:53Z</time>
      </trkpt>
      <trkpt lat="47.63839" lon="-2.69056">
        <ele>3.2</ele>
        <time>2026-08-20T13:24:54Z</time>
      </trkpt>
      <trkpt lat="47.63834" lon="-2.6905">
        <ele>3</ele>
        <time>2026-08-20T13:24:55Z</time>
      </trkpt>
      <trkpt lat="47.63829" lon="-2.69046">
        <ele>3</ele>
        <time>2026-08-20T13:24:56Z</time>
      </trkpt>
      <trkpt lat="47.63825" lon="-2.69042">
        <ele>3</ele>
        <time>2026-08-20T13:24:57Z</time>
      </trkpt>
      <trkpt lat="47.6382" lon="-2.69037">
        <ele>3</ele>
        <time>2026-08-20T13:24:58Z</time>
      </trkpt>
      <trkpt lat="47.63815" lon="-2.69032">
        <ele>3</ele>
        <time>2026-08-20T13:24:59Z</time>
      </trkpt>
      <trkpt lat="47.63811" lon="-2.69028">
        <ele>3</ele>
        <time>2026-08-20T13:25:00Z</time>
      </trkpt>
      <trkpt lat="47.63806" lon="-2.69023">
        <ele>3</ele>
        <time>2026-08-20T13:25:01Z</time>
      </trkpt>
      <trkpt lat="47.63802" lon="-2.69019">
        <ele>3</ele>
        <time>2026-08-20T13:25:02Z</time>
      </trkpt>
      <trkpt lat="47.63797" lon="-2.69014">
        <ele>3</ele>
        <time>2026-08-20T13:25:03Z</time>
      </trkpt>
      <trkpt lat="47.63793" lon="-2.69009">
        <ele>3</ele>
        <time>2026-08-20T13:25:04Z</time>
      </trkpt>
      <trkpt lat="47.63788" lon="-2.69004">
        <ele>3</ele>
        <time>2026-08-20T13:25:05Z</time>
      </trkpt>
      <trkpt lat="47.63783" lon="-2.68999">
        <ele>3</ele>
        <time>2026-08-20T13:25:06Z</time>
      </trkpt>
      <trkpt lat="47.63779" lon="-2.68993">
        <ele>2.8</ele>
        <time>2026-08-20T13:25:07Z</time>
      </trkpt>
      <trkpt lat="47.63775" lon="-2.68989">
        <ele>2.6</ele>
        <time>2026-08-20T13:25:08Z</time>
      </trkpt>
      <trkpt lat="47.63771" lon="-2.68984">
        <ele>2.5</ele>
        <time>2026-08-20T13:25:09Z</time>
      </trkpt>
      <trkpt lat="47.63767" lon="-2.68978">
        <ele>2.4</ele>
        <time>2026-08-20T13:25:10Z</time>
      </trkpt>
      <trkpt lat="47.63763" lon="-2.68974">
        <ele>2.5</ele>
        <time>2026-08-20T13:25:11Z</time>
      </trkpt>
      <trkpt lat="47.63759" lon="-2.68968">
        <ele>2.7</ele>
        <time>2026-08-20T13:25:12Z</time>
      </trkpt>
      <trkpt lat="47.63755" lon="-2.68963">
        <ele>2.9</ele>
        <time>2026-08-20T13:25:13Z</time>
      </trkpt>
      <trkpt lat="47.63751" lon="-2.68958">
        <ele>3</ele>
        <time>2026-08-20T13:25:14Z</time>
      </trkpt>
      <trkpt lat="47.63747" lon="-2.68953">
        <ele>3</ele>
        <time>2026-08-20T13:25:15Z</time>
      </trkpt>
      <trkpt lat="47.63744" lon="-2.68948">
        <ele>3</ele>
        <time>2026-08-20T13:25:16Z</time>
      </trkpt>
      <trkpt lat="47.6374" lon="-2.68943">
        <ele>3</ele>
        <time>2026-08-20T13:25:17Z</time>
      </trkpt>
      <trkpt lat="47.63737" lon="-2.68938">
        <ele>3.1</ele>
        <time>2026-08-20T13:25:18Z</time>
      </trkpt>
      <trkpt lat="47.63733" lon="-2.68933">
        <ele>3.3</ele>
        <time>2026-08-20T13:25:19Z</time>
      </trkpt>
      <trkpt lat="47.63729" lon="-2.68927">
        <ele>3.5</ele>
        <time>2026-08-20T13:25:20Z</time>
      </trkpt>
      <trkpt lat="47.63726" lon="-2.68921">
        <ele>3.7</ele>
        <time>2026-08-20T13:25:21Z</time>
      </trkpt>
      <trkpt lat="47.63722" lon="-2.68916">
        <ele>4</ele>
        <time>2026-08-20T13:25:22Z</time>
      </trkpt>
      <trkpt lat="47.63719" lon="-2.6891">
        <ele>4</ele>
        <time>2026-08-20T13:25:23Z</time>
      </trkpt>
      <trkpt lat="47.63715" lon="-2.68905">
        <ele>4</ele>
        <time>2026-08-20T13:25:24Z</time>
      </trkpt>
      <trkpt lat="47.63712" lon="-2.689">
        <ele>4</ele>
        <time>2026-08-20T13:25:25Z</time>
      </trkpt>
      <trkpt lat="47.63709" lon="-2.68895">
        <ele>4</ele>
        <time>2026-08-20T13:25:26Z</time>
      </trkpt>
      <trkpt lat="47.63706" lon="-2.6889">
        <ele>4</ele>
        <time>2026-08-20T13:25:27Z</time>
      </trkpt>
      <trkpt lat="47.63703" lon="-2.68886">
        <ele>4</ele>
        <time>2026-08-20T13:25:28Z</time>
      </trkpt>
      <trkpt lat="47.63699" lon="-2.68882">
        <ele>4</ele>
        <time>2026-08-20T13:25:29Z</time>
      </trkpt>
      <trkpt lat="47.63696" lon="-2.68878">
        <ele>4</ele>
        <time>2026-08-20T13:25:30Z</time>
      </trkpt>
      <trkpt lat="47.63693" lon="-2.68873">
        <ele>4</ele>
        <time>2026-08-20T13:25:31Z</time>
      </trkpt>
      <trkpt lat="47.6369" lon="-2.68868">
        <ele>4.1</ele>
        <time>2026-08-20T13:25:32Z</time>
      </trkpt>
      <trkpt lat="47.63687" lon="-2.68863">
        <ele>4.2</ele>
        <time>2026-08-20T13:25:33Z</time>
      </trkpt>
      <trkpt lat="47.63684" lon="-2.68858">
        <ele>4.4</ele>
        <time>2026-08-20T13:25:34Z</time>
      </trkpt>
      <trkpt lat="47.63681" lon="-2.68853">
        <ele>4.5</ele>
        <time>2026-08-20T13:25:35Z</time>
      </trkpt>
      <trkpt lat="47.63678" lon="-2.68848">
        <ele>4.6</ele>
        <time>2026-08-20T13:25:36Z</time>
      </trkpt>
      <trkpt lat="47.63676" lon="-2.68843">
        <ele>4.7</ele>
        <time>2026-08-20T13:25:37Z</time>
      </trkpt>
      <trkpt lat="47.63673" lon="-2.68837">
        <ele>4.8</ele>
        <time>2026-08-20T13:25:38Z</time>
      </trkpt>
      <trkpt lat="47.6367" lon="-2.68832">
        <ele>4.9</ele>
        <time>2026-08-20T13:25:39Z</time>
      </trkpt>
      <trkpt lat="47.63667" lon="-2.68827">
        <ele>5</ele>
        <time>2026-08-20T13:25:40Z</time>
      </trkpt>
      <trkpt lat="47.63664" lon="-2.68822">
        <ele>5.2</ele>
        <time>2026-08-20T13:25:41Z</time>
      </trkpt>
      <trkpt lat="47.63662" lon="-2.68817">
        <ele>5.3</ele>
        <time>2026-08-20T13:25:42Z</time>
      </trkpt>
      <trkpt lat="47.63659" lon="-2.68811">
        <ele>5.6</ele>
        <time>2026-08-20T13:25:43Z</time>
      </trkpt>
      <trkpt lat="47.63656" lon="-2.68806">
        <ele>5.8</ele>
        <time>2026-08-20T13:25:44Z</time>
      </trkpt>
      <trkpt lat="47.63654" lon="-2.688">
        <ele>5.9</ele>
        <time>2026-08-20T13:25:45Z</time>
      </trkpt>
      <trkpt lat="47.63651" lon="-2.68795">
        <ele>6.1</ele>
        <time>2026-08-20T13:25:46Z</time>
      </trkpt>
      <trkpt lat="47.63648" lon="-2.6879">
        <ele>6.3</ele>
        <time>2026-08-20T13:25:47Z</time>
      </trkpt>
      <trkpt lat="47.63646" lon="-2.68785">
        <ele>6.5</ele>
        <time>2026-08-20T13:25:48Z</time>
      </trkpt>
      <trkpt lat="47.63643" lon="-2.68779">
        <ele>6.7</ele>
        <time>2026-08-20T13:25:49Z</time>
      </trkpt>
      <trkpt lat="47.6364" lon="-2.68774">
        <ele>7.1</ele>
        <time>2026-08-20T13:25:50Z</time>
      </trkpt>
      <trkpt lat="47.63638" lon="-2.68769">
        <ele>7.5</ele>
        <time>2026-08-20T13:25:51Z</time>
      </trkpt>
      <trkpt lat="47.63635" lon="-2.68764">
        <ele>8.1</ele>
        <time>2026-08-20T13:25:52Z</time>
      </trkpt>
      <trkpt lat="47.63633" lon="-2.68759">
        <ele>8.6</ele>
        <time>2026-08-20T13:25:53Z</time>
      </trkpt>
      <trkpt lat="47.63631" lon="-2.68754">
        <ele>9</ele>
        <time>2026-08-20T13:25:54Z</time>
      </trkpt>
      <trkpt lat="47.63628" lon="-2.68748">
        <ele>9.4</ele>
        <time>2026-08-20T13:25:55Z</time>
      </trkpt>
      <trkpt lat="47.63626" lon="-2.68742">
        <ele>9.3</ele>
        <time>2026-08-20T13:25:56Z</time>
      </trkpt>
      <trkpt lat="47.63624" lon="-2.68736">
        <ele>9.1</ele>
        <time>2026-08-20T13:25:57Z</time>
      </trkpt>
      <trkpt lat="47.63622" lon="-2.6873">
        <ele>8.8</ele>
        <time>2026-08-20T13:25:58Z</time>
      </trkpt>
      <trkpt lat="47.6362" lon="-2.68725">
        <ele>8.6</ele>
        <time>2026-08-20T13:25:59Z</time>
      </trkpt>
      <trkpt lat="47.63617" lon="-2.68719">
        <ele>8.3</ele>
        <time>2026-08-20T13:26:00Z</time>
      </trkpt>
      <trkpt lat="47.63615" lon="-2.68713">
        <ele>8.1</ele>
        <time>2026-08-20T13:26:01Z</time>
      </trkpt>
      <trkpt lat="47.63613" lon="-2.68707">
        <ele>7.8</ele>
        <time>2026-08-20T13:26:02Z</time>
      </trkpt>
      <trkpt lat="47.63611" lon="-2.68701">
        <ele>7.5</ele>
        <time>2026-08-20T13:26:03Z</time>
      </trkpt>
      <trkpt lat="47.63608" lon="-2.68694">
        <ele>7.2</ele>
        <time>2026-08-20T13:26:04Z</time>
      </trkpt>
      <trkpt lat="47.63606" lon="-2.68688">
        <ele>7.1</ele>
        <time>2026-08-20T13:26:05Z</time>
      </trkpt>
      <trkpt lat="47.63604" lon="-2.68681">
        <ele>6.9</ele>
        <time>2026-08-20T13:26:06Z</time>
      </trkpt>
      <trkpt lat="47.63602" lon="-2.68675">
        <ele>6.7</ele>
        <time>2026-08-20T13:26:07Z</time>
      </trkpt>
      <trkpt lat="47.63599" lon="-2.68668">
        <ele>6.5</ele>
        <time>2026-08-20T13:26:08Z</time>
      </trkpt>
      <trkpt lat="47.63597" lon="-2.68662">
        <ele>6.3</ele>
        <time>2026-08-20T13:26:09Z</time>
      </trkpt>
      <trkpt lat="47.63595" lon="-2.68655">
        <ele>6.2</ele>
        <time>2026-08-20T13:26:10Z</time>
      </trkpt>
      <trkpt lat="47.63593" lon="-2.68649">
        <ele>6</ele>
        <time>2026-08-20T13:26:11Z</time>
      </trkpt>
      <trkpt lat="47.63591" lon="-2.68643">
        <ele>5.9</ele>
        <time>2026-08-20T13:26:12Z</time>
      </trkpt>
      <trkpt lat="47.63589" lon="-2.68636">
        <ele>5.9</ele>
        <time>2026-08-20T13:26:13Z</time>
      </trkpt>
      <trkpt lat="47.63587" lon="-2.68629">
        <ele>6.1</ele>
        <time>2026-08-20T13:26:14Z</time>
      </trkpt>
      <trkpt lat="47.63585" lon="-2.68623">
        <ele>6.4</ele>
        <time>2026-08-20T13:26:15Z</time>
      </trkpt>
      <trkpt lat="47.63584" lon="-2.68616">
        <ele>6.8</ele>
        <time>2026-08-20T13:26:16Z</time>
      </trkpt>
      <trkpt lat="47.63582" lon="-2.68609">
        <ele>7</ele>
        <time>2026-08-20T13:26:17Z</time>
      </trkpt>
      <trkpt lat="47.6358" lon="-2.68603">
        <ele>6.9</ele>
        <time>2026-08-20T13:26:18Z</time>
      </trkpt>
      <trkpt lat="47.63578" lon="-2.68596">
        <ele>6.8</ele>
        <time>2026-08-20T13:26:19Z</time>
      </trkpt>
      <trkpt lat="47.63576" lon="-2.6859">
        <ele>6.7</ele>
        <time>2026-08-20T13:26:20Z</time>
      </trkpt>
      <trkpt lat="47.63575" lon="-2.68583">
        <ele>6.6</ele>
        <time>2026-08-20T13:26:21Z</time>
      </trkpt>
      <trkpt lat="47.63573" lon="-2.68577">
        <ele>6.7</ele>
        <time>2026-08-20T13:26:22Z</time>
      </trkpt>
      <trkpt lat="47.63572" lon="-2.68571">
        <ele>6.8</ele>
        <time>2026-08-20T13:26:23Z</time>
      </trkpt>
      <trkpt lat="47.6357" lon="-2.68564">
        <ele>7</ele>
        <time>2026-08-20T13:26:24Z</time>
      </trkpt>
      <trkpt lat="47.63569" lon="-2.68558">
        <ele>7</ele>
        <time>2026-08-20T13:26:25Z</time>
      </trkpt>
      <trkpt lat="47.63567" lon="-2.68551">
        <ele>7.2</ele>
        <time>2026-08-20T13:26:26Z</time>
      </trkpt>
      <trkpt lat="47.63566" lon="-2.68545">
        <ele>7.2</ele>
        <time>2026-08-20T13:26:27Z</time>
      </trkpt>
      <trkpt lat="47.63564" lon="-2.68538">
        <ele>7.4</ele>
        <time>2026-08-20T13:26:28Z</time>
      </trkpt>
      <trkpt lat="47.63563" lon="-2.68532">
        <ele>7.5</ele>
        <time>2026-08-20T13:26:29Z</time>
      </trkpt>
      <trkpt lat="47.63562" lon="-2.68525">
        <ele>7.5</ele>
        <time>2026-08-20T13:26:30Z</time>
      </trkpt>
      <trkpt lat="47.6356" lon="-2.68519">
        <ele>7.7</ele>
        <time>2026-08-20T13:26:31Z</time>
      </trkpt>
      <trkpt lat="47.63559" lon="-2.68512">
        <ele>7.8</ele>
        <time>2026-08-20T13:26:32Z</time>
      </trkpt>
      <trkpt lat="47.63558" lon="-2.68505">
        <ele>7.8</ele>
        <time>2026-08-20T13:26:33Z</time>
      </trkpt>
      <trkpt lat="47.63557" lon="-2.68498">
        <ele>7.8</ele>
        <time>2026-08-20T13:26:34Z</time>
      </trkpt>
      <trkpt lat="47.63556" lon="-2.68492">
        <ele>7.7</ele>
        <time>2026-08-20T13:26:35Z</time>
      </trkpt>
      <trkpt lat="47.63555" lon="-2.68485">
        <ele>7.5</ele>
        <time>2026-08-20T13:26:36Z</time>
      </trkpt>
      <trkpt lat="47.63554" lon="-2.68478">
        <ele>7.3</ele>
        <time>2026-08-20T13:26:37Z</time>
      </trkpt>
      <trkpt lat="47.63553" lon="-2.68471">
        <ele>7.2</ele>
        <time>2026-08-20T13:26:38Z</time>
      </trkpt>
      <trkpt lat="47.63552" lon="-2.68464">
        <ele>7.5</ele>
        <time>2026-08-20T13:26:39Z</time>
      </trkpt>
      <trkpt lat="47.6355" lon="-2.68457">
        <ele>7.8</ele>
        <time>2026-08-20T13:26:40Z</time>
      </trkpt>
      <trkpt lat="47.63549" lon="-2.6845">
        <ele>8.1</ele>
        <time>2026-08-20T13:26:41Z</time>
      </trkpt>
      <trkpt lat="47.63548" lon="-2.68443">
        <ele>8.3</ele>
        <time>2026-08-20T13:26:42Z</time>
      </trkpt>
      <trkpt lat="47.63547" lon="-2.68436">
        <ele>8.3</ele>
        <time>2026-08-20T13:26:43Z</time>
      </trkpt>
      <trkpt lat="47.63546" lon="-2.6843">
        <ele>8.3</ele>
        <time>2026-08-20T13:26:44Z</time>
      </trkpt>
      <trkpt lat="47.63545" lon="-2.68423">
        <ele>8.4</ele>
        <time>2026-08-20T13:26:45Z</time>
      </trkpt>
      <trkpt lat="47.63544" lon="-2.68416">
        <ele>8.4</ele>
        <time>2026-08-20T13:26:46Z</time>
      </trkpt>
      <trkpt lat="47.63543" lon="-2.68409">
        <ele>8.5</ele>
        <time>2026-08-20T13:26:47Z</time>
      </trkpt>
      <trkpt lat="47.63543" lon="-2.68402">
        <ele>8.5</ele>
        <time>2026-08-20T13:26:48Z</time>
      </trkpt>
      <trkpt lat="47.63542" lon="-2.68395">
        <ele>8.5</ele>
        <time>2026-08-20T13:26:49Z</time>
      </trkpt>
      <trkpt lat="47.63541" lon="-2.68388">
        <ele>8.5</ele>
        <time>2026-08-20T13:26:50Z</time>
      </trkpt>
      <trkpt lat="47.6354" lon="-2.68381">
        <ele>8.6</ele>
        <time>2026-08-20T13:26:51Z</time>
      </trkpt>
      <trkpt lat="47.63539" lon="-2.68374">
        <ele>8.6</ele>
        <time>2026-08-20T13:26:52Z</time>
      </trkpt>
      <trkpt lat="47.63538" lon="-2.68367">
        <ele>8.6</ele>
        <time>2026-08-20T13:26:53Z</time>
      </trkpt>
      <trkpt lat="47.63537" lon="-2.6836">
        <ele>8.7</ele>
        <time>2026-08-20T13:26:54Z</time>
      </trkpt>
      <trkpt lat="47.63536" lon="-2.68354">
        <ele>8.7</ele>
        <time>2026-08-20T13:26:55Z</time>
      </trkpt>
      <trkpt lat="47.63535" lon="-2.68348">
        <ele>8.7</ele>
        <time>2026-08-20T13:26:56Z</time>
      </trkpt>
      <trkpt lat="47.63535" lon="-2.68342">
        <ele>8.7</ele>
        <time>2026-08-20T13:26:57Z</time>
      </trkpt>
      <trkpt lat="47.63535" lon="-2.68335">
        <ele>8.7</ele>
        <time>2026-08-20T13:26:58Z</time>
      </trkpt>
      <trkpt lat="47.63536" lon="-2.68329">
        <ele>8.7</ele>
        <time>2026-08-20T13:26:59Z</time>
      </trkpt>
      <trkpt lat="47.63538" lon="-2.68324">
        <ele>8.6</ele>
        <time>2026-08-20T13:27:00Z</time>
      </trkpt>
      <trkpt lat="47.63542" lon="-2.68319">
        <ele>8.5</ele>
        <time>2026-08-20T13:27:01Z</time>
      </trkpt>
      <trkpt lat="47.63546" lon="-2.68316">
        <ele>8.3</ele>
        <time>2026-08-20T13:27:02Z</time>
      </trkpt>
      <trkpt lat="47.63551" lon="-2.68313">
        <ele>8.2</ele>
        <time>2026-08-20T13:27:03Z</time>
      </trkpt>
      <trkpt lat="47.63556" lon="-2.68311">
        <ele>8</ele>
        <time>2026-08-20T13:27:04Z</time>
      </trkpt>
      <trkpt lat="47.63562" lon="-2.6831">
        <ele>7.8</ele>
        <time>2026-08-20T13:27:05Z</time>
      </trkpt>
      <trkpt lat="47.63567" lon="-2.68309">
        <ele>7.6</ele>
        <time>2026-08-20T13:27:06Z</time>
      </trkpt>
      <trkpt lat="47.63573" lon="-2.68309">
        <ele>7.4</ele>
        <time>2026-08-20T13:27:07Z</time>
      </trkpt>
      <trkpt lat="47.63579" lon="-2.68309">
        <ele>7.2</ele>
        <time>2026-08-20T13:27:08Z</time>
      </trkpt>
      <trkpt lat="47.63585" lon="-2.6831">
        <ele>6.9</ele>
        <time>2026-08-20T13:27:09Z</time>
      </trkpt>
      <trkpt lat="47.6359" lon="-2.68312">
        <ele>6.6</ele>
        <time>2026-08-20T13:27:10Z</time>
      </trkpt>
      <trkpt lat="47.63595" lon="-2.68315">
        <ele>6.3</ele>
        <time>2026-08-20T13:27:11Z</time>
      </trkpt>
      <trkpt lat="47.63601" lon="-2.68318">
        <ele>6</ele>
        <time>2026-08-20T13:27:12Z</time>
      </trkpt>
      <trkpt lat="47.63605" lon="-2.68322">
        <ele>5.9</ele>
        <time>2026-08-20T13:27:13Z</time>
      </trkpt>
      <trkpt lat="47.6361" lon="-2.68326">
        <ele>5.8</ele>
        <time>2026-08-20T13:27:14Z</time>
      </trkpt>
      <trkpt lat="47.63614" lon="-2.68328">
        <ele>5.7</ele>
        <time>2026-08-20T13:27:15Z</time>
      </trkpt>
      <trkpt lat="47.63618" lon="-2.68329">
        <ele>5.6</ele>
        <time>2026-08-20T13:27:16Z</time>
      </trkpt>
      <trkpt lat="47.63622" lon="-2.68328">
        <ele>5.5</ele>
        <time>2026-08-20T13:27:17Z</time>
      </trkpt>
      <trkpt lat="47.63627" lon="-2.68326">
        <ele>5.3</ele>
        <time>2026-08-20T13:27:18Z</time>
      </trkpt>
      <trkpt lat="47.63631" lon="-2.68324">
        <ele>5.2</ele>
        <time>2026-08-20T13:27:19Z</time>
      </trkpt>
      <trkpt lat="47.63634" lon="-2.68321">
        <ele>5.1</ele>
        <time>2026-08-20T13:27:20Z</time>
      </trkpt>
      <trkpt lat="47.63636" lon="-2.68315">
        <ele>5</ele>
        <time>2026-08-20T13:27:21Z</time>
      </trkpt>
      <trkpt lat="47.63637" lon="-2.68308">
        <ele>5</ele>
        <time>2026-08-20T13:27:22Z</time>
      </trkpt>
      <trkpt lat="47.63637" lon="-2.683">
        <ele>5</ele>
        <time>2026-08-20T13:27:23Z</time>
      </trkpt>
      <trkpt lat="47.63634" lon="-2.68263">
        <ele>5.3</ele>
        <time>2026-08-20T13:27:28Z</time>
      </trkpt>
      <trkpt lat="47.63634" lon="-2.68255">
        <ele>5.2</ele>
        <time>2026-08-20T13:27:29Z</time>
      </trkpt>
      <trkpt lat="47.63635" lon="-2.68248">
        <ele>5.3</ele>
        <time>2026-08-20T13:27:30Z</time>
      </trkpt>
      <trkpt lat="47.63635" lon="-2.68243">
        <ele>5.6</ele>
        <time>2026-08-20T13:27:31Z</time>
      </trkpt>
      <trkpt lat="47.63637" lon="-2.68238">
        <ele>5.9</ele>
        <time>2026-08-20T13:27:32Z</time>
      </trkpt>
      <trkpt lat="47.63638" lon="-2.68235">
        <ele>6.1</ele>
        <time>2026-08-20T13:27:33Z</time>
      </trkpt>
      <trkpt lat="47.6364" lon="-2.68232">
        <ele>6.3</ele>
        <time>2026-08-20T13:27:34Z</time>
      </trkpt>
      <trkpt lat="47.63642" lon="-2.6823">
        <ele>6.4</ele>
        <time>2026-08-20T13:27:35Z</time>
      </trkpt>
      <trkpt lat="47.63644" lon="-2.68229">
        <ele>6.4</ele>
        <time>2026-08-20T13:27:36Z</time>
      </trkpt>
      <trkpt lat="47.63646" lon="-2.68228">
        <ele>6.4</ele>
        <time>2026-08-20T13:27:37Z</time>
      </trkpt>
      <trkpt lat="47.6365" lon="-2.68228">
        <ele>6.4</ele>
        <time>2026-08-20T13:27:38Z</time>
      </trkpt>
      <trkpt lat="47.63654" lon="-2.68228">
        <ele>6.3</ele>
        <time>2026-08-20T13:27:39Z</time>
      </trkpt>
      <trkpt lat="47.63658" lon="-2.68228">
        <ele>6.2</ele>
        <time>2026-08-20T13:27:40Z</time>
      </trkpt>
      <trkpt lat="47.63662" lon="-2.68228">
        <ele>6.1</ele>
        <time>2026-08-20T13:27:41Z</time>
      </trkpt>
      <trkpt lat="47.63667" lon="-2.68228">
        <ele>6</ele>
        <time>2026-08-20T13:27:42Z</time>
      </trkpt>
      <trkpt lat="47.63672" lon="-2.68228">
        <ele>6.4</ele>
        <time>2026-08-20T13:27:43Z</time>
      </trkpt>
      <trkpt lat="47.63677" lon="-2.68227">
        <ele>6.7</ele>
        <time>2026-08-20T13:27:44Z</time>
      </trkpt>
      <trkpt lat="47.63683" lon="-2.68226">
        <ele>7.2</ele>
        <time>2026-08-20T13:27:45Z</time>
      </trkpt>
      <trkpt lat="47.63689" lon="-2.68225">
        <ele>7.6</ele>
        <time>2026-08-20T13:27:46Z</time>
      </trkpt>
      <trkpt lat="47.63695" lon="-2.68224">
        <ele>7.9</ele>
        <time>2026-08-20T13:27:47Z</time>
      </trkpt>
      <trkpt lat="47.637" lon="-2.68223">
        <ele>7.4</ele>
        <time>2026-08-20T13:27:48Z</time>
      </trkpt>
      <trkpt lat="47.63706" lon="-2.68222">
        <ele>6.7</ele>
        <time>2026-08-20T13:27:49Z</time>
      </trkpt>
      <trkpt lat="47.63711" lon="-2.68221">
        <ele>6.2</ele>
        <time>2026-08-20T13:27:50Z</time>
      </trkpt>
      <trkpt lat="47.63716" lon="-2.68219">
        <ele>5.6</ele>
        <time>2026-08-20T13:27:51Z</time>
      </trkpt>
      <trkpt lat="47.63721" lon="-2.68205">
        <ele>5.1</ele>
        <time>2026-08-20T13:27:53Z</time>
      </trkpt>
      <trkpt lat="47.63724" lon="-2.68199">
        <ele>5</ele>
        <time>2026-08-20T13:27:54Z</time>
      </trkpt>
      <trkpt lat="47.63724" lon="-2.68192">
        <ele>5.1</ele>
        <time>2026-08-20T13:27:55Z</time>
      </trkpt>
      <trkpt lat="47.63724" lon="-2.68185">
        <ele>5.3</ele>
        <time>2026-08-20T13:27:56Z</time>
      </trkpt>
      <trkpt lat="47.63724" lon="-2.68177">
        <ele>5.6</ele>
        <time>2026-08-20T13:27:57Z</time>
      </trkpt>
      <trkpt lat="47.63724" lon="-2.6817">
        <ele>5.8</ele>
        <time>2026-08-20T13:27:58Z</time>
      </trkpt>
      <trkpt lat="47.63724" lon="-2.68163">
        <ele>5.9</ele>
        <time>2026-08-20T13:27:59Z</time>
      </trkpt>
      <trkpt lat="47.63722" lon="-2.68156">
        <ele>6</ele>
        <time>2026-08-20T13:28:00Z</time>
      </trkpt>
      <trkpt lat="47.6372" lon="-2.6815">
        <ele>6.1</ele>
        <time>2026-08-20T13:28:01Z</time>
      </trkpt>
      <trkpt lat="47.63717" lon="-2.68144">
        <ele>6.2</ele>
        <time>2026-08-20T13:28:02Z</time>
      </trkpt>
      <trkpt lat="47.63715" lon="-2.68139">
        <ele>6.3</ele>
        <time>2026-08-20T13:28:03Z</time>
      </trkpt>
      <trkpt lat="47.63711" lon="-2.68135">
        <ele>6.5</ele>
        <time>2026-08-20T13:28:04Z</time>
      </trkpt>
      <trkpt lat="47.63708" lon="-2.6813">
        <ele>6.8</ele>
        <time>2026-08-20T13:28:05Z</time>
      </trkpt>
      <trkpt lat="47.63706" lon="-2.68127">
        <ele>7</ele>
        <time>2026-08-20T13:28:06Z</time>
      </trkpt>
      <trkpt lat="47.63703" lon="-2.68123">
        <ele>7.3</ele>
        <time>2026-08-20T13:28:07Z</time>
      </trkpt>
      <trkpt lat="47.637" lon="-2.6812">
        <ele>7.5</ele>
        <time>2026-08-20T13:28:08Z</time>
      </trkpt>
      <trkpt lat="47.63697" lon="-2.68117">
        <ele>7.7</ele>
        <time>2026-08-20T13:28:09Z</time>
      </trkpt>
      <trkpt lat="47.63694" lon="-2.68113">
        <ele>7.9</ele>
        <time>2026-08-20T13:28:10Z</time>
      </trkpt>
      <trkpt lat="47.63691" lon="-2.6811">
        <ele>8.2</ele>
        <time>2026-08-20T13:28:11Z</time>
      </trkpt>
      <trkpt lat="47.63688" lon="-2.68108">
        <ele>8.4</ele>
        <time>2026-08-20T13:28:12Z</time>
      </trkpt>
      <trkpt lat="47.63685" lon="-2.68105">
        <ele>8.6</ele>
        <time>2026-08-20T13:28:13Z</time>
      </trkpt>
      <trkpt lat="47.63682" lon="-2.68102">
        <ele>8.9</ele>
        <time>2026-08-20T13:28:14Z</time>
      </trkpt>
      <trkpt lat="47.63679" lon="-2.68099">
        <ele>9.2</ele>
        <time>2026-08-20T13:28:15Z</time>
      </trkpt>
      <trkpt lat="47.63676" lon="-2.68095">
        <ele>9.6</ele>
        <time>2026-08-20T13:28:16Z</time>
      </trkpt>
      <trkpt lat="47.63673" lon="-2.68092">
        <ele>10</ele>
        <time>2026-08-20T13:28:17Z</time>
      </trkpt>
      <trkpt lat="47.6367" lon="-2.68089">
        <ele>10.4</ele>
        <time>2026-08-20T13:28:18Z</time>
      </trkpt>
      <trkpt lat="47.63668" lon="-2.68086">
        <ele>10.7</ele>
        <time>2026-08-20T13:28:19Z</time>
      </trkpt>
      <trkpt lat="47.63665" lon="-2.68084">
        <ele>10.9</ele>
        <time>2026-08-20T13:28:20Z</time>
      </trkpt>
      <trkpt lat="47.63662" lon="-2.68081">
        <ele>10.9</ele>
        <time>2026-08-20T13:28:21Z</time>
      </trkpt>
      <trkpt lat="47.63659" lon="-2.68079">
        <ele>10.9</ele>
        <time>2026-08-20T13:28:22Z</time>
      </trkpt>
      <trkpt lat="47.63656" lon="-2.68076">
        <ele>11</ele>
        <time>2026-08-20T13:28:23Z</time>
      </trkpt>
      <trkpt lat="47.63652" lon="-2.68074">
        <ele>11</ele>
        <time>2026-08-20T13:28:24Z</time>
      </trkpt>
      <trkpt lat="47.63649" lon="-2.68072">
        <ele>11</ele>
        <time>2026-08-20T13:28:25Z</time>
      </trkpt>
      <trkpt lat="47.63646" lon="-2.68069">
        <ele>11.2</ele>
        <time>2026-08-20T13:28:26Z</time>
      </trkpt>
      <trkpt lat="47.63643" lon="-2.68067">
        <ele>11.2</ele>
        <time>2026-08-20T13:28:27Z</time>
      </trkpt>
      <trkpt lat="47.63639" lon="-2.68065">
        <ele>11.3</ele>
        <time>2026-08-20T13:28:28Z</time>
      </trkpt>
      <trkpt lat="47.63636" lon="-2.68063">
        <ele>11.5</ele>
        <time>2026-08-20T13:28:29Z</time>
      </trkpt>
      <trkpt lat="47.63633" lon="-2.68061">
        <ele>11.6</ele>
        <time>2026-08-20T13:28:30Z</time>
      </trkpt>
      <trkpt lat="47.6363" lon="-2.68059">
        <ele>11.8</ele>
        <time>2026-08-20T13:28:31Z</time>
      </trkpt>
      <trkpt lat="47.63626" lon="-2.68058">
        <ele>11.8</ele>
        <time>2026-08-20T13:28:32Z</time>
      </trkpt>
      <trkpt lat="47.63623" lon="-2.68056">
        <ele>12</ele>
        <time>2026-08-20T13:28:33Z</time>
      </trkpt>
      <trkpt lat="47.6362" lon="-2.68053">
        <ele>12.1</ele>
        <time>2026-08-20T13:28:34Z</time>
      </trkpt>
      <trkpt lat="47.63617" lon="-2.68052">
        <ele>12.1</ele>
        <time>2026-08-20T13:28:35Z</time>
      </trkpt>
      <trkpt lat="47.63613" lon="-2.6805">
        <ele>12.2</ele>
        <time>2026-08-20T13:28:36Z</time>
      </trkpt>
      <trkpt lat="47.6361" lon="-2.68048">
        <ele>12.3</ele>
        <time>2026-08-20T13:28:37Z</time>
      </trkpt>
      <trkpt lat="47.63607" lon="-2.68046">
        <ele>12.3</ele>
        <time>2026-08-20T13:28:38Z</time>
      </trkpt>
      <trkpt lat="47.63604" lon="-2.68044">
        <ele>12.4</ele>
        <time>2026-08-20T13:28:39Z</time>
      </trkpt>
      <trkpt lat="47.636" lon="-2.68042">
        <ele>12.5</ele>
        <time>2026-08-20T13:28:40Z</time>
      </trkpt>
      <trkpt lat="47.63597" lon="-2.6804">
        <ele>12.6</ele>
        <time>2026-08-20T13:28:41Z</time>
      </trkpt>
      <trkpt lat="47.63594" lon="-2.68038">
        <ele>12.6</ele>
        <time>2026-08-20T13:28:42Z</time>
      </trkpt>
      <trkpt lat="47.63591" lon="-2.68036">
        <ele>12.7</ele>
        <time>2026-08-20T13:28:43Z</time>
      </trkpt>
      <trkpt lat="47.63587" lon="-2.68034">
        <ele>12.8</ele>
        <time>2026-08-20T13:28:44Z</time>
      </trkpt>
      <trkpt lat="47.63584" lon="-2.68032">
        <ele>12.8</ele>
        <time>2026-08-20T13:28:45Z</time>
      </trkpt>
      <trkpt lat="47.6358" lon="-2.68029">
        <ele>13</ele>
        <time>2026-08-20T13:28:46Z</time>
      </trkpt>
      <trkpt lat="47.63577" lon="-2.68027">
        <ele>13</ele>
        <time>2026-08-20T13:28:47Z</time>
      </trkpt>
      <trkpt lat="47.63573" lon="-2.68025">
        <ele>13.1</ele>
        <time>2026-08-20T13:28:48Z</time>
      </trkpt>
      <trkpt lat="47.6357" lon="-2.68023">
        <ele>13.2</ele>
        <time>2026-08-20T13:28:49Z</time>
      </trkpt>
      <trkpt lat="47.63566" lon="-2.6802">
        <ele>13.3</ele>
        <time>2026-08-20T13:28:50Z</time>
      </trkpt>
      <trkpt lat="47.63563" lon="-2.68018">
        <ele>13.4</ele>
        <time>2026-08-20T13:28:51Z</time>
      </trkpt>
      <trkpt lat="47.6356" lon="-2.68016">
        <ele>13.4</ele>
        <time>2026-08-20T13:28:52Z</time>
      </trkpt>
      <trkpt lat="47.63556" lon="-2.68013">
        <ele>13.5</ele>
        <time>2026-08-20T13:28:53Z</time>
      </trkpt>
      <trkpt lat="47.63553" lon="-2.6801">
        <ele>13.6</ele>
        <time>2026-08-20T13:28:54Z</time>
      </trkpt>
      <trkpt lat="47.63549" lon="-2.68008">
        <ele>13.7</ele>
        <time>2026-08-20T13:28:55Z</time>
      </trkpt>
      <trkpt lat="47.63546" lon="-2.68005">
        <ele>13.8</ele>
        <time>2026-08-20T13:28:56Z</time>
      </trkpt>
      <trkpt lat="47.63542" lon="-2.68002">
        <ele>13.9</ele>
        <time>2026-08-20T13:28:57Z</time>
      </trkpt>
      <trkpt lat="47.63539" lon="-2.67999">
        <ele>14</ele>
        <time>2026-08-20T13:28:58Z</time>
      </trkpt>
      <trkpt lat="47.63535" lon="-2.67995">
        <ele>14</ele>
        <time>2026-08-20T13:28:59Z</time>
      </trkpt>
      <trkpt lat="47.63532" lon="-2.67992">
        <ele>14</ele>
        <time>2026-08-20T13:29:00Z</time>
      </trkpt>
      <trkpt lat="47.63529" lon="-2.67989">
        <ele>14</ele>
        <time>2026-08-20T13:29:01Z</time>
      </trkpt>
      <trkpt lat="47.63525" lon="-2.67985">
        <ele>14.1</ele>
        <time>2026-08-20T13:29:02Z</time>
      </trkpt>
      <trkpt lat="47.63522" lon="-2.67982">
        <ele>14.1</ele>
        <time>2026-08-20T13:29:03Z</time>
      </trkpt>
      <trkpt lat="47.63519" lon="-2.67978">
        <ele>14.3</ele>
        <time>2026-08-20T13:29:04Z</time>
      </trkpt>
      <trkpt lat="47.63516" lon="-2.67974">
        <ele>14.4</ele>
        <time>2026-08-20T13:29:05Z</time>
      </trkpt>
      <trkpt lat="47.63513" lon="-2.6797">
        <ele>14.6</ele>
        <time>2026-08-20T13:29:06Z</time>
      </trkpt>
      <trkpt lat="47.6351" lon="-2.67966">
        <ele>14.7</ele>
        <time>2026-08-20T13:29:07Z</time>
      </trkpt>
      <trkpt lat="47.63507" lon="-2.67962">
        <ele>14.8</ele>
        <time>2026-08-20T13:29:08Z</time>
      </trkpt>
      <trkpt lat="47.63504" lon="-2.67958">
        <ele>14.9</ele>
        <time>2026-08-20T13:29:09Z</time>
      </trkpt>
      <trkpt lat="47.63502" lon="-2.67954">
        <ele>15</ele>
        <time>2026-08-20T13:29:10Z</time>
      </trkpt>
      <trkpt lat="47.63499" lon="-2.67949">
        <ele>15</ele>
        <time>2026-08-20T13:29:11Z</time>
      </trkpt>
      <trkpt lat="47.63496" lon="-2.67945">
        <ele>15.1</ele>
        <time>2026-08-20T13:29:12Z</time>
      </trkpt>
      <trkpt lat="47.63493" lon="-2.67941">
        <ele>15.3</ele>
        <time>2026-08-20T13:29:13Z</time>
      </trkpt>
      <trkpt lat="47.63491" lon="-2.67936">
        <ele>15.5</ele>
        <time>2026-08-20T13:29:14Z</time>
      </trkpt>
      <trkpt lat="47.63488" lon="-2.67932">
        <ele>15.7</ele>
        <time>2026-08-20T13:29:15Z</time>
      </trkpt>
      <trkpt lat="47.63486" lon="-2.67927">
        <ele>15.8</ele>
        <time>2026-08-20T13:29:16Z</time>
      </trkpt>
      <trkpt lat="47.63484" lon="-2.67923">
        <ele>15.9</ele>
        <time>2026-08-20T13:29:17Z</time>
      </trkpt>
      <trkpt lat="47.63481" lon="-2.67919">
        <ele>16</ele>
        <time>2026-08-20T13:29:18Z</time>
      </trkpt>
      <trkpt lat="47.63479" lon="-2.67914">
        <ele>16.1</ele>
        <time>2026-08-20T13:29:19Z</time>
      </trkpt>
      <trkpt lat="47.63478" lon="-2.6791">
        <ele>16.2</ele>
        <time>2026-08-20T13:29:20Z</time>
      </trkpt>
      <trkpt lat="47.63476" lon="-2.67905">
        <ele>16.4</ele>
        <time>2026-08-20T13:29:21Z</time>
      </trkpt>
      <trkpt lat="47.63474" lon="-2.67901">
        <ele>16.5</ele>
        <time>2026-08-20T13:29:22Z</time>
      </trkpt>
      <trkpt lat="47.63472" lon="-2.67896">
        <ele>16.7</ele>
        <time>2026-08-20T13:29:23Z</time>
      </trkpt>
      <trkpt lat="47.6347" lon="-2.67892">
        <ele>16.9</ele>
        <time>2026-08-20T13:29:24Z</time>
      </trkpt>
      <trkpt lat="47.63468" lon="-2.67887">
        <ele>17</ele>
        <time>2026-08-20T13:29:25Z</time>
      </trkpt>
      <trkpt lat="47.63466" lon="-2.67882">
        <ele>17</ele>
        <time>2026-08-20T13:29:26Z</time>
      </trkpt>
      <trkpt lat="47.63465" lon="-2.67877">
        <ele>17</ele>
        <time>2026-08-20T13:29:27Z</time>
      </trkpt>
      <trkpt lat="47.63463" lon="-2.67872">
        <ele>17</ele>
        <time>2026-08-20T13:29:28Z</time>
      </trkpt>
      <trkpt lat="47.63461" lon="-2.67867">
        <ele>17</ele>
        <time>2026-08-20T13:29:29Z</time>
      </trkpt>
      <trkpt lat="47.63459" lon="-2.67863">
        <ele>17</ele>
        <time>2026-08-20T13:29:30Z</time>
      </trkpt>
      <trkpt lat="47.63457" lon="-2.67858">
        <ele>17.1</ele>
        <time>2026-08-20T13:29:31Z</time>
      </trkpt>
      <trkpt lat="47.63456" lon="-2.67853">
        <ele>17.3</ele>
        <time>2026-08-20T13:29:32Z</time>
      </trkpt>
      <trkpt lat="47.63454" lon="-2.67848">
        <ele>17.5</ele>
        <time>2026-08-20T13:29:33Z</time>
      </trkpt>
      <trkpt lat="47.63453" lon="-2.67842">
        <ele>17.7</ele>
        <time>2026-08-20T13:29:34Z</time>
      </trkpt>
      <trkpt lat="47.63451" lon="-2.67837">
        <ele>17.9</ele>
        <time>2026-08-20T13:29:35Z</time>
      </trkpt>
      <trkpt lat="47.6345" lon="-2.67832">
        <ele>18</ele>
        <time>2026-08-20T13:29:36Z</time>
      </trkpt>
      <trkpt lat="47.63449" lon="-2.67827">
        <ele>18</ele>
        <time>2026-08-20T13:29:37Z</time>
      </trkpt>
      <trkpt lat="47.63447" lon="-2.67822">
        <ele>18</ele>
        <time>2026-08-20T13:29:38Z</time>
      </trkpt>
      <trkpt lat="47.63446" lon="-2.67817">
        <ele>18</ele>
        <time>2026-08-20T13:29:39Z</time>
      </trkpt>
      <trkpt lat="47.63445" lon="-2.67812">
        <ele>18</ele>
        <time>2026-08-20T13:29:40Z</time>
      </trkpt>
      <trkpt lat="47.63443" lon="-2.67807">
        <ele>18</ele>
        <time>2026-08-20T13:29:41Z</time>
      </trkpt>
      <trkpt lat="47.63441" lon="-2.67801">
        <ele>18.2</ele>
        <time>2026-08-20T13:29:42Z</time>
      </trkpt>
      <trkpt lat="47.6344" lon="-2.67796">
        <ele>18.3</ele>
        <time>2026-08-20T13:29:43Z</time>
      </trkpt>
      <trkpt lat="47.63438" lon="-2.67791">
        <ele>18.5</ele>
        <time>2026-08-20T13:29:44Z</time>
      </trkpt>
      <trkpt lat="47.63437" lon="-2.67786">
        <ele>18.7</ele>
        <time>2026-08-20T13:29:45Z</time>
      </trkpt>
      <trkpt lat="47.63435" lon="-2.67781">
        <ele>18.9</ele>
        <time>2026-08-20T13:29:46Z</time>
      </trkpt>
      <trkpt lat="47.63434" lon="-2.67776">
        <ele>19.1</ele>
        <time>2026-08-20T13:29:47Z</time>
      </trkpt>
      <trkpt lat="47.63433" lon="-2.67771">
        <ele>19.2</ele>
        <time>2026-08-20T13:29:48Z</time>
      </trkpt>
      <trkpt lat="47.63432" lon="-2.67767">
        <ele>19.4</ele>
        <time>2026-08-20T13:29:49Z</time>
      </trkpt>
      <trkpt lat="47.6343" lon="-2.67762">
        <ele>19.6</ele>
        <time>2026-08-20T13:29:50Z</time>
      </trkpt>
      <trkpt lat="47.63429" lon="-2.67757">
        <ele>19.7</ele>
        <time>2026-08-20T13:29:51Z</time>
      </trkpt>
      <trkpt lat="47.63428" lon="-2.67752">
        <ele>19.9</ele>
        <time>2026-08-20T13:29:52Z</time>
      </trkpt>
      <trkpt lat="47.63426" lon="-2.67747">
        <ele>20</ele>
        <time>2026-08-20T13:29:53Z</time>
      </trkpt>
      <trkpt lat="47.63425" lon="-2.67743">
        <ele>20</ele>
        <time>2026-08-20T13:29:54Z</time>
      </trkpt>
      <trkpt lat="47.63424" lon="-2.67737">
        <ele>20</ele>
        <time>2026-08-20T13:29:55Z</time>
      </trkpt>
      <trkpt lat="47.63422" lon="-2.67733">
        <ele>20</ele>
        <time>2026-08-20T13:29:56Z</time>
      </trkpt>
      <trkpt lat="47.63421" lon="-2.67728">
        <ele>20</ele>
        <time>2026-08-20T13:29:57Z</time>
      </trkpt>
      <trkpt lat="47.63419" lon="-2.67723">
        <ele>20</ele>
        <time>2026-08-20T13:29:58Z</time>
      </trkpt>
      <trkpt lat="47.63418" lon="-2.67717">
        <ele>20</ele>
        <time>2026-08-20T13:29:59Z</time>
      </trkpt>
      <trkpt lat="47.63417" lon="-2.67712">
        <ele>20</ele>
        <time>2026-08-20T13:30:00Z</time>
      </trkpt>
      <trkpt lat="47.63415" lon="-2.67707">
        <ele>20</ele>
        <time>2026-08-20T13:30:01Z</time>
      </trkpt>
      <trkpt lat="47.63414" lon="-2.67701">
        <ele>20</ele>
        <time>2026-08-20T13:30:02Z</time>
      </trkpt>
      <trkpt lat="47.63412" lon="-2.67696">
        <ele>20</ele>
        <time>2026-08-20T13:30:03Z</time>
      </trkpt>
      <trkpt lat="47.63411" lon="-2.6769">
        <ele>20</ele>
        <time>2026-08-20T13:30:04Z</time>
      </trkpt>
      <trkpt lat="47.63409" lon="-2.67685">
        <ele>20</ele>
        <time>2026-08-20T13:30:05Z</time>
      </trkpt>
      <trkpt lat="47.63407" lon="-2.67679">
        <ele>20</ele>
        <time>2026-08-20T13:30:06Z</time>
      </trkpt>
      <trkpt lat="47.63406" lon="-2.67674">
        <ele>20</ele>
        <time>2026-08-20T13:30:07Z</time>
      </trkpt>
      <trkpt lat="47.63404" lon="-2.67668">
        <ele>20</ele>
        <time>2026-08-20T13:30:08Z</time>
      </trkpt>
      <trkpt lat="47.63403" lon="-2.67663">
        <ele>20.1</ele>
        <time>2026-08-20T13:30:09Z</time>
      </trkpt>
      <trkpt lat="47.63401" lon="-2.67657">
        <ele>20.2</ele>
        <time>2026-08-20T13:30:10Z</time>
      </trkpt>
      <trkpt lat="47.63399" lon="-2.67651">
        <ele>20.4</ele>
        <time>2026-08-20T13:30:11Z</time>
      </trkpt>
      <trkpt lat="47.63398" lon="-2.67645">
        <ele>20.5</ele>
        <time>2026-08-20T13:30:12Z</time>
      </trkpt>
      <trkpt lat="47.63396" lon="-2.67639">
        <ele>20.7</ele>
        <time>2026-08-20T13:30:13Z</time>
      </trkpt>
      <trkpt lat="47.63394" lon="-2.67633">
        <ele>20.6</ele>
        <time>2026-08-20T13:30:14Z</time>
      </trkpt>
      <trkpt lat="47.63392" lon="-2.67627">
        <ele>20.5</ele>
        <time>2026-08-20T13:30:15Z</time>
      </trkpt>
      <trkpt lat="47.63391" lon="-2.67621">
        <ele>20.3</ele>
        <time>2026-08-20T13:30:16Z</time>
      </trkpt>
      <trkpt lat="47.63389" lon="-2.67615">
        <ele>20.1</ele>
        <time>2026-08-20T13:30:17Z</time>
      </trkpt>
      <trkpt lat="47.63387" lon="-2.67609">
        <ele>20</ele>
        <time>2026-08-20T13:30:18Z</time>
      </trkpt>
      <trkpt lat="47.63386" lon="-2.67603">
        <ele>20</ele>
        <time>2026-08-20T13:30:19Z</time>
      </trkpt>
      <trkpt lat="47.63384" lon="-2.67597">
        <ele>20</ele>
        <time>2026-08-20T13:30:20Z</time>
      </trkpt>
      <trkpt lat="47.63382" lon="-2.67591">
        <ele>20</ele>
        <time>2026-08-20T13:30:21Z</time>
      </trkpt>
      <trkpt lat="47.63381" lon="-2.67585">
        <ele>20</ele>
        <time>2026-08-20T13:30:22Z</time>
      </trkpt>
      <trkpt lat="47.63379" lon="-2.67579">
        <ele>20.1</ele>
        <time>2026-08-20T13:30:23Z</time>
      </trkpt>
      <trkpt lat="47.63377" lon="-2.67573">
        <ele>20.2</ele>
        <time>2026-08-20T13:30:24Z</time>
      </trkpt>
      <trkpt lat="47.63376" lon="-2.67566">
        <ele>20.3</ele>
        <time>2026-08-20T13:30:25Z</time>
      </trkpt>
      <trkpt lat="47.63374" lon="-2.6756">
        <ele>20.5</ele>
        <time>2026-08-20T13:30:26Z</time>
      </trkpt>
      <trkpt lat="47.63372" lon="-2.67554">
        <ele>20.6</ele>
        <time>2026-08-20T13:30:27Z</time>
      </trkpt>
      <trkpt lat="47.63371" lon="-2.67547">
        <ele>20.6</ele>
        <time>2026-08-20T13:30:28Z</time>
      </trkpt>
      <trkpt lat="47.63369" lon="-2.67541">
        <ele>20.7</ele>
        <time>2026-08-20T13:30:29Z</time>
      </trkpt>
      <trkpt lat="47.63367" lon="-2.67535">
        <ele>20.8</ele>
        <time>2026-08-20T13:30:30Z</time>
      </trkpt>
      <trkpt lat="47.63365" lon="-2.67529">
        <ele>20.9</ele>
        <time>2026-08-20T13:30:31Z</time>
      </trkpt>
      <trkpt lat="47.63364" lon="-2.67522">
        <ele>20.9</ele>
        <time>2026-08-20T13:30:32Z</time>
      </trkpt>
      <trkpt lat="47.63362" lon="-2.67516">
        <ele>21</ele>
        <time>2026-08-20T13:30:33Z</time>
      </trkpt>
      <trkpt lat="47.6336" lon="-2.6751">
        <ele>21</ele>
        <time>2026-08-20T13:30:34Z</time>
      </trkpt>
      <trkpt lat="47.63358" lon="-2.67504">
        <ele>20.9</ele>
        <time>2026-08-20T13:30:35Z</time>
      </trkpt>
      <trkpt lat="47.63356" lon="-2.67498">
        <ele>20.8</ele>
        <time>2026-08-20T13:30:36Z</time>
      </trkpt>
      <trkpt lat="47.63355" lon="-2.67492">
        <ele>20.6</ele>
        <time>2026-08-20T13:30:37Z</time>
      </trkpt>
      <trkpt lat="47.63353" lon="-2.67486">
        <ele>20.4</ele>
        <time>2026-08-20T13:30:38Z</time>
      </trkpt>
      <trkpt lat="47.63351" lon="-2.6748">
        <ele>20.2</ele>
        <time>2026-08-20T13:30:39Z</time>
      </trkpt>
      <trkpt lat="47.6335" lon="-2.67474">
        <ele>20</ele>
        <time>2026-08-20T13:30:40Z</time>
      </trkpt>
      <trkpt lat="47.63348" lon="-2.67468">
        <ele>20.1</ele>
        <time>2026-08-20T13:30:41Z</time>
      </trkpt>
      <trkpt lat="47.63346" lon="-2.67461">
        <ele>20.2</ele>
        <time>2026-08-20T13:30:42Z</time>
      </trkpt>
      <trkpt lat="47.63345" lon="-2.67455">
        <ele>20.4</ele>
        <time>2026-08-20T13:30:43Z</time>
      </trkpt>
      <trkpt lat="47.63343" lon="-2.67449">
        <ele>20.5</ele>
        <time>2026-08-20T13:30:44Z</time>
      </trkpt>
      <trkpt lat="47.63341" lon="-2.67442">
        <ele>20.7</ele>
        <time>2026-08-20T13:30:45Z</time>
      </trkpt>
      <trkpt lat="47.63339" lon="-2.67436">
        <ele>20.6</ele>
        <time>2026-08-20T13:30:46Z</time>
      </trkpt>
      <trkpt lat="47.63338" lon="-2.6743">
        <ele>20.4</ele>
        <time>2026-08-20T13:30:47Z</time>
      </trkpt>
      <trkpt lat="47.63336" lon="-2.67424">
        <ele>20.2</ele>
        <time>2026-08-20T13:30:48Z</time>
      </trkpt>
      <trkpt lat="47.63334" lon="-2.67417">
        <ele>20</ele>
        <time>2026-08-20T13:30:49Z</time>
      </trkpt>
      <trkpt lat="47.63333" lon="-2.67411">
        <ele>20</ele>
        <time>2026-08-20T13:30:50Z</time>
      </trkpt>
      <trkpt lat="47.63331" lon="-2.67404">
        <ele>20</ele>
        <time>2026-08-20T13:30:51Z</time>
      </trkpt>
      <trkpt lat="47.63329" lon="-2.67398">
        <ele>20</ele>
        <time>2026-08-20T13:30:52Z</time>
      </trkpt>
      <trkpt lat="47.63327" lon="-2.67391">
        <ele>20</ele>
        <time>2026-08-20T13:30:53Z</time>
      </trkpt>
      <trkpt lat="47.63326" lon="-2.67385">
        <ele>20</ele>
        <time>2026-08-20T13:30:54Z</time>
      </trkpt>
      <trkpt lat="47.63324" lon="-2.67378">
        <ele>20</ele>
        <time>2026-08-20T13:30:55Z</time>
      </trkpt>
      <trkpt lat="47.63322" lon="-2.67371">
        <ele>20</ele>
        <time>2026-08-20T13:30:56Z</time>
      </trkpt>
      <trkpt lat="47.6332" lon="-2.67364">
        <ele>20</ele>
        <time>2026-08-20T13:30:57Z</time>
      </trkpt>
      <trkpt lat="47.63318" lon="-2.67358">
        <ele>20</ele>
        <time>2026-08-20T13:30:58Z</time>
      </trkpt>
      <trkpt lat="47.63317" lon="-2.67351">
        <ele>20</ele>
        <time>2026-08-20T13:30:59Z</time>
      </trkpt>
      <trkpt lat="47.63315" lon="-2.67344">
        <ele>20</ele>
        <time>2026-08-20T13:31:00Z</time>
      </trkpt>
      <trkpt lat="47.63313" lon="-2.67337">
        <ele>20</ele>
        <time>2026-08-20T13:31:01Z</time>
      </trkpt>
      <trkpt lat="47.63311" lon="-2.6733">
        <ele>19.9</ele>
        <time>2026-08-20T13:31:02Z</time>
      </trkpt>
      <trkpt lat="47.63309" lon="-2.67323">
        <ele>19.6</ele>
        <time>2026-08-20T13:31:03Z</time>
      </trkpt>
      <trkpt lat="47.63307" lon="-2.67315">
        <ele>19.3</ele>
        <time>2026-08-20T13:31:04Z</time>
      </trkpt>
      <trkpt lat="47.63305" lon="-2.67308">
        <ele>19.1</ele>
        <time>2026-08-20T13:31:05Z</time>
      </trkpt>
      <trkpt lat="47.63303" lon="-2.673">
        <ele>19</ele>
        <time>2026-08-20T13:31:06Z</time>
      </trkpt>
      <trkpt lat="47.633" lon="-2.67293">
        <ele>19</ele>
        <time>2026-08-20T13:31:07Z</time>
      </trkpt>
      <trkpt lat="47.63298" lon="-2.67285">
        <ele>19</ele>
        <time>2026-08-20T13:31:08Z</time>
      </trkpt>
      <trkpt lat="47.63297" lon="-2.67277">
        <ele>19</ele>
        <time>2026-08-20T13:31:09Z</time>
      </trkpt>
      <trkpt lat="47.63296" lon="-2.67269">
        <ele>19</ele>
        <time>2026-08-20T13:31:10Z</time>
      </trkpt>
      <trkpt lat="47.63295" lon="-2.67261">
        <ele>19</ele>
        <time>2026-08-20T13:31:11Z</time>
      </trkpt>
      <trkpt lat="47.63294" lon="-2.67253">
        <ele>19</ele>
        <time>2026-08-20T13:31:12Z</time>
      </trkpt>
      <trkpt lat="47.63293" lon="-2.67246">
        <ele>18.9</ele>
        <time>2026-08-20T13:31:13Z</time>
      </trkpt>
      <trkpt lat="47.63292" lon="-2.67238">
        <ele>18.6</ele>
        <time>2026-08-20T13:31:14Z</time>
      </trkpt>
      <trkpt lat="47.63291" lon="-2.6723">
        <ele>18.3</ele>
        <time>2026-08-20T13:31:15Z</time>
      </trkpt>
      <trkpt lat="47.6329" lon="-2.67223">
        <ele>18</ele>
        <time>2026-08-20T13:31:16Z</time>
      </trkpt>
      <trkpt lat="47.63289" lon="-2.67215">
        <ele>18</ele>
        <time>2026-08-20T13:31:17Z</time>
      </trkpt>
      <trkpt lat="47.63288" lon="-2.67206">
        <ele>18</ele>
        <time>2026-08-20T13:31:18Z</time>
      </trkpt>
      <trkpt lat="47.63287" lon="-2.67198">
        <ele>18</ele>
        <time>2026-08-20T13:31:19Z</time>
      </trkpt>
      <trkpt lat="47.63286" lon="-2.67189">
        <ele>17.8</ele>
        <time>2026-08-20T13:31:20Z</time>
      </trkpt>
      <trkpt lat="47.63285" lon="-2.6718">
        <ele>17.5</ele>
        <time>2026-08-20T13:31:21Z</time>
      </trkpt>
      <trkpt lat="47.63284" lon="-2.67171">
        <ele>17.2</ele>
        <time>2026-08-20T13:31:22Z</time>
      </trkpt>
      <trkpt lat="47.63284" lon="-2.67162">
        <ele>17</ele>
        <time>2026-08-20T13:31:23Z</time>
      </trkpt>
      <trkpt lat="47.63283" lon="-2.67153">
        <ele>16.9</ele>
        <time>2026-08-20T13:31:24Z</time>
      </trkpt>
      <trkpt lat="47.63282" lon="-2.67143">
        <ele>16.9</ele>
        <time>2026-08-20T13:31:25Z</time>
      </trkpt>
      <trkpt lat="47.63281" lon="-2.67133">
        <ele>16.7</ele>
        <time>2026-08-20T13:31:26Z</time>
      </trkpt>
      <trkpt lat="47.6328" lon="-2.67124">
        <ele>16.4</ele>
        <time>2026-08-20T13:31:27Z</time>
      </trkpt>
      <trkpt lat="47.63279" lon="-2.67114">
        <ele>16.1</ele>
        <time>2026-08-20T13:31:28Z</time>
      </trkpt>
      <trkpt lat="47.63278" lon="-2.67104">
        <ele>16</ele>
        <time>2026-08-20T13:31:29Z</time>
      </trkpt>
      <trkpt lat="47.63277" lon="-2.67094">
        <ele>16</ele>
        <time>2026-08-20T13:31:30Z</time>
      </trkpt>
      <trkpt lat="47.63276" lon="-2.67084">
        <ele>16</ele>
        <time>2026-08-20T13:31:31Z</time>
      </trkpt>
      <trkpt lat="47.63275" lon="-2.67075">
        <ele>15.7</ele>
        <time>2026-08-20T13:31:32Z</time>
      </trkpt>
      <trkpt lat="47.63274" lon="-2.67065">
        <ele>15.3</ele>
        <time>2026-08-20T13:31:33Z</time>
      </trkpt>
      <trkpt lat="47.63273" lon="-2.67055">
        <ele>15</ele>
        <time>2026-08-20T13:31:34Z</time>
      </trkpt>
      <trkpt lat="47.63272" lon="-2.67046">
        <ele>15.3</ele>
        <time>2026-08-20T13:31:35Z</time>
      </trkpt>
      <trkpt lat="47.63271" lon="-2.67036">
        <ele>15.5</ele>
        <time>2026-08-20T13:31:36Z</time>
      </trkpt>
      <trkpt lat="47.6327" lon="-2.67027">
        <ele>15.7</ele>
        <time>2026-08-20T13:31:37Z</time>
      </trkpt>
      <trkpt lat="47.63269" lon="-2.67018">
        <ele>15.7</ele>
        <time>2026-08-20T13:31:38Z</time>
      </trkpt>
      <trkpt lat="47.63268" lon="-2.6701">
        <ele>15.6</ele>
        <time>2026-08-20T13:31:39Z</time>
      </trkpt>
      <trkpt lat="47.63267" lon="-2.67001">
        <ele>15.6</ele>
        <time>2026-08-20T13:31:40Z</time>
      </trkpt>
      <trkpt lat="47.63266" lon="-2.66993">
        <ele>15.6</ele>
        <time>2026-08-20T13:31:41Z</time>
      </trkpt>
      <trkpt lat="47.63265" lon="-2.66985">
        <ele>15.5</ele>
        <time>2026-08-20T13:31:42Z</time>
      </trkpt>
      <trkpt lat="47.63264" lon="-2.66977">
        <ele>15.5</ele>
        <time>2026-08-20T13:31:43Z</time>
      </trkpt>
      <trkpt lat="47.63263" lon="-2.6697">
        <ele>15.5</ele>
        <time>2026-08-20T13:31:44Z</time>
      </trkpt>
      <trkpt lat="47.63263" lon="-2.66962">
        <ele>15.5</ele>
        <time>2026-08-20T13:31:45Z</time>
      </trkpt>
      <trkpt lat="47.63263" lon="-2.66955">
        <ele>15.5</ele>
        <time>2026-08-20T13:31:46Z</time>
      </trkpt>
      <trkpt lat="47.63263" lon="-2.66948">
        <ele>15.5</ele>
        <time>2026-08-20T13:31:47Z</time>
      </trkpt>
      <trkpt lat="47.63262" lon="-2.6694">
        <ele>15.4</ele>
        <time>2026-08-20T13:31:48Z</time>
      </trkpt>
      <trkpt lat="47.63262" lon="-2.66932">
        <ele>15.4</ele>
        <time>2026-08-20T13:31:49Z</time>
      </trkpt>
      <trkpt lat="47.63263" lon="-2.66925">
        <ele>15.5</ele>
        <time>2026-08-20T13:31:50Z</time>
      </trkpt>
      <trkpt lat="47.63262" lon="-2.66917">
        <ele>15.4</ele>
        <time>2026-08-20T13:31:51Z</time>
      </trkpt>
      <trkpt lat="47.63259" lon="-2.66912">
        <ele>15.4</ele>
        <time>2026-08-20T13:31:52Z</time>
      </trkpt>
      <trkpt lat="47.63256" lon="-2.66907">
        <ele>15.4</ele>
        <time>2026-08-20T13:31:53Z</time>
      </trkpt>
      <trkpt lat="47.63253" lon="-2.66902">
        <ele>15.2</ele>
        <time>2026-08-20T13:31:54Z</time>
      </trkpt>
      <trkpt lat="47.63252" lon="-2.66895">
        <ele>15.2</ele>
        <time>2026-08-20T13:31:55Z</time>
      </trkpt>
      <trkpt lat="47.6325" lon="-2.66888">
        <ele>15</ele>
        <time>2026-08-20T13:31:56Z</time>
      </trkpt>
      <trkpt lat="47.6325" lon="-2.6688">
        <ele>15</ele>
        <time>2026-08-20T13:31:57Z</time>
      </trkpt>
      <trkpt lat="47.63249" lon="-2.66873">
        <ele>14.9</ele>
        <time>2026-08-20T13:31:58Z</time>
      </trkpt>
      <trkpt lat="47.63249" lon="-2.66865">
        <ele>14.9</ele>
        <time>2026-08-20T13:31:59Z</time>
      </trkpt>
      <trkpt lat="47.63248" lon="-2.66857">
        <ele>15</ele>
        <time>2026-08-20T13:32:00Z</time>
      </trkpt>
      <trkpt lat="47.63248" lon="-2.66849">
        <ele>15.3</ele>
        <time>2026-08-20T13:32:01Z</time>
      </trkpt>
      <trkpt lat="47.63248" lon="-2.66842">
        <ele>15.5</ele>
        <time>2026-08-20T13:32:02Z</time>
      </trkpt>
      <trkpt lat="47.63247" lon="-2.66834">
        <ele>15.7</ele>
        <time>2026-08-20T13:32:03Z</time>
      </trkpt>
      <trkpt lat="47.63247" lon="-2.66827">
        <ele>15.5</ele>
        <time>2026-08-20T13:32:04Z</time>
      </trkpt>
      <trkpt lat="47.63247" lon="-2.66819">
        <ele>15.3</ele>
        <time>2026-08-20T13:32:05Z</time>
      </trkpt>
      <trkpt lat="47.63246" lon="-2.66811">
        <ele>15</ele>
        <time>2026-08-20T13:32:06Z</time>
      </trkpt>
      <trkpt lat="47.63245" lon="-2.66804">
        <ele>14.8</ele>
        <time>2026-08-20T13:32:07Z</time>
      </trkpt>
      <trkpt lat="47.63245" lon="-2.66795">
        <ele>14.4</ele>
        <time>2026-08-20T13:32:08Z</time>
      </trkpt>
      <trkpt lat="47.63244" lon="-2.66787">
        <ele>14.1</ele>
        <time>2026-08-20T13:32:09Z</time>
      </trkpt>
      <trkpt lat="47.63243" lon="-2.66778">
        <ele>13.8</ele>
        <time>2026-08-20T13:32:10Z</time>
      </trkpt>
      <trkpt lat="47.63243" lon="-2.6677">
        <ele>13.7</ele>
        <time>2026-08-20T13:32:11Z</time>
      </trkpt>
      <trkpt lat="47.63242" lon="-2.66761">
        <ele>13.7</ele>
        <time>2026-08-20T13:32:12Z</time>
      </trkpt>
      <trkpt lat="47.63241" lon="-2.66751">
        <ele>13.7</ele>
        <time>2026-08-20T13:32:13Z</time>
      </trkpt>
      <trkpt lat="47.6324" lon="-2.66742">
        <ele>13.6</ele>
        <time>2026-08-20T13:32:14Z</time>
      </trkpt>
      <trkpt lat="47.63239" lon="-2.66732">
        <ele>13.6</ele>
        <time>2026-08-20T13:32:15Z</time>
      </trkpt>
      <trkpt lat="47.63238" lon="-2.66722">
        <ele>13.6</ele>
        <time>2026-08-20T13:32:16Z</time>
      </trkpt>
      <trkpt lat="47.63237" lon="-2.66713">
        <ele>13.4</ele>
        <time>2026-08-20T13:32:17Z</time>
      </trkpt>
      <trkpt lat="47.63235" lon="-2.66704">
        <ele>13.2</ele>
        <time>2026-08-20T13:32:18Z</time>
      </trkpt>
      <trkpt lat="47.63234" lon="-2.66695">
        <ele>13</ele>
        <time>2026-08-20T13:32:19Z</time>
      </trkpt>
      <trkpt lat="47.63231" lon="-2.66687">
        <ele>13.1</ele>
        <time>2026-08-20T13:32:20Z</time>
      </trkpt>
      <trkpt lat="47.63229" lon="-2.66679">
        <ele>13.1</ele>
        <time>2026-08-20T13:32:21Z</time>
      </trkpt>
      <trkpt lat="47.63228" lon="-2.66671">
        <ele>13.2</ele>
        <time>2026-08-20T13:32:22Z</time>
      </trkpt>
      <trkpt lat="47.63227" lon="-2.66663">
        <ele>13.2</ele>
        <time>2026-08-20T13:32:23Z</time>
      </trkpt>
      <trkpt lat="47.63227" lon="-2.66656">
        <ele>13.2</ele>
        <time>2026-08-20T13:32:24Z</time>
      </trkpt>
      <trkpt lat="47.63227" lon="-2.66649">
        <ele>13.2</ele>
        <time>2026-08-20T13:32:25Z</time>
      </trkpt>
      <trkpt lat="47.63228" lon="-2.66643">
        <ele>13.2</ele>
        <time>2026-08-20T13:32:26Z</time>
      </trkpt>
      <trkpt lat="47.6323" lon="-2.66636">
        <ele>13.3</ele>
        <time>2026-08-20T13:32:27Z</time>
      </trkpt>
      <trkpt lat="47.63231" lon="-2.6663">
        <ele>13.3</ele>
        <time>2026-08-20T13:32:28Z</time>
      </trkpt>
      <trkpt lat="47.63232" lon="-2.66623">
        <ele>13.4</ele>
        <time>2026-08-20T13:32:29Z</time>
      </trkpt>
      <trkpt lat="47.63233" lon="-2.66617">
        <ele>13.4</ele>
        <time>2026-08-20T13:32:30Z</time>
      </trkpt>
      <trkpt lat="47.63232" lon="-2.6661">
        <ele>13.4</ele>
        <time>2026-08-20T13:32:31Z</time>
      </trkpt>
      <trkpt lat="47.63231" lon="-2.66603">
        <ele>13.3</ele>
        <time>2026-08-20T13:32:32Z</time>
      </trkpt>
      <trkpt lat="47.63229" lon="-2.66595">
        <ele>13.2</ele>
        <time>2026-08-20T13:32:33Z</time>
      </trkpt>
      <trkpt lat="47.63227" lon="-2.66587">
        <ele>13.2</ele>
        <time>2026-08-20T13:32:34Z</time>
      </trkpt>
      <trkpt lat="47.63226" lon="-2.66579">
        <ele>13</ele>
        <time>2026-08-20T13:32:35Z</time>
      </trkpt>
      <trkpt lat="47.63226" lon="-2.66571">
        <ele>12.7</ele>
        <time>2026-08-20T13:32:36Z</time>
      </trkpt>
      <trkpt lat="47.63225" lon="-2.66563">
        <ele>12.4</ele>
        <time>2026-08-20T13:32:37Z</time>
      </trkpt>
      <trkpt lat="47.63225" lon="-2.66554">
        <ele>12.1</ele>
        <time>2026-08-20T13:32:38Z</time>
      </trkpt>
      <trkpt lat="47.63224" lon="-2.66546">
        <ele>12.1</ele>
        <time>2026-08-20T13:32:39Z</time>
      </trkpt>
      <trkpt lat="47.6322" lon="-2.66538">
        <ele>11.9</ele>
        <time>2026-08-20T13:32:40Z</time>
      </trkpt>
      <trkpt lat="47.63215" lon="-2.66531">
        <ele>11.8</ele>
        <time>2026-08-20T13:32:41Z</time>
      </trkpt>
      <trkpt lat="47.63211" lon="-2.66524">
        <ele>11.5</ele>
        <time>2026-08-20T13:32:42Z</time>
      </trkpt>
      <trkpt lat="47.63209" lon="-2.66515">
        <ele>11.3</ele>
        <time>2026-08-20T13:32:43Z</time>
      </trkpt>
      <trkpt lat="47.63207" lon="-2.66505">
        <ele>11.1</ele>
        <time>2026-08-20T13:32:44Z</time>
      </trkpt>
      <trkpt lat="47.63207" lon="-2.66496">
        <ele>10.9</ele>
        <time>2026-08-20T13:32:45Z</time>
      </trkpt>
      <trkpt lat="47.63206" lon="-2.66485">
        <ele>10.7</ele>
        <time>2026-08-20T13:32:46Z</time>
      </trkpt>
      <trkpt lat="47.63205" lon="-2.66476">
        <ele>10.5</ele>
        <time>2026-08-20T13:32:47Z</time>
      </trkpt>
      <trkpt lat="47.63205" lon="-2.66465">
        <ele>10.3</ele>
        <time>2026-08-20T13:32:48Z</time>
      </trkpt>
      <trkpt lat="47.63206" lon="-2.66455">
        <ele>10.2</ele>
        <time>2026-08-20T13:32:49Z</time>
      </trkpt>
      <trkpt lat="47.63206" lon="-2.66444">
        <ele>10</ele>
        <time>2026-08-20T13:32:50Z</time>
      </trkpt>
      <trkpt lat="47.63205" lon="-2.66433">
        <ele>9.7</ele>
        <time>2026-08-20T13:32:51Z</time>
      </trkpt>
      <trkpt lat="47.63204" lon="-2.66422">
        <ele>9.5</ele>
        <time>2026-08-20T13:32:52Z</time>
      </trkpt>
      <trkpt lat="47.63203" lon="-2.66411">
        <ele>9.3</ele>
        <time>2026-08-20T13:32:53Z</time>
      </trkpt>
      <trkpt lat="47.63202" lon="-2.664">
        <ele>9.3</ele>
        <time>2026-08-20T13:32:54Z</time>
      </trkpt>
      <trkpt lat="47.63201" lon="-2.6639">
        <ele>9.2</ele>
        <time>2026-08-20T13:32:55Z</time>
      </trkpt>
      <trkpt lat="47.632" lon="-2.66379">
        <ele>9.2</ele>
        <time>2026-08-20T13:32:56Z</time>
      </trkpt>
      <trkpt lat="47.63199" lon="-2.66369">
        <ele>9.2</ele>
        <time>2026-08-20T13:32:57Z</time>
      </trkpt>
      <trkpt lat="47.63198" lon="-2.66358">
        <ele>9</ele>
        <time>2026-08-20T13:32:58Z</time>
      </trkpt>
      <trkpt lat="47.63197" lon="-2.66348">
        <ele>8.7</ele>
        <time>2026-08-20T13:32:59Z</time>
      </trkpt>
      <trkpt lat="47.63196" lon="-2.66338">
        <ele>8.3</ele>
        <time>2026-08-20T13:33:00Z</time>
      </trkpt>
      <trkpt lat="47.63195" lon="-2.66328">
        <ele>8</ele>
        <time>2026-08-20T13:33:01Z</time>
      </trkpt>
      <trkpt lat="47.63194" lon="-2.66318">
        <ele>8</ele>
        <time>2026-08-20T13:33:02Z</time>
      </trkpt>
      <trkpt lat="47.63192" lon="-2.66309">
        <ele>8</ele>
        <time>2026-08-20T13:33:03Z</time>
      </trkpt>
      <trkpt lat="47.63191" lon="-2.66299">
        <ele>8</ele>
        <time>2026-08-20T13:33:04Z</time>
      </trkpt>
      <trkpt lat="47.6319" lon="-2.6629">
        <ele>8</ele>
        <time>2026-08-20T13:33:05Z</time>
      </trkpt>
      <trkpt lat="47.63189" lon="-2.6628">
        <ele>8</ele>
        <time>2026-08-20T13:33:06Z</time>
      </trkpt>
      <trkpt lat="47.63189" lon="-2.66271">
        <ele>8</ele>
        <time>2026-08-20T13:33:07Z</time>
      </trkpt>
      <trkpt lat="47.63191" lon="-2.66262">
        <ele>8</ele>
        <time>2026-08-20T13:33:08Z</time>
      </trkpt>
      <trkpt lat="47.63192" lon="-2.66253">
        <ele>8</ele>
        <time>2026-08-20T13:33:09Z</time>
      </trkpt>
      <trkpt lat="47.63194" lon="-2.66245">
        <ele>8</ele>
        <time>2026-08-20T13:33:10Z</time>
      </trkpt>
      <trkpt lat="47.63197" lon="-2.66238">
        <ele>8.1</ele>
        <time>2026-08-20T13:33:11Z</time>
      </trkpt>
      <trkpt lat="47.63199" lon="-2.66232">
        <ele>8.2</ele>
        <time>2026-08-20T13:33:12Z</time>
      </trkpt>
      <trkpt lat="47.63202" lon="-2.66227">
        <ele>8.3</ele>
        <time>2026-08-20T13:33:13Z</time>
      </trkpt>
      <trkpt lat="47.63204" lon="-2.66222">
        <ele>8.3</ele>
        <time>2026-08-20T13:33:14Z</time>
      </trkpt>
      <trkpt lat="47.63205" lon="-2.66216">
        <ele>8.4</ele>
        <time>2026-08-20T13:33:15Z</time>
      </trkpt>
      <trkpt lat="47.63205" lon="-2.6621">
        <ele>8.4</ele>
        <time>2026-08-20T13:33:16Z</time>
      </trkpt>
      <trkpt lat="47.63204" lon="-2.66205">
        <ele>8.3</ele>
        <time>2026-08-20T13:33:17Z</time>
      </trkpt>
      <trkpt lat="47.63202" lon="-2.662">
        <ele>8.3</ele>
        <time>2026-08-20T13:33:18Z</time>
      </trkpt>
      <trkpt lat="47.63199" lon="-2.66196">
        <ele>8.2</ele>
        <time>2026-08-20T13:33:19Z</time>
      </trkpt>
      <trkpt lat="47.63196" lon="-2.66193">
        <ele>8.1</ele>
        <time>2026-08-20T13:33:20Z</time>
      </trkpt>
      <trkpt lat="47.63193" lon="-2.66189">
        <ele>8</ele>
        <time>2026-08-20T13:33:21Z</time>
      </trkpt>
      <trkpt lat="47.63191" lon="-2.66184">
        <ele>8</ele>
        <time>2026-08-20T13:33:22Z</time>
      </trkpt>
      <trkpt lat="47.63188" lon="-2.66179">
        <ele>8</ele>
        <time>2026-08-20T13:33:23Z</time>
      </trkpt>
      <trkpt lat="47.63185" lon="-2.66172">
        <ele>8</ele>
        <time>2026-08-20T13:33:24Z</time>
      </trkpt>
      <trkpt lat="47.63183" lon="-2.66164">
        <ele>8</ele>
        <time>2026-08-20T13:33:25Z</time>
      </trkpt>
      <trkpt lat="47.63182" lon="-2.66157">
        <ele>8</ele>
        <time>2026-08-20T13:33:26Z</time>
      </trkpt>
      <trkpt lat="47.63182" lon="-2.66149">
        <ele>8</ele>
        <time>2026-08-20T13:33:27Z</time>
      </trkpt>
      <trkpt lat="47.63182" lon="-2.66141">
        <ele>8</ele>
        <time>2026-08-20T13:33:28Z</time>
      </trkpt>
      <trkpt lat="47.63182" lon="-2.66133">
        <ele>8.1</ele>
        <time>2026-08-20T13:33:29Z</time>
      </trkpt>
      <trkpt lat="47.6318" lon="-2.66125">
        <ele>8.2</ele>
        <time>2026-08-20T13:33:30Z</time>
      </trkpt>
      <trkpt lat="47.63177" lon="-2.66119">
        <ele>8.3</ele>
        <time>2026-08-20T13:33:31Z</time>
      </trkpt>
      <trkpt lat="47.63175" lon="-2.66112">
        <ele>8.3</ele>
        <time>2026-08-20T13:33:32Z</time>
      </trkpt>
      <trkpt lat="47.63172" lon="-2.66104">
        <ele>8.2</ele>
        <time>2026-08-20T13:33:33Z</time>
      </trkpt>
      <trkpt lat="47.63171" lon="-2.66097">
        <ele>8.2</ele>
        <time>2026-08-20T13:33:34Z</time>
      </trkpt>
      <trkpt lat="47.63169" lon="-2.66089">
        <ele>8.1</ele>
        <time>2026-08-20T13:33:35Z</time>
      </trkpt>
      <trkpt lat="47.63167" lon="-2.66082">
        <ele>8</ele>
        <time>2026-08-20T13:33:36Z</time>
      </trkpt>
      <trkpt lat="47.63165" lon="-2.66074">
        <ele>8</ele>
        <time>2026-08-20T13:33:37Z</time>
      </trkpt>
      <trkpt lat="47.63163" lon="-2.66067">
        <ele>8</ele>
        <time>2026-08-20T13:33:38Z</time>
      </trkpt>
      <trkpt lat="47.6316" lon="-2.6606">
        <ele>8</ele>
        <time>2026-08-20T13:33:39Z</time>
      </trkpt>
      <trkpt lat="47.63158" lon="-2.66052">
        <ele>8.1</ele>
        <time>2026-08-20T13:33:40Z</time>
      </trkpt>
      <trkpt lat="47.63155" lon="-2.66045">
        <ele>8.2</ele>
        <time>2026-08-20T13:33:41Z</time>
      </trkpt>
      <trkpt lat="47.63153" lon="-2.66038">
        <ele>8.3</ele>
        <time>2026-08-20T13:33:42Z</time>
      </trkpt>
      <trkpt lat="47.63151" lon="-2.66031">
        <ele>8.4</ele>
        <time>2026-08-20T13:33:43Z</time>
      </trkpt>
      <trkpt lat="47.63149" lon="-2.66023">
        <ele>8.4</ele>
        <time>2026-08-20T13:33:44Z</time>
      </trkpt>
      <trkpt lat="47.63148" lon="-2.66015">
        <ele>8.3</ele>
        <time>2026-08-20T13:33:45Z</time>
      </trkpt>
      <trkpt lat="47.63146" lon="-2.66008">
        <ele>8.3</ele>
        <time>2026-08-20T13:33:46Z</time>
      </trkpt>
      <trkpt lat="47.63144" lon="-2.66">
        <ele>8.2</ele>
        <time>2026-08-20T13:33:47Z</time>
      </trkpt>
      <trkpt lat="47.63142" lon="-2.65992">
        <ele>8.1</ele>
        <time>2026-08-20T13:33:48Z</time>
      </trkpt>
      <trkpt lat="47.63139" lon="-2.65985">
        <ele>8</ele>
        <time>2026-08-20T13:33:49Z</time>
      </trkpt>
      <trkpt lat="47.63137" lon="-2.65978">
        <ele>8</ele>
        <time>2026-08-20T13:33:50Z</time>
      </trkpt>
      <trkpt lat="47.63134" lon="-2.6597">
        <ele>8</ele>
        <time>2026-08-20T13:33:51Z</time>
      </trkpt>
      <trkpt lat="47.63132" lon="-2.65963">
        <ele>8</ele>
        <time>2026-08-20T13:33:52Z</time>
      </trkpt>
      <trkpt lat="47.63129" lon="-2.65955">
        <ele>8</ele>
        <time>2026-08-20T13:33:53Z</time>
      </trkpt>
      <trkpt lat="47.63127" lon="-2.65948">
        <ele>8</ele>
        <time>2026-08-20T13:33:54Z</time>
      </trkpt>
      <trkpt lat="47.63125" lon="-2.65941">
        <ele>7.9</ele>
        <time>2026-08-20T13:33:55Z</time>
      </trkpt>
      <trkpt lat="47.63123" lon="-2.65933">
        <ele>7.8</ele>
        <time>2026-08-20T13:33:56Z</time>
      </trkpt>
      <trkpt lat="47.6312" lon="-2.65926">
        <ele>7.5</ele>
        <time>2026-08-20T13:33:57Z</time>
      </trkpt>
      <trkpt lat="47.63118" lon="-2.65919">
        <ele>7.3</ele>
        <time>2026-08-20T13:33:58Z</time>
      </trkpt>
      <trkpt lat="47.63116" lon="-2.65912">
        <ele>7.3</ele>
        <time>2026-08-20T13:33:59Z</time>
      </trkpt>
      <trkpt lat="47.63114" lon="-2.65905">
        <ele>7.5</ele>
        <time>2026-08-20T13:34:00Z</time>
      </trkpt>
      <trkpt lat="47.63112" lon="-2.65898">
        <ele>7.7</ele>
        <time>2026-08-20T13:34:01Z</time>
      </trkpt>
      <trkpt lat="47.6311" lon="-2.65891">
        <ele>7.9</ele>
        <time>2026-08-20T13:34:02Z</time>
      </trkpt>
      <trkpt lat="47.63108" lon="-2.65885">
        <ele>8</ele>
        <time>2026-08-20T13:34:03Z</time>
      </trkpt>
      <trkpt lat="47.63106" lon="-2.65878">
        <ele>8</ele>
        <time>2026-08-20T13:34:04Z</time>
      </trkpt>
      <trkpt lat="47.63104" lon="-2.65872">
        <ele>8</ele>
        <time>2026-08-20T13:34:05Z</time>
      </trkpt>
      <trkpt lat="47.63101" lon="-2.65866">
        <ele>8</ele>
        <time>2026-08-20T13:34:06Z</time>
      </trkpt>
      <trkpt lat="47.63099" lon="-2.6586">
        <ele>8</ele>
        <time>2026-08-20T13:34:07Z</time>
      </trkpt>
      <trkpt lat="47.63096" lon="-2.65854">
        <ele>8</ele>
        <time>2026-08-20T13:34:08Z</time>
      </trkpt>
      <trkpt lat="47.63093" lon="-2.65847">
        <ele>8</ele>
        <time>2026-08-20T13:34:09Z</time>
      </trkpt>
      <trkpt lat="47.63091" lon="-2.65842">
        <ele>8</ele>
        <time>2026-08-20T13:34:10Z</time>
      </trkpt>
      <trkpt lat="47.63088" lon="-2.65837">
        <ele>8</ele>
        <time>2026-08-20T13:34:11Z</time>
      </trkpt>
      <trkpt lat="47.63086" lon="-2.65834">
        <ele>8</ele>
        <time>2026-08-20T13:34:12Z</time>
      </trkpt>
      <trkpt lat="47.63084" lon="-2.65834">
        <ele>8</ele>
        <time>2026-08-20T13:34:13Z</time>
      </trkpt>
      <trkpt lat="47.63082" lon="-2.65836">
        <ele>8</ele>
        <time>2026-08-20T13:34:14Z</time>
      </trkpt>
      <trkpt lat="47.63082" lon="-2.65837">
        <ele>8</ele>
        <time>2026-08-20T13:34:15Z</time>
      </trkpt>
      <trkpt lat="47.63081" lon="-2.65837">
        <ele>7.9</ele>
        <time>2026-08-20T13:34:16Z</time>
      </trkpt>
      <trkpt lat="47.6308" lon="-2.65838">
        <ele>7.9</ele>
        <time>2026-08-20T13:34:17Z</time>
      </trkpt>
      <trkpt lat="47.63077" lon="-2.6584">
        <ele>7.8</ele>
        <time>2026-08-20T13:34:19Z</time>
      </trkpt>
      <trkpt lat="47.63075" lon="-2.6584">
        <ele>7.7</ele>
        <time>2026-08-20T13:34:20Z</time>
      </trkpt>
      <trkpt lat="47.63072" lon="-2.65839">
        <ele>7.6</ele>
        <time>2026-08-20T13:34:21Z</time>
      </trkpt>
      <trkpt lat="47.6307" lon="-2.65836">
        <ele>7.5</ele>
        <time>2026-08-20T13:34:22Z</time>
      </trkpt>
      <trkpt lat="47.63068" lon="-2.65833">
        <ele>7.5</ele>
        <time>2026-08-20T13:34:23Z</time>
      </trkpt>
      <trkpt lat="47.63066" lon="-2.65829">
        <ele>7.5</ele>
        <time>2026-08-20T13:34:24Z</time>
      </trkpt>
      <trkpt lat="47.63065" lon="-2.65826">
        <ele>7.5</ele>
        <time>2026-08-20T13:34:25Z</time>
      </trkpt>
      <trkpt lat="47.63063" lon="-2.65822">
        <ele>7.6</ele>
        <time>2026-08-20T13:34:26Z</time>
      </trkpt>
      <trkpt lat="47.63061" lon="-2.65819">
        <ele>7.6</ele>
        <time>2026-08-20T13:34:27Z</time>
      </trkpt>
      <trkpt lat="47.63057" lon="-2.65818">
        <ele>7.6</ele>
        <time>2026-08-20T13:34:28Z</time>
      </trkpt>
      <trkpt lat="47.63054" lon="-2.65819">
        <ele>7.5</ele>
        <time>2026-08-20T13:34:29Z</time>
      </trkpt>
      <trkpt lat="47.6305" lon="-2.65821">
        <ele>7.4</ele>
        <time>2026-08-20T13:34:30Z</time>
      </trkpt>
      <trkpt lat="47.63047" lon="-2.65823">
        <ele>7.3</ele>
        <time>2026-08-20T13:34:31Z</time>
      </trkpt>
      <trkpt lat="47.63042" lon="-2.65824">
        <ele>7.2</ele>
        <time>2026-08-20T13:34:32Z</time>
      </trkpt>
      <trkpt lat="47.63037" lon="-2.65825">
        <ele>7.1</ele>
        <time>2026-08-20T13:34:33Z</time>
      </trkpt>
      <trkpt lat="47.63033" lon="-2.65828">
        <ele>7</ele>
        <time>2026-08-20T13:34:34Z</time>
      </trkpt>
      <trkpt lat="47.63028" lon="-2.65831">
        <ele>7</ele>
        <time>2026-08-20T13:34:35Z</time>
      </trkpt>
      <trkpt lat="47.63023" lon="-2.65835">
        <ele>7</ele>
        <time>2026-08-20T13:34:36Z</time>
      </trkpt>
      <trkpt lat="47.63019" lon="-2.65838">
        <ele>6.9</ele>
        <time>2026-08-20T13:34:37Z</time>
      </trkpt>
      <trkpt lat="47.63014" lon="-2.65842">
        <ele>6.8</ele>
        <time>2026-08-20T13:34:38Z</time>
      </trkpt>
      <trkpt lat="47.63009" lon="-2.65846">
        <ele>6.7</ele>
        <time>2026-08-20T13:34:39Z</time>
      </trkpt>
      <trkpt lat="47.63004" lon="-2.6585">
        <ele>6.5</ele>
        <time>2026-08-20T13:34:40Z</time>
      </trkpt>
      <trkpt lat="47.63" lon="-2.65853">
        <ele>6.3</ele>
        <time>2026-08-20T13:34:41Z</time>
      </trkpt>
      <trkpt lat="47.62995" lon="-2.65857">
        <ele>6.1</ele>
        <time>2026-08-20T13:34:42Z</time>
      </trkpt>
      <trkpt lat="47.6299" lon="-2.65861">
        <ele>6</ele>
        <time>2026-08-20T13:34:43Z</time>
      </trkpt>
      <trkpt lat="47.62985" lon="-2.65866">
        <ele>6</ele>
        <time>2026-08-20T13:34:44Z</time>
      </trkpt>
      <trkpt lat="47.6298" lon="-2.65869">
        <ele>6</ele>
        <time>2026-08-20T13:34:45Z</time>
      </trkpt>
      <trkpt lat="47.62976" lon="-2.65873">
        <ele>6</ele>
        <time>2026-08-20T13:34:46Z</time>
      </trkpt>
      <trkpt lat="47.62971" lon="-2.65877">
        <ele>6</ele>
        <time>2026-08-20T13:34:47Z</time>
      </trkpt>
      <trkpt lat="47.62966" lon="-2.6588">
        <ele>6</ele>
        <time>2026-08-20T13:34:48Z</time>
      </trkpt>
      <trkpt lat="47.62962" lon="-2.65884">
        <ele>6</ele>
        <time>2026-08-20T13:34:49Z</time>
      </trkpt>
      <trkpt lat="47.62957" lon="-2.65887">
        <ele>6</ele>
        <time>2026-08-20T13:34:50Z</time>
      </trkpt>
      <trkpt lat="47.62953" lon="-2.65891">
        <ele>6</ele>
        <time>2026-08-20T13:34:51Z</time>
      </trkpt>
      <trkpt lat="47.62948" lon="-2.65894">
        <ele>6</ele>
        <time>2026-08-20T13:34:52Z</time>
      </trkpt>
      <trkpt lat="47.62944" lon="-2.65897">
        <ele>6</ele>
        <time>2026-08-20T13:34:53Z</time>
      </trkpt>
      <trkpt lat="47.62939" lon="-2.659">
        <ele>6</ele>
        <time>2026-08-20T13:34:54Z</time>
      </trkpt>
      <trkpt lat="47.62934" lon="-2.65903">
        <ele>6</ele>
        <time>2026-08-20T13:34:55Z</time>
      </trkpt>
      <trkpt lat="47.62929" lon="-2.65906">
        <ele>6</ele>
        <time>2026-08-20T13:34:56Z</time>
      </trkpt>
      <trkpt lat="47.62925" lon="-2.65909">
        <ele>6</ele>
        <time>2026-08-20T13:34:57Z</time>
      </trkpt>
      <trkpt lat="47.6292" lon="-2.65912">
        <ele>6</ele>
        <time>2026-08-20T13:34:58Z</time>
      </trkpt>
      <trkpt lat="47.62915" lon="-2.65915">
        <ele>5.9</ele>
        <time>2026-08-20T13:34:59Z</time>
      </trkpt>
      <trkpt lat="47.6291" lon="-2.65919">
        <ele>5.8</ele>
        <time>2026-08-20T13:35:00Z</time>
      </trkpt>
      <trkpt lat="47.62906" lon="-2.65922">
        <ele>5.6</ele>
        <time>2026-08-20T13:35:01Z</time>
      </trkpt>
      <trkpt lat="47.62901" lon="-2.65926">
        <ele>5.4</ele>
        <time>2026-08-20T13:35:02Z</time>
      </trkpt>
      <trkpt lat="47.62896" lon="-2.6593">
        <ele>5.3</ele>
        <time>2026-08-20T13:35:03Z</time>
      </trkpt>
      <trkpt lat="47.62892" lon="-2.65933">
        <ele>5.1</ele>
        <time>2026-08-20T13:35:04Z</time>
      </trkpt>
      <trkpt lat="47.62887" lon="-2.65937">
        <ele>5</ele>
        <time>2026-08-20T13:35:05Z</time>
      </trkpt>
      <trkpt lat="47.62883" lon="-2.6594">
        <ele>5</ele>
        <time>2026-08-20T13:35:06Z</time>
      </trkpt>
      <trkpt lat="47.62878" lon="-2.65944">
        <ele>5</ele>
        <time>2026-08-20T13:35:07Z</time>
      </trkpt>
      <trkpt lat="47.62874" lon="-2.65947">
        <ele>5</ele>
        <time>2026-08-20T13:35:08Z</time>
      </trkpt>
      <trkpt lat="47.62869" lon="-2.6595">
        <ele>5</ele>
        <time>2026-08-20T13:35:09Z</time>
      </trkpt>
      <trkpt lat="47.62865" lon="-2.65953">
        <ele>5</ele>
        <time>2026-08-20T13:35:10Z</time>
      </trkpt>
      <trkpt lat="47.62861" lon="-2.65957">
        <ele>5</ele>
        <time>2026-08-20T13:35:11Z</time>
      </trkpt>
      <trkpt lat="47.62857" lon="-2.6596">
        <ele>5</ele>
        <time>2026-08-20T13:35:12Z</time>
      </trkpt>
      <trkpt lat="47.62853" lon="-2.65963">
        <ele>5</ele>
        <time>2026-08-20T13:35:13Z</time>
      </trkpt>
      <trkpt lat="47.62849" lon="-2.65966">
        <ele>5</ele>
        <time>2026-08-20T13:35:14Z</time>
      </trkpt>
      <trkpt lat="47.62845" lon="-2.65969">
        <ele>5</ele>
        <time>2026-08-20T13:35:15Z</time>
      </trkpt>
      <trkpt lat="47.62841" lon="-2.65972">
        <ele>5</ele>
        <time>2026-08-20T13:35:16Z</time>
      </trkpt>
      <trkpt lat="47.62837" lon="-2.65975">
        <ele>5</ele>
        <time>2026-08-20T13:35:17Z</time>
      </trkpt>
      <trkpt lat="47.62833" lon="-2.65979">
        <ele>5</ele>
        <time>2026-08-20T13:35:18Z</time>
      </trkpt>
      <trkpt lat="47.62831" lon="-2.65982">
        <ele>5</ele>
        <time>2026-08-20T13:35:19Z</time>
      </trkpt>
      <trkpt lat="47.62828" lon="-2.65986">
        <ele>5</ele>
        <time>2026-08-20T13:35:20Z</time>
      </trkpt>
      <trkpt lat="47.62825" lon="-2.65989">
        <ele>5</ele>
        <time>2026-08-20T13:35:21Z</time>
      </trkpt>
      <trkpt lat="47.62822" lon="-2.65992">
        <ele>5</ele>
        <time>2026-08-20T13:35:22Z</time>
      </trkpt>
      <trkpt lat="47.62819" lon="-2.65994">
        <ele>5</ele>
        <time>2026-08-20T13:35:23Z</time>
      </trkpt>
      <trkpt lat="47.62816" lon="-2.65996">
        <ele>5</ele>
        <time>2026-08-20T13:35:24Z</time>
      </trkpt>
      <trkpt lat="47.62814" lon="-2.65997">
        <ele>5</ele>
        <time>2026-08-20T13:35:25Z</time>
      </trkpt>
      <trkpt lat="47.62811" lon="-2.65999">
        <ele>5</ele>
        <time>2026-08-20T13:35:26Z</time>
      </trkpt>
      <trkpt lat="47.62809" lon="-2.66001">
        <ele>5</ele>
        <time>2026-08-20T13:35:27Z</time>
      </trkpt>
      <trkpt lat="47.62806" lon="-2.66003">
        <ele>5</ele>
        <time>2026-08-20T13:35:28Z</time>
      </trkpt>
      <trkpt lat="47.62804" lon="-2.66005">
        <ele>4.9</ele>
        <time>2026-08-20T13:35:29Z</time>
      </trkpt>
      <trkpt lat="47.62801" lon="-2.66006">
        <ele>4.8</ele>
        <time>2026-08-20T13:35:30Z</time>
      </trkpt>
      <trkpt lat="47.62797" lon="-2.66006">
        <ele>4.7</ele>
        <time>2026-08-20T13:35:31Z</time>
      </trkpt>
      <trkpt lat="47.62793" lon="-2.66006">
        <ele>4.5</ele>
        <time>2026-08-20T13:35:32Z</time>
      </trkpt>
      <trkpt lat="47.62789" lon="-2.66004">
        <ele>4.4</ele>
        <time>2026-08-20T13:35:33Z</time>
      </trkpt>
      <trkpt lat="47.62784" lon="-2.66003">
        <ele>4.2</ele>
        <time>2026-08-20T13:35:34Z</time>
      </trkpt>
      <trkpt lat="47.62779" lon="-2.66002">
        <ele>4</ele>
        <time>2026-08-20T13:35:35Z</time>
      </trkpt>
      <trkpt lat="47.62774" lon="-2.66">
        <ele>4</ele>
        <time>2026-08-20T13:35:36Z</time>
      </trkpt>
      <trkpt lat="47.6277" lon="-2.65998">
        <ele>4</ele>
        <time>2026-08-20T13:35:37Z</time>
      </trkpt>
      <trkpt lat="47.62765" lon="-2.65997">
        <ele>4</ele>
        <time>2026-08-20T13:35:38Z</time>
      </trkpt>
      <trkpt lat="47.6276" lon="-2.65995">
        <ele>4</ele>
        <time>2026-08-20T13:35:39Z</time>
      </trkpt>
      <trkpt lat="47.62755" lon="-2.65993">
        <ele>4</ele>
        <time>2026-08-20T13:35:40Z</time>
      </trkpt>
      <trkpt lat="47.62751" lon="-2.65993">
        <ele>4</ele>
        <time>2026-08-20T13:35:41Z</time>
      </trkpt>
      <trkpt lat="47.62747" lon="-2.65992">
        <ele>4</ele>
        <time>2026-08-20T13:35:42Z</time>
      </trkpt>
      <trkpt lat="47.62742" lon="-2.65992">
        <ele>4</ele>
        <time>2026-08-20T13:35:43Z</time>
      </trkpt>
      <trkpt lat="47.62738" lon="-2.65992">
        <ele>4</ele>
        <time>2026-08-20T13:35:44Z</time>
      </trkpt>
      <trkpt lat="47.62733" lon="-2.6599">
        <ele>4</ele>
        <time>2026-08-20T13:35:45Z</time>
      </trkpt>
      <trkpt lat="47.62728" lon="-2.65989">
        <ele>4</ele>
        <time>2026-08-20T13:35:46Z</time>
      </trkpt>
      <trkpt lat="47.62724" lon="-2.65988">
        <ele>4</ele>
        <time>2026-08-20T13:35:47Z</time>
      </trkpt>
      <trkpt lat="47.62719" lon="-2.65986">
        <ele>3.9</ele>
        <time>2026-08-20T13:35:48Z</time>
      </trkpt>
      <trkpt lat="47.62714" lon="-2.65984">
        <ele>3.8</ele>
        <time>2026-08-20T13:35:49Z</time>
      </trkpt>
      <trkpt lat="47.62709" lon="-2.65982">
        <ele>3.7</ele>
        <time>2026-08-20T13:35:50Z</time>
      </trkpt>
      <trkpt lat="47.62703" lon="-2.65981">
        <ele>3.5</ele>
        <time>2026-08-20T13:35:51Z</time>
      </trkpt>
      <trkpt lat="47.62698" lon="-2.65979">
        <ele>3.3</ele>
        <time>2026-08-20T13:35:52Z</time>
      </trkpt>
      <trkpt lat="47.62693" lon="-2.65978">
        <ele>3.2</ele>
        <time>2026-08-20T13:35:53Z</time>
      </trkpt>
      <trkpt lat="47.62688" lon="-2.65977">
        <ele>3.1</ele>
        <time>2026-08-20T13:35:54Z</time>
      </trkpt>
      <trkpt lat="47.62683" lon="-2.65977">
        <ele>3.1</ele>
        <time>2026-08-20T13:35:55Z</time>
      </trkpt>
      <trkpt lat="47.62677" lon="-2.65977">
        <ele>3.1</ele>
        <time>2026-08-20T13:35:56Z</time>
      </trkpt>
      <trkpt lat="47.62672" lon="-2.65978">
        <ele>3</ele>
        <time>2026-08-20T13:35:57Z</time>
      </trkpt>
      <trkpt lat="47.62668" lon="-2.6598">
        <ele>3</ele>
        <time>2026-08-20T13:35:58Z</time>
      </trkpt>
      <trkpt lat="47.62663" lon="-2.65983">
        <ele>3.1</ele>
        <time>2026-08-20T13:35:59Z</time>
      </trkpt>
      <trkpt lat="47.62659" lon="-2.65986">
        <ele>3.1</ele>
        <time>2026-08-20T13:36:00Z</time>
      </trkpt>
      <trkpt lat="47.62655" lon="-2.65989">
        <ele>3.2</ele>
        <time>2026-08-20T13:36:01Z</time>
      </trkpt>
      <trkpt lat="47.6265" lon="-2.65992">
        <ele>3.2</ele>
        <time>2026-08-20T13:36:02Z</time>
      </trkpt>
      <trkpt lat="47.62646" lon="-2.65995">
        <ele>3.1</ele>
        <time>2026-08-20T13:36:03Z</time>
      </trkpt>
      <trkpt lat="47.62641" lon="-2.65998">
        <ele>3.1</ele>
        <time>2026-08-20T13:36:04Z</time>
      </trkpt>
      <trkpt lat="47.62636" lon="-2.66001">
        <ele>3</ele>
        <time>2026-08-20T13:36:05Z</time>
      </trkpt>
      <trkpt lat="47.62632" lon="-2.66004">
        <ele>3</ele>
        <time>2026-08-20T13:36:06Z</time>
      </trkpt>
      <trkpt lat="47.62627" lon="-2.66006">
        <ele>3.1</ele>
        <time>2026-08-20T13:36:07Z</time>
      </trkpt>
      <trkpt lat="47.62622" lon="-2.66008">
        <ele>3.2</ele>
        <time>2026-08-20T13:36:08Z</time>
      </trkpt>
      <trkpt lat="47.62617" lon="-2.6601">
        <ele>3.3</ele>
        <time>2026-08-20T13:36:09Z</time>
      </trkpt>
      <trkpt lat="47.62613" lon="-2.66012">
        <ele>3.4</ele>
        <time>2026-08-20T13:36:10Z</time>
      </trkpt>
      <trkpt lat="47.62608" lon="-2.66014">
        <ele>3.5</ele>
        <time>2026-08-20T13:36:11Z</time>
      </trkpt>
      <trkpt lat="47.62603" lon="-2.66015">
        <ele>3.5</ele>
        <time>2026-08-20T13:36:12Z</time>
      </trkpt>
      <trkpt lat="47.62598" lon="-2.66016">
        <ele>3.6</ele>
        <time>2026-08-20T13:36:13Z</time>
      </trkpt>
      <trkpt lat="47.62593" lon="-2.66018">
        <ele>3.6</ele>
        <time>2026-08-20T13:36:14Z</time>
      </trkpt>
      <trkpt lat="47.62588" lon="-2.66019">
        <ele>3.7</ele>
        <time>2026-08-20T13:36:15Z</time>
      </trkpt>
      <trkpt lat="47.62584" lon="-2.6602">
        <ele>3.7</ele>
        <time>2026-08-20T13:36:16Z</time>
      </trkpt>
      <trkpt lat="47.62579" lon="-2.66021">
        <ele>3.8</ele>
        <time>2026-08-20T13:36:17Z</time>
      </trkpt>
      <trkpt lat="47.62574" lon="-2.66022">
        <ele>3.8</ele>
        <time>2026-08-20T13:36:18Z</time>
      </trkpt>
      <trkpt lat="47.62569" lon="-2.66022">
        <ele>3.8</ele>
        <time>2026-08-20T13:36:19Z</time>
      </trkpt>
      <trkpt lat="47.62564" lon="-2.66022">
        <ele>3.8</ele>
        <time>2026-08-20T13:36:20Z</time>
      </trkpt>
      <trkpt lat="47.6256" lon="-2.66021">
        <ele>3.8</ele>
        <time>2026-08-20T13:36:21Z</time>
      </trkpt>
      <trkpt lat="47.62556" lon="-2.66021">
        <ele>3.8</ele>
        <time>2026-08-20T13:36:22Z</time>
      </trkpt>
      <trkpt lat="47.62552" lon="-2.6602">
        <ele>3.8</ele>
        <time>2026-08-20T13:36:23Z</time>
      </trkpt>
      <trkpt lat="47.62548" lon="-2.66018">
        <ele>3.8</ele>
        <time>2026-08-20T13:36:24Z</time>
      </trkpt>
      <trkpt lat="47.62544" lon="-2.66016">
        <ele>3.8</ele>
        <time>2026-08-20T13:36:25Z</time>
      </trkpt>
      <trkpt lat="47.6254" lon="-2.66013">
        <ele>3.7</ele>
        <time>2026-08-20T13:36:26Z</time>
      </trkpt>
      <trkpt lat="47.62536" lon="-2.6601">
        <ele>3.6</ele>
        <time>2026-08-20T13:36:27Z</time>
      </trkpt>
      <trkpt lat="47.62531" lon="-2.66007">
        <ele>3.5</ele>
        <time>2026-08-20T13:36:28Z</time>
      </trkpt>
      <trkpt lat="47.62527" lon="-2.66005">
        <ele>3.4</ele>
        <time>2026-08-20T13:36:29Z</time>
      </trkpt>
      <trkpt lat="47.62522" lon="-2.66003">
        <ele>3.4</ele>
        <time>2026-08-20T13:36:30Z</time>
      </trkpt>
      <trkpt lat="47.62518" lon="-2.66003">
        <ele>3.6</ele>
        <time>2026-08-20T13:36:31Z</time>
      </trkpt>
      <trkpt lat="47.62513" lon="-2.66003">
        <ele>3.7</ele>
        <time>2026-08-20T13:36:32Z</time>
      </trkpt>
      <trkpt lat="47.62508" lon="-2.66003">
        <ele>3.9</ele>
        <time>2026-08-20T13:36:33Z</time>
      </trkpt>
      <trkpt lat="47.62504" lon="-2.66004">
        <ele>4.1</ele>
        <time>2026-08-20T13:36:34Z</time>
      </trkpt>
      <trkpt lat="47.625" lon="-2.66006">
        <ele>4.4</ele>
        <time>2026-08-20T13:36:35Z</time>
      </trkpt>
      <trkpt lat="47.62497" lon="-2.66008">
        <ele>4.6</ele>
        <time>2026-08-20T13:36:36Z</time>
      </trkpt>
      <trkpt lat="47.62494" lon="-2.6601">
        <ele>4.7</ele>
        <time>2026-08-20T13:36:37Z</time>
      </trkpt>
      <trkpt lat="47.62492" lon="-2.66014">
        <ele>5</ele>
        <time>2026-08-20T13:36:38Z</time>
      </trkpt>
      <trkpt lat="47.62491" lon="-2.66018">
        <ele>5.3</ele>
        <time>2026-08-20T13:36:39Z</time>
      </trkpt>
      <trkpt lat="47.62491" lon="-2.66023">
        <ele>5.7</ele>
        <time>2026-08-20T13:36:40Z</time>
      </trkpt>
      <trkpt lat="47.62491" lon="-2.66027">
        <ele>5.9</ele>
        <time>2026-08-20T13:36:41Z</time>
      </trkpt>
      <trkpt lat="47.6249" lon="-2.66031">
        <ele>6.3</ele>
        <time>2026-08-20T13:36:42Z</time>
      </trkpt>
      <trkpt lat="47.6249" lon="-2.66034">
        <ele>6.5</ele>
        <time>2026-08-20T13:36:43Z</time>
      </trkpt>
      <trkpt lat="47.62489" lon="-2.66037">
        <ele>6.8</ele>
        <time>2026-08-20T13:36:44Z</time>
      </trkpt>
      <trkpt lat="47.62489" lon="-2.66041">
        <ele>7.1</ele>
        <time>2026-08-20T13:36:45Z</time>
      </trkpt>
      <trkpt lat="47.62488" lon="-2.66045">
        <ele>7.5</ele>
        <time>2026-08-20T13:36:46Z</time>
      </trkpt>
      <trkpt lat="47.62487" lon="-2.66049">
        <ele>7.9</ele>
        <time>2026-08-20T13:36:47Z</time>
      </trkpt>
      <trkpt lat="47.62485" lon="-2.66052">
        <ele>8.2</ele>
        <time>2026-08-20T13:36:48Z</time>
      </trkpt>
      <trkpt lat="47.62483" lon="-2.66055">
        <ele>8.6</ele>
        <time>2026-08-20T13:36:49Z</time>
      </trkpt>
      <trkpt lat="47.62481" lon="-2.66057">
        <ele>8.8</ele>
        <time>2026-08-20T13:36:50Z</time>
      </trkpt>
      <trkpt lat="47.62479" lon="-2.66059">
        <ele>8.9</ele>
        <time>2026-08-20T13:36:51Z</time>
      </trkpt>
      <trkpt lat="47.62476" lon="-2.66061">
        <ele>9.1</ele>
        <time>2026-08-20T13:36:52Z</time>
      </trkpt>
      <trkpt lat="47.62474" lon="-2.66062">
        <ele>9.2</ele>
        <time>2026-08-20T13:36:53Z</time>
      </trkpt>
      <trkpt lat="47.62471" lon="-2.66062">
        <ele>9.3</ele>
        <time>2026-08-20T13:36:54Z</time>
      </trkpt>
      <trkpt lat="47.62469" lon="-2.66062">
        <ele>9.3</ele>
        <time>2026-08-20T13:36:55Z</time>
      </trkpt>
      <trkpt lat="47.62466" lon="-2.66062">
        <ele>9.3</ele>
        <time>2026-08-20T13:36:56Z</time>
      </trkpt>
      <trkpt lat="47.62463" lon="-2.66063">
        <ele>9.4</ele>
        <time>2026-08-20T13:36:57Z</time>
      </trkpt>
      <trkpt lat="47.6246" lon="-2.66063">
        <ele>9.5</ele>
        <time>2026-08-20T13:36:58Z</time>
      </trkpt>
      <trkpt lat="47.62457" lon="-2.66062">
        <ele>9.5</ele>
        <time>2026-08-20T13:36:59Z</time>
      </trkpt>
      <trkpt lat="47.62454" lon="-2.66062">
        <ele>9.5</ele>
        <time>2026-08-20T13:37:00Z</time>
      </trkpt>
      <trkpt lat="47.62451" lon="-2.66062">
        <ele>9.6</ele>
        <time>2026-08-20T13:37:01Z</time>
      </trkpt>
      <trkpt lat="47.62447" lon="-2.66062">
        <ele>9.7</ele>
        <time>2026-08-20T13:37:02Z</time>
      </trkpt>
      <trkpt lat="47.62444" lon="-2.66062">
        <ele>9.7</ele>
        <time>2026-08-20T13:37:03Z</time>
      </trkpt>
      <trkpt lat="47.62441" lon="-2.66062">
        <ele>9.8</ele>
        <time>2026-08-20T13:37:04Z</time>
      </trkpt>
      <trkpt lat="47.62438" lon="-2.66062">
        <ele>9.9</ele>
        <time>2026-08-20T13:37:05Z</time>
      </trkpt>
      <trkpt lat="47.62435" lon="-2.66061">
        <ele>9.9</ele>
        <time>2026-08-20T13:37:06Z</time>
      </trkpt>
      <trkpt lat="47.62431" lon="-2.66061">
        <ele>10</ele>
        <time>2026-08-20T13:37:07Z</time>
      </trkpt>
      <trkpt lat="47.62428" lon="-2.66061">
        <ele>10.1</ele>
        <time>2026-08-20T13:37:08Z</time>
      </trkpt>
      <trkpt lat="47.62425" lon="-2.66061">
        <ele>10.2</ele>
        <time>2026-08-20T13:37:09Z</time>
      </trkpt>
      <trkpt lat="47.62422" lon="-2.66062">
        <ele>10.3</ele>
        <time>2026-08-20T13:37:10Z</time>
      </trkpt>
      <trkpt lat="47.62419" lon="-2.66063">
        <ele>10.5</ele>
        <time>2026-08-20T13:37:11Z</time>
      </trkpt>
      <trkpt lat="47.62416" lon="-2.66064">
        <ele>10.6</ele>
        <time>2026-08-20T13:37:12Z</time>
      </trkpt>
      <trkpt lat="47.62413" lon="-2.66065">
        <ele>10.6</ele>
        <time>2026-08-20T13:37:13Z</time>
      </trkpt>
      <trkpt lat="47.62411" lon="-2.66067">
        <ele>10.7</ele>
        <time>2026-08-20T13:37:14Z</time>
      </trkpt>
      <trkpt lat="47.62408" lon="-2.66068">
        <ele>10.7</ele>
        <time>2026-08-20T13:37:15Z</time>
      </trkpt>
      <trkpt lat="47.62405" lon="-2.66069">
        <ele>10.8</ele>
        <time>2026-08-20T13:37:16Z</time>
      </trkpt>
      <trkpt lat="47.62402" lon="-2.66071">
        <ele>10.9</ele>
        <time>2026-08-20T13:37:17Z</time>
      </trkpt>
      <trkpt lat="47.624" lon="-2.66073">
        <ele>11</ele>
        <time>2026-08-20T13:37:18Z</time>
      </trkpt>
      <trkpt lat="47.62398" lon="-2.66075">
        <ele>11.2</ele>
        <time>2026-08-20T13:37:19Z</time>
      </trkpt>
      <trkpt lat="47.62395" lon="-2.66077">
        <ele>11.4</ele>
        <time>2026-08-20T13:37:20Z</time>
      </trkpt>
      <trkpt lat="47.62393" lon="-2.66079">
        <ele>11.6</ele>
        <time>2026-08-20T13:37:21Z</time>
      </trkpt>
      <trkpt lat="47.62391" lon="-2.66081">
        <ele>11.8</ele>
        <time>2026-08-20T13:37:22Z</time>
      </trkpt>
      <trkpt lat="47.62389" lon="-2.66084">
        <ele>12</ele>
        <time>2026-08-20T13:37:23Z</time>
      </trkpt>
      <trkpt lat="47.62387" lon="-2.66087">
        <ele>11.9</ele>
        <time>2026-08-20T13:37:24Z</time>
      </trkpt>
      <trkpt lat="47.62385" lon="-2.6609">
        <ele>11.9</ele>
        <time>2026-08-20T13:37:25Z</time>
      </trkpt>
      <trkpt lat="47.62383" lon="-2.66094">
        <ele>11.8</ele>
        <time>2026-08-20T13:37:26Z</time>
      </trkpt>
      <trkpt lat="47.62381" lon="-2.66097">
        <ele>11.8</ele>
        <time>2026-08-20T13:37:27Z</time>
      </trkpt>
      <trkpt lat="47.6238" lon="-2.661">
        <ele>11.8</ele>
        <time>2026-08-20T13:37:28Z</time>
      </trkpt>
      <trkpt lat="47.62378" lon="-2.66104">
        <ele>11.9</ele>
        <time>2026-08-20T13:37:29Z</time>
      </trkpt>
      <trkpt lat="47.62376" lon="-2.66108">
        <ele>11.9</ele>
        <time>2026-08-20T13:37:30Z</time>
      </trkpt>
      <trkpt lat="47.62374" lon="-2.66113">
        <ele>12</ele>
        <time>2026-08-20T13:37:31Z</time>
      </trkpt>
      <trkpt lat="47.62373" lon="-2.66117">
        <ele>12.1</ele>
        <time>2026-08-20T13:37:32Z</time>
      </trkpt>
      <trkpt lat="47.62371" lon="-2.66121">
        <ele>12.2</ele>
        <time>2026-08-20T13:37:33Z</time>
      </trkpt>
      <trkpt lat="47.6237" lon="-2.66125">
        <ele>12.3</ele>
        <time>2026-08-20T13:37:34Z</time>
      </trkpt>
      <trkpt lat="47.62368" lon="-2.66129">
        <ele>12.5</ele>
        <time>2026-08-20T13:37:35Z</time>
      </trkpt>
      <trkpt lat="47.62367" lon="-2.66133">
        <ele>12.7</ele>
        <time>2026-08-20T13:37:36Z</time>
      </trkpt>
      <trkpt lat="47.62366" lon="-2.66137">
        <ele>12.9</ele>
        <time>2026-08-20T13:37:37Z</time>
      </trkpt>
      <trkpt lat="47.62365" lon="-2.66142">
        <ele>13.1</ele>
        <time>2026-08-20T13:37:38Z</time>
      </trkpt>
      <trkpt lat="47.62364" lon="-2.66147">
        <ele>13.3</ele>
        <time>2026-08-20T13:37:39Z</time>
      </trkpt>
      <trkpt lat="47.62362" lon="-2.66152">
        <ele>13.5</ele>
        <time>2026-08-20T13:37:40Z</time>
      </trkpt>
      <trkpt lat="47.62361" lon="-2.66157">
        <ele>13.6</ele>
        <time>2026-08-20T13:37:41Z</time>
      </trkpt>
      <trkpt lat="47.6236" lon="-2.66162">
        <ele>13.7</ele>
        <time>2026-08-20T13:37:42Z</time>
      </trkpt>
      <trkpt lat="47.62359" lon="-2.66166">
        <ele>13.7</ele>
        <time>2026-08-20T13:37:43Z</time>
      </trkpt>
      <trkpt lat="47.62358" lon="-2.66171">
        <ele>13.7</ele>
        <time>2026-08-20T13:37:44Z</time>
      </trkpt>
      <trkpt lat="47.62356" lon="-2.66176">
        <ele>13.7</ele>
        <time>2026-08-20T13:37:45Z</time>
      </trkpt>
      <trkpt lat="47.62355" lon="-2.6618">
        <ele>13.7</ele>
        <time>2026-08-20T13:37:46Z</time>
      </trkpt>
      <trkpt lat="47.62353" lon="-2.66185">
        <ele>13.7</ele>
        <time>2026-08-20T13:37:47Z</time>
      </trkpt>
      <trkpt lat="47.62353" lon="-2.66189">
        <ele>13.9</ele>
        <time>2026-08-20T13:37:48Z</time>
      </trkpt>
      <trkpt lat="47.62351" lon="-2.66194">
        <ele>13.9</ele>
        <time>2026-08-20T13:37:49Z</time>
      </trkpt>
      <trkpt lat="47.6235" lon="-2.662">
        <ele>13.9</ele>
        <time>2026-08-20T13:37:50Z</time>
      </trkpt>
      <trkpt lat="47.62348" lon="-2.66206">
        <ele>13.8</ele>
        <time>2026-08-20T13:37:51Z</time>
      </trkpt>
      <trkpt lat="47.62347" lon="-2.66211">
        <ele>13.8</ele>
        <time>2026-08-20T13:37:52Z</time>
      </trkpt>
      <trkpt lat="47.62345" lon="-2.66216">
        <ele>13.7</ele>
        <time>2026-08-20T13:37:53Z</time>
      </trkpt>
      <trkpt lat="47.62344" lon="-2.66221">
        <ele>13.7</ele>
        <time>2026-08-20T13:37:54Z</time>
      </trkpt>
      <trkpt lat="47.62343" lon="-2.66227">
        <ele>14.1</ele>
        <time>2026-08-20T13:37:55Z</time>
      </trkpt>
      <trkpt lat="47.62341" lon="-2.66231">
        <ele>14.3</ele>
        <time>2026-08-20T13:37:56Z</time>
      </trkpt>
      <trkpt lat="47.62339" lon="-2.66236">
        <ele>14.5</ele>
        <time>2026-08-20T13:37:57Z</time>
      </trkpt>
      <trkpt lat="47.62337" lon="-2.6624">
        <ele>14.6</ele>
        <time>2026-08-20T13:37:58Z</time>
      </trkpt>
      <trkpt lat="47.62335" lon="-2.66243">
        <ele>14.7</ele>
        <time>2026-08-20T13:37:59Z</time>
      </trkpt>
      <trkpt lat="47.62332" lon="-2.66247">
        <ele>14.8</ele>
        <time>2026-08-20T13:38:00Z</time>
      </trkpt>
      <trkpt lat="47.6233" lon="-2.66251">
        <ele>15.1</ele>
        <time>2026-08-20T13:38:01Z</time>
      </trkpt>
      <trkpt lat="47.62328" lon="-2.66255">
        <ele>15.5</ele>
        <time>2026-08-20T13:38:02Z</time>
      </trkpt>
      <trkpt lat="47.62326" lon="-2.66259">
        <ele>15.8</ele>
        <time>2026-08-20T13:38:03Z</time>
      </trkpt>
      <trkpt lat="47.62324" lon="-2.66263">
        <ele>16.1</ele>
        <time>2026-08-20T13:38:04Z</time>
      </trkpt>
      <trkpt lat="47.62321" lon="-2.66267">
        <ele>16.3</ele>
        <time>2026-08-20T13:38:05Z</time>
      </trkpt>
      <trkpt lat="47.6232" lon="-2.66271">
        <ele>16.5</ele>
        <time>2026-08-20T13:38:06Z</time>
      </trkpt>
      <trkpt lat="47.62318" lon="-2.66276">
        <ele>16.8</ele>
        <time>2026-08-20T13:38:07Z</time>
      </trkpt>
      <trkpt lat="47.62317" lon="-2.66281">
        <ele>16.9</ele>
        <time>2026-08-20T13:38:08Z</time>
      </trkpt>
      <trkpt lat="47.62315" lon="-2.66285">
        <ele>16.9</ele>
        <time>2026-08-20T13:38:09Z</time>
      </trkpt>
      <trkpt lat="47.62314" lon="-2.6629">
        <ele>16.9</ele>
        <time>2026-08-20T13:38:10Z</time>
      </trkpt>
      <trkpt lat="47.62313" lon="-2.66294">
        <ele>17</ele>
        <time>2026-08-20T13:38:11Z</time>
      </trkpt>
      <trkpt lat="47.62312" lon="-2.66299">
        <ele>17.1</ele>
        <time>2026-08-20T13:38:12Z</time>
      </trkpt>
      <trkpt lat="47.62311" lon="-2.66303">
        <ele>17.1</ele>
        <time>2026-08-20T13:38:13Z</time>
      </trkpt>
      <trkpt lat="47.6231" lon="-2.66308">
        <ele>17.2</ele>
        <time>2026-08-20T13:38:14Z</time>
      </trkpt>
      <trkpt lat="47.62309" lon="-2.66312">
        <ele>17.1</ele>
        <time>2026-08-20T13:38:15Z</time>
      </trkpt>
      <trkpt lat="47.62307" lon="-2.66316">
        <ele>17.1</ele>
        <time>2026-08-20T13:38:16Z</time>
      </trkpt>
      <trkpt lat="47.62306" lon="-2.6632">
        <ele>17</ele>
        <time>2026-08-20T13:38:17Z</time>
      </trkpt>
      <trkpt lat="47.62304" lon="-2.66325">
        <ele>17</ele>
        <time>2026-08-20T13:38:18Z</time>
      </trkpt>
      <trkpt lat="47.62302" lon="-2.66329">
        <ele>17</ele>
        <time>2026-08-20T13:38:19Z</time>
      </trkpt>
      <trkpt lat="47.623" lon="-2.66333">
        <ele>17</ele>
        <time>2026-08-20T13:38:20Z</time>
      </trkpt>
      <trkpt lat="47.62299" lon="-2.66338">
        <ele>17.2</ele>
        <time>2026-08-20T13:38:21Z</time>
      </trkpt>
      <trkpt lat="47.62297" lon="-2.66342">
        <ele>17.3</ele>
        <time>2026-08-20T13:38:22Z</time>
      </trkpt>
      <trkpt lat="47.62295" lon="-2.66346">
        <ele>17.5</ele>
        <time>2026-08-20T13:38:23Z</time>
      </trkpt>
      <trkpt lat="47.62293" lon="-2.6635">
        <ele>17.6</ele>
        <time>2026-08-20T13:38:24Z</time>
      </trkpt>
      <trkpt lat="47.62292" lon="-2.66354">
        <ele>17.7</ele>
        <time>2026-08-20T13:38:25Z</time>
      </trkpt>
      <trkpt lat="47.6229" lon="-2.66358">
        <ele>17.9</ele>
        <time>2026-08-20T13:38:26Z</time>
      </trkpt>
      <trkpt lat="47.62289" lon="-2.66363">
        <ele>18</ele>
        <time>2026-08-20T13:38:27Z</time>
      </trkpt>
      <trkpt lat="47.62288" lon="-2.66368">
        <ele>18.2</ele>
        <time>2026-08-20T13:38:28Z</time>
      </trkpt>
      <trkpt lat="47.62288" lon="-2.66373">
        <ele>18.3</ele>
        <time>2026-08-20T13:38:29Z</time>
      </trkpt>
      <trkpt lat="47.62287" lon="-2.66378">
        <ele>18.4</ele>
        <time>2026-08-20T13:38:30Z</time>
      </trkpt>
      <trkpt lat="47.62287" lon="-2.66384">
        <ele>18.6</ele>
        <time>2026-08-20T13:38:31Z</time>
      </trkpt>
      <trkpt lat="47.62287" lon="-2.66389">
        <ele>18.7</ele>
        <time>2026-08-20T13:38:32Z</time>
      </trkpt>
      <trkpt lat="47.62286" lon="-2.66394">
        <ele>18.7</ele>
        <time>2026-08-20T13:38:33Z</time>
      </trkpt>
      <trkpt lat="47.62286" lon="-2.66399">
        <ele>18.7</ele>
        <time>2026-08-20T13:38:34Z</time>
      </trkpt>
      <trkpt lat="47.62286" lon="-2.66404">
        <ele>18.7</ele>
        <time>2026-08-20T13:38:35Z</time>
      </trkpt>
      <trkpt lat="47.62286" lon="-2.66408">
        <ele>18.7</ele>
        <time>2026-08-20T13:38:36Z</time>
      </trkpt>
      <trkpt lat="47.62285" lon="-2.66413">
        <ele>18.7</ele>
        <time>2026-08-20T13:38:37Z</time>
      </trkpt>
      <trkpt lat="47.62284" lon="-2.66418">
        <ele>18.7</ele>
        <time>2026-08-20T13:38:38Z</time>
      </trkpt>
      <trkpt lat="47.62282" lon="-2.66423">
        <ele>18.7</ele>
        <time>2026-08-20T13:38:39Z</time>
      </trkpt>
      <trkpt lat="47.62281" lon="-2.66427">
        <ele>18.6</ele>
        <time>2026-08-20T13:38:40Z</time>
      </trkpt>
      <trkpt lat="47.62278" lon="-2.66432">
        <ele>18.4</ele>
        <time>2026-08-20T13:38:41Z</time>
      </trkpt>
      <trkpt lat="47.62275" lon="-2.66435">
        <ele>18.1</ele>
        <time>2026-08-20T13:38:42Z</time>
      </trkpt>
      <trkpt lat="47.62271" lon="-2.66436">
        <ele>17.8</ele>
        <time>2026-08-20T13:38:43Z</time>
      </trkpt>
      <trkpt lat="47.62267" lon="-2.66437">
        <ele>17.5</ele>
        <time>2026-08-20T13:38:44Z</time>
      </trkpt>
      <trkpt lat="47.62263" lon="-2.66437">
        <ele>17.2</ele>
        <time>2026-08-20T13:38:45Z</time>
      </trkpt>
      <trkpt lat="47.62258" lon="-2.66436">
        <ele>16.9</ele>
        <time>2026-08-20T13:38:46Z</time>
      </trkpt>
      <trkpt lat="47.62254" lon="-2.66436">
        <ele>16.6</ele>
        <time>2026-08-20T13:38:47Z</time>
      </trkpt>
      <trkpt lat="47.6225" lon="-2.66436">
        <ele>16.3</ele>
        <time>2026-08-20T13:38:48Z</time>
      </trkpt>
      <trkpt lat="47.62245" lon="-2.66436">
        <ele>15.9</ele>
        <time>2026-08-20T13:38:49Z</time>
      </trkpt>
      <trkpt lat="47.62239" lon="-2.66437">
        <ele>15.5</ele>
        <time>2026-08-20T13:38:50Z</time>
      </trkpt>
      <trkpt lat="47.62233" lon="-2.66437">
        <ele>15</ele>
        <time>2026-08-20T13:38:51Z</time>
      </trkpt>
      <trkpt lat="47.62226" lon="-2.66436">
        <ele>14.6</ele>
        <time>2026-08-20T13:38:52Z</time>
      </trkpt>
      <trkpt lat="47.62219" lon="-2.66436">
        <ele>14.2</ele>
        <time>2026-08-20T13:38:53Z</time>
      </trkpt>
      <trkpt lat="47.62211" lon="-2.66436">
        <ele>13.8</ele>
        <time>2026-08-20T13:38:54Z</time>
      </trkpt>
      <trkpt lat="47.62204" lon="-2.66437">
        <ele>13.4</ele>
        <time>2026-08-20T13:38:55Z</time>
      </trkpt>
      <trkpt lat="47.62196" lon="-2.66437">
        <ele>13.1</ele>
        <time>2026-08-20T13:38:56Z</time>
      </trkpt>
      <trkpt lat="47.62188" lon="-2.66437">
        <ele>12.5</ele>
        <time>2026-08-20T13:38:57Z</time>
      </trkpt>
      <trkpt lat="47.62181" lon="-2.66437">
        <ele>12</ele>
        <time>2026-08-20T13:38:58Z</time>
      </trkpt>
      <trkpt lat="47.62173" lon="-2.66437">
        <ele>11.5</ele>
        <time>2026-08-20T13:38:59Z</time>
      </trkpt>
      <trkpt lat="47.62167" lon="-2.66437">
        <ele>11</ele>
        <time>2026-08-20T13:39:00Z</time>
      </trkpt>
      <trkpt lat="47.6216" lon="-2.66437">
        <ele>10.7</ele>
        <time>2026-08-20T13:39:01Z</time>
      </trkpt>
      <trkpt lat="47.62156" lon="-2.66438">
        <ele>10.5</ele>
        <time>2026-08-20T13:39:02Z</time>
      </trkpt>
      <trkpt lat="47.62153" lon="-2.6644">
        <ele>10.4</ele>
        <time>2026-08-20T13:39:03Z</time>
      </trkpt>
      <trkpt lat="47.62152" lon="-2.66444">
        <ele>10.5</ele>
        <time>2026-08-20T13:39:04Z</time>
      </trkpt>
      <trkpt lat="47.62151" lon="-2.66448">
        <ele>10.6</ele>
        <time>2026-08-20T13:39:05Z</time>
      </trkpt>
      <trkpt lat="47.62151" lon="-2.66453">
        <ele>10.7</ele>
        <time>2026-08-20T13:39:06Z</time>
      </trkpt>
      <trkpt lat="47.6215" lon="-2.66458">
        <ele>10.9</ele>
        <time>2026-08-20T13:39:07Z</time>
      </trkpt>
      <trkpt lat="47.62149" lon="-2.66463">
        <ele>11</ele>
        <time>2026-08-20T13:39:08Z</time>
      </trkpt>
      <trkpt lat="47.62147" lon="-2.66468">
        <ele>11.1</ele>
        <time>2026-08-20T13:39:09Z</time>
      </trkpt>
      <trkpt lat="47.62146" lon="-2.66473">
        <ele>11.3</ele>
        <time>2026-08-20T13:39:10Z</time>
      </trkpt>
      <trkpt lat="47.62146" lon="-2.66478">
        <ele>11.5</ele>
        <time>2026-08-20T13:39:11Z</time>
      </trkpt>
      <trkpt lat="47.62145" lon="-2.66483">
        <ele>11.6</ele>
        <time>2026-08-20T13:39:12Z</time>
      </trkpt>
      <trkpt lat="47.62145" lon="-2.66488">
        <ele>11.8</ele>
        <time>2026-08-20T13:39:13Z</time>
      </trkpt>
      <trkpt lat="47.62145" lon="-2.66493">
        <ele>12</ele>
        <time>2026-08-20T13:39:14Z</time>
      </trkpt>
      <trkpt lat="47.62144" lon="-2.66498">
        <ele>12.1</ele>
        <time>2026-08-20T13:39:15Z</time>
      </trkpt>
      <trkpt lat="47.62144" lon="-2.66502">
        <ele>12.2</ele>
        <time>2026-08-20T13:39:16Z</time>
      </trkpt>
      <trkpt lat="47.62144" lon="-2.66507">
        <ele>12.2</ele>
        <time>2026-08-20T13:39:17Z</time>
      </trkpt>
      <trkpt lat="47.62143" lon="-2.66512">
        <ele>12.1</ele>
        <time>2026-08-20T13:39:18Z</time>
      </trkpt>
      <trkpt lat="47.62143" lon="-2.66517">
        <ele>12.1</ele>
        <time>2026-08-20T13:39:19Z</time>
      </trkpt>
      <trkpt lat="47.62143" lon="-2.66521">
        <ele>12.1</ele>
        <time>2026-08-20T13:39:20Z</time>
      </trkpt>
      <trkpt lat="47.62142" lon="-2.66526">
        <ele>12.1</ele>
        <time>2026-08-20T13:39:21Z</time>
      </trkpt>
      <trkpt lat="47.62142" lon="-2.66531">
        <ele>12.2</ele>
        <time>2026-08-20T13:39:22Z</time>
      </trkpt>
      <trkpt lat="47.62141" lon="-2.66536">
        <ele>12.4</ele>
        <time>2026-08-20T13:39:23Z</time>
      </trkpt>
      <trkpt lat="47.62141" lon="-2.6654">
        <ele>12.5</ele>
        <time>2026-08-20T13:39:24Z</time>
      </trkpt>
      <trkpt lat="47.6214" lon="-2.66545">
        <ele>12.7</ele>
        <time>2026-08-20T13:39:25Z</time>
      </trkpt>
      <trkpt lat="47.6214" lon="-2.6655">
        <ele>12.8</ele>
        <time>2026-08-20T13:39:26Z</time>
      </trkpt>
      <trkpt lat="47.6214" lon="-2.66554">
        <ele>13</ele>
        <time>2026-08-20T13:39:27Z</time>
      </trkpt>
      <trkpt lat="47.62139" lon="-2.66559">
        <ele>13.1</ele>
        <time>2026-08-20T13:39:28Z</time>
      </trkpt>
      <trkpt lat="47.62139" lon="-2.66564">
        <ele>13.3</ele>
        <time>2026-08-20T13:39:29Z</time>
      </trkpt>
      <trkpt lat="47.62139" lon="-2.66568">
        <ele>13.5</ele>
        <time>2026-08-20T13:39:30Z</time>
      </trkpt>
      <trkpt lat="47.62139" lon="-2.66573">
        <ele>13.6</ele>
        <time>2026-08-20T13:39:31Z</time>
      </trkpt>
      <trkpt lat="47.62138" lon="-2.66578">
        <ele>13.8</ele>
        <time>2026-08-20T13:39:32Z</time>
      </trkpt>
      <trkpt lat="47.62138" lon="-2.66582">
        <ele>14</ele>
        <time>2026-08-20T13:39:33Z</time>
      </trkpt>
      <trkpt lat="47.62138" lon="-2.66587">
        <ele>14.1</ele>
        <time>2026-08-20T13:39:34Z</time>
      </trkpt>
      <trkpt lat="47.62137" lon="-2.66592">
        <ele>14.3</ele>
        <time>2026-08-20T13:39:35Z</time>
      </trkpt>
      <trkpt lat="47.62137" lon="-2.66597">
        <ele>14.5</ele>
        <time>2026-08-20T13:39:36Z</time>
      </trkpt>
      <trkpt lat="47.62136" lon="-2.66601">
        <ele>14.6</ele>
        <time>2026-08-20T13:39:37Z</time>
      </trkpt>
      <trkpt lat="47.62136" lon="-2.66606">
        <ele>14.7</ele>
        <time>2026-08-20T13:39:38Z</time>
      </trkpt>
      <trkpt lat="47.62136" lon="-2.66611">
        <ele>14.9</ele>
        <time>2026-08-20T13:39:39Z</time>
      </trkpt>
      <trkpt lat="47.62135" lon="-2.66616">
        <ele>15</ele>
        <time>2026-08-20T13:39:40Z</time>
      </trkpt>
      <trkpt lat="47.62135" lon="-2.66621">
        <ele>15.2</ele>
        <time>2026-08-20T13:39:41Z</time>
      </trkpt>
      <trkpt lat="47.62134" lon="-2.66626">
        <ele>15.4</ele>
        <time>2026-08-20T13:39:42Z</time>
      </trkpt>
      <trkpt lat="47.62134" lon="-2.66631">
        <ele>15.5</ele>
        <time>2026-08-20T13:39:43Z</time>
      </trkpt>
      <trkpt lat="47.62133" lon="-2.66637">
        <ele>15.7</ele>
        <time>2026-08-20T13:39:44Z</time>
      </trkpt>
      <trkpt lat="47.62133" lon="-2.66642">
        <ele>15.7</ele>
        <time>2026-08-20T13:39:45Z</time>
      </trkpt>
      <trkpt lat="47.62132" lon="-2.66646">
        <ele>15.6</ele>
        <time>2026-08-20T13:39:46Z</time>
      </trkpt>
      <trkpt lat="47.62132" lon="-2.66651">
        <ele>15.4</ele>
        <time>2026-08-20T13:39:47Z</time>
      </trkpt>
      <trkpt lat="47.62131" lon="-2.66656">
        <ele>15.3</ele>
        <time>2026-08-20T13:39:48Z</time>
      </trkpt>
      <trkpt lat="47.62131" lon="-2.66661">
        <ele>15.1</ele>
        <time>2026-08-20T13:39:49Z</time>
      </trkpt>
      <trkpt lat="47.6213" lon="-2.66666">
        <ele>15</ele>
        <time>2026-08-20T13:39:50Z</time>
      </trkpt>
      <trkpt lat="47.62129" lon="-2.66672">
        <ele>14.9</ele>
        <time>2026-08-20T13:39:51Z</time>
      </trkpt>
      <trkpt lat="47.62128" lon="-2.66677">
        <ele>14.9</ele>
        <time>2026-08-20T13:39:52Z</time>
      </trkpt>
      <trkpt lat="47.62127" lon="-2.66683">
        <ele>14.7</ele>
        <time>2026-08-20T13:39:53Z</time>
      </trkpt>
      <trkpt lat="47.62125" lon="-2.66689">
        <ele>14.6</ele>
        <time>2026-08-20T13:39:54Z</time>
      </trkpt>
      <trkpt lat="47.62124" lon="-2.66694">
        <ele>14.5</ele>
        <time>2026-08-20T13:39:55Z</time>
      </trkpt>
      <trkpt lat="47.62122" lon="-2.667">
        <ele>14.3</ele>
        <time>2026-08-20T13:39:56Z</time>
      </trkpt>
      <trkpt lat="47.62121" lon="-2.66706">
        <ele>14.2</ele>
        <time>2026-08-20T13:39:57Z</time>
      </trkpt>
      <trkpt lat="47.62118" lon="-2.66712">
        <ele>14.1</ele>
        <time>2026-08-20T13:39:58Z</time>
      </trkpt>
      <trkpt lat="47.62116" lon="-2.66718">
        <ele>14</ele>
        <time>2026-08-20T13:39:59Z</time>
      </trkpt>
      <trkpt lat="47.62114" lon="-2.66723">
        <ele>14</ele>
        <time>2026-08-20T13:40:00Z</time>
      </trkpt>
      <trkpt lat="47.62112" lon="-2.66729">
        <ele>13.8</ele>
        <time>2026-08-20T13:40:01Z</time>
      </trkpt>
      <trkpt lat="47.62109" lon="-2.66735">
        <ele>13.5</ele>
        <time>2026-08-20T13:40:02Z</time>
      </trkpt>
      <trkpt lat="47.62107" lon="-2.66741">
        <ele>13.3</ele>
        <time>2026-08-20T13:40:03Z</time>
      </trkpt>
      <trkpt lat="47.62105" lon="-2.66747">
        <ele>13.1</ele>
        <time>2026-08-20T13:40:04Z</time>
      </trkpt>
      <trkpt lat="47.62102" lon="-2.66753">
        <ele>13</ele>
        <time>2026-08-20T13:40:05Z</time>
      </trkpt>
      <trkpt lat="47.621" lon="-2.6676">
        <ele>13</ele>
        <time>2026-08-20T13:40:06Z</time>
      </trkpt>
      <trkpt lat="47.62098" lon="-2.66766">
        <ele>13</ele>
        <time>2026-08-20T13:40:07Z</time>
      </trkpt>
      <trkpt lat="47.62095" lon="-2.66772">
        <ele>13</ele>
        <time>2026-08-20T13:40:08Z</time>
      </trkpt>
      <trkpt lat="47.62093" lon="-2.66778">
        <ele>13</ele>
        <time>2026-08-20T13:40:09Z</time>
      </trkpt>
      <trkpt lat="47.62091" lon="-2.66784">
        <ele>12.8</ele>
        <time>2026-08-20T13:40:10Z</time>
      </trkpt>
      <trkpt lat="47.62089" lon="-2.6679">
        <ele>12.6</ele>
        <time>2026-08-20T13:40:11Z</time>
      </trkpt>
      <trkpt lat="47.62087" lon="-2.66796">
        <ele>12.4</ele>
        <time>2026-08-20T13:40:12Z</time>
      </trkpt>
      <trkpt lat="47.62085" lon="-2.66802">
        <ele>12.2</ele>
        <time>2026-08-20T13:40:13Z</time>
      </trkpt>
      <trkpt lat="47.62084" lon="-2.66809">
        <ele>12.1</ele>
        <time>2026-08-20T13:40:14Z</time>
      </trkpt>
      <trkpt lat="47.62082" lon="-2.66815">
        <ele>12.4</ele>
        <time>2026-08-20T13:40:15Z</time>
      </trkpt>
      <trkpt lat="47.62081" lon="-2.66821">
        <ele>12.5</ele>
        <time>2026-08-20T13:40:16Z</time>
      </trkpt>
      <trkpt lat="47.62079" lon="-2.66828">
        <ele>12.7</ele>
        <time>2026-08-20T13:40:17Z</time>
      </trkpt>
      <trkpt lat="47.62078" lon="-2.66834">
        <ele>12.8</ele>
        <time>2026-08-20T13:40:18Z</time>
      </trkpt>
      <trkpt lat="47.62077" lon="-2.6684">
        <ele>12.6</ele>
        <time>2026-08-20T13:40:19Z</time>
      </trkpt>
      <trkpt lat="47.62076" lon="-2.66847">
        <ele>12.5</ele>
        <time>2026-08-20T13:40:20Z</time>
      </trkpt>
      <trkpt lat="47.62075" lon="-2.66853">
        <ele>12.4</ele>
        <time>2026-08-20T13:40:21Z</time>
      </trkpt>
      <trkpt lat="47.62074" lon="-2.6686">
        <ele>12.3</ele>
        <time>2026-08-20T13:40:22Z</time>
      </trkpt>
      <trkpt lat="47.62073" lon="-2.66866">
        <ele>12.4</ele>
        <time>2026-08-20T13:40:23Z</time>
      </trkpt>
      <trkpt lat="47.62072" lon="-2.66872">
        <ele>12.4</ele>
        <time>2026-08-20T13:40:24Z</time>
      </trkpt>
      <trkpt lat="47.62071" lon="-2.66878">
        <ele>12.4</ele>
        <time>2026-08-20T13:40:25Z</time>
      </trkpt>
      <trkpt lat="47.62071" lon="-2.66885">
        <ele>12.4</ele>
        <time>2026-08-20T13:40:26Z</time>
      </trkpt>
      <trkpt lat="47.6207" lon="-2.66891">
        <ele>12.5</ele>
        <time>2026-08-20T13:40:27Z</time>
      </trkpt>
      <trkpt lat="47.6207" lon="-2.66898">
        <ele>12.5</ele>
        <time>2026-08-20T13:40:28Z</time>
      </trkpt>
      <trkpt lat="47.62069" lon="-2.66904">
        <ele>12.5</ele>
        <time>2026-08-20T13:40:29Z</time>
      </trkpt>
      <trkpt lat="47.62069" lon="-2.66911">
        <ele>12.5</ele>
        <time>2026-08-20T13:40:30Z</time>
      </trkpt>
      <trkpt lat="47.62069" lon="-2.66918">
        <ele>12.5</ele>
        <time>2026-08-20T13:40:31Z</time>
      </trkpt>
      <trkpt lat="47.62068" lon="-2.66926">
        <ele>12.2</ele>
        <time>2026-08-20T13:40:32Z</time>
      </trkpt>
      <trkpt lat="47.62068" lon="-2.66933">
        <ele>12</ele>
        <time>2026-08-20T13:40:33Z</time>
      </trkpt>
      <trkpt lat="47.62068" lon="-2.6694">
        <ele>11.7</ele>
        <time>2026-08-20T13:40:34Z</time>
      </trkpt>
      <trkpt lat="47.62068" lon="-2.66947">
        <ele>11.4</ele>
        <time>2026-08-20T13:40:35Z</time>
      </trkpt>
      <trkpt lat="47.62067" lon="-2.66955">
        <ele>11</ele>
        <time>2026-08-20T13:40:36Z</time>
      </trkpt>
      <trkpt lat="47.62066" lon="-2.66962">
        <ele>10.6</ele>
        <time>2026-08-20T13:40:37Z</time>
      </trkpt>
      <trkpt lat="47.62066" lon="-2.6697">
        <ele>10.1</ele>
        <time>2026-08-20T13:40:38Z</time>
      </trkpt>
      <trkpt lat="47.62066" lon="-2.66977">
        <ele>9.8</ele>
        <time>2026-08-20T13:40:39Z</time>
      </trkpt>
      <trkpt lat="47.62065" lon="-2.66986">
        <ele>9.5</ele>
        <time>2026-08-20T13:40:40Z</time>
      </trkpt>
      <trkpt lat="47.62065" lon="-2.66994">
        <ele>9.2</ele>
        <time>2026-08-20T13:40:41Z</time>
      </trkpt>
      <trkpt lat="47.62065" lon="-2.67004">
        <ele>8.9</ele>
        <time>2026-08-20T13:40:42Z</time>
      </trkpt>
      <trkpt lat="47.62065" lon="-2.67013">
        <ele>8.5</ele>
        <time>2026-08-20T13:40:43Z</time>
      </trkpt>
      <trkpt lat="47.62065" lon="-2.67023">
        <ele>8.2</ele>
        <time>2026-08-20T13:40:44Z</time>
      </trkpt>
      <trkpt lat="47.62066" lon="-2.67033">
        <ele>7.9</ele>
        <time>2026-08-20T13:40:45Z</time>
      </trkpt>
      <trkpt lat="47.62067" lon="-2.67042">
        <ele>7.7</ele>
        <time>2026-08-20T13:40:46Z</time>
      </trkpt>
      <trkpt lat="47.62067" lon="-2.67052">
        <ele>7.5</ele>
        <time>2026-08-20T13:40:47Z</time>
      </trkpt>
      <trkpt lat="47.62068" lon="-2.67061">
        <ele>7.3</ele>
        <time>2026-08-20T13:40:48Z</time>
      </trkpt>
      <trkpt lat="47.6207" lon="-2.6707">
        <ele>7</ele>
        <time>2026-08-20T13:40:49Z</time>
      </trkpt>
      <trkpt lat="47.62071" lon="-2.67079">
        <ele>6.7</ele>
        <time>2026-08-20T13:40:50Z</time>
      </trkpt>
      <trkpt lat="47.62073" lon="-2.67087">
        <ele>6.7</ele>
        <time>2026-08-20T13:40:51Z</time>
      </trkpt>
      <trkpt lat="47.62074" lon="-2.67096">
        <ele>6.8</ele>
        <time>2026-08-20T13:40:52Z</time>
      </trkpt>
      <trkpt lat="47.62075" lon="-2.67105">
        <ele>6.9</ele>
        <time>2026-08-20T13:40:53Z</time>
      </trkpt>
      <trkpt lat="47.62076" lon="-2.67113">
        <ele>7</ele>
        <time>2026-08-20T13:40:54Z</time>
      </trkpt>
      <trkpt lat="47.62077" lon="-2.67122">
        <ele>7</ele>
        <time>2026-08-20T13:40:55Z</time>
      </trkpt>
      <trkpt lat="47.62078" lon="-2.6713">
        <ele>7</ele>
        <time>2026-08-20T13:40:56Z</time>
      </trkpt>
      <trkpt lat="47.62079" lon="-2.67138">
        <ele>7</ele>
        <time>2026-08-20T13:40:57Z</time>
      </trkpt>
      <trkpt lat="47.6208" lon="-2.67146">
        <ele>7</ele>
        <time>2026-08-20T13:40:58Z</time>
      </trkpt>
      <trkpt lat="47.62082" lon="-2.67153">
        <ele>7</ele>
        <time>2026-08-20T13:40:59Z</time>
      </trkpt>
      <trkpt lat="47.62083" lon="-2.67161">
        <ele>7</ele>
        <time>2026-08-20T13:41:00Z</time>
      </trkpt>
      <trkpt lat="47.62084" lon="-2.67169">
        <ele>7</ele>
        <time>2026-08-20T13:41:01Z</time>
      </trkpt>
      <trkpt lat="47.62085" lon="-2.67177">
        <ele>7.1</ele>
        <time>2026-08-20T13:41:02Z</time>
      </trkpt>
      <trkpt lat="47.62087" lon="-2.67185">
        <ele>7.2</ele>
        <time>2026-08-20T13:41:03Z</time>
      </trkpt>
      <trkpt lat="47.62088" lon="-2.67192">
        <ele>7.2</ele>
        <time>2026-08-20T13:41:04Z</time>
      </trkpt>
      <trkpt lat="47.62089" lon="-2.672">
        <ele>7.2</ele>
        <time>2026-08-20T13:41:05Z</time>
      </trkpt>
      <trkpt lat="47.62091" lon="-2.67207">
        <ele>7.3</ele>
        <time>2026-08-20T13:41:06Z</time>
      </trkpt>
      <trkpt lat="47.62092" lon="-2.67214">
        <ele>7.3</ele>
        <time>2026-08-20T13:41:07Z</time>
      </trkpt>
      <trkpt lat="47.62093" lon="-2.67221">
        <ele>7.3</ele>
        <time>2026-08-20T13:41:08Z</time>
      </trkpt>
      <trkpt lat="47.62095" lon="-2.67229">
        <ele>7.4</ele>
        <time>2026-08-20T13:41:09Z</time>
      </trkpt>
      <trkpt lat="47.62096" lon="-2.67236">
        <ele>7.5</ele>
        <time>2026-08-20T13:41:10Z</time>
      </trkpt>
      <trkpt lat="47.62098" lon="-2.67243">
        <ele>7.5</ele>
        <time>2026-08-20T13:41:11Z</time>
      </trkpt>
      <trkpt lat="47.62099" lon="-2.6725">
        <ele>7.6</ele>
        <time>2026-08-20T13:41:12Z</time>
      </trkpt>
      <trkpt lat="47.62101" lon="-2.67257">
        <ele>7.5</ele>
        <time>2026-08-20T13:41:13Z</time>
      </trkpt>
      <trkpt lat="47.62102" lon="-2.67264">
        <ele>7.3</ele>
        <time>2026-08-20T13:41:14Z</time>
      </trkpt>
      <trkpt lat="47.62104" lon="-2.67271">
        <ele>7.2</ele>
        <time>2026-08-20T13:41:15Z</time>
      </trkpt>
      <trkpt lat="47.62106" lon="-2.67278">
        <ele>7</ele>
        <time>2026-08-20T13:41:16Z</time>
      </trkpt>
      <trkpt lat="47.62108" lon="-2.67285">
        <ele>7</ele>
        <time>2026-08-20T13:41:17Z</time>
      </trkpt>
      <trkpt lat="47.6211" lon="-2.67292">
        <ele>7</ele>
        <time>2026-08-20T13:41:18Z</time>
      </trkpt>
      <trkpt lat="47.62112" lon="-2.67299">
        <ele>7</ele>
        <time>2026-08-20T13:41:19Z</time>
      </trkpt>
      <trkpt lat="47.62114" lon="-2.67306">
        <ele>7.1</ele>
        <time>2026-08-20T13:41:20Z</time>
      </trkpt>
      <trkpt lat="47.62116" lon="-2.67313">
        <ele>7.2</ele>
        <time>2026-08-20T13:41:21Z</time>
      </trkpt>
      <trkpt lat="47.62117" lon="-2.6732">
        <ele>7.2</ele>
        <time>2026-08-20T13:41:22Z</time>
      </trkpt>
      <trkpt lat="47.62118" lon="-2.67326">
        <ele>7.2</ele>
        <time>2026-08-20T13:41:23Z</time>
      </trkpt>
      <trkpt lat="47.62118" lon="-2.67333">
        <ele>7.2</ele>
        <time>2026-08-20T13:41:24Z</time>
      </trkpt>
      <trkpt lat="47.62118" lon="-2.67339">
        <ele>7.2</ele>
        <time>2026-08-20T13:41:25Z</time>
      </trkpt>
      <trkpt lat="47.62119" lon="-2.67345">
        <ele>7.3</ele>
        <time>2026-08-20T13:41:26Z</time>
      </trkpt>
      <trkpt lat="47.62121" lon="-2.67351">
        <ele>7.4</ele>
        <time>2026-08-20T13:41:27Z</time>
      </trkpt>
      <trkpt lat="47.62123" lon="-2.67356">
        <ele>7.4</ele>
        <time>2026-08-20T13:41:28Z</time>
      </trkpt>
      <trkpt lat="47.62125" lon="-2.67361">
        <ele>7.5</ele>
        <time>2026-08-20T13:41:29Z</time>
      </trkpt>
      <trkpt lat="47.62127" lon="-2.67366">
        <ele>7.6</ele>
        <time>2026-08-20T13:41:30Z</time>
      </trkpt>
      <trkpt lat="47.6213" lon="-2.6737">
        <ele>7.7</ele>
        <time>2026-08-20T13:41:31Z</time>
      </trkpt>
      <trkpt lat="47.62132" lon="-2.67376">
        <ele>7.8</ele>
        <time>2026-08-20T13:41:32Z</time>
      </trkpt>
      <trkpt lat="47.62134" lon="-2.67381">
        <ele>7.8</ele>
        <time>2026-08-20T13:41:33Z</time>
      </trkpt>
      <trkpt lat="47.62136" lon="-2.67386">
        <ele>7.9</ele>
        <time>2026-08-20T13:41:34Z</time>
      </trkpt>
      <trkpt lat="47.62138" lon="-2.67391">
        <ele>7.9</ele>
        <time>2026-08-20T13:41:35Z</time>
      </trkpt>
      <trkpt lat="47.6214" lon="-2.67397">
        <ele>7.8</ele>
        <time>2026-08-20T13:41:36Z</time>
      </trkpt>
      <trkpt lat="47.62142" lon="-2.67402">
        <ele>7.7</ele>
        <time>2026-08-20T13:41:37Z</time>
      </trkpt>
      <trkpt lat="47.62145" lon="-2.67408">
        <ele>7.7</ele>
        <time>2026-08-20T13:41:38Z</time>
      </trkpt>
      <trkpt lat="47.62147" lon="-2.67413">
        <ele>7.7</ele>
        <time>2026-08-20T13:41:39Z</time>
      </trkpt>
      <trkpt lat="47.62149" lon="-2.67418">
        <ele>7.7</ele>
        <time>2026-08-20T13:41:40Z</time>
      </trkpt>
      <trkpt lat="47.62151" lon="-2.67423">
        <ele>7.8</ele>
        <time>2026-08-20T13:41:41Z</time>
      </trkpt>
      <trkpt lat="47.62154" lon="-2.67429">
        <ele>7.8</ele>
        <time>2026-08-20T13:41:42Z</time>
      </trkpt>
      <trkpt lat="47.62156" lon="-2.67435">
        <ele>7.8</ele>
        <time>2026-08-20T13:41:43Z</time>
      </trkpt>
      <trkpt lat="47.62158" lon="-2.6744">
        <ele>7.8</ele>
        <time>2026-08-20T13:41:44Z</time>
      </trkpt>
      <trkpt lat="47.62161" lon="-2.67445">
        <ele>7.8</ele>
        <time>2026-08-20T13:41:45Z</time>
      </trkpt>
      <trkpt lat="47.62163" lon="-2.6745">
        <ele>8</ele>
        <time>2026-08-20T13:41:46Z</time>
      </trkpt>
      <trkpt lat="47.62165" lon="-2.67455">
        <ele>8.3</ele>
        <time>2026-08-20T13:41:47Z</time>
      </trkpt>
      <trkpt lat="47.62168" lon="-2.67461">
        <ele>8.7</ele>
        <time>2026-08-20T13:41:48Z</time>
      </trkpt>
      <trkpt lat="47.6217" lon="-2.67466">
        <ele>8.9</ele>
        <time>2026-08-20T13:41:49Z</time>
      </trkpt>
      <trkpt lat="47.62172" lon="-2.67471">
        <ele>9.2</ele>
        <time>2026-08-20T13:41:50Z</time>
      </trkpt>
      <trkpt lat="47.62174" lon="-2.67476">
        <ele>9.2</ele>
        <time>2026-08-20T13:41:51Z</time>
      </trkpt>
      <trkpt lat="47.62176" lon="-2.67482">
        <ele>9.1</ele>
        <time>2026-08-20T13:41:52Z</time>
      </trkpt>
      <trkpt lat="47.62178" lon="-2.67487">
        <ele>9.1</ele>
        <time>2026-08-20T13:41:53Z</time>
      </trkpt>
      <trkpt lat="47.6218" lon="-2.67492">
        <ele>9.1</ele>
        <time>2026-08-20T13:41:54Z</time>
      </trkpt>
      <trkpt lat="47.62182" lon="-2.67497">
        <ele>9.2</ele>
        <time>2026-08-20T13:41:55Z</time>
      </trkpt>
      <trkpt lat="47.62185" lon="-2.67502">
        <ele>9.4</ele>
        <time>2026-08-20T13:41:56Z</time>
      </trkpt>
      <trkpt lat="47.62187" lon="-2.67507">
        <ele>9.7</ele>
        <time>2026-08-20T13:41:57Z</time>
      </trkpt>
      <trkpt lat="47.62189" lon="-2.67512">
        <ele>10</ele>
        <time>2026-08-20T13:41:58Z</time>
      </trkpt>
      <trkpt lat="47.62191" lon="-2.67517">
        <ele>10.4</ele>
        <time>2026-08-20T13:41:59Z</time>
      </trkpt>
      <trkpt lat="47.62194" lon="-2.67522">
        <ele>10.8</ele>
        <time>2026-08-20T13:42:00Z</time>
      </trkpt>
      <trkpt lat="47.62196" lon="-2.67526">
        <ele>10.9</ele>
        <time>2026-08-20T13:42:01Z</time>
      </trkpt>
      <trkpt lat="47.62198" lon="-2.67531">
        <ele>10.9</ele>
        <time>2026-08-20T13:42:02Z</time>
      </trkpt>
      <trkpt lat="47.622" lon="-2.67536">
        <ele>10.8</ele>
        <time>2026-08-20T13:42:03Z</time>
      </trkpt>
      <trkpt lat="47.62202" lon="-2.67541">
        <ele>10.7</ele>
        <time>2026-08-20T13:42:04Z</time>
      </trkpt>
      <trkpt lat="47.62204" lon="-2.67546">
        <ele>10.6</ele>
        <time>2026-08-20T13:42:05Z</time>
      </trkpt>
      <trkpt lat="47.62206" lon="-2.67551">
        <ele>10.5</ele>
        <time>2026-08-20T13:42:06Z</time>
      </trkpt>
      <trkpt lat="47.62207" lon="-2.67556">
        <ele>10.4</ele>
        <time>2026-08-20T13:42:07Z</time>
      </trkpt>
      <trkpt lat="47.62209" lon="-2.67561">
        <ele>10.4</ele>
        <time>2026-08-20T13:42:08Z</time>
      </trkpt>
      <trkpt lat="47.62211" lon="-2.67566">
        <ele>10.4</ele>
        <time>2026-08-20T13:42:09Z</time>
      </trkpt>
      <trkpt lat="47.62213" lon="-2.67571">
        <ele>10.5</ele>
        <time>2026-08-20T13:42:10Z</time>
      </trkpt>
      <trkpt lat="47.62215" lon="-2.67577">
        <ele>10.5</ele>
        <time>2026-08-20T13:42:11Z</time>
      </trkpt>
      <trkpt lat="47.62217" lon="-2.67582">
        <ele>10.6</ele>
        <time>2026-08-20T13:42:12Z</time>
      </trkpt>
      <trkpt lat="47.62218" lon="-2.67587">
        <ele>10.7</ele>
        <time>2026-08-20T13:42:13Z</time>
      </trkpt>
      <trkpt lat="47.6222" lon="-2.67592">
        <ele>10.8</ele>
        <time>2026-08-20T13:42:14Z</time>
      </trkpt>
      <trkpt lat="47.62222" lon="-2.67597">
        <ele>11</ele>
        <time>2026-08-20T13:42:15Z</time>
      </trkpt>
      <trkpt lat="47.62224" lon="-2.67602">
        <ele>11.1</ele>
        <time>2026-08-20T13:42:16Z</time>
      </trkpt>
      <trkpt lat="47.62226" lon="-2.67606">
        <ele>11.2</ele>
        <time>2026-08-20T13:42:17Z</time>
      </trkpt>
      <trkpt lat="47.62227" lon="-2.67611">
        <ele>11.3</ele>
        <time>2026-08-20T13:42:18Z</time>
      </trkpt>
      <trkpt lat="47.62229" lon="-2.67616">
        <ele>11.4</ele>
        <time>2026-08-20T13:42:19Z</time>
      </trkpt>
      <trkpt lat="47.62231" lon="-2.67622">
        <ele>11.5</ele>
        <time>2026-08-20T13:42:20Z</time>
      </trkpt>
      <trkpt lat="47.62233" lon="-2.67627">
        <ele>11.6</ele>
        <time>2026-08-20T13:42:21Z</time>
      </trkpt>
      <trkpt lat="47.62235" lon="-2.67632">
        <ele>11.6</ele>
        <time>2026-08-20T13:42:22Z</time>
      </trkpt>
      <trkpt lat="47.62237" lon="-2.67637">
        <ele>11.6</ele>
        <time>2026-08-20T13:42:23Z</time>
      </trkpt>
      <trkpt lat="47.62238" lon="-2.67642">
        <ele>11.6</ele>
        <time>2026-08-20T13:42:24Z</time>
      </trkpt>
      <trkpt lat="47.6224" lon="-2.67647">
        <ele>11.6</ele>
        <time>2026-08-20T13:42:25Z</time>
      </trkpt>
      <trkpt lat="47.62242" lon="-2.67652">
        <ele>11.7</ele>
        <time>2026-08-20T13:42:26Z</time>
      </trkpt>
      <trkpt lat="47.62244" lon="-2.67657">
        <ele>11.8</ele>
        <time>2026-08-20T13:42:27Z</time>
      </trkpt>
      <trkpt lat="47.62246" lon="-2.67662">
        <ele>11.9</ele>
        <time>2026-08-20T13:42:28Z</time>
      </trkpt>
      <trkpt lat="47.62248" lon="-2.67667">
        <ele>11.9</ele>
        <time>2026-08-20T13:42:29Z</time>
      </trkpt>
      <trkpt lat="47.6225" lon="-2.67672">
        <ele>12</ele>
        <time>2026-08-20T13:42:30Z</time>
      </trkpt>
      <trkpt lat="47.62251" lon="-2.67677">
        <ele>12</ele>
        <time>2026-08-20T13:42:31Z</time>
      </trkpt>
      <trkpt lat="47.62253" lon="-2.67682">
        <ele>12</ele>
        <time>2026-08-20T13:42:32Z</time>
      </trkpt>
      <trkpt lat="47.62254" lon="-2.67687">
        <ele>12</ele>
        <time>2026-08-20T13:42:33Z</time>
      </trkpt>
      <trkpt lat="47.62256" lon="-2.67692">
        <ele>12</ele>
        <time>2026-08-20T13:42:34Z</time>
      </trkpt>
      <trkpt lat="47.62257" lon="-2.67697">
        <ele>12</ele>
        <time>2026-08-20T13:42:35Z</time>
      </trkpt>
      <trkpt lat="47.62257" lon="-2.67703">
        <ele>12</ele>
        <time>2026-08-20T13:42:36Z</time>
      </trkpt>
      <trkpt lat="47.62256" lon="-2.67708">
        <ele>12</ele>
        <time>2026-08-20T13:42:37Z</time>
      </trkpt>
      <trkpt lat="47.62255" lon="-2.67712">
        <ele>12</ele>
        <time>2026-08-20T13:42:38Z</time>
      </trkpt>
      <trkpt lat="47.62252" lon="-2.67716">
        <ele>12</ele>
        <time>2026-08-20T13:42:39Z</time>
      </trkpt>
      <trkpt lat="47.62249" lon="-2.67719">
        <ele>12</ele>
        <time>2026-08-20T13:42:40Z</time>
      </trkpt>
      <trkpt lat="47.62246" lon="-2.67723">
        <ele>11.9</ele>
        <time>2026-08-20T13:42:41Z</time>
      </trkpt>
      <trkpt lat="47.62243" lon="-2.67726">
        <ele>11.8</ele>
        <time>2026-08-20T13:42:42Z</time>
      </trkpt>
      <trkpt lat="47.62239" lon="-2.6773">
        <ele>11.7</ele>
        <time>2026-08-20T13:42:43Z</time>
      </trkpt>
      <trkpt lat="47.62236" lon="-2.67734">
        <ele>11.7</ele>
        <time>2026-08-20T13:42:44Z</time>
      </trkpt>
      <trkpt lat="47.62233" lon="-2.67737">
        <ele>11.7</ele>
        <time>2026-08-20T13:42:45Z</time>
      </trkpt>
      <trkpt lat="47.6223" lon="-2.67741">
        <ele>11.8</ele>
        <time>2026-08-20T13:42:46Z</time>
      </trkpt>
      <trkpt lat="47.62226" lon="-2.67745">
        <ele>11.8</ele>
        <time>2026-08-20T13:42:47Z</time>
      </trkpt>
      <trkpt lat="47.62223" lon="-2.67748">
        <ele>11.9</ele>
        <time>2026-08-20T13:42:48Z</time>
      </trkpt>
      <trkpt lat="47.6222" lon="-2.67752">
        <ele>11.9</ele>
        <time>2026-08-20T13:42:49Z</time>
      </trkpt>
      <trkpt lat="47.62217" lon="-2.67755">
        <ele>11.8</ele>
        <time>2026-08-20T13:42:50Z</time>
      </trkpt>
      <trkpt lat="47.62214" lon="-2.67759">
        <ele>11.7</ele>
        <time>2026-08-20T13:42:51Z</time>
      </trkpt>
      <trkpt lat="47.6221" lon="-2.67763">
        <ele>11.6</ele>
        <time>2026-08-20T13:42:52Z</time>
      </trkpt>
      <trkpt lat="47.62207" lon="-2.67767">
        <ele>11.5</ele>
        <time>2026-08-20T13:42:53Z</time>
      </trkpt>
      <trkpt lat="47.62204" lon="-2.6777">
        <ele>11.3</ele>
        <time>2026-08-20T13:42:54Z</time>
      </trkpt>
      <trkpt lat="47.62201" lon="-2.67774">
        <ele>11.2</ele>
        <time>2026-08-20T13:42:55Z</time>
      </trkpt>
      <trkpt lat="47.62197" lon="-2.67778">
        <ele>11.1</ele>
        <time>2026-08-20T13:42:56Z</time>
      </trkpt>
      <trkpt lat="47.62195" lon="-2.67781">
        <ele>11.1</ele>
        <time>2026-08-20T13:42:57Z</time>
      </trkpt>
      <trkpt lat="47.62192" lon="-2.67785">
        <ele>11.2</ele>
        <time>2026-08-20T13:42:58Z</time>
      </trkpt>
      <trkpt lat="47.62188" lon="-2.67789">
        <ele>11.3</ele>
        <time>2026-08-20T13:42:59Z</time>
      </trkpt>
      <trkpt lat="47.62185" lon="-2.67793">
        <ele>11.4</ele>
        <time>2026-08-20T13:43:00Z</time>
      </trkpt>
      <trkpt lat="47.62181" lon="-2.67797">
        <ele>11.4</ele>
        <time>2026-08-20T13:43:01Z</time>
      </trkpt>
      <trkpt lat="47.62177" lon="-2.67801">
        <ele>11.3</ele>
        <time>2026-08-20T13:43:02Z</time>
      </trkpt>
      <trkpt lat="47.62174" lon="-2.67805">
        <ele>11.3</ele>
        <time>2026-08-20T13:43:03Z</time>
      </trkpt>
      <trkpt lat="47.6217" lon="-2.6781">
        <ele>11.3</ele>
        <time>2026-08-20T13:43:04Z</time>
      </trkpt>
      <trkpt lat="47.62166" lon="-2.67814">
        <ele>11.3</ele>
        <time>2026-08-20T13:43:05Z</time>
      </trkpt>
      <trkpt lat="47.62163" lon="-2.67818">
        <ele>11.3</ele>
        <time>2026-08-20T13:43:06Z</time>
      </trkpt>
      <trkpt lat="47.62159" lon="-2.67822">
        <ele>11.3</ele>
        <time>2026-08-20T13:43:07Z</time>
      </trkpt>
      <trkpt lat="47.62156" lon="-2.67826">
        <ele>11.4</ele>
        <time>2026-08-20T13:43:08Z</time>
      </trkpt>
      <trkpt lat="47.62152" lon="-2.6783">
        <ele>11.4</ele>
        <time>2026-08-20T13:43:09Z</time>
      </trkpt>
      <trkpt lat="47.62148" lon="-2.67834">
        <ele>11.3</ele>
        <time>2026-08-20T13:43:10Z</time>
      </trkpt>
      <trkpt lat="47.62145" lon="-2.67838">
        <ele>11.2</ele>
        <time>2026-08-20T13:43:11Z</time>
      </trkpt>
      <trkpt lat="47.62141" lon="-2.67843">
        <ele>11.1</ele>
        <time>2026-08-20T13:43:12Z</time>
      </trkpt>
      <trkpt lat="47.62137" lon="-2.67847">
        <ele>11</ele>
        <time>2026-08-20T13:43:13Z</time>
      </trkpt>
      <trkpt lat="47.62134" lon="-2.67851">
        <ele>10.9</ele>
        <time>2026-08-20T13:43:14Z</time>
      </trkpt>
      <trkpt lat="47.6213" lon="-2.67855">
        <ele>10.9</ele>
        <time>2026-08-20T13:43:15Z</time>
      </trkpt>
      <trkpt lat="47.62127" lon="-2.67859">
        <ele>11</ele>
        <time>2026-08-20T13:43:16Z</time>
      </trkpt>
      <trkpt lat="47.62123" lon="-2.67863">
        <ele>11</ele>
        <time>2026-08-20T13:43:17Z</time>
      </trkpt>
      <trkpt lat="47.6212" lon="-2.67867">
        <ele>11.1</ele>
        <time>2026-08-20T13:43:18Z</time>
      </trkpt>
      <trkpt lat="47.62117" lon="-2.6787">
        <ele>11.1</ele>
        <time>2026-08-20T13:43:19Z</time>
      </trkpt>
      <trkpt lat="47.62114" lon="-2.67874">
        <ele>11</ele>
        <time>2026-08-20T13:43:20Z</time>
      </trkpt>
      <trkpt lat="47.62111" lon="-2.67877">
        <ele>11</ele>
        <time>2026-08-20T13:43:21Z</time>
      </trkpt>
      <trkpt lat="47.62108" lon="-2.67881">
        <ele>11</ele>
        <time>2026-08-20T13:43:22Z</time>
      </trkpt>
      <trkpt lat="47.62106" lon="-2.67884">
        <ele>11</ele>
        <time>2026-08-20T13:43:23Z</time>
      </trkpt>
      <trkpt lat="47.62103" lon="-2.67887">
        <ele>11</ele>
        <time>2026-08-20T13:43:24Z</time>
      </trkpt>
      <trkpt lat="47.62099" lon="-2.67891">
        <ele>11</ele>
        <time>2026-08-20T13:43:25Z</time>
      </trkpt>
      <trkpt lat="47.62095" lon="-2.67894">
        <ele>11</ele>
        <time>2026-08-20T13:43:26Z</time>
      </trkpt>
      <trkpt lat="47.62092" lon="-2.67898">
        <ele>10.9</ele>
        <time>2026-08-20T13:43:27Z</time>
      </trkpt>
      <trkpt lat="47.62089" lon="-2.67901">
        <ele>10.7</ele>
        <time>2026-08-20T13:43:28Z</time>
      </trkpt>
      <trkpt lat="47.62086" lon="-2.67904">
        <ele>10.6</ele>
        <time>2026-08-20T13:43:29Z</time>
      </trkpt>
      <trkpt lat="47.62084" lon="-2.67907">
        <ele>10.4</ele>
        <time>2026-08-20T13:43:30Z</time>
      </trkpt>
      <trkpt lat="47.62083" lon="-2.6791">
        <ele>10.2</ele>
        <time>2026-08-20T13:43:31Z</time>
      </trkpt>
      <trkpt lat="47.62084" lon="-2.67912">
        <ele>10.2</ele>
        <time>2026-08-20T13:43:32Z</time>
      </trkpt>
      <trkpt lat="47.62084" lon="-2.67913">
        <ele>10.2</ele>
        <time>2026-08-20T13:43:33Z</time>
      </trkpt>
      <trkpt lat="47.62084" lon="-2.67914">
        <ele>10.1</ele>
        <time>2026-08-20T13:43:34Z</time>
      </trkpt>
      <trkpt lat="47.62087" lon="-2.67919">
        <ele>10.3</ele>
        <time>2026-08-20T13:43:37Z</time>
      </trkpt>
      <trkpt lat="47.62088" lon="-2.67922">
        <ele>10.5</ele>
        <time>2026-08-20T13:43:38Z</time>
      </trkpt>
      <trkpt lat="47.62089" lon="-2.67926">
        <ele>10.7</ele>
        <time>2026-08-20T13:43:39Z</time>
      </trkpt>
      <trkpt lat="47.62089" lon="-2.67931">
        <ele>10.8</ele>
        <time>2026-08-20T13:43:40Z</time>
      </trkpt>
      <trkpt lat="47.62088" lon="-2.67934">
        <ele>10.9</ele>
        <time>2026-08-20T13:43:41Z</time>
      </trkpt>
      <trkpt lat="47.62085" lon="-2.67937">
        <ele>10.8</ele>
        <time>2026-08-20T13:43:42Z</time>
      </trkpt>
      <trkpt lat="47.62082" lon="-2.67941">
        <ele>10.8</ele>
        <time>2026-08-20T13:43:43Z</time>
      </trkpt>
      <trkpt lat="47.62079" lon="-2.67944">
        <ele>10.8</ele>
        <time>2026-08-20T13:43:44Z</time>
      </trkpt>
      <trkpt lat="47.62077" lon="-2.67947">
        <ele>10.8</ele>
        <time>2026-08-20T13:43:45Z</time>
      </trkpt>
      <trkpt lat="47.62074" lon="-2.6795">
        <ele>10.6</ele>
        <time>2026-08-20T13:43:46Z</time>
      </trkpt>
      <trkpt lat="47.6207" lon="-2.67954">
        <ele>10.4</ele>
        <time>2026-08-20T13:43:47Z</time>
      </trkpt>
      <trkpt lat="47.62067" lon="-2.67958">
        <ele>10.1</ele>
        <time>2026-08-20T13:43:48Z</time>
      </trkpt>
      <trkpt lat="47.62064" lon="-2.67961">
        <ele>9.9</ele>
        <time>2026-08-20T13:43:49Z</time>
      </trkpt>
      <trkpt lat="47.6206" lon="-2.67965">
        <ele>9.5</ele>
        <time>2026-08-20T13:43:50Z</time>
      </trkpt>
      <trkpt lat="47.62057" lon="-2.67969">
        <ele>9.2</ele>
        <time>2026-08-20T13:43:51Z</time>
      </trkpt>
      <trkpt lat="47.62054" lon="-2.67973">
        <ele>9</ele>
        <time>2026-08-20T13:43:52Z</time>
      </trkpt>
      <trkpt lat="47.62053" lon="-2.67979">
        <ele>9.1</ele>
        <time>2026-08-20T13:43:53Z</time>
      </trkpt>
      <trkpt lat="47.62054" lon="-2.67984">
        <ele>9.3</ele>
        <time>2026-08-20T13:43:54Z</time>
      </trkpt>
      <trkpt lat="47.62056" lon="-2.67989">
        <ele>9.6</ele>
        <time>2026-08-20T13:43:55Z</time>
      </trkpt>
      <trkpt lat="47.62059" lon="-2.67994">
        <ele>9.9</ele>
        <time>2026-08-20T13:43:56Z</time>
      </trkpt>
      <trkpt lat="47.62062" lon="-2.67998">
        <ele>10.2</ele>
        <time>2026-08-20T13:43:57Z</time>
      </trkpt>
      <trkpt lat="47.62064" lon="-2.68003">
        <ele>10.2</ele>
        <time>2026-08-20T13:43:58Z</time>
      </trkpt>
      <trkpt lat="47.62067" lon="-2.68008">
        <ele>10.1</ele>
        <time>2026-08-20T13:43:59Z</time>
      </trkpt>
      <trkpt lat="47.62069" lon="-2.68013">
        <ele>10</ele>
        <time>2026-08-20T13:44:00Z</time>
      </trkpt>
      <trkpt lat="47.62072" lon="-2.68018">
        <ele>9.9</ele>
        <time>2026-08-20T13:44:01Z</time>
      </trkpt>
      <trkpt lat="47.62075" lon="-2.68023">
        <ele>9.9</ele>
        <time>2026-08-20T13:44:02Z</time>
      </trkpt>
      <trkpt lat="47.62077" lon="-2.68029">
        <ele>9.8</ele>
        <time>2026-08-20T13:44:03Z</time>
      </trkpt>
      <trkpt lat="47.6208" lon="-2.68034">
        <ele>9.9</ele>
        <time>2026-08-20T13:44:04Z</time>
      </trkpt>
      <trkpt lat="47.62083" lon="-2.6804">
        <ele>10</ele>
        <time>2026-08-20T13:44:05Z</time>
      </trkpt>
      <trkpt lat="47.62086" lon="-2.68045">
        <ele>10.1</ele>
        <time>2026-08-20T13:44:06Z</time>
      </trkpt>
      <trkpt lat="47.62089" lon="-2.68051">
        <ele>10.2</ele>
        <time>2026-08-20T13:44:07Z</time>
      </trkpt>
      <trkpt lat="47.62092" lon="-2.68057">
        <ele>10.3</ele>
        <time>2026-08-20T13:44:08Z</time>
      </trkpt>
      <trkpt lat="47.62095" lon="-2.68062">
        <ele>10.2</ele>
        <time>2026-08-20T13:44:09Z</time>
      </trkpt>
      <trkpt lat="47.62098" lon="-2.68068">
        <ele>10.1</ele>
        <time>2026-08-20T13:44:10Z</time>
      </trkpt>
      <trkpt lat="47.62101" lon="-2.68074">
        <ele>10</ele>
        <time>2026-08-20T13:44:11Z</time>
      </trkpt>
      <trkpt lat="47.62104" lon="-2.6808">
        <ele>9.9</ele>
        <time>2026-08-20T13:44:12Z</time>
      </trkpt>
      <trkpt lat="47.62107" lon="-2.68086">
        <ele>9.9</ele>
        <time>2026-08-20T13:44:13Z</time>
      </trkpt>
      <trkpt lat="47.6211" lon="-2.68092">
        <ele>10</ele>
        <time>2026-08-20T13:44:14Z</time>
      </trkpt>
      <trkpt lat="47.62113" lon="-2.68097">
        <ele>10.1</ele>
        <time>2026-08-20T13:44:15Z</time>
      </trkpt>
      <trkpt lat="47.62116" lon="-2.68103">
        <ele>10.2</ele>
        <time>2026-08-20T13:44:16Z</time>
      </trkpt>
      <trkpt lat="47.62119" lon="-2.68109">
        <ele>10.3</ele>
        <time>2026-08-20T13:44:17Z</time>
      </trkpt>
      <trkpt lat="47.62122" lon="-2.68115">
        <ele>10.4</ele>
        <time>2026-08-20T13:44:18Z</time>
      </trkpt>
      <trkpt lat="47.62125" lon="-2.68121">
        <ele>10.5</ele>
        <time>2026-08-20T13:44:19Z</time>
      </trkpt>
      <trkpt lat="47.62128" lon="-2.68127">
        <ele>10.6</ele>
        <time>2026-08-20T13:44:20Z</time>
      </trkpt>
      <trkpt lat="47.62131" lon="-2.68133">
        <ele>10.7</ele>
        <time>2026-08-20T13:44:21Z</time>
      </trkpt>
      <trkpt lat="47.62134" lon="-2.68139">
        <ele>10.8</ele>
        <time>2026-08-20T13:44:22Z</time>
      </trkpt>
      <trkpt lat="47.62137" lon="-2.68144">
        <ele>10.9</ele>
        <time>2026-08-20T13:44:23Z</time>
      </trkpt>
      <trkpt lat="47.6214" lon="-2.6815">
        <ele>11</ele>
        <time>2026-08-20T13:44:24Z</time>
      </trkpt>
      <trkpt lat="47.62143" lon="-2.68155">
        <ele>11.1</ele>
        <time>2026-08-20T13:44:25Z</time>
      </trkpt>
      <trkpt lat="47.62146" lon="-2.6816">
        <ele>11.3</ele>
        <time>2026-08-20T13:44:26Z</time>
      </trkpt>
      <trkpt lat="47.62148" lon="-2.68165">
        <ele>11.3</ele>
        <time>2026-08-20T13:44:27Z</time>
      </trkpt>
      <trkpt lat="47.62151" lon="-2.6817">
        <ele>11.4</ele>
        <time>2026-08-20T13:44:28Z</time>
      </trkpt>
      <trkpt lat="47.62154" lon="-2.68176">
        <ele>11.5</ele>
        <time>2026-08-20T13:44:29Z</time>
      </trkpt>
      <trkpt lat="47.62157" lon="-2.68181">
        <ele>11.7</ele>
        <time>2026-08-20T13:44:30Z</time>
      </trkpt>
      <trkpt lat="47.62159" lon="-2.68186">
        <ele>11.7</ele>
        <time>2026-08-20T13:44:31Z</time>
      </trkpt>
      <trkpt lat="47.62162" lon="-2.68191">
        <ele>11.8</ele>
        <time>2026-08-20T13:44:32Z</time>
      </trkpt>
      <trkpt lat="47.62165" lon="-2.68196">
        <ele>11.9</ele>
        <time>2026-08-20T13:44:33Z</time>
      </trkpt>
      <trkpt lat="47.62167" lon="-2.68201">
        <ele>12</ele>
        <time>2026-08-20T13:44:34Z</time>
      </trkpt>
      <trkpt lat="47.6217" lon="-2.68206">
        <ele>12.1</ele>
        <time>2026-08-20T13:44:35Z</time>
      </trkpt>
      <trkpt lat="47.62172" lon="-2.68211">
        <ele>12.2</ele>
        <time>2026-08-20T13:44:36Z</time>
      </trkpt>
      <trkpt lat="47.62175" lon="-2.68216">
        <ele>12.3</ele>
        <time>2026-08-20T13:44:37Z</time>
      </trkpt>
      <trkpt lat="47.62177" lon="-2.68221">
        <ele>12.4</ele>
        <time>2026-08-20T13:44:38Z</time>
      </trkpt>
      <trkpt lat="47.6218" lon="-2.68226">
        <ele>12.5</ele>
        <time>2026-08-20T13:44:39Z</time>
      </trkpt>
      <trkpt lat="47.62182" lon="-2.68231">
        <ele>12.6</ele>
        <time>2026-08-20T13:44:40Z</time>
      </trkpt>
      <trkpt lat="47.62185" lon="-2.68236">
        <ele>12.7</ele>
        <time>2026-08-20T13:44:41Z</time>
      </trkpt>
      <trkpt lat="47.62188" lon="-2.68241">
        <ele>12.8</ele>
        <time>2026-08-20T13:44:42Z</time>
      </trkpt>
      <trkpt lat="47.6219" lon="-2.68246">
        <ele>12.8</ele>
        <time>2026-08-20T13:44:43Z</time>
      </trkpt>
      <trkpt lat="47.62192" lon="-2.68251">
        <ele>12.9</ele>
        <time>2026-08-20T13:44:44Z</time>
      </trkpt>
      <trkpt lat="47.62194" lon="-2.68257">
        <ele>13</ele>
        <time>2026-08-20T13:44:45Z</time>
      </trkpt>
      <trkpt lat="47.62194" lon="-2.68263">
        <ele>13</ele>
        <time>2026-08-20T13:44:46Z</time>
      </trkpt>
      <trkpt lat="47.62193" lon="-2.68268">
        <ele>12.9</ele>
        <time>2026-08-20T13:44:47Z</time>
      </trkpt>
      <trkpt lat="47.6219" lon="-2.68273">
        <ele>12.8</ele>
        <time>2026-08-20T13:44:48Z</time>
      </trkpt>
      <trkpt lat="47.62187" lon="-2.68276">
        <ele>12.7</ele>
        <time>2026-08-20T13:44:49Z</time>
      </trkpt>
      <trkpt lat="47.62183" lon="-2.6828">
        <ele>12.5</ele>
        <time>2026-08-20T13:44:50Z</time>
      </trkpt>
      <trkpt lat="47.62179" lon="-2.68284">
        <ele>12.3</ele>
        <time>2026-08-20T13:44:51Z</time>
      </trkpt>
      <trkpt lat="47.62176" lon="-2.68288">
        <ele>12.2</ele>
        <time>2026-08-20T13:44:52Z</time>
      </trkpt>
      <trkpt lat="47.62172" lon="-2.68292">
        <ele>12.1</ele>
        <time>2026-08-20T13:44:53Z</time>
      </trkpt>
      <trkpt lat="47.62168" lon="-2.68296">
        <ele>12</ele>
        <time>2026-08-20T13:44:54Z</time>
      </trkpt>
      <trkpt lat="47.62164" lon="-2.68301">
        <ele>11.9</ele>
        <time>2026-08-20T13:44:55Z</time>
      </trkpt>
      <trkpt lat="47.6216" lon="-2.68305">
        <ele>11.8</ele>
        <time>2026-08-20T13:44:56Z</time>
      </trkpt>
      <trkpt lat="47.62156" lon="-2.68309">
        <ele>11.5</ele>
        <time>2026-08-20T13:44:57Z</time>
      </trkpt>
      <trkpt lat="47.62152" lon="-2.68314">
        <ele>11.2</ele>
        <time>2026-08-20T13:44:58Z</time>
      </trkpt>
      <trkpt lat="47.62148" lon="-2.68319">
        <ele>10.8</ele>
        <time>2026-08-20T13:44:59Z</time>
      </trkpt>
      <trkpt lat="47.62144" lon="-2.68323">
        <ele>10.6</ele>
        <time>2026-08-20T13:45:00Z</time>
      </trkpt>
      <trkpt lat="47.6214" lon="-2.68328">
        <ele>10.2</ele>
        <time>2026-08-20T13:45:01Z</time>
      </trkpt>
      <trkpt lat="47.62136" lon="-2.68332">
        <ele>9.9</ele>
        <time>2026-08-20T13:45:02Z</time>
      </trkpt>
      <trkpt lat="47.62132" lon="-2.68337">
        <ele>9.8</ele>
        <time>2026-08-20T13:45:03Z</time>
      </trkpt>
      <trkpt lat="47.62128" lon="-2.68341">
        <ele>9.6</ele>
        <time>2026-08-20T13:45:04Z</time>
      </trkpt>
      <trkpt lat="47.62123" lon="-2.68346">
        <ele>9.4</ele>
        <time>2026-08-20T13:45:05Z</time>
      </trkpt>
      <trkpt lat="47.62119" lon="-2.68351">
        <ele>9.3</ele>
        <time>2026-08-20T13:45:06Z</time>
      </trkpt>
      <trkpt lat="47.62115" lon="-2.68356">
        <ele>9.1</ele>
        <time>2026-08-20T13:45:07Z</time>
      </trkpt>
      <trkpt lat="47.6211" lon="-2.68362">
        <ele>8.9</ele>
        <time>2026-08-20T13:45:08Z</time>
      </trkpt>
      <trkpt lat="47.62106" lon="-2.68367">
        <ele>8.6</ele>
        <time>2026-08-20T13:45:09Z</time>
      </trkpt>
      <trkpt lat="47.62101" lon="-2.68372">
        <ele>8.4</ele>
        <time>2026-08-20T13:45:10Z</time>
      </trkpt>
      <trkpt lat="47.62097" lon="-2.68377">
        <ele>8.2</ele>
        <time>2026-08-20T13:45:11Z</time>
      </trkpt>
      <trkpt lat="47.62092" lon="-2.68382">
        <ele>8.1</ele>
        <time>2026-08-20T13:45:12Z</time>
      </trkpt>
      <trkpt lat="47.62088" lon="-2.68388">
        <ele>8</ele>
        <time>2026-08-20T13:45:13Z</time>
      </trkpt>
      <trkpt lat="47.62083" lon="-2.68393">
        <ele>7.8</ele>
        <time>2026-08-20T13:45:14Z</time>
      </trkpt>
      <trkpt lat="47.62078" lon="-2.68398">
        <ele>7.5</ele>
        <time>2026-08-20T13:45:15Z</time>
      </trkpt>
      <trkpt lat="47.62073" lon="-2.68403">
        <ele>7.3</ele>
        <time>2026-08-20T13:45:16Z</time>
      </trkpt>
      <trkpt lat="47.62069" lon="-2.68408">
        <ele>7.2</ele>
        <time>2026-08-20T13:45:17Z</time>
      </trkpt>
      <trkpt lat="47.62065" lon="-2.68414">
        <ele>7</ele>
        <time>2026-08-20T13:45:18Z</time>
      </trkpt>
      <trkpt lat="47.6206" lon="-2.68418">
        <ele>7</ele>
        <time>2026-08-20T13:45:19Z</time>
      </trkpt>
      <trkpt lat="47.62056" lon="-2.68424">
        <ele>7</ele>
        <time>2026-08-20T13:45:20Z</time>
      </trkpt>
      <trkpt lat="47.62052" lon="-2.68428">
        <ele>6.9</ele>
        <time>2026-08-20T13:45:21Z</time>
      </trkpt>
      <trkpt lat="47.62048" lon="-2.68432">
        <ele>6.9</ele>
        <time>2026-08-20T13:45:22Z</time>
      </trkpt>
      <trkpt lat="47.62044" lon="-2.68437">
        <ele>6.9</ele>
        <time>2026-08-20T13:45:23Z</time>
      </trkpt>
      <trkpt lat="47.62041" lon="-2.68441">
        <ele>6.9</ele>
        <time>2026-08-20T13:45:24Z</time>
      </trkpt>
      <trkpt lat="47.62037" lon="-2.68445">
        <ele>7</ele>
        <time>2026-08-20T13:45:25Z</time>
      </trkpt>
      <trkpt lat="47.62033" lon="-2.6845">
        <ele>7</ele>
        <time>2026-08-20T13:45:26Z</time>
      </trkpt>
      <trkpt lat="47.62029" lon="-2.68454">
        <ele>7</ele>
        <time>2026-08-20T13:45:27Z</time>
      </trkpt>
      <trkpt lat="47.62026" lon="-2.68458">
        <ele>7</ele>
        <time>2026-08-20T13:45:28Z</time>
      </trkpt>
      <trkpt lat="47.62023" lon="-2.68462">
        <ele>6.9</ele>
        <time>2026-08-20T13:45:29Z</time>
      </trkpt>
      <trkpt lat="47.6202" lon="-2.68465">
        <ele>6.9</ele>
        <time>2026-08-20T13:45:30Z</time>
      </trkpt>
      <trkpt lat="47.62018" lon="-2.68467">
        <ele>6.9</ele>
        <time>2026-08-20T13:45:31Z</time>
      </trkpt>
      <trkpt lat="47.62015" lon="-2.68468">
        <ele>6.9</ele>
        <time>2026-08-20T13:45:32Z</time>
      </trkpt>
      <trkpt lat="47.62012" lon="-2.68469">
        <ele>6.9</ele>
        <time>2026-08-20T13:45:33Z</time>
      </trkpt>
      <trkpt lat="47.62009" lon="-2.68469">
        <ele>6.9</ele>
        <time>2026-08-20T13:45:34Z</time>
      </trkpt>
      <trkpt lat="47.62005" lon="-2.68468">
        <ele>6.9</ele>
        <time>2026-08-20T13:45:35Z</time>
      </trkpt>
      <trkpt lat="47.62001" lon="-2.68466">
        <ele>6.8</ele>
        <time>2026-08-20T13:45:36Z</time>
      </trkpt>
      <trkpt lat="47.61996" lon="-2.68463">
        <ele>6.7</ele>
        <time>2026-08-20T13:45:37Z</time>
      </trkpt>
      <trkpt lat="47.61992" lon="-2.68459">
        <ele>6.5</ele>
        <time>2026-08-20T13:45:38Z</time>
      </trkpt>
      <trkpt lat="47.61988" lon="-2.68456">
        <ele>6.4</ele>
        <time>2026-08-20T13:45:39Z</time>
      </trkpt>
      <trkpt lat="47.61984" lon="-2.68453">
        <ele>6.3</ele>
        <time>2026-08-20T13:45:40Z</time>
      </trkpt>
      <trkpt lat="47.61979" lon="-2.6845">
        <ele>6.2</ele>
        <time>2026-08-20T13:45:41Z</time>
      </trkpt>
      <trkpt lat="47.61974" lon="-2.68447">
        <ele>6.1</ele>
        <time>2026-08-20T13:45:42Z</time>
      </trkpt>
      <trkpt lat="47.61969" lon="-2.68444">
        <ele>6</ele>
        <time>2026-08-20T13:45:43Z</time>
      </trkpt>
      <trkpt lat="47.61965" lon="-2.68441">
        <ele>6</ele>
        <time>2026-08-20T13:45:44Z</time>
      </trkpt>
      <trkpt lat="47.6196" lon="-2.68438">
        <ele>6</ele>
        <time>2026-08-20T13:45:45Z</time>
      </trkpt>
      <trkpt lat="47.61955" lon="-2.68435">
        <ele>6</ele>
        <time>2026-08-20T13:45:46Z</time>
      </trkpt>
      <trkpt lat="47.6195" lon="-2.68432">
        <ele>6</ele>
        <time>2026-08-20T13:45:47Z</time>
      </trkpt>
      <trkpt lat="47.61945" lon="-2.68429">
        <ele>6</ele>
        <time>2026-08-20T13:45:48Z</time>
      </trkpt>
      <trkpt lat="47.6194" lon="-2.68426">
        <ele>5.9</ele>
        <time>2026-08-20T13:45:49Z</time>
      </trkpt>
      <trkpt lat="47.61935" lon="-2.68423">
        <ele>5.7</ele>
        <time>2026-08-20T13:45:50Z</time>
      </trkpt>
      <trkpt lat="47.6193" lon="-2.68419">
        <ele>5.5</ele>
        <time>2026-08-20T13:45:51Z</time>
      </trkpt>
      <trkpt lat="47.61925" lon="-2.68416">
        <ele>5.3</ele>
        <time>2026-08-20T13:45:52Z</time>
      </trkpt>
      <trkpt lat="47.61919" lon="-2.68413">
        <ele>5.1</ele>
        <time>2026-08-20T13:45:53Z</time>
      </trkpt>
      <trkpt lat="47.61914" lon="-2.6841">
        <ele>5</ele>
        <time>2026-08-20T13:45:54Z</time>
      </trkpt>
      <trkpt lat="47.61909" lon="-2.68408">
        <ele>5</ele>
        <time>2026-08-20T13:45:55Z</time>
      </trkpt>
      <trkpt lat="47.61903" lon="-2.68405">
        <ele>5</ele>
        <time>2026-08-20T13:45:56Z</time>
      </trkpt>
      <trkpt lat="47.61898" lon="-2.68402">
        <ele>5</ele>
        <time>2026-08-20T13:45:57Z</time>
      </trkpt>
      <trkpt lat="47.61892" lon="-2.68399">
        <ele>5</ele>
        <time>2026-08-20T13:45:58Z</time>
      </trkpt>
      <trkpt lat="47.61887" lon="-2.68396">
        <ele>5</ele>
        <time>2026-08-20T13:45:59Z</time>
      </trkpt>
      <trkpt lat="47.61881" lon="-2.68394">
        <ele>5</ele>
        <time>2026-08-20T13:46:00Z</time>
      </trkpt>
      <trkpt lat="47.61875" lon="-2.68392">
        <ele>5</ele>
        <time>2026-08-20T13:46:01Z</time>
      </trkpt>
      <trkpt lat="47.61869" lon="-2.6839">
        <ele>5</ele>
        <time>2026-08-20T13:46:02Z</time>
      </trkpt>
      <trkpt lat="47.61863" lon="-2.68388">
        <ele>5</ele>
        <time>2026-08-20T13:46:03Z</time>
      </trkpt>
      <trkpt lat="47.61857" lon="-2.68387">
        <ele>4.8</ele>
        <time>2026-08-20T13:46:04Z</time>
      </trkpt>
      <trkpt lat="47.61852" lon="-2.68387">
        <ele>4.6</ele>
        <time>2026-08-20T13:46:05Z</time>
      </trkpt>
      <trkpt lat="47.61846" lon="-2.68386">
        <ele>4.4</ele>
        <time>2026-08-20T13:46:06Z</time>
      </trkpt>
      <trkpt lat="47.61841" lon="-2.68386">
        <ele>4.2</ele>
        <time>2026-08-20T13:46:07Z</time>
      </trkpt>
      <trkpt lat="47.61835" lon="-2.68386">
        <ele>4.1</ele>
        <time>2026-08-20T13:46:08Z</time>
      </trkpt>
      <trkpt lat="47.6183" lon="-2.68386">
        <ele>4</ele>
        <time>2026-08-20T13:46:09Z</time>
      </trkpt>
      <trkpt lat="47.61824" lon="-2.68386">
        <ele>4</ele>
        <time>2026-08-20T13:46:10Z</time>
      </trkpt>
      <trkpt lat="47.61818" lon="-2.68386">
        <ele>4</ele>
        <time>2026-08-20T13:46:11Z</time>
      </trkpt>
      <trkpt lat="47.61813" lon="-2.68386">
        <ele>4</ele>
        <time>2026-08-20T13:46:12Z</time>
      </trkpt>
      <trkpt lat="47.61808" lon="-2.68386">
        <ele>4</ele>
        <time>2026-08-20T13:46:13Z</time>
      </trkpt>
      <trkpt lat="47.61802" lon="-2.68386">
        <ele>4.1</ele>
        <time>2026-08-20T13:46:14Z</time>
      </trkpt>
      <trkpt lat="47.61797" lon="-2.68386">
        <ele>4.3</ele>
        <time>2026-08-20T13:46:15Z</time>
      </trkpt>
      <trkpt lat="47.61792" lon="-2.68386">
        <ele>4.5</ele>
        <time>2026-08-20T13:46:16Z</time>
      </trkpt>
      <trkpt lat="47.61786" lon="-2.68385">
        <ele>4.7</ele>
        <time>2026-08-20T13:46:17Z</time>
      </trkpt>
      <trkpt lat="47.61781" lon="-2.68384">
        <ele>4.9</ele>
        <time>2026-08-20T13:46:18Z</time>
      </trkpt>
      <trkpt lat="47.61775" lon="-2.68383">
        <ele>5</ele>
        <time>2026-08-20T13:46:19Z</time>
      </trkpt>
      <trkpt lat="47.6177" lon="-2.68382">
        <ele>5</ele>
        <time>2026-08-20T13:46:20Z</time>
      </trkpt>
      <trkpt lat="47.61765" lon="-2.68382">
        <ele>5</ele>
        <time>2026-08-20T13:46:21Z</time>
      </trkpt>
      <trkpt lat="47.6176" lon="-2.68381">
        <ele>5</ele>
        <time>2026-08-20T13:46:22Z</time>
      </trkpt>
      <trkpt lat="47.61755" lon="-2.68381">
        <ele>5</ele>
        <time>2026-08-20T13:46:23Z</time>
      </trkpt>
      <trkpt lat="47.61749" lon="-2.68381">
        <ele>5</ele>
        <time>2026-08-20T13:46:24Z</time>
      </trkpt>
      <trkpt lat="47.61744" lon="-2.6838">
        <ele>4.8</ele>
        <time>2026-08-20T13:46:25Z</time>
      </trkpt>
      <trkpt lat="47.61739" lon="-2.6838">
        <ele>4.6</ele>
        <time>2026-08-20T13:46:26Z</time>
      </trkpt>
      <trkpt lat="47.61733" lon="-2.68379">
        <ele>4.4</ele>
        <time>2026-08-20T13:46:27Z</time>
      </trkpt>
      <trkpt lat="47.61728" lon="-2.68378">
        <ele>4.2</ele>
        <time>2026-08-20T13:46:28Z</time>
      </trkpt>
      <trkpt lat="47.61722" lon="-2.68378">
        <ele>4</ele>
        <time>2026-08-20T13:46:29Z</time>
      </trkpt>
      <trkpt lat="47.61717" lon="-2.68378">
        <ele>3.9</ele>
        <time>2026-08-20T13:46:30Z</time>
      </trkpt>
      <trkpt lat="47.61711" lon="-2.68378">
        <ele>3.8</ele>
        <time>2026-08-20T13:46:31Z</time>
      </trkpt>
      <trkpt lat="47.61706" lon="-2.68378">
        <ele>3.6</ele>
        <time>2026-08-20T13:46:32Z</time>
      </trkpt>
      <trkpt lat="47.617" lon="-2.68379">
        <ele>3.5</ele>
        <time>2026-08-20T13:46:33Z</time>
      </trkpt>
      <trkpt lat="47.61695" lon="-2.6838">
        <ele>3.3</ele>
        <time>2026-08-20T13:46:34Z</time>
      </trkpt>
      <trkpt lat="47.61689" lon="-2.68382">
        <ele>3.2</ele>
        <time>2026-08-20T13:46:35Z</time>
      </trkpt>
      <trkpt lat="47.61684" lon="-2.68384">
        <ele>3.1</ele>
        <time>2026-08-20T13:46:36Z</time>
      </trkpt>
      <trkpt lat="47.61679" lon="-2.68387">
        <ele>3</ele>
        <time>2026-08-20T13:46:37Z</time>
      </trkpt>
      <trkpt lat="47.61674" lon="-2.6839">
        <ele>3</ele>
        <time>2026-08-20T13:46:38Z</time>
      </trkpt>
      <trkpt lat="47.61669" lon="-2.68392">
        <ele>2.9</ele>
        <time>2026-08-20T13:46:39Z</time>
      </trkpt>
      <trkpt lat="47.61664" lon="-2.68395">
        <ele>2.8</ele>
        <time>2026-08-20T13:46:40Z</time>
      </trkpt>
      <trkpt lat="47.61659" lon="-2.68397">
        <ele>2.7</ele>
        <time>2026-08-20T13:46:41Z</time>
      </trkpt>
      <trkpt lat="47.61655" lon="-2.684">
        <ele>2.6</ele>
        <time>2026-08-20T13:46:42Z</time>
      </trkpt>
      <trkpt lat="47.6165" lon="-2.68403">
        <ele>2.5</ele>
        <time>2026-08-20T13:46:43Z</time>
      </trkpt>
      <trkpt lat="47.61645" lon="-2.68405">
        <ele>2.4</ele>
        <time>2026-08-20T13:46:44Z</time>
      </trkpt>
      <trkpt lat="47.61641" lon="-2.68408">
        <ele>2.3</ele>
        <time>2026-08-20T13:46:45Z</time>
      </trkpt>
      <trkpt lat="47.61636" lon="-2.6841">
        <ele>2.3</ele>
        <time>2026-08-20T13:46:46Z</time>
      </trkpt>
      <trkpt lat="47.61632" lon="-2.68413">
        <ele>2.3</ele>
        <time>2026-08-20T13:46:47Z</time>
      </trkpt>
      <trkpt lat="47.61628" lon="-2.68416">
        <ele>2.4</ele>
        <time>2026-08-20T13:46:48Z</time>
      </trkpt>
      <trkpt lat="47.61623" lon="-2.68419">
        <ele>2.4</ele>
        <time>2026-08-20T13:46:49Z</time>
      </trkpt>
      <trkpt lat="47.61619" lon="-2.68422">
        <ele>2.4</ele>
        <time>2026-08-20T13:46:50Z</time>
      </trkpt>
      <trkpt lat="47.61615" lon="-2.68426">
        <ele>2.2</ele>
        <time>2026-08-20T13:46:51Z</time>
      </trkpt>
      <trkpt lat="47.61611" lon="-2.68428">
        <ele>2.2</ele>
        <time>2026-08-20T13:46:52Z</time>
      </trkpt>
      <trkpt lat="47.61606" lon="-2.68431">
        <ele>2.3</ele>
        <time>2026-08-20T13:46:53Z</time>
      </trkpt>
      <trkpt lat="47.61601" lon="-2.68434">
        <ele>2.6</ele>
        <time>2026-08-20T13:46:54Z</time>
      </trkpt>
      <trkpt lat="47.61597" lon="-2.68435">
        <ele>2.9</ele>
        <time>2026-08-20T13:46:55Z</time>
      </trkpt>
      <trkpt lat="47.61592" lon="-2.68436">
        <ele>3.3</ele>
        <time>2026-08-20T13:46:56Z</time>
      </trkpt>
      <trkpt lat="47.61588" lon="-2.68437">
        <ele>3.6</ele>
        <time>2026-08-20T13:46:57Z</time>
      </trkpt>
      <trkpt lat="47.61583" lon="-2.68437">
        <ele>4</ele>
        <time>2026-08-20T13:46:58Z</time>
      </trkpt>
      <trkpt lat="47.61579" lon="-2.68437">
        <ele>4.6</ele>
        <time>2026-08-20T13:46:59Z</time>
      </trkpt>
      <trkpt lat="47.61574" lon="-2.68436">
        <ele>5.2</ele>
        <time>2026-08-20T13:47:00Z</time>
      </trkpt>
      <trkpt lat="47.6157" lon="-2.68435">
        <ele>5.8</ele>
        <time>2026-08-20T13:47:01Z</time>
      </trkpt>
      <trkpt lat="47.61566" lon="-2.68434">
        <ele>6.3</ele>
        <time>2026-08-20T13:47:02Z</time>
      </trkpt>
      <trkpt lat="47.61562" lon="-2.68433">
        <ele>6.8</ele>
        <time>2026-08-20T13:47:03Z</time>
      </trkpt>
      <trkpt lat="47.61558" lon="-2.68431">
        <ele>7.2</ele>
        <time>2026-08-20T13:47:04Z</time>
      </trkpt>
      <trkpt lat="47.61554" lon="-2.68431">
        <ele>7.5</ele>
        <time>2026-08-20T13:47:05Z</time>
      </trkpt>
      <trkpt lat="47.61551" lon="-2.6843">
        <ele>7.6</ele>
        <time>2026-08-20T13:47:06Z</time>
      </trkpt>
      <trkpt lat="47.61548" lon="-2.68429">
        <ele>7.6</ele>
        <time>2026-08-20T13:47:07Z</time>
      </trkpt>
      <trkpt lat="47.61545" lon="-2.68428">
        <ele>7.6</ele>
        <time>2026-08-20T13:47:08Z</time>
      </trkpt>
      <trkpt lat="47.61541" lon="-2.68428">
        <ele>7.7</ele>
        <time>2026-08-20T13:47:09Z</time>
      </trkpt>
      <trkpt lat="47.61538" lon="-2.68427">
        <ele>7.8</ele>
        <time>2026-08-20T13:47:10Z</time>
      </trkpt>
      <trkpt lat="47.61535" lon="-2.68426">
        <ele>7.8</ele>
        <time>2026-08-20T13:47:11Z</time>
      </trkpt>
      <trkpt lat="47.61532" lon="-2.68425">
        <ele>7.9</ele>
        <time>2026-08-20T13:47:12Z</time>
      </trkpt>
      <trkpt lat="47.61529" lon="-2.68424">
        <ele>8</ele>
        <time>2026-08-20T13:47:13Z</time>
      </trkpt>
      <trkpt lat="47.61525" lon="-2.68423">
        <ele>8.1</ele>
        <time>2026-08-20T13:47:14Z</time>
      </trkpt>
      <trkpt lat="47.61522" lon="-2.68422">
        <ele>8.2</ele>
        <time>2026-08-20T13:47:15Z</time>
      </trkpt>
      <trkpt lat="47.61519" lon="-2.6842">
        <ele>8.3</ele>
        <time>2026-08-20T13:47:16Z</time>
      </trkpt>
      <trkpt lat="47.61516" lon="-2.68419">
        <ele>8.4</ele>
        <time>2026-08-20T13:47:17Z</time>
      </trkpt>
      <trkpt lat="47.61513" lon="-2.68418">
        <ele>8.5</ele>
        <time>2026-08-20T13:47:18Z</time>
      </trkpt>
      <trkpt lat="47.6151" lon="-2.68416">
        <ele>8.7</ele>
        <time>2026-08-20T13:47:19Z</time>
      </trkpt>
      <trkpt lat="47.61507" lon="-2.68415">
        <ele>8.8</ele>
        <time>2026-08-20T13:47:20Z</time>
      </trkpt>
      <trkpt lat="47.61504" lon="-2.68413">
        <ele>9</ele>
        <time>2026-08-20T13:47:21Z</time>
      </trkpt>
      <trkpt lat="47.61501" lon="-2.68411">
        <ele>9.2</ele>
        <time>2026-08-20T13:47:22Z</time>
      </trkpt>
      <trkpt lat="47.61498" lon="-2.68409">
        <ele>9.3</ele>
        <time>2026-08-20T13:47:23Z</time>
      </trkpt>
      <trkpt lat="47.61495" lon="-2.68407">
        <ele>9.5</ele>
        <time>2026-08-20T13:47:24Z</time>
      </trkpt>
      <trkpt lat="47.61491" lon="-2.68406">
        <ele>9.6</ele>
        <time>2026-08-20T13:47:25Z</time>
      </trkpt>
      <trkpt lat="47.61488" lon="-2.68404">
        <ele>9.7</ele>
        <time>2026-08-20T13:47:26Z</time>
      </trkpt>
      <trkpt lat="47.61485" lon="-2.68402">
        <ele>9.8</ele>
        <time>2026-08-20T13:47:27Z</time>
      </trkpt>
      <trkpt lat="47.61482" lon="-2.68401">
        <ele>9.8</ele>
        <time>2026-08-20T13:47:28Z</time>
      </trkpt>
      <trkpt lat="47.61479" lon="-2.68399">
        <ele>9.9</ele>
        <time>2026-08-20T13:47:29Z</time>
      </trkpt>
      <trkpt lat="47.61476" lon="-2.68398">
        <ele>10</ele>
        <time>2026-08-20T13:47:30Z</time>
      </trkpt>
      <trkpt lat="47.61473" lon="-2.68397">
        <ele>10</ele>
        <time>2026-08-20T13:47:31Z</time>
      </trkpt>
      <trkpt lat="47.61471" lon="-2.68395">
        <ele>10</ele>
        <time>2026-08-20T13:47:32Z</time>
      </trkpt>
      <trkpt lat="47.61468" lon="-2.68394">
        <ele>10.1</ele>
        <time>2026-08-20T13:47:33Z</time>
      </trkpt>
      <trkpt lat="47.61466" lon="-2.68391">
        <ele>10.2</ele>
        <time>2026-08-20T13:47:34Z</time>
      </trkpt>
      <trkpt lat="47.61464" lon="-2.68388">
        <ele>10.3</ele>
        <time>2026-08-20T13:47:35Z</time>
      </trkpt>
      <trkpt lat="47.61462" lon="-2.68385">
        <ele>10.5</ele>
        <time>2026-08-20T13:47:36Z</time>
      </trkpt>
      <trkpt lat="47.61461" lon="-2.68381">
        <ele>10.6</ele>
        <time>2026-08-20T13:47:37Z</time>
      </trkpt>
      <trkpt lat="47.61459" lon="-2.68377">
        <ele>10.7</ele>
        <time>2026-08-20T13:47:38Z</time>
      </trkpt>
      <trkpt lat="47.61458" lon="-2.68373">
        <ele>10.8</ele>
        <time>2026-08-20T13:47:39Z</time>
      </trkpt>
      <trkpt lat="47.61457" lon="-2.68369">
        <ele>10.9</ele>
        <time>2026-08-20T13:47:40Z</time>
      </trkpt>
      <trkpt lat="47.61455" lon="-2.68364">
        <ele>11</ele>
        <time>2026-08-20T13:47:41Z</time>
      </trkpt>
      <trkpt lat="47.61453" lon="-2.6836">
        <ele>11</ele>
        <time>2026-08-20T13:47:42Z</time>
      </trkpt>
      <trkpt lat="47.61451" lon="-2.68356">
        <ele>11.1</ele>
        <time>2026-08-20T13:47:43Z</time>
      </trkpt>
      <trkpt lat="47.61449" lon="-2.68351">
        <ele>11.3</ele>
        <time>2026-08-20T13:47:44Z</time>
      </trkpt>
      <trkpt lat="47.61447" lon="-2.68347">
        <ele>11.5</ele>
        <time>2026-08-20T13:47:45Z</time>
      </trkpt>
      <trkpt lat="47.61445" lon="-2.68343">
        <ele>11.6</ele>
        <time>2026-08-20T13:47:46Z</time>
      </trkpt>
      <trkpt lat="47.61443" lon="-2.68339">
        <ele>11.8</ele>
        <time>2026-08-20T13:47:47Z</time>
      </trkpt>
      <trkpt lat="47.61441" lon="-2.68334">
        <ele>12.1</ele>
        <time>2026-08-20T13:47:48Z</time>
      </trkpt>
      <trkpt lat="47.61439" lon="-2.6833">
        <ele>12.2</ele>
        <time>2026-08-20T13:47:49Z</time>
      </trkpt>
      <trkpt lat="47.61437" lon="-2.68326">
        <ele>12.2</ele>
        <time>2026-08-20T13:47:50Z</time>
      </trkpt>
      <trkpt lat="47.61435" lon="-2.68323">
        <ele>12.2</ele>
        <time>2026-08-20T13:47:51Z</time>
      </trkpt>
      <trkpt lat="47.61434" lon="-2.6832">
        <ele>12.2</ele>
        <time>2026-08-20T13:47:52Z</time>
      </trkpt>
      <trkpt lat="47.61432" lon="-2.68316">
        <ele>12.2</ele>
        <time>2026-08-20T13:47:53Z</time>
      </trkpt>
      <trkpt lat="47.61429" lon="-2.68313">
        <ele>12.1</ele>
        <time>2026-08-20T13:47:54Z</time>
      </trkpt>
      <trkpt lat="47.61426" lon="-2.68311">
        <ele>12.1</ele>
        <time>2026-08-20T13:47:55Z</time>
      </trkpt>
      <trkpt lat="47.61423" lon="-2.68309">
        <ele>12.1</ele>
        <time>2026-08-20T13:47:56Z</time>
      </trkpt>
      <trkpt lat="47.61419" lon="-2.68307">
        <ele>12</ele>
        <time>2026-08-20T13:47:57Z</time>
      </trkpt>
      <trkpt lat="47.61416" lon="-2.68305">
        <ele>12</ele>
        <time>2026-08-20T13:47:58Z</time>
      </trkpt>
      <trkpt lat="47.61413" lon="-2.68305">
        <ele>12.1</ele>
        <time>2026-08-20T13:47:59Z</time>
      </trkpt>
      <trkpt lat="47.61409" lon="-2.68304">
        <ele>12.3</ele>
        <time>2026-08-20T13:48:00Z</time>
      </trkpt>
      <trkpt lat="47.61405" lon="-2.68303">
        <ele>12.4</ele>
        <time>2026-08-20T13:48:01Z</time>
      </trkpt>
      <trkpt lat="47.61401" lon="-2.68303">
        <ele>12.6</ele>
        <time>2026-08-20T13:48:02Z</time>
      </trkpt>
      <trkpt lat="47.61398" lon="-2.68302">
        <ele>12.7</ele>
        <time>2026-08-20T13:48:03Z</time>
      </trkpt>
      <trkpt lat="47.61394" lon="-2.68301">
        <ele>12.8</ele>
        <time>2026-08-20T13:48:04Z</time>
      </trkpt>
      <trkpt lat="47.61391" lon="-2.68299">
        <ele>12.9</ele>
        <time>2026-08-20T13:48:05Z</time>
      </trkpt>
      <trkpt lat="47.61387" lon="-2.68297">
        <ele>13</ele>
        <time>2026-08-20T13:48:06Z</time>
      </trkpt>
      <trkpt lat="47.61384" lon="-2.68296">
        <ele>13.1</ele>
        <time>2026-08-20T13:48:07Z</time>
      </trkpt>
      <trkpt lat="47.61381" lon="-2.68293">
        <ele>13.1</ele>
        <time>2026-08-20T13:48:08Z</time>
      </trkpt>
      <trkpt lat="47.61379" lon="-2.68291">
        <ele>13.2</ele>
        <time>2026-08-20T13:48:09Z</time>
      </trkpt>
      <trkpt lat="47.61376" lon="-2.68288">
        <ele>13.3</ele>
        <time>2026-08-20T13:48:10Z</time>
      </trkpt>
      <trkpt lat="47.61375" lon="-2.68284">
        <ele>13.4</ele>
        <time>2026-08-20T13:48:11Z</time>
      </trkpt>
      <trkpt lat="47.61373" lon="-2.68281">
        <ele>13.5</ele>
        <time>2026-08-20T13:48:12Z</time>
      </trkpt>
      <trkpt lat="47.61371" lon="-2.68277">
        <ele>13.6</ele>
        <time>2026-08-20T13:48:13Z</time>
      </trkpt>
      <trkpt lat="47.6137" lon="-2.68274">
        <ele>13.7</ele>
        <time>2026-08-20T13:48:14Z</time>
      </trkpt>
      <trkpt lat="47.61369" lon="-2.6827">
        <ele>13.7</ele>
        <time>2026-08-20T13:48:15Z</time>
      </trkpt>
      <trkpt lat="47.61369" lon="-2.68266">
        <ele>13.7</ele>
        <time>2026-08-20T13:48:16Z</time>
      </trkpt>
      <trkpt lat="47.61368" lon="-2.68262">
        <ele>13.8</ele>
        <time>2026-08-20T13:48:17Z</time>
      </trkpt>
      <trkpt lat="47.61366" lon="-2.68258">
        <ele>13.8</ele>
        <time>2026-08-20T13:48:18Z</time>
      </trkpt>
      <trkpt lat="47.61365" lon="-2.68253">
        <ele>13.9</ele>
        <time>2026-08-20T13:48:19Z</time>
      </trkpt>
      <trkpt lat="47.61363" lon="-2.68248">
        <ele>13.9</ele>
        <time>2026-08-20T13:48:20Z</time>
      </trkpt>
      <trkpt lat="47.61362" lon="-2.68243">
        <ele>13.7</ele>
        <time>2026-08-20T13:48:21Z</time>
      </trkpt>
      <trkpt lat="47.6136" lon="-2.68238">
        <ele>13.6</ele>
        <time>2026-08-20T13:48:22Z</time>
      </trkpt>
      <trkpt lat="47.61359" lon="-2.68233">
        <ele>13.4</ele>
        <time>2026-08-20T13:48:23Z</time>
      </trkpt>
      <trkpt lat="47.61358" lon="-2.68228">
        <ele>13.3</ele>
        <time>2026-08-20T13:48:24Z</time>
      </trkpt>
      <trkpt lat="47.61356" lon="-2.68222">
        <ele>13.2</ele>
        <time>2026-08-20T13:48:25Z</time>
      </trkpt>
      <trkpt lat="47.61354" lon="-2.68216">
        <ele>13.3</ele>
        <time>2026-08-20T13:48:26Z</time>
      </trkpt>
      <trkpt lat="47.61352" lon="-2.6821">
        <ele>13.3</ele>
        <time>2026-08-20T13:48:27Z</time>
      </trkpt>
      <trkpt lat="47.6135" lon="-2.68204">
        <ele>13.4</ele>
        <time>2026-08-20T13:48:28Z</time>
      </trkpt>
      <trkpt lat="47.61348" lon="-2.68199">
        <ele>13.5</ele>
        <time>2026-08-20T13:48:29Z</time>
      </trkpt>
      <trkpt lat="47.61346" lon="-2.68193">
        <ele>13.5</ele>
        <time>2026-08-20T13:48:30Z</time>
      </trkpt>
      <trkpt lat="47.61343" lon="-2.68188">
        <ele>13.6</ele>
        <time>2026-08-20T13:48:31Z</time>
      </trkpt>
      <trkpt lat="47.61341" lon="-2.68183">
        <ele>13.6</ele>
        <time>2026-08-20T13:48:32Z</time>
      </trkpt>
      <trkpt lat="47.61339" lon="-2.68177">
        <ele>13.7</ele>
        <time>2026-08-20T13:48:33Z</time>
      </trkpt>
      <trkpt lat="47.61337" lon="-2.68171">
        <ele>13.8</ele>
        <time>2026-08-20T13:48:34Z</time>
      </trkpt>
      <trkpt lat="47.61335" lon="-2.68165">
        <ele>13.8</ele>
        <time>2026-08-20T13:48:35Z</time>
      </trkpt>
      <trkpt lat="47.61334" lon="-2.68159">
        <ele>13.7</ele>
        <time>2026-08-20T13:48:36Z</time>
      </trkpt>
      <trkpt lat="47.61332" lon="-2.68154">
        <ele>13.6</ele>
        <time>2026-08-20T13:48:37Z</time>
      </trkpt>
      <trkpt lat="47.6133" lon="-2.68148">
        <ele>13.5</ele>
        <time>2026-08-20T13:48:38Z</time>
      </trkpt>
      <trkpt lat="47.61328" lon="-2.68143">
        <ele>13.5</ele>
        <time>2026-08-20T13:48:39Z</time>
      </trkpt>
      <trkpt lat="47.61325" lon="-2.68139">
        <ele>13.6</ele>
        <time>2026-08-20T13:48:40Z</time>
      </trkpt>
      <trkpt lat="47.61322" lon="-2.68135">
        <ele>13.9</ele>
        <time>2026-08-20T13:48:41Z</time>
      </trkpt>
      <trkpt lat="47.61319" lon="-2.68131">
        <ele>14.2</ele>
        <time>2026-08-20T13:48:42Z</time>
      </trkpt>
      <trkpt lat="47.61316" lon="-2.68129">
        <ele>14.4</ele>
        <time>2026-08-20T13:48:43Z</time>
      </trkpt>
      <trkpt lat="47.61314" lon="-2.68126">
        <ele>14.5</ele>
        <time>2026-08-20T13:48:44Z</time>
      </trkpt>
      <trkpt lat="47.61311" lon="-2.68122">
        <ele>14.7</ele>
        <time>2026-08-20T13:48:45Z</time>
      </trkpt>
      <trkpt lat="47.61307" lon="-2.68119">
        <ele>14.9</ele>
        <time>2026-08-20T13:48:46Z</time>
      </trkpt>
      <trkpt lat="47.61304" lon="-2.68115">
        <ele>15</ele>
        <time>2026-08-20T13:48:47Z</time>
      </trkpt>
      <trkpt lat="47.61301" lon="-2.6811">
        <ele>15.2</ele>
        <time>2026-08-20T13:48:48Z</time>
      </trkpt>
      <trkpt lat="47.61299" lon="-2.68106">
        <ele>15.4</ele>
        <time>2026-08-20T13:48:49Z</time>
      </trkpt>
      <trkpt lat="47.61296" lon="-2.68102">
        <ele>15.6</ele>
        <time>2026-08-20T13:48:50Z</time>
      </trkpt>
      <trkpt lat="47.61294" lon="-2.68099">
        <ele>15.7</ele>
        <time>2026-08-20T13:48:51Z</time>
      </trkpt>
      <trkpt lat="47.61292" lon="-2.68095">
        <ele>15.8</ele>
        <time>2026-08-20T13:48:52Z</time>
      </trkpt>
      <trkpt lat="47.6129" lon="-2.68092">
        <ele>15.9</ele>
        <time>2026-08-20T13:48:53Z</time>
      </trkpt>
      <trkpt lat="47.61287" lon="-2.68088">
        <ele>15.9</ele>
        <time>2026-08-20T13:48:54Z</time>
      </trkpt>
      <trkpt lat="47.61285" lon="-2.68085">
        <ele>16</ele>
        <time>2026-08-20T13:48:55Z</time>
      </trkpt>
      <trkpt lat="47.61283" lon="-2.68081">
        <ele>16.1</ele>
        <time>2026-08-20T13:48:56Z</time>
      </trkpt>
      <trkpt lat="47.61281" lon="-2.68076">
        <ele>16.2</ele>
        <time>2026-08-20T13:48:57Z</time>
      </trkpt>
      <trkpt lat="47.61278" lon="-2.68071">
        <ele>16.4</ele>
        <time>2026-08-20T13:48:58Z</time>
      </trkpt>
      <trkpt lat="47.61276" lon="-2.68066">
        <ele>16.7</ele>
        <time>2026-08-20T13:48:59Z</time>
      </trkpt>
      <trkpt lat="47.61276" lon="-2.68063">
        <ele>16.8</ele>
        <time>2026-08-20T13:49:00Z</time>
      </trkpt>
      <trkpt lat="47.61274" lon="-2.68059">
        <ele>17</ele>
        <time>2026-08-20T13:49:01Z</time>
      </trkpt>
      <trkpt lat="47.61273" lon="-2.68055">
        <ele>17.2</ele>
        <time>2026-08-20T13:49:02Z</time>
      </trkpt>
      <trkpt lat="47.61272" lon="-2.68052">
        <ele>17.4</ele>
        <time>2026-08-20T13:49:03Z</time>
      </trkpt>
      <trkpt lat="47.6127" lon="-2.68048">
        <ele>17.7</ele>
        <time>2026-08-20T13:49:04Z</time>
      </trkpt>
      <trkpt lat="47.61268" lon="-2.68045">
        <ele>17.8</ele>
        <time>2026-08-20T13:49:05Z</time>
      </trkpt>
      <trkpt lat="47.61266" lon="-2.68042">
        <ele>18</ele>
        <time>2026-08-20T13:49:06Z</time>
      </trkpt>
      <trkpt lat="47.61264" lon="-2.68038">
        <ele>18.1</ele>
        <time>2026-08-20T13:49:07Z</time>
      </trkpt>
      <trkpt lat="47.61261" lon="-2.68033">
        <ele>18.2</ele>
        <time>2026-08-20T13:49:08Z</time>
      </trkpt>
      <trkpt lat="47.61259" lon="-2.68029">
        <ele>18.3</ele>
        <time>2026-08-20T13:49:09Z</time>
      </trkpt>
      <trkpt lat="47.61257" lon="-2.68024">
        <ele>18.4</ele>
        <time>2026-08-20T13:49:10Z</time>
      </trkpt>
      <trkpt lat="47.61256" lon="-2.68021">
        <ele>18.4</ele>
        <time>2026-08-20T13:49:11Z</time>
      </trkpt>
      <trkpt lat="47.61254" lon="-2.68018">
        <ele>18.4</ele>
        <time>2026-08-20T13:49:12Z</time>
      </trkpt>
      <trkpt lat="47.61253" lon="-2.68015">
        <ele>18.5</ele>
        <time>2026-08-20T13:49:13Z</time>
      </trkpt>
      <trkpt lat="47.61251" lon="-2.68013">
        <ele>18.5</ele>
        <time>2026-08-20T13:49:14Z</time>
      </trkpt>
      <trkpt lat="47.6125" lon="-2.6801">
        <ele>18.6</ele>
        <time>2026-08-20T13:49:15Z</time>
      </trkpt>
      <trkpt lat="47.61249" lon="-2.68008">
        <ele>18.7</ele>
        <time>2026-08-20T13:49:16Z</time>
      </trkpt>
      <trkpt lat="47.61248" lon="-2.68005">
        <ele>18.8</ele>
        <time>2026-08-20T13:49:17Z</time>
      </trkpt>
      <trkpt lat="47.61246" lon="-2.68001">
        <ele>19</ele>
        <time>2026-08-20T13:49:18Z</time>
      </trkpt>
      <trkpt lat="47.61244" lon="-2.67997">
        <ele>19</ele>
        <time>2026-08-20T13:49:19Z</time>
      </trkpt>
      <trkpt lat="47.61242" lon="-2.67994">
        <ele>19.1</ele>
        <time>2026-08-20T13:49:20Z</time>
      </trkpt>
      <trkpt lat="47.61239" lon="-2.67991">
        <ele>19.1</ele>
        <time>2026-08-20T13:49:21Z</time>
      </trkpt>
      <trkpt lat="47.61236" lon="-2.67986">
        <ele>19.3</ele>
        <time>2026-08-20T13:49:22Z</time>
      </trkpt>
      <trkpt lat="47.61234" lon="-2.67984">
        <ele>19.3</ele>
        <time>2026-08-20T13:49:23Z</time>
      </trkpt>
      <trkpt lat="47.61232" lon="-2.67981">
        <ele>19.4</ele>
        <time>2026-08-20T13:49:24Z</time>
      </trkpt>
      <trkpt lat="47.6123" lon="-2.67979">
        <ele>19.5</ele>
        <time>2026-08-20T13:49:25Z</time>
      </trkpt>
      <trkpt lat="47.61227" lon="-2.67976">
        <ele>19.7</ele>
        <time>2026-08-20T13:49:26Z</time>
      </trkpt>
      <trkpt lat="47.61225" lon="-2.67973">
        <ele>19.9</ele>
        <time>2026-08-20T13:49:27Z</time>
      </trkpt>
      <trkpt lat="47.61222" lon="-2.6797">
        <ele>20</ele>
        <time>2026-08-20T13:49:28Z</time>
      </trkpt>
      <trkpt lat="47.6122" lon="-2.67967">
        <ele>19.9</ele>
        <time>2026-08-20T13:49:29Z</time>
      </trkpt>
      <trkpt lat="47.61218" lon="-2.67964">
        <ele>19.9</ele>
        <time>2026-08-20T13:49:30Z</time>
      </trkpt>
      <trkpt lat="47.61216" lon="-2.67962">
        <ele>19.9</ele>
        <time>2026-08-20T13:49:31Z</time>
      </trkpt>
      <trkpt lat="47.61213" lon="-2.67959">
        <ele>19.8</ele>
        <time>2026-08-20T13:49:32Z</time>
      </trkpt>
      <trkpt lat="47.61211" lon="-2.67957">
        <ele>19.8</ele>
        <time>2026-08-20T13:49:33Z</time>
      </trkpt>
      <trkpt lat="47.61209" lon="-2.67955">
        <ele>19.8</ele>
        <time>2026-08-20T13:49:34Z</time>
      </trkpt>
      <trkpt lat="47.61207" lon="-2.67952">
        <ele>19.9</ele>
        <time>2026-08-20T13:49:35Z</time>
      </trkpt>
      <trkpt lat="47.61205" lon="-2.6795">
        <ele>19.9</ele>
        <time>2026-08-20T13:49:36Z</time>
      </trkpt>
      <trkpt lat="47.61202" lon="-2.67948">
        <ele>19.9</ele>
        <time>2026-08-20T13:49:37Z</time>
      </trkpt>
      <trkpt lat="47.61199" lon="-2.67947">
        <ele>19.9</ele>
        <time>2026-08-20T13:49:38Z</time>
      </trkpt>
      <trkpt lat="47.61195" lon="-2.67945">
        <ele>20</ele>
        <time>2026-08-20T13:49:39Z</time>
      </trkpt>
      <trkpt lat="47.61192" lon="-2.67944">
        <ele>19.9</ele>
        <time>2026-08-20T13:49:40Z</time>
      </trkpt>
      <trkpt lat="47.61188" lon="-2.67942">
        <ele>19.8</ele>
        <time>2026-08-20T13:49:41Z</time>
      </trkpt>
      <trkpt lat="47.61185" lon="-2.67939">
        <ele>19.7</ele>
        <time>2026-08-20T13:49:42Z</time>
      </trkpt>
      <trkpt lat="47.61181" lon="-2.67937">
        <ele>19.5</ele>
        <time>2026-08-20T13:49:43Z</time>
      </trkpt>
      <trkpt lat="47.61178" lon="-2.67935">
        <ele>19.4</ele>
        <time>2026-08-20T13:49:44Z</time>
      </trkpt>
      <trkpt lat="47.61175" lon="-2.67932">
        <ele>19.3</ele>
        <time>2026-08-20T13:49:45Z</time>
      </trkpt>
      <trkpt lat="47.61172" lon="-2.6793">
        <ele>19.2</ele>
        <time>2026-08-20T13:49:46Z</time>
      </trkpt>
      <trkpt lat="47.61169" lon="-2.67928">
        <ele>19.1</ele>
        <time>2026-08-20T13:49:47Z</time>
      </trkpt>
      <trkpt lat="47.61166" lon="-2.67927">
        <ele>19</ele>
        <time>2026-08-20T13:49:48Z</time>
      </trkpt>
      <trkpt lat="47.61162" lon="-2.67924">
        <ele>18.8</ele>
        <time>2026-08-20T13:49:49Z</time>
      </trkpt>
      <trkpt lat="47.61159" lon="-2.67921">
        <ele>18.7</ele>
        <time>2026-08-20T13:49:50Z</time>
      </trkpt>
      <trkpt lat="47.61156" lon="-2.67918">
        <ele>18.6</ele>
        <time>2026-08-20T13:49:51Z</time>
      </trkpt>
      <trkpt lat="47.61152" lon="-2.67914">
        <ele>18.5</ele>
        <time>2026-08-20T13:49:52Z</time>
      </trkpt>
      <trkpt lat="47.61149" lon="-2.67909">
        <ele>18.4</ele>
        <time>2026-08-20T13:49:53Z</time>
      </trkpt>
      <trkpt lat="47.61146" lon="-2.67904">
        <ele>18.3</ele>
        <time>2026-08-20T13:49:54Z</time>
      </trkpt>
      <trkpt lat="47.61144" lon="-2.67899">
        <ele>18.2</ele>
        <time>2026-08-20T13:49:55Z</time>
      </trkpt>
      <trkpt lat="47.61142" lon="-2.67894">
        <ele>18.1</ele>
        <time>2026-08-20T13:49:56Z</time>
      </trkpt>
      <trkpt lat="47.6114" lon="-2.67889">
        <ele>18</ele>
        <time>2026-08-20T13:49:57Z</time>
      </trkpt>
      <trkpt lat="47.61138" lon="-2.67884">
        <ele>18.1</ele>
        <time>2026-08-20T13:49:58Z</time>
      </trkpt>
      <trkpt lat="47.61137" lon="-2.67878">
        <ele>18.3</ele>
        <time>2026-08-20T13:49:59Z</time>
      </trkpt>
      <trkpt lat="47.61135" lon="-2.67872">
        <ele>18.4</ele>
        <time>2026-08-20T13:50:00Z</time>
      </trkpt>
      <trkpt lat="47.61133" lon="-2.67867">
        <ele>18.4</ele>
        <time>2026-08-20T13:50:01Z</time>
      </trkpt>
      <trkpt lat="47.6113" lon="-2.67861">
        <ele>18.4</ele>
        <time>2026-08-20T13:50:02Z</time>
      </trkpt>
      <trkpt lat="47.61128" lon="-2.67856">
        <ele>18.1</ele>
        <time>2026-08-20T13:50:03Z</time>
      </trkpt>
      <trkpt lat="47.61125" lon="-2.6785">
        <ele>17.8</ele>
        <time>2026-08-20T13:50:04Z</time>
      </trkpt>
      <trkpt lat="47.61123" lon="-2.67845">
        <ele>17.6</ele>
        <time>2026-08-20T13:50:05Z</time>
      </trkpt>
      <trkpt lat="47.61121" lon="-2.67841">
        <ele>17.5</ele>
        <time>2026-08-20T13:50:06Z</time>
      </trkpt>
      <trkpt lat="47.61119" lon="-2.67836">
        <ele>17.3</ele>
        <time>2026-08-20T13:50:07Z</time>
      </trkpt>
      <trkpt lat="47.61116" lon="-2.67832">
        <ele>17.2</ele>
        <time>2026-08-20T13:50:08Z</time>
      </trkpt>
      <trkpt lat="47.61113" lon="-2.67828">
        <ele>17.1</ele>
        <time>2026-08-20T13:50:09Z</time>
      </trkpt>
      <trkpt lat="47.61109" lon="-2.67826">
        <ele>17</ele>
        <time>2026-08-20T13:50:10Z</time>
      </trkpt>
      <trkpt lat="47.61105" lon="-2.67826">
        <ele>17</ele>
        <time>2026-08-20T13:50:11Z</time>
      </trkpt>
      <trkpt lat="47.61101" lon="-2.67826">
        <ele>17</ele>
        <time>2026-08-20T13:50:12Z</time>
      </trkpt>
      <trkpt lat="47.61097" lon="-2.67826">
        <ele>17</ele>
        <time>2026-08-20T13:50:13Z</time>
      </trkpt>
      <trkpt lat="47.61093" lon="-2.67827">
        <ele>17</ele>
        <time>2026-08-20T13:50:14Z</time>
      </trkpt>
      <trkpt lat="47.61089" lon="-2.67827">
        <ele>17</ele>
        <time>2026-08-20T13:50:15Z</time>
      </trkpt>
      <trkpt lat="47.61084" lon="-2.67828">
        <ele>17</ele>
        <time>2026-08-20T13:50:16Z</time>
      </trkpt>
      <trkpt lat="47.6108" lon="-2.67829">
        <ele>16.9</ele>
        <time>2026-08-20T13:50:17Z</time>
      </trkpt>
      <trkpt lat="47.61076" lon="-2.6783">
        <ele>16.8</ele>
        <time>2026-08-20T13:50:18Z</time>
      </trkpt>
      <trkpt lat="47.61071" lon="-2.67831">
        <ele>16.6</ele>
        <time>2026-08-20T13:50:19Z</time>
      </trkpt>
      <trkpt lat="47.61067" lon="-2.67832">
        <ele>16.4</ele>
        <time>2026-08-20T13:50:20Z</time>
      </trkpt>
      <trkpt lat="47.61063" lon="-2.67833">
        <ele>16.3</ele>
        <time>2026-08-20T13:50:21Z</time>
      </trkpt>
      <trkpt lat="47.61059" lon="-2.67834">
        <ele>16.1</ele>
        <time>2026-08-20T13:50:22Z</time>
      </trkpt>
      <trkpt lat="47.61056" lon="-2.67835">
        <ele>16</ele>
        <time>2026-08-20T13:50:23Z</time>
      </trkpt>
      <trkpt lat="47.61052" lon="-2.67835">
        <ele>16</ele>
        <time>2026-08-20T13:50:24Z</time>
      </trkpt>
      <trkpt lat="47.61047" lon="-2.67833">
        <ele>16</ele>
        <time>2026-08-20T13:50:25Z</time>
      </trkpt>
      <trkpt lat="47.61043" lon="-2.67831">
        <ele>16</ele>
        <time>2026-08-20T13:50:26Z</time>
      </trkpt>
      <trkpt lat="47.61038" lon="-2.67829">
        <ele>16.1</ele>
        <time>2026-08-20T13:50:27Z</time>
      </trkpt>
      <trkpt lat="47.61034" lon="-2.67827">
        <ele>16.1</ele>
        <time>2026-08-20T13:50:28Z</time>
      </trkpt>
      <trkpt lat="47.6103" lon="-2.67825">
        <ele>16</ele>
        <time>2026-08-20T13:50:29Z</time>
      </trkpt>
      <trkpt lat="47.61026" lon="-2.67823">
        <ele>16</ele>
        <time>2026-08-20T13:50:30Z</time>
      </trkpt>
      <trkpt lat="47.61022" lon="-2.67822">
        <ele>16</ele>
        <time>2026-08-20T13:50:31Z</time>
      </trkpt>
      <trkpt lat="47.61017" lon="-2.67821">
        <ele>16</ele>
        <time>2026-08-20T13:50:32Z</time>
      </trkpt>
      <trkpt lat="47.61013" lon="-2.6782">
        <ele>16</ele>
        <time>2026-08-20T13:50:33Z</time>
      </trkpt>
      <trkpt lat="47.61009" lon="-2.67818">
        <ele>16</ele>
        <time>2026-08-20T13:50:34Z</time>
      </trkpt>
      <trkpt lat="47.61004" lon="-2.67816">
        <ele>16</ele>
        <time>2026-08-20T13:50:35Z</time>
      </trkpt>
      <trkpt lat="47.61" lon="-2.67815">
        <ele>16</ele>
        <time>2026-08-20T13:50:36Z</time>
      </trkpt>
      <trkpt lat="47.60996" lon="-2.67813">
        <ele>15.9</ele>
        <time>2026-08-20T13:50:37Z</time>
      </trkpt>
      <trkpt lat="47.60992" lon="-2.67811">
        <ele>15.7</ele>
        <time>2026-08-20T13:50:38Z</time>
      </trkpt>
      <trkpt lat="47.60987" lon="-2.67809">
        <ele>15.5</ele>
        <time>2026-08-20T13:50:39Z</time>
      </trkpt>
      <trkpt lat="47.60983" lon="-2.67807">
        <ele>15.4</ele>
        <time>2026-08-20T13:50:40Z</time>
      </trkpt>
      <trkpt lat="47.60979" lon="-2.67806">
        <ele>15.2</ele>
        <time>2026-08-20T13:50:41Z</time>
      </trkpt>
      <trkpt lat="47.60975" lon="-2.67804">
        <ele>15.1</ele>
        <time>2026-08-20T13:50:42Z</time>
      </trkpt>
      <trkpt lat="47.60971" lon="-2.67802">
        <ele>15</ele>
        <time>2026-08-20T13:50:43Z</time>
      </trkpt>
      <trkpt lat="47.60967" lon="-2.67801">
        <ele>15</ele>
        <time>2026-08-20T13:50:44Z</time>
      </trkpt>
      <trkpt lat="47.60964" lon="-2.678">
        <ele>15</ele>
        <time>2026-08-20T13:50:45Z</time>
      </trkpt>
      <trkpt lat="47.60962" lon="-2.67799">
        <ele>15</ele>
        <time>2026-08-20T13:50:46Z</time>
      </trkpt>
      <trkpt lat="47.6096" lon="-2.67798">
        <ele>15</ele>
        <time>2026-08-20T13:50:47Z</time>
      </trkpt>
      <trkpt lat="47.60958" lon="-2.67797">
        <ele>15</ele>
        <time>2026-08-20T13:50:48Z</time>
      </trkpt>
      <trkpt lat="47.60956" lon="-2.67795">
        <ele>15</ele>
        <time>2026-08-20T13:50:49Z</time>
      </trkpt>
      <trkpt lat="47.60954" lon="-2.67791">
        <ele>15</ele>
        <time>2026-08-20T13:50:50Z</time>
      </trkpt>
      <trkpt lat="47.60952" lon="-2.67786">
        <ele>15</ele>
        <time>2026-08-20T13:50:51Z</time>
      </trkpt>
      <trkpt lat="47.6095" lon="-2.67781">
        <ele>15</ele>
        <time>2026-08-20T13:50:52Z</time>
      </trkpt>
      <trkpt lat="47.60948" lon="-2.67775">
        <ele>14.9</ele>
        <time>2026-08-20T13:50:53Z</time>
      </trkpt>
      <trkpt lat="47.60947" lon="-2.6777">
        <ele>14.7</ele>
        <time>2026-08-20T13:50:54Z</time>
      </trkpt>
      <trkpt lat="47.60945" lon="-2.67764">
        <ele>14.5</ele>
        <time>2026-08-20T13:50:55Z</time>
      </trkpt>
      <trkpt lat="47.60943" lon="-2.67758">
        <ele>14.3</ele>
        <time>2026-08-20T13:50:56Z</time>
      </trkpt>
      <trkpt lat="47.6094" lon="-2.67751">
        <ele>14</ele>
        <time>2026-08-20T13:50:57Z</time>
      </trkpt>
      <trkpt lat="47.60938" lon="-2.67745">
        <ele>14</ele>
        <time>2026-08-20T13:50:58Z</time>
      </trkpt>
      <trkpt lat="47.60936" lon="-2.67739">
        <ele>14</ele>
        <time>2026-08-20T13:50:59Z</time>
      </trkpt>
      <trkpt lat="47.60934" lon="-2.67733">
        <ele>14</ele>
        <time>2026-08-20T13:51:00Z</time>
      </trkpt>
      <trkpt lat="47.60931" lon="-2.67727">
        <ele>14</ele>
        <time>2026-08-20T13:51:01Z</time>
      </trkpt>
      <trkpt lat="47.60928" lon="-2.67721">
        <ele>14</ele>
        <time>2026-08-20T13:51:02Z</time>
      </trkpt>
      <trkpt lat="47.60925" lon="-2.67715">
        <ele>13.8</ele>
        <time>2026-08-20T13:51:03Z</time>
      </trkpt>
      <trkpt lat="47.60922" lon="-2.67709">
        <ele>13.6</ele>
        <time>2026-08-20T13:51:04Z</time>
      </trkpt>
      <trkpt lat="47.60919" lon="-2.67703">
        <ele>13.4</ele>
        <time>2026-08-20T13:51:05Z</time>
      </trkpt>
      <trkpt lat="47.60916" lon="-2.67698">
        <ele>13.1</ele>
        <time>2026-08-20T13:51:06Z</time>
      </trkpt>
      <trkpt lat="47.60913" lon="-2.67693">
        <ele>13.1</ele>
        <time>2026-08-20T13:51:07Z</time>
      </trkpt>
      <trkpt lat="47.6091" lon="-2.67688">
        <ele>13.2</ele>
        <time>2026-08-20T13:51:08Z</time>
      </trkpt>
      <trkpt lat="47.60906" lon="-2.67682">
        <ele>13.2</ele>
        <time>2026-08-20T13:51:09Z</time>
      </trkpt>
      <trkpt lat="47.60903" lon="-2.67677">
        <ele>13.2</ele>
        <time>2026-08-20T13:51:10Z</time>
      </trkpt>
      <trkpt lat="47.60899" lon="-2.67672">
        <ele>13.1</ele>
        <time>2026-08-20T13:51:11Z</time>
      </trkpt>
      <trkpt lat="47.60896" lon="-2.67667">
        <ele>13</ele>
        <time>2026-08-20T13:51:12Z</time>
      </trkpt>
      <trkpt lat="47.60892" lon="-2.67662">
        <ele>12.9</ele>
        <time>2026-08-20T13:51:13Z</time>
      </trkpt>
      <trkpt lat="47.60888" lon="-2.67657">
        <ele>12.7</ele>
        <time>2026-08-20T13:51:14Z</time>
      </trkpt>
      <trkpt lat="47.60884" lon="-2.67652">
        <ele>12.5</ele>
        <time>2026-08-20T13:51:15Z</time>
      </trkpt>
      <trkpt lat="47.60881" lon="-2.67647">
        <ele>12.3</ele>
        <time>2026-08-20T13:51:16Z</time>
      </trkpt>
      <trkpt lat="47.60877" lon="-2.67642">
        <ele>12.1</ele>
        <time>2026-08-20T13:51:17Z</time>
      </trkpt>
      <trkpt lat="47.60873" lon="-2.67637">
        <ele>12</ele>
        <time>2026-08-20T13:51:18Z</time>
      </trkpt>
      <trkpt lat="47.60869" lon="-2.67632">
        <ele>12</ele>
        <time>2026-08-20T13:51:19Z</time>
      </trkpt>
      <trkpt lat="47.60865" lon="-2.67627">
        <ele>12</ele>
        <time>2026-08-20T13:51:20Z</time>
      </trkpt>
      <trkpt lat="47.60861" lon="-2.67621">
        <ele>12</ele>
        <time>2026-08-20T13:51:21Z</time>
      </trkpt>
      <trkpt lat="47.60857" lon="-2.67616">
        <ele>12</ele>
        <time>2026-08-20T13:51:22Z</time>
      </trkpt>
      <trkpt lat="47.60853" lon="-2.67611">
        <ele>12</ele>
        <time>2026-08-20T13:51:23Z</time>
      </trkpt>
      <trkpt lat="47.60849" lon="-2.67605">
        <ele>11.8</ele>
        <time>2026-08-20T13:51:24Z</time>
      </trkpt>
      <trkpt lat="47.60845" lon="-2.676">
        <ele>11.6</ele>
        <time>2026-08-20T13:51:25Z</time>
      </trkpt>
      <trkpt lat="47.60841" lon="-2.67594">
        <ele>11.4</ele>
        <time>2026-08-20T13:51:26Z</time>
      </trkpt>
      <trkpt lat="47.60836" lon="-2.67589">
        <ele>11.2</ele>
        <time>2026-08-20T13:51:27Z</time>
      </trkpt>
      <trkpt lat="47.60832" lon="-2.67583">
        <ele>11</ele>
        <time>2026-08-20T13:51:28Z</time>
      </trkpt>
      <trkpt lat="47.60827" lon="-2.67577">
        <ele>10.7</ele>
        <time>2026-08-20T13:51:29Z</time>
      </trkpt>
      <trkpt lat="47.60822" lon="-2.67571">
        <ele>10.4</ele>
        <time>2026-08-20T13:51:30Z</time>
      </trkpt>
      <trkpt lat="47.60817" lon="-2.67564">
        <ele>9.9</ele>
        <time>2026-08-20T13:51:31Z</time>
      </trkpt>
      <trkpt lat="47.60812" lon="-2.67558">
        <ele>9.4</ele>
        <time>2026-08-20T13:51:32Z</time>
      </trkpt>
      <trkpt lat="47.60806" lon="-2.67552">
        <ele>9</ele>
        <time>2026-08-20T13:51:33Z</time>
      </trkpt>
      <trkpt lat="47.60801" lon="-2.67545">
        <ele>9.1</ele>
        <time>2026-08-20T13:51:34Z</time>
      </trkpt>
      <trkpt lat="47.60795" lon="-2.67539">
        <ele>9.2</ele>
        <time>2026-08-20T13:51:35Z</time>
      </trkpt>
      <trkpt lat="47.60791" lon="-2.67534">
        <ele>9.1</ele>
        <time>2026-08-20T13:51:36Z</time>
      </trkpt>
      <trkpt lat="47.60786" lon="-2.67529">
        <ele>9</ele>
        <time>2026-08-20T13:51:37Z</time>
      </trkpt>
      <trkpt lat="47.6078" lon="-2.67523">
        <ele>8.8</ele>
        <time>2026-08-20T13:51:38Z</time>
      </trkpt>
      <trkpt lat="47.60775" lon="-2.67517">
        <ele>8.6</ele>
        <time>2026-08-20T13:51:39Z</time>
      </trkpt>
      <trkpt lat="47.6077" lon="-2.67512">
        <ele>8.3</ele>
        <time>2026-08-20T13:51:40Z</time>
      </trkpt>
      <trkpt lat="47.60765" lon="-2.67506">
        <ele>8.1</ele>
        <time>2026-08-20T13:51:41Z</time>
      </trkpt>
      <trkpt lat="47.60759" lon="-2.67501">
        <ele>8</ele>
        <time>2026-08-20T13:51:42Z</time>
      </trkpt>
      <trkpt lat="47.60754" lon="-2.67495">
        <ele>7.8</ele>
        <time>2026-08-20T13:51:43Z</time>
      </trkpt>
      <trkpt lat="47.60749" lon="-2.6749">
        <ele>7.6</ele>
        <time>2026-08-20T13:51:44Z</time>
      </trkpt>
      <trkpt lat="47.60744" lon="-2.67485">
        <ele>7.4</ele>
        <time>2026-08-20T13:51:45Z</time>
      </trkpt>
      <trkpt lat="47.60739" lon="-2.6748">
        <ele>7.2</ele>
        <time>2026-08-20T13:51:46Z</time>
      </trkpt>
      <trkpt lat="47.60734" lon="-2.67475">
        <ele>7</ele>
        <time>2026-08-20T13:51:47Z</time>
      </trkpt>
      <trkpt lat="47.60729" lon="-2.67469">
        <ele>6.9</ele>
        <time>2026-08-20T13:51:48Z</time>
      </trkpt>
      <trkpt lat="47.60724" lon="-2.67464">
        <ele>6.7</ele>
        <time>2026-08-20T13:51:49Z</time>
      </trkpt>
      <trkpt lat="47.60718" lon="-2.67459">
        <ele>6.4</ele>
        <time>2026-08-20T13:51:50Z</time>
      </trkpt>
      <trkpt lat="47.60713" lon="-2.67453">
        <ele>6.2</ele>
        <time>2026-08-20T13:51:51Z</time>
      </trkpt>
      <trkpt lat="47.60708" lon="-2.67448">
        <ele>6.1</ele>
        <time>2026-08-20T13:51:52Z</time>
      </trkpt>
      <trkpt lat="47.60703" lon="-2.67442">
        <ele>6</ele>
        <time>2026-08-20T13:51:53Z</time>
      </trkpt>
      <trkpt lat="47.60698" lon="-2.67437">
        <ele>6</ele>
        <time>2026-08-20T13:51:54Z</time>
      </trkpt>
      <trkpt lat="47.60693" lon="-2.67432">
        <ele>5.9</ele>
        <time>2026-08-20T13:51:55Z</time>
      </trkpt>
      <trkpt lat="47.60689" lon="-2.67427">
        <ele>5.8</ele>
        <time>2026-08-20T13:51:56Z</time>
      </trkpt>
      <trkpt lat="47.60685" lon="-2.67422">
        <ele>5.7</ele>
        <time>2026-08-20T13:51:57Z</time>
      </trkpt>
      <trkpt lat="47.6068" lon="-2.67416">
        <ele>5.5</ele>
        <time>2026-08-20T13:51:58Z</time>
      </trkpt>
      <trkpt lat="47.60676" lon="-2.67411">
        <ele>5.4</ele>
        <time>2026-08-20T13:51:59Z</time>
      </trkpt>
      <trkpt lat="47.60671" lon="-2.67406">
        <ele>5.4</ele>
        <time>2026-08-20T13:52:00Z</time>
      </trkpt>
      <trkpt lat="47.60666" lon="-2.67399">
        <ele>5.6</ele>
        <time>2026-08-20T13:52:01Z</time>
      </trkpt>
      <trkpt lat="47.60663" lon="-2.67395">
        <ele>5.7</ele>
        <time>2026-08-20T13:52:02Z</time>
      </trkpt>
      <trkpt lat="47.60659" lon="-2.67389">
        <ele>5.7</ele>
        <time>2026-08-20T13:52:03Z</time>
      </trkpt>
      <trkpt lat="47.60655" lon="-2.67384">
        <ele>5.7</ele>
        <time>2026-08-20T13:52:04Z</time>
      </trkpt>
      <trkpt lat="47.60651" lon="-2.67379">
        <ele>5.6</ele>
        <time>2026-08-20T13:52:05Z</time>
      </trkpt>
      <trkpt lat="47.60647" lon="-2.67373">
        <ele>5.7</ele>
        <time>2026-08-20T13:52:06Z</time>
      </trkpt>
      <trkpt lat="47.60643" lon="-2.67369">
        <ele>5.8</ele>
        <time>2026-08-20T13:52:07Z</time>
      </trkpt>
      <trkpt lat="47.60639" lon="-2.67363">
        <ele>5.9</ele>
        <time>2026-08-20T13:52:08Z</time>
      </trkpt>
      <trkpt lat="47.60635" lon="-2.67358">
        <ele>6.1</ele>
        <time>2026-08-20T13:52:09Z</time>
      </trkpt>
      <trkpt lat="47.60631" lon="-2.67353">
        <ele>6.3</ele>
        <time>2026-08-20T13:52:10Z</time>
      </trkpt>
      <trkpt lat="47.60627" lon="-2.67348">
        <ele>6.5</ele>
        <time>2026-08-20T13:52:11Z</time>
      </trkpt>
      <trkpt lat="47.60624" lon="-2.67343">
        <ele>6.7</ele>
        <time>2026-08-20T13:52:12Z</time>
      </trkpt>
      <trkpt lat="47.6062" lon="-2.67339">
        <ele>6.8</ele>
        <time>2026-08-20T13:52:13Z</time>
      </trkpt>
      <trkpt lat="47.60617" lon="-2.67334">
        <ele>7</ele>
        <time>2026-08-20T13:52:14Z</time>
      </trkpt>
      <trkpt lat="47.60613" lon="-2.6733">
        <ele>7.1</ele>
        <time>2026-08-20T13:52:15Z</time>
      </trkpt>
      <trkpt lat="47.6061" lon="-2.67326">
        <ele>7.3</ele>
        <time>2026-08-20T13:52:16Z</time>
      </trkpt>
      <trkpt lat="47.60607" lon="-2.67322">
        <ele>7.3</ele>
        <time>2026-08-20T13:52:17Z</time>
      </trkpt>
      <trkpt lat="47.60603" lon="-2.67317">
        <ele>7.4</ele>
        <time>2026-08-20T13:52:18Z</time>
      </trkpt>
      <trkpt lat="47.60599" lon="-2.67313">
        <ele>7.4</ele>
        <time>2026-08-20T13:52:19Z</time>
      </trkpt>
      <trkpt lat="47.60596" lon="-2.67308">
        <ele>7.4</ele>
        <time>2026-08-20T13:52:20Z</time>
      </trkpt>
      <trkpt lat="47.60593" lon="-2.67303">
        <ele>7.4</ele>
        <time>2026-08-20T13:52:21Z</time>
      </trkpt>
      <trkpt lat="47.60589" lon="-2.67299">
        <ele>7.4</ele>
        <time>2026-08-20T13:52:22Z</time>
      </trkpt>
      <trkpt lat="47.60586" lon="-2.67294">
        <ele>7.5</ele>
        <time>2026-08-20T13:52:23Z</time>
      </trkpt>
      <trkpt lat="47.60583" lon="-2.67289">
        <ele>7.6</ele>
        <time>2026-08-20T13:52:24Z</time>
      </trkpt>
      <trkpt lat="47.60579" lon="-2.67284">
        <ele>7.7</ele>
        <time>2026-08-20T13:52:25Z</time>
      </trkpt>
      <trkpt lat="47.60576" lon="-2.67279">
        <ele>7.7</ele>
        <time>2026-08-20T13:52:26Z</time>
      </trkpt>
      <trkpt lat="47.60573" lon="-2.67275">
        <ele>7.7</ele>
        <time>2026-08-20T13:52:27Z</time>
      </trkpt>
      <trkpt lat="47.60569" lon="-2.67269">
        <ele>7.8</ele>
        <time>2026-08-20T13:52:28Z</time>
      </trkpt>
      <trkpt lat="47.60566" lon="-2.67264">
        <ele>7.9</ele>
        <time>2026-08-20T13:52:29Z</time>
      </trkpt>
      <trkpt lat="47.60562" lon="-2.67259">
        <ele>7.9</ele>
        <time>2026-08-20T13:52:30Z</time>
      </trkpt>
      <trkpt lat="47.60559" lon="-2.67255">
        <ele>7.9</ele>
        <time>2026-08-20T13:52:31Z</time>
      </trkpt>
      <trkpt lat="47.60556" lon="-2.67251">
        <ele>8</ele>
        <time>2026-08-20T13:52:32Z</time>
      </trkpt>
      <trkpt lat="47.60553" lon="-2.67248">
        <ele>8.1</ele>
        <time>2026-08-20T13:52:33Z</time>
      </trkpt>
      <trkpt lat="47.6055" lon="-2.67244">
        <ele>8.4</ele>
        <time>2026-08-20T13:52:34Z</time>
      </trkpt>
      <trkpt lat="47.60547" lon="-2.67243">
        <ele>8.4</ele>
        <time>2026-08-20T13:52:35Z</time>
      </trkpt>
      <trkpt lat="47.60544" lon="-2.67243">
        <ele>8.4</ele>
        <time>2026-08-20T13:52:36Z</time>
      </trkpt>
      <trkpt lat="47.60543" lon="-2.67246">
        <ele>8.2</ele>
        <time>2026-08-20T13:52:37Z</time>
      </trkpt>
      <trkpt lat="47.60542" lon="-2.67249">
        <ele>8.1</ele>
        <time>2026-08-20T13:52:38Z</time>
      </trkpt>
      <trkpt lat="47.60542" lon="-2.67252">
        <ele>7.9</ele>
        <time>2026-08-20T13:52:39Z</time>
      </trkpt>
      <trkpt lat="47.60541" lon="-2.67255">
        <ele>7.8</ele>
        <time>2026-08-20T13:52:40Z</time>
      </trkpt>
      <trkpt lat="47.60539" lon="-2.67258">
        <ele>7.7</ele>
        <time>2026-08-20T13:52:41Z</time>
      </trkpt>
      <trkpt lat="47.60537" lon="-2.67259">
        <ele>7.7</ele>
        <time>2026-08-20T13:52:42Z</time>
      </trkpt>
      <trkpt lat="47.60534" lon="-2.67259">
        <ele>7.7</ele>
        <time>2026-08-20T13:52:43Z</time>
      </trkpt>
      <trkpt lat="47.60531" lon="-2.67259">
        <ele>7.7</ele>
        <time>2026-08-20T13:52:44Z</time>
      </trkpt>
      <trkpt lat="47.60527" lon="-2.6726">
        <ele>7.6</ele>
        <time>2026-08-20T13:52:45Z</time>
      </trkpt>
      <trkpt lat="47.60523" lon="-2.67261">
        <ele>7.6</ele>
        <time>2026-08-20T13:52:46Z</time>
      </trkpt>
      <trkpt lat="47.60519" lon="-2.67262">
        <ele>7.6</ele>
        <time>2026-08-20T13:52:47Z</time>
      </trkpt>
      <trkpt lat="47.60515" lon="-2.67263">
        <ele>7.5</ele>
        <time>2026-08-20T13:52:48Z</time>
      </trkpt>
      <trkpt lat="47.60511" lon="-2.67265">
        <ele>7.5</ele>
        <time>2026-08-20T13:52:49Z</time>
      </trkpt>
      <trkpt lat="47.60507" lon="-2.67266">
        <ele>7.4</ele>
        <time>2026-08-20T13:52:50Z</time>
      </trkpt>
      <trkpt lat="47.60503" lon="-2.67267">
        <ele>7.4</ele>
        <time>2026-08-20T13:52:51Z</time>
      </trkpt>
      <trkpt lat="47.60499" lon="-2.67268">
        <ele>7.4</ele>
        <time>2026-08-20T13:52:52Z</time>
      </trkpt>
      <trkpt lat="47.60495" lon="-2.67269">
        <ele>7.4</ele>
        <time>2026-08-20T13:52:53Z</time>
      </trkpt>
      <trkpt lat="47.6049" lon="-2.67271">
        <ele>7.3</ele>
        <time>2026-08-20T13:52:54Z</time>
      </trkpt>
      <trkpt lat="47.60486" lon="-2.67272">
        <ele>7.3</ele>
        <time>2026-08-20T13:52:55Z</time>
      </trkpt>
      <trkpt lat="47.60482" lon="-2.67273">
        <ele>7.3</ele>
        <time>2026-08-20T13:52:56Z</time>
      </trkpt>
      <trkpt lat="47.60478" lon="-2.67275">
        <ele>7.2</ele>
        <time>2026-08-20T13:52:57Z</time>
      </trkpt>
      <trkpt lat="47.60473" lon="-2.67276">
        <ele>7.1</ele>
        <time>2026-08-20T13:52:58Z</time>
      </trkpt>
      <trkpt lat="47.60469" lon="-2.67277">
        <ele>7.2</ele>
        <time>2026-08-20T13:52:59Z</time>
      </trkpt>
      <trkpt lat="47.60465" lon="-2.67279">
        <ele>7.2</ele>
        <time>2026-08-20T13:53:00Z</time>
      </trkpt>
      <trkpt lat="47.6046" lon="-2.6728">
        <ele>7.4</ele>
        <time>2026-08-20T13:53:01Z</time>
      </trkpt>
      <trkpt lat="47.60456" lon="-2.67281">
        <ele>7.5</ele>
        <time>2026-08-20T13:53:02Z</time>
      </trkpt>
      <trkpt lat="47.60452" lon="-2.67282">
        <ele>7.6</ele>
        <time>2026-08-20T13:53:03Z</time>
      </trkpt>
      <trkpt lat="47.60447" lon="-2.67283">
        <ele>7.7</ele>
        <time>2026-08-20T13:53:04Z</time>
      </trkpt>
      <trkpt lat="47.60443" lon="-2.67284">
        <ele>7.8</ele>
        <time>2026-08-20T13:53:05Z</time>
      </trkpt>
      <trkpt lat="47.60438" lon="-2.67285">
        <ele>7.8</ele>
        <time>2026-08-20T13:53:06Z</time>
      </trkpt>
      <trkpt lat="47.60434" lon="-2.67286">
        <ele>7.8</ele>
        <time>2026-08-20T13:53:07Z</time>
      </trkpt>
      <trkpt lat="47.6043" lon="-2.67288">
        <ele>7.8</ele>
        <time>2026-08-20T13:53:08Z</time>
      </trkpt>
      <trkpt lat="47.60426" lon="-2.6729">
        <ele>7.9</ele>
        <time>2026-08-20T13:53:09Z</time>
      </trkpt>
      <trkpt lat="47.60422" lon="-2.67291">
        <ele>7.9</ele>
        <time>2026-08-20T13:53:10Z</time>
      </trkpt>
      <trkpt lat="47.60419" lon="-2.67292">
        <ele>8</ele>
        <time>2026-08-20T13:53:11Z</time>
      </trkpt>
      <trkpt lat="47.60415" lon="-2.67293">
        <ele>8</ele>
        <time>2026-08-20T13:53:12Z</time>
      </trkpt>
      <trkpt lat="47.60411" lon="-2.67294">
        <ele>8</ele>
        <time>2026-08-20T13:53:13Z</time>
      </trkpt>
      <trkpt lat="47.60407" lon="-2.67296">
        <ele>8</ele>
        <time>2026-08-20T13:53:14Z</time>
      </trkpt>
      <trkpt lat="47.60404" lon="-2.67297">
        <ele>8</ele>
        <time>2026-08-20T13:53:15Z</time>
      </trkpt>
      <trkpt lat="47.604" lon="-2.67297">
        <ele>8</ele>
        <time>2026-08-20T13:53:16Z</time>
      </trkpt>
      <trkpt lat="47.60397" lon="-2.67297">
        <ele>8</ele>
        <time>2026-08-20T13:53:17Z</time>
      </trkpt>
      <trkpt lat="47.60394" lon="-2.67295">
        <ele>8</ele>
        <time>2026-08-20T13:53:18Z</time>
      </trkpt>
      <trkpt lat="47.60391" lon="-2.67293">
        <ele>8</ele>
        <time>2026-08-20T13:53:19Z</time>
      </trkpt>
      <trkpt lat="47.60389" lon="-2.67291">
        <ele>8</ele>
        <time>2026-08-20T13:53:20Z</time>
      </trkpt>
      <trkpt lat="47.60387" lon="-2.6729">
        <ele>8</ele>
        <time>2026-08-20T13:53:21Z</time>
      </trkpt>
      <trkpt lat="47.60384" lon="-2.67289">
        <ele>8.1</ele>
        <time>2026-08-20T13:53:22Z</time>
      </trkpt>
      <trkpt lat="47.60382" lon="-2.67289">
        <ele>8.1</ele>
        <time>2026-08-20T13:53:23Z</time>
      </trkpt>
      <trkpt lat="47.60379" lon="-2.67288">
        <ele>8.2</ele>
        <time>2026-08-20T13:53:24Z</time>
      </trkpt>
      <trkpt lat="47.60376" lon="-2.67288">
        <ele>8.3</ele>
        <time>2026-08-20T13:53:25Z</time>
      </trkpt>
      <trkpt lat="47.60373" lon="-2.67287">
        <ele>8.4</ele>
        <time>2026-08-20T13:53:26Z</time>
      </trkpt>
      <trkpt lat="47.60369" lon="-2.67286">
        <ele>8.5</ele>
        <time>2026-08-20T13:53:27Z</time>
      </trkpt>
      <trkpt lat="47.60365" lon="-2.67285">
        <ele>8.6</ele>
        <time>2026-08-20T13:53:28Z</time>
      </trkpt>
      <trkpt lat="47.60362" lon="-2.67284">
        <ele>8.8</ele>
        <time>2026-08-20T13:53:29Z</time>
      </trkpt>
      <trkpt lat="47.60358" lon="-2.67283">
        <ele>8.8</ele>
        <time>2026-08-20T13:53:30Z</time>
      </trkpt>
      <trkpt lat="47.60355" lon="-2.67282">
        <ele>8.9</ele>
        <time>2026-08-20T13:53:31Z</time>
      </trkpt>
      <trkpt lat="47.60351" lon="-2.67282">
        <ele>8.9</ele>
        <time>2026-08-20T13:53:32Z</time>
      </trkpt>
      <trkpt lat="47.60347" lon="-2.67281">
        <ele>8.9</ele>
        <time>2026-08-20T13:53:33Z</time>
      </trkpt>
      <trkpt lat="47.60343" lon="-2.67281">
        <ele>9</ele>
        <time>2026-08-20T13:53:34Z</time>
      </trkpt>
      <trkpt lat="47.60339" lon="-2.67281">
        <ele>9</ele>
        <time>2026-08-20T13:53:35Z</time>
      </trkpt>
      <trkpt lat="47.60335" lon="-2.67281">
        <ele>9</ele>
        <time>2026-08-20T13:53:36Z</time>
      </trkpt>
      <trkpt lat="47.60331" lon="-2.67281">
        <ele>9</ele>
        <time>2026-08-20T13:53:37Z</time>
      </trkpt>
      <trkpt lat="47.60327" lon="-2.6728">
        <ele>9</ele>
        <time>2026-08-20T13:53:38Z</time>
      </trkpt>
      <trkpt lat="47.60323" lon="-2.6728">
        <ele>9</ele>
        <time>2026-08-20T13:53:39Z</time>
      </trkpt>
      <trkpt lat="47.60319" lon="-2.6728">
        <ele>9</ele>
        <time>2026-08-20T13:53:40Z</time>
      </trkpt>
      <trkpt lat="47.60315" lon="-2.67281">
        <ele>9</ele>
        <time>2026-08-20T13:53:41Z</time>
      </trkpt>
      <trkpt lat="47.6031" lon="-2.67281">
        <ele>9</ele>
        <time>2026-08-20T13:53:42Z</time>
      </trkpt>
      <trkpt lat="47.60306" lon="-2.67281">
        <ele>9</ele>
        <time>2026-08-20T13:53:43Z</time>
      </trkpt>
      <trkpt lat="47.60302" lon="-2.67282">
        <ele>9</ele>
        <time>2026-08-20T13:53:44Z</time>
      </trkpt>
      <trkpt lat="47.60297" lon="-2.67283">
        <ele>9</ele>
        <time>2026-08-20T13:53:45Z</time>
      </trkpt>
      <trkpt lat="47.60293" lon="-2.67284">
        <ele>9</ele>
        <time>2026-08-20T13:53:46Z</time>
      </trkpt>
      <trkpt lat="47.60289" lon="-2.67286">
        <ele>9</ele>
        <time>2026-08-20T13:53:47Z</time>
      </trkpt>
      <trkpt lat="47.60285" lon="-2.67287">
        <ele>9</ele>
        <time>2026-08-20T13:53:48Z</time>
      </trkpt>
      <trkpt lat="47.60281" lon="-2.67289">
        <ele>9</ele>
        <time>2026-08-20T13:53:49Z</time>
      </trkpt>
      <trkpt lat="47.60278" lon="-2.67291">
        <ele>9</ele>
        <time>2026-08-20T13:53:50Z</time>
      </trkpt>
      <trkpt lat="47.60274" lon="-2.67293">
        <ele>8.9</ele>
        <time>2026-08-20T13:53:51Z</time>
      </trkpt>
      <trkpt lat="47.6027" lon="-2.67295">
        <ele>8.7</ele>
        <time>2026-08-20T13:53:52Z</time>
      </trkpt>
      <trkpt lat="47.60265" lon="-2.67297">
        <ele>8.5</ele>
        <time>2026-08-20T13:53:53Z</time>
      </trkpt>
      <trkpt lat="47.60261" lon="-2.67299">
        <ele>8.4</ele>
        <time>2026-08-20T13:53:54Z</time>
      </trkpt>
      <trkpt lat="47.60257" lon="-2.67299">
        <ele>8.3</ele>
        <time>2026-08-20T13:53:55Z</time>
      </trkpt>
      <trkpt lat="47.60253" lon="-2.67299">
        <ele>8.1</ele>
        <time>2026-08-20T13:53:56Z</time>
      </trkpt>
      <trkpt lat="47.60249" lon="-2.67298">
        <ele>8</ele>
        <time>2026-08-20T13:53:57Z</time>
      </trkpt>
      <trkpt lat="47.60245" lon="-2.67295">
        <ele>8</ele>
        <time>2026-08-20T13:53:58Z</time>
      </trkpt>
      <trkpt lat="47.60241" lon="-2.67292">
        <ele>8</ele>
        <time>2026-08-20T13:53:59Z</time>
      </trkpt>
      <trkpt lat="47.60237" lon="-2.67288">
        <ele>8</ele>
        <time>2026-08-20T13:54:00Z</time>
      </trkpt>
      <trkpt lat="47.60233" lon="-2.67285">
        <ele>8</ele>
        <time>2026-08-20T13:54:01Z</time>
      </trkpt>
      <trkpt lat="47.60229" lon="-2.67281">
        <ele>8</ele>
        <time>2026-08-20T13:54:02Z</time>
      </trkpt>
      <trkpt lat="47.60225" lon="-2.67277">
        <ele>8</ele>
        <time>2026-08-20T13:54:03Z</time>
      </trkpt>
      <trkpt lat="47.60221" lon="-2.67274">
        <ele>8</ele>
        <time>2026-08-20T13:54:04Z</time>
      </trkpt>
      <trkpt lat="47.60217" lon="-2.6727">
        <ele>7.8</ele>
        <time>2026-08-20T13:54:05Z</time>
      </trkpt>
      <trkpt lat="47.60213" lon="-2.67266">
        <ele>7.7</ele>
        <time>2026-08-20T13:54:06Z</time>
      </trkpt>
      <trkpt lat="47.60209" lon="-2.67263">
        <ele>7.5</ele>
        <time>2026-08-20T13:54:07Z</time>
      </trkpt>
      <trkpt lat="47.60206" lon="-2.67258">
        <ele>7.4</ele>
        <time>2026-08-20T13:54:08Z</time>
      </trkpt>
      <trkpt lat="47.60202" lon="-2.67254">
        <ele>7.3</ele>
        <time>2026-08-20T13:54:09Z</time>
      </trkpt>
      <trkpt lat="47.60199" lon="-2.67249">
        <ele>7.2</ele>
        <time>2026-08-20T13:54:10Z</time>
      </trkpt>
      <trkpt lat="47.60196" lon="-2.67244">
        <ele>7.3</ele>
        <time>2026-08-20T13:54:11Z</time>
      </trkpt>
      <trkpt lat="47.60192" lon="-2.6724">
        <ele>7.3</ele>
        <time>2026-08-20T13:54:12Z</time>
      </trkpt>
      <trkpt lat="47.60189" lon="-2.67235">
        <ele>7.4</ele>
        <time>2026-08-20T13:54:13Z</time>
      </trkpt>
      <trkpt lat="47.60185" lon="-2.6723">
        <ele>7.5</ele>
        <time>2026-08-20T13:54:14Z</time>
      </trkpt>
      <trkpt lat="47.60181" lon="-2.67225">
        <ele>7.5</ele>
        <time>2026-08-20T13:54:15Z</time>
      </trkpt>
      <trkpt lat="47.60178" lon="-2.6722">
        <ele>7.4</ele>
        <time>2026-08-20T13:54:16Z</time>
      </trkpt>
      <trkpt lat="47.60174" lon="-2.67215">
        <ele>7.3</ele>
        <time>2026-08-20T13:54:17Z</time>
      </trkpt>
      <trkpt lat="47.6017" lon="-2.67209">
        <ele>7.1</ele>
        <time>2026-08-20T13:54:18Z</time>
      </trkpt>
      <trkpt lat="47.60167" lon="-2.67204">
        <ele>7</ele>
        <time>2026-08-20T13:54:19Z</time>
      </trkpt>
      <trkpt lat="47.60163" lon="-2.67199">
        <ele>7</ele>
        <time>2026-08-20T13:54:20Z</time>
      </trkpt>
      <trkpt lat="47.6016" lon="-2.67195">
        <ele>7</ele>
        <time>2026-08-20T13:54:21Z</time>
      </trkpt>
      <trkpt lat="47.60157" lon="-2.67189">
        <ele>7</ele>
        <time>2026-08-20T13:54:22Z</time>
      </trkpt>
      <trkpt lat="47.60153" lon="-2.67184">
        <ele>7</ele>
        <time>2026-08-20T13:54:23Z</time>
      </trkpt>
      <trkpt lat="47.6015" lon="-2.6718">
        <ele>7</ele>
        <time>2026-08-20T13:54:24Z</time>
      </trkpt>
      <trkpt lat="47.60146" lon="-2.67175">
        <ele>7</ele>
        <time>2026-08-20T13:54:25Z</time>
      </trkpt>
      <trkpt lat="47.60142" lon="-2.6717">
        <ele>7</ele>
        <time>2026-08-20T13:54:26Z</time>
      </trkpt>
      <trkpt lat="47.60139" lon="-2.67165">
        <ele>7</ele>
        <time>2026-08-20T13:54:27Z</time>
      </trkpt>
      <trkpt lat="47.60135" lon="-2.67161">
        <ele>6.9</ele>
        <time>2026-08-20T13:54:28Z</time>
      </trkpt>
      <trkpt lat="47.60131" lon="-2.67157">
        <ele>6.7</ele>
        <time>2026-08-20T13:54:29Z</time>
      </trkpt>
      <trkpt lat="47.60127" lon="-2.67153">
        <ele>6.6</ele>
        <time>2026-08-20T13:54:30Z</time>
      </trkpt>
      <trkpt lat="47.60123" lon="-2.67149">
        <ele>6.4</ele>
        <time>2026-08-20T13:54:31Z</time>
      </trkpt>
      <trkpt lat="47.60119" lon="-2.67144">
        <ele>6.3</ele>
        <time>2026-08-20T13:54:32Z</time>
      </trkpt>
      <trkpt lat="47.60115" lon="-2.6714">
        <ele>6.1</ele>
        <time>2026-08-20T13:54:33Z</time>
      </trkpt>
      <trkpt lat="47.60111" lon="-2.67136">
        <ele>6</ele>
        <time>2026-08-20T13:54:34Z</time>
      </trkpt>
      <trkpt lat="47.60107" lon="-2.67132">
        <ele>6</ele>
        <time>2026-08-20T13:54:35Z</time>
      </trkpt>
      <trkpt lat="47.60103" lon="-2.67129">
        <ele>6</ele>
        <time>2026-08-20T13:54:36Z</time>
      </trkpt>
      <trkpt lat="47.60099" lon="-2.67124">
        <ele>6</ele>
        <time>2026-08-20T13:54:37Z</time>
      </trkpt>
      <trkpt lat="47.60095" lon="-2.6712">
        <ele>6</ele>
        <time>2026-08-20T13:54:38Z</time>
      </trkpt>
      <trkpt lat="47.60092" lon="-2.67115">
        <ele>6</ele>
        <time>2026-08-20T13:54:39Z</time>
      </trkpt>
      <trkpt lat="47.60088" lon="-2.67111">
        <ele>6</ele>
        <time>2026-08-20T13:54:40Z</time>
      </trkpt>
      <trkpt lat="47.60085" lon="-2.67106">
        <ele>6</ele>
        <time>2026-08-20T13:54:41Z</time>
      </trkpt>
      <trkpt lat="47.60082" lon="-2.67101">
        <ele>6</ele>
        <time>2026-08-20T13:54:42Z</time>
      </trkpt>
      <trkpt lat="47.60078" lon="-2.67097">
        <ele>5.9</ele>
        <time>2026-08-20T13:54:43Z</time>
      </trkpt>
      <trkpt lat="47.60074" lon="-2.67093">
        <ele>5.9</ele>
        <time>2026-08-20T13:54:44Z</time>
      </trkpt>
      <trkpt lat="47.60071" lon="-2.6709">
        <ele>5.9</ele>
        <time>2026-08-20T13:54:45Z</time>
      </trkpt>
      <trkpt lat="47.60066" lon="-2.67087">
        <ele>5.9</ele>
        <time>2026-08-20T13:54:46Z</time>
      </trkpt>
      <trkpt lat="47.60062" lon="-2.67084">
        <ele>6</ele>
        <time>2026-08-20T13:54:47Z</time>
      </trkpt>
      <trkpt lat="47.60058" lon="-2.67081">
        <ele>6</ele>
        <time>2026-08-20T13:54:48Z</time>
      </trkpt>
      <trkpt lat="47.60054" lon="-2.67078">
        <ele>6</ele>
        <time>2026-08-20T13:54:49Z</time>
      </trkpt>
      <trkpt lat="47.6005" lon="-2.67075">
        <ele>5.9</ele>
        <time>2026-08-20T13:54:50Z</time>
      </trkpt>
      <trkpt lat="47.60046" lon="-2.67072">
        <ele>5.8</ele>
        <time>2026-08-20T13:54:51Z</time>
      </trkpt>
      <trkpt lat="47.60041" lon="-2.67069">
        <ele>5.7</ele>
        <time>2026-08-20T13:54:52Z</time>
      </trkpt>
      <trkpt lat="47.60037" lon="-2.67067">
        <ele>5.7</ele>
        <time>2026-08-20T13:54:53Z</time>
      </trkpt>
      <trkpt lat="47.60033" lon="-2.67064">
        <ele>5.8</ele>
        <time>2026-08-20T13:54:54Z</time>
      </trkpt>
      <trkpt lat="47.6003" lon="-2.67061">
        <ele>5.8</ele>
        <time>2026-08-20T13:54:55Z</time>
      </trkpt>
      <trkpt lat="47.60026" lon="-2.67058">
        <ele>5.9</ele>
        <time>2026-08-20T13:54:56Z</time>
      </trkpt>
      <trkpt lat="47.60022" lon="-2.67055">
        <ele>6</ele>
        <time>2026-08-20T13:54:57Z</time>
      </trkpt>
      <trkpt lat="47.60018" lon="-2.67052">
        <ele>6</ele>
        <time>2026-08-20T13:54:58Z</time>
      </trkpt>
      <trkpt lat="47.60014" lon="-2.6705">
        <ele>6</ele>
        <time>2026-08-20T13:54:59Z</time>
      </trkpt>
      <trkpt lat="47.60011" lon="-2.67047">
        <ele>6</ele>
        <time>2026-08-20T13:55:00Z</time>
      </trkpt>
      <trkpt lat="47.60007" lon="-2.67044">
        <ele>6</ele>
        <time>2026-08-20T13:55:01Z</time>
      </trkpt>
      <trkpt lat="47.60003" lon="-2.67041">
        <ele>6</ele>
        <time>2026-08-20T13:55:02Z</time>
      </trkpt>
      <trkpt lat="47.59999" lon="-2.67039">
        <ele>6</ele>
        <time>2026-08-20T13:55:03Z</time>
      </trkpt>
      <trkpt lat="47.59994" lon="-2.67036">
        <ele>5.9</ele>
        <time>2026-08-20T13:55:04Z</time>
      </trkpt>
      <trkpt lat="47.5999" lon="-2.67033">
        <ele>5.9</ele>
        <time>2026-08-20T13:55:05Z</time>
      </trkpt>
      <trkpt lat="47.59986" lon="-2.6703">
        <ele>6</ele>
        <time>2026-08-20T13:55:06Z</time>
      </trkpt>
      <trkpt lat="47.59982" lon="-2.67027">
        <ele>6</ele>
        <time>2026-08-20T13:55:07Z</time>
      </trkpt>
      <trkpt lat="47.59979" lon="-2.67025">
        <ele>6</ele>
        <time>2026-08-20T13:55:08Z</time>
      </trkpt>
      <trkpt lat="47.59975" lon="-2.67022">
        <ele>6</ele>
        <time>2026-08-20T13:55:09Z</time>
      </trkpt>
      <trkpt lat="47.5997" lon="-2.6702">
        <ele>6</ele>
        <time>2026-08-20T13:55:10Z</time>
      </trkpt>
      <trkpt lat="47.59966" lon="-2.67017">
        <ele>6</ele>
        <time>2026-08-20T13:55:11Z</time>
      </trkpt>
      <trkpt lat="47.59962" lon="-2.67013">
        <ele>6</ele>
        <time>2026-08-20T13:55:12Z</time>
      </trkpt>
      <trkpt lat="47.59958" lon="-2.67011">
        <ele>6</ele>
        <time>2026-08-20T13:55:13Z</time>
      </trkpt>
      <trkpt lat="47.59953" lon="-2.67008">
        <ele>6</ele>
        <time>2026-08-20T13:55:14Z</time>
      </trkpt>
      <trkpt lat="47.59949" lon="-2.67007">
        <ele>6</ele>
        <time>2026-08-20T13:55:15Z</time>
      </trkpt>
      <trkpt lat="47.59945" lon="-2.67004">
        <ele>6</ele>
        <time>2026-08-20T13:55:16Z</time>
      </trkpt>
      <trkpt lat="47.5994" lon="-2.67">
        <ele>6</ele>
        <time>2026-08-20T13:55:17Z</time>
      </trkpt>
      <trkpt lat="47.59936" lon="-2.66998">
        <ele>6</ele>
        <time>2026-08-20T13:55:18Z</time>
      </trkpt>
      <trkpt lat="47.59931" lon="-2.66995">
        <ele>6</ele>
        <time>2026-08-20T13:55:19Z</time>
      </trkpt>
      <trkpt lat="47.59927" lon="-2.66993">
        <ele>6</ele>
        <time>2026-08-20T13:55:20Z</time>
      </trkpt>
      <trkpt lat="47.59922" lon="-2.66991">
        <ele>6</ele>
        <time>2026-08-20T13:55:21Z</time>
      </trkpt>
      <trkpt lat="47.59918" lon="-2.66989">
        <ele>6</ele>
        <time>2026-08-20T13:55:22Z</time>
      </trkpt>
      <trkpt lat="47.59914" lon="-2.66988">
        <ele>6</ele>
        <time>2026-08-20T13:55:23Z</time>
      </trkpt>
      <trkpt lat="47.5991" lon="-2.66986">
        <ele>5.9</ele>
        <time>2026-08-20T13:55:24Z</time>
      </trkpt>
      <trkpt lat="47.59906" lon="-2.66985">
        <ele>5.8</ele>
        <time>2026-08-20T13:55:25Z</time>
      </trkpt>
      <trkpt lat="47.59901" lon="-2.66983">
        <ele>5.7</ele>
        <time>2026-08-20T13:55:26Z</time>
      </trkpt>
      <trkpt lat="47.59897" lon="-2.6698">
        <ele>5.5</ele>
        <time>2026-08-20T13:55:27Z</time>
      </trkpt>
      <trkpt lat="47.59892" lon="-2.66977">
        <ele>5.3</ele>
        <time>2026-08-20T13:55:28Z</time>
      </trkpt>
      <trkpt lat="47.59885" lon="-2.66973">
        <ele>5</ele>
        <time>2026-08-20T13:55:29Z</time>
      </trkpt>
      <trkpt lat="47.5988" lon="-2.66971">
        <ele>5</ele>
        <time>2026-08-20T13:55:30Z</time>
      </trkpt>
      <trkpt lat="47.59875" lon="-2.66969">
        <ele>5.1</ele>
        <time>2026-08-20T13:55:31Z</time>
      </trkpt>
      <trkpt lat="47.5987" lon="-2.66969">
        <ele>5</ele>
        <time>2026-08-20T13:55:32Z</time>
      </trkpt>
      <trkpt lat="47.59866" lon="-2.66969">
        <ele>5</ele>
        <time>2026-08-20T13:55:33Z</time>
      </trkpt>
      <trkpt lat="47.59862" lon="-2.66972">
        <ele>5</ele>
        <time>2026-08-20T13:55:34Z</time>
      </trkpt>
      <trkpt lat="47.59859" lon="-2.66975">
        <ele>5</ele>
        <time>2026-08-20T13:55:35Z</time>
      </trkpt>
      <trkpt lat="47.59856" lon="-2.66981">
        <ele>4.9</ele>
        <time>2026-08-20T13:55:36Z</time>
      </trkpt>
      <trkpt lat="47.59853" lon="-2.66988">
        <ele>4.8</ele>
        <time>2026-08-20T13:55:37Z</time>
      </trkpt>
      <trkpt lat="47.59852" lon="-2.66995">
        <ele>4.7</ele>
        <time>2026-08-20T13:55:38Z</time>
      </trkpt>
      <trkpt lat="47.59849" lon="-2.67001">
        <ele>4.5</ele>
        <time>2026-08-20T13:55:39Z</time>
      </trkpt>
      <trkpt lat="47.59847" lon="-2.67008">
        <ele>4.4</ele>
        <time>2026-08-20T13:55:40Z</time>
      </trkpt>
      <trkpt lat="47.59845" lon="-2.67015">
        <ele>4.2</ele>
        <time>2026-08-20T13:55:41Z</time>
      </trkpt>
      <trkpt lat="47.59843" lon="-2.6702">
        <ele>4.1</ele>
        <time>2026-08-20T13:55:42Z</time>
      </trkpt>
      <trkpt lat="47.5984" lon="-2.67026">
        <ele>4</ele>
        <time>2026-08-20T13:55:43Z</time>
      </trkpt>
      <trkpt lat="47.59837" lon="-2.67032">
        <ele>4</ele>
        <time>2026-08-20T13:55:44Z</time>
      </trkpt>
      <trkpt lat="47.59835" lon="-2.67038">
        <ele>4</ele>
        <time>2026-08-20T13:55:45Z</time>
      </trkpt>
      <trkpt lat="47.59833" lon="-2.67044">
        <ele>4</ele>
        <time>2026-08-20T13:55:46Z</time>
      </trkpt>
      <trkpt lat="47.59831" lon="-2.67051">
        <ele>4</ele>
        <time>2026-08-20T13:55:47Z</time>
      </trkpt>
      <trkpt lat="47.5983" lon="-2.67057">
        <ele>4</ele>
        <time>2026-08-20T13:55:48Z</time>
      </trkpt>
      <trkpt lat="47.59828" lon="-2.67063">
        <ele>4</ele>
        <time>2026-08-20T13:55:49Z</time>
      </trkpt>
      <trkpt lat="47.59826" lon="-2.67071">
        <ele>4</ele>
        <time>2026-08-20T13:55:50Z</time>
      </trkpt>
      <trkpt lat="47.59825" lon="-2.67077">
        <ele>4</ele>
        <time>2026-08-20T13:55:51Z</time>
      </trkpt>
      <trkpt lat="47.59823" lon="-2.67084">
        <ele>4</ele>
        <time>2026-08-20T13:55:52Z</time>
      </trkpt>
      <trkpt lat="47.59821" lon="-2.6709">
        <ele>4</ele>
        <time>2026-08-20T13:55:53Z</time>
      </trkpt>
      <trkpt lat="47.5982" lon="-2.67097">
        <ele>4</ele>
        <time>2026-08-20T13:55:54Z</time>
      </trkpt>
      <trkpt lat="47.59819" lon="-2.67103">
        <ele>4</ele>
        <time>2026-08-20T13:55:55Z</time>
      </trkpt>
      <trkpt lat="47.59818" lon="-2.67107">
        <ele>4</ele>
        <time>2026-08-20T13:55:56Z</time>
      </trkpt>
      <trkpt lat="47.59817" lon="-2.67112">
        <ele>4</ele>
        <time>2026-08-20T13:55:57Z</time>
      </trkpt>
      <trkpt lat="47.59816" lon="-2.67116">
        <ele>4</ele>
        <time>2026-08-20T13:55:58Z</time>
      </trkpt>
      <trkpt lat="47.59816" lon="-2.67118">
        <ele>4</ele>
        <time>2026-08-20T13:55:59Z</time>
      </trkpt>
      <trkpt lat="47.59816" lon="-2.67118">
        <ele>4</ele>
        <time>2026-08-20T13:56:00Z</time>
      </trkpt>
      <trkpt lat="47.59816" lon="-2.67118">
        <ele>4</ele>
        <time>2026-08-20T13:56:01Z</time>
      </trkpt>
      <trkpt lat="47.5981" lon="-2.67131">
        <ele>4</ele>
        <time>2026-08-20T13:57:10Z</time>
      </trkpt>
      <trkpt lat="47.59809" lon="-2.67133">
        <ele>4</ele>
        <time>2026-08-20T13:57:11Z</time>
      </trkpt>
      <trkpt lat="47.59808" lon="-2.67136">
        <ele>4</ele>
        <time>2026-08-20T13:57:12Z</time>
      </trkpt>
      <trkpt lat="47.59806" lon="-2.67139">
        <ele>4</ele>
        <time>2026-08-20T13:57:13Z</time>
      </trkpt>
      <trkpt lat="47.59804" lon="-2.67143">
        <ele>4.1</ele>
        <time>2026-08-20T13:57:14Z</time>
      </trkpt>
      <trkpt lat="47.59802" lon="-2.67147">
        <ele>4.1</ele>
        <time>2026-08-20T13:57:15Z</time>
      </trkpt>
      <trkpt lat="47.598" lon="-2.67151">
        <ele>4.2</ele>
        <time>2026-08-20T13:57:16Z</time>
      </trkpt>
      <trkpt lat="47.59798" lon="-2.67155">
        <ele>4.3</ele>
        <time>2026-08-20T13:57:17Z</time>
      </trkpt>
      <trkpt lat="47.59795" lon="-2.67159">
        <ele>4.4</ele>
        <time>2026-08-20T13:57:18Z</time>
      </trkpt>
      <trkpt lat="47.59793" lon="-2.67164">
        <ele>4.5</ele>
        <time>2026-08-20T13:57:19Z</time>
      </trkpt>
      <trkpt lat="47.5979" lon="-2.67168">
        <ele>4.6</ele>
        <time>2026-08-20T13:57:20Z</time>
      </trkpt>
      <trkpt lat="47.59788" lon="-2.67172">
        <ele>4.7</ele>
        <time>2026-08-20T13:57:21Z</time>
      </trkpt>
      <trkpt lat="47.59785" lon="-2.67176">
        <ele>4.8</ele>
        <time>2026-08-20T13:57:22Z</time>
      </trkpt>
      <trkpt lat="47.59783" lon="-2.6718">
        <ele>4.9</ele>
        <time>2026-08-20T13:57:23Z</time>
      </trkpt>
      <trkpt lat="47.5978" lon="-2.67185">
        <ele>5</ele>
        <time>2026-08-20T13:57:24Z</time>
      </trkpt>
      <trkpt lat="47.59778" lon="-2.67189">
        <ele>5</ele>
        <time>2026-08-20T13:57:25Z</time>
      </trkpt>
      <trkpt lat="47.59775" lon="-2.67194">
        <ele>5</ele>
        <time>2026-08-20T13:57:26Z</time>
      </trkpt>
      <trkpt lat="47.59773" lon="-2.67198">
        <ele>5</ele>
        <time>2026-08-20T13:57:27Z</time>
      </trkpt>
      <trkpt lat="47.5977" lon="-2.67202">
        <ele>5.1</ele>
        <time>2026-08-20T13:57:28Z</time>
      </trkpt>
      <trkpt lat="47.59767" lon="-2.67207">
        <ele>5.2</ele>
        <time>2026-08-20T13:57:29Z</time>
      </trkpt>
      <trkpt lat="47.59764" lon="-2.67211">
        <ele>5.3</ele>
        <time>2026-08-20T13:57:30Z</time>
      </trkpt>
      <trkpt lat="47.59762" lon="-2.67215">
        <ele>5.4</ele>
        <time>2026-08-20T13:57:31Z</time>
      </trkpt>
      <trkpt lat="47.59759" lon="-2.6722">
        <ele>5.6</ele>
        <time>2026-08-20T13:57:32Z</time>
      </trkpt>
      <trkpt lat="47.59756" lon="-2.67223">
        <ele>5.8</ele>
        <time>2026-08-20T13:57:33Z</time>
      </trkpt>
      <trkpt lat="47.59754" lon="-2.67227">
        <ele>5.9</ele>
        <time>2026-08-20T13:57:34Z</time>
      </trkpt>
      <trkpt lat="47.59752" lon="-2.6723">
        <ele>5.9</ele>
        <time>2026-08-20T13:57:35Z</time>
      </trkpt>
      <trkpt lat="47.59749" lon="-2.67234">
        <ele>6</ele>
        <time>2026-08-20T13:57:36Z</time>
      </trkpt>
      <trkpt lat="47.59747" lon="-2.67238">
        <ele>6</ele>
        <time>2026-08-20T13:57:37Z</time>
      </trkpt>
      <trkpt lat="47.59745" lon="-2.67242">
        <ele>6</ele>
        <time>2026-08-20T13:57:38Z</time>
      </trkpt>
      <trkpt lat="47.59742" lon="-2.67246">
        <ele>6</ele>
        <time>2026-08-20T13:57:39Z</time>
      </trkpt>
      <trkpt lat="47.59739" lon="-2.6725">
        <ele>6</ele>
        <time>2026-08-20T13:57:40Z</time>
      </trkpt>
      <trkpt lat="47.59737" lon="-2.67253">
        <ele>6</ele>
        <time>2026-08-20T13:57:41Z</time>
      </trkpt>
      <trkpt lat="47.59734" lon="-2.67257">
        <ele>6</ele>
        <time>2026-08-20T13:57:42Z</time>
      </trkpt>
      <trkpt lat="47.59731" lon="-2.67261">
        <ele>6</ele>
        <time>2026-08-20T13:57:43Z</time>
      </trkpt>
      <trkpt lat="47.59728" lon="-2.67265">
        <ele>6</ele>
        <time>2026-08-20T13:57:44Z</time>
      </trkpt>
      <trkpt lat="47.59725" lon="-2.67269">
        <ele>6</ele>
        <time>2026-08-20T13:57:45Z</time>
      </trkpt>
      <trkpt lat="47.59722" lon="-2.67273">
        <ele>6</ele>
        <time>2026-08-20T13:57:46Z</time>
      </trkpt>
      <trkpt lat="47.59719" lon="-2.67277">
        <ele>6</ele>
        <time>2026-08-20T13:57:47Z</time>
      </trkpt>
      <trkpt lat="47.59716" lon="-2.67281">
        <ele>6.1</ele>
        <time>2026-08-20T13:57:48Z</time>
      </trkpt>
      <trkpt lat="47.59713" lon="-2.67285">
        <ele>6.3</ele>
        <time>2026-08-20T13:57:49Z</time>
      </trkpt>
      <trkpt lat="47.5971" lon="-2.67288">
        <ele>6.4</ele>
        <time>2026-08-20T13:57:50Z</time>
      </trkpt>
      <trkpt lat="47.59707" lon="-2.67293">
        <ele>6.5</ele>
        <time>2026-08-20T13:57:51Z</time>
      </trkpt>
      <trkpt lat="47.59705" lon="-2.67297">
        <ele>6.7</ele>
        <time>2026-08-20T13:57:52Z</time>
      </trkpt>
      <trkpt lat="47.59702" lon="-2.67301">
        <ele>6.8</ele>
        <time>2026-08-20T13:57:53Z</time>
      </trkpt>
      <trkpt lat="47.59699" lon="-2.67305">
        <ele>7</ele>
        <time>2026-08-20T13:57:54Z</time>
      </trkpt>
      <trkpt lat="47.59696" lon="-2.67309">
        <ele>7</ele>
        <time>2026-08-20T13:57:55Z</time>
      </trkpt>
      <trkpt lat="47.59694" lon="-2.67312">
        <ele>7</ele>
        <time>2026-08-20T13:57:56Z</time>
      </trkpt>
      <trkpt lat="47.59692" lon="-2.67314">
        <ele>7</ele>
        <time>2026-08-20T13:57:57Z</time>
      </trkpt>
      <trkpt lat="47.59692" lon="-2.67314">
        <ele>7</ele>
        <time>2026-08-20T13:57:58Z</time>
      </trkpt>
      <trkpt lat="47.59692" lon="-2.67314">
        <ele>7</ele>
        <time>2026-08-20T13:57:59Z</time>
      </trkpt>
      <trkpt lat="47.59684" lon="-2.6732">
        <ele>7</ele>
        <time>2026-08-20T13:58:19Z</time>
      </trkpt>
      <trkpt lat="47.59683" lon="-2.67322">
        <ele>7</ele>
        <time>2026-08-20T13:58:20Z</time>
      </trkpt>
      <trkpt lat="47.59682" lon="-2.67325">
        <ele>7</ele>
        <time>2026-08-20T13:58:21Z</time>
      </trkpt>
      <trkpt lat="47.5968" lon="-2.67328">
        <ele>7</ele>
        <time>2026-08-20T13:58:22Z</time>
      </trkpt>
      <trkpt lat="47.59678" lon="-2.67331">
        <ele>7</ele>
        <time>2026-08-20T13:58:23Z</time>
      </trkpt>
      <trkpt lat="47.59676" lon="-2.67334">
        <ele>7</ele>
        <time>2026-08-20T13:58:24Z</time>
      </trkpt>
      <trkpt lat="47.59673" lon="-2.67337">
        <ele>7.1</ele>
        <time>2026-08-20T13:58:25Z</time>
      </trkpt>
      <trkpt lat="47.59671" lon="-2.6734">
        <ele>7.2</ele>
        <time>2026-08-20T13:58:26Z</time>
      </trkpt>
      <trkpt lat="47.59668" lon="-2.67344">
        <ele>7.4</ele>
        <time>2026-08-20T13:58:27Z</time>
      </trkpt>
      <trkpt lat="47.59666" lon="-2.67348">
        <ele>7.5</ele>
        <time>2026-08-20T13:58:28Z</time>
      </trkpt>
      <trkpt lat="47.59663" lon="-2.67351">
        <ele>7.6</ele>
        <time>2026-08-20T13:58:29Z</time>
      </trkpt>
      <trkpt lat="47.5966" lon="-2.67355">
        <ele>7.8</ele>
        <time>2026-08-20T13:58:30Z</time>
      </trkpt>
      <trkpt lat="47.59658" lon="-2.67359">
        <ele>7.9</ele>
        <time>2026-08-20T13:58:31Z</time>
      </trkpt>
      <trkpt lat="47.59655" lon="-2.67363">
        <ele>8</ele>
        <time>2026-08-20T13:58:32Z</time>
      </trkpt>
      <trkpt lat="47.59652" lon="-2.67367">
        <ele>8.1</ele>
        <time>2026-08-20T13:58:33Z</time>
      </trkpt>
      <trkpt lat="47.5965" lon="-2.67371">
        <ele>8.1</ele>
        <time>2026-08-20T13:58:34Z</time>
      </trkpt>
      <trkpt lat="47.59647" lon="-2.67375">
        <ele>8.1</ele>
        <time>2026-08-20T13:58:35Z</time>
      </trkpt>
      <trkpt lat="47.59644" lon="-2.6738">
        <ele>8.1</ele>
        <time>2026-08-20T13:58:36Z</time>
      </trkpt>
      <trkpt lat="47.59642" lon="-2.67384">
        <ele>8.1</ele>
        <time>2026-08-20T13:58:37Z</time>
      </trkpt>
      <trkpt lat="47.5964" lon="-2.67389">
        <ele>8</ele>
        <time>2026-08-20T13:58:38Z</time>
      </trkpt>
      <trkpt lat="47.59637" lon="-2.67393">
        <ele>8.1</ele>
        <time>2026-08-20T13:58:39Z</time>
      </trkpt>
      <trkpt lat="47.59635" lon="-2.67397">
        <ele>8.3</ele>
        <time>2026-08-20T13:58:40Z</time>
      </trkpt>
      <trkpt lat="47.59633" lon="-2.67402">
        <ele>8.5</ele>
        <time>2026-08-20T13:58:41Z</time>
      </trkpt>
      <trkpt lat="47.5963" lon="-2.67406">
        <ele>8.6</ele>
        <time>2026-08-20T13:58:42Z</time>
      </trkpt>
      <trkpt lat="47.59628" lon="-2.6741">
        <ele>8.8</ele>
        <time>2026-08-20T13:58:43Z</time>
      </trkpt>
      <trkpt lat="47.59626" lon="-2.67414">
        <ele>8.9</ele>
        <time>2026-08-20T13:58:44Z</time>
      </trkpt>
      <trkpt lat="47.59624" lon="-2.67418">
        <ele>9</ele>
        <time>2026-08-20T13:58:45Z</time>
      </trkpt>
      <trkpt lat="47.59622" lon="-2.67422">
        <ele>9.1</ele>
        <time>2026-08-20T13:58:46Z</time>
      </trkpt>
      <trkpt lat="47.5962" lon="-2.67426">
        <ele>9.1</ele>
        <time>2026-08-20T13:58:47Z</time>
      </trkpt>
      <trkpt lat="47.59617" lon="-2.67429">
        <ele>9.1</ele>
        <time>2026-08-20T13:58:48Z</time>
      </trkpt>
      <trkpt lat="47.59615" lon="-2.67433">
        <ele>9.1</ele>
        <time>2026-08-20T13:58:49Z</time>
      </trkpt>
      <trkpt lat="47.59613" lon="-2.67437">
        <ele>9</ele>
        <time>2026-08-20T13:58:50Z</time>
      </trkpt>
      <trkpt lat="47.59611" lon="-2.67441">
        <ele>9</ele>
        <time>2026-08-20T13:58:51Z</time>
      </trkpt>
      <trkpt lat="47.59609" lon="-2.67445">
        <ele>8.9</ele>
        <time>2026-08-20T13:58:52Z</time>
      </trkpt>
      <trkpt lat="47.59607" lon="-2.67449">
        <ele>8.9</ele>
        <time>2026-08-20T13:58:53Z</time>
      </trkpt>
      <trkpt lat="47.59604" lon="-2.67453">
        <ele>8.7</ele>
        <time>2026-08-20T13:58:54Z</time>
      </trkpt>
      <trkpt lat="47.59601" lon="-2.67458">
        <ele>8.6</ele>
        <time>2026-08-20T13:58:55Z</time>
      </trkpt>
      <trkpt lat="47.59599" lon="-2.67463">
        <ele>8.6</ele>
        <time>2026-08-20T13:58:56Z</time>
      </trkpt>
      <trkpt lat="47.59597" lon="-2.67467">
        <ele>8.5</ele>
        <time>2026-08-20T13:58:57Z</time>
      </trkpt>
      <trkpt lat="47.59594" lon="-2.67471">
        <ele>8.4</ele>
        <time>2026-08-20T13:58:58Z</time>
      </trkpt>
      <trkpt lat="47.59592" lon="-2.67476">
        <ele>8.4</ele>
        <time>2026-08-20T13:58:59Z</time>
      </trkpt>
      <trkpt lat="47.59589" lon="-2.6748">
        <ele>8.4</ele>
        <time>2026-08-20T13:59:00Z</time>
      </trkpt>
      <trkpt lat="47.59587" lon="-2.67484">
        <ele>8.5</ele>
        <time>2026-08-20T13:59:01Z</time>
      </trkpt>
      <trkpt lat="47.59585" lon="-2.67489">
        <ele>8.6</ele>
        <time>2026-08-20T13:59:02Z</time>
      </trkpt>
      <trkpt lat="47.59583" lon="-2.67493">
        <ele>8.7</ele>
        <time>2026-08-20T13:59:03Z</time>
      </trkpt>
      <trkpt lat="47.5958" lon="-2.67497">
        <ele>8.8</ele>
        <time>2026-08-20T13:59:04Z</time>
      </trkpt>
      <trkpt lat="47.59578" lon="-2.67502">
        <ele>8.8</ele>
        <time>2026-08-20T13:59:05Z</time>
      </trkpt>
      <trkpt lat="47.59575" lon="-2.67506">
        <ele>8.7</ele>
        <time>2026-08-20T13:59:06Z</time>
      </trkpt>
      <trkpt lat="47.59573" lon="-2.6751">
        <ele>8.6</ele>
        <time>2026-08-20T13:59:07Z</time>
      </trkpt>
      <trkpt lat="47.59571" lon="-2.67514">
        <ele>8.6</ele>
        <time>2026-08-20T13:59:08Z</time>
      </trkpt>
      <trkpt lat="47.59568" lon="-2.67519">
        <ele>8.4</ele>
        <time>2026-08-20T13:59:09Z</time>
      </trkpt>
      <trkpt lat="47.59566" lon="-2.67523">
        <ele>8.4</ele>
        <time>2026-08-20T13:59:10Z</time>
      </trkpt>
      <trkpt lat="47.59564" lon="-2.67528">
        <ele>8.3</ele>
        <time>2026-08-20T13:59:11Z</time>
      </trkpt>
      <trkpt lat="47.59561" lon="-2.67532">
        <ele>8.2</ele>
        <time>2026-08-20T13:59:12Z</time>
      </trkpt>
      <trkpt lat="47.59559" lon="-2.67536">
        <ele>8.1</ele>
        <time>2026-08-20T13:59:13Z</time>
      </trkpt>
      <trkpt lat="47.59556" lon="-2.67541">
        <ele>8</ele>
        <time>2026-08-20T13:59:14Z</time>
      </trkpt>
      <trkpt lat="47.59554" lon="-2.67545">
        <ele>8</ele>
        <time>2026-08-20T13:59:15Z</time>
      </trkpt>
      <trkpt lat="47.59551" lon="-2.6755">
        <ele>7.9</ele>
        <time>2026-08-20T13:59:16Z</time>
      </trkpt>
      <trkpt lat="47.59548" lon="-2.67554">
        <ele>7.7</ele>
        <time>2026-08-20T13:59:17Z</time>
      </trkpt>
      <trkpt lat="47.59546" lon="-2.67559">
        <ele>7.7</ele>
        <time>2026-08-20T13:59:18Z</time>
      </trkpt>
      <trkpt lat="47.59543" lon="-2.67563">
        <ele>7.7</ele>
        <time>2026-08-20T13:59:19Z</time>
      </trkpt>
      <trkpt lat="47.5954" lon="-2.67568">
        <ele>7.7</ele>
        <time>2026-08-20T13:59:20Z</time>
      </trkpt>
      <trkpt lat="47.59537" lon="-2.67572">
        <ele>7.7</ele>
        <time>2026-08-20T13:59:21Z</time>
      </trkpt>
      <trkpt lat="47.59534" lon="-2.67575">
        <ele>7.8</ele>
        <time>2026-08-20T13:59:22Z</time>
      </trkpt>
      <trkpt lat="47.59531" lon="-2.67578">
        <ele>7.8</ele>
        <time>2026-08-20T13:59:23Z</time>
      </trkpt>
      <trkpt lat="47.59528" lon="-2.67581">
        <ele>7.9</ele>
        <time>2026-08-20T13:59:24Z</time>
      </trkpt>
      <trkpt lat="47.59524" lon="-2.67585">
        <ele>7.8</ele>
        <time>2026-08-20T13:59:25Z</time>
      </trkpt>
      <trkpt lat="47.5952" lon="-2.67588">
        <ele>7.6</ele>
        <time>2026-08-20T13:59:26Z</time>
      </trkpt>
      <trkpt lat="47.59517" lon="-2.67592">
        <ele>7.4</ele>
        <time>2026-08-20T13:59:27Z</time>
      </trkpt>
      <trkpt lat="47.59513" lon="-2.67595">
        <ele>7.3</ele>
        <time>2026-08-20T13:59:28Z</time>
      </trkpt>
      <trkpt lat="47.5951" lon="-2.67599">
        <ele>7.2</ele>
        <time>2026-08-20T13:59:29Z</time>
      </trkpt>
      <trkpt lat="47.59507" lon="-2.67603">
        <ele>7.1</ele>
        <time>2026-08-20T13:59:30Z</time>
      </trkpt>
      <trkpt lat="47.59504" lon="-2.67607">
        <ele>7</ele>
        <time>2026-08-20T13:59:31Z</time>
      </trkpt>
      <trkpt lat="47.59501" lon="-2.67611">
        <ele>7</ele>
        <time>2026-08-20T13:59:32Z</time>
      </trkpt>
      <trkpt lat="47.59497" lon="-2.67615">
        <ele>7</ele>
        <time>2026-08-20T13:59:33Z</time>
      </trkpt>
      <trkpt lat="47.59494" lon="-2.67619">
        <ele>7</ele>
        <time>2026-08-20T13:59:34Z</time>
      </trkpt>
      <trkpt lat="47.59492" lon="-2.67622">
        <ele>7</ele>
        <time>2026-08-20T13:59:35Z</time>
      </trkpt>
      <trkpt lat="47.59488" lon="-2.67626">
        <ele>7</ele>
        <time>2026-08-20T13:59:36Z</time>
      </trkpt>
      <trkpt lat="47.59485" lon="-2.6763">
        <ele>7</ele>
        <time>2026-08-20T13:59:37Z</time>
      </trkpt>
      <trkpt lat="47.59482" lon="-2.67635">
        <ele>7</ele>
        <time>2026-08-20T13:59:38Z</time>
      </trkpt>
      <trkpt lat="47.5948" lon="-2.67639">
        <ele>7</ele>
        <time>2026-08-20T13:59:39Z</time>
      </trkpt>
      <trkpt lat="47.59477" lon="-2.67643">
        <ele>7</ele>
        <time>2026-08-20T13:59:40Z</time>
      </trkpt>
      <trkpt lat="47.59474" lon="-2.67647">
        <ele>7</ele>
        <time>2026-08-20T13:59:41Z</time>
      </trkpt>
      <trkpt lat="47.59471" lon="-2.67651">
        <ele>7</ele>
        <time>2026-08-20T13:59:42Z</time>
      </trkpt>
      <trkpt lat="47.59469" lon="-2.67654">
        <ele>7</ele>
        <time>2026-08-20T13:59:43Z</time>
      </trkpt>
      <trkpt lat="47.59466" lon="-2.67658">
        <ele>7</ele>
        <time>2026-08-20T13:59:44Z</time>
      </trkpt>
      <trkpt lat="47.59463" lon="-2.67662">
        <ele>7</ele>
        <time>2026-08-20T13:59:45Z</time>
      </trkpt>
      <trkpt lat="47.5946" lon="-2.67667">
        <ele>7</ele>
        <time>2026-08-20T13:59:46Z</time>
      </trkpt>
      <trkpt lat="47.59458" lon="-2.6767">
        <ele>7</ele>
        <time>2026-08-20T13:59:47Z</time>
      </trkpt>
      <trkpt lat="47.59455" lon="-2.67674">
        <ele>7</ele>
        <time>2026-08-20T13:59:48Z</time>
      </trkpt>
      <trkpt lat="47.59452" lon="-2.67678">
        <ele>7</ele>
        <time>2026-08-20T13:59:49Z</time>
      </trkpt>
      <trkpt lat="47.59449" lon="-2.67683">
        <ele>7</ele>
        <time>2026-08-20T13:59:50Z</time>
      </trkpt>
      <trkpt lat="47.59446" lon="-2.67687">
        <ele>7</ele>
        <time>2026-08-20T13:59:51Z</time>
      </trkpt>
      <trkpt lat="47.59443" lon="-2.67691">
        <ele>7</ele>
        <time>2026-08-20T13:59:52Z</time>
      </trkpt>
      <trkpt lat="47.5944" lon="-2.67696">
        <ele>7</ele>
        <time>2026-08-20T13:59:53Z</time>
      </trkpt>
      <trkpt lat="47.59437" lon="-2.677">
        <ele>7</ele>
        <time>2026-08-20T13:59:54Z</time>
      </trkpt>
      <trkpt lat="47.59435" lon="-2.67704">
        <ele>7</ele>
        <time>2026-08-20T13:59:55Z</time>
      </trkpt>
      <trkpt lat="47.59432" lon="-2.67708">
        <ele>7</ele>
        <time>2026-08-20T13:59:56Z</time>
      </trkpt>
      <trkpt lat="47.5943" lon="-2.67711">
        <ele>7</ele>
        <time>2026-08-20T13:59:57Z</time>
      </trkpt>
      <trkpt lat="47.59426" lon="-2.67716">
        <ele>7</ele>
        <time>2026-08-20T13:59:58Z</time>
      </trkpt>
      <trkpt lat="47.59424" lon="-2.6772">
        <ele>7</ele>
        <time>2026-08-20T13:59:59Z</time>
      </trkpt>
      <trkpt lat="47.59421" lon="-2.67724">
        <ele>7</ele>
        <time>2026-08-20T14:00:00Z</time>
      </trkpt>
      <trkpt lat="47.59418" lon="-2.67729">
        <ele>7</ele>
        <time>2026-08-20T14:00:01Z</time>
      </trkpt>
      <trkpt lat="47.59415" lon="-2.67733">
        <ele>7.1</ele>
        <time>2026-08-20T14:00:02Z</time>
      </trkpt>
      <trkpt lat="47.59412" lon="-2.67738">
        <ele>7.2</ele>
        <time>2026-08-20T14:00:03Z</time>
      </trkpt>
      <trkpt lat="47.59409" lon="-2.67742">
        <ele>7.3</ele>
        <time>2026-08-20T14:00:04Z</time>
      </trkpt>
      <trkpt lat="47.59406" lon="-2.67746">
        <ele>7.4</ele>
        <time>2026-08-20T14:00:05Z</time>
      </trkpt>
      <trkpt lat="47.59403" lon="-2.6775">
        <ele>7.5</ele>
        <time>2026-08-20T14:00:06Z</time>
      </trkpt>
      <trkpt lat="47.594" lon="-2.67754">
        <ele>7.6</ele>
        <time>2026-08-20T14:00:07Z</time>
      </trkpt>
      <trkpt lat="47.59397" lon="-2.67759">
        <ele>7.7</ele>
        <time>2026-08-20T14:00:08Z</time>
      </trkpt>
      <trkpt lat="47.59394" lon="-2.67763">
        <ele>7.8</ele>
        <time>2026-08-20T14:00:09Z</time>
      </trkpt>
      <trkpt lat="47.59392" lon="-2.67767">
        <ele>7.9</ele>
        <time>2026-08-20T14:00:10Z</time>
      </trkpt>
      <trkpt lat="47.59389" lon="-2.67771">
        <ele>8</ele>
        <time>2026-08-20T14:00:11Z</time>
      </trkpt>
      <trkpt lat="47.59387" lon="-2.67775">
        <ele>8</ele>
        <time>2026-08-20T14:00:12Z</time>
      </trkpt>
      <trkpt lat="47.59384" lon="-2.67779">
        <ele>8</ele>
        <time>2026-08-20T14:00:13Z</time>
      </trkpt>
      <trkpt lat="47.59381" lon="-2.67784">
        <ele>8</ele>
        <time>2026-08-20T14:00:14Z</time>
      </trkpt>
      <trkpt lat="47.59378" lon="-2.67789">
        <ele>8</ele>
        <time>2026-08-20T14:00:15Z</time>
      </trkpt>
      <trkpt lat="47.59376" lon="-2.67793">
        <ele>8</ele>
        <time>2026-08-20T14:00:16Z</time>
      </trkpt>
      <trkpt lat="47.59373" lon="-2.67798">
        <ele>8</ele>
        <time>2026-08-20T14:00:17Z</time>
      </trkpt>
      <trkpt lat="47.59371" lon="-2.67801">
        <ele>8</ele>
        <time>2026-08-20T14:00:18Z</time>
      </trkpt>
      <trkpt lat="47.59369" lon="-2.67805">
        <ele>8</ele>
        <time>2026-08-20T14:00:19Z</time>
      </trkpt>
      <trkpt lat="47.59365" lon="-2.6781">
        <ele>8</ele>
        <time>2026-08-20T14:00:20Z</time>
      </trkpt>
      <trkpt lat="47.59362" lon="-2.67814">
        <ele>8</ele>
        <time>2026-08-20T14:00:21Z</time>
      </trkpt>
      <trkpt lat="47.59359" lon="-2.67818">
        <ele>8</ele>
        <time>2026-08-20T14:00:22Z</time>
      </trkpt>
      <trkpt lat="47.59356" lon="-2.67822">
        <ele>8</ele>
        <time>2026-08-20T14:00:23Z</time>
      </trkpt>
      <trkpt lat="47.59352" lon="-2.67826">
        <ele>8</ele>
        <time>2026-08-20T14:00:24Z</time>
      </trkpt>
      <trkpt lat="47.59349" lon="-2.6783">
        <ele>8</ele>
        <time>2026-08-20T14:00:25Z</time>
      </trkpt>
      <trkpt lat="47.59345" lon="-2.67834">
        <ele>8</ele>
        <time>2026-08-20T14:00:26Z</time>
      </trkpt>
      <trkpt lat="47.59342" lon="-2.67838">
        <ele>8</ele>
        <time>2026-08-20T14:00:27Z</time>
      </trkpt>
      <trkpt lat="47.59339" lon="-2.67842">
        <ele>8</ele>
        <time>2026-08-20T14:00:28Z</time>
      </trkpt>
      <trkpt lat="47.59336" lon="-2.67845">
        <ele>8</ele>
        <time>2026-08-20T14:00:29Z</time>
      </trkpt>
      <trkpt lat="47.59334" lon="-2.67849">
        <ele>8</ele>
        <time>2026-08-20T14:00:30Z</time>
      </trkpt>
      <trkpt lat="47.59331" lon="-2.67852">
        <ele>8</ele>
        <time>2026-08-20T14:00:31Z</time>
      </trkpt>
      <trkpt lat="47.59329" lon="-2.67855">
        <ele>8</ele>
        <time>2026-08-20T14:00:32Z</time>
      </trkpt>
      <trkpt lat="47.59326" lon="-2.67859">
        <ele>8</ele>
        <time>2026-08-20T14:00:33Z</time>
      </trkpt>
      <trkpt lat="47.59323" lon="-2.67862">
        <ele>8</ele>
        <time>2026-08-20T14:00:34Z</time>
      </trkpt>
      <trkpt lat="47.5932" lon="-2.67866">
        <ele>8.1</ele>
        <time>2026-08-20T14:00:35Z</time>
      </trkpt>
      <trkpt lat="47.59317" lon="-2.6787">
        <ele>8.1</ele>
        <time>2026-08-20T14:00:36Z</time>
      </trkpt>
      <trkpt lat="47.59314" lon="-2.67874">
        <ele>8.1</ele>
        <time>2026-08-20T14:00:37Z</time>
      </trkpt>
      <trkpt lat="47.59312" lon="-2.67878">
        <ele>8.1</ele>
        <time>2026-08-20T14:00:38Z</time>
      </trkpt>
      <trkpt lat="47.59309" lon="-2.67882">
        <ele>8.1</ele>
        <time>2026-08-20T14:00:39Z</time>
      </trkpt>
      <trkpt lat="47.59306" lon="-2.67885">
        <ele>8</ele>
        <time>2026-08-20T14:00:40Z</time>
      </trkpt>
      <trkpt lat="47.59303" lon="-2.6789">
        <ele>8.1</ele>
        <time>2026-08-20T14:00:41Z</time>
      </trkpt>
      <trkpt lat="47.593" lon="-2.67893">
        <ele>8.3</ele>
        <time>2026-08-20T14:00:42Z</time>
      </trkpt>
      <trkpt lat="47.59297" lon="-2.67896">
        <ele>8.5</ele>
        <time>2026-08-20T14:00:43Z</time>
      </trkpt>
      <trkpt lat="47.59294" lon="-2.679">
        <ele>8.6</ele>
        <time>2026-08-20T14:00:44Z</time>
      </trkpt>
      <trkpt lat="47.59291" lon="-2.67904">
        <ele>8.8</ele>
        <time>2026-08-20T14:00:45Z</time>
      </trkpt>
      <trkpt lat="47.59288" lon="-2.67908">
        <ele>8.9</ele>
        <time>2026-08-20T14:00:46Z</time>
      </trkpt>
      <trkpt lat="47.59284" lon="-2.67912">
        <ele>9</ele>
        <time>2026-08-20T14:00:47Z</time>
      </trkpt>
      <trkpt lat="47.59281" lon="-2.67916">
        <ele>9</ele>
        <time>2026-08-20T14:00:48Z</time>
      </trkpt>
      <trkpt lat="47.59277" lon="-2.67921">
        <ele>9</ele>
        <time>2026-08-20T14:00:49Z</time>
      </trkpt>
      <trkpt lat="47.59273" lon="-2.67925">
        <ele>9</ele>
        <time>2026-08-20T14:00:50Z</time>
      </trkpt>
      <trkpt lat="47.5927" lon="-2.6793">
        <ele>9</ele>
        <time>2026-08-20T14:00:51Z</time>
      </trkpt>
      <trkpt lat="47.59266" lon="-2.67934">
        <ele>9</ele>
        <time>2026-08-20T14:00:52Z</time>
      </trkpt>
      <trkpt lat="47.59263" lon="-2.67938">
        <ele>9</ele>
        <time>2026-08-20T14:00:53Z</time>
      </trkpt>
      <trkpt lat="47.5926" lon="-2.67942">
        <ele>9</ele>
        <time>2026-08-20T14:00:54Z</time>
      </trkpt>
      <trkpt lat="47.59257" lon="-2.67946">
        <ele>9</ele>
        <time>2026-08-20T14:00:55Z</time>
      </trkpt>
      <trkpt lat="47.59254" lon="-2.67951">
        <ele>9.2</ele>
        <time>2026-08-20T14:00:56Z</time>
      </trkpt>
      <trkpt lat="47.59251" lon="-2.67954">
        <ele>9.3</ele>
        <time>2026-08-20T14:00:57Z</time>
      </trkpt>
      <trkpt lat="47.59249" lon="-2.67958">
        <ele>9.5</ele>
        <time>2026-08-20T14:00:58Z</time>
      </trkpt>
      <trkpt lat="47.59246" lon="-2.67962">
        <ele>9.7</ele>
        <time>2026-08-20T14:00:59Z</time>
      </trkpt>
      <trkpt lat="47.59243" lon="-2.67966">
        <ele>9.8</ele>
        <time>2026-08-20T14:01:00Z</time>
      </trkpt>
      <trkpt lat="47.59239" lon="-2.6797">
        <ele>10</ele>
        <time>2026-08-20T14:01:01Z</time>
      </trkpt>
      <trkpt lat="47.59237" lon="-2.67973">
        <ele>10</ele>
        <time>2026-08-20T14:01:02Z</time>
      </trkpt>
      <trkpt lat="47.59234" lon="-2.67977">
        <ele>10</ele>
        <time>2026-08-20T14:01:03Z</time>
      </trkpt>
      <trkpt lat="47.59231" lon="-2.6798">
        <ele>10</ele>
        <time>2026-08-20T14:01:04Z</time>
      </trkpt>
      <trkpt lat="47.59228" lon="-2.67984">
        <ele>10</ele>
        <time>2026-08-20T14:01:05Z</time>
      </trkpt>
      <trkpt lat="47.59225" lon="-2.67987">
        <ele>10</ele>
        <time>2026-08-20T14:01:06Z</time>
      </trkpt>
      <trkpt lat="47.59222" lon="-2.67991">
        <ele>10</ele>
        <time>2026-08-20T14:01:07Z</time>
      </trkpt>
      <trkpt lat="47.59219" lon="-2.67994">
        <ele>10.1</ele>
        <time>2026-08-20T14:01:08Z</time>
      </trkpt>
      <trkpt lat="47.59216" lon="-2.67998">
        <ele>10.2</ele>
        <time>2026-08-20T14:01:09Z</time>
      </trkpt>
      <trkpt lat="47.59213" lon="-2.68002">
        <ele>10.3</ele>
        <time>2026-08-20T14:01:10Z</time>
      </trkpt>
      <trkpt lat="47.5921" lon="-2.68006">
        <ele>10.4</ele>
        <time>2026-08-20T14:01:11Z</time>
      </trkpt>
      <trkpt lat="47.59206" lon="-2.6801">
        <ele>10.6</ele>
        <time>2026-08-20T14:01:12Z</time>
      </trkpt>
      <trkpt lat="47.59203" lon="-2.68014">
        <ele>10.7</ele>
        <time>2026-08-20T14:01:13Z</time>
      </trkpt>
      <trkpt lat="47.592" lon="-2.68017">
        <ele>10.8</ele>
        <time>2026-08-20T14:01:14Z</time>
      </trkpt>
      <trkpt lat="47.59197" lon="-2.68021">
        <ele>10.9</ele>
        <time>2026-08-20T14:01:15Z</time>
      </trkpt>
      <trkpt lat="47.59194" lon="-2.68025">
        <ele>11</ele>
        <time>2026-08-20T14:01:16Z</time>
      </trkpt>
      <trkpt lat="47.59191" lon="-2.68028">
        <ele>11.1</ele>
        <time>2026-08-20T14:01:17Z</time>
      </trkpt>
      <trkpt lat="47.59188" lon="-2.68032">
        <ele>11.2</ele>
        <time>2026-08-20T14:01:18Z</time>
      </trkpt>
      <trkpt lat="47.59185" lon="-2.68036">
        <ele>11.2</ele>
        <time>2026-08-20T14:01:19Z</time>
      </trkpt>
      <trkpt lat="47.59182" lon="-2.68039">
        <ele>11.3</ele>
        <time>2026-08-20T14:01:20Z</time>
      </trkpt>
      <trkpt lat="47.5918" lon="-2.68042">
        <ele>11.3</ele>
        <time>2026-08-20T14:01:21Z</time>
      </trkpt>
      <trkpt lat="47.59177" lon="-2.68046">
        <ele>11.2</ele>
        <time>2026-08-20T14:01:22Z</time>
      </trkpt>
      <trkpt lat="47.59174" lon="-2.6805">
        <ele>11.1</ele>
        <time>2026-08-20T14:01:23Z</time>
      </trkpt>
      <trkpt lat="47.59172" lon="-2.68053">
        <ele>11.1</ele>
        <time>2026-08-20T14:01:24Z</time>
      </trkpt>
      <trkpt lat="47.59169" lon="-2.68057">
        <ele>11</ele>
        <time>2026-08-20T14:01:25Z</time>
      </trkpt>
      <trkpt lat="47.59167" lon="-2.6806">
        <ele>11.2</ele>
        <time>2026-08-20T14:01:26Z</time>
      </trkpt>
      <trkpt lat="47.59164" lon="-2.68063">
        <ele>11.4</ele>
        <time>2026-08-20T14:01:27Z</time>
      </trkpt>
      <trkpt lat="47.59162" lon="-2.68067">
        <ele>11.6</ele>
        <time>2026-08-20T14:01:28Z</time>
      </trkpt>
      <trkpt lat="47.5916" lon="-2.68072">
        <ele>11.8</ele>
        <time>2026-08-20T14:01:29Z</time>
      </trkpt>
      <trkpt lat="47.5916" lon="-2.68077">
        <ele>11.9</ele>
        <time>2026-08-20T14:01:30Z</time>
      </trkpt>
      <trkpt lat="47.5916" lon="-2.68082">
        <ele>12</ele>
        <time>2026-08-20T14:01:31Z</time>
      </trkpt>
      <trkpt lat="47.59162" lon="-2.68087">
        <ele>12</ele>
        <time>2026-08-20T14:01:32Z</time>
      </trkpt>
      <trkpt lat="47.59164" lon="-2.68091">
        <ele>12</ele>
        <time>2026-08-20T14:01:33Z</time>
      </trkpt>
      <trkpt lat="47.59166" lon="-2.68096">
        <ele>12</ele>
        <time>2026-08-20T14:01:34Z</time>
      </trkpt>
      <trkpt lat="47.59168" lon="-2.681">
        <ele>12</ele>
        <time>2026-08-20T14:01:35Z</time>
      </trkpt>
      <trkpt lat="47.5917" lon="-2.68105">
        <ele>11.9</ele>
        <time>2026-08-20T14:01:36Z</time>
      </trkpt>
      <trkpt lat="47.59172" lon="-2.68109">
        <ele>11.8</ele>
        <time>2026-08-20T14:01:37Z</time>
      </trkpt>
      <trkpt lat="47.59174" lon="-2.68114">
        <ele>11.8</ele>
        <time>2026-08-20T14:01:38Z</time>
      </trkpt>
      <trkpt lat="47.59176" lon="-2.68118">
        <ele>11.9</ele>
        <time>2026-08-20T14:01:39Z</time>
      </trkpt>
      <trkpt lat="47.59178" lon="-2.68123">
        <ele>12</ele>
        <time>2026-08-20T14:01:40Z</time>
      </trkpt>
      <trkpt lat="47.5918" lon="-2.68127">
        <ele>12.1</ele>
        <time>2026-08-20T14:01:41Z</time>
      </trkpt>
      <trkpt lat="47.59182" lon="-2.68132">
        <ele>12.2</ele>
        <time>2026-08-20T14:01:42Z</time>
      </trkpt>
      <trkpt lat="47.59185" lon="-2.68136">
        <ele>12.2</ele>
        <time>2026-08-20T14:01:43Z</time>
      </trkpt>
      <trkpt lat="47.59187" lon="-2.6814">
        <ele>12.3</ele>
        <time>2026-08-20T14:01:44Z</time>
      </trkpt>
      <trkpt lat="47.59189" lon="-2.68143">
        <ele>12.2</ele>
        <time>2026-08-20T14:01:45Z</time>
      </trkpt>
      <trkpt lat="47.59192" lon="-2.68148">
        <ele>12.1</ele>
        <time>2026-08-20T14:01:46Z</time>
      </trkpt>
      <trkpt lat="47.59194" lon="-2.68152">
        <ele>12</ele>
        <time>2026-08-20T14:01:47Z</time>
      </trkpt>
      <trkpt lat="47.59197" lon="-2.68155">
        <ele>11.9</ele>
        <time>2026-08-20T14:01:48Z</time>
      </trkpt>
      <trkpt lat="47.59199" lon="-2.68159">
        <ele>11.8</ele>
        <time>2026-08-20T14:01:49Z</time>
      </trkpt>
      <trkpt lat="47.59201" lon="-2.68163">
        <ele>11.8</ele>
        <time>2026-08-20T14:01:50Z</time>
      </trkpt>
      <trkpt lat="47.59203" lon="-2.68167">
        <ele>11.7</ele>
        <time>2026-08-20T14:01:51Z</time>
      </trkpt>
      <trkpt lat="47.59205" lon="-2.6817">
        <ele>11.8</ele>
        <time>2026-08-20T14:01:52Z</time>
      </trkpt>
      <trkpt lat="47.59207" lon="-2.68174">
        <ele>12</ele>
        <time>2026-08-20T14:01:53Z</time>
      </trkpt>
      <trkpt lat="47.59209" lon="-2.68179">
        <ele>12.1</ele>
        <time>2026-08-20T14:01:54Z</time>
      </trkpt>
      <trkpt lat="47.59211" lon="-2.68183">
        <ele>12.2</ele>
        <time>2026-08-20T14:01:55Z</time>
      </trkpt>
      <trkpt lat="47.59213" lon="-2.68187">
        <ele>12.3</ele>
        <time>2026-08-20T14:01:56Z</time>
      </trkpt>
      <trkpt lat="47.59215" lon="-2.68192">
        <ele>12.4</ele>
        <time>2026-08-20T14:01:57Z</time>
      </trkpt>
      <trkpt lat="47.59217" lon="-2.68197">
        <ele>12.5</ele>
        <time>2026-08-20T14:01:58Z</time>
      </trkpt>
      <trkpt lat="47.59218" lon="-2.68202">
        <ele>12.5</ele>
        <time>2026-08-20T14:01:59Z</time>
      </trkpt>
      <trkpt lat="47.5922" lon="-2.68206">
        <ele>12.5</ele>
        <time>2026-08-20T14:02:00Z</time>
      </trkpt>
      <trkpt lat="47.59221" lon="-2.68211">
        <ele>12.7</ele>
        <time>2026-08-20T14:02:01Z</time>
      </trkpt>
      <trkpt lat="47.59222" lon="-2.68217">
        <ele>12.8</ele>
        <time>2026-08-20T14:02:02Z</time>
      </trkpt>
      <trkpt lat="47.59223" lon="-2.68222">
        <ele>13</ele>
        <time>2026-08-20T14:02:03Z</time>
      </trkpt>
      <trkpt lat="47.59223" lon="-2.68228">
        <ele>13.2</ele>
        <time>2026-08-20T14:02:04Z</time>
      </trkpt>
      <trkpt lat="47.59224" lon="-2.68233">
        <ele>13.4</ele>
        <time>2026-08-20T14:02:05Z</time>
      </trkpt>
      <trkpt lat="47.59224" lon="-2.68238">
        <ele>13.6</ele>
        <time>2026-08-20T14:02:06Z</time>
      </trkpt>
      <trkpt lat="47.59224" lon="-2.68242">
        <ele>13.7</ele>
        <time>2026-08-20T14:02:07Z</time>
      </trkpt>
      <trkpt lat="47.59225" lon="-2.68248">
        <ele>13.9</ele>
        <time>2026-08-20T14:02:08Z</time>
      </trkpt>
      <trkpt lat="47.59225" lon="-2.68253">
        <ele>14.1</ele>
        <time>2026-08-20T14:02:09Z</time>
      </trkpt>
      <trkpt lat="47.59226" lon="-2.68257">
        <ele>14.3</ele>
        <time>2026-08-20T14:02:10Z</time>
      </trkpt>
      <trkpt lat="47.59227" lon="-2.68262">
        <ele>14.4</ele>
        <time>2026-08-20T14:02:11Z</time>
      </trkpt>
      <trkpt lat="47.59227" lon="-2.68267">
        <ele>14.6</ele>
        <time>2026-08-20T14:02:12Z</time>
      </trkpt>
      <trkpt lat="47.59228" lon="-2.68271">
        <ele>14.8</ele>
        <time>2026-08-20T14:02:13Z</time>
      </trkpt>
      <trkpt lat="47.59228" lon="-2.68276">
        <ele>14.9</ele>
        <time>2026-08-20T14:02:14Z</time>
      </trkpt>
      <trkpt lat="47.59229" lon="-2.6828">
        <ele>15.1</ele>
        <time>2026-08-20T14:02:15Z</time>
      </trkpt>
      <trkpt lat="47.5923" lon="-2.68285">
        <ele>15.4</ele>
        <time>2026-08-20T14:02:16Z</time>
      </trkpt>
      <trkpt lat="47.59231" lon="-2.68289">
        <ele>15.7</ele>
        <time>2026-08-20T14:02:17Z</time>
      </trkpt>
      <trkpt lat="47.59232" lon="-2.68293">
        <ele>15.9</ele>
        <time>2026-08-20T14:02:18Z</time>
      </trkpt>
      <trkpt lat="47.59233" lon="-2.68298">
        <ele>16.2</ele>
        <time>2026-08-20T14:02:19Z</time>
      </trkpt>
      <trkpt lat="47.59234" lon="-2.68302">
        <ele>16.4</ele>
        <time>2026-08-20T14:02:20Z</time>
      </trkpt>
      <trkpt lat="47.59234" lon="-2.68306">
        <ele>16.6</ele>
        <time>2026-08-20T14:02:21Z</time>
      </trkpt>
      <trkpt lat="47.59235" lon="-2.6831">
        <ele>16.6</ele>
        <time>2026-08-20T14:02:22Z</time>
      </trkpt>
      <trkpt lat="47.59236" lon="-2.68314">
        <ele>16.7</ele>
        <time>2026-08-20T14:02:23Z</time>
      </trkpt>
      <trkpt lat="47.59237" lon="-2.68318">
        <ele>16.7</ele>
        <time>2026-08-20T14:02:24Z</time>
      </trkpt>
      <trkpt lat="47.59238" lon="-2.68322">
        <ele>16.8</ele>
        <time>2026-08-20T14:02:25Z</time>
      </trkpt>
      <trkpt lat="47.59239" lon="-2.68325">
        <ele>16.8</ele>
        <time>2026-08-20T14:02:26Z</time>
      </trkpt>
      <trkpt lat="47.59239" lon="-2.68328">
        <ele>16.9</ele>
        <time>2026-08-20T14:02:27Z</time>
      </trkpt>
      <trkpt lat="47.5924" lon="-2.68332">
        <ele>17</ele>
        <time>2026-08-20T14:02:28Z</time>
      </trkpt>
      <trkpt lat="47.5924" lon="-2.68335">
        <ele>16.9</ele>
        <time>2026-08-20T14:02:29Z</time>
      </trkpt>
      <trkpt lat="47.5924" lon="-2.68339">
        <ele>16.8</ele>
        <time>2026-08-20T14:02:30Z</time>
      </trkpt>
      <trkpt lat="47.5924" lon="-2.68343">
        <ele>16.7</ele>
        <time>2026-08-20T14:02:31Z</time>
      </trkpt>
      <trkpt lat="47.59239" lon="-2.68346">
        <ele>16.6</ele>
        <time>2026-08-20T14:02:32Z</time>
      </trkpt>
      <trkpt lat="47.59237" lon="-2.68349">
        <ele>16.7</ele>
        <time>2026-08-20T14:02:33Z</time>
      </trkpt>
      <trkpt lat="47.59235" lon="-2.68352">
        <ele>16.7</ele>
        <time>2026-08-20T14:02:34Z</time>
      </trkpt>
      <trkpt lat="47.59232" lon="-2.68355">
        <ele>17</ele>
        <time>2026-08-20T14:02:35Z</time>
      </trkpt>
      <trkpt lat="47.59229" lon="-2.68357">
        <ele>17.2</ele>
        <time>2026-08-20T14:02:36Z</time>
      </trkpt>
      <trkpt lat="47.59227" lon="-2.6836">
        <ele>17.5</ele>
        <time>2026-08-20T14:02:37Z</time>
      </trkpt>
      <trkpt lat="47.59224" lon="-2.68362">
        <ele>17.7</ele>
        <time>2026-08-20T14:02:38Z</time>
      </trkpt>
      <trkpt lat="47.59221" lon="-2.68365">
        <ele>17.6</ele>
        <time>2026-08-20T14:02:39Z</time>
      </trkpt>
      <trkpt lat="47.59218" lon="-2.68367">
        <ele>17.3</ele>
        <time>2026-08-20T14:02:40Z</time>
      </trkpt>
      <trkpt lat="47.59215" lon="-2.68369">
        <ele>17.1</ele>
        <time>2026-08-20T14:02:41Z</time>
      </trkpt>
      <trkpt lat="47.59212" lon="-2.68372">
        <ele>16.9</ele>
        <time>2026-08-20T14:02:42Z</time>
      </trkpt>
      <trkpt lat="47.59209" lon="-2.68374">
        <ele>16.8</ele>
        <time>2026-08-20T14:02:43Z</time>
      </trkpt>
      <trkpt lat="47.59206" lon="-2.68376">
        <ele>16.7</ele>
        <time>2026-08-20T14:02:44Z</time>
      </trkpt>
      <trkpt lat="47.59203" lon="-2.68378">
        <ele>16.7</ele>
        <time>2026-08-20T14:02:45Z</time>
      </trkpt>
      <trkpt lat="47.59199" lon="-2.68381">
        <ele>16.8</ele>
        <time>2026-08-20T14:02:46Z</time>
      </trkpt>
      <trkpt lat="47.59196" lon="-2.68383">
        <ele>16.9</ele>
        <time>2026-08-20T14:02:47Z</time>
      </trkpt>
      <trkpt lat="47.59192" lon="-2.68384">
        <ele>17</ele>
        <time>2026-08-20T14:02:48Z</time>
      </trkpt>
      <trkpt lat="47.59188" lon="-2.68386">
        <ele>17</ele>
        <time>2026-08-20T14:02:49Z</time>
      </trkpt>
      <trkpt lat="47.59184" lon="-2.68387">
        <ele>17</ele>
        <time>2026-08-20T14:02:50Z</time>
      </trkpt>
      <trkpt lat="47.59179" lon="-2.68388">
        <ele>17</ele>
        <time>2026-08-20T14:02:51Z</time>
      </trkpt>
      <trkpt lat="47.59174" lon="-2.68388">
        <ele>17</ele>
        <time>2026-08-20T14:02:52Z</time>
      </trkpt>
      <trkpt lat="47.59169" lon="-2.68389">
        <ele>17</ele>
        <time>2026-08-20T14:02:53Z</time>
      </trkpt>
      <trkpt lat="47.59164" lon="-2.6839">
        <ele>16.8</ele>
        <time>2026-08-20T14:02:54Z</time>
      </trkpt>
      <trkpt lat="47.59159" lon="-2.68391">
        <ele>16.4</ele>
        <time>2026-08-20T14:02:55Z</time>
      </trkpt>
      <trkpt lat="47.59153" lon="-2.68392">
        <ele>16</ele>
        <time>2026-08-20T14:02:56Z</time>
      </trkpt>
      <trkpt lat="47.59147" lon="-2.68393">
        <ele>15.6</ele>
        <time>2026-08-20T14:02:57Z</time>
      </trkpt>
      <trkpt lat="47.59141" lon="-2.68395">
        <ele>15.3</ele>
        <time>2026-08-20T14:02:58Z</time>
      </trkpt>
      <trkpt lat="47.59135" lon="-2.68397">
        <ele>15.1</ele>
        <time>2026-08-20T14:02:59Z</time>
      </trkpt>
      <trkpt lat="47.59129" lon="-2.68399">
        <ele>14.9</ele>
        <time>2026-08-20T14:03:00Z</time>
      </trkpt>
      <trkpt lat="47.59122" lon="-2.684">
        <ele>14.5</ele>
        <time>2026-08-20T14:03:01Z</time>
      </trkpt>
      <trkpt lat="47.59116" lon="-2.68403">
        <ele>14.3</ele>
        <time>2026-08-20T14:03:02Z</time>
      </trkpt>
      <trkpt lat="47.5911" lon="-2.68406">
        <ele>14</ele>
        <time>2026-08-20T14:03:03Z</time>
      </trkpt>
      <trkpt lat="47.59104" lon="-2.6841">
        <ele>13.7</ele>
        <time>2026-08-20T14:03:04Z</time>
      </trkpt>
      <trkpt lat="47.59098" lon="-2.68415">
        <ele>13.5</ele>
        <time>2026-08-20T14:03:05Z</time>
      </trkpt>
      <trkpt lat="47.59092" lon="-2.6842">
        <ele>13.3</ele>
        <time>2026-08-20T14:03:06Z</time>
      </trkpt>
      <trkpt lat="47.59087" lon="-2.68426">
        <ele>13.1</ele>
        <time>2026-08-20T14:03:07Z</time>
      </trkpt>
      <trkpt lat="47.59081" lon="-2.68432">
        <ele>12.9</ele>
        <time>2026-08-20T14:03:08Z</time>
      </trkpt>
      <trkpt lat="47.59076" lon="-2.68439">
        <ele>12.7</ele>
        <time>2026-08-20T14:03:09Z</time>
      </trkpt>
      <trkpt lat="47.5907" lon="-2.68445">
        <ele>12.5</ele>
        <time>2026-08-20T14:03:10Z</time>
      </trkpt>
      <trkpt lat="47.59065" lon="-2.68451">
        <ele>12.6</ele>
        <time>2026-08-20T14:03:11Z</time>
      </trkpt>
      <trkpt lat="47.59061" lon="-2.68457">
        <ele>12.6</ele>
        <time>2026-08-20T14:03:12Z</time>
      </trkpt>
      <trkpt lat="47.59056" lon="-2.68464">
        <ele>12.7</ele>
        <time>2026-08-20T14:03:13Z</time>
      </trkpt>
      <trkpt lat="47.59051" lon="-2.68471">
        <ele>13</ele>
        <time>2026-08-20T14:03:14Z</time>
      </trkpt>
      <trkpt lat="47.59046" lon="-2.68477">
        <ele>12.9</ele>
        <time>2026-08-20T14:03:15Z</time>
      </trkpt>
      <trkpt lat="47.59041" lon="-2.68483">
        <ele>12.8</ele>
        <time>2026-08-20T14:03:16Z</time>
      </trkpt>
      <trkpt lat="47.59037" lon="-2.6849">
        <ele>12.6</ele>
        <time>2026-08-20T14:03:17Z</time>
      </trkpt>
      <trkpt lat="47.59032" lon="-2.68496">
        <ele>12.3</ele>
        <time>2026-08-20T14:03:18Z</time>
      </trkpt>
      <trkpt lat="47.59028" lon="-2.68503">
        <ele>12.1</ele>
        <time>2026-08-20T14:03:19Z</time>
      </trkpt>
      <trkpt lat="47.59024" lon="-2.68509">
        <ele>12.6</ele>
        <time>2026-08-20T14:03:20Z</time>
      </trkpt>
      <trkpt lat="47.5902" lon="-2.68514">
        <ele>12.9</ele>
        <time>2026-08-20T14:03:21Z</time>
      </trkpt>
      <trkpt lat="47.59016" lon="-2.6852">
        <ele>13.3</ele>
        <time>2026-08-20T14:03:22Z</time>
      </trkpt>
      <trkpt lat="47.59013" lon="-2.68525">
        <ele>13.5</ele>
        <time>2026-08-20T14:03:23Z</time>
      </trkpt>
      <trkpt lat="47.59009" lon="-2.6853">
        <ele>13.6</ele>
        <time>2026-08-20T14:03:24Z</time>
      </trkpt>
      <trkpt lat="47.59006" lon="-2.68535">
        <ele>13.6</ele>
        <time>2026-08-20T14:03:25Z</time>
      </trkpt>
      <trkpt lat="47.59003" lon="-2.6854">
        <ele>13.5</ele>
        <time>2026-08-20T14:03:26Z</time>
      </trkpt>
      <trkpt lat="47.58999" lon="-2.68545">
        <ele>13.4</ele>
        <time>2026-08-20T14:03:27Z</time>
      </trkpt>
      <trkpt lat="47.58996" lon="-2.68549">
        <ele>13.4</ele>
        <time>2026-08-20T14:03:28Z</time>
      </trkpt>
      <trkpt lat="47.58992" lon="-2.68553">
        <ele>13.4</ele>
        <time>2026-08-20T14:03:29Z</time>
      </trkpt>
      <trkpt lat="47.58988" lon="-2.68558">
        <ele>13.3</ele>
        <time>2026-08-20T14:03:30Z</time>
      </trkpt>
      <trkpt lat="47.58985" lon="-2.68562">
        <ele>13.3</ele>
        <time>2026-08-20T14:03:31Z</time>
      </trkpt>
      <trkpt lat="47.58981" lon="-2.68566">
        <ele>13.3</ele>
        <time>2026-08-20T14:03:32Z</time>
      </trkpt>
      <trkpt lat="47.58977" lon="-2.68571">
        <ele>13.3</ele>
        <time>2026-08-20T14:03:33Z</time>
      </trkpt>
      <trkpt lat="47.58973" lon="-2.68576">
        <ele>13.2</ele>
        <time>2026-08-20T14:03:34Z</time>
      </trkpt>
      <trkpt lat="47.58969" lon="-2.6858">
        <ele>13.2</ele>
        <time>2026-08-20T14:03:35Z</time>
      </trkpt>
      <trkpt lat="47.58965" lon="-2.68585">
        <ele>13.2</ele>
        <time>2026-08-20T14:03:36Z</time>
      </trkpt>
      <trkpt lat="47.5896" lon="-2.68589">
        <ele>13.2</ele>
        <time>2026-08-20T14:03:37Z</time>
      </trkpt>
      <trkpt lat="47.58956" lon="-2.68593">
        <ele>13.2</ele>
        <time>2026-08-20T14:03:38Z</time>
      </trkpt>
      <trkpt lat="47.58951" lon="-2.68596">
        <ele>13.3</ele>
        <time>2026-08-20T14:03:39Z</time>
      </trkpt>
      <trkpt lat="47.58946" lon="-2.686">
        <ele>13.3</ele>
        <time>2026-08-20T14:03:40Z</time>
      </trkpt>
      <trkpt lat="47.58942" lon="-2.68603">
        <ele>13.4</ele>
        <time>2026-08-20T14:03:41Z</time>
      </trkpt>
      <trkpt lat="47.58937" lon="-2.68607">
        <ele>13.4</ele>
        <time>2026-08-20T14:03:42Z</time>
      </trkpt>
      <trkpt lat="47.58932" lon="-2.6861">
        <ele>13.5</ele>
        <time>2026-08-20T14:03:43Z</time>
      </trkpt>
      <trkpt lat="47.58927" lon="-2.68613">
        <ele>13.5</ele>
        <time>2026-08-20T14:03:44Z</time>
      </trkpt>
      <trkpt lat="47.58922" lon="-2.68616">
        <ele>13.5</ele>
        <time>2026-08-20T14:03:45Z</time>
      </trkpt>
      <trkpt lat="47.58918" lon="-2.68619">
        <ele>13.4</ele>
        <time>2026-08-20T14:03:46Z</time>
      </trkpt>
      <trkpt lat="47.58913" lon="-2.68622">
        <ele>13.3</ele>
        <time>2026-08-20T14:03:47Z</time>
      </trkpt>
      <trkpt lat="47.58909" lon="-2.68625">
        <ele>13.3</ele>
        <time>2026-08-20T14:03:48Z</time>
      </trkpt>
      <trkpt lat="47.58904" lon="-2.68628">
        <ele>13.2</ele>
        <time>2026-08-20T14:03:49Z</time>
      </trkpt>
      <trkpt lat="47.589" lon="-2.6863">
        <ele>13.2</ele>
        <time>2026-08-20T14:03:50Z</time>
      </trkpt>
      <trkpt lat="47.58895" lon="-2.68633">
        <ele>13.2</ele>
        <time>2026-08-20T14:03:51Z</time>
      </trkpt>
      <trkpt lat="47.58891" lon="-2.68636">
        <ele>13.1</ele>
        <time>2026-08-20T14:03:52Z</time>
      </trkpt>
      <trkpt lat="47.58886" lon="-2.68639">
        <ele>13.1</ele>
        <time>2026-08-20T14:03:53Z</time>
      </trkpt>
      <trkpt lat="47.58881" lon="-2.68642">
        <ele>13.2</ele>
        <time>2026-08-20T14:03:54Z</time>
      </trkpt>
      <trkpt lat="47.58877" lon="-2.68644">
        <ele>13.2</ele>
        <time>2026-08-20T14:03:55Z</time>
      </trkpt>
      <trkpt lat="47.58871" lon="-2.68647">
        <ele>13.4</ele>
        <time>2026-08-20T14:03:56Z</time>
      </trkpt>
      <trkpt lat="47.58867" lon="-2.6865">
        <ele>13.4</ele>
        <time>2026-08-20T14:03:57Z</time>
      </trkpt>
      <trkpt lat="47.58862" lon="-2.68653">
        <ele>13.5</ele>
        <time>2026-08-20T14:03:58Z</time>
      </trkpt>
      <trkpt lat="47.58857" lon="-2.68656">
        <ele>13.5</ele>
        <time>2026-08-20T14:03:59Z</time>
      </trkpt>
      <trkpt lat="47.58852" lon="-2.68658">
        <ele>13.6</ele>
        <time>2026-08-20T14:04:00Z</time>
      </trkpt>
      <trkpt lat="47.58847" lon="-2.6866">
        <ele>13.7</ele>
        <time>2026-08-20T14:04:01Z</time>
      </trkpt>
      <trkpt lat="47.58842" lon="-2.68662">
        <ele>13.9</ele>
        <time>2026-08-20T14:04:02Z</time>
      </trkpt>
      <trkpt lat="47.58837" lon="-2.68664">
        <ele>14</ele>
        <time>2026-08-20T14:04:03Z</time>
      </trkpt>
      <trkpt lat="47.58832" lon="-2.68665">
        <ele>14</ele>
        <time>2026-08-20T14:04:04Z</time>
      </trkpt>
      <trkpt lat="47.58827" lon="-2.68667">
        <ele>13.8</ele>
        <time>2026-08-20T14:04:05Z</time>
      </trkpt>
      <trkpt lat="47.58822" lon="-2.68669">
        <ele>13.5</ele>
        <time>2026-08-20T14:04:06Z</time>
      </trkpt>
      <trkpt lat="47.58817" lon="-2.6867">
        <ele>13.4</ele>
        <time>2026-08-20T14:04:07Z</time>
      </trkpt>
      <trkpt lat="47.58812" lon="-2.68671">
        <ele>13.2</ele>
        <time>2026-08-20T14:04:08Z</time>
      </trkpt>
      <trkpt lat="47.58808" lon="-2.68672">
        <ele>13.1</ele>
        <time>2026-08-20T14:04:09Z</time>
      </trkpt>
      <trkpt lat="47.58802" lon="-2.68674">
        <ele>13</ele>
        <time>2026-08-20T14:04:10Z</time>
      </trkpt>
      <trkpt lat="47.58797" lon="-2.68676">
        <ele>12.9</ele>
        <time>2026-08-20T14:04:11Z</time>
      </trkpt>
      <trkpt lat="47.58792" lon="-2.68677">
        <ele>12.8</ele>
        <time>2026-08-20T14:04:12Z</time>
      </trkpt>
      <trkpt lat="47.58787" lon="-2.68679">
        <ele>12.7</ele>
        <time>2026-08-20T14:04:13Z</time>
      </trkpt>
      <trkpt lat="47.58781" lon="-2.68682">
        <ele>12.5</ele>
        <time>2026-08-20T14:04:14Z</time>
      </trkpt>
      <trkpt lat="47.58776" lon="-2.68685">
        <ele>12.3</ele>
        <time>2026-08-20T14:04:15Z</time>
      </trkpt>
      <trkpt lat="47.5877" lon="-2.68688">
        <ele>12</ele>
        <time>2026-08-20T14:04:16Z</time>
      </trkpt>
      <trkpt lat="47.58766" lon="-2.6869">
        <ele>11.7</ele>
        <time>2026-08-20T14:04:17Z</time>
      </trkpt>
      <trkpt lat="47.58759" lon="-2.68694">
        <ele>11.3</ele>
        <time>2026-08-20T14:04:18Z</time>
      </trkpt>
      <trkpt lat="47.58753" lon="-2.68697">
        <ele>11.1</ele>
        <time>2026-08-20T14:04:19Z</time>
      </trkpt>
      <trkpt lat="47.58746" lon="-2.68701">
        <ele>10.9</ele>
        <time>2026-08-20T14:04:20Z</time>
      </trkpt>
      <trkpt lat="47.5874" lon="-2.68704">
        <ele>10.6</ele>
        <time>2026-08-20T14:04:21Z</time>
      </trkpt>
      <trkpt lat="47.58735" lon="-2.68707">
        <ele>10.5</ele>
        <time>2026-08-20T14:04:22Z</time>
      </trkpt>
      <trkpt lat="47.58727" lon="-2.68711">
        <ele>10.2</ele>
        <time>2026-08-20T14:04:23Z</time>
      </trkpt>
      <trkpt lat="47.58721" lon="-2.68715">
        <ele>10</ele>
        <time>2026-08-20T14:04:24Z</time>
      </trkpt>
      <trkpt lat="47.58715" lon="-2.68718">
        <ele>9.7</ele>
        <time>2026-08-20T14:04:25Z</time>
      </trkpt>
      <trkpt lat="47.58709" lon="-2.68722">
        <ele>9.5</ele>
        <time>2026-08-20T14:04:26Z</time>
      </trkpt>
      <trkpt lat="47.58702" lon="-2.68725">
        <ele>9.3</ele>
        <time>2026-08-20T14:04:27Z</time>
      </trkpt>
      <trkpt lat="47.58696" lon="-2.68729">
        <ele>9.1</ele>
        <time>2026-08-20T14:04:28Z</time>
      </trkpt>
      <trkpt lat="47.5869" lon="-2.68734">
        <ele>8.9</ele>
        <time>2026-08-20T14:04:29Z</time>
      </trkpt>
      <trkpt lat="47.58684" lon="-2.68738">
        <ele>8.8</ele>
        <time>2026-08-20T14:04:30Z</time>
      </trkpt>
      <trkpt lat="47.58679" lon="-2.68741">
        <ele>8.8</ele>
        <time>2026-08-20T14:04:31Z</time>
      </trkpt>
      <trkpt lat="47.58674" lon="-2.68745">
        <ele>8.9</ele>
        <time>2026-08-20T14:04:32Z</time>
      </trkpt>
      <trkpt lat="47.58668" lon="-2.6875">
        <ele>9</ele>
        <time>2026-08-20T14:04:33Z</time>
      </trkpt>
      <trkpt lat="47.58662" lon="-2.68754">
        <ele>8.7</ele>
        <time>2026-08-20T14:04:34Z</time>
      </trkpt>
      <trkpt lat="47.58657" lon="-2.68758">
        <ele>8.5</ele>
        <time>2026-08-20T14:04:35Z</time>
      </trkpt>
      <trkpt lat="47.58651" lon="-2.68762">
        <ele>8.2</ele>
        <time>2026-08-20T14:04:36Z</time>
      </trkpt>
      <trkpt lat="47.58646" lon="-2.68767">
        <ele>8.1</ele>
        <time>2026-08-20T14:04:37Z</time>
      </trkpt>
      <trkpt lat="47.58641" lon="-2.68771">
        <ele>8</ele>
        <time>2026-08-20T14:04:38Z</time>
      </trkpt>
      <trkpt lat="47.58635" lon="-2.68776">
        <ele>8.1</ele>
        <time>2026-08-20T14:04:39Z</time>
      </trkpt>
      <trkpt lat="47.5863" lon="-2.68781">
        <ele>8.3</ele>
        <time>2026-08-20T14:04:40Z</time>
      </trkpt>
      <trkpt lat="47.58625" lon="-2.68785">
        <ele>8.5</ele>
        <time>2026-08-20T14:04:41Z</time>
      </trkpt>
      <trkpt lat="47.5862" lon="-2.6879">
        <ele>8.7</ele>
        <time>2026-08-20T14:04:42Z</time>
      </trkpt>
      <trkpt lat="47.58615" lon="-2.68794">
        <ele>8.9</ele>
        <time>2026-08-20T14:04:43Z</time>
      </trkpt>
      <trkpt lat="47.5861" lon="-2.68798">
        <ele>9</ele>
        <time>2026-08-20T14:04:44Z</time>
      </trkpt>
      <trkpt lat="47.58605" lon="-2.68803">
        <ele>9</ele>
        <time>2026-08-20T14:04:45Z</time>
      </trkpt>
      <trkpt lat="47.58601" lon="-2.68807">
        <ele>9</ele>
        <time>2026-08-20T14:04:46Z</time>
      </trkpt>
      <trkpt lat="47.58596" lon="-2.68812">
        <ele>8.9</ele>
        <time>2026-08-20T14:04:47Z</time>
      </trkpt>
      <trkpt lat="47.58591" lon="-2.68816">
        <ele>8.9</ele>
        <time>2026-08-20T14:04:48Z</time>
      </trkpt>
      <trkpt lat="47.58587" lon="-2.6882">
        <ele>8.9</ele>
        <time>2026-08-20T14:04:49Z</time>
      </trkpt>
      <trkpt lat="47.58582" lon="-2.68824">
        <ele>9</ele>
        <time>2026-08-20T14:04:50Z</time>
      </trkpt>
      <trkpt lat="47.58578" lon="-2.68828">
        <ele>9</ele>
        <time>2026-08-20T14:04:51Z</time>
      </trkpt>
      <trkpt lat="47.58573" lon="-2.68832">
        <ele>9</ele>
        <time>2026-08-20T14:04:52Z</time>
      </trkpt>
      <trkpt lat="47.58568" lon="-2.68836">
        <ele>8.9</ele>
        <time>2026-08-20T14:04:53Z</time>
      </trkpt>
      <trkpt lat="47.58563" lon="-2.6884">
        <ele>8.8</ele>
        <time>2026-08-20T14:04:54Z</time>
      </trkpt>
      <trkpt lat="47.58558" lon="-2.68843">
        <ele>8.7</ele>
        <time>2026-08-20T14:04:55Z</time>
      </trkpt>
      <trkpt lat="47.58554" lon="-2.68847">
        <ele>8.5</ele>
        <time>2026-08-20T14:04:56Z</time>
      </trkpt>
      <trkpt lat="47.58549" lon="-2.68851">
        <ele>8.5</ele>
        <time>2026-08-20T14:04:57Z</time>
      </trkpt>
      <trkpt lat="47.58544" lon="-2.68855">
        <ele>8.5</ele>
        <time>2026-08-20T14:04:58Z</time>
      </trkpt>
      <trkpt lat="47.5854" lon="-2.68858">
        <ele>8.6</ele>
        <time>2026-08-20T14:04:59Z</time>
      </trkpt>
      <trkpt lat="47.58535" lon="-2.68862">
        <ele>8.7</ele>
        <time>2026-08-20T14:05:00Z</time>
      </trkpt>
      <trkpt lat="47.5853" lon="-2.68866">
        <ele>8.8</ele>
        <time>2026-08-20T14:05:01Z</time>
      </trkpt>
      <trkpt lat="47.58526" lon="-2.6887">
        <ele>8.7</ele>
        <time>2026-08-20T14:05:02Z</time>
      </trkpt>
      <trkpt lat="47.58521" lon="-2.68874">
        <ele>8.6</ele>
        <time>2026-08-20T14:05:03Z</time>
      </trkpt>
      <trkpt lat="47.58517" lon="-2.68877">
        <ele>8.6</ele>
        <time>2026-08-20T14:05:04Z</time>
      </trkpt>
      <trkpt lat="47.58512" lon="-2.68881">
        <ele>8.7</ele>
        <time>2026-08-20T14:05:05Z</time>
      </trkpt>
      <trkpt lat="47.58508" lon="-2.68885">
        <ele>8.8</ele>
        <time>2026-08-20T14:05:06Z</time>
      </trkpt>
      <trkpt lat="47.58503" lon="-2.68889">
        <ele>8.9</ele>
        <time>2026-08-20T14:05:07Z</time>
      </trkpt>
      <trkpt lat="47.58499" lon="-2.68893">
        <ele>8.9</ele>
        <time>2026-08-20T14:05:08Z</time>
      </trkpt>
      <trkpt lat="47.58494" lon="-2.68897">
        <ele>8.8</ele>
        <time>2026-08-20T14:05:09Z</time>
      </trkpt>
      <trkpt lat="47.5849" lon="-2.68901">
        <ele>8.7</ele>
        <time>2026-08-20T14:05:10Z</time>
      </trkpt>
      <trkpt lat="47.58486" lon="-2.68905">
        <ele>8.7</ele>
        <time>2026-08-20T14:05:11Z</time>
      </trkpt>
      <trkpt lat="47.58482" lon="-2.6891">
        <ele>8.7</ele>
        <time>2026-08-20T14:05:12Z</time>
      </trkpt>
      <trkpt lat="47.58477" lon="-2.68914">
        <ele>8.8</ele>
        <time>2026-08-20T14:05:13Z</time>
      </trkpt>
      <trkpt lat="47.58473" lon="-2.68918">
        <ele>9</ele>
        <time>2026-08-20T14:05:14Z</time>
      </trkpt>
      <trkpt lat="47.58469" lon="-2.68923">
        <ele>9</ele>
        <time>2026-08-20T14:05:15Z</time>
      </trkpt>
      <trkpt lat="47.58465" lon="-2.68927">
        <ele>9</ele>
        <time>2026-08-20T14:05:16Z</time>
      </trkpt>
      <trkpt lat="47.58461" lon="-2.68931">
        <ele>9</ele>
        <time>2026-08-20T14:05:17Z</time>
      </trkpt>
      <trkpt lat="47.58457" lon="-2.68936">
        <ele>9</ele>
        <time>2026-08-20T14:05:18Z</time>
      </trkpt>
      <trkpt lat="47.58453" lon="-2.6894">
        <ele>9</ele>
        <time>2026-08-20T14:05:19Z</time>
      </trkpt>
      <trkpt lat="47.58449" lon="-2.68945">
        <ele>9</ele>
        <time>2026-08-20T14:05:20Z</time>
      </trkpt>
      <trkpt lat="47.58445" lon="-2.6895">
        <ele>9</ele>
        <time>2026-08-20T14:05:21Z</time>
      </trkpt>
      <trkpt lat="47.58441" lon="-2.68955">
        <ele>9</ele>
        <time>2026-08-20T14:05:22Z</time>
      </trkpt>
      <trkpt lat="47.58437" lon="-2.6896">
        <ele>9</ele>
        <time>2026-08-20T14:05:23Z</time>
      </trkpt>
      <trkpt lat="47.58433" lon="-2.68965">
        <ele>9</ele>
        <time>2026-08-20T14:05:24Z</time>
      </trkpt>
      <trkpt lat="47.58429" lon="-2.68971">
        <ele>9</ele>
        <time>2026-08-20T14:05:25Z</time>
      </trkpt>
      <trkpt lat="47.58425" lon="-2.68977">
        <ele>9</ele>
        <time>2026-08-20T14:05:26Z</time>
      </trkpt>
      <trkpt lat="47.58422" lon="-2.68982">
        <ele>9</ele>
        <time>2026-08-20T14:05:27Z</time>
      </trkpt>
      <trkpt lat="47.58419" lon="-2.68987">
        <ele>9</ele>
        <time>2026-08-20T14:05:28Z</time>
      </trkpt>
      <trkpt lat="47.58416" lon="-2.68994">
        <ele>9</ele>
        <time>2026-08-20T14:05:29Z</time>
      </trkpt>
      <trkpt lat="47.58413" lon="-2.69">
        <ele>9</ele>
        <time>2026-08-20T14:05:30Z</time>
      </trkpt>
      <trkpt lat="47.5841" lon="-2.69006">
        <ele>8.8</ele>
        <time>2026-08-20T14:05:31Z</time>
      </trkpt>
      <trkpt lat="47.58407" lon="-2.69013">
        <ele>8.7</ele>
        <time>2026-08-20T14:05:32Z</time>
      </trkpt>
      <trkpt lat="47.58404" lon="-2.69019">
        <ele>8.6</ele>
        <time>2026-08-20T14:05:33Z</time>
      </trkpt>
      <trkpt lat="47.58402" lon="-2.69026">
        <ele>8.6</ele>
        <time>2026-08-20T14:05:34Z</time>
      </trkpt>
      <trkpt lat="47.584" lon="-2.69033">
        <ele>8.6</ele>
        <time>2026-08-20T14:05:35Z</time>
      </trkpt>
      <trkpt lat="47.58398" lon="-2.6904">
        <ele>8.7</ele>
        <time>2026-08-20T14:05:36Z</time>
      </trkpt>
      <trkpt lat="47.58395" lon="-2.69047">
        <ele>8.8</ele>
        <time>2026-08-20T14:05:37Z</time>
      </trkpt>
      <trkpt lat="47.58392" lon="-2.69053">
        <ele>8.9</ele>
        <time>2026-08-20T14:05:38Z</time>
      </trkpt>
      <trkpt lat="47.58389" lon="-2.6906">
        <ele>8.8</ele>
        <time>2026-08-20T14:05:39Z</time>
      </trkpt>
      <trkpt lat="47.58386" lon="-2.69066">
        <ele>8.6</ele>
        <time>2026-08-20T14:05:40Z</time>
      </trkpt>
      <trkpt lat="47.58383" lon="-2.69073">
        <ele>8.4</ele>
        <time>2026-08-20T14:05:41Z</time>
      </trkpt>
      <trkpt lat="47.5838" lon="-2.69079">
        <ele>8.2</ele>
        <time>2026-08-20T14:05:42Z</time>
      </trkpt>
      <trkpt lat="47.58376" lon="-2.69085">
        <ele>8</ele>
        <time>2026-08-20T14:05:43Z</time>
      </trkpt>
      <trkpt lat="47.58373" lon="-2.69091">
        <ele>7.9</ele>
        <time>2026-08-20T14:05:44Z</time>
      </trkpt>
      <trkpt lat="47.58369" lon="-2.69096">
        <ele>7.9</ele>
        <time>2026-08-20T14:05:45Z</time>
      </trkpt>
      <trkpt lat="47.58366" lon="-2.69101">
        <ele>7.9</ele>
        <time>2026-08-20T14:05:46Z</time>
      </trkpt>
      <trkpt lat="47.58361" lon="-2.69106">
        <ele>8</ele>
        <time>2026-08-20T14:05:47Z</time>
      </trkpt>
      <trkpt lat="47.58357" lon="-2.6911">
        <ele>8</ele>
        <time>2026-08-20T14:05:48Z</time>
      </trkpt>
      <trkpt lat="47.58353" lon="-2.69113">
        <ele>8</ele>
        <time>2026-08-20T14:05:49Z</time>
      </trkpt>
      <trkpt lat="47.58349" lon="-2.69117">
        <ele>7.9</ele>
        <time>2026-08-20T14:05:50Z</time>
      </trkpt>
      <trkpt lat="47.58344" lon="-2.6912">
        <ele>7.9</ele>
        <time>2026-08-20T14:05:51Z</time>
      </trkpt>
      <trkpt lat="47.5834" lon="-2.69124">
        <ele>7.9</ele>
        <time>2026-08-20T14:05:52Z</time>
      </trkpt>
      <trkpt lat="47.58335" lon="-2.69128">
        <ele>8</ele>
        <time>2026-08-20T14:05:53Z</time>
      </trkpt>
      <trkpt lat="47.58331" lon="-2.69131">
        <ele>7.9</ele>
        <time>2026-08-20T14:05:54Z</time>
      </trkpt>
      <trkpt lat="47.58327" lon="-2.69133">
        <ele>7.7</ele>
        <time>2026-08-20T14:05:55Z</time>
      </trkpt>
      <trkpt lat="47.58322" lon="-2.69136">
        <ele>7.5</ele>
        <time>2026-08-20T14:05:56Z</time>
      </trkpt>
      <trkpt lat="47.58317" lon="-2.69138">
        <ele>7.4</ele>
        <time>2026-08-20T14:05:57Z</time>
      </trkpt>
      <trkpt lat="47.58313" lon="-2.6914">
        <ele>7.3</ele>
        <time>2026-08-20T14:05:58Z</time>
      </trkpt>
      <trkpt lat="47.58308" lon="-2.69142">
        <ele>7.1</ele>
        <time>2026-08-20T14:05:59Z</time>
      </trkpt>
      <trkpt lat="47.58303" lon="-2.69144">
        <ele>6.9</ele>
        <time>2026-08-20T14:06:00Z</time>
      </trkpt>
      <trkpt lat="47.58299" lon="-2.69144">
        <ele>6.8</ele>
        <time>2026-08-20T14:06:01Z</time>
      </trkpt>
      <trkpt lat="47.58294" lon="-2.69145">
        <ele>6.7</ele>
        <time>2026-08-20T14:06:02Z</time>
      </trkpt>
      <trkpt lat="47.58289" lon="-2.69145">
        <ele>6.5</ele>
        <time>2026-08-20T14:06:03Z</time>
      </trkpt>
      <trkpt lat="47.58284" lon="-2.69145">
        <ele>6.4</ele>
        <time>2026-08-20T14:06:04Z</time>
      </trkpt>
      <trkpt lat="47.58279" lon="-2.69143">
        <ele>6.2</ele>
        <time>2026-08-20T14:06:05Z</time>
      </trkpt>
      <trkpt lat="47.58274" lon="-2.69141">
        <ele>6.1</ele>
        <time>2026-08-20T14:06:06Z</time>
      </trkpt>
      <trkpt lat="47.58269" lon="-2.69139">
        <ele>6</ele>
        <time>2026-08-20T14:06:07Z</time>
      </trkpt>
      <trkpt lat="47.58265" lon="-2.69136">
        <ele>6</ele>
        <time>2026-08-20T14:06:08Z</time>
      </trkpt>
      <trkpt lat="47.5826" lon="-2.69134">
        <ele>6</ele>
        <time>2026-08-20T14:06:09Z</time>
      </trkpt>
      <trkpt lat="47.58256" lon="-2.69133">
        <ele>6</ele>
        <time>2026-08-20T14:06:10Z</time>
      </trkpt>
      <trkpt lat="47.58252" lon="-2.69133">
        <ele>6</ele>
        <time>2026-08-20T14:06:11Z</time>
      </trkpt>
      <trkpt lat="47.58248" lon="-2.69132">
        <ele>6.1</ele>
        <time>2026-08-20T14:06:12Z</time>
      </trkpt>
      <trkpt lat="47.58243" lon="-2.69132">
        <ele>6.3</ele>
        <time>2026-08-20T14:06:13Z</time>
      </trkpt>
      <trkpt lat="47.5824" lon="-2.69131">
        <ele>6.4</ele>
        <time>2026-08-20T14:06:14Z</time>
      </trkpt>
      <trkpt lat="47.58236" lon="-2.6913">
        <ele>6.5</ele>
        <time>2026-08-20T14:06:15Z</time>
      </trkpt>
      <trkpt lat="47.58232" lon="-2.6913">
        <ele>6.6</ele>
        <time>2026-08-20T14:06:16Z</time>
      </trkpt>
      <trkpt lat="47.58228" lon="-2.6913">
        <ele>6.8</ele>
        <time>2026-08-20T14:06:17Z</time>
      </trkpt>
      <trkpt lat="47.58224" lon="-2.6913">
        <ele>6.9</ele>
        <time>2026-08-20T14:06:18Z</time>
      </trkpt>
      <trkpt lat="47.5822" lon="-2.69132">
        <ele>7</ele>
        <time>2026-08-20T14:06:19Z</time>
      </trkpt>
      <trkpt lat="47.58217" lon="-2.69134">
        <ele>7</ele>
        <time>2026-08-20T14:06:20Z</time>
      </trkpt>
      <trkpt lat="47.58213" lon="-2.69136">
        <ele>7</ele>
        <time>2026-08-20T14:06:21Z</time>
      </trkpt>
      <trkpt lat="47.5821" lon="-2.6914">
        <ele>7</ele>
        <time>2026-08-20T14:06:22Z</time>
      </trkpt>
      <trkpt lat="47.58207" lon="-2.69144">
        <ele>7</ele>
        <time>2026-08-20T14:06:23Z</time>
      </trkpt>
      <trkpt lat="47.58204" lon="-2.69149">
        <ele>7</ele>
        <time>2026-08-20T14:06:24Z</time>
      </trkpt>
      <trkpt lat="47.58202" lon="-2.69155">
        <ele>7</ele>
        <time>2026-08-20T14:06:25Z</time>
      </trkpt>
      <trkpt lat="47.582" lon="-2.69161">
        <ele>7</ele>
        <time>2026-08-20T14:06:26Z</time>
      </trkpt>
      <trkpt lat="47.58198" lon="-2.69168">
        <ele>7</ele>
        <time>2026-08-20T14:06:27Z</time>
      </trkpt>
      <trkpt lat="47.58197" lon="-2.69176">
        <ele>6.7</ele>
        <time>2026-08-20T14:06:28Z</time>
      </trkpt>
      <trkpt lat="47.58197" lon="-2.69183">
        <ele>6.5</ele>
        <time>2026-08-20T14:06:29Z</time>
      </trkpt>
      <trkpt lat="47.58196" lon="-2.6919">
        <ele>6.2</ele>
        <time>2026-08-20T14:06:30Z</time>
      </trkpt>
      <trkpt lat="47.58195" lon="-2.69198">
        <ele>6</ele>
        <time>2026-08-20T14:06:31Z</time>
      </trkpt>
      <trkpt lat="47.58195" lon="-2.69205">
        <ele>6</ele>
        <time>2026-08-20T14:06:32Z</time>
      </trkpt>
      <trkpt lat="47.58194" lon="-2.69213">
        <ele>6</ele>
        <time>2026-08-20T14:06:33Z</time>
      </trkpt>
      <trkpt lat="47.58194" lon="-2.69221">
        <ele>6</ele>
        <time>2026-08-20T14:06:34Z</time>
      </trkpt>
      <trkpt lat="47.58193" lon="-2.69228">
        <ele>6</ele>
        <time>2026-08-20T14:06:35Z</time>
      </trkpt>
      <trkpt lat="47.58192" lon="-2.69236">
        <ele>6</ele>
        <time>2026-08-20T14:06:36Z</time>
      </trkpt>
      <trkpt lat="47.58191" lon="-2.69243">
        <ele>6</ele>
        <time>2026-08-20T14:06:37Z</time>
      </trkpt>
      <trkpt lat="47.5819" lon="-2.69251">
        <ele>6</ele>
        <time>2026-08-20T14:06:38Z</time>
      </trkpt>
      <trkpt lat="47.58188" lon="-2.69257">
        <ele>5.9</ele>
        <time>2026-08-20T14:06:39Z</time>
      </trkpt>
      <trkpt lat="47.58186" lon="-2.69264">
        <ele>5.8</ele>
        <time>2026-08-20T14:06:40Z</time>
      </trkpt>
      <trkpt lat="47.58184" lon="-2.6927">
        <ele>5.7</ele>
        <time>2026-08-20T14:06:41Z</time>
      </trkpt>
      <trkpt lat="47.58181" lon="-2.69276">
        <ele>5.5</ele>
        <time>2026-08-20T14:06:42Z</time>
      </trkpt>
      <trkpt lat="47.58177" lon="-2.69282">
        <ele>5.5</ele>
        <time>2026-08-20T14:06:43Z</time>
      </trkpt>
      <trkpt lat="47.58173" lon="-2.69287">
        <ele>5.5</ele>
        <time>2026-08-20T14:06:44Z</time>
      </trkpt>
      <trkpt lat="47.58169" lon="-2.69292">
        <ele>5.6</ele>
        <time>2026-08-20T14:06:45Z</time>
      </trkpt>
      <trkpt lat="47.58165" lon="-2.69296">
        <ele>5.7</ele>
        <time>2026-08-20T14:06:46Z</time>
      </trkpt>
      <trkpt lat="47.58161" lon="-2.693">
        <ele>5.8</ele>
        <time>2026-08-20T14:06:47Z</time>
      </trkpt>
      <trkpt lat="47.58157" lon="-2.69304">
        <ele>6</ele>
        <time>2026-08-20T14:06:48Z</time>
      </trkpt>
      <trkpt lat="47.58152" lon="-2.69308">
        <ele>6</ele>
        <time>2026-08-20T14:06:49Z</time>
      </trkpt>
      <trkpt lat="47.58148" lon="-2.69312">
        <ele>5.8</ele>
        <time>2026-08-20T14:06:50Z</time>
      </trkpt>
      <trkpt lat="47.58144" lon="-2.69316">
        <ele>5.7</ele>
        <time>2026-08-20T14:06:51Z</time>
      </trkpt>
      <trkpt lat="47.5814" lon="-2.6932">
        <ele>5.5</ele>
        <time>2026-08-20T14:06:52Z</time>
      </trkpt>
      <trkpt lat="47.58135" lon="-2.69323">
        <ele>5.5</ele>
        <time>2026-08-20T14:06:53Z</time>
      </trkpt>
      <trkpt lat="47.58131" lon="-2.69327">
        <ele>5.4</ele>
        <time>2026-08-20T14:06:54Z</time>
      </trkpt>
      <trkpt lat="47.58127" lon="-2.6933">
        <ele>5.5</ele>
        <time>2026-08-20T14:06:55Z</time>
      </trkpt>
      <trkpt lat="47.58122" lon="-2.69335">
        <ele>5.6</ele>
        <time>2026-08-20T14:06:56Z</time>
      </trkpt>
      <trkpt lat="47.58118" lon="-2.6934">
        <ele>5.6</ele>
        <time>2026-08-20T14:06:57Z</time>
      </trkpt>
      <trkpt lat="47.58113" lon="-2.69345">
        <ele>5.6</ele>
        <time>2026-08-20T14:06:58Z</time>
      </trkpt>
      <trkpt lat="47.5811" lon="-2.6935">
        <ele>5.4</ele>
        <time>2026-08-20T14:06:59Z</time>
      </trkpt>
      <trkpt lat="47.58106" lon="-2.69355">
        <ele>5.3</ele>
        <time>2026-08-20T14:07:00Z</time>
      </trkpt>
      <trkpt lat="47.58103" lon="-2.6936">
        <ele>5.1</ele>
        <time>2026-08-20T14:07:01Z</time>
      </trkpt>
      <trkpt lat="47.58099" lon="-2.69365">
        <ele>5</ele>
        <time>2026-08-20T14:07:02Z</time>
      </trkpt>
      <trkpt lat="47.58095" lon="-2.69371">
        <ele>4.9</ele>
        <time>2026-08-20T14:07:03Z</time>
      </trkpt>
      <trkpt lat="47.58092" lon="-2.69376">
        <ele>4.8</ele>
        <time>2026-08-20T14:07:04Z</time>
      </trkpt>
      <trkpt lat="47.58088" lon="-2.69382">
        <ele>4.5</ele>
        <time>2026-08-20T14:07:05Z</time>
      </trkpt>
      <trkpt lat="47.58085" lon="-2.69387">
        <ele>4.2</ele>
        <time>2026-08-20T14:07:06Z</time>
      </trkpt>
      <trkpt lat="47.58081" lon="-2.69393">
        <ele>4.1</ele>
        <time>2026-08-20T14:07:07Z</time>
      </trkpt>
      <trkpt lat="47.58077" lon="-2.69398">
        <ele>4.3</ele>
        <time>2026-08-20T14:07:08Z</time>
      </trkpt>
      <trkpt lat="47.58073" lon="-2.69403">
        <ele>4.3</ele>
        <time>2026-08-20T14:07:09Z</time>
      </trkpt>
      <trkpt lat="47.58069" lon="-2.69408">
        <ele>4.3</ele>
        <time>2026-08-20T14:07:10Z</time>
      </trkpt>
      <trkpt lat="47.58065" lon="-2.69412">
        <ele>4.3</ele>
        <time>2026-08-20T14:07:11Z</time>
      </trkpt>
      <trkpt lat="47.5806" lon="-2.69416">
        <ele>4.2</ele>
        <time>2026-08-20T14:07:12Z</time>
      </trkpt>
      <trkpt lat="47.58056" lon="-2.69419">
        <ele>4.1</ele>
        <time>2026-08-20T14:07:13Z</time>
      </trkpt>
      <trkpt lat="47.58052" lon="-2.69423">
        <ele>4.2</ele>
        <time>2026-08-20T14:07:14Z</time>
      </trkpt>
      <trkpt lat="47.58048" lon="-2.69426">
        <ele>4.2</ele>
        <time>2026-08-20T14:07:15Z</time>
      </trkpt>
      <trkpt lat="47.58044" lon="-2.6943">
        <ele>4.1</ele>
        <time>2026-08-20T14:07:16Z</time>
      </trkpt>
      <trkpt lat="47.58041" lon="-2.69435">
        <ele>4</ele>
        <time>2026-08-20T14:07:17Z</time>
      </trkpt>
      <trkpt lat="47.58037" lon="-2.69439">
        <ele>3.7</ele>
        <time>2026-08-20T14:07:18Z</time>
      </trkpt>
      <trkpt lat="47.58034" lon="-2.69443">
        <ele>3.5</ele>
        <time>2026-08-20T14:07:19Z</time>
      </trkpt>
      <trkpt lat="47.5803" lon="-2.69447">
        <ele>3.4</ele>
        <time>2026-08-20T14:07:20Z</time>
      </trkpt>
      <trkpt lat="47.58026" lon="-2.69451">
        <ele>3.7</ele>
        <time>2026-08-20T14:07:21Z</time>
      </trkpt>
      <trkpt lat="47.58022" lon="-2.69455">
        <ele>4.1</ele>
        <time>2026-08-20T14:07:22Z</time>
      </trkpt>
      <trkpt lat="47.58018" lon="-2.6946">
        <ele>4.4</ele>
        <time>2026-08-20T14:07:23Z</time>
      </trkpt>
      <trkpt lat="47.58014" lon="-2.69464">
        <ele>4.6</ele>
        <time>2026-08-20T14:07:24Z</time>
      </trkpt>
      <trkpt lat="47.5801" lon="-2.69469">
        <ele>4.6</ele>
        <time>2026-08-20T14:07:25Z</time>
      </trkpt>
      <trkpt lat="47.58006" lon="-2.69474">
        <ele>4.5</ele>
        <time>2026-08-20T14:07:26Z</time>
      </trkpt>
      <trkpt lat="47.58001" lon="-2.69479">
        <ele>4.5</ele>
        <time>2026-08-20T14:07:27Z</time>
      </trkpt>
      <trkpt lat="47.57998" lon="-2.69483">
        <ele>4.7</ele>
        <time>2026-08-20T14:07:28Z</time>
      </trkpt>
      <trkpt lat="47.57994" lon="-2.69487">
        <ele>4.8</ele>
        <time>2026-08-20T14:07:29Z</time>
      </trkpt>
      <trkpt lat="47.57992" lon="-2.69491">
        <ele>5</ele>
        <time>2026-08-20T14:07:30Z</time>
      </trkpt>
      <trkpt lat="47.57989" lon="-2.69495">
        <ele>5</ele>
        <time>2026-08-20T14:07:31Z</time>
      </trkpt>
      <trkpt lat="47.57986" lon="-2.69499">
        <ele>5</ele>
        <time>2026-08-20T14:07:32Z</time>
      </trkpt>
      <trkpt lat="47.57983" lon="-2.69502">
        <ele>4.8</ele>
        <time>2026-08-20T14:07:33Z</time>
      </trkpt>
      <trkpt lat="47.5798" lon="-2.69506">
        <ele>4.8</ele>
        <time>2026-08-20T14:07:34Z</time>
      </trkpt>
      <trkpt lat="47.57977" lon="-2.69509">
        <ele>4.8</ele>
        <time>2026-08-20T14:07:35Z</time>
      </trkpt>
      <trkpt lat="47.57975" lon="-2.69512">
        <ele>4.9</ele>
        <time>2026-08-20T14:07:36Z</time>
      </trkpt>
      <trkpt lat="47.57973" lon="-2.69516">
        <ele>5.2</ele>
        <time>2026-08-20T14:07:37Z</time>
      </trkpt>
      <trkpt lat="47.5797" lon="-2.69519">
        <ele>5.4</ele>
        <time>2026-08-20T14:07:38Z</time>
      </trkpt>
      <trkpt lat="47.57967" lon="-2.69522">
        <ele>5.8</ele>
        <time>2026-08-20T14:07:39Z</time>
      </trkpt>
      <trkpt lat="47.57965" lon="-2.69526">
        <ele>6.1</ele>
        <time>2026-08-20T14:07:40Z</time>
      </trkpt>
      <trkpt lat="47.57962" lon="-2.69528">
        <ele>6.4</ele>
        <time>2026-08-20T14:07:41Z</time>
      </trkpt>
      <trkpt lat="47.5796" lon="-2.69531">
        <ele>6.4</ele>
        <time>2026-08-20T14:07:42Z</time>
      </trkpt>
      <trkpt lat="47.57957" lon="-2.69534">
        <ele>6.5</ele>
        <time>2026-08-20T14:07:43Z</time>
      </trkpt>
      <trkpt lat="47.57954" lon="-2.69537">
        <ele>6.7</ele>
        <time>2026-08-20T14:07:44Z</time>
      </trkpt>
      <trkpt lat="47.57952" lon="-2.69541">
        <ele>6.7</ele>
        <time>2026-08-20T14:07:45Z</time>
      </trkpt>
      <trkpt lat="47.57949" lon="-2.69544">
        <ele>6.8</ele>
        <time>2026-08-20T14:07:46Z</time>
      </trkpt>
      <trkpt lat="47.57947" lon="-2.69547">
        <ele>6.9</ele>
        <time>2026-08-20T14:07:47Z</time>
      </trkpt>
      <trkpt lat="47.57945" lon="-2.6955">
        <ele>7</ele>
        <time>2026-08-20T14:07:48Z</time>
      </trkpt>
      <trkpt lat="47.57942" lon="-2.69552">
        <ele>7.1</ele>
        <time>2026-08-20T14:07:49Z</time>
      </trkpt>
      <trkpt lat="47.57939" lon="-2.69555">
        <ele>7.2</ele>
        <time>2026-08-20T14:07:50Z</time>
      </trkpt>
      <trkpt lat="47.57937" lon="-2.69558">
        <ele>7.3</ele>
        <time>2026-08-20T14:07:51Z</time>
      </trkpt>
      <trkpt lat="47.57934" lon="-2.69561">
        <ele>7.4</ele>
        <time>2026-08-20T14:07:52Z</time>
      </trkpt>
      <trkpt lat="47.57931" lon="-2.69564">
        <ele>7.6</ele>
        <time>2026-08-20T14:07:53Z</time>
      </trkpt>
      <trkpt lat="47.57929" lon="-2.69567">
        <ele>7.8</ele>
        <time>2026-08-20T14:07:54Z</time>
      </trkpt>
      <trkpt lat="47.57926" lon="-2.6957">
        <ele>8</ele>
        <time>2026-08-20T14:07:55Z</time>
      </trkpt>
      <trkpt lat="47.57924" lon="-2.69573">
        <ele>8.2</ele>
        <time>2026-08-20T14:07:56Z</time>
      </trkpt>
      <trkpt lat="47.57921" lon="-2.69576">
        <ele>8.5</ele>
        <time>2026-08-20T14:07:57Z</time>
      </trkpt>
      <trkpt lat="47.57919" lon="-2.6958">
        <ele>8.7</ele>
        <time>2026-08-20T14:07:58Z</time>
      </trkpt>
      <trkpt lat="47.57916" lon="-2.69583">
        <ele>9</ele>
        <time>2026-08-20T14:07:59Z</time>
      </trkpt>
      <trkpt lat="47.57913" lon="-2.69586">
        <ele>8.8</ele>
        <time>2026-08-20T14:08:00Z</time>
      </trkpt>
      <trkpt lat="47.5791" lon="-2.69589">
        <ele>8.7</ele>
        <time>2026-08-20T14:08:01Z</time>
      </trkpt>
      <trkpt lat="47.57908" lon="-2.69592">
        <ele>8.6</ele>
        <time>2026-08-20T14:08:02Z</time>
      </trkpt>
      <trkpt lat="47.57905" lon="-2.69596">
        <ele>8.5</ele>
        <time>2026-08-20T14:08:03Z</time>
      </trkpt>
      <trkpt lat="47.57902" lon="-2.69599">
        <ele>8.5</ele>
        <time>2026-08-20T14:08:04Z</time>
      </trkpt>
      <trkpt lat="47.579" lon="-2.69602">
        <ele>8.5</ele>
        <time>2026-08-20T14:08:05Z</time>
      </trkpt>
      <trkpt lat="47.57898" lon="-2.69605">
        <ele>8.6</ele>
        <time>2026-08-20T14:08:06Z</time>
      </trkpt>
      <trkpt lat="47.57895" lon="-2.69609">
        <ele>8.7</ele>
        <time>2026-08-20T14:08:07Z</time>
      </trkpt>
      <trkpt lat="47.57892" lon="-2.69612">
        <ele>8.9</ele>
        <time>2026-08-20T14:08:08Z</time>
      </trkpt>
      <trkpt lat="47.5789" lon="-2.69616">
        <ele>8.8</ele>
        <time>2026-08-20T14:08:09Z</time>
      </trkpt>
      <trkpt lat="47.57887" lon="-2.69619">
        <ele>8.7</ele>
        <time>2026-08-20T14:08:10Z</time>
      </trkpt>
      <trkpt lat="47.57884" lon="-2.69623">
        <ele>8.5</ele>
        <time>2026-08-20T14:08:11Z</time>
      </trkpt>
      <trkpt lat="47.57882" lon="-2.69627">
        <ele>8.5</ele>
        <time>2026-08-20T14:08:12Z</time>
      </trkpt>
      <trkpt lat="47.57879" lon="-2.6963">
        <ele>8.4</ele>
        <time>2026-08-20T14:08:13Z</time>
      </trkpt>
      <trkpt lat="47.57876" lon="-2.69633">
        <ele>8.5</ele>
        <time>2026-08-20T14:08:14Z</time>
      </trkpt>
      <trkpt lat="47.57874" lon="-2.69637">
        <ele>8.5</ele>
        <time>2026-08-20T14:08:15Z</time>
      </trkpt>
      <trkpt lat="47.57871" lon="-2.6964">
        <ele>8.7</ele>
        <time>2026-08-20T14:08:16Z</time>
      </trkpt>
      <trkpt lat="47.57868" lon="-2.69644">
        <ele>8.8</ele>
        <time>2026-08-20T14:08:17Z</time>
      </trkpt>
      <trkpt lat="47.57866" lon="-2.69647">
        <ele>8.9</ele>
        <time>2026-08-20T14:08:18Z</time>
      </trkpt>
      <trkpt lat="47.57863" lon="-2.69651">
        <ele>9</ele>
        <time>2026-08-20T14:08:19Z</time>
      </trkpt>
      <trkpt lat="47.57861" lon="-2.69654">
        <ele>9</ele>
        <time>2026-08-20T14:08:20Z</time>
      </trkpt>
      <trkpt lat="47.57859" lon="-2.69658">
        <ele>9</ele>
        <time>2026-08-20T14:08:21Z</time>
      </trkpt>
      <trkpt lat="47.57856" lon="-2.69662">
        <ele>9</ele>
        <time>2026-08-20T14:08:22Z</time>
      </trkpt>
      <trkpt lat="47.57854" lon="-2.69666">
        <ele>9</ele>
        <time>2026-08-20T14:08:23Z</time>
      </trkpt>
      <trkpt lat="47.57851" lon="-2.69669">
        <ele>9</ele>
        <time>2026-08-20T14:08:24Z</time>
      </trkpt>
      <trkpt lat="47.57849" lon="-2.69672">
        <ele>9</ele>
        <time>2026-08-20T14:08:25Z</time>
      </trkpt>
      <trkpt lat="47.57846" lon="-2.69675">
        <ele>9</ele>
        <time>2026-08-20T14:08:26Z</time>
      </trkpt>
      <trkpt lat="47.57843" lon="-2.69678">
        <ele>9</ele>
        <time>2026-08-20T14:08:27Z</time>
      </trkpt>
      <trkpt lat="47.57841" lon="-2.69681">
        <ele>9</ele>
        <time>2026-08-20T14:08:28Z</time>
      </trkpt>
      <trkpt lat="47.57838" lon="-2.69685">
        <ele>9</ele>
        <time>2026-08-20T14:08:29Z</time>
      </trkpt>
      <trkpt lat="47.57835" lon="-2.69689">
        <ele>9</ele>
        <time>2026-08-20T14:08:30Z</time>
      </trkpt>
      <trkpt lat="47.57833" lon="-2.69692">
        <ele>9</ele>
        <time>2026-08-20T14:08:31Z</time>
      </trkpt>
      <trkpt lat="47.5783" lon="-2.69696">
        <ele>9</ele>
        <time>2026-08-20T14:08:32Z</time>
      </trkpt>
      <trkpt lat="47.57828" lon="-2.69699">
        <ele>9</ele>
        <time>2026-08-20T14:08:33Z</time>
      </trkpt>
      <trkpt lat="47.57826" lon="-2.69702">
        <ele>9.1</ele>
        <time>2026-08-20T14:08:34Z</time>
      </trkpt>
      <trkpt lat="47.57823" lon="-2.69706">
        <ele>9.2</ele>
        <time>2026-08-20T14:08:35Z</time>
      </trkpt>
      <trkpt lat="47.5782" lon="-2.69709">
        <ele>9.3</ele>
        <time>2026-08-20T14:08:36Z</time>
      </trkpt>
      <trkpt lat="47.57818" lon="-2.69712">
        <ele>9.3</ele>
        <time>2026-08-20T14:08:37Z</time>
      </trkpt>
      <trkpt lat="47.57815" lon="-2.69716">
        <ele>9.5</ele>
        <time>2026-08-20T14:08:38Z</time>
      </trkpt>
      <trkpt lat="47.57813" lon="-2.69719">
        <ele>9.6</ele>
        <time>2026-08-20T14:08:39Z</time>
      </trkpt>
      <trkpt lat="47.5781" lon="-2.69722">
        <ele>9.8</ele>
        <time>2026-08-20T14:08:40Z</time>
      </trkpt>
      <trkpt lat="47.57807" lon="-2.69726">
        <ele>9.9</ele>
        <time>2026-08-20T14:08:41Z</time>
      </trkpt>
      <trkpt lat="47.57805" lon="-2.69729">
        <ele>10</ele>
        <time>2026-08-20T14:08:42Z</time>
      </trkpt>
      <trkpt lat="47.57802" lon="-2.69733">
        <ele>10</ele>
        <time>2026-08-20T14:08:43Z</time>
      </trkpt>
      <trkpt lat="47.578" lon="-2.69736">
        <ele>10</ele>
        <time>2026-08-20T14:08:44Z</time>
      </trkpt>
      <trkpt lat="47.57797" lon="-2.69739">
        <ele>10</ele>
        <time>2026-08-20T14:08:45Z</time>
      </trkpt>
      <trkpt lat="47.57795" lon="-2.69742">
        <ele>10</ele>
        <time>2026-08-20T14:08:46Z</time>
      </trkpt>
      <trkpt lat="47.57792" lon="-2.69745">
        <ele>10</ele>
        <time>2026-08-20T14:08:47Z</time>
      </trkpt>
      <trkpt lat="47.5779" lon="-2.69749">
        <ele>10</ele>
        <time>2026-08-20T14:08:48Z</time>
      </trkpt>
      <trkpt lat="47.57787" lon="-2.69752">
        <ele>10</ele>
        <time>2026-08-20T14:08:49Z</time>
      </trkpt>
      <trkpt lat="47.57784" lon="-2.69756">
        <ele>10</ele>
        <time>2026-08-20T14:08:50Z</time>
      </trkpt>
      <trkpt lat="47.57782" lon="-2.69759">
        <ele>10</ele>
        <time>2026-08-20T14:08:51Z</time>
      </trkpt>
      <trkpt lat="47.57779" lon="-2.69762">
        <ele>10</ele>
        <time>2026-08-20T14:08:52Z</time>
      </trkpt>
      <trkpt lat="47.57777" lon="-2.69765">
        <ele>10</ele>
        <time>2026-08-20T14:08:53Z</time>
      </trkpt>
      <trkpt lat="47.57775" lon="-2.69768">
        <ele>10.1</ele>
        <time>2026-08-20T14:08:54Z</time>
      </trkpt>
      <trkpt lat="47.57772" lon="-2.69771">
        <ele>10.2</ele>
        <time>2026-08-20T14:08:55Z</time>
      </trkpt>
      <trkpt lat="47.57769" lon="-2.69774">
        <ele>10.3</ele>
        <time>2026-08-20T14:08:56Z</time>
      </trkpt>
      <trkpt lat="47.57767" lon="-2.69777">
        <ele>10.4</ele>
        <time>2026-08-20T14:08:57Z</time>
      </trkpt>
      <trkpt lat="47.57765" lon="-2.69781">
        <ele>10.5</ele>
        <time>2026-08-20T14:08:58Z</time>
      </trkpt>
      <trkpt lat="47.57762" lon="-2.69784">
        <ele>10.6</ele>
        <time>2026-08-20T14:08:59Z</time>
      </trkpt>
      <trkpt lat="47.5776" lon="-2.69787">
        <ele>10.6</ele>
        <time>2026-08-20T14:09:00Z</time>
      </trkpt>
      <trkpt lat="47.57757" lon="-2.6979">
        <ele>10.7</ele>
        <time>2026-08-20T14:09:01Z</time>
      </trkpt>
      <trkpt lat="47.57755" lon="-2.69793">
        <ele>10.8</ele>
        <time>2026-08-20T14:09:02Z</time>
      </trkpt>
      <trkpt lat="47.57752" lon="-2.69797">
        <ele>10.9</ele>
        <time>2026-08-20T14:09:03Z</time>
      </trkpt>
      <trkpt lat="47.5775" lon="-2.698">
        <ele>11</ele>
        <time>2026-08-20T14:09:04Z</time>
      </trkpt>
      <trkpt lat="47.57748" lon="-2.69803">
        <ele>11.1</ele>
        <time>2026-08-20T14:09:05Z</time>
      </trkpt>
      <trkpt lat="47.57745" lon="-2.69806">
        <ele>11.3</ele>
        <time>2026-08-20T14:09:06Z</time>
      </trkpt>
      <trkpt lat="47.57743" lon="-2.69809">
        <ele>11.4</ele>
        <time>2026-08-20T14:09:07Z</time>
      </trkpt>
      <trkpt lat="47.57741" lon="-2.69812">
        <ele>11.5</ele>
        <time>2026-08-20T14:09:08Z</time>
      </trkpt>
      <trkpt lat="47.57738" lon="-2.69815">
        <ele>11.7</ele>
        <time>2026-08-20T14:09:09Z</time>
      </trkpt>
      <trkpt lat="47.57736" lon="-2.69818">
        <ele>11.8</ele>
        <time>2026-08-20T14:09:10Z</time>
      </trkpt>
      <trkpt lat="47.57734" lon="-2.6982">
        <ele>11.9</ele>
        <time>2026-08-20T14:09:11Z</time>
      </trkpt>
      <trkpt lat="47.57731" lon="-2.69824">
        <ele>12.2</ele>
        <time>2026-08-20T14:09:12Z</time>
      </trkpt>
      <trkpt lat="47.57728" lon="-2.69828">
        <ele>12.4</ele>
        <time>2026-08-20T14:09:13Z</time>
      </trkpt>
      <trkpt lat="47.57726" lon="-2.69831">
        <ele>12.6</ele>
        <time>2026-08-20T14:09:14Z</time>
      </trkpt>
      <trkpt lat="47.57723" lon="-2.69835">
        <ele>12.8</ele>
        <time>2026-08-20T14:09:15Z</time>
      </trkpt>
      <trkpt lat="47.57721" lon="-2.69838">
        <ele>12.7</ele>
        <time>2026-08-20T14:09:16Z</time>
      </trkpt>
      <trkpt lat="47.57719" lon="-2.69841">
        <ele>12.6</ele>
        <time>2026-08-20T14:09:17Z</time>
      </trkpt>
      <trkpt lat="47.57716" lon="-2.69845">
        <ele>12.6</ele>
        <time>2026-08-20T14:09:18Z</time>
      </trkpt>
      <trkpt lat="47.57714" lon="-2.69848">
        <ele>12.6</ele>
        <time>2026-08-20T14:09:19Z</time>
      </trkpt>
      <trkpt lat="47.57711" lon="-2.69851">
        <ele>12.6</ele>
        <time>2026-08-20T14:09:20Z</time>
      </trkpt>
      <trkpt lat="47.57709" lon="-2.69854">
        <ele>12.7</ele>
        <time>2026-08-20T14:09:21Z</time>
      </trkpt>
      <trkpt lat="47.57706" lon="-2.69857">
        <ele>12.9</ele>
        <time>2026-08-20T14:09:22Z</time>
      </trkpt>
      <trkpt lat="47.57704" lon="-2.69861">
        <ele>13</ele>
        <time>2026-08-20T14:09:23Z</time>
      </trkpt>
      <trkpt lat="47.57702" lon="-2.69864">
        <ele>13.1</ele>
        <time>2026-08-20T14:09:24Z</time>
      </trkpt>
      <trkpt lat="47.57699" lon="-2.69867">
        <ele>13.2</ele>
        <time>2026-08-20T14:09:25Z</time>
      </trkpt>
      <trkpt lat="47.57696" lon="-2.6987">
        <ele>13.3</ele>
        <time>2026-08-20T14:09:26Z</time>
      </trkpt>
      <trkpt lat="47.57694" lon="-2.69873">
        <ele>13.2</ele>
        <time>2026-08-20T14:09:27Z</time>
      </trkpt>
      <trkpt lat="47.57692" lon="-2.69876">
        <ele>13.1</ele>
        <time>2026-08-20T14:09:28Z</time>
      </trkpt>
      <trkpt lat="47.57689" lon="-2.69879">
        <ele>13.2</ele>
        <time>2026-08-20T14:09:29Z</time>
      </trkpt>
      <trkpt lat="47.57687" lon="-2.69882">
        <ele>13.2</ele>
        <time>2026-08-20T14:09:30Z</time>
      </trkpt>
      <trkpt lat="47.57684" lon="-2.69885">
        <ele>13.3</ele>
        <time>2026-08-20T14:09:31Z</time>
      </trkpt>
      <trkpt lat="47.57682" lon="-2.69889">
        <ele>13.3</ele>
        <time>2026-08-20T14:09:32Z</time>
      </trkpt>
      <trkpt lat="47.5768" lon="-2.69891">
        <ele>13.6</ele>
        <time>2026-08-20T14:09:33Z</time>
      </trkpt>
      <trkpt lat="47.57677" lon="-2.69895">
        <ele>13.8</ele>
        <time>2026-08-20T14:09:34Z</time>
      </trkpt>
      <trkpt lat="47.57675" lon="-2.69898">
        <ele>14</ele>
        <time>2026-08-20T14:09:35Z</time>
      </trkpt>
      <trkpt lat="47.57672" lon="-2.69901">
        <ele>14.2</ele>
        <time>2026-08-20T14:09:36Z</time>
      </trkpt>
      <trkpt lat="47.5767" lon="-2.69904">
        <ele>14.2</ele>
        <time>2026-08-20T14:09:37Z</time>
      </trkpt>
      <trkpt lat="47.57668" lon="-2.69907">
        <ele>14.3</ele>
        <time>2026-08-20T14:09:38Z</time>
      </trkpt>
      <trkpt lat="47.57665" lon="-2.6991">
        <ele>14.3</ele>
        <time>2026-08-20T14:09:39Z</time>
      </trkpt>
      <trkpt lat="47.57663" lon="-2.69913">
        <ele>14.2</ele>
        <time>2026-08-20T14:09:40Z</time>
      </trkpt>
      <trkpt lat="47.5766" lon="-2.69917">
        <ele>14.2</ele>
        <time>2026-08-20T14:09:41Z</time>
      </trkpt>
      <trkpt lat="47.57658" lon="-2.6992">
        <ele>14.1</ele>
        <time>2026-08-20T14:09:42Z</time>
      </trkpt>
      <trkpt lat="47.57655" lon="-2.69924">
        <ele>14.1</ele>
        <time>2026-08-20T14:09:43Z</time>
      </trkpt>
      <trkpt lat="47.57653" lon="-2.69927">
        <ele>14.1</ele>
        <time>2026-08-20T14:09:44Z</time>
      </trkpt>
      <trkpt lat="47.5765" lon="-2.6993">
        <ele>14.2</ele>
        <time>2026-08-20T14:09:45Z</time>
      </trkpt>
      <trkpt lat="47.57648" lon="-2.69934">
        <ele>14.3</ele>
        <time>2026-08-20T14:09:46Z</time>
      </trkpt>
      <trkpt lat="47.57645" lon="-2.69937">
        <ele>14.5</ele>
        <time>2026-08-20T14:09:47Z</time>
      </trkpt>
      <trkpt lat="47.57642" lon="-2.69941">
        <ele>14.7</ele>
        <time>2026-08-20T14:09:48Z</time>
      </trkpt>
      <trkpt lat="47.5764" lon="-2.69944">
        <ele>14.9</ele>
        <time>2026-08-20T14:09:49Z</time>
      </trkpt>
      <trkpt lat="47.57637" lon="-2.69948">
        <ele>14.8</ele>
        <time>2026-08-20T14:09:50Z</time>
      </trkpt>
      <trkpt lat="47.57634" lon="-2.69951">
        <ele>14.8</ele>
        <time>2026-08-20T14:09:51Z</time>
      </trkpt>
      <trkpt lat="47.57631" lon="-2.69955">
        <ele>14.7</ele>
        <time>2026-08-20T14:09:52Z</time>
      </trkpt>
      <trkpt lat="47.57629" lon="-2.69959">
        <ele>14.7</ele>
        <time>2026-08-20T14:09:53Z</time>
      </trkpt>
      <trkpt lat="47.57626" lon="-2.69962">
        <ele>14.8</ele>
        <time>2026-08-20T14:09:54Z</time>
      </trkpt>
      <trkpt lat="47.57623" lon="-2.69966">
        <ele>14.9</ele>
        <time>2026-08-20T14:09:55Z</time>
      </trkpt>
      <trkpt lat="47.5762" lon="-2.6997">
        <ele>15.1</ele>
        <time>2026-08-20T14:09:56Z</time>
      </trkpt>
      <trkpt lat="47.57617" lon="-2.69974">
        <ele>15.3</ele>
        <time>2026-08-20T14:09:57Z</time>
      </trkpt>
      <trkpt lat="47.57615" lon="-2.69978">
        <ele>15.3</ele>
        <time>2026-08-20T14:09:58Z</time>
      </trkpt>
      <trkpt lat="47.57612" lon="-2.69982">
        <ele>15.2</ele>
        <time>2026-08-20T14:09:59Z</time>
      </trkpt>
      <trkpt lat="47.57609" lon="-2.69986">
        <ele>15.1</ele>
        <time>2026-08-20T14:10:00Z</time>
      </trkpt>
      <trkpt lat="47.57606" lon="-2.6999">
        <ele>15</ele>
        <time>2026-08-20T14:10:01Z</time>
      </trkpt>
      <trkpt lat="47.57603" lon="-2.69994">
        <ele>14.9</ele>
        <time>2026-08-20T14:10:02Z</time>
      </trkpt>
      <trkpt lat="47.576" lon="-2.69998">
        <ele>14.9</ele>
        <time>2026-08-20T14:10:03Z</time>
      </trkpt>
      <trkpt lat="47.57597" lon="-2.70003">
        <ele>14.9</ele>
        <time>2026-08-20T14:10:04Z</time>
      </trkpt>
      <trkpt lat="47.57594" lon="-2.70007">
        <ele>15</ele>
        <time>2026-08-20T14:10:05Z</time>
      </trkpt>
      <trkpt lat="47.57591" lon="-2.70012">
        <ele>15</ele>
        <time>2026-08-20T14:10:06Z</time>
      </trkpt>
      <trkpt lat="47.57587" lon="-2.70016">
        <ele>15.2</ele>
        <time>2026-08-20T14:10:07Z</time>
      </trkpt>
      <trkpt lat="47.57584" lon="-2.7002">
        <ele>15.2</ele>
        <time>2026-08-20T14:10:08Z</time>
      </trkpt>
      <trkpt lat="47.57581" lon="-2.70025">
        <ele>15.1</ele>
        <time>2026-08-20T14:10:09Z</time>
      </trkpt>
      <trkpt lat="47.57578" lon="-2.7003">
        <ele>14.9</ele>
        <time>2026-08-20T14:10:10Z</time>
      </trkpt>
      <trkpt lat="47.57575" lon="-2.70034">
        <ele>14.7</ele>
        <time>2026-08-20T14:10:11Z</time>
      </trkpt>
      <trkpt lat="47.57572" lon="-2.70039">
        <ele>14.5</ele>
        <time>2026-08-20T14:10:12Z</time>
      </trkpt>
      <trkpt lat="47.57569" lon="-2.70043">
        <ele>14.5</ele>
        <time>2026-08-20T14:10:13Z</time>
      </trkpt>
      <trkpt lat="47.57566" lon="-2.70048">
        <ele>14.5</ele>
        <time>2026-08-20T14:10:14Z</time>
      </trkpt>
      <trkpt lat="47.57562" lon="-2.70052">
        <ele>14.6</ele>
        <time>2026-08-20T14:10:15Z</time>
      </trkpt>
      <trkpt lat="47.5756" lon="-2.70056">
        <ele>14.7</ele>
        <time>2026-08-20T14:10:16Z</time>
      </trkpt>
      <trkpt lat="47.57556" lon="-2.70062">
        <ele>14.5</ele>
        <time>2026-08-20T14:10:17Z</time>
      </trkpt>
      <trkpt lat="47.57552" lon="-2.70066">
        <ele>14.2</ele>
        <time>2026-08-20T14:10:18Z</time>
      </trkpt>
      <trkpt lat="47.57549" lon="-2.70071">
        <ele>13.9</ele>
        <time>2026-08-20T14:10:19Z</time>
      </trkpt>
      <trkpt lat="47.57546" lon="-2.70075">
        <ele>13.7</ele>
        <time>2026-08-20T14:10:20Z</time>
      </trkpt>
      <trkpt lat="47.57542" lon="-2.7008">
        <ele>13.6</ele>
        <time>2026-08-20T14:10:21Z</time>
      </trkpt>
      <trkpt lat="47.57538" lon="-2.70085">
        <ele>13.7</ele>
        <time>2026-08-20T14:10:22Z</time>
      </trkpt>
      <trkpt lat="47.57535" lon="-2.7009">
        <ele>13.8</ele>
        <time>2026-08-20T14:10:23Z</time>
      </trkpt>
      <trkpt lat="47.57531" lon="-2.70095">
        <ele>13.9</ele>
        <time>2026-08-20T14:10:24Z</time>
      </trkpt>
      <trkpt lat="47.57527" lon="-2.701">
        <ele>14</ele>
        <time>2026-08-20T14:10:25Z</time>
      </trkpt>
      <trkpt lat="47.57524" lon="-2.70105">
        <ele>14</ele>
        <time>2026-08-20T14:10:26Z</time>
      </trkpt>
      <trkpt lat="47.5752" lon="-2.70111">
        <ele>14</ele>
        <time>2026-08-20T14:10:27Z</time>
      </trkpt>
      <trkpt lat="47.57516" lon="-2.70116">
        <ele>14</ele>
        <time>2026-08-20T14:10:28Z</time>
      </trkpt>
      <trkpt lat="47.57513" lon="-2.70121">
        <ele>14</ele>
        <time>2026-08-20T14:10:29Z</time>
      </trkpt>
      <trkpt lat="47.57509" lon="-2.70126">
        <ele>14</ele>
        <time>2026-08-20T14:10:30Z</time>
      </trkpt>
      <trkpt lat="47.57505" lon="-2.70132">
        <ele>14</ele>
        <time>2026-08-20T14:10:31Z</time>
      </trkpt>
      <trkpt lat="47.57501" lon="-2.70137">
        <ele>14</ele>
        <time>2026-08-20T14:10:32Z</time>
      </trkpt>
      <trkpt lat="47.57497" lon="-2.70143">
        <ele>13.9</ele>
        <time>2026-08-20T14:10:33Z</time>
      </trkpt>
      <trkpt lat="47.57493" lon="-2.70148">
        <ele>13.7</ele>
        <time>2026-08-20T14:10:34Z</time>
      </trkpt>
      <trkpt lat="47.57489" lon="-2.70154">
        <ele>13.6</ele>
        <time>2026-08-20T14:10:35Z</time>
      </trkpt>
      <trkpt lat="47.57485" lon="-2.70159">
        <ele>13.5</ele>
        <time>2026-08-20T14:10:36Z</time>
      </trkpt>
      <trkpt lat="47.57481" lon="-2.70165">
        <ele>13.3</ele>
        <time>2026-08-20T14:10:37Z</time>
      </trkpt>
      <trkpt lat="47.57477" lon="-2.70169">
        <ele>13.2</ele>
        <time>2026-08-20T14:10:38Z</time>
      </trkpt>
      <trkpt lat="47.57472" lon="-2.70175">
        <ele>13</ele>
        <time>2026-08-20T14:10:39Z</time>
      </trkpt>
      <trkpt lat="47.57468" lon="-2.7018">
        <ele>12.9</ele>
        <time>2026-08-20T14:10:40Z</time>
      </trkpt>
      <trkpt lat="47.57464" lon="-2.70186">
        <ele>12.8</ele>
        <time>2026-08-20T14:10:41Z</time>
      </trkpt>
      <trkpt lat="47.5746" lon="-2.70191">
        <ele>12.6</ele>
        <time>2026-08-20T14:10:42Z</time>
      </trkpt>
      <trkpt lat="47.57456" lon="-2.70197">
        <ele>12.4</ele>
        <time>2026-08-20T14:10:43Z</time>
      </trkpt>
      <trkpt lat="47.57452" lon="-2.70203">
        <ele>12.2</ele>
        <time>2026-08-20T14:10:44Z</time>
      </trkpt>
      <trkpt lat="47.57448" lon="-2.70208">
        <ele>12.1</ele>
        <time>2026-08-20T14:10:45Z</time>
      </trkpt>
      <trkpt lat="47.57444" lon="-2.70214">
        <ele>12</ele>
        <time>2026-08-20T14:10:46Z</time>
      </trkpt>
      <trkpt lat="47.5744" lon="-2.70218">
        <ele>12</ele>
        <time>2026-08-20T14:10:47Z</time>
      </trkpt>
      <trkpt lat="47.57436" lon="-2.70222">
        <ele>12</ele>
        <time>2026-08-20T14:10:48Z</time>
      </trkpt>
      <trkpt lat="47.57431" lon="-2.70228">
        <ele>12</ele>
        <time>2026-08-20T14:10:49Z</time>
      </trkpt>
      <trkpt lat="47.57426" lon="-2.70234">
        <ele>12</ele>
        <time>2026-08-20T14:10:50Z</time>
      </trkpt>
      <trkpt lat="47.57422" lon="-2.70239">
        <ele>12</ele>
        <time>2026-08-20T14:10:51Z</time>
      </trkpt>
      <trkpt lat="47.57417" lon="-2.70244">
        <ele>12</ele>
        <time>2026-08-20T14:10:52Z</time>
      </trkpt>
      <trkpt lat="47.57411" lon="-2.70249">
        <ele>12</ele>
        <time>2026-08-20T14:10:53Z</time>
      </trkpt>
      <trkpt lat="47.57407" lon="-2.70254">
        <ele>12.1</ele>
        <time>2026-08-20T14:10:54Z</time>
      </trkpt>
      <trkpt lat="47.57404" lon="-2.70259">
        <ele>12.2</ele>
        <time>2026-08-20T14:10:55Z</time>
      </trkpt>
      <trkpt lat="47.574" lon="-2.70263">
        <ele>12.2</ele>
        <time>2026-08-20T14:10:56Z</time>
      </trkpt>
      <trkpt lat="47.57396" lon="-2.70268">
        <ele>12.2</ele>
        <time>2026-08-20T14:10:57Z</time>
      </trkpt>
      <trkpt lat="47.57393" lon="-2.70272">
        <ele>12.1</ele>
        <time>2026-08-20T14:10:58Z</time>
      </trkpt>
      <trkpt lat="47.57388" lon="-2.70277">
        <ele>12</ele>
        <time>2026-08-20T14:10:59Z</time>
      </trkpt>
      <trkpt lat="47.57384" lon="-2.70281">
        <ele>12.1</ele>
        <time>2026-08-20T14:11:00Z</time>
      </trkpt>
      <trkpt lat="47.57379" lon="-2.70286">
        <ele>12.1</ele>
        <time>2026-08-20T14:11:01Z</time>
      </trkpt>
      <trkpt lat="47.57376" lon="-2.7029">
        <ele>12</ele>
        <time>2026-08-20T14:11:02Z</time>
      </trkpt>
      <trkpt lat="47.57372" lon="-2.70294">
        <ele>11.9</ele>
        <time>2026-08-20T14:11:03Z</time>
      </trkpt>
      <trkpt lat="47.57369" lon="-2.70298">
        <ele>11.7</ele>
        <time>2026-08-20T14:11:04Z</time>
      </trkpt>
      <trkpt lat="47.57366" lon="-2.70302">
        <ele>11.4</ele>
        <time>2026-08-20T14:11:05Z</time>
      </trkpt>
      <trkpt lat="47.57362" lon="-2.70306">
        <ele>11.1</ele>
        <time>2026-08-20T14:11:06Z</time>
      </trkpt>
      <trkpt lat="47.57358" lon="-2.7031">
        <ele>11.4</ele>
        <time>2026-08-20T14:11:07Z</time>
      </trkpt>
      <trkpt lat="47.57355" lon="-2.70313">
        <ele>11.6</ele>
        <time>2026-08-20T14:11:08Z</time>
      </trkpt>
      <trkpt lat="47.57351" lon="-2.70316">
        <ele>11.7</ele>
        <time>2026-08-20T14:11:09Z</time>
      </trkpt>
      <trkpt lat="47.57348" lon="-2.70319">
        <ele>11.8</ele>
        <time>2026-08-20T14:11:10Z</time>
      </trkpt>
      <trkpt lat="47.57344" lon="-2.70322">
        <ele>11.7</ele>
        <time>2026-08-20T14:11:11Z</time>
      </trkpt>
      <trkpt lat="47.57342" lon="-2.70325">
        <ele>11.6</ele>
        <time>2026-08-20T14:11:12Z</time>
      </trkpt>
      <trkpt lat="47.5734" lon="-2.70328">
        <ele>11.5</ele>
        <time>2026-08-20T14:11:13Z</time>
      </trkpt>
      <trkpt lat="47.5734" lon="-2.70332">
        <ele>11.5</ele>
        <time>2026-08-20T14:11:14Z</time>
      </trkpt>
      <trkpt lat="47.5734" lon="-2.70336">
        <ele>11.6</ele>
        <time>2026-08-20T14:11:15Z</time>
      </trkpt>
      <trkpt lat="47.57342" lon="-2.70339">
        <ele>11.7</ele>
        <time>2026-08-20T14:11:16Z</time>
      </trkpt>
      <trkpt lat="47.57343" lon="-2.70342">
        <ele>11.8</ele>
        <time>2026-08-20T14:11:17Z</time>
      </trkpt>
      <trkpt lat="47.57345" lon="-2.70344">
        <ele>11.8</ele>
        <time>2026-08-20T14:11:18Z</time>
      </trkpt>
      <trkpt lat="47.57346" lon="-2.70346">
        <ele>11.8</ele>
        <time>2026-08-20T14:11:19Z</time>
      </trkpt>
      <trkpt lat="47.57348" lon="-2.70349">
        <ele>11.7</ele>
        <time>2026-08-20T14:11:20Z</time>
      </trkpt>
      <trkpt lat="47.5735" lon="-2.70353">
        <ele>11.5</ele>
        <time>2026-08-20T14:11:21Z</time>
      </trkpt>
      <trkpt lat="47.57352" lon="-2.70358">
        <ele>11.1</ele>
        <time>2026-08-20T14:11:22Z</time>
      </trkpt>
      <trkpt lat="47.57354" lon="-2.70363">
        <ele>10.8</ele>
        <time>2026-08-20T14:11:23Z</time>
      </trkpt>
      <trkpt lat="47.57355" lon="-2.70369">
        <ele>10.8</ele>
        <time>2026-08-20T14:11:24Z</time>
      </trkpt>
      <trkpt lat="47.57357" lon="-2.70374">
        <ele>10.8</ele>
        <time>2026-08-20T14:11:25Z</time>
      </trkpt>
      <trkpt lat="47.57359" lon="-2.70379">
        <ele>10.8</ele>
        <time>2026-08-20T14:11:26Z</time>
      </trkpt>
      <trkpt lat="47.57361" lon="-2.70383">
        <ele>10.8</ele>
        <time>2026-08-20T14:11:27Z</time>
      </trkpt>
      <trkpt lat="47.57363" lon="-2.70388">
        <ele>11</ele>
        <time>2026-08-20T14:11:28Z</time>
      </trkpt>
      <trkpt lat="47.57366" lon="-2.70393">
        <ele>11.1</ele>
        <time>2026-08-20T14:11:29Z</time>
      </trkpt>
      <trkpt lat="47.57368" lon="-2.70398">
        <ele>11.2</ele>
        <time>2026-08-20T14:11:30Z</time>
      </trkpt>
      <trkpt lat="47.57371" lon="-2.70403">
        <ele>11.3</ele>
        <time>2026-08-20T14:11:31Z</time>
      </trkpt>
      <trkpt lat="47.57374" lon="-2.70408">
        <ele>11.4</ele>
        <time>2026-08-20T14:11:32Z</time>
      </trkpt>
      <trkpt lat="47.57377" lon="-2.70413">
        <ele>11.4</ele>
        <time>2026-08-20T14:11:33Z</time>
      </trkpt>
      <trkpt lat="47.5738" lon="-2.70418">
        <ele>11.3</ele>
        <time>2026-08-20T14:11:34Z</time>
      </trkpt>
      <trkpt lat="47.57384" lon="-2.70422">
        <ele>11.2</ele>
        <time>2026-08-20T14:11:35Z</time>
      </trkpt>
      <trkpt lat="47.57387" lon="-2.70427">
        <ele>11.1</ele>
        <time>2026-08-20T14:11:36Z</time>
      </trkpt>
      <trkpt lat="47.5739" lon="-2.70432">
        <ele>11</ele>
        <time>2026-08-20T14:11:37Z</time>
      </trkpt>
      <trkpt lat="47.57394" lon="-2.70438">
        <ele>10.8</ele>
        <time>2026-08-20T14:11:38Z</time>
      </trkpt>
      <trkpt lat="47.57397" lon="-2.70444">
        <ele>10.7</ele>
        <time>2026-08-20T14:11:39Z</time>
      </trkpt>
      <trkpt lat="47.57401" lon="-2.70449">
        <ele>10.6</ele>
        <time>2026-08-20T14:11:40Z</time>
      </trkpt>
      <trkpt lat="47.57404" lon="-2.70455">
        <ele>10.5</ele>
        <time>2026-08-20T14:11:41Z</time>
      </trkpt>
      <trkpt lat="47.57407" lon="-2.70462">
        <ele>10.3</ele>
        <time>2026-08-20T14:11:42Z</time>
      </trkpt>
      <trkpt lat="47.5741" lon="-2.70466">
        <ele>10.2</ele>
        <time>2026-08-20T14:11:43Z</time>
      </trkpt>
      <trkpt lat="47.57414" lon="-2.70474">
        <ele>10.2</ele>
        <time>2026-08-20T14:11:44Z</time>
      </trkpt>
      <trkpt lat="47.57417" lon="-2.70479">
        <ele>10.2</ele>
        <time>2026-08-20T14:11:45Z</time>
      </trkpt>
      <trkpt lat="47.5742" lon="-2.70485">
        <ele>10.5</ele>
        <time>2026-08-20T14:11:46Z</time>
      </trkpt>
      <trkpt lat="47.57423" lon="-2.70491">
        <ele>10.7</ele>
        <time>2026-08-20T14:11:47Z</time>
      </trkpt>
      <trkpt lat="47.57426" lon="-2.70497">
        <ele>10.9</ele>
        <time>2026-08-20T14:11:48Z</time>
      </trkpt>
      <trkpt lat="47.57429" lon="-2.70503">
        <ele>11</ele>
        <time>2026-08-20T14:11:49Z</time>
      </trkpt>
      <trkpt lat="47.57432" lon="-2.70509">
        <ele>11</ele>
        <time>2026-08-20T14:11:50Z</time>
      </trkpt>
      <trkpt lat="47.57435" lon="-2.70514">
        <ele>11</ele>
        <time>2026-08-20T14:11:51Z</time>
      </trkpt>
      <trkpt lat="47.57438" lon="-2.7052">
        <ele>11</ele>
        <time>2026-08-20T14:11:52Z</time>
      </trkpt>
      <trkpt lat="47.57441" lon="-2.70526">
        <ele>11</ele>
        <time>2026-08-20T14:11:53Z</time>
      </trkpt>
      <trkpt lat="47.57445" lon="-2.70532">
        <ele>11</ele>
        <time>2026-08-20T14:11:54Z</time>
      </trkpt>
      <trkpt lat="47.57448" lon="-2.70538">
        <ele>11</ele>
        <time>2026-08-20T14:11:55Z</time>
      </trkpt>
      <trkpt lat="47.57451" lon="-2.70544">
        <ele>11</ele>
        <time>2026-08-20T14:11:56Z</time>
      </trkpt>
      <trkpt lat="47.57454" lon="-2.70549">
        <ele>11</ele>
        <time>2026-08-20T14:11:57Z</time>
      </trkpt>
      <trkpt lat="47.57457" lon="-2.70555">
        <ele>11</ele>
        <time>2026-08-20T14:11:58Z</time>
      </trkpt>
      <trkpt lat="47.5746" lon="-2.7056">
        <ele>11.1</ele>
        <time>2026-08-20T14:11:59Z</time>
      </trkpt>
      <trkpt lat="47.57463" lon="-2.70566">
        <ele>11.1</ele>
        <time>2026-08-20T14:12:00Z</time>
      </trkpt>
      <trkpt lat="47.57465" lon="-2.70572">
        <ele>11.2</ele>
        <time>2026-08-20T14:12:01Z</time>
      </trkpt>
      <trkpt lat="47.57468" lon="-2.70577">
        <ele>11.1</ele>
        <time>2026-08-20T14:12:02Z</time>
      </trkpt>
      <trkpt lat="47.57471" lon="-2.70583">
        <ele>11</ele>
        <time>2026-08-20T14:12:03Z</time>
      </trkpt>
      <trkpt lat="47.57473" lon="-2.70589">
        <ele>11.2</ele>
        <time>2026-08-20T14:12:04Z</time>
      </trkpt>
      <trkpt lat="47.57476" lon="-2.70594">
        <ele>11.4</ele>
        <time>2026-08-20T14:12:05Z</time>
      </trkpt>
      <trkpt lat="47.57479" lon="-2.706">
        <ele>11.6</ele>
        <time>2026-08-20T14:12:06Z</time>
      </trkpt>
      <trkpt lat="47.57481" lon="-2.70605">
        <ele>11.8</ele>
        <time>2026-08-20T14:12:07Z</time>
      </trkpt>
      <trkpt lat="47.57484" lon="-2.7061">
        <ele>12</ele>
        <time>2026-08-20T14:12:08Z</time>
      </trkpt>
      <trkpt lat="47.57487" lon="-2.70614">
        <ele>11.9</ele>
        <time>2026-08-20T14:12:09Z</time>
      </trkpt>
      <trkpt lat="47.57489" lon="-2.70618">
        <ele>11.9</ele>
        <time>2026-08-20T14:12:10Z</time>
      </trkpt>
      <trkpt lat="47.57492" lon="-2.70623">
        <ele>11.7</ele>
        <time>2026-08-20T14:12:11Z</time>
      </trkpt>
      <trkpt lat="47.57495" lon="-2.70628">
        <ele>11.5</ele>
        <time>2026-08-20T14:12:12Z</time>
      </trkpt>
      <trkpt lat="47.57497" lon="-2.70632">
        <ele>11.3</ele>
        <time>2026-08-20T14:12:13Z</time>
      </trkpt>
      <trkpt lat="47.575" lon="-2.70636">
        <ele>11.1</ele>
        <time>2026-08-20T14:12:14Z</time>
      </trkpt>
      <trkpt lat="47.57503" lon="-2.70641">
        <ele>11</ele>
        <time>2026-08-20T14:12:15Z</time>
      </trkpt>
      <trkpt lat="47.57506" lon="-2.70644">
        <ele>10.9</ele>
        <time>2026-08-20T14:12:16Z</time>
      </trkpt>
      <trkpt lat="47.57509" lon="-2.70648">
        <ele>10.9</ele>
        <time>2026-08-20T14:12:17Z</time>
      </trkpt>
      <trkpt lat="47.57512" lon="-2.70652">
        <ele>10.8</ele>
        <time>2026-08-20T14:12:18Z</time>
      </trkpt>
      <trkpt lat="47.57514" lon="-2.70655">
        <ele>10.8</ele>
        <time>2026-08-20T14:12:19Z</time>
      </trkpt>
      <trkpt lat="47.57515" lon="-2.70658">
        <ele>10.8</ele>
        <time>2026-08-20T14:12:20Z</time>
      </trkpt>
      <trkpt lat="47.57516" lon="-2.70662">
        <ele>10.8</ele>
        <time>2026-08-20T14:12:21Z</time>
      </trkpt>
      <trkpt lat="47.57516" lon="-2.70665">
        <ele>10.8</ele>
        <time>2026-08-20T14:12:22Z</time>
      </trkpt>
      <trkpt lat="47.57516" lon="-2.7067">
        <ele>10.8</ele>
        <time>2026-08-20T14:12:23Z</time>
      </trkpt>
      <trkpt lat="47.57515" lon="-2.70674">
        <ele>10.9</ele>
        <time>2026-08-20T14:12:24Z</time>
      </trkpt>
      <trkpt lat="47.57514" lon="-2.70679">
        <ele>11</ele>
        <time>2026-08-20T14:12:25Z</time>
      </trkpt>
      <trkpt lat="47.57513" lon="-2.70683">
        <ele>11.1</ele>
        <time>2026-08-20T14:12:26Z</time>
      </trkpt>
      <trkpt lat="47.5751" lon="-2.70689">
        <ele>11.3</ele>
        <time>2026-08-20T14:12:27Z</time>
      </trkpt>
      <trkpt lat="47.57508" lon="-2.70693">
        <ele>11.4</ele>
        <time>2026-08-20T14:12:28Z</time>
      </trkpt>
      <trkpt lat="47.57506" lon="-2.70698">
        <ele>11.6</ele>
        <time>2026-08-20T14:12:29Z</time>
      </trkpt>
      <trkpt lat="47.57504" lon="-2.70703">
        <ele>11.8</ele>
        <time>2026-08-20T14:12:30Z</time>
      </trkpt>
      <trkpt lat="47.57502" lon="-2.70708">
        <ele>11.9</ele>
        <time>2026-08-20T14:12:31Z</time>
      </trkpt>
      <trkpt lat="47.575" lon="-2.70713">
        <ele>12</ele>
        <time>2026-08-20T14:12:32Z</time>
      </trkpt>
      <trkpt lat="47.57498" lon="-2.70717">
        <ele>12.1</ele>
        <time>2026-08-20T14:12:33Z</time>
      </trkpt>
      <trkpt lat="47.57496" lon="-2.70722">
        <ele>12.1</ele>
        <time>2026-08-20T14:12:34Z</time>
      </trkpt>
      <trkpt lat="47.57494" lon="-2.70727">
        <ele>12.2</ele>
        <time>2026-08-20T14:12:35Z</time>
      </trkpt>
      <trkpt lat="47.57492" lon="-2.70732">
        <ele>12.2</ele>
        <time>2026-08-20T14:12:36Z</time>
      </trkpt>
      <trkpt lat="47.5749" lon="-2.70738">
        <ele>12.2</ele>
        <time>2026-08-20T14:12:37Z</time>
      </trkpt>
      <trkpt lat="47.57489" lon="-2.70744">
        <ele>12.1</ele>
        <time>2026-08-20T14:12:38Z</time>
      </trkpt>
      <trkpt lat="47.57488" lon="-2.7075">
        <ele>12</ele>
        <time>2026-08-20T14:12:39Z</time>
      </trkpt>
      <trkpt lat="47.57488" lon="-2.70756">
        <ele>11.9</ele>
        <time>2026-08-20T14:12:40Z</time>
      </trkpt>
      <trkpt lat="47.57487" lon="-2.70762">
        <ele>11.8</ele>
        <time>2026-08-20T14:12:41Z</time>
      </trkpt>
      <trkpt lat="47.57486" lon="-2.70768">
        <ele>11.7</ele>
        <time>2026-08-20T14:12:42Z</time>
      </trkpt>
      <trkpt lat="47.57483" lon="-2.70774">
        <ele>11.7</ele>
        <time>2026-08-20T14:12:43Z</time>
      </trkpt>
      <trkpt lat="47.5748" lon="-2.70778">
        <ele>11.7</ele>
        <time>2026-08-20T14:12:44Z</time>
      </trkpt>
      <trkpt lat="47.57477" lon="-2.70781">
        <ele>11.8</ele>
        <time>2026-08-20T14:12:45Z</time>
      </trkpt>
      <trkpt lat="47.57473" lon="-2.70785">
        <ele>12</ele>
        <time>2026-08-20T14:12:46Z</time>
      </trkpt>
      <trkpt lat="47.5747" lon="-2.70788">
        <ele>12</ele>
        <time>2026-08-20T14:12:47Z</time>
      </trkpt>
      <trkpt lat="47.57467" lon="-2.70791">
        <ele>12</ele>
        <time>2026-08-20T14:12:48Z</time>
      </trkpt>
      <trkpt lat="47.57463" lon="-2.70796">
        <ele>12</ele>
        <time>2026-08-20T14:12:49Z</time>
      </trkpt>
      <trkpt lat="47.5746" lon="-2.70801">
        <ele>12</ele>
        <time>2026-08-20T14:12:50Z</time>
      </trkpt>
      <trkpt lat="47.57457" lon="-2.70806">
        <ele>12</ele>
        <time>2026-08-20T14:12:51Z</time>
      </trkpt>
      <trkpt lat="47.57454" lon="-2.7081">
        <ele>11.9</ele>
        <time>2026-08-20T14:12:52Z</time>
      </trkpt>
      <trkpt lat="47.5745" lon="-2.70814">
        <ele>11.8</ele>
        <time>2026-08-20T14:12:53Z</time>
      </trkpt>
      <trkpt lat="47.57447" lon="-2.70819">
        <ele>11.6</ele>
        <time>2026-08-20T14:12:54Z</time>
      </trkpt>
      <trkpt lat="47.57444" lon="-2.70823">
        <ele>11.4</ele>
        <time>2026-08-20T14:12:55Z</time>
      </trkpt>
      <trkpt lat="47.5744" lon="-2.70828">
        <ele>11.2</ele>
        <time>2026-08-20T14:12:56Z</time>
      </trkpt>
      <trkpt lat="47.57437" lon="-2.70833">
        <ele>11</ele>
        <time>2026-08-20T14:12:57Z</time>
      </trkpt>
      <trkpt lat="47.57433" lon="-2.70837">
        <ele>10.9</ele>
        <time>2026-08-20T14:12:58Z</time>
      </trkpt>
      <trkpt lat="47.5743" lon="-2.70842">
        <ele>10.8</ele>
        <time>2026-08-20T14:12:59Z</time>
      </trkpt>
      <trkpt lat="47.57426" lon="-2.70846">
        <ele>10.7</ele>
        <time>2026-08-20T14:13:00Z</time>
      </trkpt>
      <trkpt lat="47.57422" lon="-2.70851">
        <ele>10.5</ele>
        <time>2026-08-20T14:13:01Z</time>
      </trkpt>
      <trkpt lat="47.57418" lon="-2.70857">
        <ele>10.2</ele>
        <time>2026-08-20T14:13:02Z</time>
      </trkpt>
      <trkpt lat="47.57414" lon="-2.70862">
        <ele>10</ele>
        <time>2026-08-20T14:13:03Z</time>
      </trkpt>
      <trkpt lat="47.57409" lon="-2.70867">
        <ele>9.9</ele>
        <time>2026-08-20T14:13:04Z</time>
      </trkpt>
      <trkpt lat="47.57404" lon="-2.70872">
        <ele>9.8</ele>
        <time>2026-08-20T14:13:05Z</time>
      </trkpt>
      <trkpt lat="47.574" lon="-2.70877">
        <ele>9.7</ele>
        <time>2026-08-20T14:13:06Z</time>
      </trkpt>
      <trkpt lat="47.57395" lon="-2.70883">
        <ele>9.4</ele>
        <time>2026-08-20T14:13:07Z</time>
      </trkpt>
      <trkpt lat="47.5739" lon="-2.70889">
        <ele>9</ele>
        <time>2026-08-20T14:13:08Z</time>
      </trkpt>
      <trkpt lat="47.57385" lon="-2.70895">
        <ele>8.8</ele>
        <time>2026-08-20T14:13:09Z</time>
      </trkpt>
      <trkpt lat="47.57381" lon="-2.70899">
        <ele>8.6</ele>
        <time>2026-08-20T14:13:10Z</time>
      </trkpt>
      <trkpt lat="47.57374" lon="-2.70905">
        <ele>8.2</ele>
        <time>2026-08-20T14:13:11Z</time>
      </trkpt>
      <trkpt lat="47.57369" lon="-2.70911">
        <ele>7.7</ele>
        <time>2026-08-20T14:13:12Z</time>
      </trkpt>
      <trkpt lat="47.57364" lon="-2.70917">
        <ele>7.2</ele>
        <time>2026-08-20T14:13:13Z</time>
      </trkpt>
      <trkpt lat="47.57359" lon="-2.70924">
        <ele>7</ele>
        <time>2026-08-20T14:13:14Z</time>
      </trkpt>
      <trkpt lat="47.57354" lon="-2.70931">
        <ele>7</ele>
        <time>2026-08-20T14:13:15Z</time>
      </trkpt>
      <trkpt lat="47.57349" lon="-2.70937">
        <ele>7</ele>
        <time>2026-08-20T14:13:16Z</time>
      </trkpt>
      <trkpt lat="47.57345" lon="-2.70944">
        <ele>7</ele>
        <time>2026-08-20T14:13:17Z</time>
      </trkpt>
      <trkpt lat="47.5734" lon="-2.7095">
        <ele>6.8</ele>
        <time>2026-08-20T14:13:18Z</time>
      </trkpt>
      <trkpt lat="47.57335" lon="-2.70955">
        <ele>6.6</ele>
        <time>2026-08-20T14:13:19Z</time>
      </trkpt>
      <trkpt lat="47.5733" lon="-2.7096">
        <ele>6.5</ele>
        <time>2026-08-20T14:13:20Z</time>
      </trkpt>
      <trkpt lat="47.57325" lon="-2.70964">
        <ele>6.5</ele>
        <time>2026-08-20T14:13:21Z</time>
      </trkpt>
      <trkpt lat="47.5732" lon="-2.70968">
        <ele>6.6</ele>
        <time>2026-08-20T14:13:22Z</time>
      </trkpt>
      <trkpt lat="47.57316" lon="-2.70971">
        <ele>6.6</ele>
        <time>2026-08-20T14:13:23Z</time>
      </trkpt>
      <trkpt lat="47.57312" lon="-2.70975">
        <ele>6.8</ele>
        <time>2026-08-20T14:13:24Z</time>
      </trkpt>
      <trkpt lat="47.57307" lon="-2.70978">
        <ele>6.9</ele>
        <time>2026-08-20T14:13:25Z</time>
      </trkpt>
      <trkpt lat="47.57303" lon="-2.70981">
        <ele>7</ele>
        <time>2026-08-20T14:13:26Z</time>
      </trkpt>
      <trkpt lat="47.573" lon="-2.70983">
        <ele>7</ele>
        <time>2026-08-20T14:13:27Z</time>
      </trkpt>
      <trkpt lat="47.57296" lon="-2.70986">
        <ele>7</ele>
        <time>2026-08-20T14:13:28Z</time>
      </trkpt>
      <trkpt lat="47.57293" lon="-2.70988">
        <ele>7</ele>
        <time>2026-08-20T14:13:29Z</time>
      </trkpt>
      <trkpt lat="47.57291" lon="-2.70991">
        <ele>7</ele>
        <time>2026-08-20T14:13:30Z</time>
      </trkpt>
      <trkpt lat="47.57288" lon="-2.70993">
        <ele>7</ele>
        <time>2026-08-20T14:13:31Z</time>
      </trkpt>
      <trkpt lat="47.57286" lon="-2.70995">
        <ele>7</ele>
        <time>2026-08-20T14:13:32Z</time>
      </trkpt>
      <trkpt lat="47.57284" lon="-2.70998">
        <ele>7</ele>
        <time>2026-08-20T14:13:33Z</time>
      </trkpt>
      <trkpt lat="47.57283" lon="-2.70999">
        <ele>7</ele>
        <time>2026-08-20T14:13:34Z</time>
      </trkpt>
      <trkpt lat="47.57282" lon="-2.71">
        <ele>7</ele>
        <time>2026-08-20T14:13:35Z</time>
      </trkpt>
      <trkpt lat="47.57282" lon="-2.71">
        <ele>7</ele>
        <time>2026-08-20T14:13:36Z</time>
      </trkpt>
      <trkpt lat="47.57282" lon="-2.71">
        <ele>7</ele>
        <time>2026-08-20T14:13:37Z</time>
      </trkpt>
      <trkpt lat="47.57273" lon="-2.71011">
        <ele>7.6</ele>
        <time>2026-08-20T15:24:58Z</time>
      </trkpt>
      <trkpt lat="47.57274" lon="-2.71008">
        <ele>7.5</ele>
        <time>2026-08-20T15:24:59Z</time>
      </trkpt>
      <trkpt lat="47.57275" lon="-2.71005">
        <ele>7.3</ele>
        <time>2026-08-20T15:25:00Z</time>
      </trkpt>
      <trkpt lat="47.57277" lon="-2.71003">
        <ele>7.2</ele>
        <time>2026-08-20T15:25:01Z</time>
      </trkpt>
      <trkpt lat="47.57279" lon="-2.71001">
        <ele>7</ele>
        <time>2026-08-20T15:25:02Z</time>
      </trkpt>
      <trkpt lat="47.57281" lon="-2.70998">
        <ele>7</ele>
        <time>2026-08-20T15:25:03Z</time>
      </trkpt>
      <trkpt lat="47.57284" lon="-2.70996">
        <ele>7</ele>
        <time>2026-08-20T15:25:04Z</time>
      </trkpt>
      <trkpt lat="47.57287" lon="-2.70993">
        <ele>7</ele>
        <time>2026-08-20T15:25:05Z</time>
      </trkpt>
      <trkpt lat="47.5729" lon="-2.70991">
        <ele>7</ele>
        <time>2026-08-20T15:25:06Z</time>
      </trkpt>
      <trkpt lat="47.57293" lon="-2.7099">
        <ele>7</ele>
        <time>2026-08-20T15:25:07Z</time>
      </trkpt>
      <trkpt lat="47.57296" lon="-2.7099">
        <ele>7</ele>
        <time>2026-08-20T15:25:08Z</time>
      </trkpt>
      <trkpt lat="47.57299" lon="-2.70991">
        <ele>7</ele>
        <time>2026-08-20T15:25:09Z</time>
      </trkpt>
      <trkpt lat="47.57301" lon="-2.70994">
        <ele>7</ele>
        <time>2026-08-20T15:25:10Z</time>
      </trkpt>
      <trkpt lat="47.57302" lon="-2.70998">
        <ele>7</ele>
        <time>2026-08-20T15:25:11Z</time>
      </trkpt>
      <trkpt lat="47.57304" lon="-2.71002">
        <ele>7.1</ele>
        <time>2026-08-20T15:25:12Z</time>
      </trkpt>
      <trkpt lat="47.57305" lon="-2.71006">
        <ele>7.2</ele>
        <time>2026-08-20T15:25:13Z</time>
      </trkpt>
      <trkpt lat="47.57307" lon="-2.7101">
        <ele>7.3</ele>
        <time>2026-08-20T15:25:14Z</time>
      </trkpt>
      <trkpt lat="47.57308" lon="-2.71014">
        <ele>7.4</ele>
        <time>2026-08-20T15:25:15Z</time>
      </trkpt>
      <trkpt lat="47.5731" lon="-2.71019">
        <ele>7.5</ele>
        <time>2026-08-20T15:25:16Z</time>
      </trkpt>
      <trkpt lat="47.57312" lon="-2.71024">
        <ele>7.6</ele>
        <time>2026-08-20T15:25:17Z</time>
      </trkpt>
      <trkpt lat="47.57313" lon="-2.71029">
        <ele>7.7</ele>
        <time>2026-08-20T15:25:18Z</time>
      </trkpt>
      <trkpt lat="47.57315" lon="-2.71034">
        <ele>7.7</ele>
        <time>2026-08-20T15:25:19Z</time>
      </trkpt>
      <trkpt lat="47.57316" lon="-2.7104">
        <ele>7.8</ele>
        <time>2026-08-20T15:25:20Z</time>
      </trkpt>
      <trkpt lat="47.57318" lon="-2.71045">
        <ele>7.8</ele>
        <time>2026-08-20T15:25:21Z</time>
      </trkpt>
      <trkpt lat="47.57319" lon="-2.71051">
        <ele>7.9</ele>
        <time>2026-08-20T15:25:22Z</time>
      </trkpt>
      <trkpt lat="47.5732" lon="-2.71057">
        <ele>8</ele>
        <time>2026-08-20T15:25:23Z</time>
      </trkpt>
      <trkpt lat="47.57321" lon="-2.71063">
        <ele>8.1</ele>
        <time>2026-08-20T15:25:24Z</time>
      </trkpt>
      <trkpt lat="47.57322" lon="-2.71069">
        <ele>8.2</ele>
        <time>2026-08-20T15:25:25Z</time>
      </trkpt>
      <trkpt lat="47.57322" lon="-2.71075">
        <ele>8.3</ele>
        <time>2026-08-20T15:25:26Z</time>
      </trkpt>
      <trkpt lat="47.57323" lon="-2.71081">
        <ele>8.3</ele>
        <time>2026-08-20T15:25:27Z</time>
      </trkpt>
      <trkpt lat="47.57323" lon="-2.71087">
        <ele>8.4</ele>
        <time>2026-08-20T15:25:28Z</time>
      </trkpt>
      <trkpt lat="47.57324" lon="-2.71092">
        <ele>8.3</ele>
        <time>2026-08-20T15:25:29Z</time>
      </trkpt>
      <trkpt lat="47.57324" lon="-2.71098">
        <ele>8.3</ele>
        <time>2026-08-20T15:25:30Z</time>
      </trkpt>
      <trkpt lat="47.57325" lon="-2.71104">
        <ele>8.3</ele>
        <time>2026-08-20T15:25:31Z</time>
      </trkpt>
      <trkpt lat="47.57325" lon="-2.71109">
        <ele>8.3</ele>
        <time>2026-08-20T15:25:32Z</time>
      </trkpt>
      <trkpt lat="47.57325" lon="-2.71114">
        <ele>8.3</ele>
        <time>2026-08-20T15:25:33Z</time>
      </trkpt>
      <trkpt lat="47.57326" lon="-2.7112">
        <ele>8.3</ele>
        <time>2026-08-20T15:25:34Z</time>
      </trkpt>
      <trkpt lat="47.57326" lon="-2.71125">
        <ele>8.3</ele>
        <time>2026-08-20T15:25:35Z</time>
      </trkpt>
      <trkpt lat="47.57326" lon="-2.71131">
        <ele>8.3</ele>
        <time>2026-08-20T15:25:36Z</time>
      </trkpt>
      <trkpt lat="47.57326" lon="-2.71137">
        <ele>8.3</ele>
        <time>2026-08-20T15:25:37Z</time>
      </trkpt>
      <trkpt lat="47.57326" lon="-2.71142">
        <ele>8.3</ele>
        <time>2026-08-20T15:25:38Z</time>
      </trkpt>
      <trkpt lat="47.57326" lon="-2.71148">
        <ele>8.3</ele>
        <time>2026-08-20T15:25:39Z</time>
      </trkpt>
      <trkpt lat="47.57326" lon="-2.71153">
        <ele>8.3</ele>
        <time>2026-08-20T15:25:40Z</time>
      </trkpt>
      <trkpt lat="47.57326" lon="-2.71159">
        <ele>8.3</ele>
        <time>2026-08-20T15:25:41Z</time>
      </trkpt>
      <trkpt lat="47.57326" lon="-2.71165">
        <ele>8.3</ele>
        <time>2026-08-20T15:25:42Z</time>
      </trkpt>
      <trkpt lat="47.57326" lon="-2.71171">
        <ele>8.3</ele>
        <time>2026-08-20T15:25:43Z</time>
      </trkpt>
      <trkpt lat="47.57326" lon="-2.71177">
        <ele>8.3</ele>
        <time>2026-08-20T15:25:44Z</time>
      </trkpt>
      <trkpt lat="47.57327" lon="-2.71183">
        <ele>8.2</ele>
        <time>2026-08-20T15:25:45Z</time>
      </trkpt>
      <trkpt lat="47.57327" lon="-2.7119">
        <ele>8.2</ele>
        <time>2026-08-20T15:25:46Z</time>
      </trkpt>
      <trkpt lat="47.57327" lon="-2.71196">
        <ele>8.2</ele>
        <time>2026-08-20T15:25:47Z</time>
      </trkpt>
      <trkpt lat="47.57328" lon="-2.71203">
        <ele>7.9</ele>
        <time>2026-08-20T15:25:48Z</time>
      </trkpt>
      <trkpt lat="47.57329" lon="-2.71209">
        <ele>7.6</ele>
        <time>2026-08-20T15:25:49Z</time>
      </trkpt>
      <trkpt lat="47.5733" lon="-2.71216">
        <ele>7.3</ele>
        <time>2026-08-20T15:25:50Z</time>
      </trkpt>
      <trkpt lat="47.57331" lon="-2.71223">
        <ele>7.1</ele>
        <time>2026-08-20T15:25:51Z</time>
      </trkpt>
      <trkpt lat="47.57333" lon="-2.7123">
        <ele>6.7</ele>
        <time>2026-08-20T15:25:52Z</time>
      </trkpt>
      <trkpt lat="47.57335" lon="-2.71236">
        <ele>6.5</ele>
        <time>2026-08-20T15:25:53Z</time>
      </trkpt>
      <trkpt lat="47.57337" lon="-2.71242">
        <ele>6.2</ele>
        <time>2026-08-20T15:25:54Z</time>
      </trkpt>
      <trkpt lat="47.57339" lon="-2.71249">
        <ele>6</ele>
        <time>2026-08-20T15:25:55Z</time>
      </trkpt>
      <trkpt lat="47.57341" lon="-2.71255">
        <ele>6</ele>
        <time>2026-08-20T15:25:56Z</time>
      </trkpt>
      <trkpt lat="47.57343" lon="-2.71262">
        <ele>6</ele>
        <time>2026-08-20T15:25:57Z</time>
      </trkpt>
      <trkpt lat="47.57345" lon="-2.71268">
        <ele>6</ele>
        <time>2026-08-20T15:25:58Z</time>
      </trkpt>
      <trkpt lat="47.57347" lon="-2.71275">
        <ele>6</ele>
        <time>2026-08-20T15:25:59Z</time>
      </trkpt>
      <trkpt lat="47.5735" lon="-2.71281">
        <ele>6</ele>
        <time>2026-08-20T15:26:00Z</time>
      </trkpt>
      <trkpt lat="47.57352" lon="-2.71287">
        <ele>6</ele>
        <time>2026-08-20T15:26:01Z</time>
      </trkpt>
      <trkpt lat="47.57354" lon="-2.71293">
        <ele>6</ele>
        <time>2026-08-20T15:26:02Z</time>
      </trkpt>
      <trkpt lat="47.57356" lon="-2.71299">
        <ele>6</ele>
        <time>2026-08-20T15:26:03Z</time>
      </trkpt>
      <trkpt lat="47.57358" lon="-2.71306">
        <ele>6</ele>
        <time>2026-08-20T15:26:04Z</time>
      </trkpt>
      <trkpt lat="47.5736" lon="-2.71312">
        <ele>5.8</ele>
        <time>2026-08-20T15:26:05Z</time>
      </trkpt>
      <trkpt lat="47.57362" lon="-2.71318">
        <ele>5.5</ele>
        <time>2026-08-20T15:26:06Z</time>
      </trkpt>
      <trkpt lat="47.57364" lon="-2.71324">
        <ele>5.3</ele>
        <time>2026-08-20T15:26:07Z</time>
      </trkpt>
      <trkpt lat="47.57366" lon="-2.7133">
        <ele>5.1</ele>
        <time>2026-08-20T15:26:08Z</time>
      </trkpt>
      <trkpt lat="47.57368" lon="-2.71336">
        <ele>5</ele>
        <time>2026-08-20T15:26:09Z</time>
      </trkpt>
      <trkpt lat="47.5737" lon="-2.71343">
        <ele>5</ele>
        <time>2026-08-20T15:26:10Z</time>
      </trkpt>
      <trkpt lat="47.57372" lon="-2.7135">
        <ele>5</ele>
        <time>2026-08-20T15:26:11Z</time>
      </trkpt>
      <trkpt lat="47.57374" lon="-2.71356">
        <ele>5</ele>
        <time>2026-08-20T15:26:12Z</time>
      </trkpt>
      <trkpt lat="47.57376" lon="-2.71362">
        <ele>5</ele>
        <time>2026-08-20T15:26:13Z</time>
      </trkpt>
      <trkpt lat="47.57378" lon="-2.71369">
        <ele>5</ele>
        <time>2026-08-20T15:26:14Z</time>
      </trkpt>
      <trkpt lat="47.5738" lon="-2.71375">
        <ele>5</ele>
        <time>2026-08-20T15:26:15Z</time>
      </trkpt>
      <trkpt lat="47.57382" lon="-2.71382">
        <ele>5</ele>
        <time>2026-08-20T15:26:16Z</time>
      </trkpt>
      <trkpt lat="47.57383" lon="-2.71389">
        <ele>5</ele>
        <time>2026-08-20T15:26:17Z</time>
      </trkpt>
      <trkpt lat="47.57385" lon="-2.71395">
        <ele>5</ele>
        <time>2026-08-20T15:26:18Z</time>
      </trkpt>
      <trkpt lat="47.57386" lon="-2.71402">
        <ele>5</ele>
        <time>2026-08-20T15:26:19Z</time>
      </trkpt>
      <trkpt lat="47.57388" lon="-2.71408">
        <ele>5</ele>
        <time>2026-08-20T15:26:20Z</time>
      </trkpt>
      <trkpt lat="47.57389" lon="-2.71414">
        <ele>5</ele>
        <time>2026-08-20T15:26:21Z</time>
      </trkpt>
      <trkpt lat="47.5739" lon="-2.7142">
        <ele>5</ele>
        <time>2026-08-20T15:26:22Z</time>
      </trkpt>
      <trkpt lat="47.57392" lon="-2.71426">
        <ele>5</ele>
        <time>2026-08-20T15:26:23Z</time>
      </trkpt>
      <trkpt lat="47.57393" lon="-2.71433">
        <ele>5</ele>
        <time>2026-08-20T15:26:24Z</time>
      </trkpt>
      <trkpt lat="47.57394" lon="-2.71439">
        <ele>5</ele>
        <time>2026-08-20T15:26:25Z</time>
      </trkpt>
      <trkpt lat="47.57396" lon="-2.71444">
        <ele>5</ele>
        <time>2026-08-20T15:26:26Z</time>
      </trkpt>
      <trkpt lat="47.57399" lon="-2.71449">
        <ele>5</ele>
        <time>2026-08-20T15:26:27Z</time>
      </trkpt>
      <trkpt lat="47.57402" lon="-2.71452">
        <ele>5</ele>
        <time>2026-08-20T15:26:28Z</time>
      </trkpt>
      <trkpt lat="47.57406" lon="-2.71454">
        <ele>5</ele>
        <time>2026-08-20T15:26:29Z</time>
      </trkpt>
      <trkpt lat="47.5741" lon="-2.71454">
        <ele>5</ele>
        <time>2026-08-20T15:26:30Z</time>
      </trkpt>
      <trkpt lat="47.57413" lon="-2.71453">
        <ele>5</ele>
        <time>2026-08-20T15:26:31Z</time>
      </trkpt>
      <trkpt lat="47.57417" lon="-2.71452">
        <ele>5</ele>
        <time>2026-08-20T15:26:32Z</time>
      </trkpt>
      <trkpt lat="47.57421" lon="-2.71451">
        <ele>5</ele>
        <time>2026-08-20T15:26:33Z</time>
      </trkpt>
      <trkpt lat="47.57425" lon="-2.71449">
        <ele>5</ele>
        <time>2026-08-20T15:26:34Z</time>
      </trkpt>
      <trkpt lat="47.57429" lon="-2.71447">
        <ele>5</ele>
        <time>2026-08-20T15:26:35Z</time>
      </trkpt>
      <trkpt lat="47.57433" lon="-2.71445">
        <ele>5</ele>
        <time>2026-08-20T15:26:36Z</time>
      </trkpt>
      <trkpt lat="47.57437" lon="-2.71444">
        <ele>5</ele>
        <time>2026-08-20T15:26:37Z</time>
      </trkpt>
      <trkpt lat="47.57441" lon="-2.71442">
        <ele>5</ele>
        <time>2026-08-20T15:26:38Z</time>
      </trkpt>
      <trkpt lat="47.57445" lon="-2.7144">
        <ele>5</ele>
        <time>2026-08-20T15:26:39Z</time>
      </trkpt>
      <trkpt lat="47.57449" lon="-2.71439">
        <ele>5.2</ele>
        <time>2026-08-20T15:26:40Z</time>
      </trkpt>
      <trkpt lat="47.57453" lon="-2.71437">
        <ele>5.3</ele>
        <time>2026-08-20T15:26:41Z</time>
      </trkpt>
      <trkpt lat="47.57457" lon="-2.71435">
        <ele>5.5</ele>
        <time>2026-08-20T15:26:42Z</time>
      </trkpt>
      <trkpt lat="47.57462" lon="-2.71433">
        <ele>5.6</ele>
        <time>2026-08-20T15:26:43Z</time>
      </trkpt>
      <trkpt lat="47.57466" lon="-2.71431">
        <ele>5.8</ele>
        <time>2026-08-20T15:26:44Z</time>
      </trkpt>
      <trkpt lat="47.57471" lon="-2.7143">
        <ele>6</ele>
        <time>2026-08-20T15:26:45Z</time>
      </trkpt>
      <trkpt lat="47.57475" lon="-2.71428">
        <ele>6</ele>
        <time>2026-08-20T15:26:46Z</time>
      </trkpt>
      <trkpt lat="47.57479" lon="-2.71427">
        <ele>6</ele>
        <time>2026-08-20T15:26:47Z</time>
      </trkpt>
      <trkpt lat="47.57484" lon="-2.71425">
        <ele>6</ele>
        <time>2026-08-20T15:26:48Z</time>
      </trkpt>
      <trkpt lat="47.57488" lon="-2.71423">
        <ele>6</ele>
        <time>2026-08-20T15:26:49Z</time>
      </trkpt>
      <trkpt lat="47.57492" lon="-2.71421">
        <ele>6</ele>
        <time>2026-08-20T15:26:50Z</time>
      </trkpt>
      <trkpt lat="47.57497" lon="-2.71419">
        <ele>6</ele>
        <time>2026-08-20T15:26:51Z</time>
      </trkpt>
      <trkpt lat="47.57501" lon="-2.71418">
        <ele>6</ele>
        <time>2026-08-20T15:26:52Z</time>
      </trkpt>
      <trkpt lat="47.57506" lon="-2.71416">
        <ele>6</ele>
        <time>2026-08-20T15:26:53Z</time>
      </trkpt>
      <trkpt lat="47.57511" lon="-2.71413">
        <ele>6</ele>
        <time>2026-08-20T15:26:54Z</time>
      </trkpt>
      <trkpt lat="47.57516" lon="-2.71412">
        <ele>6</ele>
        <time>2026-08-20T15:26:55Z</time>
      </trkpt>
      <trkpt lat="47.57519" lon="-2.7141">
        <ele>6</ele>
        <time>2026-08-20T15:26:56Z</time>
      </trkpt>
      <trkpt lat="47.57524" lon="-2.71409">
        <ele>6</ele>
        <time>2026-08-20T15:26:57Z</time>
      </trkpt>
      <trkpt lat="47.57529" lon="-2.71407">
        <ele>6</ele>
        <time>2026-08-20T15:26:58Z</time>
      </trkpt>
      <trkpt lat="47.57533" lon="-2.71406">
        <ele>6</ele>
        <time>2026-08-20T15:26:59Z</time>
      </trkpt>
      <trkpt lat="47.57538" lon="-2.71404">
        <ele>6</ele>
        <time>2026-08-20T15:27:00Z</time>
      </trkpt>
      <trkpt lat="47.57543" lon="-2.71402">
        <ele>6</ele>
        <time>2026-08-20T15:27:01Z</time>
      </trkpt>
      <trkpt lat="47.57547" lon="-2.714">
        <ele>6</ele>
        <time>2026-08-20T15:27:02Z</time>
      </trkpt>
      <trkpt lat="47.57552" lon="-2.71398">
        <ele>6</ele>
        <time>2026-08-20T15:27:03Z</time>
      </trkpt>
      <trkpt lat="47.57557" lon="-2.71396">
        <ele>6</ele>
        <time>2026-08-20T15:27:04Z</time>
      </trkpt>
      <trkpt lat="47.57561" lon="-2.71394">
        <ele>6</ele>
        <time>2026-08-20T15:27:05Z</time>
      </trkpt>
      <trkpt lat="47.57566" lon="-2.71393">
        <ele>6</ele>
        <time>2026-08-20T15:27:06Z</time>
      </trkpt>
      <trkpt lat="47.57571" lon="-2.71391">
        <ele>6</ele>
        <time>2026-08-20T15:27:07Z</time>
      </trkpt>
      <trkpt lat="47.57575" lon="-2.71389">
        <ele>6</ele>
        <time>2026-08-20T15:27:08Z</time>
      </trkpt>
      <trkpt lat="47.5758" lon="-2.71387">
        <ele>6</ele>
        <time>2026-08-20T15:27:09Z</time>
      </trkpt>
      <trkpt lat="47.57585" lon="-2.71385">
        <ele>6</ele>
        <time>2026-08-20T15:27:10Z</time>
      </trkpt>
      <trkpt lat="47.5759" lon="-2.71383">
        <ele>6</ele>
        <time>2026-08-20T15:27:11Z</time>
      </trkpt>
      <trkpt lat="47.57595" lon="-2.71382">
        <ele>6</ele>
        <time>2026-08-20T15:27:12Z</time>
      </trkpt>
      <trkpt lat="47.57599" lon="-2.7138">
        <ele>6</ele>
        <time>2026-08-20T15:27:13Z</time>
      </trkpt>
      <trkpt lat="47.57604" lon="-2.71378">
        <ele>6</ele>
        <time>2026-08-20T15:27:14Z</time>
      </trkpt>
      <trkpt lat="47.57609" lon="-2.71376">
        <ele>6</ele>
        <time>2026-08-20T15:27:15Z</time>
      </trkpt>
      <trkpt lat="47.57614" lon="-2.71374">
        <ele>6</ele>
        <time>2026-08-20T15:27:16Z</time>
      </trkpt>
      <trkpt lat="47.57619" lon="-2.71372">
        <ele>5.9</ele>
        <time>2026-08-20T15:27:17Z</time>
      </trkpt>
      <trkpt lat="47.57624" lon="-2.71371">
        <ele>5.8</ele>
        <time>2026-08-20T15:27:18Z</time>
      </trkpt>
      <trkpt lat="47.5763" lon="-2.71369">
        <ele>5.8</ele>
        <time>2026-08-20T15:27:19Z</time>
      </trkpt>
      <trkpt lat="47.57635" lon="-2.71368">
        <ele>5.8</ele>
        <time>2026-08-20T15:27:20Z</time>
      </trkpt>
      <trkpt lat="47.57639" lon="-2.71366">
        <ele>5.8</ele>
        <time>2026-08-20T15:27:21Z</time>
      </trkpt>
      <trkpt lat="47.57644" lon="-2.71364">
        <ele>5.7</ele>
        <time>2026-08-20T15:27:22Z</time>
      </trkpt>
      <trkpt lat="47.57649" lon="-2.71362">
        <ele>5.6</ele>
        <time>2026-08-20T15:27:23Z</time>
      </trkpt>
      <trkpt lat="47.57654" lon="-2.7136">
        <ele>5.5</ele>
        <time>2026-08-20T15:27:24Z</time>
      </trkpt>
      <trkpt lat="47.57659" lon="-2.71358">
        <ele>5.4</ele>
        <time>2026-08-20T15:27:25Z</time>
      </trkpt>
      <trkpt lat="47.57664" lon="-2.71356">
        <ele>5.3</ele>
        <time>2026-08-20T15:27:26Z</time>
      </trkpt>
      <trkpt lat="47.57669" lon="-2.71354">
        <ele>5.2</ele>
        <time>2026-08-20T15:27:27Z</time>
      </trkpt>
      <trkpt lat="47.57674" lon="-2.71352">
        <ele>5.2</ele>
        <time>2026-08-20T15:27:28Z</time>
      </trkpt>
      <trkpt lat="47.57679" lon="-2.7135">
        <ele>5.2</ele>
        <time>2026-08-20T15:27:29Z</time>
      </trkpt>
      <trkpt lat="47.57684" lon="-2.71348">
        <ele>5.2</ele>
        <time>2026-08-20T15:27:30Z</time>
      </trkpt>
      <trkpt lat="47.57689" lon="-2.71347">
        <ele>5.1</ele>
        <time>2026-08-20T15:27:31Z</time>
      </trkpt>
      <trkpt lat="47.57694" lon="-2.71344">
        <ele>5</ele>
        <time>2026-08-20T15:27:32Z</time>
      </trkpt>
      <trkpt lat="47.577" lon="-2.71342">
        <ele>4.8</ele>
        <time>2026-08-20T15:27:33Z</time>
      </trkpt>
      <trkpt lat="47.57705" lon="-2.71341">
        <ele>4.6</ele>
        <time>2026-08-20T15:27:34Z</time>
      </trkpt>
      <trkpt lat="47.5771" lon="-2.71338">
        <ele>4.4</ele>
        <time>2026-08-20T15:27:35Z</time>
      </trkpt>
      <trkpt lat="47.57715" lon="-2.71337">
        <ele>4.3</ele>
        <time>2026-08-20T15:27:36Z</time>
      </trkpt>
      <trkpt lat="47.5772" lon="-2.71335">
        <ele>4.1</ele>
        <time>2026-08-20T15:27:37Z</time>
      </trkpt>
      <trkpt lat="47.57726" lon="-2.71333">
        <ele>4</ele>
        <time>2026-08-20T15:27:38Z</time>
      </trkpt>
      <trkpt lat="47.57731" lon="-2.71331">
        <ele>4</ele>
        <time>2026-08-20T15:27:39Z</time>
      </trkpt>
      <trkpt lat="47.57737" lon="-2.71329">
        <ele>4</ele>
        <time>2026-08-20T15:27:40Z</time>
      </trkpt>
      <trkpt lat="47.57742" lon="-2.71327">
        <ele>4</ele>
        <time>2026-08-20T15:27:41Z</time>
      </trkpt>
      <trkpt lat="47.57747" lon="-2.71324">
        <ele>4</ele>
        <time>2026-08-20T15:27:42Z</time>
      </trkpt>
      <trkpt lat="47.57753" lon="-2.71322">
        <ele>4</ele>
        <time>2026-08-20T15:27:43Z</time>
      </trkpt>
      <trkpt lat="47.57758" lon="-2.71321">
        <ele>3.9</ele>
        <time>2026-08-20T15:27:44Z</time>
      </trkpt>
      <trkpt lat="47.57763" lon="-2.71319">
        <ele>3.8</ele>
        <time>2026-08-20T15:27:45Z</time>
      </trkpt>
      <trkpt lat="47.57768" lon="-2.71317">
        <ele>3.6</ele>
        <time>2026-08-20T15:27:46Z</time>
      </trkpt>
      <trkpt lat="47.57774" lon="-2.71315">
        <ele>3.4</ele>
        <time>2026-08-20T15:27:47Z</time>
      </trkpt>
      <trkpt lat="47.57779" lon="-2.71312">
        <ele>3.2</ele>
        <time>2026-08-20T15:27:48Z</time>
      </trkpt>
      <trkpt lat="47.57784" lon="-2.7131">
        <ele>3.1</ele>
        <time>2026-08-20T15:27:49Z</time>
      </trkpt>
      <trkpt lat="47.57789" lon="-2.71308">
        <ele>3.1</ele>
        <time>2026-08-20T15:27:50Z</time>
      </trkpt>
      <trkpt lat="47.57794" lon="-2.71307">
        <ele>3</ele>
        <time>2026-08-20T15:27:51Z</time>
      </trkpt>
      <trkpt lat="47.578" lon="-2.71305">
        <ele>3</ele>
        <time>2026-08-20T15:27:52Z</time>
      </trkpt>
      <trkpt lat="47.57805" lon="-2.71303">
        <ele>3</ele>
        <time>2026-08-20T15:27:53Z</time>
      </trkpt>
      <trkpt lat="47.5781" lon="-2.713">
        <ele>3</ele>
        <time>2026-08-20T15:27:54Z</time>
      </trkpt>
      <trkpt lat="47.57815" lon="-2.71298">
        <ele>3</ele>
        <time>2026-08-20T15:27:55Z</time>
      </trkpt>
      <trkpt lat="47.57819" lon="-2.71295">
        <ele>3</ele>
        <time>2026-08-20T15:27:56Z</time>
      </trkpt>
      <trkpt lat="47.57823" lon="-2.71292">
        <ele>3</ele>
        <time>2026-08-20T15:27:57Z</time>
      </trkpt>
      <trkpt lat="47.57828" lon="-2.71291">
        <ele>3</ele>
        <time>2026-08-20T15:27:58Z</time>
      </trkpt>
      <trkpt lat="47.57833" lon="-2.71293">
        <ele>3</ele>
        <time>2026-08-20T15:27:59Z</time>
      </trkpt>
      <trkpt lat="47.57837" lon="-2.71296">
        <ele>3</ele>
        <time>2026-08-20T15:28:00Z</time>
      </trkpt>
      <trkpt lat="47.57841" lon="-2.713">
        <ele>3</ele>
        <time>2026-08-20T15:28:01Z</time>
      </trkpt>
      <trkpt lat="47.57845" lon="-2.71304">
        <ele>3</ele>
        <time>2026-08-20T15:28:02Z</time>
      </trkpt>
      <trkpt lat="47.57849" lon="-2.71308">
        <ele>3</ele>
        <time>2026-08-20T15:28:03Z</time>
      </trkpt>
      <trkpt lat="47.57853" lon="-2.71313">
        <ele>3</ele>
        <time>2026-08-20T15:28:04Z</time>
      </trkpt>
      <trkpt lat="47.57856" lon="-2.71316">
        <ele>3</ele>
        <time>2026-08-20T15:28:05Z</time>
      </trkpt>
      <trkpt lat="47.57861" lon="-2.7132">
        <ele>3</ele>
        <time>2026-08-20T15:28:06Z</time>
      </trkpt>
      <trkpt lat="47.57865" lon="-2.71324">
        <ele>3.1</ele>
        <time>2026-08-20T15:28:07Z</time>
      </trkpt>
      <trkpt lat="47.5787" lon="-2.71326">
        <ele>3.3</ele>
        <time>2026-08-20T15:28:08Z</time>
      </trkpt>
      <trkpt lat="47.57874" lon="-2.71329">
        <ele>3.5</ele>
        <time>2026-08-20T15:28:09Z</time>
      </trkpt>
      <trkpt lat="47.57879" lon="-2.71331">
        <ele>3.6</ele>
        <time>2026-08-20T15:28:10Z</time>
      </trkpt>
      <trkpt lat="47.57884" lon="-2.71332">
        <ele>3.8</ele>
        <time>2026-08-20T15:28:11Z</time>
      </trkpt>
      <trkpt lat="47.57888" lon="-2.71333">
        <ele>4</ele>
        <time>2026-08-20T15:28:12Z</time>
      </trkpt>
      <trkpt lat="47.57892" lon="-2.71334">
        <ele>4</ele>
        <time>2026-08-20T15:28:13Z</time>
      </trkpt>
      <trkpt lat="47.57897" lon="-2.71334">
        <ele>4</ele>
        <time>2026-08-20T15:28:14Z</time>
      </trkpt>
      <trkpt lat="47.57901" lon="-2.71335">
        <ele>4</ele>
        <time>2026-08-20T15:28:15Z</time>
      </trkpt>
      <trkpt lat="47.57905" lon="-2.71335">
        <ele>4</ele>
        <time>2026-08-20T15:28:16Z</time>
      </trkpt>
      <trkpt lat="47.5791" lon="-2.71335">
        <ele>4</ele>
        <time>2026-08-20T15:28:17Z</time>
      </trkpt>
      <trkpt lat="47.57914" lon="-2.71336">
        <ele>4</ele>
        <time>2026-08-20T15:28:18Z</time>
      </trkpt>
      <trkpt lat="47.57918" lon="-2.71336">
        <ele>4</ele>
        <time>2026-08-20T15:28:19Z</time>
      </trkpt>
      <trkpt lat="47.57922" lon="-2.71337">
        <ele>4</ele>
        <time>2026-08-20T15:28:20Z</time>
      </trkpt>
      <trkpt lat="47.57927" lon="-2.71337">
        <ele>4</ele>
        <time>2026-08-20T15:28:21Z</time>
      </trkpt>
      <trkpt lat="47.57931" lon="-2.71338">
        <ele>4</ele>
        <time>2026-08-20T15:28:22Z</time>
      </trkpt>
      <trkpt lat="47.57936" lon="-2.71339">
        <ele>4</ele>
        <time>2026-08-20T15:28:23Z</time>
      </trkpt>
      <trkpt lat="47.57941" lon="-2.71339">
        <ele>4</ele>
        <time>2026-08-20T15:28:24Z</time>
      </trkpt>
      <trkpt lat="47.57946" lon="-2.7134">
        <ele>3.9</ele>
        <time>2026-08-20T15:28:25Z</time>
      </trkpt>
      <trkpt lat="47.57951" lon="-2.71342">
        <ele>3.8</ele>
        <time>2026-08-20T15:28:26Z</time>
      </trkpt>
      <trkpt lat="47.57956" lon="-2.71343">
        <ele>3.6</ele>
        <time>2026-08-20T15:28:27Z</time>
      </trkpt>
      <trkpt lat="47.57961" lon="-2.71345">
        <ele>3.4</ele>
        <time>2026-08-20T15:28:28Z</time>
      </trkpt>
      <trkpt lat="47.57966" lon="-2.71347">
        <ele>3.2</ele>
        <time>2026-08-20T15:28:29Z</time>
      </trkpt>
      <trkpt lat="47.57971" lon="-2.71349">
        <ele>3</ele>
        <time>2026-08-20T15:28:30Z</time>
      </trkpt>
      <trkpt lat="47.57975" lon="-2.7135">
        <ele>3</ele>
        <time>2026-08-20T15:28:31Z</time>
      </trkpt>
      <trkpt lat="47.5798" lon="-2.71352">
        <ele>3</ele>
        <time>2026-08-20T15:28:32Z</time>
      </trkpt>
      <trkpt lat="47.57985" lon="-2.71354">
        <ele>3</ele>
        <time>2026-08-20T15:28:33Z</time>
      </trkpt>
      <trkpt lat="47.57988" lon="-2.71355">
        <ele>3</ele>
        <time>2026-08-20T15:28:34Z</time>
      </trkpt>
      <trkpt lat="47.57994" lon="-2.71358">
        <ele>3</ele>
        <time>2026-08-20T15:28:35Z</time>
      </trkpt>
      <trkpt lat="47.57998" lon="-2.7136">
        <ele>3</ele>
        <time>2026-08-20T15:28:36Z</time>
      </trkpt>
      <trkpt lat="47.58003" lon="-2.71361">
        <ele>3.1</ele>
        <time>2026-08-20T15:28:37Z</time>
      </trkpt>
      <trkpt lat="47.58007" lon="-2.71363">
        <ele>3.1</ele>
        <time>2026-08-20T15:28:38Z</time>
      </trkpt>
      <trkpt lat="47.58012" lon="-2.71364">
        <ele>3.2</ele>
        <time>2026-08-20T15:28:39Z</time>
      </trkpt>
      <trkpt lat="47.58017" lon="-2.71366">
        <ele>3.3</ele>
        <time>2026-08-20T15:28:40Z</time>
      </trkpt>
      <trkpt lat="47.58021" lon="-2.71368">
        <ele>3.3</ele>
        <time>2026-08-20T15:28:41Z</time>
      </trkpt>
      <trkpt lat="47.58026" lon="-2.7137">
        <ele>3.3</ele>
        <time>2026-08-20T15:28:42Z</time>
      </trkpt>
      <trkpt lat="47.5803" lon="-2.71372">
        <ele>3.2</ele>
        <time>2026-08-20T15:28:43Z</time>
      </trkpt>
      <trkpt lat="47.58035" lon="-2.71374">
        <ele>3.1</ele>
        <time>2026-08-20T15:28:44Z</time>
      </trkpt>
      <trkpt lat="47.58039" lon="-2.71375">
        <ele>3</ele>
        <time>2026-08-20T15:28:45Z</time>
      </trkpt>
      <trkpt lat="47.58043" lon="-2.71377">
        <ele>2.9</ele>
        <time>2026-08-20T15:28:46Z</time>
      </trkpt>
      <trkpt lat="47.58048" lon="-2.71379">
        <ele>2.9</ele>
        <time>2026-08-20T15:28:47Z</time>
      </trkpt>
      <trkpt lat="47.58052" lon="-2.7138">
        <ele>3</ele>
        <time>2026-08-20T15:28:48Z</time>
      </trkpt>
      <trkpt lat="47.58056" lon="-2.71382">
        <ele>3</ele>
        <time>2026-08-20T15:28:49Z</time>
      </trkpt>
      <trkpt lat="47.5806" lon="-2.71384">
        <ele>3</ele>
        <time>2026-08-20T15:28:50Z</time>
      </trkpt>
      <trkpt lat="47.58064" lon="-2.71386">
        <ele>3</ele>
        <time>2026-08-20T15:28:51Z</time>
      </trkpt>
      <trkpt lat="47.58069" lon="-2.71388">
        <ele>3</ele>
        <time>2026-08-20T15:28:52Z</time>
      </trkpt>
      <trkpt lat="47.58073" lon="-2.71391">
        <ele>2.9</ele>
        <time>2026-08-20T15:28:53Z</time>
      </trkpt>
      <trkpt lat="47.58077" lon="-2.71394">
        <ele>2.8</ele>
        <time>2026-08-20T15:28:54Z</time>
      </trkpt>
      <trkpt lat="47.58081" lon="-2.71396">
        <ele>2.7</ele>
        <time>2026-08-20T15:28:55Z</time>
      </trkpt>
      <trkpt lat="47.58084" lon="-2.71398">
        <ele>2.6</ele>
        <time>2026-08-20T15:28:56Z</time>
      </trkpt>
      <trkpt lat="47.58089" lon="-2.71402">
        <ele>2.4</ele>
        <time>2026-08-20T15:28:57Z</time>
      </trkpt>
      <trkpt lat="47.58093" lon="-2.71405">
        <ele>2.3</ele>
        <time>2026-08-20T15:28:58Z</time>
      </trkpt>
      <trkpt lat="47.58097" lon="-2.71408">
        <ele>2.3</ele>
        <time>2026-08-20T15:28:59Z</time>
      </trkpt>
      <trkpt lat="47.581" lon="-2.71411">
        <ele>2.4</ele>
        <time>2026-08-20T15:29:00Z</time>
      </trkpt>
      <trkpt lat="47.58104" lon="-2.71415">
        <ele>2.7</ele>
        <time>2026-08-20T15:29:01Z</time>
      </trkpt>
      <trkpt lat="47.58108" lon="-2.71418">
        <ele>2.8</ele>
        <time>2026-08-20T15:29:02Z</time>
      </trkpt>
      <trkpt lat="47.58111" lon="-2.71422">
        <ele>2.8</ele>
        <time>2026-08-20T15:29:03Z</time>
      </trkpt>
      <trkpt lat="47.58115" lon="-2.71426">
        <ele>2.6</ele>
        <time>2026-08-20T15:29:04Z</time>
      </trkpt>
      <trkpt lat="47.58118" lon="-2.7143">
        <ele>2.4</ele>
        <time>2026-08-20T15:29:05Z</time>
      </trkpt>
      <trkpt lat="47.58122" lon="-2.71434">
        <ele>2.2</ele>
        <time>2026-08-20T15:29:06Z</time>
      </trkpt>
      <trkpt lat="47.58125" lon="-2.71438">
        <ele>2.1</ele>
        <time>2026-08-20T15:29:07Z</time>
      </trkpt>
      <trkpt lat="47.58128" lon="-2.71442">
        <ele>2</ele>
        <time>2026-08-20T15:29:08Z</time>
      </trkpt>
      <trkpt lat="47.58132" lon="-2.71446">
        <ele>2</ele>
        <time>2026-08-20T15:29:09Z</time>
      </trkpt>
      <trkpt lat="47.58135" lon="-2.71451">
        <ele>2</ele>
        <time>2026-08-20T15:29:10Z</time>
      </trkpt>
      <trkpt lat="47.58138" lon="-2.71455">
        <ele>2</ele>
        <time>2026-08-20T15:29:11Z</time>
      </trkpt>
      <trkpt lat="47.58142" lon="-2.71459">
        <ele>2</ele>
        <time>2026-08-20T15:29:12Z</time>
      </trkpt>
      <trkpt lat="47.58145" lon="-2.71463">
        <ele>2</ele>
        <time>2026-08-20T15:29:13Z</time>
      </trkpt>
      <trkpt lat="47.58148" lon="-2.71468">
        <ele>2</ele>
        <time>2026-08-20T15:29:14Z</time>
      </trkpt>
      <trkpt lat="47.58152" lon="-2.71472">
        <ele>2</ele>
        <time>2026-08-20T15:29:15Z</time>
      </trkpt>
      <trkpt lat="47.58155" lon="-2.71477">
        <ele>2</ele>
        <time>2026-08-20T15:29:16Z</time>
      </trkpt>
      <trkpt lat="47.58158" lon="-2.71481">
        <ele>2.1</ele>
        <time>2026-08-20T15:29:17Z</time>
      </trkpt>
      <trkpt lat="47.58161" lon="-2.71486">
        <ele>2.3</ele>
        <time>2026-08-20T15:29:18Z</time>
      </trkpt>
      <trkpt lat="47.58164" lon="-2.7149">
        <ele>2.5</ele>
        <time>2026-08-20T15:29:19Z</time>
      </trkpt>
      <trkpt lat="47.58168" lon="-2.71494">
        <ele>2.8</ele>
        <time>2026-08-20T15:29:20Z</time>
      </trkpt>
      <trkpt lat="47.58171" lon="-2.71498">
        <ele>2.9</ele>
        <time>2026-08-20T15:29:21Z</time>
      </trkpt>
      <trkpt lat="47.58174" lon="-2.71503">
        <ele>2.8</ele>
        <time>2026-08-20T15:29:22Z</time>
      </trkpt>
      <trkpt lat="47.58177" lon="-2.71507">
        <ele>2.7</ele>
        <time>2026-08-20T15:29:23Z</time>
      </trkpt>
      <trkpt lat="47.58181" lon="-2.71512">
        <ele>2.6</ele>
        <time>2026-08-20T15:29:24Z</time>
      </trkpt>
      <trkpt lat="47.58184" lon="-2.71516">
        <ele>2.6</ele>
        <time>2026-08-20T15:29:25Z</time>
      </trkpt>
      <trkpt lat="47.58187" lon="-2.7152">
        <ele>2.6</ele>
        <time>2026-08-20T15:29:26Z</time>
      </trkpt>
      <trkpt lat="47.5819" lon="-2.71524">
        <ele>2.7</ele>
        <time>2026-08-20T15:29:27Z</time>
      </trkpt>
      <trkpt lat="47.58193" lon="-2.71528">
        <ele>2.9</ele>
        <time>2026-08-20T15:29:28Z</time>
      </trkpt>
      <trkpt lat="47.58196" lon="-2.71533">
        <ele>2.8</ele>
        <time>2026-08-20T15:29:29Z</time>
      </trkpt>
      <trkpt lat="47.58199" lon="-2.71537">
        <ele>2.6</ele>
        <time>2026-08-20T15:29:30Z</time>
      </trkpt>
      <trkpt lat="47.58203" lon="-2.71541">
        <ele>2.4</ele>
        <time>2026-08-20T15:29:31Z</time>
      </trkpt>
      <trkpt lat="47.58206" lon="-2.71546">
        <ele>2.2</ele>
        <time>2026-08-20T15:29:32Z</time>
      </trkpt>
      <trkpt lat="47.58209" lon="-2.7155">
        <ele>2.1</ele>
        <time>2026-08-20T15:29:33Z</time>
      </trkpt>
      <trkpt lat="47.58212" lon="-2.71554">
        <ele>2</ele>
        <time>2026-08-20T15:29:34Z</time>
      </trkpt>
      <trkpt lat="47.58215" lon="-2.71559">
        <ele>2.1</ele>
        <time>2026-08-20T15:29:35Z</time>
      </trkpt>
      <trkpt lat="47.58218" lon="-2.71563">
        <ele>2.2</ele>
        <time>2026-08-20T15:29:36Z</time>
      </trkpt>
      <trkpt lat="47.58222" lon="-2.71568">
        <ele>2.4</ele>
        <time>2026-08-20T15:29:37Z</time>
      </trkpt>
      <trkpt lat="47.58225" lon="-2.71572">
        <ele>2.5</ele>
        <time>2026-08-20T15:29:38Z</time>
      </trkpt>
      <trkpt lat="47.58228" lon="-2.71577">
        <ele>2.6</ele>
        <time>2026-08-20T15:29:39Z</time>
      </trkpt>
      <trkpt lat="47.58231" lon="-2.71581">
        <ele>2.6</ele>
        <time>2026-08-20T15:29:40Z</time>
      </trkpt>
      <trkpt lat="47.58235" lon="-2.71586">
        <ele>2.6</ele>
        <time>2026-08-20T15:29:41Z</time>
      </trkpt>
      <trkpt lat="47.58238" lon="-2.7159">
        <ele>2.6</ele>
        <time>2026-08-20T15:29:42Z</time>
      </trkpt>
      <trkpt lat="47.58242" lon="-2.71595">
        <ele>2.6</ele>
        <time>2026-08-20T15:29:43Z</time>
      </trkpt>
      <trkpt lat="47.58246" lon="-2.71599">
        <ele>2.6</ele>
        <time>2026-08-20T15:29:44Z</time>
      </trkpt>
      <trkpt lat="47.58249" lon="-2.71604">
        <ele>2.8</ele>
        <time>2026-08-20T15:29:45Z</time>
      </trkpt>
      <trkpt lat="47.58253" lon="-2.71608">
        <ele>2.8</ele>
        <time>2026-08-20T15:29:46Z</time>
      </trkpt>
      <trkpt lat="47.58256" lon="-2.71613">
        <ele>2.8</ele>
        <time>2026-08-20T15:29:47Z</time>
      </trkpt>
      <trkpt lat="47.5826" lon="-2.71617">
        <ele>2.7</ele>
        <time>2026-08-20T15:29:48Z</time>
      </trkpt>
      <trkpt lat="47.58264" lon="-2.71621">
        <ele>2.7</ele>
        <time>2026-08-20T15:29:49Z</time>
      </trkpt>
      <trkpt lat="47.58267" lon="-2.71625">
        <ele>2.7</ele>
        <time>2026-08-20T15:29:50Z</time>
      </trkpt>
      <trkpt lat="47.58271" lon="-2.71629">
        <ele>2.7</ele>
        <time>2026-08-20T15:29:51Z</time>
      </trkpt>
      <trkpt lat="47.58275" lon="-2.71633">
        <ele>2.8</ele>
        <time>2026-08-20T15:29:52Z</time>
      </trkpt>
      <trkpt lat="47.58279" lon="-2.71637">
        <ele>2.9</ele>
        <time>2026-08-20T15:29:53Z</time>
      </trkpt>
      <trkpt lat="47.58282" lon="-2.71641">
        <ele>3</ele>
        <time>2026-08-20T15:29:54Z</time>
      </trkpt>
      <trkpt lat="47.58286" lon="-2.71644">
        <ele>3.1</ele>
        <time>2026-08-20T15:29:55Z</time>
      </trkpt>
      <trkpt lat="47.5829" lon="-2.71648">
        <ele>3.1</ele>
        <time>2026-08-20T15:29:56Z</time>
      </trkpt>
      <trkpt lat="47.58294" lon="-2.71651">
        <ele>3.3</ele>
        <time>2026-08-20T15:29:57Z</time>
      </trkpt>
      <trkpt lat="47.58298" lon="-2.71654">
        <ele>3.4</ele>
        <time>2026-08-20T15:29:58Z</time>
      </trkpt>
      <trkpt lat="47.58302" lon="-2.71657">
        <ele>3.6</ele>
        <time>2026-08-20T15:29:59Z</time>
      </trkpt>
      <trkpt lat="47.58306" lon="-2.7166">
        <ele>3.8</ele>
        <time>2026-08-20T15:30:00Z</time>
      </trkpt>
      <trkpt lat="47.58309" lon="-2.71662">
        <ele>4</ele>
        <time>2026-08-20T15:30:01Z</time>
      </trkpt>
      <trkpt lat="47.58313" lon="-2.71665">
        <ele>4.2</ele>
        <time>2026-08-20T15:30:02Z</time>
      </trkpt>
      <trkpt lat="47.58317" lon="-2.71668">
        <ele>4.4</ele>
        <time>2026-08-20T15:30:03Z</time>
      </trkpt>
      <trkpt lat="47.5832" lon="-2.71671">
        <ele>4.6</ele>
        <time>2026-08-20T15:30:04Z</time>
      </trkpt>
      <trkpt lat="47.58324" lon="-2.71673">
        <ele>4.7</ele>
        <time>2026-08-20T15:30:05Z</time>
      </trkpt>
      <trkpt lat="47.58328" lon="-2.71676">
        <ele>4.9</ele>
        <time>2026-08-20T15:30:06Z</time>
      </trkpt>
      <trkpt lat="47.58331" lon="-2.71678">
        <ele>5</ele>
        <time>2026-08-20T15:30:07Z</time>
      </trkpt>
      <trkpt lat="47.58335" lon="-2.71681">
        <ele>5.1</ele>
        <time>2026-08-20T15:30:08Z</time>
      </trkpt>
      <trkpt lat="47.58338" lon="-2.71683">
        <ele>5.2</ele>
        <time>2026-08-20T15:30:09Z</time>
      </trkpt>
      <trkpt lat="47.58342" lon="-2.71685">
        <ele>5.3</ele>
        <time>2026-08-20T15:30:10Z</time>
      </trkpt>
      <trkpt lat="47.58346" lon="-2.71687">
        <ele>5.5</ele>
        <time>2026-08-20T15:30:11Z</time>
      </trkpt>
      <trkpt lat="47.5835" lon="-2.71688">
        <ele>5.6</ele>
        <time>2026-08-20T15:30:12Z</time>
      </trkpt>
      <trkpt lat="47.58354" lon="-2.7169">
        <ele>5.7</ele>
        <time>2026-08-20T15:30:13Z</time>
      </trkpt>
      <trkpt lat="47.58357" lon="-2.71692">
        <ele>5.9</ele>
        <time>2026-08-20T15:30:14Z</time>
      </trkpt>
      <trkpt lat="47.58361" lon="-2.71693">
        <ele>6</ele>
        <time>2026-08-20T15:30:15Z</time>
      </trkpt>
      <trkpt lat="47.58365" lon="-2.71694">
        <ele>6.1</ele>
        <time>2026-08-20T15:30:16Z</time>
      </trkpt>
      <trkpt lat="47.58369" lon="-2.71696">
        <ele>6.3</ele>
        <time>2026-08-20T15:30:17Z</time>
      </trkpt>
      <trkpt lat="47.58372" lon="-2.71696">
        <ele>6.4</ele>
        <time>2026-08-20T15:30:18Z</time>
      </trkpt>
      <trkpt lat="47.58376" lon="-2.71697">
        <ele>6.5</ele>
        <time>2026-08-20T15:30:19Z</time>
      </trkpt>
      <trkpt lat="47.5838" lon="-2.71699">
        <ele>6.7</ele>
        <time>2026-08-20T15:30:20Z</time>
      </trkpt>
      <trkpt lat="47.58384" lon="-2.717">
        <ele>6.8</ele>
        <time>2026-08-20T15:30:21Z</time>
      </trkpt>
      <trkpt lat="47.58388" lon="-2.71702">
        <ele>7</ele>
        <time>2026-08-20T15:30:22Z</time>
      </trkpt>
      <trkpt lat="47.58391" lon="-2.71703">
        <ele>7.1</ele>
        <time>2026-08-20T15:30:23Z</time>
      </trkpt>
      <trkpt lat="47.58395" lon="-2.71704">
        <ele>7.2</ele>
        <time>2026-08-20T15:30:24Z</time>
      </trkpt>
      <trkpt lat="47.58399" lon="-2.71706">
        <ele>7.4</ele>
        <time>2026-08-20T15:30:25Z</time>
      </trkpt>
      <trkpt lat="47.58402" lon="-2.71708">
        <ele>7.5</ele>
        <time>2026-08-20T15:30:26Z</time>
      </trkpt>
      <trkpt lat="47.58406" lon="-2.71709">
        <ele>7.6</ele>
        <time>2026-08-20T15:30:27Z</time>
      </trkpt>
      <trkpt lat="47.5841" lon="-2.71711">
        <ele>7.8</ele>
        <time>2026-08-20T15:30:28Z</time>
      </trkpt>
      <trkpt lat="47.58413" lon="-2.71712">
        <ele>7.9</ele>
        <time>2026-08-20T15:30:29Z</time>
      </trkpt>
      <trkpt lat="47.58417" lon="-2.71714">
        <ele>8</ele>
        <time>2026-08-20T15:30:30Z</time>
      </trkpt>
      <trkpt lat="47.5842" lon="-2.71715">
        <ele>7.9</ele>
        <time>2026-08-20T15:30:31Z</time>
      </trkpt>
      <trkpt lat="47.58423" lon="-2.71716">
        <ele>7.9</ele>
        <time>2026-08-20T15:30:32Z</time>
      </trkpt>
      <trkpt lat="47.58427" lon="-2.71718">
        <ele>7.7</ele>
        <time>2026-08-20T15:30:33Z</time>
      </trkpt>
      <trkpt lat="47.58431" lon="-2.71719">
        <ele>7.6</ele>
        <time>2026-08-20T15:30:34Z</time>
      </trkpt>
      <trkpt lat="47.58435" lon="-2.71722">
        <ele>7.4</ele>
        <time>2026-08-20T15:30:35Z</time>
      </trkpt>
      <trkpt lat="47.58439" lon="-2.71724">
        <ele>7.1</ele>
        <time>2026-08-20T15:30:36Z</time>
      </trkpt>
      <trkpt lat="47.58443" lon="-2.71726">
        <ele>6.9</ele>
        <time>2026-08-20T15:30:37Z</time>
      </trkpt>
      <trkpt lat="47.58447" lon="-2.71728">
        <ele>6.8</ele>
        <time>2026-08-20T15:30:38Z</time>
      </trkpt>
      <trkpt lat="47.58452" lon="-2.71731">
        <ele>6.6</ele>
        <time>2026-08-20T15:30:39Z</time>
      </trkpt>
      <trkpt lat="47.58456" lon="-2.71734">
        <ele>6.4</ele>
        <time>2026-08-20T15:30:40Z</time>
      </trkpt>
      <trkpt lat="47.58461" lon="-2.71737">
        <ele>6.2</ele>
        <time>2026-08-20T15:30:41Z</time>
      </trkpt>
      <trkpt lat="47.58465" lon="-2.71741">
        <ele>5.8</ele>
        <time>2026-08-20T15:30:42Z</time>
      </trkpt>
      <trkpt lat="47.5847" lon="-2.71744">
        <ele>5.5</ele>
        <time>2026-08-20T15:30:43Z</time>
      </trkpt>
      <trkpt lat="47.58475" lon="-2.71748">
        <ele>5</ele>
        <time>2026-08-20T15:30:44Z</time>
      </trkpt>
      <trkpt lat="47.5848" lon="-2.71753">
        <ele>4.6</ele>
        <time>2026-08-20T15:30:45Z</time>
      </trkpt>
      <trkpt lat="47.58485" lon="-2.71757">
        <ele>4.3</ele>
        <time>2026-08-20T15:30:46Z</time>
      </trkpt>
      <trkpt lat="47.58491" lon="-2.71761">
        <ele>3.9</ele>
        <time>2026-08-20T15:30:47Z</time>
      </trkpt>
      <trkpt lat="47.58496" lon="-2.71765">
        <ele>3.6</ele>
        <time>2026-08-20T15:30:48Z</time>
      </trkpt>
      <trkpt lat="47.58502" lon="-2.71769">
        <ele>3.3</ele>
        <time>2026-08-20T15:30:49Z</time>
      </trkpt>
      <trkpt lat="47.58507" lon="-2.71772">
        <ele>3.2</ele>
        <time>2026-08-20T15:30:50Z</time>
      </trkpt>
      <trkpt lat="47.58513" lon="-2.71775">
        <ele>3.1</ele>
        <time>2026-08-20T15:30:51Z</time>
      </trkpt>
      <trkpt lat="47.58519" lon="-2.71777">
        <ele>3</ele>
        <time>2026-08-20T15:30:52Z</time>
      </trkpt>
      <trkpt lat="47.58525" lon="-2.71778">
        <ele>3</ele>
        <time>2026-08-20T15:30:53Z</time>
      </trkpt>
      <trkpt lat="47.5853" lon="-2.71779">
        <ele>2.9</ele>
        <time>2026-08-20T15:30:54Z</time>
      </trkpt>
      <trkpt lat="47.58536" lon="-2.71779">
        <ele>2.9</ele>
        <time>2026-08-20T15:30:55Z</time>
      </trkpt>
      <trkpt lat="47.58541" lon="-2.71779">
        <ele>2.9</ele>
        <time>2026-08-20T15:30:56Z</time>
      </trkpt>
      <trkpt lat="47.58546" lon="-2.7178">
        <ele>2.8</ele>
        <time>2026-08-20T15:30:57Z</time>
      </trkpt>
      <trkpt lat="47.58552" lon="-2.7178">
        <ele>2.8</ele>
        <time>2026-08-20T15:30:58Z</time>
      </trkpt>
      <trkpt lat="47.58557" lon="-2.7178">
        <ele>2.9</ele>
        <time>2026-08-20T15:30:59Z</time>
      </trkpt>
      <trkpt lat="47.58562" lon="-2.71781">
        <ele>3</ele>
        <time>2026-08-20T15:31:00Z</time>
      </trkpt>
      <trkpt lat="47.58567" lon="-2.71781">
        <ele>3.2</ele>
        <time>2026-08-20T15:31:01Z</time>
      </trkpt>
      <trkpt lat="47.58571" lon="-2.71782">
        <ele>3.3</ele>
        <time>2026-08-20T15:31:02Z</time>
      </trkpt>
      <trkpt lat="47.58576" lon="-2.71783">
        <ele>3.4</ele>
        <time>2026-08-20T15:31:03Z</time>
      </trkpt>
      <trkpt lat="47.58581" lon="-2.71784">
        <ele>3.5</ele>
        <time>2026-08-20T15:31:04Z</time>
      </trkpt>
      <trkpt lat="47.58586" lon="-2.71786">
        <ele>3.5</ele>
        <time>2026-08-20T15:31:05Z</time>
      </trkpt>
      <trkpt lat="47.5859" lon="-2.71788">
        <ele>3.5</ele>
        <time>2026-08-20T15:31:06Z</time>
      </trkpt>
      <trkpt lat="47.58594" lon="-2.7179">
        <ele>3.5</ele>
        <time>2026-08-20T15:31:07Z</time>
      </trkpt>
      <trkpt lat="47.58598" lon="-2.71792">
        <ele>3.5</ele>
        <time>2026-08-20T15:31:08Z</time>
      </trkpt>
      <trkpt lat="47.58602" lon="-2.71794">
        <ele>3.5</ele>
        <time>2026-08-20T15:31:09Z</time>
      </trkpt>
      <trkpt lat="47.58607" lon="-2.71796">
        <ele>3.5</ele>
        <time>2026-08-20T15:31:10Z</time>
      </trkpt>
      <trkpt lat="47.58611" lon="-2.71798">
        <ele>3.5</ele>
        <time>2026-08-20T15:31:11Z</time>
      </trkpt>
      <trkpt lat="47.58615" lon="-2.718">
        <ele>3.5</ele>
        <time>2026-08-20T15:31:12Z</time>
      </trkpt>
      <trkpt lat="47.5862" lon="-2.71803">
        <ele>3.5</ele>
        <time>2026-08-20T15:31:13Z</time>
      </trkpt>
      <trkpt lat="47.58624" lon="-2.71805">
        <ele>3.5</ele>
        <time>2026-08-20T15:31:14Z</time>
      </trkpt>
      <trkpt lat="47.58628" lon="-2.71808">
        <ele>3.4</ele>
        <time>2026-08-20T15:31:15Z</time>
      </trkpt>
      <trkpt lat="47.58633" lon="-2.7181">
        <ele>3.5</ele>
        <time>2026-08-20T15:31:16Z</time>
      </trkpt>
      <trkpt lat="47.58637" lon="-2.71811">
        <ele>3.5</ele>
        <time>2026-08-20T15:31:17Z</time>
      </trkpt>
      <trkpt lat="47.58642" lon="-2.71813">
        <ele>3.4</ele>
        <time>2026-08-20T15:31:18Z</time>
      </trkpt>
      <trkpt lat="47.58646" lon="-2.71815">
        <ele>3.2</ele>
        <time>2026-08-20T15:31:19Z</time>
      </trkpt>
      <trkpt lat="47.58651" lon="-2.71817">
        <ele>2.9</ele>
        <time>2026-08-20T15:31:20Z</time>
      </trkpt>
      <trkpt lat="47.58656" lon="-2.71818">
        <ele>2.8</ele>
        <time>2026-08-20T15:31:21Z</time>
      </trkpt>
      <trkpt lat="47.5866" lon="-2.7182">
        <ele>2.6</ele>
        <time>2026-08-20T15:31:22Z</time>
      </trkpt>
      <trkpt lat="47.58665" lon="-2.7182">
        <ele>2.5</ele>
        <time>2026-08-20T15:31:23Z</time>
      </trkpt>
      <trkpt lat="47.5867" lon="-2.71821">
        <ele>2.4</ele>
        <time>2026-08-20T15:31:24Z</time>
      </trkpt>
      <trkpt lat="47.58674" lon="-2.71821">
        <ele>2.4</ele>
        <time>2026-08-20T15:31:25Z</time>
      </trkpt>
      <trkpt lat="47.58679" lon="-2.71821">
        <ele>2.4</ele>
        <time>2026-08-20T15:31:26Z</time>
      </trkpt>
      <trkpt lat="47.58684" lon="-2.7182">
        <ele>2.5</ele>
        <time>2026-08-20T15:31:27Z</time>
      </trkpt>
      <trkpt lat="47.58689" lon="-2.7182">
        <ele>2.4</ele>
        <time>2026-08-20T15:31:28Z</time>
      </trkpt>
      <trkpt lat="47.58694" lon="-2.71819">
        <ele>2.5</ele>
        <time>2026-08-20T15:31:29Z</time>
      </trkpt>
      <trkpt lat="47.58699" lon="-2.71819">
        <ele>2.7</ele>
        <time>2026-08-20T15:31:30Z</time>
      </trkpt>
      <trkpt lat="47.58704" lon="-2.71818">
        <ele>3</ele>
        <time>2026-08-20T15:31:31Z</time>
      </trkpt>
      <trkpt lat="47.58708" lon="-2.71818">
        <ele>3.1</ele>
        <time>2026-08-20T15:31:32Z</time>
      </trkpt>
      <trkpt lat="47.58713" lon="-2.71817">
        <ele>3.4</ele>
        <time>2026-08-20T15:31:33Z</time>
      </trkpt>
      <trkpt lat="47.58717" lon="-2.71817">
        <ele>3.6</ele>
        <time>2026-08-20T15:31:34Z</time>
      </trkpt>
      <trkpt lat="47.58721" lon="-2.71817">
        <ele>3.7</ele>
        <time>2026-08-20T15:31:35Z</time>
      </trkpt>
      <trkpt lat="47.58726" lon="-2.71816">
        <ele>3.8</ele>
        <time>2026-08-20T15:31:36Z</time>
      </trkpt>
      <trkpt lat="47.5873" lon="-2.71816">
        <ele>3.8</ele>
        <time>2026-08-20T15:31:37Z</time>
      </trkpt>
      <trkpt lat="47.58735" lon="-2.71816">
        <ele>3.7</ele>
        <time>2026-08-20T15:31:38Z</time>
      </trkpt>
      <trkpt lat="47.58739" lon="-2.71815">
        <ele>3.8</ele>
        <time>2026-08-20T15:31:39Z</time>
      </trkpt>
      <trkpt lat="47.58744" lon="-2.71815">
        <ele>3.7</ele>
        <time>2026-08-20T15:31:40Z</time>
      </trkpt>
      <trkpt lat="47.58749" lon="-2.71815">
        <ele>3.7</ele>
        <time>2026-08-20T15:31:41Z</time>
      </trkpt>
      <trkpt lat="47.58753" lon="-2.71815">
        <ele>3.6</ele>
        <time>2026-08-20T15:31:42Z</time>
      </trkpt>
      <trkpt lat="47.58758" lon="-2.71814">
        <ele>3.8</ele>
        <time>2026-08-20T15:31:43Z</time>
      </trkpt>
      <trkpt lat="47.58763" lon="-2.71814">
        <ele>3.8</ele>
        <time>2026-08-20T15:31:44Z</time>
      </trkpt>
      <trkpt lat="47.58767" lon="-2.71814">
        <ele>3.8</ele>
        <time>2026-08-20T15:31:45Z</time>
      </trkpt>
      <trkpt lat="47.58771" lon="-2.71814">
        <ele>3.8</ele>
        <time>2026-08-20T15:31:46Z</time>
      </trkpt>
      <trkpt lat="47.58777" lon="-2.71814">
        <ele>3.8</ele>
        <time>2026-08-20T15:31:47Z</time>
      </trkpt>
      <trkpt lat="47.58782" lon="-2.71814">
        <ele>3.8</ele>
        <time>2026-08-20T15:31:48Z</time>
      </trkpt>
      <trkpt lat="47.58787" lon="-2.71815">
        <ele>3.6</ele>
        <time>2026-08-20T15:31:49Z</time>
      </trkpt>
      <trkpt lat="47.58792" lon="-2.71815">
        <ele>3.6</ele>
        <time>2026-08-20T15:31:50Z</time>
      </trkpt>
      <trkpt lat="47.58797" lon="-2.71815">
        <ele>3.6</ele>
        <time>2026-08-20T15:31:51Z</time>
      </trkpt>
      <trkpt lat="47.58802" lon="-2.71815">
        <ele>3.6</ele>
        <time>2026-08-20T15:31:52Z</time>
      </trkpt>
      <trkpt lat="47.58807" lon="-2.71814">
        <ele>3.6</ele>
        <time>2026-08-20T15:31:53Z</time>
      </trkpt>
      <trkpt lat="47.58811" lon="-2.71813">
        <ele>3.4</ele>
        <time>2026-08-20T15:31:54Z</time>
      </trkpt>
      <trkpt lat="47.58815" lon="-2.7181">
        <ele>3.2</ele>
        <time>2026-08-20T15:31:55Z</time>
      </trkpt>
      <trkpt lat="47.58819" lon="-2.71806">
        <ele>3</ele>
        <time>2026-08-20T15:31:56Z</time>
      </trkpt>
      <trkpt lat="47.58822" lon="-2.71801">
        <ele>2.9</ele>
        <time>2026-08-20T15:31:57Z</time>
      </trkpt>
      <trkpt lat="47.58824" lon="-2.71796">
        <ele>2.9</ele>
        <time>2026-08-20T15:31:58Z</time>
      </trkpt>
      <trkpt lat="47.58826" lon="-2.71792">
        <ele>2.9</ele>
        <time>2026-08-20T15:31:59Z</time>
      </trkpt>
      <trkpt lat="47.58827" lon="-2.71787">
        <ele>3.1</ele>
        <time>2026-08-20T15:32:00Z</time>
      </trkpt>
      <trkpt lat="47.58829" lon="-2.71783">
        <ele>3.1</ele>
        <time>2026-08-20T15:32:01Z</time>
      </trkpt>
      <trkpt lat="47.58829" lon="-2.7178">
        <ele>3.3</ele>
        <time>2026-08-20T15:32:02Z</time>
      </trkpt>
      <trkpt lat="47.5883" lon="-2.71777">
        <ele>3.3</ele>
        <time>2026-08-20T15:32:03Z</time>
      </trkpt>
      <trkpt lat="47.58831" lon="-2.71775">
        <ele>3.2</ele>
        <time>2026-08-20T15:32:04Z</time>
      </trkpt>
      <trkpt lat="47.58832" lon="-2.71775">
        <ele>3</ele>
        <time>2026-08-20T15:32:05Z</time>
      </trkpt>
      <trkpt lat="47.58832" lon="-2.71775">
        <ele>3</ele>
        <time>2026-08-20T15:32:06Z</time>
      </trkpt>
      <trkpt lat="47.58832" lon="-2.71775">
        <ele>3</ele>
        <time>2026-08-20T15:32:07Z</time>
      </trkpt>
      <trkpt lat="47.5883" lon="-2.71769">
        <ele>3.1</ele>
        <time>2026-08-20T15:32:41Z</time>
      </trkpt>
      <trkpt lat="47.58829" lon="-2.71766">
        <ele>3.1</ele>
        <time>2026-08-20T15:32:42Z</time>
      </trkpt>
      <trkpt lat="47.58827" lon="-2.71762">
        <ele>3.2</ele>
        <time>2026-08-20T15:32:43Z</time>
      </trkpt>
      <trkpt lat="47.58824" lon="-2.71759">
        <ele>3.6</ele>
        <time>2026-08-20T15:32:44Z</time>
      </trkpt>
      <trkpt lat="47.58822" lon="-2.71754">
        <ele>3.7</ele>
        <time>2026-08-20T15:32:45Z</time>
      </trkpt>
      <trkpt lat="47.5882" lon="-2.71749">
        <ele>4</ele>
        <time>2026-08-20T15:32:46Z</time>
      </trkpt>
      <trkpt lat="47.58818" lon="-2.71744">
        <ele>4.4</ele>
        <time>2026-08-20T15:32:47Z</time>
      </trkpt>
      <trkpt lat="47.58815" lon="-2.71739">
        <ele>4.8</ele>
        <time>2026-08-20T15:32:48Z</time>
      </trkpt>
      <trkpt lat="47.58813" lon="-2.71733">
        <ele>5</ele>
        <time>2026-08-20T15:32:49Z</time>
      </trkpt>
      <trkpt lat="47.58811" lon="-2.71728">
        <ele>5</ele>
        <time>2026-08-20T15:32:50Z</time>
      </trkpt>
      <trkpt lat="47.5881" lon="-2.71723">
        <ele>5</ele>
        <time>2026-08-20T15:32:51Z</time>
      </trkpt>
      <trkpt lat="47.58807" lon="-2.71715">
        <ele>4.5</ele>
        <time>2026-08-20T15:32:52Z</time>
      </trkpt>
      <trkpt lat="47.58806" lon="-2.71709">
        <ele>4</ele>
        <time>2026-08-20T15:32:53Z</time>
      </trkpt>
      <trkpt lat="47.58804" lon="-2.71702">
        <ele>3.7</ele>
        <time>2026-08-20T15:32:54Z</time>
      </trkpt>
      <trkpt lat="47.58803" lon="-2.71696">
        <ele>3.4</ele>
        <time>2026-08-20T15:32:55Z</time>
      </trkpt>
      <trkpt lat="47.58801" lon="-2.7169">
        <ele>3.2</ele>
        <time>2026-08-20T15:32:56Z</time>
      </trkpt>
      <trkpt lat="47.588" lon="-2.71683">
        <ele>2.9</ele>
        <time>2026-08-20T15:32:57Z</time>
      </trkpt>
      <trkpt lat="47.58798" lon="-2.71677">
        <ele>2.7</ele>
        <time>2026-08-20T15:32:58Z</time>
      </trkpt>
      <trkpt lat="47.58797" lon="-2.7167">
        <ele>2.4</ele>
        <time>2026-08-20T15:32:59Z</time>
      </trkpt>
      <trkpt lat="47.58796" lon="-2.71665">
        <ele>2.4</ele>
        <time>2026-08-20T15:33:00Z</time>
      </trkpt>
      <trkpt lat="47.58795" lon="-2.71657">
        <ele>2.5</ele>
        <time>2026-08-20T15:33:01Z</time>
      </trkpt>
      <trkpt lat="47.58793" lon="-2.7165">
        <ele>2.8</ele>
        <time>2026-08-20T15:33:02Z</time>
      </trkpt>
      <trkpt lat="47.58793" lon="-2.71644">
        <ele>2.8</ele>
        <time>2026-08-20T15:33:03Z</time>
      </trkpt>
      <trkpt lat="47.58792" lon="-2.71637">
        <ele>3</ele>
        <time>2026-08-20T15:33:04Z</time>
      </trkpt>
      <trkpt lat="47.58792" lon="-2.71631">
        <ele>3.1</ele>
        <time>2026-08-20T15:33:05Z</time>
      </trkpt>
      <trkpt lat="47.58793" lon="-2.71624">
        <ele>3.1</ele>
        <time>2026-08-20T15:33:06Z</time>
      </trkpt>
      <trkpt lat="47.58794" lon="-2.71617">
        <ele>3.1</ele>
        <time>2026-08-20T15:33:07Z</time>
      </trkpt>
      <trkpt lat="47.58795" lon="-2.7161">
        <ele>3.1</ele>
        <time>2026-08-20T15:33:08Z</time>
      </trkpt>
      <trkpt lat="47.58796" lon="-2.71603">
        <ele>3.1</ele>
        <time>2026-08-20T15:33:09Z</time>
      </trkpt>
      <trkpt lat="47.58797" lon="-2.71597">
        <ele>3.1</ele>
        <time>2026-08-20T15:33:10Z</time>
      </trkpt>
      <trkpt lat="47.58798" lon="-2.7159">
        <ele>3.2</ele>
        <time>2026-08-20T15:33:11Z</time>
      </trkpt>
      <trkpt lat="47.588" lon="-2.71583">
        <ele>3.2</ele>
        <time>2026-08-20T15:33:12Z</time>
      </trkpt>
      <trkpt lat="47.588" lon="-2.71578">
        <ele>3.2</ele>
        <time>2026-08-20T15:33:13Z</time>
      </trkpt>
      <trkpt lat="47.58801" lon="-2.7157">
        <ele>3.2</ele>
        <time>2026-08-20T15:33:14Z</time>
      </trkpt>
      <trkpt lat="47.588" lon="-2.71563">
        <ele>3.2</ele>
        <time>2026-08-20T15:33:15Z</time>
      </trkpt>
      <trkpt lat="47.588" lon="-2.71557">
        <ele>3.2</ele>
        <time>2026-08-20T15:33:16Z</time>
      </trkpt>
      <trkpt lat="47.58799" lon="-2.7155">
        <ele>3.2</ele>
        <time>2026-08-20T15:33:17Z</time>
      </trkpt>
      <trkpt lat="47.58797" lon="-2.71544">
        <ele>3.3</ele>
        <time>2026-08-20T15:33:18Z</time>
      </trkpt>
      <trkpt lat="47.58796" lon="-2.71537">
        <ele>3.3</ele>
        <time>2026-08-20T15:33:19Z</time>
      </trkpt>
      <trkpt lat="47.58795" lon="-2.71531">
        <ele>3.4</ele>
        <time>2026-08-20T15:33:20Z</time>
      </trkpt>
      <trkpt lat="47.58793" lon="-2.71524">
        <ele>3.4</ele>
        <time>2026-08-20T15:33:21Z</time>
      </trkpt>
      <trkpt lat="47.5879" lon="-2.71519">
        <ele>3.4</ele>
        <time>2026-08-20T15:33:22Z</time>
      </trkpt>
      <trkpt lat="47.58787" lon="-2.71515">
        <ele>3.4</ele>
        <time>2026-08-20T15:33:23Z</time>
      </trkpt>
      <trkpt lat="47.58782" lon="-2.71514">
        <ele>3.4</ele>
        <time>2026-08-20T15:33:24Z</time>
      </trkpt>
      <trkpt lat="47.58778" lon="-2.71514">
        <ele>3.5</ele>
        <time>2026-08-20T15:33:25Z</time>
      </trkpt>
      <trkpt lat="47.58775" lon="-2.71515">
        <ele>3.6</ele>
        <time>2026-08-20T15:33:26Z</time>
      </trkpt>
      <trkpt lat="47.5877" lon="-2.71518">
        <ele>3.8</ele>
        <time>2026-08-20T15:33:27Z</time>
      </trkpt>
      <trkpt lat="47.58766" lon="-2.71519">
        <ele>4</ele>
        <time>2026-08-20T15:33:28Z</time>
      </trkpt>
      <trkpt lat="47.58762" lon="-2.7152">
        <ele>4</ele>
        <time>2026-08-20T15:33:29Z</time>
      </trkpt>
      <trkpt lat="47.58758" lon="-2.7152">
        <ele>4.1</ele>
        <time>2026-08-20T15:33:30Z</time>
      </trkpt>
      <trkpt lat="47.58754" lon="-2.71521">
        <ele>4.2</ele>
        <time>2026-08-20T15:33:31Z</time>
      </trkpt>
      <trkpt lat="47.5875" lon="-2.71521">
        <ele>4.2</ele>
        <time>2026-08-20T15:33:32Z</time>
      </trkpt>
      <trkpt lat="47.58746" lon="-2.7152">
        <ele>4.4</ele>
        <time>2026-08-20T15:33:33Z</time>
      </trkpt>
      <trkpt lat="47.58742" lon="-2.71519">
        <ele>4.5</ele>
        <time>2026-08-20T15:33:34Z</time>
      </trkpt>
      <trkpt lat="47.58738" lon="-2.71519">
        <ele>4.6</ele>
        <time>2026-08-20T15:33:35Z</time>
      </trkpt>
      <trkpt lat="47.58734" lon="-2.71518">
        <ele>4.7</ele>
        <time>2026-08-20T15:33:36Z</time>
      </trkpt>
      <trkpt lat="47.5873" lon="-2.71517">
        <ele>4.8</ele>
        <time>2026-08-20T15:33:37Z</time>
      </trkpt>
      <trkpt lat="47.58727" lon="-2.71517">
        <ele>4.9</ele>
        <time>2026-08-20T15:33:38Z</time>
      </trkpt>
      <trkpt lat="47.58723" lon="-2.71516">
        <ele>5</ele>
        <time>2026-08-20T15:33:39Z</time>
      </trkpt>
      <trkpt lat="47.58719" lon="-2.71516">
        <ele>5</ele>
        <time>2026-08-20T15:33:40Z</time>
      </trkpt>
      <trkpt lat="47.58715" lon="-2.71515">
        <ele>5.1</ele>
        <time>2026-08-20T15:33:41Z</time>
      </trkpt>
      <trkpt lat="47.58711" lon="-2.71515">
        <ele>5.2</ele>
        <time>2026-08-20T15:33:42Z</time>
      </trkpt>
      <trkpt lat="47.58708" lon="-2.71515">
        <ele>5.2</ele>
        <time>2026-08-20T15:33:43Z</time>
      </trkpt>
      <trkpt lat="47.58703" lon="-2.71514">
        <ele>5.3</ele>
        <time>2026-08-20T15:33:44Z</time>
      </trkpt>
      <trkpt lat="47.587" lon="-2.71514">
        <ele>5.4</ele>
        <time>2026-08-20T15:33:45Z</time>
      </trkpt>
      <trkpt lat="47.58696" lon="-2.71513">
        <ele>5.5</ele>
        <time>2026-08-20T15:33:46Z</time>
      </trkpt>
      <trkpt lat="47.58692" lon="-2.71513">
        <ele>5.6</ele>
        <time>2026-08-20T15:33:47Z</time>
      </trkpt>
      <trkpt lat="47.58688" lon="-2.71512">
        <ele>5.7</ele>
        <time>2026-08-20T15:33:48Z</time>
      </trkpt>
      <trkpt lat="47.58684" lon="-2.71511">
        <ele>5.8</ele>
        <time>2026-08-20T15:33:49Z</time>
      </trkpt>
      <trkpt lat="47.5868" lon="-2.71511">
        <ele>5.8</ele>
        <time>2026-08-20T15:33:50Z</time>
      </trkpt>
      <trkpt lat="47.58676" lon="-2.71511">
        <ele>5.9</ele>
        <time>2026-08-20T15:33:51Z</time>
      </trkpt>
      <trkpt lat="47.58672" lon="-2.7151">
        <ele>5.9</ele>
        <time>2026-08-20T15:33:52Z</time>
      </trkpt>
      <trkpt lat="47.58668" lon="-2.71509">
        <ele>6</ele>
        <time>2026-08-20T15:33:53Z</time>
      </trkpt>
      <trkpt lat="47.58664" lon="-2.71509">
        <ele>6</ele>
        <time>2026-08-20T15:33:54Z</time>
      </trkpt>
      <trkpt lat="47.5866" lon="-2.71508">
        <ele>5.9</ele>
        <time>2026-08-20T15:33:55Z</time>
      </trkpt>
      <trkpt lat="47.58656" lon="-2.71508">
        <ele>5.9</ele>
        <time>2026-08-20T15:33:56Z</time>
      </trkpt>
      <trkpt lat="47.58652" lon="-2.71508">
        <ele>5.8</ele>
        <time>2026-08-20T15:33:57Z</time>
      </trkpt>
      <trkpt lat="47.58648" lon="-2.71507">
        <ele>5.8</ele>
        <time>2026-08-20T15:33:58Z</time>
      </trkpt>
      <trkpt lat="47.58644" lon="-2.71507">
        <ele>5.8</ele>
        <time>2026-08-20T15:33:59Z</time>
      </trkpt>
      <trkpt lat="47.58639" lon="-2.71506">
        <ele>5.8</ele>
        <time>2026-08-20T15:34:00Z</time>
      </trkpt>
      <trkpt lat="47.58635" lon="-2.71506">
        <ele>5.8</ele>
        <time>2026-08-20T15:34:01Z</time>
      </trkpt>
      <trkpt lat="47.58631" lon="-2.71505">
        <ele>5.8</ele>
        <time>2026-08-20T15:34:02Z</time>
      </trkpt>
      <trkpt lat="47.58626" lon="-2.71505">
        <ele>5.7</ele>
        <time>2026-08-20T15:34:03Z</time>
      </trkpt>
      <trkpt lat="47.58622" lon="-2.71504">
        <ele>5.8</ele>
        <time>2026-08-20T15:34:04Z</time>
      </trkpt>
      <trkpt lat="47.58617" lon="-2.71504">
        <ele>5.7</ele>
        <time>2026-08-20T15:34:05Z</time>
      </trkpt>
      <trkpt lat="47.58612" lon="-2.71503">
        <ele>5.8</ele>
        <time>2026-08-20T15:34:06Z</time>
      </trkpt>
      <trkpt lat="47.58608" lon="-2.71502">
        <ele>5.8</ele>
        <time>2026-08-20T15:34:07Z</time>
      </trkpt>
      <trkpt lat="47.58603" lon="-2.71502">
        <ele>5.6</ele>
        <time>2026-08-20T15:34:08Z</time>
      </trkpt>
      <trkpt lat="47.58599" lon="-2.71502">
        <ele>5.5</ele>
        <time>2026-08-20T15:34:09Z</time>
      </trkpt>
      <trkpt lat="47.58594" lon="-2.71501">
        <ele>5.3</ele>
        <time>2026-08-20T15:34:10Z</time>
      </trkpt>
      <trkpt lat="47.5859" lon="-2.71501">
        <ele>5.2</ele>
        <time>2026-08-20T15:34:11Z</time>
      </trkpt>
      <trkpt lat="47.58586" lon="-2.71501">
        <ele>5.1</ele>
        <time>2026-08-20T15:34:12Z</time>
      </trkpt>
      <trkpt lat="47.58582" lon="-2.715">
        <ele>5</ele>
        <time>2026-08-20T15:34:13Z</time>
      </trkpt>
      <trkpt lat="47.58577" lon="-2.715">
        <ele>4.8</ele>
        <time>2026-08-20T15:34:14Z</time>
      </trkpt>
      <trkpt lat="47.58572" lon="-2.71499">
        <ele>4.6</ele>
        <time>2026-08-20T15:34:15Z</time>
      </trkpt>
      <trkpt lat="47.58567" lon="-2.71498">
        <ele>4.4</ele>
        <time>2026-08-20T15:34:16Z</time>
      </trkpt>
      <trkpt lat="47.58562" lon="-2.71498">
        <ele>4.2</ele>
        <time>2026-08-20T15:34:17Z</time>
      </trkpt>
      <trkpt lat="47.58557" lon="-2.71497">
        <ele>4.1</ele>
        <time>2026-08-20T15:34:18Z</time>
      </trkpt>
      <trkpt lat="47.58551" lon="-2.71496">
        <ele>3.8</ele>
        <time>2026-08-20T15:34:19Z</time>
      </trkpt>
      <trkpt lat="47.58546" lon="-2.71495">
        <ele>3.7</ele>
        <time>2026-08-20T15:34:20Z</time>
      </trkpt>
      <trkpt lat="47.58541" lon="-2.71494">
        <ele>3.5</ele>
        <time>2026-08-20T15:34:21Z</time>
      </trkpt>
      <trkpt lat="47.58536" lon="-2.71494">
        <ele>3.3</ele>
        <time>2026-08-20T15:34:22Z</time>
      </trkpt>
      <trkpt lat="47.5853" lon="-2.71493">
        <ele>3.1</ele>
        <time>2026-08-20T15:34:23Z</time>
      </trkpt>
      <trkpt lat="47.58525" lon="-2.71492">
        <ele>3</ele>
        <time>2026-08-20T15:34:24Z</time>
      </trkpt>
      <trkpt lat="47.58519" lon="-2.71492">
        <ele>3</ele>
        <time>2026-08-20T15:34:25Z</time>
      </trkpt>
      <trkpt lat="47.58514" lon="-2.71491">
        <ele>3</ele>
        <time>2026-08-20T15:34:26Z</time>
      </trkpt>
      <trkpt lat="47.58509" lon="-2.7149">
        <ele>3</ele>
        <time>2026-08-20T15:34:27Z</time>
      </trkpt>
      <trkpt lat="47.58503" lon="-2.7149">
        <ele>3</ele>
        <time>2026-08-20T15:34:28Z</time>
      </trkpt>
      <trkpt lat="47.58498" lon="-2.71489">
        <ele>3</ele>
        <time>2026-08-20T15:34:29Z</time>
      </trkpt>
      <trkpt lat="47.58492" lon="-2.71488">
        <ele>2.9</ele>
        <time>2026-08-20T15:34:30Z</time>
      </trkpt>
      <trkpt lat="47.58487" lon="-2.71488">
        <ele>2.8</ele>
        <time>2026-08-20T15:34:31Z</time>
      </trkpt>
      <trkpt lat="47.58481" lon="-2.71487">
        <ele>2.7</ele>
        <time>2026-08-20T15:34:32Z</time>
      </trkpt>
      <trkpt lat="47.58475" lon="-2.71486">
        <ele>2.5</ele>
        <time>2026-08-20T15:34:33Z</time>
      </trkpt>
      <trkpt lat="47.5847" lon="-2.71485">
        <ele>2.5</ele>
        <time>2026-08-20T15:34:34Z</time>
      </trkpt>
      <trkpt lat="47.58464" lon="-2.71485">
        <ele>2.5</ele>
        <time>2026-08-20T15:34:35Z</time>
      </trkpt>
      <trkpt lat="47.58459" lon="-2.71484">
        <ele>2.4</ele>
        <time>2026-08-20T15:34:36Z</time>
      </trkpt>
      <trkpt lat="47.58454" lon="-2.71483">
        <ele>2.4</ele>
        <time>2026-08-20T15:34:37Z</time>
      </trkpt>
      <trkpt lat="47.58449" lon="-2.71482">
        <ele>2.4</ele>
        <time>2026-08-20T15:34:38Z</time>
      </trkpt>
      <trkpt lat="47.58444" lon="-2.71482">
        <ele>2.4</ele>
        <time>2026-08-20T15:34:39Z</time>
      </trkpt>
      <trkpt lat="47.58439" lon="-2.71482">
        <ele>2.4</ele>
        <time>2026-08-20T15:34:40Z</time>
      </trkpt>
      <trkpt lat="47.58433" lon="-2.71482">
        <ele>2.4</ele>
        <time>2026-08-20T15:34:41Z</time>
      </trkpt>
      <trkpt lat="47.58428" lon="-2.71483">
        <ele>2.4</ele>
        <time>2026-08-20T15:34:42Z</time>
      </trkpt>
      <trkpt lat="47.58423" lon="-2.71484">
        <ele>2.4</ele>
        <time>2026-08-20T15:34:43Z</time>
      </trkpt>
      <trkpt lat="47.58418" lon="-2.71485">
        <ele>2.5</ele>
        <time>2026-08-20T15:34:44Z</time>
      </trkpt>
      <trkpt lat="47.58413" lon="-2.71486">
        <ele>2.4</ele>
        <time>2026-08-20T15:34:45Z</time>
      </trkpt>
      <trkpt lat="47.58408" lon="-2.71489">
        <ele>2.4</ele>
        <time>2026-08-20T15:34:46Z</time>
      </trkpt>
      <trkpt lat="47.58403" lon="-2.71492">
        <ele>2.4</ele>
        <time>2026-08-20T15:34:47Z</time>
      </trkpt>
      <trkpt lat="47.58399" lon="-2.71496">
        <ele>2.3</ele>
        <time>2026-08-20T15:34:48Z</time>
      </trkpt>
      <trkpt lat="47.58395" lon="-2.71501">
        <ele>2.3</ele>
        <time>2026-08-20T15:34:49Z</time>
      </trkpt>
      <trkpt lat="47.5839" lon="-2.71506">
        <ele>2.3</ele>
        <time>2026-08-20T15:34:50Z</time>
      </trkpt>
      <trkpt lat="47.58386" lon="-2.71511">
        <ele>2.4</ele>
        <time>2026-08-20T15:34:51Z</time>
      </trkpt>
      <trkpt lat="47.58382" lon="-2.71515">
        <ele>2.4</ele>
        <time>2026-08-20T15:34:52Z</time>
      </trkpt>
      <trkpt lat="47.58378" lon="-2.7152">
        <ele>2.4</ele>
        <time>2026-08-20T15:34:53Z</time>
      </trkpt>
      <trkpt lat="47.58374" lon="-2.71526">
        <ele>2.4</ele>
        <time>2026-08-20T15:34:54Z</time>
      </trkpt>
      <trkpt lat="47.5837" lon="-2.7153">
        <ele>2.4</ele>
        <time>2026-08-20T15:34:55Z</time>
      </trkpt>
      <trkpt lat="47.58366" lon="-2.71535">
        <ele>2.4</ele>
        <time>2026-08-20T15:34:56Z</time>
      </trkpt>
      <trkpt lat="47.58363" lon="-2.7154">
        <ele>2.5</ele>
        <time>2026-08-20T15:34:57Z</time>
      </trkpt>
      <trkpt lat="47.58359" lon="-2.71546">
        <ele>2.6</ele>
        <time>2026-08-20T15:34:58Z</time>
      </trkpt>
      <trkpt lat="47.58355" lon="-2.71551">
        <ele>2.7</ele>
        <time>2026-08-20T15:34:59Z</time>
      </trkpt>
      <trkpt lat="47.58352" lon="-2.71556">
        <ele>2.7</ele>
        <time>2026-08-20T15:35:00Z</time>
      </trkpt>
      <trkpt lat="47.58348" lon="-2.71561">
        <ele>2.5</ele>
        <time>2026-08-20T15:35:01Z</time>
      </trkpt>
      <trkpt lat="47.58344" lon="-2.71566">
        <ele>2.4</ele>
        <time>2026-08-20T15:35:02Z</time>
      </trkpt>
      <trkpt lat="47.58341" lon="-2.71571">
        <ele>2.3</ele>
        <time>2026-08-20T15:35:03Z</time>
      </trkpt>
      <trkpt lat="47.58337" lon="-2.71576">
        <ele>2.1</ele>
        <time>2026-08-20T15:35:04Z</time>
      </trkpt>
      <trkpt lat="47.58333" lon="-2.7158">
        <ele>2</ele>
        <time>2026-08-20T15:35:05Z</time>
      </trkpt>
      <trkpt lat="47.58329" lon="-2.71584">
        <ele>2</ele>
        <time>2026-08-20T15:35:06Z</time>
      </trkpt>
      <trkpt lat="47.58325" lon="-2.71588">
        <ele>2.2</ele>
        <time>2026-08-20T15:35:07Z</time>
      </trkpt>
      <trkpt lat="47.5832" lon="-2.71592">
        <ele>2.3</ele>
        <time>2026-08-20T15:35:08Z</time>
      </trkpt>
      <trkpt lat="47.58316" lon="-2.71595">
        <ele>2.4</ele>
        <time>2026-08-20T15:35:09Z</time>
      </trkpt>
      <trkpt lat="47.58312" lon="-2.71599">
        <ele>2.6</ele>
        <time>2026-08-20T15:35:10Z</time>
      </trkpt>
      <trkpt lat="47.58308" lon="-2.71602">
        <ele>2.7</ele>
        <time>2026-08-20T15:35:11Z</time>
      </trkpt>
      <trkpt lat="47.58303" lon="-2.71606">
        <ele>2.7</ele>
        <time>2026-08-20T15:35:12Z</time>
      </trkpt>
      <trkpt lat="47.58299" lon="-2.71609">
        <ele>2.7</ele>
        <time>2026-08-20T15:35:13Z</time>
      </trkpt>
      <trkpt lat="47.58294" lon="-2.71612">
        <ele>2.6</ele>
        <time>2026-08-20T15:35:14Z</time>
      </trkpt>
      <trkpt lat="47.5829" lon="-2.71615">
        <ele>2.5</ele>
        <time>2026-08-20T15:35:15Z</time>
      </trkpt>
      <trkpt lat="47.58286" lon="-2.71618">
        <ele>2.5</ele>
        <time>2026-08-20T15:35:16Z</time>
      </trkpt>
      <trkpt lat="47.58281" lon="-2.71621">
        <ele>2.4</ele>
        <time>2026-08-20T15:35:17Z</time>
      </trkpt>
      <trkpt lat="47.58277" lon="-2.71623">
        <ele>2.4</ele>
        <time>2026-08-20T15:35:18Z</time>
      </trkpt>
      <trkpt lat="47.58272" lon="-2.71623">
        <ele>2.5</ele>
        <time>2026-08-20T15:35:19Z</time>
      </trkpt>
      <trkpt lat="47.58267" lon="-2.71623">
        <ele>2.6</ele>
        <time>2026-08-20T15:35:20Z</time>
      </trkpt>
      <trkpt lat="47.58263" lon="-2.71621">
        <ele>2.7</ele>
        <time>2026-08-20T15:35:21Z</time>
      </trkpt>
      <trkpt lat="47.58259" lon="-2.71618">
        <ele>2.8</ele>
        <time>2026-08-20T15:35:22Z</time>
      </trkpt>
      <trkpt lat="47.58255" lon="-2.71614">
        <ele>2.8</ele>
        <time>2026-08-20T15:35:23Z</time>
      </trkpt>
      <trkpt lat="47.58251" lon="-2.71611">
        <ele>3</ele>
        <time>2026-08-20T15:35:24Z</time>
      </trkpt>
      <trkpt lat="47.58247" lon="-2.71607">
        <ele>2.9</ele>
        <time>2026-08-20T15:35:25Z</time>
      </trkpt>
      <trkpt lat="47.58243" lon="-2.71602">
        <ele>2.8</ele>
        <time>2026-08-20T15:35:26Z</time>
      </trkpt>
      <trkpt lat="47.58239" lon="-2.71598">
        <ele>2.7</ele>
        <time>2026-08-20T15:35:27Z</time>
      </trkpt>
      <trkpt lat="47.58235" lon="-2.71594">
        <ele>2.7</ele>
        <time>2026-08-20T15:35:28Z</time>
      </trkpt>
      <trkpt lat="47.58232" lon="-2.71589">
        <ele>2.7</ele>
        <time>2026-08-20T15:35:29Z</time>
      </trkpt>
      <trkpt lat="47.58228" lon="-2.71584">
        <ele>2.8</ele>
        <time>2026-08-20T15:35:30Z</time>
      </trkpt>
      <trkpt lat="47.58225" lon="-2.7158">
        <ele>2.8</ele>
        <time>2026-08-20T15:35:31Z</time>
      </trkpt>
      <trkpt lat="47.58222" lon="-2.71575">
        <ele>2.7</ele>
        <time>2026-08-20T15:35:32Z</time>
      </trkpt>
      <trkpt lat="47.58218" lon="-2.7157">
        <ele>2.4</ele>
        <time>2026-08-20T15:35:33Z</time>
      </trkpt>
      <trkpt lat="47.58215" lon="-2.71566">
        <ele>2.3</ele>
        <time>2026-08-20T15:35:34Z</time>
      </trkpt>
      <trkpt lat="47.58211" lon="-2.71561">
        <ele>2.1</ele>
        <time>2026-08-20T15:35:35Z</time>
      </trkpt>
      <trkpt lat="47.58208" lon="-2.71556">
        <ele>2</ele>
        <time>2026-08-20T15:35:36Z</time>
      </trkpt>
      <trkpt lat="47.58204" lon="-2.71552">
        <ele>2.1</ele>
        <time>2026-08-20T15:35:37Z</time>
      </trkpt>
      <trkpt lat="47.58201" lon="-2.71547">
        <ele>2.2</ele>
        <time>2026-08-20T15:35:38Z</time>
      </trkpt>
      <trkpt lat="47.58197" lon="-2.71542">
        <ele>2.4</ele>
        <time>2026-08-20T15:35:39Z</time>
      </trkpt>
      <trkpt lat="47.58194" lon="-2.71537">
        <ele>2.6</ele>
        <time>2026-08-20T15:35:40Z</time>
      </trkpt>
      <trkpt lat="47.5819" lon="-2.71533">
        <ele>2.5</ele>
        <time>2026-08-20T15:35:41Z</time>
      </trkpt>
      <trkpt lat="47.58186" lon="-2.71528">
        <ele>2.4</ele>
        <time>2026-08-20T15:35:42Z</time>
      </trkpt>
      <trkpt lat="47.58183" lon="-2.71524">
        <ele>2.3</ele>
        <time>2026-08-20T15:35:43Z</time>
      </trkpt>
      <trkpt lat="47.58179" lon="-2.71519">
        <ele>2.2</ele>
        <time>2026-08-20T15:35:44Z</time>
      </trkpt>
      <trkpt lat="47.58176" lon="-2.71514">
        <ele>2.3</ele>
        <time>2026-08-20T15:35:45Z</time>
      </trkpt>
      <trkpt lat="47.58172" lon="-2.71509">
        <ele>2.5</ele>
        <time>2026-08-20T15:35:46Z</time>
      </trkpt>
      <trkpt lat="47.58169" lon="-2.71504">
        <ele>2.7</ele>
        <time>2026-08-20T15:35:47Z</time>
      </trkpt>
      <trkpt lat="47.58165" lon="-2.715">
        <ele>2.9</ele>
        <time>2026-08-20T15:35:48Z</time>
      </trkpt>
      <trkpt lat="47.58161" lon="-2.71495">
        <ele>2.5</ele>
        <time>2026-08-20T15:35:49Z</time>
      </trkpt>
      <trkpt lat="47.58158" lon="-2.7149">
        <ele>2.2</ele>
        <time>2026-08-20T15:35:50Z</time>
      </trkpt>
      <trkpt lat="47.58154" lon="-2.71486">
        <ele>2</ele>
        <time>2026-08-20T15:35:51Z</time>
      </trkpt>
      <trkpt lat="47.5815" lon="-2.71481">
        <ele>1.9</ele>
        <time>2026-08-20T15:35:52Z</time>
      </trkpt>
      <trkpt lat="47.58146" lon="-2.71476">
        <ele>1.9</ele>
        <time>2026-08-20T15:35:53Z</time>
      </trkpt>
      <trkpt lat="47.58143" lon="-2.71472">
        <ele>2</ele>
        <time>2026-08-20T15:35:54Z</time>
      </trkpt>
      <trkpt lat="47.58139" lon="-2.71467">
        <ele>2</ele>
        <time>2026-08-20T15:35:55Z</time>
      </trkpt>
      <trkpt lat="47.58135" lon="-2.71462">
        <ele>1.9</ele>
        <time>2026-08-20T15:35:56Z</time>
      </trkpt>
      <trkpt lat="47.58132" lon="-2.71457">
        <ele>1.9</ele>
        <time>2026-08-20T15:35:57Z</time>
      </trkpt>
      <trkpt lat="47.58128" lon="-2.71453">
        <ele>1.9</ele>
        <time>2026-08-20T15:35:58Z</time>
      </trkpt>
      <trkpt lat="47.58124" lon="-2.71448">
        <ele>1.9</ele>
        <time>2026-08-20T15:35:59Z</time>
      </trkpt>
      <trkpt lat="47.5812" lon="-2.71443">
        <ele>2</ele>
        <time>2026-08-20T15:36:00Z</time>
      </trkpt>
      <trkpt lat="47.58117" lon="-2.71438">
        <ele>2.2</ele>
        <time>2026-08-20T15:36:01Z</time>
      </trkpt>
      <trkpt lat="47.58113" lon="-2.71434">
        <ele>2.4</ele>
        <time>2026-08-20T15:36:02Z</time>
      </trkpt>
      <trkpt lat="47.58109" lon="-2.7143">
        <ele>2.4</ele>
        <time>2026-08-20T15:36:03Z</time>
      </trkpt>
      <trkpt lat="47.58105" lon="-2.71426">
        <ele>2.4</ele>
        <time>2026-08-20T15:36:04Z</time>
      </trkpt>
      <trkpt lat="47.58101" lon="-2.71421">
        <ele>2.5</ele>
        <time>2026-08-20T15:36:05Z</time>
      </trkpt>
      <trkpt lat="47.58097" lon="-2.71417">
        <ele>2.5</ele>
        <time>2026-08-20T15:36:06Z</time>
      </trkpt>
      <trkpt lat="47.58093" lon="-2.71414">
        <ele>2.3</ele>
        <time>2026-08-20T15:36:07Z</time>
      </trkpt>
      <trkpt lat="47.58089" lon="-2.7141">
        <ele>2.3</ele>
        <time>2026-08-20T15:36:08Z</time>
      </trkpt>
      <trkpt lat="47.58085" lon="-2.71407">
        <ele>2.3</ele>
        <time>2026-08-20T15:36:09Z</time>
      </trkpt>
      <trkpt lat="47.58081" lon="-2.71404">
        <ele>2.4</ele>
        <time>2026-08-20T15:36:10Z</time>
      </trkpt>
      <trkpt lat="47.58076" lon="-2.71401">
        <ele>2.4</ele>
        <time>2026-08-20T15:36:11Z</time>
      </trkpt>
      <trkpt lat="47.58072" lon="-2.71398">
        <ele>2.5</ele>
        <time>2026-08-20T15:36:12Z</time>
      </trkpt>
      <trkpt lat="47.58068" lon="-2.71395">
        <ele>2.7</ele>
        <time>2026-08-20T15:36:13Z</time>
      </trkpt>
      <trkpt lat="47.58063" lon="-2.71392">
        <ele>2.8</ele>
        <time>2026-08-20T15:36:14Z</time>
      </trkpt>
      <trkpt lat="47.58059" lon="-2.71389">
        <ele>3</ele>
        <time>2026-08-20T15:36:15Z</time>
      </trkpt>
      <trkpt lat="47.58054" lon="-2.71387">
        <ele>3</ele>
        <time>2026-08-20T15:36:16Z</time>
      </trkpt>
      <trkpt lat="47.5805" lon="-2.71384">
        <ele>2.9</ele>
        <time>2026-08-20T15:36:17Z</time>
      </trkpt>
      <trkpt lat="47.58045" lon="-2.71382">
        <ele>2.8</ele>
        <time>2026-08-20T15:36:18Z</time>
      </trkpt>
      <trkpt lat="47.58041" lon="-2.7138">
        <ele>2.8</ele>
        <time>2026-08-20T15:36:19Z</time>
      </trkpt>
      <trkpt lat="47.58036" lon="-2.71379">
        <ele>2.8</ele>
        <time>2026-08-20T15:36:20Z</time>
      </trkpt>
      <trkpt lat="47.58031" lon="-2.71377">
        <ele>2.9</ele>
        <time>2026-08-20T15:36:21Z</time>
      </trkpt>
      <trkpt lat="47.58026" lon="-2.71375">
        <ele>2.9</ele>
        <time>2026-08-20T15:36:22Z</time>
      </trkpt>
      <trkpt lat="47.58022" lon="-2.71373">
        <ele>2.9</ele>
        <time>2026-08-20T15:36:23Z</time>
      </trkpt>
      <trkpt lat="47.58017" lon="-2.71371">
        <ele>2.9</ele>
        <time>2026-08-20T15:36:24Z</time>
      </trkpt>
      <trkpt lat="47.58012" lon="-2.7137">
        <ele>2.8</ele>
        <time>2026-08-20T15:36:25Z</time>
      </trkpt>
      <trkpt lat="47.58008" lon="-2.71368">
        <ele>2.8</ele>
        <time>2026-08-20T15:36:26Z</time>
      </trkpt>
      <trkpt lat="47.58004" lon="-2.71366">
        <ele>2.8</ele>
        <time>2026-08-20T15:36:27Z</time>
      </trkpt>
      <trkpt lat="47.57999" lon="-2.71364">
        <ele>2.8</ele>
        <time>2026-08-20T15:36:28Z</time>
      </trkpt>
      <trkpt lat="47.57994" lon="-2.71362">
        <ele>2.9</ele>
        <time>2026-08-20T15:36:29Z</time>
      </trkpt>
      <trkpt lat="47.57989" lon="-2.7136">
        <ele>3</ele>
        <time>2026-08-20T15:36:30Z</time>
      </trkpt>
      <trkpt lat="47.57984" lon="-2.71358">
        <ele>3</ele>
        <time>2026-08-20T15:36:31Z</time>
      </trkpt>
      <trkpt lat="47.5798" lon="-2.71357">
        <ele>3</ele>
        <time>2026-08-20T15:36:32Z</time>
      </trkpt>
      <trkpt lat="47.57975" lon="-2.71355">
        <ele>3</ele>
        <time>2026-08-20T15:36:33Z</time>
      </trkpt>
      <trkpt lat="47.5797" lon="-2.71354">
        <ele>3.1</ele>
        <time>2026-08-20T15:36:34Z</time>
      </trkpt>
      <trkpt lat="47.57966" lon="-2.71352">
        <ele>3.2</ele>
        <time>2026-08-20T15:36:35Z</time>
      </trkpt>
      <trkpt lat="47.57961" lon="-2.7135">
        <ele>3.4</ele>
        <time>2026-08-20T15:36:36Z</time>
      </trkpt>
      <trkpt lat="47.57957" lon="-2.71349">
        <ele>3.5</ele>
        <time>2026-08-20T15:36:37Z</time>
      </trkpt>
      <trkpt lat="47.57952" lon="-2.71347">
        <ele>3.7</ele>
        <time>2026-08-20T15:36:38Z</time>
      </trkpt>
      <trkpt lat="47.57948" lon="-2.71346">
        <ele>3.9</ele>
        <time>2026-08-20T15:36:39Z</time>
      </trkpt>
      <trkpt lat="47.57943" lon="-2.71345">
        <ele>4</ele>
        <time>2026-08-20T15:36:40Z</time>
      </trkpt>
      <trkpt lat="47.57939" lon="-2.71344">
        <ele>4</ele>
        <time>2026-08-20T15:36:41Z</time>
      </trkpt>
      <trkpt lat="47.57935" lon="-2.71343">
        <ele>4</ele>
        <time>2026-08-20T15:36:42Z</time>
      </trkpt>
      <trkpt lat="47.57931" lon="-2.71343">
        <ele>4</ele>
        <time>2026-08-20T15:36:43Z</time>
      </trkpt>
      <trkpt lat="47.57927" lon="-2.71343">
        <ele>4</ele>
        <time>2026-08-20T15:36:44Z</time>
      </trkpt>
      <trkpt lat="47.57923" lon="-2.71343">
        <ele>4</ele>
        <time>2026-08-20T15:36:45Z</time>
      </trkpt>
      <trkpt lat="47.57919" lon="-2.71342">
        <ele>4</ele>
        <time>2026-08-20T15:36:46Z</time>
      </trkpt>
      <trkpt lat="47.57915" lon="-2.71341">
        <ele>4</ele>
        <time>2026-08-20T15:36:47Z</time>
      </trkpt>
      <trkpt lat="47.57912" lon="-2.7134">
        <ele>4</ele>
        <time>2026-08-20T15:36:48Z</time>
      </trkpt>
      <trkpt lat="47.57908" lon="-2.7134">
        <ele>4</ele>
        <time>2026-08-20T15:36:49Z</time>
      </trkpt>
      <trkpt lat="47.57903" lon="-2.7134">
        <ele>4</ele>
        <time>2026-08-20T15:36:50Z</time>
      </trkpt>
      <trkpt lat="47.57899" lon="-2.71339">
        <ele>4</ele>
        <time>2026-08-20T15:36:51Z</time>
      </trkpt>
      <trkpt lat="47.57895" lon="-2.71338">
        <ele>4</ele>
        <time>2026-08-20T15:36:52Z</time>
      </trkpt>
      <trkpt lat="47.5789" lon="-2.71337">
        <ele>4</ele>
        <time>2026-08-20T15:36:53Z</time>
      </trkpt>
      <trkpt lat="47.57885" lon="-2.71337">
        <ele>3.9</ele>
        <time>2026-08-20T15:36:54Z</time>
      </trkpt>
      <trkpt lat="47.5788" lon="-2.71335">
        <ele>3.7</ele>
        <time>2026-08-20T15:36:55Z</time>
      </trkpt>
      <trkpt lat="47.57876" lon="-2.71334">
        <ele>3.5</ele>
        <time>2026-08-20T15:36:56Z</time>
      </trkpt>
      <trkpt lat="47.57871" lon="-2.71332">
        <ele>3.4</ele>
        <time>2026-08-20T15:36:57Z</time>
      </trkpt>
      <trkpt lat="47.57866" lon="-2.7133">
        <ele>3.2</ele>
        <time>2026-08-20T15:36:58Z</time>
      </trkpt>
      <trkpt lat="47.57862" lon="-2.71326">
        <ele>3</ele>
        <time>2026-08-20T15:36:59Z</time>
      </trkpt>
      <trkpt lat="47.57857" lon="-2.71323">
        <ele>3</ele>
        <time>2026-08-20T15:37:00Z</time>
      </trkpt>
      <trkpt lat="47.57853" lon="-2.71319">
        <ele>3</ele>
        <time>2026-08-20T15:37:01Z</time>
      </trkpt>
      <trkpt lat="47.57849" lon="-2.71315">
        <ele>3</ele>
        <time>2026-08-20T15:37:02Z</time>
      </trkpt>
      <trkpt lat="47.57845" lon="-2.71311">
        <ele>3</ele>
        <time>2026-08-20T15:37:03Z</time>
      </trkpt>
      <trkpt lat="47.57841" lon="-2.71308">
        <ele>3</ele>
        <time>2026-08-20T15:37:04Z</time>
      </trkpt>
      <trkpt lat="47.57838" lon="-2.71304">
        <ele>3</ele>
        <time>2026-08-20T15:37:05Z</time>
      </trkpt>
      <trkpt lat="47.57834" lon="-2.71302">
        <ele>3</ele>
        <time>2026-08-20T15:37:06Z</time>
      </trkpt>
      <trkpt lat="47.5783" lon="-2.713">
        <ele>3</ele>
        <time>2026-08-20T15:37:07Z</time>
      </trkpt>
      <trkpt lat="47.57825" lon="-2.71299">
        <ele>3</ele>
        <time>2026-08-20T15:37:08Z</time>
      </trkpt>
      <trkpt lat="47.57821" lon="-2.71299">
        <ele>3</ele>
        <time>2026-08-20T15:37:09Z</time>
      </trkpt>
      <trkpt lat="47.57817" lon="-2.713">
        <ele>3</ele>
        <time>2026-08-20T15:37:10Z</time>
      </trkpt>
      <trkpt lat="47.57813" lon="-2.71302">
        <ele>3</ele>
        <time>2026-08-20T15:37:11Z</time>
      </trkpt>
      <trkpt lat="47.57809" lon="-2.71304">
        <ele>3</ele>
        <time>2026-08-20T15:37:12Z</time>
      </trkpt>
      <trkpt lat="47.57806" lon="-2.71308">
        <ele>3</ele>
        <time>2026-08-20T15:37:13Z</time>
      </trkpt>
      <trkpt lat="47.57803" lon="-2.71313">
        <ele>3</ele>
        <time>2026-08-20T15:37:14Z</time>
      </trkpt>
      <trkpt lat="47.57801" lon="-2.71318">
        <ele>3.1</ele>
        <time>2026-08-20T15:37:15Z</time>
      </trkpt>
      <trkpt lat="47.578" lon="-2.71325">
        <ele>3.1</ele>
        <time>2026-08-20T15:37:16Z</time>
      </trkpt>
      <trkpt lat="47.578" lon="-2.71331">
        <ele>3.2</ele>
        <time>2026-08-20T15:37:17Z</time>
      </trkpt>
      <trkpt lat="47.57801" lon="-2.71338">
        <ele>3.2</ele>
        <time>2026-08-20T15:37:18Z</time>
      </trkpt>
      <trkpt lat="47.57801" lon="-2.71344">
        <ele>3.2</ele>
        <time>2026-08-20T15:37:19Z</time>
      </trkpt>
      <trkpt lat="47.57802" lon="-2.71351">
        <ele>3.1</ele>
        <time>2026-08-20T15:37:20Z</time>
      </trkpt>
      <trkpt lat="47.57802" lon="-2.71357">
        <ele>3.1</ele>
        <time>2026-08-20T15:37:21Z</time>
      </trkpt>
      <trkpt lat="47.57802" lon="-2.71364">
        <ele>3.1</ele>
        <time>2026-08-20T15:37:22Z</time>
      </trkpt>
      <trkpt lat="47.57802" lon="-2.7137">
        <ele>3.1</ele>
        <time>2026-08-20T15:37:23Z</time>
      </trkpt>
      <trkpt lat="47.578" lon="-2.71376">
        <ele>3.1</ele>
        <time>2026-08-20T15:37:24Z</time>
      </trkpt>
      <trkpt lat="47.57798" lon="-2.71382">
        <ele>3.1</ele>
        <time>2026-08-20T15:37:25Z</time>
      </trkpt>
      <trkpt lat="47.57796" lon="-2.71386">
        <ele>3</ele>
        <time>2026-08-20T15:37:26Z</time>
      </trkpt>
      <trkpt lat="47.57793" lon="-2.7139">
        <ele>3</ele>
        <time>2026-08-20T15:37:27Z</time>
      </trkpt>
      <trkpt lat="47.57789" lon="-2.71392">
        <ele>3</ele>
        <time>2026-08-20T15:37:28Z</time>
      </trkpt>
      <trkpt lat="47.57785" lon="-2.71393">
        <ele>3</ele>
        <time>2026-08-20T15:37:29Z</time>
      </trkpt>
      <trkpt lat="47.5778" lon="-2.71393">
        <ele>3</ele>
        <time>2026-08-20T15:37:30Z</time>
      </trkpt>
      <trkpt lat="47.57776" lon="-2.71393">
        <ele>3</ele>
        <time>2026-08-20T15:37:31Z</time>
      </trkpt>
      <trkpt lat="47.57771" lon="-2.71393">
        <ele>3</ele>
        <time>2026-08-20T15:37:32Z</time>
      </trkpt>
      <trkpt lat="47.57767" lon="-2.71393">
        <ele>3</ele>
        <time>2026-08-20T15:37:33Z</time>
      </trkpt>
      <trkpt lat="47.57763" lon="-2.71393">
        <ele>3</ele>
        <time>2026-08-20T15:37:34Z</time>
      </trkpt>
      <trkpt lat="47.57759" lon="-2.71393">
        <ele>3</ele>
        <time>2026-08-20T15:37:35Z</time>
      </trkpt>
      <trkpt lat="47.57755" lon="-2.71393">
        <ele>3</ele>
        <time>2026-08-20T15:37:36Z</time>
      </trkpt>
      <trkpt lat="47.5775" lon="-2.71393">
        <ele>3</ele>
        <time>2026-08-20T15:37:37Z</time>
      </trkpt>
      <trkpt lat="47.57746" lon="-2.71393">
        <ele>3.1</ele>
        <time>2026-08-20T15:37:38Z</time>
      </trkpt>
      <trkpt lat="47.57742" lon="-2.71393">
        <ele>3.2</ele>
        <time>2026-08-20T15:37:39Z</time>
      </trkpt>
      <trkpt lat="47.57737" lon="-2.71394">
        <ele>3.4</ele>
        <time>2026-08-20T15:37:40Z</time>
      </trkpt>
      <trkpt lat="47.57733" lon="-2.71395">
        <ele>3.5</ele>
        <time>2026-08-20T15:37:41Z</time>
      </trkpt>
      <trkpt lat="47.5773" lon="-2.71397">
        <ele>3.5</ele>
        <time>2026-08-20T15:37:42Z</time>
      </trkpt>
      <trkpt lat="47.57726" lon="-2.714">
        <ele>3.5</ele>
        <time>2026-08-20T15:37:43Z</time>
      </trkpt>
      <trkpt lat="47.57722" lon="-2.71404">
        <ele>3.5</ele>
        <time>2026-08-20T15:37:44Z</time>
      </trkpt>
      <trkpt lat="47.57719" lon="-2.71408">
        <ele>3.4</ele>
        <time>2026-08-20T15:37:45Z</time>
      </trkpt>
      <trkpt lat="47.57716" lon="-2.71412">
        <ele>3.4</ele>
        <time>2026-08-20T15:37:46Z</time>
      </trkpt>
      <trkpt lat="47.57713" lon="-2.71416">
        <ele>3.3</ele>
        <time>2026-08-20T15:37:47Z</time>
      </trkpt>
      <trkpt lat="47.57711" lon="-2.71421">
        <ele>3.4</ele>
        <time>2026-08-20T15:37:48Z</time>
      </trkpt>
      <trkpt lat="47.57709" lon="-2.71426">
        <ele>3.5</ele>
        <time>2026-08-20T15:37:49Z</time>
      </trkpt>
      <trkpt lat="47.57707" lon="-2.71432">
        <ele>3.5</ele>
        <time>2026-08-20T15:37:50Z</time>
      </trkpt>
      <trkpt lat="47.57706" lon="-2.71437">
        <ele>3.6</ele>
        <time>2026-08-20T15:37:51Z</time>
      </trkpt>
      <trkpt lat="47.57705" lon="-2.71443">
        <ele>3.6</ele>
        <time>2026-08-20T15:37:52Z</time>
      </trkpt>
      <trkpt lat="47.57704" lon="-2.71448">
        <ele>3.6</ele>
        <time>2026-08-20T15:37:53Z</time>
      </trkpt>
      <trkpt lat="47.57704" lon="-2.71454">
        <ele>3.4</ele>
        <time>2026-08-20T15:37:54Z</time>
      </trkpt>
      <trkpt lat="47.57703" lon="-2.71459">
        <ele>3.3</ele>
        <time>2026-08-20T15:37:55Z</time>
      </trkpt>
      <trkpt lat="47.57704" lon="-2.71465">
        <ele>3.2</ele>
        <time>2026-08-20T15:37:56Z</time>
      </trkpt>
      <trkpt lat="47.57704" lon="-2.7147">
        <ele>3.1</ele>
        <time>2026-08-20T15:37:57Z</time>
      </trkpt>
      <trkpt lat="47.57704" lon="-2.71476">
        <ele>3</ele>
        <time>2026-08-20T15:37:58Z</time>
      </trkpt>
      <trkpt lat="47.57703" lon="-2.71482">
        <ele>3</ele>
        <time>2026-08-20T15:37:59Z</time>
      </trkpt>
      <trkpt lat="47.57702" lon="-2.71487">
        <ele>3</ele>
        <time>2026-08-20T15:38:00Z</time>
      </trkpt>
      <trkpt lat="47.57702" lon="-2.71492">
        <ele>3</ele>
        <time>2026-08-20T15:38:01Z</time>
      </trkpt>
      <trkpt lat="47.577" lon="-2.71497">
        <ele>3</ele>
        <time>2026-08-20T15:38:02Z</time>
      </trkpt>
      <trkpt lat="47.57699" lon="-2.71502">
        <ele>2.9</ele>
        <time>2026-08-20T15:38:03Z</time>
      </trkpt>
      <trkpt lat="47.57697" lon="-2.71506">
        <ele>2.8</ele>
        <time>2026-08-20T15:38:04Z</time>
      </trkpt>
      <trkpt lat="47.57695" lon="-2.7151">
        <ele>2.6</ele>
        <time>2026-08-20T15:38:05Z</time>
      </trkpt>
      <trkpt lat="47.57692" lon="-2.71514">
        <ele>2.5</ele>
        <time>2026-08-20T15:38:06Z</time>
      </trkpt>
      <trkpt lat="47.5769" lon="-2.71517">
        <ele>2.5</ele>
        <time>2026-08-20T15:38:07Z</time>
      </trkpt>
      <trkpt lat="47.57687" lon="-2.7152">
        <ele>2.5</ele>
        <time>2026-08-20T15:38:08Z</time>
      </trkpt>
      <trkpt lat="47.57684" lon="-2.71523">
        <ele>2.5</ele>
        <time>2026-08-20T15:38:09Z</time>
      </trkpt>
      <trkpt lat="47.57681" lon="-2.71526">
        <ele>2.5</ele>
        <time>2026-08-20T15:38:10Z</time>
      </trkpt>
      <trkpt lat="47.57677" lon="-2.71528">
        <ele>2.6</ele>
        <time>2026-08-20T15:38:11Z</time>
      </trkpt>
      <trkpt lat="47.57674" lon="-2.71531">
        <ele>2.6</ele>
        <time>2026-08-20T15:38:12Z</time>
      </trkpt>
      <trkpt lat="47.57671" lon="-2.71533">
        <ele>2.7</ele>
        <time>2026-08-20T15:38:13Z</time>
      </trkpt>
      <trkpt lat="47.57668" lon="-2.71536">
        <ele>2.7</ele>
        <time>2026-08-20T15:38:14Z</time>
      </trkpt>
      <trkpt lat="47.57664" lon="-2.71538">
        <ele>2.7</ele>
        <time>2026-08-20T15:38:15Z</time>
      </trkpt>
      <trkpt lat="47.57661" lon="-2.71541">
        <ele>2.6</ele>
        <time>2026-08-20T15:38:16Z</time>
      </trkpt>
      <trkpt lat="47.57658" lon="-2.71543">
        <ele>2.6</ele>
        <time>2026-08-20T15:38:17Z</time>
      </trkpt>
      <trkpt lat="47.57655" lon="-2.71545">
        <ele>2.6</ele>
        <time>2026-08-20T15:38:18Z</time>
      </trkpt>
      <trkpt lat="47.57651" lon="-2.71548">
        <ele>2.7</ele>
        <time>2026-08-20T15:38:19Z</time>
      </trkpt>
      <trkpt lat="47.57648" lon="-2.7155">
        <ele>2.7</ele>
        <time>2026-08-20T15:38:20Z</time>
      </trkpt>
      <trkpt lat="47.57645" lon="-2.71552">
        <ele>2.8</ele>
        <time>2026-08-20T15:38:21Z</time>
      </trkpt>
      <trkpt lat="47.57642" lon="-2.71554">
        <ele>2.9</ele>
        <time>2026-08-20T15:38:22Z</time>
      </trkpt>
      <trkpt lat="47.57638" lon="-2.71556">
        <ele>3</ele>
        <time>2026-08-20T15:38:23Z</time>
      </trkpt>
      <trkpt lat="47.57635" lon="-2.71558">
        <ele>2.9</ele>
        <time>2026-08-20T15:38:24Z</time>
      </trkpt>
      <trkpt lat="47.57632" lon="-2.7156">
        <ele>2.9</ele>
        <time>2026-08-20T15:38:25Z</time>
      </trkpt>
      <trkpt lat="47.57628" lon="-2.71562">
        <ele>2.9</ele>
        <time>2026-08-20T15:38:26Z</time>
      </trkpt>
      <trkpt lat="47.57625" lon="-2.71564">
        <ele>2.8</ele>
        <time>2026-08-20T15:38:27Z</time>
      </trkpt>
      <trkpt lat="47.57622" lon="-2.71566">
        <ele>2.9</ele>
        <time>2026-08-20T15:38:28Z</time>
      </trkpt>
      <trkpt lat="47.57618" lon="-2.71568">
        <ele>2.9</ele>
        <time>2026-08-20T15:38:29Z</time>
      </trkpt>
      <trkpt lat="47.57615" lon="-2.71571">
        <ele>2.9</ele>
        <time>2026-08-20T15:38:30Z</time>
      </trkpt>
      <trkpt lat="47.57612" lon="-2.71573">
        <ele>3</ele>
        <time>2026-08-20T15:38:31Z</time>
      </trkpt>
      <trkpt lat="47.57608" lon="-2.71575">
        <ele>3</ele>
        <time>2026-08-20T15:38:32Z</time>
      </trkpt>
      <trkpt lat="47.57605" lon="-2.71577">
        <ele>3.1</ele>
        <time>2026-08-20T15:38:33Z</time>
      </trkpt>
      <trkpt lat="47.57602" lon="-2.71579">
        <ele>3.1</ele>
        <time>2026-08-20T15:38:34Z</time>
      </trkpt>
      <trkpt lat="47.57599" lon="-2.71581">
        <ele>3</ele>
        <time>2026-08-20T15:38:35Z</time>
      </trkpt>
      <trkpt lat="47.57595" lon="-2.71583">
        <ele>3</ele>
        <time>2026-08-20T15:38:36Z</time>
      </trkpt>
      <trkpt lat="47.57592" lon="-2.71585">
        <ele>2.9</ele>
        <time>2026-08-20T15:38:37Z</time>
      </trkpt>
      <trkpt lat="47.57589" lon="-2.71587">
        <ele>2.7</ele>
        <time>2026-08-20T15:38:38Z</time>
      </trkpt>
      <trkpt lat="47.57586" lon="-2.71589">
        <ele>2.6</ele>
        <time>2026-08-20T15:38:39Z</time>
      </trkpt>
      <trkpt lat="47.57582" lon="-2.71591">
        <ele>2.5</ele>
        <time>2026-08-20T15:38:40Z</time>
      </trkpt>
      <trkpt lat="47.57579" lon="-2.71593">
        <ele>2.4</ele>
        <time>2026-08-20T15:38:41Z</time>
      </trkpt>
      <trkpt lat="47.57576" lon="-2.71595">
        <ele>2.3</ele>
        <time>2026-08-20T15:38:42Z</time>
      </trkpt>
      <trkpt lat="47.57572" lon="-2.71597">
        <ele>2.2</ele>
        <time>2026-08-20T15:38:43Z</time>
      </trkpt>
      <trkpt lat="47.57569" lon="-2.71598">
        <ele>2.2</ele>
        <time>2026-08-20T15:38:44Z</time>
      </trkpt>
      <trkpt lat="47.57566" lon="-2.71598">
        <ele>2.3</ele>
        <time>2026-08-20T15:38:45Z</time>
      </trkpt>
      <trkpt lat="47.57562" lon="-2.71597">
        <ele>2.4</ele>
        <time>2026-08-20T15:38:46Z</time>
      </trkpt>
      <trkpt lat="47.57559" lon="-2.71594">
        <ele>2.6</ele>
        <time>2026-08-20T15:38:47Z</time>
      </trkpt>
      <trkpt lat="47.57557" lon="-2.71591">
        <ele>2.7</ele>
        <time>2026-08-20T15:38:48Z</time>
      </trkpt>
      <trkpt lat="47.57555" lon="-2.71586">
        <ele>2.9</ele>
        <time>2026-08-20T15:38:49Z</time>
      </trkpt>
      <trkpt lat="47.57554" lon="-2.71582">
        <ele>3.1</ele>
        <time>2026-08-20T15:38:50Z</time>
      </trkpt>
      <trkpt lat="47.57553" lon="-2.71577">
        <ele>3.3</ele>
        <time>2026-08-20T15:38:51Z</time>
      </trkpt>
      <trkpt lat="47.57553" lon="-2.71572">
        <ele>3.5</ele>
        <time>2026-08-20T15:38:52Z</time>
      </trkpt>
      <trkpt lat="47.57553" lon="-2.71566">
        <ele>3.7</ele>
        <time>2026-08-20T15:38:53Z</time>
      </trkpt>
      <trkpt lat="47.57552" lon="-2.71562">
        <ele>3.9</ele>
        <time>2026-08-20T15:38:54Z</time>
      </trkpt>
      <trkpt lat="47.57552" lon="-2.71557">
        <ele>4.1</ele>
        <time>2026-08-20T15:38:55Z</time>
      </trkpt>
      <trkpt lat="47.57551" lon="-2.71552">
        <ele>4.3</ele>
        <time>2026-08-20T15:38:56Z</time>
      </trkpt>
      <trkpt lat="47.57551" lon="-2.71547">
        <ele>4.4</ele>
        <time>2026-08-20T15:38:57Z</time>
      </trkpt>
      <trkpt lat="47.57551" lon="-2.71542">
        <ele>4.6</ele>
        <time>2026-08-20T15:38:58Z</time>
      </trkpt>
      <trkpt lat="47.57551" lon="-2.71537">
        <ele>4.7</ele>
        <time>2026-08-20T15:38:59Z</time>
      </trkpt>
      <trkpt lat="47.5755" lon="-2.71532">
        <ele>4.9</ele>
        <time>2026-08-20T15:39:00Z</time>
      </trkpt>
      <trkpt lat="47.5755" lon="-2.71526">
        <ele>5</ele>
        <time>2026-08-20T15:39:01Z</time>
      </trkpt>
      <trkpt lat="47.5755" lon="-2.71522">
        <ele>5</ele>
        <time>2026-08-20T15:39:02Z</time>
      </trkpt>
      <trkpt lat="47.5755" lon="-2.71517">
        <ele>5</ele>
        <time>2026-08-20T15:39:03Z</time>
      </trkpt>
      <trkpt lat="47.5755" lon="-2.71511">
        <ele>5</ele>
        <time>2026-08-20T15:39:04Z</time>
      </trkpt>
      <trkpt lat="47.57549" lon="-2.71506">
        <ele>5</ele>
        <time>2026-08-20T15:39:05Z</time>
      </trkpt>
      <trkpt lat="47.57549" lon="-2.71501">
        <ele>5</ele>
        <time>2026-08-20T15:39:06Z</time>
      </trkpt>
      <trkpt lat="47.57549" lon="-2.71496">
        <ele>5</ele>
        <time>2026-08-20T15:39:07Z</time>
      </trkpt>
      <trkpt lat="47.57548" lon="-2.71491">
        <ele>5.1</ele>
        <time>2026-08-20T15:39:08Z</time>
      </trkpt>
      <trkpt lat="47.57548" lon="-2.71486">
        <ele>5.1</ele>
        <time>2026-08-20T15:39:09Z</time>
      </trkpt>
      <trkpt lat="47.57548" lon="-2.71481">
        <ele>5.2</ele>
        <time>2026-08-20T15:39:10Z</time>
      </trkpt>
      <trkpt lat="47.57548" lon="-2.71476">
        <ele>5.2</ele>
        <time>2026-08-20T15:39:11Z</time>
      </trkpt>
      <trkpt lat="47.57548" lon="-2.71471">
        <ele>5.3</ele>
        <time>2026-08-20T15:39:12Z</time>
      </trkpt>
      <trkpt lat="47.57548" lon="-2.71466">
        <ele>5.4</ele>
        <time>2026-08-20T15:39:13Z</time>
      </trkpt>
      <trkpt lat="47.57548" lon="-2.7146">
        <ele>5.6</ele>
        <time>2026-08-20T15:39:14Z</time>
      </trkpt>
      <trkpt lat="47.57547" lon="-2.71455">
        <ele>5.7</ele>
        <time>2026-08-20T15:39:15Z</time>
      </trkpt>
      <trkpt lat="47.57547" lon="-2.71451">
        <ele>5.8</ele>
        <time>2026-08-20T15:39:16Z</time>
      </trkpt>
      <trkpt lat="47.57547" lon="-2.71445">
        <ele>6</ele>
        <time>2026-08-20T15:39:17Z</time>
      </trkpt>
      <trkpt lat="47.57547" lon="-2.7144">
        <ele>6</ele>
        <time>2026-08-20T15:39:18Z</time>
      </trkpt>
      <trkpt lat="47.57547" lon="-2.71435">
        <ele>6</ele>
        <time>2026-08-20T15:39:19Z</time>
      </trkpt>
      <trkpt lat="47.57546" lon="-2.7143">
        <ele>6</ele>
        <time>2026-08-20T15:39:20Z</time>
      </trkpt>
      <trkpt lat="47.57546" lon="-2.71425">
        <ele>6</ele>
        <time>2026-08-20T15:39:21Z</time>
      </trkpt>
      <trkpt lat="47.57545" lon="-2.71421">
        <ele>6</ele>
        <time>2026-08-20T15:39:22Z</time>
      </trkpt>
      <trkpt lat="47.57544" lon="-2.71416">
        <ele>6</ele>
        <time>2026-08-20T15:39:23Z</time>
      </trkpt>
      <trkpt lat="47.57542" lon="-2.71413">
        <ele>6</ele>
        <time>2026-08-20T15:39:24Z</time>
      </trkpt>
      <trkpt lat="47.57539" lon="-2.7141">
        <ele>6</ele>
        <time>2026-08-20T15:39:25Z</time>
      </trkpt>
      <trkpt lat="47.57536" lon="-2.71408">
        <ele>6</ele>
        <time>2026-08-20T15:39:26Z</time>
      </trkpt>
      <trkpt lat="47.57533" lon="-2.71408">
        <ele>6</ele>
        <time>2026-08-20T15:39:27Z</time>
      </trkpt>
      <trkpt lat="47.57529" lon="-2.71409">
        <ele>6</ele>
        <time>2026-08-20T15:39:28Z</time>
      </trkpt>
      <trkpt lat="47.57526" lon="-2.7141">
        <ele>6</ele>
        <time>2026-08-20T15:39:29Z</time>
      </trkpt>
      <trkpt lat="47.57522" lon="-2.71412">
        <ele>6</ele>
        <time>2026-08-20T15:39:30Z</time>
      </trkpt>
      <trkpt lat="47.57518" lon="-2.71413">
        <ele>6</ele>
        <time>2026-08-20T15:39:31Z</time>
      </trkpt>
      <trkpt lat="47.57515" lon="-2.71415">
        <ele>6</ele>
        <time>2026-08-20T15:39:32Z</time>
      </trkpt>
      <trkpt lat="47.57512" lon="-2.71416">
        <ele>6</ele>
        <time>2026-08-20T15:39:33Z</time>
      </trkpt>
      <trkpt lat="47.57508" lon="-2.71417">
        <ele>6</ele>
        <time>2026-08-20T15:39:34Z</time>
      </trkpt>
      <trkpt lat="47.57504" lon="-2.71419">
        <ele>6</ele>
        <time>2026-08-20T15:39:35Z</time>
      </trkpt>
      <trkpt lat="47.57501" lon="-2.71421">
        <ele>6</ele>
        <time>2026-08-20T15:39:36Z</time>
      </trkpt>
      <trkpt lat="47.57497" lon="-2.71422">
        <ele>6</ele>
        <time>2026-08-20T15:39:37Z</time>
      </trkpt>
      <trkpt lat="47.57493" lon="-2.71423">
        <ele>6</ele>
        <time>2026-08-20T15:39:38Z</time>
      </trkpt>
      <trkpt lat="47.5749" lon="-2.71425">
        <ele>6</ele>
        <time>2026-08-20T15:39:39Z</time>
      </trkpt>
      <trkpt lat="47.57486" lon="-2.71427">
        <ele>6</ele>
        <time>2026-08-20T15:39:40Z</time>
      </trkpt>
      <trkpt lat="47.57483" lon="-2.71428">
        <ele>6</ele>
        <time>2026-08-20T15:39:41Z</time>
      </trkpt>
      <trkpt lat="47.57479" lon="-2.71429">
        <ele>6</ele>
        <time>2026-08-20T15:39:42Z</time>
      </trkpt>
      <trkpt lat="47.57475" lon="-2.71431">
        <ele>6</ele>
        <time>2026-08-20T15:39:43Z</time>
      </trkpt>
      <trkpt lat="47.57472" lon="-2.71432">
        <ele>6</ele>
        <time>2026-08-20T15:39:44Z</time>
      </trkpt>
      <trkpt lat="47.57468" lon="-2.71434">
        <ele>5.8</ele>
        <time>2026-08-20T15:39:45Z</time>
      </trkpt>
      <trkpt lat="47.57463" lon="-2.71435">
        <ele>5.7</ele>
        <time>2026-08-20T15:39:46Z</time>
      </trkpt>
      <trkpt lat="47.5746" lon="-2.71437">
        <ele>5.6</ele>
        <time>2026-08-20T15:39:47Z</time>
      </trkpt>
      <trkpt lat="47.57456" lon="-2.71438">
        <ele>5.4</ele>
        <time>2026-08-20T15:39:48Z</time>
      </trkpt>
      <trkpt lat="47.57452" lon="-2.7144">
        <ele>5.3</ele>
        <time>2026-08-20T15:39:49Z</time>
      </trkpt>
      <trkpt lat="47.57448" lon="-2.71442">
        <ele>5.1</ele>
        <time>2026-08-20T15:39:50Z</time>
      </trkpt>
      <trkpt lat="47.57444" lon="-2.71443">
        <ele>5</ele>
        <time>2026-08-20T15:39:51Z</time>
      </trkpt>
      <trkpt lat="47.5744" lon="-2.71445">
        <ele>5</ele>
        <time>2026-08-20T15:39:52Z</time>
      </trkpt>
      <trkpt lat="47.57436" lon="-2.71446">
        <ele>5</ele>
        <time>2026-08-20T15:39:53Z</time>
      </trkpt>
      <trkpt lat="47.57432" lon="-2.71448">
        <ele>5</ele>
        <time>2026-08-20T15:39:54Z</time>
      </trkpt>
      <trkpt lat="47.57428" lon="-2.71449">
        <ele>5</ele>
        <time>2026-08-20T15:39:55Z</time>
      </trkpt>
      <trkpt lat="47.57424" lon="-2.7145">
        <ele>5</ele>
        <time>2026-08-20T15:39:56Z</time>
      </trkpt>
      <trkpt lat="47.57419" lon="-2.71452">
        <ele>5</ele>
        <time>2026-08-20T15:39:57Z</time>
      </trkpt>
      <trkpt lat="47.57415" lon="-2.71453">
        <ele>5</ele>
        <time>2026-08-20T15:39:58Z</time>
      </trkpt>
      <trkpt lat="47.57411" lon="-2.71455">
        <ele>5</ele>
        <time>2026-08-20T15:39:59Z</time>
      </trkpt>
      <trkpt lat="47.57407" lon="-2.71457">
        <ele>5</ele>
        <time>2026-08-20T15:40:00Z</time>
      </trkpt>
      <trkpt lat="47.57402" lon="-2.71458">
        <ele>5</ele>
        <time>2026-08-20T15:40:01Z</time>
      </trkpt>
      <trkpt lat="47.57398" lon="-2.71458">
        <ele>5</ele>
        <time>2026-08-20T15:40:02Z</time>
      </trkpt>
      <trkpt lat="47.57394" lon="-2.71458">
        <ele>5</ele>
        <time>2026-08-20T15:40:03Z</time>
      </trkpt>
      <trkpt lat="47.5739" lon="-2.71457">
        <ele>5</ele>
        <time>2026-08-20T15:40:04Z</time>
      </trkpt>
      <trkpt lat="47.57386" lon="-2.71457">
        <ele>5</ele>
        <time>2026-08-20T15:40:05Z</time>
      </trkpt>
      <trkpt lat="47.57382" lon="-2.71457">
        <ele>5</ele>
        <time>2026-08-20T15:40:06Z</time>
      </trkpt>
      <trkpt lat="47.57378" lon="-2.71457">
        <ele>5</ele>
        <time>2026-08-20T15:40:07Z</time>
      </trkpt>
      <trkpt lat="47.57373" lon="-2.71458">
        <ele>5</ele>
        <time>2026-08-20T15:40:08Z</time>
      </trkpt>
      <trkpt lat="47.57369" lon="-2.71458">
        <ele>5</ele>
        <time>2026-08-20T15:40:09Z</time>
      </trkpt>
      <trkpt lat="47.57365" lon="-2.71459">
        <ele>5</ele>
        <time>2026-08-20T15:40:10Z</time>
      </trkpt>
      <trkpt lat="47.5736" lon="-2.7146">
        <ele>5</ele>
        <time>2026-08-20T15:40:11Z</time>
      </trkpt>
      <trkpt lat="47.57356" lon="-2.7146">
        <ele>4.8</ele>
        <time>2026-08-20T15:40:12Z</time>
      </trkpt>
      <trkpt lat="47.57351" lon="-2.7146">
        <ele>4.6</ele>
        <time>2026-08-20T15:40:13Z</time>
      </trkpt>
      <trkpt lat="47.57347" lon="-2.71461">
        <ele>4.5</ele>
        <time>2026-08-20T15:40:14Z</time>
      </trkpt>
      <trkpt lat="47.57342" lon="-2.71462">
        <ele>4.3</ele>
        <time>2026-08-20T15:40:15Z</time>
      </trkpt>
      <trkpt lat="47.57337" lon="-2.71462">
        <ele>4.1</ele>
        <time>2026-08-20T15:40:16Z</time>
      </trkpt>
      <trkpt lat="47.57333" lon="-2.71463">
        <ele>4</ele>
        <time>2026-08-20T15:40:17Z</time>
      </trkpt>
      <trkpt lat="47.57328" lon="-2.71464">
        <ele>4</ele>
        <time>2026-08-20T15:40:18Z</time>
      </trkpt>
      <trkpt lat="47.57323" lon="-2.71465">
        <ele>4</ele>
        <time>2026-08-20T15:40:19Z</time>
      </trkpt>
      <trkpt lat="47.57318" lon="-2.71466">
        <ele>4</ele>
        <time>2026-08-20T15:40:20Z</time>
      </trkpt>
      <trkpt lat="47.57313" lon="-2.71466">
        <ele>4</ele>
        <time>2026-08-20T15:40:21Z</time>
      </trkpt>
      <trkpt lat="47.57308" lon="-2.71467">
        <ele>4</ele>
        <time>2026-08-20T15:40:22Z</time>
      </trkpt>
      <trkpt lat="47.57303" lon="-2.71467">
        <ele>4</ele>
        <time>2026-08-20T15:40:23Z</time>
      </trkpt>
      <trkpt lat="47.57299" lon="-2.71468">
        <ele>4</ele>
        <time>2026-08-20T15:40:24Z</time>
      </trkpt>
      <trkpt lat="47.57294" lon="-2.71468">
        <ele>4</ele>
        <time>2026-08-20T15:40:25Z</time>
      </trkpt>
      <trkpt lat="47.57289" lon="-2.71469">
        <ele>4</ele>
        <time>2026-08-20T15:40:26Z</time>
      </trkpt>
      <trkpt lat="47.57284" lon="-2.7147">
        <ele>4</ele>
        <time>2026-08-20T15:40:27Z</time>
      </trkpt>
      <trkpt lat="47.57279" lon="-2.7147">
        <ele>4</ele>
        <time>2026-08-20T15:40:28Z</time>
      </trkpt>
      <trkpt lat="47.57274" lon="-2.7147">
        <ele>4</ele>
        <time>2026-08-20T15:40:29Z</time>
      </trkpt>
      <trkpt lat="47.57269" lon="-2.71471">
        <ele>4</ele>
        <time>2026-08-20T15:40:30Z</time>
      </trkpt>
      <trkpt lat="47.57265" lon="-2.71472">
        <ele>4</ele>
        <time>2026-08-20T15:40:31Z</time>
      </trkpt>
      <trkpt lat="47.5726" lon="-2.71473">
        <ele>4</ele>
        <time>2026-08-20T15:40:32Z</time>
      </trkpt>
      <trkpt lat="47.57255" lon="-2.71474">
        <ele>4</ele>
        <time>2026-08-20T15:40:33Z</time>
      </trkpt>
      <trkpt lat="47.5725" lon="-2.71475">
        <ele>4</ele>
        <time>2026-08-20T15:40:34Z</time>
      </trkpt>
      <trkpt lat="47.57245" lon="-2.71476">
        <ele>4</ele>
        <time>2026-08-20T15:40:35Z</time>
      </trkpt>
      <trkpt lat="47.5724" lon="-2.71476">
        <ele>4</ele>
        <time>2026-08-20T15:40:36Z</time>
      </trkpt>
      <trkpt lat="47.57235" lon="-2.71477">
        <ele>3.9</ele>
        <time>2026-08-20T15:40:37Z</time>
      </trkpt>
      <trkpt lat="47.5723" lon="-2.71478">
        <ele>3.9</ele>
        <time>2026-08-20T15:40:38Z</time>
      </trkpt>
      <trkpt lat="47.57226" lon="-2.71479">
        <ele>3.8</ele>
        <time>2026-08-20T15:40:39Z</time>
      </trkpt>
      <trkpt lat="47.57221" lon="-2.71479">
        <ele>3.8</ele>
        <time>2026-08-20T15:40:40Z</time>
      </trkpt>
      <trkpt lat="47.57216" lon="-2.7148">
        <ele>3.8</ele>
        <time>2026-08-20T15:40:41Z</time>
      </trkpt>
      <trkpt lat="47.57211" lon="-2.7148">
        <ele>3.8</ele>
        <time>2026-08-20T15:40:42Z</time>
      </trkpt>
      <trkpt lat="47.57206" lon="-2.71481">
        <ele>3.9</ele>
        <time>2026-08-20T15:40:43Z</time>
      </trkpt>
      <trkpt lat="47.57202" lon="-2.71481">
        <ele>3.9</ele>
        <time>2026-08-20T15:40:44Z</time>
      </trkpt>
      <trkpt lat="47.57197" lon="-2.71482">
        <ele>4</ele>
        <time>2026-08-20T15:40:45Z</time>
      </trkpt>
      <trkpt lat="47.57193" lon="-2.71482">
        <ele>4</ele>
        <time>2026-08-20T15:40:46Z</time>
      </trkpt>
      <trkpt lat="47.57189" lon="-2.71483">
        <ele>4.1</ele>
        <time>2026-08-20T15:40:47Z</time>
      </trkpt>
      <trkpt lat="47.57184" lon="-2.71484">
        <ele>4.2</ele>
        <time>2026-08-20T15:40:48Z</time>
      </trkpt>
      <trkpt lat="47.5718" lon="-2.71485">
        <ele>4.3</ele>
        <time>2026-08-20T15:40:49Z</time>
      </trkpt>
      <trkpt lat="47.57175" lon="-2.71486">
        <ele>4.4</ele>
        <time>2026-08-20T15:40:50Z</time>
      </trkpt>
      <trkpt lat="47.5717" lon="-2.71486">
        <ele>4.4</ele>
        <time>2026-08-20T15:40:51Z</time>
      </trkpt>
      <trkpt lat="47.57166" lon="-2.71487">
        <ele>4.5</ele>
        <time>2026-08-20T15:40:52Z</time>
      </trkpt>
      <trkpt lat="47.57161" lon="-2.71488">
        <ele>4.4</ele>
        <time>2026-08-20T15:40:53Z</time>
      </trkpt>
      <trkpt lat="47.57157" lon="-2.71488">
        <ele>4.4</ele>
        <time>2026-08-20T15:40:54Z</time>
      </trkpt>
      <trkpt lat="47.57152" lon="-2.71488">
        <ele>4.4</ele>
        <time>2026-08-20T15:40:55Z</time>
      </trkpt>
      <trkpt lat="47.57148" lon="-2.71489">
        <ele>4.4</ele>
        <time>2026-08-20T15:40:56Z</time>
      </trkpt>
      <trkpt lat="47.57143" lon="-2.7149">
        <ele>4.4</ele>
        <time>2026-08-20T15:40:57Z</time>
      </trkpt>
      <trkpt lat="47.57139" lon="-2.71491">
        <ele>4.3</ele>
        <time>2026-08-20T15:40:58Z</time>
      </trkpt>
      <trkpt lat="47.57134" lon="-2.71492">
        <ele>4.3</ele>
        <time>2026-08-20T15:40:59Z</time>
      </trkpt>
      <trkpt lat="47.5713" lon="-2.71492">
        <ele>4.3</ele>
        <time>2026-08-20T15:41:00Z</time>
      </trkpt>
      <trkpt lat="47.57125" lon="-2.71493">
        <ele>4.3</ele>
        <time>2026-08-20T15:41:01Z</time>
      </trkpt>
      <trkpt lat="47.57121" lon="-2.71494">
        <ele>4.2</ele>
        <time>2026-08-20T15:41:02Z</time>
      </trkpt>
      <trkpt lat="47.57117" lon="-2.71494">
        <ele>4.2</ele>
        <time>2026-08-20T15:41:03Z</time>
      </trkpt>
      <trkpt lat="47.57113" lon="-2.71495">
        <ele>4.2</ele>
        <time>2026-08-20T15:41:04Z</time>
      </trkpt>
      <trkpt lat="47.57109" lon="-2.71496">
        <ele>4.1</ele>
        <time>2026-08-20T15:41:05Z</time>
      </trkpt>
      <trkpt lat="47.57105" lon="-2.71497">
        <ele>4.1</ele>
        <time>2026-08-20T15:41:06Z</time>
      </trkpt>
      <trkpt lat="47.57101" lon="-2.71497">
        <ele>4.1</ele>
        <time>2026-08-20T15:41:07Z</time>
      </trkpt>
      <trkpt lat="47.57097" lon="-2.71498">
        <ele>4.1</ele>
        <time>2026-08-20T15:41:08Z</time>
      </trkpt>
      <trkpt lat="47.57093" lon="-2.71499">
        <ele>4</ele>
        <time>2026-08-20T15:41:09Z</time>
      </trkpt>
      <trkpt lat="47.57089" lon="-2.71499">
        <ele>4</ele>
        <time>2026-08-20T15:41:10Z</time>
      </trkpt>
      <trkpt lat="47.57085" lon="-2.71499">
        <ele>4</ele>
        <time>2026-08-20T15:41:11Z</time>
      </trkpt>
      <trkpt lat="47.5708" lon="-2.715">
        <ele>4.1</ele>
        <time>2026-08-20T15:41:12Z</time>
      </trkpt>
      <trkpt lat="47.57076" lon="-2.715">
        <ele>4.3</ele>
        <time>2026-08-20T15:41:13Z</time>
      </trkpt>
      <trkpt lat="47.57072" lon="-2.71501">
        <ele>4.4</ele>
        <time>2026-08-20T15:41:14Z</time>
      </trkpt>
      <trkpt lat="47.57068" lon="-2.71501">
        <ele>4.5</ele>
        <time>2026-08-20T15:41:15Z</time>
      </trkpt>
      <trkpt lat="47.57064" lon="-2.71502">
        <ele>4.6</ele>
        <time>2026-08-20T15:41:16Z</time>
      </trkpt>
      <trkpt lat="47.57059" lon="-2.71503">
        <ele>4.8</ele>
        <time>2026-08-20T15:41:17Z</time>
      </trkpt>
      <trkpt lat="47.57055" lon="-2.71504">
        <ele>4.9</ele>
        <time>2026-08-20T15:41:18Z</time>
      </trkpt>
      <trkpt lat="47.57051" lon="-2.71504">
        <ele>4.9</ele>
        <time>2026-08-20T15:41:19Z</time>
      </trkpt>
      <trkpt lat="47.57048" lon="-2.71505">
        <ele>4.8</ele>
        <time>2026-08-20T15:41:20Z</time>
      </trkpt>
      <trkpt lat="47.57043" lon="-2.71505">
        <ele>4.8</ele>
        <time>2026-08-20T15:41:21Z</time>
      </trkpt>
      <trkpt lat="47.57039" lon="-2.71506">
        <ele>4.8</ele>
        <time>2026-08-20T15:41:22Z</time>
      </trkpt>
      <trkpt lat="47.57035" lon="-2.71506">
        <ele>4.8</ele>
        <time>2026-08-20T15:41:23Z</time>
      </trkpt>
      <trkpt lat="47.57031" lon="-2.71507">
        <ele>4.7</ele>
        <time>2026-08-20T15:41:24Z</time>
      </trkpt>
      <trkpt lat="47.57027" lon="-2.71507">
        <ele>4.8</ele>
        <time>2026-08-20T15:41:25Z</time>
      </trkpt>
      <trkpt lat="47.57023" lon="-2.71508">
        <ele>4.9</ele>
        <time>2026-08-20T15:41:26Z</time>
      </trkpt>
      <trkpt lat="47.57019" lon="-2.71508">
        <ele>5</ele>
        <time>2026-08-20T15:41:27Z</time>
      </trkpt>
      <trkpt lat="47.57015" lon="-2.71508">
        <ele>5.2</ele>
        <time>2026-08-20T15:41:28Z</time>
      </trkpt>
      <trkpt lat="47.5701" lon="-2.71509">
        <ele>5.3</ele>
        <time>2026-08-20T15:41:29Z</time>
      </trkpt>
      <trkpt lat="47.57006" lon="-2.71509">
        <ele>5.5</ele>
        <time>2026-08-20T15:41:30Z</time>
      </trkpt>
      <trkpt lat="47.57002" lon="-2.71509">
        <ele>5.6</ele>
        <time>2026-08-20T15:41:31Z</time>
      </trkpt>
      <trkpt lat="47.56998" lon="-2.7151">
        <ele>5.7</ele>
        <time>2026-08-20T15:41:32Z</time>
      </trkpt>
      <trkpt lat="47.56994" lon="-2.7151">
        <ele>5.8</ele>
        <time>2026-08-20T15:41:33Z</time>
      </trkpt>
      <trkpt lat="47.5699" lon="-2.71511">
        <ele>5.8</ele>
        <time>2026-08-20T15:41:34Z</time>
      </trkpt>
      <trkpt lat="47.56986" lon="-2.71511">
        <ele>5.9</ele>
        <time>2026-08-20T15:41:35Z</time>
      </trkpt>
      <trkpt lat="47.56982" lon="-2.71512">
        <ele>5.9</ele>
        <time>2026-08-20T15:41:36Z</time>
      </trkpt>
      <trkpt lat="47.56978" lon="-2.71512">
        <ele>6</ele>
        <time>2026-08-20T15:41:37Z</time>
      </trkpt>
      <trkpt lat="47.56974" lon="-2.71513">
        <ele>6</ele>
        <time>2026-08-20T15:41:38Z</time>
      </trkpt>
      <trkpt lat="47.56971" lon="-2.71513">
        <ele>6.1</ele>
        <time>2026-08-20T15:41:39Z</time>
      </trkpt>
      <trkpt lat="47.56967" lon="-2.71514">
        <ele>6.1</ele>
        <time>2026-08-20T15:41:40Z</time>
      </trkpt>
      <trkpt lat="47.56963" lon="-2.71514">
        <ele>6.2</ele>
        <time>2026-08-20T15:41:41Z</time>
      </trkpt>
      <trkpt lat="47.56959" lon="-2.71515">
        <ele>6.2</ele>
        <time>2026-08-20T15:41:42Z</time>
      </trkpt>
      <trkpt lat="47.56955" lon="-2.71516">
        <ele>6.2</ele>
        <time>2026-08-20T15:41:43Z</time>
      </trkpt>
      <trkpt lat="47.56951" lon="-2.71517">
        <ele>6.2</ele>
        <time>2026-08-20T15:41:44Z</time>
      </trkpt>
      <trkpt lat="47.56946" lon="-2.71517">
        <ele>6.4</ele>
        <time>2026-08-20T15:41:45Z</time>
      </trkpt>
      <trkpt lat="47.56942" lon="-2.71518">
        <ele>6.4</ele>
        <time>2026-08-20T15:41:46Z</time>
      </trkpt>
      <trkpt lat="47.56938" lon="-2.71518">
        <ele>6.6</ele>
        <time>2026-08-20T15:41:47Z</time>
      </trkpt>
      <trkpt lat="47.56933" lon="-2.71519">
        <ele>6.7</ele>
        <time>2026-08-20T15:41:48Z</time>
      </trkpt>
      <trkpt lat="47.56929" lon="-2.71519">
        <ele>6.9</ele>
        <time>2026-08-20T15:41:49Z</time>
      </trkpt>
      <trkpt lat="47.56925" lon="-2.7152">
        <ele>7</ele>
        <time>2026-08-20T15:41:50Z</time>
      </trkpt>
      <trkpt lat="47.56921" lon="-2.71521">
        <ele>7.1</ele>
        <time>2026-08-20T15:41:51Z</time>
      </trkpt>
      <trkpt lat="47.56917" lon="-2.71521">
        <ele>7.2</ele>
        <time>2026-08-20T15:41:52Z</time>
      </trkpt>
      <trkpt lat="47.56912" lon="-2.71522">
        <ele>7.4</ele>
        <time>2026-08-20T15:41:53Z</time>
      </trkpt>
      <trkpt lat="47.56908" lon="-2.71522">
        <ele>7.5</ele>
        <time>2026-08-20T15:41:54Z</time>
      </trkpt>
      <trkpt lat="47.56904" lon="-2.71522">
        <ele>7.7</ele>
        <time>2026-08-20T15:41:55Z</time>
      </trkpt>
      <trkpt lat="47.56899" lon="-2.71523">
        <ele>7.8</ele>
        <time>2026-08-20T15:41:56Z</time>
      </trkpt>
      <trkpt lat="47.56895" lon="-2.71524">
        <ele>7.9</ele>
        <time>2026-08-20T15:41:57Z</time>
      </trkpt>
      <trkpt lat="47.56891" lon="-2.71525">
        <ele>8</ele>
        <time>2026-08-20T15:41:58Z</time>
      </trkpt>
      <trkpt lat="47.56886" lon="-2.71526">
        <ele>8.1</ele>
        <time>2026-08-20T15:41:59Z</time>
      </trkpt>
      <trkpt lat="47.56882" lon="-2.71526">
        <ele>8.1</ele>
        <time>2026-08-20T15:42:00Z</time>
      </trkpt>
      <trkpt lat="47.56878" lon="-2.71527">
        <ele>8</ele>
        <time>2026-08-20T15:42:01Z</time>
      </trkpt>
      <trkpt lat="47.56873" lon="-2.71528">
        <ele>8</ele>
        <time>2026-08-20T15:42:02Z</time>
      </trkpt>
      <trkpt lat="47.56869" lon="-2.71529">
        <ele>7.9</ele>
        <time>2026-08-20T15:42:03Z</time>
      </trkpt>
      <trkpt lat="47.56864" lon="-2.71529">
        <ele>8</ele>
        <time>2026-08-20T15:42:04Z</time>
      </trkpt>
      <trkpt lat="47.5686" lon="-2.7153">
        <ele>7.9</ele>
        <time>2026-08-20T15:42:05Z</time>
      </trkpt>
      <trkpt lat="47.56856" lon="-2.71531">
        <ele>7.9</ele>
        <time>2026-08-20T15:42:06Z</time>
      </trkpt>
      <trkpt lat="47.56851" lon="-2.71531">
        <ele>7.9</ele>
        <time>2026-08-20T15:42:07Z</time>
      </trkpt>
      <trkpt lat="47.56847" lon="-2.71532">
        <ele>7.9</ele>
        <time>2026-08-20T15:42:08Z</time>
      </trkpt>
      <trkpt lat="47.56842" lon="-2.71533">
        <ele>7.9</ele>
        <time>2026-08-20T15:42:09Z</time>
      </trkpt>
      <trkpt lat="47.56838" lon="-2.71533">
        <ele>8</ele>
        <time>2026-08-20T15:42:10Z</time>
      </trkpt>
      <trkpt lat="47.56833" lon="-2.71534">
        <ele>8</ele>
        <time>2026-08-20T15:42:11Z</time>
      </trkpt>
      <trkpt lat="47.56829" lon="-2.71535">
        <ele>8</ele>
        <time>2026-08-20T15:42:12Z</time>
      </trkpt>
      <trkpt lat="47.56824" lon="-2.71535">
        <ele>7.9</ele>
        <time>2026-08-20T15:42:13Z</time>
      </trkpt>
      <trkpt lat="47.5682" lon="-2.71536">
        <ele>7.9</ele>
        <time>2026-08-20T15:42:14Z</time>
      </trkpt>
      <trkpt lat="47.56815" lon="-2.71537">
        <ele>7.8</ele>
        <time>2026-08-20T15:42:15Z</time>
      </trkpt>
      <trkpt lat="47.5681" lon="-2.71537">
        <ele>7.7</ele>
        <time>2026-08-20T15:42:16Z</time>
      </trkpt>
      <trkpt lat="47.56805" lon="-2.71538">
        <ele>7.6</ele>
        <time>2026-08-20T15:42:17Z</time>
      </trkpt>
      <trkpt lat="47.568" lon="-2.71538">
        <ele>7.4</ele>
        <time>2026-08-20T15:42:18Z</time>
      </trkpt>
      <trkpt lat="47.56795" lon="-2.71539">
        <ele>7.2</ele>
        <time>2026-08-20T15:42:19Z</time>
      </trkpt>
      <trkpt lat="47.56789" lon="-2.7154">
        <ele>7</ele>
        <time>2026-08-20T15:42:20Z</time>
      </trkpt>
      <trkpt lat="47.56784" lon="-2.71541">
        <ele>6.7</ele>
        <time>2026-08-20T15:42:21Z</time>
      </trkpt>
      <trkpt lat="47.56779" lon="-2.71541">
        <ele>6.6</ele>
        <time>2026-08-20T15:42:22Z</time>
      </trkpt>
      <trkpt lat="47.56773" lon="-2.71542">
        <ele>6.4</ele>
        <time>2026-08-20T15:42:23Z</time>
      </trkpt>
      <trkpt lat="47.56768" lon="-2.71543">
        <ele>6.3</ele>
        <time>2026-08-20T15:42:24Z</time>
      </trkpt>
      <trkpt lat="47.56763" lon="-2.71544">
        <ele>6.2</ele>
        <time>2026-08-20T15:42:25Z</time>
      </trkpt>
      <trkpt lat="47.56757" lon="-2.71545">
        <ele>6.1</ele>
        <time>2026-08-20T15:42:26Z</time>
      </trkpt>
      <trkpt lat="47.56752" lon="-2.71545">
        <ele>6</ele>
        <time>2026-08-20T15:42:27Z</time>
      </trkpt>
      <trkpt lat="47.56746" lon="-2.71546">
        <ele>5.9</ele>
        <time>2026-08-20T15:42:28Z</time>
      </trkpt>
      <trkpt lat="47.5674" lon="-2.71547">
        <ele>5.6</ele>
        <time>2026-08-20T15:42:29Z</time>
      </trkpt>
      <trkpt lat="47.56735" lon="-2.71548">
        <ele>5.5</ele>
        <time>2026-08-20T15:42:30Z</time>
      </trkpt>
      <trkpt lat="47.56729" lon="-2.71549">
        <ele>5.2</ele>
        <time>2026-08-20T15:42:31Z</time>
      </trkpt>
      <trkpt lat="47.56723" lon="-2.7155">
        <ele>5</ele>
        <time>2026-08-20T15:42:32Z</time>
      </trkpt>
      <trkpt lat="47.56717" lon="-2.7155">
        <ele>4.8</ele>
        <time>2026-08-20T15:42:33Z</time>
      </trkpt>
      <trkpt lat="47.56711" lon="-2.71551">
        <ele>4.7</ele>
        <time>2026-08-20T15:42:34Z</time>
      </trkpt>
      <trkpt lat="47.56706" lon="-2.71552">
        <ele>4.5</ele>
        <time>2026-08-20T15:42:35Z</time>
      </trkpt>
      <trkpt lat="47.567" lon="-2.71553">
        <ele>4.3</ele>
        <time>2026-08-20T15:42:36Z</time>
      </trkpt>
      <trkpt lat="47.56694" lon="-2.71554">
        <ele>4.1</ele>
        <time>2026-08-20T15:42:37Z</time>
      </trkpt>
      <trkpt lat="47.56688" lon="-2.71555">
        <ele>4</ele>
        <time>2026-08-20T15:42:38Z</time>
      </trkpt>
      <trkpt lat="47.56682" lon="-2.71556">
        <ele>4</ele>
        <time>2026-08-20T15:42:39Z</time>
      </trkpt>
      <trkpt lat="47.56677" lon="-2.71556">
        <ele>4</ele>
        <time>2026-08-20T15:42:40Z</time>
      </trkpt>
      <trkpt lat="47.56672" lon="-2.71557">
        <ele>4</ele>
        <time>2026-08-20T15:42:41Z</time>
      </trkpt>
      <trkpt lat="47.56666" lon="-2.71557">
        <ele>4.1</ele>
        <time>2026-08-20T15:42:42Z</time>
      </trkpt>
      <trkpt lat="47.56663" lon="-2.71558">
        <ele>4.2</ele>
        <time>2026-08-20T15:42:43Z</time>
      </trkpt>
      <trkpt lat="47.56657" lon="-2.71559">
        <ele>4.4</ele>
        <time>2026-08-20T15:42:44Z</time>
      </trkpt>
      <trkpt lat="47.56652" lon="-2.7156">
        <ele>4.6</ele>
        <time>2026-08-20T15:42:45Z</time>
      </trkpt>
      <trkpt lat="47.56647" lon="-2.71561">
        <ele>4.8</ele>
        <time>2026-08-20T15:42:46Z</time>
      </trkpt>
      <trkpt lat="47.56643" lon="-2.71561">
        <ele>4.9</ele>
        <time>2026-08-20T15:42:47Z</time>
      </trkpt>
      <trkpt lat="47.56638" lon="-2.71562">
        <ele>5</ele>
        <time>2026-08-20T15:42:48Z</time>
      </trkpt>
      <trkpt lat="47.56634" lon="-2.71563">
        <ele>5.2</ele>
        <time>2026-08-20T15:42:49Z</time>
      </trkpt>
      <trkpt lat="47.56629" lon="-2.71563">
        <ele>5.4</ele>
        <time>2026-08-20T15:42:50Z</time>
      </trkpt>
      <trkpt lat="47.56625" lon="-2.71564">
        <ele>5.5</ele>
        <time>2026-08-20T15:42:51Z</time>
      </trkpt>
      <trkpt lat="47.56621" lon="-2.71564">
        <ele>5.6</ele>
        <time>2026-08-20T15:42:52Z</time>
      </trkpt>
      <trkpt lat="47.56617" lon="-2.71565">
        <ele>5.8</ele>
        <time>2026-08-20T15:42:53Z</time>
      </trkpt>
      <trkpt lat="47.56613" lon="-2.71566">
        <ele>5.9</ele>
        <time>2026-08-20T15:42:54Z</time>
      </trkpt>
      <trkpt lat="47.56609" lon="-2.71566">
        <ele>6.1</ele>
        <time>2026-08-20T15:42:55Z</time>
      </trkpt>
      <trkpt lat="47.56605" lon="-2.71566">
        <ele>6.2</ele>
        <time>2026-08-20T15:42:56Z</time>
      </trkpt>
      <trkpt lat="47.566" lon="-2.71567">
        <ele>6.4</ele>
        <time>2026-08-20T15:42:57Z</time>
      </trkpt>
      <trkpt lat="47.56596" lon="-2.71567">
        <ele>6.5</ele>
        <time>2026-08-20T15:42:58Z</time>
      </trkpt>
      <trkpt lat="47.56592" lon="-2.71568">
        <ele>6.7</ele>
        <time>2026-08-20T15:42:59Z</time>
      </trkpt>
      <trkpt lat="47.56588" lon="-2.71569">
        <ele>6.8</ele>
        <time>2026-08-20T15:43:00Z</time>
      </trkpt>
      <trkpt lat="47.56584" lon="-2.71569">
        <ele>7</ele>
        <time>2026-08-20T15:43:01Z</time>
      </trkpt>
      <trkpt lat="47.56581" lon="-2.7157">
        <ele>7.1</ele>
        <time>2026-08-20T15:43:02Z</time>
      </trkpt>
      <trkpt lat="47.56577" lon="-2.71572">
        <ele>7.2</ele>
        <time>2026-08-20T15:43:03Z</time>
      </trkpt>
      <trkpt lat="47.56574" lon="-2.71574">
        <ele>7.3</ele>
        <time>2026-08-20T15:43:04Z</time>
      </trkpt>
      <trkpt lat="47.56572" lon="-2.71578">
        <ele>7.4</ele>
        <time>2026-08-20T15:43:05Z</time>
      </trkpt>
      <trkpt lat="47.5657" lon="-2.71583">
        <ele>7.5</ele>
        <time>2026-08-20T15:43:06Z</time>
      </trkpt>
      <trkpt lat="47.5657" lon="-2.71589">
        <ele>7.7</ele>
        <time>2026-08-20T15:43:07Z</time>
      </trkpt>
      <trkpt lat="47.5657" lon="-2.71594">
        <ele>7.9</ele>
        <time>2026-08-20T15:43:08Z</time>
      </trkpt>
      <trkpt lat="47.5657" lon="-2.716">
        <ele>8.1</ele>
        <time>2026-08-20T15:43:09Z</time>
      </trkpt>
      <trkpt lat="47.5657" lon="-2.71605">
        <ele>8.3</ele>
        <time>2026-08-20T15:43:10Z</time>
      </trkpt>
      <trkpt lat="47.5657" lon="-2.71611">
        <ele>8.5</ele>
        <time>2026-08-20T15:43:11Z</time>
      </trkpt>
      <trkpt lat="47.5657" lon="-2.71617">
        <ele>8.5</ele>
        <time>2026-08-20T15:43:12Z</time>
      </trkpt>
      <trkpt lat="47.56569" lon="-2.71622">
        <ele>8.5</ele>
        <time>2026-08-20T15:43:13Z</time>
      </trkpt>
      <trkpt lat="47.56568" lon="-2.71628">
        <ele>8.6</ele>
        <time>2026-08-20T15:43:14Z</time>
      </trkpt>
      <trkpt lat="47.56568" lon="-2.71633">
        <ele>8.6</ele>
        <time>2026-08-20T15:43:15Z</time>
      </trkpt>
      <trkpt lat="47.56567" lon="-2.71638">
        <ele>8.6</ele>
        <time>2026-08-20T15:43:16Z</time>
      </trkpt>
      <trkpt lat="47.56566" lon="-2.71643">
        <ele>8.6</ele>
        <time>2026-08-20T15:43:17Z</time>
      </trkpt>
      <trkpt lat="47.56564" lon="-2.71648">
        <ele>8.7</ele>
        <time>2026-08-20T15:43:18Z</time>
      </trkpt>
      <trkpt lat="47.56563" lon="-2.71653">
        <ele>8.7</ele>
        <time>2026-08-20T15:43:19Z</time>
      </trkpt>
      <trkpt lat="47.56562" lon="-2.71659">
        <ele>8.8</ele>
        <time>2026-08-20T15:43:20Z</time>
      </trkpt>
      <trkpt lat="47.56561" lon="-2.71664">
        <ele>8.8</ele>
        <time>2026-08-20T15:43:21Z</time>
      </trkpt>
      <trkpt lat="47.5656" lon="-2.71669">
        <ele>8.8</ele>
        <time>2026-08-20T15:43:22Z</time>
      </trkpt>
      <trkpt lat="47.56559" lon="-2.71675">
        <ele>8.6</ele>
        <time>2026-08-20T15:43:23Z</time>
      </trkpt>
      <trkpt lat="47.56557" lon="-2.7168">
        <ele>8.5</ele>
        <time>2026-08-20T15:43:24Z</time>
      </trkpt>
      <trkpt lat="47.56556" lon="-2.71686">
        <ele>8.3</ele>
        <time>2026-08-20T15:43:25Z</time>
      </trkpt>
      <trkpt lat="47.56554" lon="-2.71691">
        <ele>8.2</ele>
        <time>2026-08-20T15:43:26Z</time>
      </trkpt>
      <trkpt lat="47.56553" lon="-2.71697">
        <ele>8</ele>
        <time>2026-08-20T15:43:27Z</time>
      </trkpt>
      <trkpt lat="47.56551" lon="-2.71703">
        <ele>7.9</ele>
        <time>2026-08-20T15:43:28Z</time>
      </trkpt>
      <trkpt lat="47.5655" lon="-2.71708">
        <ele>7.8</ele>
        <time>2026-08-20T15:43:29Z</time>
      </trkpt>
      <trkpt lat="47.56549" lon="-2.71714">
        <ele>7.7</ele>
        <time>2026-08-20T15:43:30Z</time>
      </trkpt>
      <trkpt lat="47.56548" lon="-2.7172">
        <ele>7.6</ele>
        <time>2026-08-20T15:43:31Z</time>
      </trkpt>
      <trkpt lat="47.56546" lon="-2.71726">
        <ele>7.6</ele>
        <time>2026-08-20T15:43:32Z</time>
      </trkpt>
      <trkpt lat="47.56545" lon="-2.71731">
        <ele>7.6</ele>
        <time>2026-08-20T15:43:33Z</time>
      </trkpt>
      <trkpt lat="47.56544" lon="-2.71737">
        <ele>7.6</ele>
        <time>2026-08-20T15:43:34Z</time>
      </trkpt>
      <trkpt lat="47.56543" lon="-2.71742">
        <ele>7.6</ele>
        <time>2026-08-20T15:43:35Z</time>
      </trkpt>
      <trkpt lat="47.56542" lon="-2.71746">
        <ele>7.6</ele>
        <time>2026-08-20T15:43:36Z</time>
      </trkpt>
      <trkpt lat="47.56541" lon="-2.7175">
        <ele>7.5</ele>
        <time>2026-08-20T15:43:37Z</time>
      </trkpt>
      <trkpt lat="47.56541" lon="-2.71753">
        <ele>7.5</ele>
        <time>2026-08-20T15:43:38Z</time>
      </trkpt>
      <trkpt lat="47.56541" lon="-2.71756">
        <ele>7.5</ele>
        <time>2026-08-20T15:43:39Z</time>
      </trkpt>
      <trkpt lat="47.5654" lon="-2.7176">
        <ele>7.6</ele>
        <time>2026-08-20T15:43:40Z</time>
      </trkpt>
      <trkpt lat="47.5654" lon="-2.71763">
        <ele>7.6</ele>
        <time>2026-08-20T15:43:41Z</time>
      </trkpt>
      <trkpt lat="47.5654" lon="-2.71768">
        <ele>7.6</ele>
        <time>2026-08-20T15:43:42Z</time>
      </trkpt>
      <trkpt lat="47.56539" lon="-2.71772">
        <ele>7.6</ele>
        <time>2026-08-20T15:43:43Z</time>
      </trkpt>
      <trkpt lat="47.56539" lon="-2.71777">
        <ele>7.6</ele>
        <time>2026-08-20T15:43:44Z</time>
      </trkpt>
      <trkpt lat="47.56538" lon="-2.71782">
        <ele>7.6</ele>
        <time>2026-08-20T15:43:45Z</time>
      </trkpt>
      <trkpt lat="47.56538" lon="-2.71786">
        <ele>7.5</ele>
        <time>2026-08-20T15:43:46Z</time>
      </trkpt>
      <trkpt lat="47.56537" lon="-2.71791">
        <ele>7.5</ele>
        <time>2026-08-20T15:43:47Z</time>
      </trkpt>
      <trkpt lat="47.56537" lon="-2.71796">
        <ele>7.5</ele>
        <time>2026-08-20T15:43:48Z</time>
      </trkpt>
      <trkpt lat="47.56537" lon="-2.71801">
        <ele>7.4</ele>
        <time>2026-08-20T15:43:49Z</time>
      </trkpt>
      <trkpt lat="47.56537" lon="-2.71807">
        <ele>7.3</ele>
        <time>2026-08-20T15:43:50Z</time>
      </trkpt>
      <trkpt lat="47.56536" lon="-2.71812">
        <ele>7.2</ele>
        <time>2026-08-20T15:43:51Z</time>
      </trkpt>
      <trkpt lat="47.56535" lon="-2.71818">
        <ele>7.1</ele>
        <time>2026-08-20T15:43:52Z</time>
      </trkpt>
      <trkpt lat="47.56534" lon="-2.71823">
        <ele>7.1</ele>
        <time>2026-08-20T15:43:53Z</time>
      </trkpt>
      <trkpt lat="47.56533" lon="-2.71829">
        <ele>6.9</ele>
        <time>2026-08-20T15:43:54Z</time>
      </trkpt>
      <trkpt lat="47.56531" lon="-2.71835">
        <ele>6.8</ele>
        <time>2026-08-20T15:43:55Z</time>
      </trkpt>
      <trkpt lat="47.56529" lon="-2.71841">
        <ele>6.7</ele>
        <time>2026-08-20T15:43:56Z</time>
      </trkpt>
      <trkpt lat="47.56527" lon="-2.71847">
        <ele>6.6</ele>
        <time>2026-08-20T15:43:57Z</time>
      </trkpt>
      <trkpt lat="47.56525" lon="-2.71853">
        <ele>6.6</ele>
        <time>2026-08-20T15:43:58Z</time>
      </trkpt>
      <trkpt lat="47.56523" lon="-2.71859">
        <ele>6.6</ele>
        <time>2026-08-20T15:43:59Z</time>
      </trkpt>
      <trkpt lat="47.5652" lon="-2.71865">
        <ele>6.6</ele>
        <time>2026-08-20T15:44:00Z</time>
      </trkpt>
      <trkpt lat="47.56518" lon="-2.71871">
        <ele>6.4</ele>
        <time>2026-08-20T15:44:01Z</time>
      </trkpt>
      <trkpt lat="47.56515" lon="-2.71877">
        <ele>6.3</ele>
        <time>2026-08-20T15:44:02Z</time>
      </trkpt>
      <trkpt lat="47.56513" lon="-2.71883">
        <ele>6</ele>
        <time>2026-08-20T15:44:03Z</time>
      </trkpt>
      <trkpt lat="47.56511" lon="-2.71889">
        <ele>5.6</ele>
        <time>2026-08-20T15:44:04Z</time>
      </trkpt>
      <trkpt lat="47.56509" lon="-2.71896">
        <ele>5.5</ele>
        <time>2026-08-20T15:44:05Z</time>
      </trkpt>
      <trkpt lat="47.56507" lon="-2.71902">
        <ele>5.4</ele>
        <time>2026-08-20T15:44:06Z</time>
      </trkpt>
      <trkpt lat="47.56506" lon="-2.71909">
        <ele>5.2</ele>
        <time>2026-08-20T15:44:07Z</time>
      </trkpt>
      <trkpt lat="47.56504" lon="-2.71916">
        <ele>5</ele>
        <time>2026-08-20T15:44:08Z</time>
      </trkpt>
      <trkpt lat="47.56503" lon="-2.71923">
        <ele>5</ele>
        <time>2026-08-20T15:44:09Z</time>
      </trkpt>
      <trkpt lat="47.56502" lon="-2.7193">
        <ele>5</ele>
        <time>2026-08-20T15:44:10Z</time>
      </trkpt>
      <trkpt lat="47.56501" lon="-2.71937">
        <ele>5</ele>
        <time>2026-08-20T15:44:11Z</time>
      </trkpt>
      <trkpt lat="47.565" lon="-2.71944">
        <ele>5</ele>
        <time>2026-08-20T15:44:12Z</time>
      </trkpt>
      <trkpt lat="47.56499" lon="-2.71951">
        <ele>4.8</ele>
        <time>2026-08-20T15:44:13Z</time>
      </trkpt>
      <trkpt lat="47.56499" lon="-2.71958">
        <ele>4.5</ele>
        <time>2026-08-20T15:44:14Z</time>
      </trkpt>
      <trkpt lat="47.56498" lon="-2.71966">
        <ele>4.3</ele>
        <time>2026-08-20T15:44:15Z</time>
      </trkpt>
      <trkpt lat="47.56498" lon="-2.71973">
        <ele>4.1</ele>
        <time>2026-08-20T15:44:16Z</time>
      </trkpt>
      <trkpt lat="47.56499" lon="-2.7198">
        <ele>4</ele>
        <time>2026-08-20T15:44:17Z</time>
      </trkpt>
      <trkpt lat="47.56499" lon="-2.71988">
        <ele>4</ele>
        <time>2026-08-20T15:44:18Z</time>
      </trkpt>
      <trkpt lat="47.56499" lon="-2.71995">
        <ele>4</ele>
        <time>2026-08-20T15:44:19Z</time>
      </trkpt>
      <trkpt lat="47.565" lon="-2.72003">
        <ele>4</ele>
        <time>2026-08-20T15:44:20Z</time>
      </trkpt>
      <trkpt lat="47.56501" lon="-2.7201">
        <ele>4</ele>
        <time>2026-08-20T15:44:21Z</time>
      </trkpt>
      <trkpt lat="47.56502" lon="-2.72017">
        <ele>4</ele>
        <time>2026-08-20T15:44:22Z</time>
      </trkpt>
      <trkpt lat="47.56504" lon="-2.72024">
        <ele>4</ele>
        <time>2026-08-20T15:44:23Z</time>
      </trkpt>
      <trkpt lat="47.56505" lon="-2.72031">
        <ele>4.1</ele>
        <time>2026-08-20T15:44:24Z</time>
      </trkpt>
      <trkpt lat="47.56507" lon="-2.72037">
        <ele>4.2</ele>
        <time>2026-08-20T15:44:25Z</time>
      </trkpt>
      <trkpt lat="47.56509" lon="-2.72043">
        <ele>4.4</ele>
        <time>2026-08-20T15:44:26Z</time>
      </trkpt>
      <trkpt lat="47.56511" lon="-2.7205">
        <ele>4.5</ele>
        <time>2026-08-20T15:44:27Z</time>
      </trkpt>
      <trkpt lat="47.56513" lon="-2.72056">
        <ele>4.5</ele>
        <time>2026-08-20T15:44:28Z</time>
      </trkpt>
      <trkpt lat="47.56515" lon="-2.72062">
        <ele>4.6</ele>
        <time>2026-08-20T15:44:29Z</time>
      </trkpt>
      <trkpt lat="47.56516" lon="-2.72068">
        <ele>4.7</ele>
        <time>2026-08-20T15:44:30Z</time>
      </trkpt>
      <trkpt lat="47.56518" lon="-2.72074">
        <ele>4.8</ele>
        <time>2026-08-20T15:44:31Z</time>
      </trkpt>
      <trkpt lat="47.56519" lon="-2.7208">
        <ele>4.9</ele>
        <time>2026-08-20T15:44:32Z</time>
      </trkpt>
      <trkpt lat="47.5652" lon="-2.72086">
        <ele>5</ele>
        <time>2026-08-20T15:44:33Z</time>
      </trkpt>
      <trkpt lat="47.56521" lon="-2.72092">
        <ele>5.1</ele>
        <time>2026-08-20T15:44:34Z</time>
      </trkpt>
      <trkpt lat="47.56522" lon="-2.72098">
        <ele>5.1</ele>
        <time>2026-08-20T15:44:35Z</time>
      </trkpt>
      <trkpt lat="47.56522" lon="-2.72105">
        <ele>5.2</ele>
        <time>2026-08-20T15:44:36Z</time>
      </trkpt>
      <trkpt lat="47.56522" lon="-2.72111">
        <ele>5.2</ele>
        <time>2026-08-20T15:44:37Z</time>
      </trkpt>
      <trkpt lat="47.56522" lon="-2.72117">
        <ele>5.4</ele>
        <time>2026-08-20T15:44:38Z</time>
      </trkpt>
      <trkpt lat="47.56521" lon="-2.72123">
        <ele>5.6</ele>
        <time>2026-08-20T15:44:39Z</time>
      </trkpt>
      <trkpt lat="47.56521" lon="-2.72129">
        <ele>5.7</ele>
        <time>2026-08-20T15:44:40Z</time>
      </trkpt>
      <trkpt lat="47.5652" lon="-2.72134">
        <ele>5.9</ele>
        <time>2026-08-20T15:44:41Z</time>
      </trkpt>
      <trkpt lat="47.5652" lon="-2.7214">
        <ele>6</ele>
        <time>2026-08-20T15:44:42Z</time>
      </trkpt>
      <trkpt lat="47.56519" lon="-2.72145">
        <ele>6.2</ele>
        <time>2026-08-20T15:44:43Z</time>
      </trkpt>
      <trkpt lat="47.56518" lon="-2.72151">
        <ele>6.3</ele>
        <time>2026-08-20T15:44:44Z</time>
      </trkpt>
      <trkpt lat="47.56518" lon="-2.72156">
        <ele>6.4</ele>
        <time>2026-08-20T15:44:45Z</time>
      </trkpt>
      <trkpt lat="47.56517" lon="-2.72161">
        <ele>6.5</ele>
        <time>2026-08-20T15:44:46Z</time>
      </trkpt>
      <trkpt lat="47.56517" lon="-2.72167">
        <ele>6.6</ele>
        <time>2026-08-20T15:44:47Z</time>
      </trkpt>
      <trkpt lat="47.56516" lon="-2.72172">
        <ele>6.6</ele>
        <time>2026-08-20T15:44:48Z</time>
      </trkpt>
      <trkpt lat="47.56516" lon="-2.72178">
        <ele>6.6</ele>
        <time>2026-08-20T15:44:49Z</time>
      </trkpt>
      <trkpt lat="47.56516" lon="-2.72183">
        <ele>6.6</ele>
        <time>2026-08-20T15:44:50Z</time>
      </trkpt>
      <trkpt lat="47.56517" lon="-2.72189">
        <ele>6.6</ele>
        <time>2026-08-20T15:44:51Z</time>
      </trkpt>
      <trkpt lat="47.56517" lon="-2.72195">
        <ele>6.6</ele>
        <time>2026-08-20T15:44:52Z</time>
      </trkpt>
      <trkpt lat="47.56518" lon="-2.72201">
        <ele>6.3</ele>
        <time>2026-08-20T15:44:53Z</time>
      </trkpt>
      <trkpt lat="47.56518" lon="-2.72208">
        <ele>5.8</ele>
        <time>2026-08-20T15:44:54Z</time>
      </trkpt>
      <trkpt lat="47.56519" lon="-2.72214">
        <ele>5.5</ele>
        <time>2026-08-20T15:44:55Z</time>
      </trkpt>
      <trkpt lat="47.56519" lon="-2.72221">
        <ele>5.1</ele>
        <time>2026-08-20T15:44:56Z</time>
      </trkpt>
      <trkpt lat="47.56519" lon="-2.72228">
        <ele>5</ele>
        <time>2026-08-20T15:44:57Z</time>
      </trkpt>
      <trkpt lat="47.56519" lon="-2.72235">
        <ele>5</ele>
        <time>2026-08-20T15:44:58Z</time>
      </trkpt>
      <trkpt lat="47.56519" lon="-2.72243">
        <ele>5</ele>
        <time>2026-08-20T15:44:59Z</time>
      </trkpt>
      <trkpt lat="47.56519" lon="-2.72251">
        <ele>5</ele>
        <time>2026-08-20T15:45:00Z</time>
      </trkpt>
      <trkpt lat="47.56518" lon="-2.72258">
        <ele>4.7</ele>
        <time>2026-08-20T15:45:01Z</time>
      </trkpt>
      <trkpt lat="47.56517" lon="-2.72266">
        <ele>4.4</ele>
        <time>2026-08-20T15:45:02Z</time>
      </trkpt>
      <trkpt lat="47.56517" lon="-2.72274">
        <ele>4.1</ele>
        <time>2026-08-20T15:45:03Z</time>
      </trkpt>
      <trkpt lat="47.56517" lon="-2.72281">
        <ele>4</ele>
        <time>2026-08-20T15:45:04Z</time>
      </trkpt>
      <trkpt lat="47.56517" lon="-2.72289">
        <ele>4</ele>
        <time>2026-08-20T15:45:05Z</time>
      </trkpt>
      <trkpt lat="47.56518" lon="-2.72297">
        <ele>4</ele>
        <time>2026-08-20T15:45:06Z</time>
      </trkpt>
      <trkpt lat="47.56519" lon="-2.72304">
        <ele>4</ele>
        <time>2026-08-20T15:45:07Z</time>
      </trkpt>
      <trkpt lat="47.5652" lon="-2.72311">
        <ele>3.9</ele>
        <time>2026-08-20T15:45:08Z</time>
      </trkpt>
      <trkpt lat="47.56522" lon="-2.72317">
        <ele>3.7</ele>
        <time>2026-08-20T15:45:09Z</time>
      </trkpt>
      <trkpt lat="47.56524" lon="-2.72324">
        <ele>3.4</ele>
        <time>2026-08-20T15:45:10Z</time>
      </trkpt>
      <trkpt lat="47.56526" lon="-2.7233">
        <ele>3.2</ele>
        <time>2026-08-20T15:45:11Z</time>
      </trkpt>
      <trkpt lat="47.56527" lon="-2.72336">
        <ele>3.1</ele>
        <time>2026-08-20T15:45:12Z</time>
      </trkpt>
      <trkpt lat="47.56529" lon="-2.72342">
        <ele>3.3</ele>
        <time>2026-08-20T15:45:13Z</time>
      </trkpt>
      <trkpt lat="47.56531" lon="-2.72348">
        <ele>3.5</ele>
        <time>2026-08-20T15:45:14Z</time>
      </trkpt>
      <trkpt lat="47.56532" lon="-2.72354">
        <ele>3.7</ele>
        <time>2026-08-20T15:45:15Z</time>
      </trkpt>
      <trkpt lat="47.56534" lon="-2.7236">
        <ele>4</ele>
        <time>2026-08-20T15:45:16Z</time>
      </trkpt>
      <trkpt lat="47.56535" lon="-2.72366">
        <ele>4</ele>
        <time>2026-08-20T15:45:17Z</time>
      </trkpt>
      <trkpt lat="47.56536" lon="-2.72372">
        <ele>4</ele>
        <time>2026-08-20T15:45:18Z</time>
      </trkpt>
      <trkpt lat="47.56536" lon="-2.72379">
        <ele>4</ele>
        <time>2026-08-20T15:45:19Z</time>
      </trkpt>
      <trkpt lat="47.56537" lon="-2.72385">
        <ele>4</ele>
        <time>2026-08-20T15:45:20Z</time>
      </trkpt>
      <trkpt lat="47.56538" lon="-2.72391">
        <ele>4</ele>
        <time>2026-08-20T15:45:21Z</time>
      </trkpt>
      <trkpt lat="47.56539" lon="-2.72397">
        <ele>4.1</ele>
        <time>2026-08-20T15:45:22Z</time>
      </trkpt>
      <trkpt lat="47.5654" lon="-2.72403">
        <ele>4.2</ele>
        <time>2026-08-20T15:45:23Z</time>
      </trkpt>
      <trkpt lat="47.56541" lon="-2.72409">
        <ele>4.3</ele>
        <time>2026-08-20T15:45:24Z</time>
      </trkpt>
      <trkpt lat="47.56541" lon="-2.72415">
        <ele>4.4</ele>
        <time>2026-08-20T15:45:25Z</time>
      </trkpt>
      <trkpt lat="47.56541" lon="-2.72421">
        <ele>4.6</ele>
        <time>2026-08-20T15:45:26Z</time>
      </trkpt>
      <trkpt lat="47.56542" lon="-2.72426">
        <ele>4.7</ele>
        <time>2026-08-20T15:45:27Z</time>
      </trkpt>
      <trkpt lat="47.56543" lon="-2.72432">
        <ele>4.8</ele>
        <time>2026-08-20T15:45:28Z</time>
      </trkpt>
      <trkpt lat="47.56544" lon="-2.72437">
        <ele>4.9</ele>
        <time>2026-08-20T15:45:29Z</time>
      </trkpt>
      <trkpt lat="47.56546" lon="-2.72441">
        <ele>5</ele>
        <time>2026-08-20T15:45:30Z</time>
      </trkpt>
      <trkpt lat="47.56548" lon="-2.72446">
        <ele>5</ele>
        <time>2026-08-20T15:45:31Z</time>
      </trkpt>
      <trkpt lat="47.5655" lon="-2.72449">
        <ele>5</ele>
        <time>2026-08-20T15:45:32Z</time>
      </trkpt>
      <trkpt lat="47.56553" lon="-2.72452">
        <ele>5</ele>
        <time>2026-08-20T15:45:33Z</time>
      </trkpt>
      <trkpt lat="47.56557" lon="-2.72454">
        <ele>5</ele>
        <time>2026-08-20T15:45:34Z</time>
      </trkpt>
      <trkpt lat="47.56561" lon="-2.72453">
        <ele>5</ele>
        <time>2026-08-20T15:45:35Z</time>
      </trkpt>
      <trkpt lat="47.56564" lon="-2.72452">
        <ele>5</ele>
        <time>2026-08-20T15:45:36Z</time>
      </trkpt>
      <trkpt lat="47.56566" lon="-2.72449">
        <ele>5</ele>
        <time>2026-08-20T15:45:37Z</time>
      </trkpt>
      <trkpt lat="47.56567" lon="-2.72445">
        <ele>5</ele>
        <time>2026-08-20T15:45:38Z</time>
      </trkpt>
      <trkpt lat="47.56567" lon="-2.72442">
        <ele>5</ele>
        <time>2026-08-20T15:45:39Z</time>
      </trkpt>
      <trkpt lat="47.56566" lon="-2.72439">
        <ele>4.9</ele>
        <time>2026-08-20T15:45:40Z</time>
      </trkpt>
      <trkpt lat="47.56566" lon="-2.72436">
        <ele>4.9</ele>
        <time>2026-08-20T15:45:41Z</time>
      </trkpt>
      <trkpt lat="47.56564" lon="-2.72433">
        <ele>4.9</ele>
        <time>2026-08-20T15:45:42Z</time>
      </trkpt>
      <trkpt lat="47.56563" lon="-2.72431">
        <ele>4.9</ele>
        <time>2026-08-20T15:45:43Z</time>
      </trkpt>
      <trkpt lat="47.56561" lon="-2.72431">
        <ele>4.9</ele>
        <time>2026-08-20T15:45:44Z</time>
      </trkpt>
      <trkpt lat="47.5656" lon="-2.7243">
        <ele>4.9</ele>
        <time>2026-08-20T15:45:45Z</time>
      </trkpt>
      <trkpt lat="47.5656" lon="-2.7243">
        <ele>4.9</ele>
        <time>2026-08-20T15:45:46Z</time>
      </trkpt>
      <trkpt lat="47.5656" lon="-2.7243">
        <ele>4.9</ele>
        <time>2026-08-20T15:45:47Z</time>
      </trkpt>
    </trkseg>
  </trk>
</gpx>